<?xml version="1.0" encoding="UTF-8"?>
<gpx version="1.1" creator="https://www.www-youtrack-es.amenigma.com" xsi:schemaLocation="http://www.topografix.com/GPX/1/1 http://www.topografix.com/GPX/1/1/gpx.xsd http://www.garmin.com/xmlschemas/GpxExtensions/v3 http://www.garmin.com/xmlschemas/GpxExtensionsv3.xsd http://www.garmin.com/xmlschemas/TrackPointExtension/v1 http://www.garmin.com/xmlschemas/TrackPointExtensionv1.xsd" xmlns:gpxtpx="http://www.garmin.com/xmlschemas/TrackPointExtension/v1" xmlns:gpxx="http://www.garmin.com/xmlschemas/GpxExtensions/v3" xmlns:xsi="http://www.w3.org/2001/XMLSchema-instance">
  <metadata>
    <link href="https://www.www-youtrack-es.amenigma.com">
      <text>YouTrack.es</text>
    </link>
    <time>2026-08-31T06:48:20Z</time>
  </metadata>
  <trk>
    <src>https://www.www-youtrack-es.amenigma.com</src>
    <link href="https://www.www-youtrack-es.amenigma.com/ruta/14185-aveyron">
      <text>YouTrack.es</text>
    </link>
    <trkseg>
      <trkpt lat="44.646190" lon="2.565650">
        <ele>238.000000</ele>
        <time>2010-01-01T13:20:30Z</time>
      </trkpt>
      <trkpt lat="44.648970" lon="2.567740">
        <ele>240.35</ele>
        <time>2010-01-01T13:22:36Z</time>
      </trkpt>
      <trkpt lat="44.649460" lon="2.568360">
        <ele>240.35</ele>
        <time>2010-01-01T13:23:02Z</time>
      </trkpt>
      <trkpt lat="44.650010" lon="2.568840">
        <ele>240.573502</ele>
        <time>2010-01-01T13:23:28Z</time>
      </trkpt>
      <trkpt lat="44.650280" lon="2.569210">
        <ele>241.003128</ele>
        <time>2010-01-01T13:23:43Z</time>
      </trkpt>
      <trkpt lat="44.650822" lon="2.570090">
        <ele>242.81</ele>
        <time>2010-01-01T13:29:07Z</time>
      </trkpt>
      <trkpt lat="44.651222" lon="2.570715">
        <ele>242.81</ele>
        <time>2010-01-01T13:29:12Z</time>
      </trkpt>
      <trkpt lat="44.651500" lon="2.571425">
        <ele>243.73</ele>
        <time>2010-01-01T13:29:25Z</time>
      </trkpt>
      <trkpt lat="44.651859" lon="2.571946">
        <ele>244.143997</ele>
        <time>2010-01-01T13:30:00Z</time>
      </trkpt>
      <trkpt lat="44.652149" lon="2.572487">
        <ele>243.86</ele>
        <time>2010-01-01T13:30:14Z</time>
      </trkpt>
      <trkpt lat="44.652521" lon="2.573307">
        <ele>243.23</ele>
        <time>2010-01-01T13:30:42Z</time>
      </trkpt>
      <trkpt lat="44.652827" lon="2.573659">
        <ele>243.23</ele>
        <time>2010-01-01T13:31:00Z</time>
      </trkpt>
      <trkpt lat="44.653312" lon="2.574069">
        <ele>243.23</ele>
        <time>2010-01-01T13:32:01Z</time>
      </trkpt>
      <trkpt lat="44.654160" lon="2.574779">
        <ele>243.23</ele>
        <time>2010-01-01T13:32:46Z</time>
      </trkpt>
      <trkpt lat="44.654358" lon="2.574871">
        <ele>242.05</ele>
        <time>2010-01-01T13:33:11Z</time>
      </trkpt>
      <trkpt lat="44.654777" lon="2.573640">
        <ele>238.11</ele>
        <time>2010-01-01T13:33:44Z</time>
      </trkpt>
      <trkpt lat="44.654764" lon="2.573438">
        <ele>238.24</ele>
        <time>2010-01-01T13:35:05Z</time>
      </trkpt>
      <trkpt lat="44.654642" lon="2.573281">
        <ele>237.43</ele>
        <time>2010-01-01T13:36:25Z</time>
      </trkpt>
      <trkpt lat="44.653780" lon="2.572920">
        <ele>236.07</ele>
        <time>2010-01-01T13:36:36Z</time>
      </trkpt>
      <trkpt lat="44.653690" lon="2.572800">
        <ele>236.44</ele>
        <time>2010-01-01T13:36:37Z</time>
      </trkpt>
      <trkpt lat="44.653550" lon="2.572420">
        <ele>239.84</ele>
        <time>2010-01-01T13:36:46Z</time>
      </trkpt>
      <trkpt lat="44.653322" lon="2.572011">
        <ele>241.341660</ele>
        <time>2010-01-01T13:36:52Z</time>
      </trkpt>
      <trkpt lat="44.653142" lon="2.571770">
        <ele>241.502869</ele>
        <time>2010-01-01T13:37:05Z</time>
      </trkpt>
      <trkpt lat="44.653205" lon="2.571646">
        <ele>244.89</ele>
        <time>2010-01-01T13:38:41Z</time>
      </trkpt>
      <trkpt lat="44.653280" lon="2.571680">
        <ele>246.30</ele>
        <time>2010-01-01T13:39:48Z</time>
      </trkpt>
      <trkpt lat="44.653500" lon="2.572060">
        <ele>246.63</ele>
        <time>2010-01-01T13:41:09Z</time>
      </trkpt>
      <trkpt lat="44.654050" lon="2.572670">
        <ele>247.85</ele>
        <time>2010-01-01T13:41:28Z</time>
      </trkpt>
      <trkpt lat="44.654450" lon="2.572910">
        <ele>248.118896</ele>
        <time>2010-01-01T13:42:03Z</time>
      </trkpt>
      <trkpt lat="44.654977" lon="2.573138">
        <ele>254.579926</ele>
        <time>2010-01-01T13:42:11Z</time>
      </trkpt>
      <trkpt lat="44.655318" lon="2.573216">
        <ele>254.85</ele>
        <time>2010-01-01T13:42:32Z</time>
      </trkpt>
      <trkpt lat="44.655844" lon="2.573633">
        <ele>253.99</ele>
        <time>2010-01-01T13:42:39Z</time>
      </trkpt>
      <trkpt lat="44.655870" lon="2.573650">
        <ele>253.00</ele>
        <time>2010-01-01T13:42:51Z</time>
      </trkpt>
      <trkpt lat="44.656780" lon="2.574600">
        <ele>250.655502</ele>
        <time>2010-01-01T13:43:05Z</time>
      </trkpt>
      <trkpt lat="44.657120" lon="2.575310">
        <ele>249.313950</ele>
        <time>2010-01-01T13:43:29Z</time>
      </trkpt>
      <trkpt lat="44.657680" lon="2.576170">
        <ele>248.254395</ele>
        <time>2010-01-01T13:43:42Z</time>
      </trkpt>
      <trkpt lat="44.658414" lon="2.577085">
        <ele>247.30</ele>
        <time>2010-01-01T13:43:54Z</time>
      </trkpt>
      <trkpt lat="44.658787" lon="2.577717">
        <ele>247.26</ele>
        <time>2010-01-01T13:44:21Z</time>
      </trkpt>
      <trkpt lat="44.659050" lon="2.578250">
        <ele>249.329041</ele>
        <time>2010-01-01T13:44:34Z</time>
      </trkpt>
      <trkpt lat="44.659394" lon="2.578779">
        <ele>250.804993</ele>
        <time>2010-01-01T13:45:15Z</time>
      </trkpt>
      <trkpt lat="44.659946" lon="2.580212">
        <ele>252.419281</ele>
        <time>2010-01-01T13:45:55Z</time>
      </trkpt>
      <trkpt lat="44.660180" lon="2.580520">
        <ele>256.684204</ele>
        <time>2010-01-01T13:46:24Z</time>
      </trkpt>
      <trkpt lat="44.660430" lon="2.580720">
        <ele>260.515930</ele>
        <time>2010-01-01T13:51:54Z</time>
      </trkpt>
      <trkpt lat="44.660430" lon="2.580710">
        <ele>260.684723</ele>
        <time>2010-01-01T13:52:16Z</time>
      </trkpt>
      <trkpt lat="44.660640" lon="2.580810">
        <ele>262.660126</ele>
        <time>2010-01-01T13:52:45Z</time>
      </trkpt>
      <trkpt lat="44.660800" lon="2.580810">
        <ele>265.42</ele>
        <time>2010-01-01T13:52:52Z</time>
      </trkpt>
      <trkpt lat="44.661120" lon="2.580670">
        <ele>265.17</ele>
        <time>2010-01-01T13:54:07Z</time>
      </trkpt>
      <trkpt lat="44.663160" lon="2.578950">
        <ele>262.99</ele>
        <time>2010-01-01T13:54:59Z</time>
      </trkpt>
      <trkpt lat="44.664680" lon="2.577910">
        <ele>253.068481</ele>
        <time>2010-01-01T13:55:58Z</time>
      </trkpt>
      <trkpt lat="44.666390" lon="2.576390">
        <ele>252.57</ele>
        <time>2010-01-01T13:58:08Z</time>
      </trkpt>
      <trkpt lat="44.666760" lon="2.575980">
        <ele>252.57</ele>
        <time>2010-01-01T13:59:44Z</time>
      </trkpt>
      <trkpt lat="44.667360" lon="2.575100">
        <ele>252.57</ele>
        <time>2010-01-01T14:00:19Z</time>
      </trkpt>
      <trkpt lat="44.667470" lon="2.574850">
        <ele>252.989502</ele>
        <time>2010-01-01T14:00:32Z</time>
      </trkpt>
      <trkpt lat="44.667630" lon="2.574160">
        <ele>259.28</ele>
        <time>2010-01-01T14:01:13Z</time>
      </trkpt>
      <trkpt lat="44.667710" lon="2.573950">
        <ele>259.988007</ele>
        <time>2010-01-01T14:01:18Z</time>
      </trkpt>
      <trkpt lat="44.667910" lon="2.573620">
        <ele>259.71</ele>
        <time>2010-01-01T14:01:46Z</time>
      </trkpt>
      <trkpt lat="44.668160" lon="2.573280">
        <ele>259.71</ele>
        <time>2010-01-01T14:02:10Z</time>
      </trkpt>
      <trkpt lat="44.668660" lon="2.572790">
        <ele>258.96</ele>
        <time>2010-01-01T14:03:06Z</time>
      </trkpt>
      <trkpt lat="44.668930" lon="2.572580">
        <ele>254.41</ele>
        <time>2010-01-01T14:03:26Z</time>
      </trkpt>
      <trkpt lat="44.669230" lon="2.572430">
        <ele>254.41</ele>
        <time>2010-01-01T14:03:38Z</time>
      </trkpt>
      <trkpt lat="44.669880" lon="2.572280">
        <ele>257.795502</ele>
        <time>2010-01-01T14:03:52Z</time>
      </trkpt>
      <trkpt lat="44.670220" lon="2.572280">
        <ele>257.929779</ele>
        <time>2010-01-01T14:04:03Z</time>
      </trkpt>
      <trkpt lat="44.671230" lon="2.572390">
        <ele>260.00</ele>
        <time>2010-01-01T14:04:23Z</time>
      </trkpt>
      <trkpt lat="44.672220" lon="2.572590">
        <ele>260.63</ele>
        <time>2010-01-01T14:04:27Z</time>
      </trkpt>
      <trkpt lat="44.672920" lon="2.572910">
        <ele>252.15</ele>
        <time>2010-01-01T14:05:22Z</time>
      </trkpt>
      <trkpt lat="44.674657" lon="2.573822">
        <ele>248.94</ele>
        <time>2010-01-01T14:05:33Z</time>
      </trkpt>
      <trkpt lat="44.675155" lon="2.573991">
        <ele>248.94</ele>
        <time>2010-01-01T14:05:51Z</time>
      </trkpt>
      <trkpt lat="44.675654" lon="2.574043">
        <ele>253.10</ele>
        <time>2010-01-01T14:06:34Z</time>
      </trkpt>
      <trkpt lat="44.676184" lon="2.573965">
        <ele>255.765915</ele>
        <time>2010-01-01T14:06:42Z</time>
      </trkpt>
      <trkpt lat="44.676563" lon="2.573822">
        <ele>253.754501</ele>
        <time>2010-01-01T14:06:48Z</time>
      </trkpt>
      <trkpt lat="44.680810" lon="2.572060">
        <ele>248.384781</ele>
        <time>2010-01-01T14:07:02Z</time>
      </trkpt>
      <trkpt lat="44.681290" lon="2.571730">
        <ele>248.325882</ele>
        <time>2010-01-01T14:07:45Z</time>
      </trkpt>
      <trkpt lat="44.681900" lon="2.571180">
        <ele>250.602997</ele>
        <time>2010-01-01T14:08:46Z</time>
      </trkpt>
      <trkpt lat="44.682060" lon="2.571100">
        <ele>250.38</ele>
        <time>2010-01-01T14:08:54Z</time>
      </trkpt>
      <trkpt lat="44.682437" lon="2.570956">
        <ele>250.14</ele>
        <time>2010-01-01T14:09:18Z</time>
      </trkpt>
      <trkpt lat="44.683920" lon="2.570580">
        <ele>245.18</ele>
        <time>2010-01-01T14:09:26Z</time>
      </trkpt>
      <trkpt lat="44.685110" lon="2.569910">
        <ele>246.24</ele>
        <time>2010-01-01T14:09:33Z</time>
      </trkpt>
      <trkpt lat="44.685507" lon="2.569718">
        <ele>249.691666</ele>
        <time>2010-01-01T14:10:34Z</time>
      </trkpt>
      <trkpt lat="44.686550" lon="2.569450">
        <ele>248.071732</ele>
        <time>2010-01-01T14:10:50Z</time>
      </trkpt>
      <trkpt lat="44.687070" lon="2.569276">
        <ele>249.904694</ele>
        <time>2010-01-01T14:11:00Z</time>
      </trkpt>
      <trkpt lat="44.687681" lon="2.569243">
        <ele>250.242325</ele>
        <time>2010-01-01T14:11:06Z</time>
      </trkpt>
      <trkpt lat="44.689790" lon="2.569510">
        <ele>254.707260</ele>
        <time>2010-01-01T14:11:44Z</time>
      </trkpt>
      <trkpt lat="44.690562" lon="2.569692">
        <ele>256.873138</ele>
        <time>2010-01-01T14:12:04Z</time>
      </trkpt>
      <trkpt lat="44.692110" lon="2.570300">
        <ele>259.43</ele>
        <time>2010-01-01T14:12:12Z</time>
      </trkpt>
      <trkpt lat="44.692950" lon="2.570680">
        <ele>255.34</ele>
        <time>2010-01-01T14:12:15Z</time>
      </trkpt>
      <trkpt lat="44.693250" lon="2.570880">
        <ele>258.29</ele>
        <time>2010-01-01T14:12:22Z</time>
      </trkpt>
      <trkpt lat="44.694070" lon="2.571730">
        <ele>258.29</ele>
        <time>2010-01-01T14:12:44Z</time>
      </trkpt>
      <trkpt lat="44.694200" lon="2.571750">
        <ele>266.073364</ele>
        <time>2010-01-01T14:13:11Z</time>
      </trkpt>
      <trkpt lat="44.694312" lon="2.571979">
        <ele>272.956512</ele>
        <time>2010-01-01T14:13:29Z</time>
      </trkpt>
      <trkpt lat="44.694680" lon="2.572450">
        <ele>290.928009</ele>
        <time>2010-01-01T14:14:10Z</time>
      </trkpt>
      <trkpt lat="44.694866" lon="2.572845">
        <ele>295.611084</ele>
        <time>2010-01-01T14:14:17Z</time>
      </trkpt>
      <trkpt lat="44.694970" lon="2.573200">
        <ele>297.163635</ele>
        <time>2010-01-01T14:14:41Z</time>
      </trkpt>
      <trkpt lat="44.695390" lon="2.575070">
        <ele>301.53</ele>
        <time>2010-01-01T14:15:14Z</time>
      </trkpt>
      <trkpt lat="44.695440" lon="2.575770">
        <ele>302.25</ele>
        <time>2010-01-01T14:15:39Z</time>
      </trkpt>
      <trkpt lat="44.695520" lon="2.576170">
        <ele>303.396637</ele>
        <time>2010-01-01T14:16:01Z</time>
      </trkpt>
      <trkpt lat="44.695700" lon="2.576600">
        <ele>307.51</ele>
        <time>2010-01-01T14:16:21Z</time>
      </trkpt>
      <trkpt lat="44.695770" lon="2.576960">
        <ele>310.27</ele>
        <time>2010-01-01T14:16:39Z</time>
      </trkpt>
      <trkpt lat="44.695620" lon="2.577620">
        <ele>310.27</ele>
        <time>2010-01-01T14:17:13Z</time>
      </trkpt>
      <trkpt lat="44.695660" lon="2.577770">
        <ele>311.181183</ele>
        <time>2010-01-01T14:17:22Z</time>
      </trkpt>
      <trkpt lat="44.695850" lon="2.579680">
        <ele>320.644989</ele>
        <time>2010-01-01T14:17:40Z</time>
      </trkpt>
      <trkpt lat="44.695950" lon="2.580050">
        <ele>322.764374</ele>
        <time>2010-01-01T14:18:18Z</time>
      </trkpt>
      <trkpt lat="44.696210" lon="2.580570">
        <ele>325.823883</ele>
        <time>2010-01-01T14:18:22Z</time>
      </trkpt>
      <trkpt lat="44.696920" lon="2.581710">
        <ele>341.422516</ele>
        <time>2010-01-01T14:18:39Z</time>
      </trkpt>
      <trkpt lat="44.697010" lon="2.581930">
        <ele>346.247192</ele>
        <time>2010-01-01T14:18:50Z</time>
      </trkpt>
      <trkpt lat="44.697000" lon="2.582150">
        <ele>347.96</ele>
        <time>2010-01-01T14:19:07Z</time>
      </trkpt>
      <trkpt lat="44.696830" lon="2.582600">
        <ele>347.96</ele>
        <time>2010-01-01T14:19:19Z</time>
      </trkpt>
      <trkpt lat="44.696791" lon="2.583006">
        <ele>347.65</ele>
        <time>2010-01-01T14:20:07Z</time>
      </trkpt>
      <trkpt lat="44.696850" lon="2.583449">
        <ele>347.65</ele>
        <time>2010-01-01T14:20:15Z</time>
      </trkpt>
      <trkpt lat="44.696984" lon="2.583677">
        <ele>347.65</ele>
        <time>2010-01-01T14:20:23Z</time>
      </trkpt>
      <trkpt lat="44.697190" lon="2.583760">
        <ele>349.671631</ele>
        <time>2010-01-01T14:20:46Z</time>
      </trkpt>
      <trkpt lat="44.698690" lon="2.584190">
        <ele>360.30</ele>
        <time>2010-01-01T14:21:08Z</time>
      </trkpt>
      <trkpt lat="44.698900" lon="2.584190">
        <ele>362.109650</ele>
        <time>2010-01-01T14:21:38Z</time>
      </trkpt>
      <trkpt lat="44.699480" lon="2.583990">
        <ele>374.199890</ele>
        <time>2010-01-01T14:21:59Z</time>
      </trkpt>
      <trkpt lat="44.699670" lon="2.583980">
        <ele>375.04</ele>
        <time>2010-01-01T14:22:20Z</time>
      </trkpt>
      <trkpt lat="44.699850" lon="2.584040">
        <ele>375.04</ele>
        <time>2010-01-01T14:22:28Z</time>
      </trkpt>
      <trkpt lat="44.701360" lon="2.583990">
        <ele>388.76</ele>
        <time>2010-01-01T14:22:43Z</time>
      </trkpt>
      <trkpt lat="44.701750" lon="2.583880">
        <ele>388.68</ele>
        <time>2010-01-01T14:23:10Z</time>
      </trkpt>
      <trkpt lat="44.701980" lon="2.583710">
        <ele>389.41</ele>
        <time>2010-01-01T14:23:16Z</time>
      </trkpt>
      <trkpt lat="44.702080" lon="2.583560">
        <ele>388.14</ele>
        <time>2010-01-01T14:23:23Z</time>
      </trkpt>
      <trkpt lat="44.702540" lon="2.582380">
        <ele>404.542908</ele>
        <time>2010-01-01T14:23:40Z</time>
      </trkpt>
      <trkpt lat="44.702840" lon="2.581800">
        <ele>411.277924</ele>
        <time>2010-01-01T14:23:49Z</time>
      </trkpt>
      <trkpt lat="44.702980" lon="2.581600">
        <ele>413.52</ele>
        <time>2010-01-01T14:24:11Z</time>
      </trkpt>
      <trkpt lat="44.703050" lon="2.581570">
        <ele>413.52</ele>
        <time>2010-01-01T14:24:28Z</time>
      </trkpt>
      <trkpt lat="44.703200" lon="2.581630">
        <ele>413.86</ele>
        <time>2010-01-01T14:24:37Z</time>
      </trkpt>
      <trkpt lat="44.703520" lon="2.582280">
        <ele>407.00</ele>
        <time>2010-01-01T14:24:49Z</time>
      </trkpt>
      <trkpt lat="44.704050" lon="2.582870">
        <ele>407.00</ele>
        <time>2010-01-01T14:25:09Z</time>
      </trkpt>
      <trkpt lat="44.704500" lon="2.582970">
        <ele>410.72</ele>
        <time>2010-01-01T14:25:24Z</time>
      </trkpt>
      <trkpt lat="44.705500" lon="2.582890">
        <ele>426.919922</ele>
        <time>2010-01-01T14:25:32Z</time>
      </trkpt>
      <trkpt lat="44.705690" lon="2.582920">
        <ele>429.872162</ele>
        <time>2010-01-01T14:25:45Z</time>
      </trkpt>
      <trkpt lat="44.706220" lon="2.583290">
        <ele>430.121735</ele>
        <time>2010-01-01T14:26:46Z</time>
      </trkpt>
      <trkpt lat="44.706900" lon="2.583930">
        <ele>438.880615</ele>
        <time>2010-01-01T14:27:17Z</time>
      </trkpt>
      <trkpt lat="44.707260" lon="2.584660">
        <ele>449.398712</ele>
        <time>2010-01-01T14:27:24Z</time>
      </trkpt>
      <trkpt lat="44.707480" lon="2.585370">
        <ele>455.194061</ele>
        <time>2010-01-01T14:27:29Z</time>
      </trkpt>
      <trkpt lat="44.707610" lon="2.586070">
        <ele>458.54</ele>
        <time>2010-01-01T14:27:37Z</time>
      </trkpt>
      <trkpt lat="44.707650" lon="2.586700">
        <ele>458.54</ele>
        <time>2010-01-01T14:27:57Z</time>
      </trkpt>
      <trkpt lat="44.707496" lon="2.586777">
        <ele>458.54</ele>
        <time>2010-01-01T14:28:05Z</time>
      </trkpt>
      <trkpt lat="44.706850" lon="2.586740">
        <ele>458.60</ele>
        <time>2010-01-01T14:28:12Z</time>
      </trkpt>
      <trkpt lat="44.706630" lon="2.586810">
        <ele>458.34</ele>
        <time>2010-01-01T14:28:22Z</time>
      </trkpt>
      <trkpt lat="44.706290" lon="2.587230">
        <ele>463.48</ele>
        <time>2010-01-01T14:29:05Z</time>
      </trkpt>
      <trkpt lat="44.705840" lon="2.588400">
        <ele>473.50</ele>
        <time>2010-01-01T14:29:15Z</time>
      </trkpt>
      <trkpt lat="44.705770" lon="2.588490">
        <ele>473.50</ele>
        <time>2010-01-01T14:29:25Z</time>
      </trkpt>
      <trkpt lat="44.705380" lon="2.588730">
        <ele>473.652344</ele>
        <time>2010-01-01T14:30:00Z</time>
      </trkpt>
      <trkpt lat="44.705180" lon="2.588980">
        <ele>473.50</ele>
        <time>2010-01-01T14:30:37Z</time>
      </trkpt>
      <trkpt lat="44.704980" lon="2.589500">
        <ele>475.661255</ele>
        <time>2010-01-01T14:30:47Z</time>
      </trkpt>
      <trkpt lat="44.704920" lon="2.589910">
        <ele>479.224854</ele>
        <time>2010-01-01T14:30:55Z</time>
      </trkpt>
      <trkpt lat="44.704880" lon="2.591620">
        <ele>488.395752</ele>
        <time>2010-01-01T14:31:10Z</time>
      </trkpt>
      <trkpt lat="44.704930" lon="2.591880">
        <ele>490.03</ele>
        <time>2010-01-01T14:31:19Z</time>
      </trkpt>
      <trkpt lat="44.705050" lon="2.592090">
        <ele>490.03</ele>
        <time>2010-01-01T14:31:46Z</time>
      </trkpt>
      <trkpt lat="44.705600" lon="2.592360">
        <ele>497.846771</ele>
        <time>2010-01-01T14:31:57Z</time>
      </trkpt>
      <trkpt lat="44.706080" lon="2.592720">
        <ele>508.52</ele>
        <time>2010-01-01T14:32:09Z</time>
      </trkpt>
      <trkpt lat="44.706130" lon="2.593780">
        <ele>508.52</ele>
        <time>2010-01-01T14:32:18Z</time>
      </trkpt>
      <trkpt lat="44.706220" lon="2.594490">
        <ele>510.21</ele>
        <time>2010-01-01T14:32:48Z</time>
      </trkpt>
      <trkpt lat="44.706390" lon="2.595210">
        <ele>513.65</ele>
        <time>2010-01-01T14:34:31Z</time>
      </trkpt>
      <trkpt lat="44.706500" lon="2.595420">
        <ele>513.65</ele>
        <time>2010-01-01T14:34:55Z</time>
      </trkpt>
      <trkpt lat="44.706870" lon="2.595590">
        <ele>516.262024</ele>
        <time>2010-01-01T14:35:19Z</time>
      </trkpt>
      <trkpt lat="44.707530" lon="2.595500">
        <ele>531.473633</ele>
        <time>2010-01-01T14:35:49Z</time>
      </trkpt>
      <trkpt lat="44.707690" lon="2.595530">
        <ele>532.06</ele>
        <time>2010-01-01T14:37:00Z</time>
      </trkpt>
      <trkpt lat="44.707820" lon="2.595660">
        <ele>532.06</ele>
        <time>2010-01-01T14:37:48Z</time>
      </trkpt>
      <trkpt lat="44.708070" lon="2.596180">
        <ele>532.06</ele>
        <time>2010-01-01T14:38:04Z</time>
      </trkpt>
      <trkpt lat="44.708270" lon="2.596120">
        <ele>532.06</ele>
        <time>2010-01-01T14:38:46Z</time>
      </trkpt>
      <trkpt lat="44.708780" lon="2.595830">
        <ele>535.24</ele>
        <time>2010-01-01T14:39:23Z</time>
      </trkpt>
      <trkpt lat="44.709150" lon="2.596160">
        <ele>535.24</ele>
        <time>2010-01-01T14:39:35Z</time>
      </trkpt>
      <trkpt lat="44.709370" lon="2.596180">
        <ele>540.83</ele>
        <time>2010-01-01T14:39:50Z</time>
      </trkpt>
      <trkpt lat="44.709650" lon="2.596350">
        <ele>548.502136</ele>
        <time>2010-01-01T14:40:06Z</time>
      </trkpt>
      <trkpt lat="44.709960" lon="2.596910">
        <ele>548.043518</ele>
        <time>2010-01-01T14:40:19Z</time>
      </trkpt>
      <trkpt lat="44.710210" lon="2.597270">
        <ele>548.731445</ele>
        <time>2010-01-01T14:42:38Z</time>
      </trkpt>
      <trkpt lat="44.710410" lon="2.597280">
        <ele>552.147034</ele>
        <time>2010-01-01T14:42:57Z</time>
      </trkpt>
      <trkpt lat="44.710730" lon="2.597140">
        <ele>560.14</ele>
        <time>2010-01-01T14:44:06Z</time>
      </trkpt>
      <trkpt lat="44.712240" lon="2.597480">
        <ele>560.14</ele>
        <time>2010-01-01T14:44:52Z</time>
      </trkpt>
      <trkpt lat="44.712840" lon="2.596830">
        <ele>576.48</ele>
        <time>2010-01-01T14:45:13Z</time>
      </trkpt>
      <trkpt lat="44.712940" lon="2.596630">
        <ele>579.133545</ele>
        <time>2010-01-01T14:45:33Z</time>
      </trkpt>
      <trkpt lat="44.713080" lon="2.596580">
        <ele>581.56</ele>
        <time>2010-01-01T14:46:52Z</time>
      </trkpt>
      <trkpt lat="44.713250" lon="2.596670">
        <ele>582.86</ele>
        <time>2010-01-01T14:47:15Z</time>
      </trkpt>
      <trkpt lat="44.713540" lon="2.597280">
        <ele>582.86</ele>
        <time>2010-01-01T14:47:24Z</time>
      </trkpt>
      <trkpt lat="44.713700" lon="2.597440">
        <ele>582.86</ele>
        <time>2010-01-01T14:47:35Z</time>
      </trkpt>
      <trkpt lat="44.713860" lon="2.597480">
        <ele>583.89</ele>
        <time>2010-01-01T14:48:17Z</time>
      </trkpt>
      <trkpt lat="44.714110" lon="2.597450">
        <ele>586.335022</ele>
        <time>2010-01-01T14:48:28Z</time>
      </trkpt>
      <trkpt lat="44.715160" lon="2.597130">
        <ele>592.324097</ele>
        <time>2010-01-01T14:48:38Z</time>
      </trkpt>
      <trkpt lat="44.715410" lon="2.597100">
        <ele>595.893616</ele>
        <time>2010-01-01T14:48:49Z</time>
      </trkpt>
      <trkpt lat="44.715650" lon="2.597140">
        <ele>598.190125</ele>
        <time>2010-01-01T14:48:59Z</time>
      </trkpt>
      <trkpt lat="44.716470" lon="2.597600">
        <ele>602.447693</ele>
        <time>2010-01-01T14:49:41Z</time>
      </trkpt>
      <trkpt lat="44.717270" lon="2.598250">
        <ele>606.411865</ele>
        <time>2010-01-01T14:50:25Z</time>
      </trkpt>
      <trkpt lat="44.717500" lon="2.598370">
        <ele>607.50</ele>
        <time>2010-01-01T14:50:36Z</time>
      </trkpt>
      <trkpt lat="44.717700" lon="2.598400">
        <ele>607.718018</ele>
        <time>2010-01-01T14:51:08Z</time>
      </trkpt>
      <trkpt lat="44.718080" lon="2.598320">
        <ele>608.853088</ele>
        <time>2010-01-01T14:51:22Z</time>
      </trkpt>
      <trkpt lat="44.718280" lon="2.598210">
        <ele>608.965027</ele>
        <time>2010-01-01T14:51:41Z</time>
      </trkpt>
      <trkpt lat="44.718840" lon="2.597660">
        <ele>609.625061</ele>
        <time>2010-01-01T14:51:54Z</time>
      </trkpt>
      <trkpt lat="44.718940" lon="2.597310">
        <ele>611.852234</ele>
        <time>2010-01-01T14:52:06Z</time>
      </trkpt>
      <trkpt lat="44.718910" lon="2.596890">
        <ele>619.694031</ele>
        <time>2010-01-01T14:52:33Z</time>
      </trkpt>
      <trkpt lat="44.718940" lon="2.596570">
        <ele>624.946411</ele>
        <time>2010-01-01T14:52:40Z</time>
      </trkpt>
      <trkpt lat="44.719029" lon="2.596339">
        <ele>628.138977</ele>
        <time>2010-01-01T14:52:58Z</time>
      </trkpt>
      <trkpt lat="44.719334" lon="2.596196">
        <ele>629.57</ele>
        <time>2010-01-01T14:53:06Z</time>
      </trkpt>
      <trkpt lat="44.719620" lon="2.596270">
        <ele>629.57</ele>
        <time>2010-01-01T14:53:25Z</time>
      </trkpt>
      <trkpt lat="44.720287" lon="2.596573">
        <ele>630.166687</ele>
        <time>2010-01-01T14:55:21Z</time>
      </trkpt>
      <trkpt lat="44.722130" lon="2.596970">
        <ele>640.187500</ele>
        <time>2010-01-01T14:55:31Z</time>
      </trkpt>
      <trkpt lat="44.722730" lon="2.596990">
        <ele>641.885864</ele>
        <time>2010-01-01T14:55:45Z</time>
      </trkpt>
      <trkpt lat="44.723310" lon="2.596840">
        <ele>646.200439</ele>
        <time>2010-01-01T14:56:00Z</time>
      </trkpt>
      <trkpt lat="44.724020" lon="2.596490">
        <ele>651.464966</ele>
        <time>2010-01-01T14:56:14Z</time>
      </trkpt>
      <trkpt lat="44.725560" lon="2.595260">
        <ele>660.076965</ele>
        <time>2010-01-01T14:57:58Z</time>
      </trkpt>
      <trkpt lat="44.726630" lon="2.594480">
        <ele>664.405579</ele>
        <time>2010-01-01T14:58:15Z</time>
      </trkpt>
      <trkpt lat="44.726910" lon="2.594080">
        <ele>666.849243</ele>
        <time>2010-01-01T14:59:06Z</time>
      </trkpt>
      <trkpt lat="44.727350" lon="2.592730">
        <ele>677.410339</ele>
        <time>2010-01-01T14:59:27Z</time>
      </trkpt>
      <trkpt lat="44.727860" lon="2.591640">
        <ele>681.951538</ele>
        <time>2010-01-01T14:59:39Z</time>
      </trkpt>
      <trkpt lat="44.728070" lon="2.591350">
        <ele>683.102478</ele>
        <time>2010-01-01T15:00:00Z</time>
      </trkpt>
      <trkpt lat="44.728380" lon="2.591060">
        <ele>683.79</ele>
        <time>2010-01-01T15:00:09Z</time>
      </trkpt>
      <trkpt lat="44.728750" lon="2.590870">
        <ele>684.926941</ele>
        <time>2010-01-01T15:00:20Z</time>
      </trkpt>
      <trkpt lat="44.729080" lon="2.590800">
        <ele>685.783508</ele>
        <time>2010-01-01T15:00:30Z</time>
      </trkpt>
      <trkpt lat="44.732530" lon="2.591190">
        <ele>692.281738</ele>
        <time>2010-01-01T15:00:51Z</time>
      </trkpt>
      <trkpt lat="44.733020" lon="2.591290">
        <ele>693.061768</ele>
        <time>2010-01-01T15:01:14Z</time>
      </trkpt>
      <trkpt lat="44.734590" lon="2.592250">
        <ele>696.78</ele>
        <time>2010-01-01T15:01:41Z</time>
      </trkpt>
      <trkpt lat="44.735670" lon="2.592850">
        <ele>696.78</ele>
        <time>2010-01-01T15:01:59Z</time>
      </trkpt>
      <trkpt lat="44.736100" lon="2.593250">
        <ele>696.087769</ele>
        <time>2010-01-01T15:02:23Z</time>
      </trkpt>
      <trkpt lat="44.736440" lon="2.593750">
        <ele>696.00</ele>
        <time>2010-01-01T15:02:39Z</time>
      </trkpt>
      <trkpt lat="44.737820" lon="2.595740">
        <ele>698.098572</ele>
        <time>2010-01-01T15:02:53Z</time>
      </trkpt>
      <trkpt lat="44.738180" lon="2.596370">
        <ele>700.368774</ele>
        <time>2010-01-01T15:03:00Z</time>
      </trkpt>
      <trkpt lat="44.738290" lon="2.596670">
        <ele>700.559998</ele>
        <time>2010-01-01T15:03:05Z</time>
      </trkpt>
      <trkpt lat="44.738360" lon="2.597020">
        <ele>700.186462</ele>
        <time>2010-01-01T15:03:15Z</time>
      </trkpt>
      <trkpt lat="44.738300" lon="2.598490">
        <ele>698.986694</ele>
        <time>2010-01-01T15:03:27Z</time>
      </trkpt>
      <trkpt lat="44.738340" lon="2.598870">
        <ele>698.361206</ele>
        <time>2010-01-01T15:03:32Z</time>
      </trkpt>
      <trkpt lat="44.738460" lon="2.599210">
        <ele>698.11</ele>
        <time>2010-01-01T15:03:46Z</time>
      </trkpt>
      <trkpt lat="44.738640" lon="2.599480">
        <ele>698.11</ele>
        <time>2010-01-01T15:04:15Z</time>
      </trkpt>
      <trkpt lat="44.738850" lon="2.599650">
        <ele>699.426758</ele>
        <time>2010-01-01T15:04:31Z</time>
      </trkpt>
      <trkpt lat="44.739860" lon="2.600140">
        <ele>703.448059</ele>
        <time>2010-01-01T15:05:02Z</time>
      </trkpt>
      <trkpt lat="44.740870" lon="2.600740">
        <ele>705.840637</ele>
        <time>2010-01-01T15:05:23Z</time>
      </trkpt>
      <trkpt lat="44.741140" lon="2.600840">
        <ele>707.232056</ele>
        <time>2010-01-01T15:05:48Z</time>
      </trkpt>
      <trkpt lat="44.741920" lon="2.600980">
        <ele>710.456421</ele>
        <time>2010-01-01T15:07:09Z</time>
      </trkpt>
      <trkpt lat="44.742240" lon="2.601170">
        <ele>712.23</ele>
        <time>2010-01-01T15:07:26Z</time>
      </trkpt>
      <trkpt lat="44.742590" lon="2.601650">
        <ele>713.473389</ele>
        <time>2010-01-01T15:08:18Z</time>
      </trkpt>
      <trkpt lat="44.742730" lon="2.602060">
        <ele>710.722839</ele>
        <time>2010-01-01T15:08:30Z</time>
      </trkpt>
      <trkpt lat="44.742760" lon="2.602460">
        <ele>708.301697</ele>
        <time>2010-01-01T15:08:49Z</time>
      </trkpt>
      <trkpt lat="44.742680" lon="2.603400">
        <ele>705.454102</ele>
        <time>2010-01-01T15:09:17Z</time>
      </trkpt>
      <trkpt lat="44.742700" lon="2.603670">
        <ele>704.238342</ele>
        <time>2010-01-01T15:09:50Z</time>
      </trkpt>
      <trkpt lat="44.742850" lon="2.604240">
        <ele>701.450134</ele>
        <time>2010-01-01T15:10:18Z</time>
      </trkpt>
      <trkpt lat="44.742980" lon="2.604470">
        <ele>700.736206</ele>
        <time>2010-01-01T15:10:58Z</time>
      </trkpt>
      <trkpt lat="44.743380" lon="2.604830">
        <ele>700.54</ele>
        <time>2010-01-01T15:11:21Z</time>
      </trkpt>
      <trkpt lat="44.746030" lon="2.606510">
        <ele>710.696411</ele>
        <time>2010-01-01T15:11:36Z</time>
      </trkpt>
      <trkpt lat="44.746220" lon="2.606700">
        <ele>711.734436</ele>
        <time>2010-01-01T15:11:45Z</time>
      </trkpt>
      <trkpt lat="44.746470" lon="2.607080">
        <ele>712.618164</ele>
        <time>2010-01-01T15:12:03Z</time>
      </trkpt>
      <trkpt lat="44.746610" lon="2.607540">
        <ele>712.83</ele>
        <time>2010-01-01T15:12:20Z</time>
      </trkpt>
      <trkpt lat="44.746650" lon="2.608050">
        <ele>712.83</ele>
        <time>2010-01-01T15:12:39Z</time>
      </trkpt>
      <trkpt lat="44.746500" lon="2.611690">
        <ele>715.901855</ele>
        <time>2010-01-01T15:12:55Z</time>
      </trkpt>
      <trkpt lat="44.746390" lon="2.612290">
        <ele>721.081787</ele>
        <time>2010-01-01T15:13:00Z</time>
      </trkpt>
      <trkpt lat="44.745740" lon="2.613820">
        <ele>732.803772</ele>
        <time>2010-01-01T15:14:10Z</time>
      </trkpt>
      <trkpt lat="44.745620" lon="2.614550">
        <ele>737.369690</ele>
        <time>2010-01-01T15:14:14Z</time>
      </trkpt>
      <trkpt lat="44.745630" lon="2.614950">
        <ele>739.494995</ele>
        <time>2010-01-01T15:14:18Z</time>
      </trkpt>
      <trkpt lat="44.745740" lon="2.615680">
        <ele>742.554993</ele>
        <time>2010-01-01T15:14:50Z</time>
      </trkpt>
      <trkpt lat="44.745810" lon="2.615970">
        <ele>743.791321</ele>
        <time>2010-01-01T15:15:13Z</time>
      </trkpt>
      <trkpt lat="44.746020" lon="2.616250">
        <ele>745.867493</ele>
        <time>2010-01-01T15:15:25Z</time>
      </trkpt>
      <trkpt lat="44.745980" lon="2.616590">
        <ele>747.31</ele>
        <time>2010-01-01T15:15:34Z</time>
      </trkpt>
      <trkpt lat="44.745550" lon="2.616980">
        <ele>747.868835</ele>
        <time>2010-01-01T15:15:41Z</time>
      </trkpt>
      <trkpt lat="44.745180" lon="2.617600">
        <ele>750.440002</ele>
        <time>2010-01-01T15:15:57Z</time>
      </trkpt>
      <trkpt lat="44.744620" lon="2.618160">
        <ele>751.43</ele>
        <time>2010-01-01T15:16:12Z</time>
      </trkpt>
      <trkpt lat="44.744210" lon="2.618410">
        <ele>751.43</ele>
        <time>2010-01-01T15:16:41Z</time>
      </trkpt>
      <trkpt lat="44.743770" lon="2.619000">
        <ele>752.677246</ele>
        <time>2010-01-01T15:16:54Z</time>
      </trkpt>
      <trkpt lat="44.743450" lon="2.619290">
        <ele>752.950012</ele>
        <time>2010-01-01T15:17:18Z</time>
      </trkpt>
      <trkpt lat="44.743420" lon="2.619780">
        <ele>755.859985</ele>
        <time>2010-01-01T15:17:31Z</time>
      </trkpt>
      <trkpt lat="44.743280" lon="2.619930">
        <ele>755.520996</ele>
        <time>2010-01-01T15:18:01Z</time>
      </trkpt>
      <trkpt lat="44.743240" lon="2.620100">
        <ele>755.098145</ele>
        <time>2010-01-01T15:18:38Z</time>
      </trkpt>
      <trkpt lat="44.743240" lon="2.620460">
        <ele>754.784485</ele>
        <time>2010-01-01T15:19:11Z</time>
      </trkpt>
      <trkpt lat="44.743410" lon="2.620800">
        <ele>754.713989</ele>
        <time>2010-01-01T15:19:20Z</time>
      </trkpt>
      <trkpt lat="44.743450" lon="2.620980">
        <ele>754.247437</ele>
        <time>2010-01-01T15:20:01Z</time>
      </trkpt>
      <trkpt lat="44.743370" lon="2.621460">
        <ele>750.592285</ele>
        <time>2010-01-01T15:20:33Z</time>
      </trkpt>
      <trkpt lat="44.743370" lon="2.622490">
        <ele>742.574219</ele>
        <time>2010-01-01T15:20:44Z</time>
      </trkpt>
      <trkpt lat="44.743570" lon="2.622960">
        <ele>741.892517</ele>
        <time>2010-01-01T15:21:16Z</time>
      </trkpt>
      <trkpt lat="44.743850" lon="2.623970">
        <ele>735.774231</ele>
        <time>2010-01-01T15:21:48Z</time>
      </trkpt>
      <trkpt lat="44.743940" lon="2.624700">
        <ele>728.888611</ele>
        <time>2010-01-01T15:22:28Z</time>
      </trkpt>
      <trkpt lat="44.743920" lon="2.625590">
        <ele>717.064514</ele>
        <time>2010-01-01T15:23:22Z</time>
      </trkpt>
      <trkpt lat="44.744147" lon="2.626197">
        <ele>712.786987</ele>
        <time>2010-01-01T15:23:57Z</time>
      </trkpt>
      <trkpt lat="44.744605" lon="2.626561">
        <ele>705.631958</ele>
        <time>2010-01-01T15:24:37Z</time>
      </trkpt>
      <trkpt lat="44.744711" lon="2.626666">
        <ele>701.931091</ele>
        <time>2010-01-01T15:24:56Z</time>
      </trkpt>
      <trkpt lat="44.744693" lon="2.626770">
        <ele>698.49</ele>
        <time>2010-01-01T15:25:15Z</time>
      </trkpt>
      <trkpt lat="44.744585" lon="2.626815">
        <ele>697.457275</ele>
        <time>2010-01-01T15:25:20Z</time>
      </trkpt>
      <trkpt lat="44.744315" lon="2.626887">
        <ele>696.164490</ele>
        <time>2010-01-01T15:25:27Z</time>
      </trkpt>
      <trkpt lat="44.744660" lon="2.627040">
        <ele>690.114868</ele>
        <time>2010-01-01T15:25:45Z</time>
      </trkpt>
      <trkpt lat="44.745080" lon="2.627150">
        <ele>683.852417</ele>
        <time>2010-01-01T15:27:13Z</time>
      </trkpt>
      <trkpt lat="44.746380" lon="2.627050">
        <ele>679.815308</ele>
        <time>2010-01-01T15:27:27Z</time>
      </trkpt>
      <trkpt lat="44.746660" lon="2.627200">
        <ele>673.952942</ele>
        <time>2010-01-01T15:27:42Z</time>
      </trkpt>
      <trkpt lat="44.747070" lon="2.627520">
        <ele>662.284302</ele>
        <time>2010-01-01T15:27:46Z</time>
      </trkpt>
      <trkpt lat="44.747760" lon="2.627630">
        <ele>656.293884</ele>
        <time>2010-01-01T15:27:49Z</time>
      </trkpt>
      <trkpt lat="44.748550" lon="2.628020">
        <ele>642.994019</ele>
        <time>2010-01-01T15:27:53Z</time>
      </trkpt>
      <trkpt lat="44.749160" lon="2.628480">
        <ele>631.745728</ele>
        <time>2010-01-01T15:28:07Z</time>
      </trkpt>
      <trkpt lat="44.749980" lon="2.629300">
        <ele>613.030029</ele>
        <time>2010-01-01T15:28:14Z</time>
      </trkpt>
      <trkpt lat="44.750510" lon="2.629580">
        <ele>605.72</ele>
        <time>2010-01-01T15:28:26Z</time>
      </trkpt>
      <trkpt lat="44.750870" lon="2.629670">
        <ele>605.72</ele>
        <time>2010-01-01T15:28:35Z</time>
      </trkpt>
      <trkpt lat="44.750960" lon="2.629960">
        <ele>602.833618</ele>
        <time>2010-01-01T15:29:00Z</time>
      </trkpt>
      <trkpt lat="44.751010" lon="2.630620">
        <ele>598.24</ele>
        <time>2010-01-01T15:29:20Z</time>
      </trkpt>
      <trkpt lat="44.751270" lon="2.631070">
        <ele>598.24</ele>
        <time>2010-01-01T15:29:51Z</time>
      </trkpt>
      <trkpt lat="44.751400" lon="2.631720">
        <ele>598.24</ele>
        <time>2010-01-01T15:30:00Z</time>
      </trkpt>
      <trkpt lat="44.751620" lon="2.632180">
        <ele>598.24</ele>
        <time>2010-01-01T15:30:21Z</time>
      </trkpt>
      <trkpt lat="44.751660" lon="2.632340">
        <ele>598.909546</ele>
        <time>2010-01-01T15:31:17Z</time>
      </trkpt>
      <trkpt lat="44.751598" lon="2.632404">
        <ele>599.09</ele>
        <time>2010-01-01T15:31:43Z</time>
      </trkpt>
      <trkpt lat="44.751104" lon="2.632163">
        <ele>599.09</ele>
        <time>2010-01-01T15:32:11Z</time>
      </trkpt>
      <trkpt lat="44.750804" lon="2.631909">
        <ele>596.41</ele>
        <time>2010-01-01T15:32:26Z</time>
      </trkpt>
      <trkpt lat="44.750110" lon="2.631490">
        <ele>597.746277</ele>
        <time>2010-01-01T15:32:29Z</time>
      </trkpt>
      <trkpt lat="44.750010" lon="2.631450">
        <ele>597.679199</ele>
        <time>2010-01-01T15:32:32Z</time>
      </trkpt>
      <trkpt lat="44.749910" lon="2.631520">
        <ele>601.278137</ele>
        <time>2010-01-01T15:32:36Z</time>
      </trkpt>
      <trkpt lat="44.749110" lon="2.631490">
        <ele>600.41</ele>
        <time>2010-01-01T15:32:47Z</time>
      </trkpt>
      <trkpt lat="44.748560" lon="2.631250">
        <ele>600.41</ele>
        <time>2010-01-01T15:32:53Z</time>
      </trkpt>
      <trkpt lat="44.748270" lon="2.631290">
        <ele>595.875488</ele>
        <time>2010-01-01T15:33:31Z</time>
      </trkpt>
      <trkpt lat="44.748070" lon="2.631430">
        <ele>592.38</ele>
        <time>2010-01-01T15:33:41Z</time>
      </trkpt>
      <trkpt lat="44.747930" lon="2.631600">
        <ele>592.38</ele>
        <time>2010-01-01T15:33:53Z</time>
      </trkpt>
      <trkpt lat="44.747680" lon="2.632040">
        <ele>592.38</ele>
        <time>2010-01-01T15:34:48Z</time>
      </trkpt>
      <trkpt lat="44.747410" lon="2.632400">
        <ele>589.693726</ele>
        <time>2010-01-01T15:36:09Z</time>
      </trkpt>
      <trkpt lat="44.746820" lon="2.632960">
        <ele>585.160583</ele>
        <time>2010-01-01T15:36:42Z</time>
      </trkpt>
      <trkpt lat="44.746510" lon="2.633110">
        <ele>580.553772</ele>
        <time>2010-01-01T15:37:10Z</time>
      </trkpt>
      <trkpt lat="44.745920" lon="2.633210">
        <ele>568.760010</ele>
        <time>2010-01-01T15:37:31Z</time>
      </trkpt>
      <trkpt lat="44.745600" lon="2.633320">
        <ele>565.427979</ele>
        <time>2010-01-01T15:38:00Z</time>
      </trkpt>
      <trkpt lat="44.744890" lon="2.633670">
        <ele>556.526611</ele>
        <time>2010-01-01T15:38:07Z</time>
      </trkpt>
      <trkpt lat="44.744150" lon="2.634450">
        <ele>551.845886</ele>
        <time>2010-01-01T15:38:38Z</time>
      </trkpt>
      <trkpt lat="44.743430" lon="2.635030">
        <ele>546.448059</ele>
        <time>2010-01-01T15:38:58Z</time>
      </trkpt>
      <trkpt lat="44.743220" lon="2.635150">
        <ele>545.508789</ele>
        <time>2010-01-01T15:39:24Z</time>
      </trkpt>
      <trkpt lat="44.742230" lon="2.635520">
        <ele>542.924316</ele>
        <time>2010-01-01T15:39:57Z</time>
      </trkpt>
      <trkpt lat="44.741430" lon="2.635560">
        <ele>536.864990</ele>
        <time>2010-01-01T15:40:15Z</time>
      </trkpt>
      <trkpt lat="44.741160" lon="2.635500">
        <ele>534.607178</ele>
        <time>2010-01-01T15:40:24Z</time>
      </trkpt>
      <trkpt lat="44.740420" lon="2.635140">
        <ele>527.63</ele>
        <time>2010-01-01T15:40:37Z</time>
      </trkpt>
      <trkpt lat="44.739750" lon="2.634520">
        <ele>519.351440</ele>
        <time>2010-01-01T15:40:56Z</time>
      </trkpt>
      <trkpt lat="44.738980" lon="2.633610">
        <ele>511.602325</ele>
        <time>2010-01-01T15:42:04Z</time>
      </trkpt>
      <trkpt lat="44.737980" lon="2.632350">
        <ele>499.290558</ele>
        <time>2010-01-01T15:42:27Z</time>
      </trkpt>
      <trkpt lat="44.737370" lon="2.631440">
        <ele>494.906860</ele>
        <time>2010-01-01T15:43:15Z</time>
      </trkpt>
      <trkpt lat="44.736790" lon="2.630290">
        <ele>488.094635</ele>
        <time>2010-01-01T15:44:19Z</time>
      </trkpt>
      <trkpt lat="44.736580" lon="2.629720">
        <ele>479.327301</ele>
        <time>2010-01-01T15:44:46Z</time>
      </trkpt>
      <trkpt lat="44.736340" lon="2.629120">
        <ele>472.550690</ele>
        <time>2010-01-01T15:44:50Z</time>
      </trkpt>
      <trkpt lat="44.736230" lon="2.629010">
        <ele>470.012299</ele>
        <time>2010-01-01T15:44:53Z</time>
      </trkpt>
      <trkpt lat="44.736080" lon="2.628990">
        <ele>466.63</ele>
        <time>2010-01-01T15:46:00Z</time>
      </trkpt>
      <trkpt lat="44.735670" lon="2.629300">
        <ele>466.63</ele>
        <time>2010-01-01T15:47:16Z</time>
      </trkpt>
      <trkpt lat="44.733640" lon="2.630450">
        <ele>447.559998</ele>
        <time>2010-01-01T15:47:42Z</time>
      </trkpt>
      <trkpt lat="44.733290" lon="2.630550">
        <ele>446.357361</ele>
        <time>2010-01-01T15:47:54Z</time>
      </trkpt>
      <trkpt lat="44.732920" lon="2.630510">
        <ele>442.469849</ele>
        <time>2010-01-01T15:48:08Z</time>
      </trkpt>
      <trkpt lat="44.732830" lon="2.630580">
        <ele>442.463684</ele>
        <time>2010-01-01T15:48:21Z</time>
      </trkpt>
      <trkpt lat="44.732810" lon="2.630680">
        <ele>438.044495</ele>
        <time>2010-01-01T15:49:26Z</time>
      </trkpt>
      <trkpt lat="44.732870" lon="2.630790">
        <ele>437.27</ele>
        <time>2010-01-01T15:49:54Z</time>
      </trkpt>
      <trkpt lat="44.733200" lon="2.630930">
        <ele>436.84</ele>
        <time>2010-01-01T15:50:54Z</time>
      </trkpt>
      <trkpt lat="44.733350" lon="2.631070">
        <ele>436.00</ele>
        <time>2010-01-01T15:51:15Z</time>
      </trkpt>
      <trkpt lat="44.733470" lon="2.631450">
        <ele>425.45</ele>
        <time>2010-01-01T15:51:25Z</time>
      </trkpt>
      <trkpt lat="44.733600" lon="2.631720">
        <ele>427.61</ele>
        <time>2010-01-01T15:51:31Z</time>
      </trkpt>
      <trkpt lat="44.734110" lon="2.632230">
        <ele>428.31</ele>
        <time>2010-01-01T15:51:54Z</time>
      </trkpt>
      <trkpt lat="44.734390" lon="2.632790">
        <ele>421.19</ele>
        <time>2010-01-01T15:51:58Z</time>
      </trkpt>
      <trkpt lat="44.734950" lon="2.633560">
        <ele>420.16</ele>
        <time>2010-01-01T15:52:03Z</time>
      </trkpt>
      <trkpt lat="44.735090" lon="2.633830">
        <ele>419.063171</ele>
        <time>2010-01-01T15:52:11Z</time>
      </trkpt>
      <trkpt lat="44.735330" lon="2.634480">
        <ele>406.267487</ele>
        <time>2010-01-01T15:52:22Z</time>
      </trkpt>
      <trkpt lat="44.736290" lon="2.635880">
        <ele>393.313110</ele>
        <time>2010-01-01T15:52:44Z</time>
      </trkpt>
      <trkpt lat="44.736880" lon="2.636280">
        <ele>390.658142</ele>
        <time>2010-01-01T15:52:57Z</time>
      </trkpt>
      <trkpt lat="44.737530" lon="2.636630">
        <ele>389.905731</ele>
        <time>2010-01-01T15:54:07Z</time>
      </trkpt>
      <trkpt lat="44.737840" lon="2.636920">
        <ele>385.399780</ele>
        <time>2010-01-01T15:54:26Z</time>
      </trkpt>
      <trkpt lat="44.737880" lon="2.637030">
        <ele>383.691986</ele>
        <time>2010-01-01T15:54:44Z</time>
      </trkpt>
      <trkpt lat="44.737870" lon="2.637130">
        <ele>380.626434</ele>
        <time>2010-01-01T15:55:24Z</time>
      </trkpt>
      <trkpt lat="44.737770" lon="2.637130">
        <ele>379.27</ele>
        <time>2010-01-01T15:55:47Z</time>
      </trkpt>
      <trkpt lat="44.737570" lon="2.636860">
        <ele>379.61</ele>
        <time>2010-01-01T15:56:11Z</time>
      </trkpt>
      <trkpt lat="44.737440" lon="2.636780">
        <ele>380.97</ele>
        <time>2010-01-01T15:56:24Z</time>
      </trkpt>
      <trkpt lat="44.736490" lon="2.636570">
        <ele>368.76</ele>
        <time>2010-01-01T15:56:37Z</time>
      </trkpt>
      <trkpt lat="44.736250" lon="2.636470">
        <ele>365.830872</ele>
        <time>2010-01-01T15:56:48Z</time>
      </trkpt>
      <trkpt lat="44.735990" lon="2.636260">
        <ele>362.915161</ele>
        <time>2010-01-01T15:57:05Z</time>
      </trkpt>
      <trkpt lat="44.734870" lon="2.635140">
        <ele>351.87</ele>
        <time>2010-01-01T15:57:52Z</time>
      </trkpt>
      <trkpt lat="44.733320" lon="2.633350">
        <ele>347.33</ele>
        <time>2010-01-01T15:58:26Z</time>
      </trkpt>
      <trkpt lat="44.732690" lon="2.632600">
        <ele>345.149933</ele>
        <time>2010-01-01T15:59:03Z</time>
      </trkpt>
      <trkpt lat="44.732040" lon="2.632200">
        <ele>337.60</ele>
        <time>2010-01-01T15:59:14Z</time>
      </trkpt>
      <trkpt lat="44.731600" lon="2.631770">
        <ele>336.293518</ele>
        <time>2010-01-01T15:59:29Z</time>
      </trkpt>
      <trkpt lat="44.730910" lon="2.631560">
        <ele>323.870605</ele>
        <time>2010-01-01T15:59:41Z</time>
      </trkpt>
      <trkpt lat="44.730740" lon="2.631460">
        <ele>323.190002</ele>
        <time>2010-01-01T15:59:51Z</time>
      </trkpt>
      <trkpt lat="44.730100" lon="2.630870">
        <ele>322.285980</ele>
        <time>2010-01-01T16:00:07Z</time>
      </trkpt>
      <trkpt lat="44.729660" lon="2.630520">
        <ele>316.085419</ele>
        <time>2010-01-01T16:00:14Z</time>
      </trkpt>
      <trkpt lat="44.729260" lon="2.629820">
        <ele>312.162079</ele>
        <time>2010-01-01T16:01:19Z</time>
      </trkpt>
      <trkpt lat="44.728900" lon="2.628750">
        <ele>311.269440</ele>
        <time>2010-01-01T16:01:58Z</time>
      </trkpt>
      <trkpt lat="44.728760" lon="2.628150">
        <ele>311.133606</ele>
        <time>2010-01-01T16:02:07Z</time>
      </trkpt>
      <trkpt lat="44.728720" lon="2.627840">
        <ele>311.253540</ele>
        <time>2010-01-01T16:02:24Z</time>
      </trkpt>
      <trkpt lat="44.728750" lon="2.627400">
        <ele>312.253326</ele>
        <time>2010-01-01T16:02:42Z</time>
      </trkpt>
      <trkpt lat="44.729000" lon="2.626840">
        <ele>312.64</ele>
        <time>2010-01-01T16:02:54Z</time>
      </trkpt>
      <trkpt lat="44.728222" lon="2.625018">
        <ele>302.05</ele>
        <time>2010-01-01T16:03:37Z</time>
      </trkpt>
      <trkpt lat="44.728030" lon="2.625160">
        <ele>305.86</ele>
        <time>2010-01-01T16:03:57Z</time>
      </trkpt>
      <trkpt lat="44.727610" lon="2.625700">
        <ele>311.455139</ele>
        <time>2010-01-01T16:04:15Z</time>
      </trkpt>
      <trkpt lat="44.727305" lon="2.626242">
        <ele>315.380432</ele>
        <time>2010-01-01T16:04:35Z</time>
      </trkpt>
      <trkpt lat="44.727030" lon="2.627180">
        <ele>323.192108</ele>
        <time>2010-01-01T16:04:57Z</time>
      </trkpt>
      <trkpt lat="44.726990" lon="2.629430">
        <ele>331.13</ele>
        <time>2010-01-01T16:05:06Z</time>
      </trkpt>
      <trkpt lat="44.727090" lon="2.630350">
        <ele>331.13</ele>
        <time>2010-01-01T16:05:32Z</time>
      </trkpt>
      <trkpt lat="44.727060" lon="2.630490">
        <ele>331.13</ele>
        <time>2010-01-01T16:06:09Z</time>
      </trkpt>
      <trkpt lat="44.727000" lon="2.630540">
        <ele>331.496887</ele>
        <time>2010-01-01T16:07:59Z</time>
      </trkpt>
      <trkpt lat="44.726806" lon="2.630548">
        <ele>334.056244</ele>
        <time>2010-01-01T16:08:09Z</time>
      </trkpt>
      <trkpt lat="44.725350" lon="2.630140">
        <ele>346.963409</ele>
        <time>2010-01-01T16:08:26Z</time>
      </trkpt>
      <trkpt lat="44.723500" lon="2.629510">
        <ele>375.235809</ele>
        <time>2010-01-01T16:08:33Z</time>
      </trkpt>
      <trkpt lat="44.722840" lon="2.629480">
        <ele>379.913513</ele>
        <time>2010-01-01T16:08:42Z</time>
      </trkpt>
      <trkpt lat="44.722550" lon="2.629580">
        <ele>380.151459</ele>
        <time>2010-01-01T16:09:41Z</time>
      </trkpt>
      <trkpt lat="44.722250" lon="2.629820">
        <ele>382.31</ele>
        <time>2010-01-01T16:10:01Z</time>
      </trkpt>
      <trkpt lat="44.722291" lon="2.630007">
        <ele>382.71</ele>
        <time>2010-01-01T16:10:24Z</time>
      </trkpt>
      <trkpt lat="44.722500" lon="2.630080">
        <ele>382.73</ele>
        <time>2010-01-01T16:10:57Z</time>
      </trkpt>
      <trkpt lat="44.723042" lon="2.630144">
        <ele>372.878845</ele>
        <time>2010-01-01T16:11:21Z</time>
      </trkpt>
      <trkpt lat="44.723432" lon="2.630359">
        <ele>367.189758</ele>
        <time>2010-01-01T16:11:30Z</time>
      </trkpt>
      <trkpt lat="44.724050" lon="2.630720">
        <ele>359.451141</ele>
        <time>2010-01-01T16:11:38Z</time>
      </trkpt>
      <trkpt lat="44.724730" lon="2.630950">
        <ele>351.708008</ele>
        <time>2010-01-01T16:11:59Z</time>
      </trkpt>
      <trkpt lat="44.725242" lon="2.631342">
        <ele>349.569183</ele>
        <time>2010-01-01T16:12:54Z</time>
      </trkpt>
      <trkpt lat="44.726100" lon="2.631720">
        <ele>344.777161</ele>
        <time>2010-01-01T16:13:00Z</time>
      </trkpt>
      <trkpt lat="44.726630" lon="2.631890">
        <ele>334.656219</ele>
        <time>2010-01-01T16:13:05Z</time>
      </trkpt>
      <trkpt lat="44.726820" lon="2.632080">
        <ele>333.84</ele>
        <time>2010-01-01T16:13:18Z</time>
      </trkpt>
      <trkpt lat="44.726900" lon="2.632280">
        <ele>333.26</ele>
        <time>2010-01-01T16:13:33Z</time>
      </trkpt>
      <trkpt lat="44.726940" lon="2.633090">
        <ele>336.37</ele>
        <time>2010-01-01T16:13:40Z</time>
      </trkpt>
      <trkpt lat="44.727000" lon="2.633180">
        <ele>335.841705</ele>
        <time>2010-01-01T16:13:51Z</time>
      </trkpt>
      <trkpt lat="44.727130" lon="2.633200">
        <ele>331.543701</ele>
        <time>2010-01-01T16:14:17Z</time>
      </trkpt>
      <trkpt lat="44.727310" lon="2.633130">
        <ele>323.902496</ele>
        <time>2010-01-01T16:14:25Z</time>
      </trkpt>
      <trkpt lat="44.727560" lon="2.632950">
        <ele>322.412811</ele>
        <time>2010-01-01T16:14:32Z</time>
      </trkpt>
      <trkpt lat="44.728020" lon="2.632500">
        <ele>318.297394</ele>
        <time>2010-01-01T16:14:37Z</time>
      </trkpt>
      <trkpt lat="44.728340" lon="2.632430">
        <ele>317.78</ele>
        <time>2010-01-01T16:14:43Z</time>
      </trkpt>
      <trkpt lat="44.728983" lon="2.632918">
        <ele>317.98</ele>
        <time>2010-01-01T16:14:52Z</time>
      </trkpt>
      <trkpt lat="44.729830" lon="2.633670">
        <ele>317.700775</ele>
        <time>2010-01-01T16:15:01Z</time>
      </trkpt>
      <trkpt lat="44.730270" lon="2.633950">
        <ele>315.216705</ele>
        <time>2010-01-01T16:15:18Z</time>
      </trkpt>
      <trkpt lat="44.730590" lon="2.634380">
        <ele>314.922882</ele>
        <time>2010-01-01T16:15:27Z</time>
      </trkpt>
      <trkpt lat="44.730937" lon="2.634684">
        <ele>314.22</ele>
        <time>2010-01-01T16:15:33Z</time>
      </trkpt>
      <trkpt lat="44.731390" lon="2.635260">
        <ele>315.85</ele>
        <time>2010-01-01T16:16:03Z</time>
      </trkpt>
      <trkpt lat="44.731710" lon="2.635920">
        <ele>315.93</ele>
        <time>2010-01-01T16:16:24Z</time>
      </trkpt>
      <trkpt lat="44.732110" lon="2.636520">
        <ele>314.69</ele>
        <time>2010-01-01T16:16:37Z</time>
      </trkpt>
      <trkpt lat="44.732220" lon="2.636980">
        <ele>314.32</ele>
        <time>2010-01-01T16:16:45Z</time>
      </trkpt>
      <trkpt lat="44.732420" lon="2.637320">
        <ele>316.528595</ele>
        <time>2010-01-01T16:17:06Z</time>
      </trkpt>
      <trkpt lat="44.732650" lon="2.637520">
        <ele>318.826050</ele>
        <time>2010-01-01T16:17:13Z</time>
      </trkpt>
      <trkpt lat="44.733040" lon="2.637740">
        <ele>318.243835</ele>
        <time>2010-01-01T16:17:22Z</time>
      </trkpt>
      <trkpt lat="44.733940" lon="2.638820">
        <ele>324.43</ele>
        <time>2010-01-01T16:17:30Z</time>
      </trkpt>
      <trkpt lat="44.734660" lon="2.639480">
        <ele>325.66</ele>
        <time>2010-01-01T16:17:59Z</time>
      </trkpt>
      <trkpt lat="44.735480" lon="2.640090">
        <ele>323.05</ele>
        <time>2010-01-01T16:18:17Z</time>
      </trkpt>
      <trkpt lat="44.735710" lon="2.640260">
        <ele>322.211182</ele>
        <time>2010-01-01T16:18:23Z</time>
      </trkpt>
      <trkpt lat="44.736010" lon="2.640610">
        <ele>322.184937</ele>
        <time>2010-01-01T16:18:35Z</time>
      </trkpt>
      <trkpt lat="44.736260" lon="2.640800">
        <ele>320.84</ele>
        <time>2010-01-01T16:19:11Z</time>
      </trkpt>
      <trkpt lat="44.736380" lon="2.641120">
        <ele>322.014435</ele>
        <time>2010-01-01T16:19:17Z</time>
      </trkpt>
      <trkpt lat="44.736500" lon="2.641660">
        <ele>322.593811</ele>
        <time>2010-01-01T16:19:39Z</time>
      </trkpt>
      <trkpt lat="44.736590" lon="2.641850">
        <ele>319.621307</ele>
        <time>2010-01-01T16:20:17Z</time>
      </trkpt>
      <trkpt lat="44.737820" lon="2.643350">
        <ele>319.99</ele>
        <time>2010-01-01T16:21:53Z</time>
      </trkpt>
      <trkpt lat="44.738100" lon="2.644680">
        <ele>329.58</ele>
        <time>2010-01-01T16:22:38Z</time>
      </trkpt>
      <trkpt lat="44.738240" lon="2.644900">
        <ele>331.684448</ele>
        <time>2010-01-01T16:22:49Z</time>
      </trkpt>
      <trkpt lat="44.738600" lon="2.645230">
        <ele>331.044037</ele>
        <time>2010-01-01T16:23:55Z</time>
      </trkpt>
      <trkpt lat="44.738930" lon="2.645680">
        <ele>333.984985</ele>
        <time>2010-01-01T16:24:07Z</time>
      </trkpt>
      <trkpt lat="44.739160" lon="2.645920">
        <ele>335.595947</ele>
        <time>2010-01-01T16:24:29Z</time>
      </trkpt>
      <trkpt lat="44.740110" lon="2.646630">
        <ele>338.89</ele>
        <time>2010-01-01T16:24:37Z</time>
      </trkpt>
      <trkpt lat="44.740610" lon="2.646650">
        <ele>338.509888</ele>
        <time>2010-01-01T16:24:44Z</time>
      </trkpt>
      <trkpt lat="44.741070" lon="2.646740">
        <ele>340.819214</ele>
        <time>2010-01-01T16:24:52Z</time>
      </trkpt>
      <trkpt lat="44.741550" lon="2.646930">
        <ele>345.054108</ele>
        <time>2010-01-01T16:25:17Z</time>
      </trkpt>
      <trkpt lat="44.742080" lon="2.647030">
        <ele>345.18</ele>
        <time>2010-01-01T16:25:30Z</time>
      </trkpt>
      <trkpt lat="44.742310" lon="2.647130">
        <ele>346.930725</ele>
        <time>2010-01-01T16:26:00Z</time>
      </trkpt>
      <trkpt lat="44.742890" lon="2.647520">
        <ele>365.08</ele>
        <time>2010-01-01T16:26:04Z</time>
      </trkpt>
      <trkpt lat="44.743750" lon="2.648000">
        <ele>363.95</ele>
        <time>2010-01-01T16:26:18Z</time>
      </trkpt>
      <trkpt lat="44.743983" lon="2.648297">
        <ele>364.82</ele>
        <time>2010-01-01T16:26:26Z</time>
      </trkpt>
      <trkpt lat="44.744423" lon="2.649332">
        <ele>364.82</ele>
        <time>2010-01-01T16:26:34Z</time>
      </trkpt>
      <trkpt lat="44.744576" lon="2.649990">
        <ele>365.82</ele>
        <time>2010-01-01T16:26:53Z</time>
      </trkpt>
      <trkpt lat="44.744780" lon="2.651460">
        <ele>367.82</ele>
        <time>2010-01-01T16:27:20Z</time>
      </trkpt>
      <trkpt lat="44.744760" lon="2.651820">
        <ele>369.51</ele>
        <time>2010-01-01T16:27:51Z</time>
      </trkpt>
      <trkpt lat="44.744640" lon="2.652410">
        <ele>373.013550</ele>
        <time>2010-01-01T16:28:26Z</time>
      </trkpt>
      <trkpt lat="44.744640" lon="2.652640">
        <ele>371.95</ele>
        <time>2010-01-01T16:28:52Z</time>
      </trkpt>
      <trkpt lat="44.744720" lon="2.652920">
        <ele>371.565002</ele>
        <time>2010-01-01T16:31:01Z</time>
      </trkpt>
      <trkpt lat="44.744892" lon="2.653312">
        <ele>371.13</ele>
        <time>2010-01-01T16:31:18Z</time>
      </trkpt>
      <trkpt lat="44.745023" lon="2.654009">
        <ele>371.95</ele>
        <time>2010-01-01T16:32:51Z</time>
      </trkpt>
      <trkpt lat="44.745160" lon="2.654890">
        <ele>371.95</ele>
        <time>2010-01-01T16:33:02Z</time>
      </trkpt>
      <trkpt lat="44.745160" lon="2.655580">
        <ele>371.95</ele>
        <time>2010-01-01T16:33:09Z</time>
      </trkpt>
      <trkpt lat="44.745330" lon="2.656380">
        <ele>371.064758</ele>
        <time>2010-01-01T16:33:14Z</time>
      </trkpt>
      <trkpt lat="44.745640" lon="2.657440">
        <ele>371.95</ele>
        <time>2010-01-01T16:33:20Z</time>
      </trkpt>
      <trkpt lat="44.745980" lon="2.658130">
        <ele>368.460724</ele>
        <time>2010-01-01T16:33:48Z</time>
      </trkpt>
      <trkpt lat="44.746060" lon="2.658430">
        <ele>368.440613</ele>
        <time>2010-01-01T16:34:03Z</time>
      </trkpt>
      <trkpt lat="44.746020" lon="2.658720">
        <ele>368.302490</ele>
        <time>2010-01-01T16:34:13Z</time>
      </trkpt>
      <trkpt lat="44.745760" lon="2.659350">
        <ele>376.564514</ele>
        <time>2010-01-01T16:34:54Z</time>
      </trkpt>
      <trkpt lat="44.745754" lon="2.659545">
        <ele>376.14</ele>
        <time>2010-01-01T16:35:26Z</time>
      </trkpt>
      <trkpt lat="44.745871" lon="2.659845">
        <ele>375.90</ele>
        <time>2010-01-01T16:36:04Z</time>
      </trkpt>
      <trkpt lat="44.746500" lon="2.660249">
        <ele>375.528748</ele>
        <time>2010-01-01T16:36:23Z</time>
      </trkpt>
      <trkpt lat="44.746700" lon="2.660520">
        <ele>370.442535</ele>
        <time>2010-01-01T16:36:42Z</time>
      </trkpt>
      <trkpt lat="44.746730" lon="2.660720">
        <ele>370.55</ele>
        <time>2010-01-01T16:36:56Z</time>
      </trkpt>
      <trkpt lat="44.746700" lon="2.660900">
        <ele>373.997498</ele>
        <time>2010-01-01T16:38:00Z</time>
      </trkpt>
      <trkpt lat="44.746550" lon="2.661310">
        <ele>376.07</ele>
        <time>2010-01-01T16:38:27Z</time>
      </trkpt>
      <trkpt lat="44.746360" lon="2.661770">
        <ele>373.72</ele>
        <time>2010-01-01T16:38:58Z</time>
      </trkpt>
      <trkpt lat="44.746240" lon="2.661930">
        <ele>373.72</ele>
        <time>2010-01-01T16:39:15Z</time>
      </trkpt>
      <trkpt lat="44.746000" lon="2.662140">
        <ele>373.72</ele>
        <time>2010-01-01T16:39:29Z</time>
      </trkpt>
      <trkpt lat="44.745380" lon="2.662400">
        <ele>381.15</ele>
        <time>2010-01-01T16:39:33Z</time>
      </trkpt>
      <trkpt lat="44.745190" lon="2.662510">
        <ele>381.247314</ele>
        <time>2010-01-01T16:39:38Z</time>
      </trkpt>
      <trkpt lat="44.745060" lon="2.662650">
        <ele>378.52</ele>
        <time>2010-01-01T16:39:49Z</time>
      </trkpt>
      <trkpt lat="44.745000" lon="2.662810">
        <ele>378.52</ele>
        <time>2010-01-01T16:40:09Z</time>
      </trkpt>
      <trkpt lat="44.744990" lon="2.663020">
        <ele>378.52</ele>
        <time>2010-01-01T16:40:16Z</time>
      </trkpt>
      <trkpt lat="44.745080" lon="2.663320">
        <ele>379.55</ele>
        <time>2010-01-01T16:40:47Z</time>
      </trkpt>
      <trkpt lat="44.745240" lon="2.663530">
        <ele>381.32</ele>
        <time>2010-01-01T16:40:54Z</time>
      </trkpt>
      <trkpt lat="44.745610" lon="2.663860">
        <ele>378.21</ele>
        <time>2010-01-01T16:40:58Z</time>
      </trkpt>
      <trkpt lat="44.745800" lon="2.663990">
        <ele>378.21</ele>
        <time>2010-01-01T16:41:05Z</time>
      </trkpt>
      <trkpt lat="44.745950" lon="2.664010">
        <ele>379.45</ele>
        <time>2010-01-01T16:41:34Z</time>
      </trkpt>
      <trkpt lat="44.746680" lon="2.663720">
        <ele>382.390747</ele>
        <time>2010-01-01T16:41:42Z</time>
      </trkpt>
      <trkpt lat="44.747190" lon="2.663640">
        <ele>384.325439</ele>
        <time>2010-01-01T16:41:54Z</time>
      </trkpt>
      <trkpt lat="44.747530" lon="2.663660">
        <ele>388.872498</ele>
        <time>2010-01-01T16:42:05Z</time>
      </trkpt>
      <trkpt lat="44.747690" lon="2.663550">
        <ele>388.86</ele>
        <time>2010-01-01T16:42:21Z</time>
      </trkpt>
      <trkpt lat="44.748100" lon="2.663070">
        <ele>388.86</ele>
        <time>2010-01-01T16:42:25Z</time>
      </trkpt>
      <trkpt lat="44.748260" lon="2.662990">
        <ele>388.86</ele>
        <time>2010-01-01T16:42:34Z</time>
      </trkpt>
      <trkpt lat="44.748480" lon="2.663000">
        <ele>388.86</ele>
        <time>2010-01-01T16:42:37Z</time>
      </trkpt>
      <trkpt lat="44.748620" lon="2.663200">
        <ele>388.86</ele>
        <time>2010-01-01T16:42:39Z</time>
      </trkpt>
      <trkpt lat="44.748970" lon="2.664120">
        <ele>389.64</ele>
        <time>2010-01-01T16:42:48Z</time>
      </trkpt>
      <trkpt lat="44.749250" lon="2.664610">
        <ele>389.386505</ele>
        <time>2010-01-01T16:43:25Z</time>
      </trkpt>
      <trkpt lat="44.749380" lon="2.664670">
        <ele>389.59</ele>
        <time>2010-01-01T16:43:43Z</time>
      </trkpt>
      <trkpt lat="44.749680" lon="2.664620">
        <ele>383.505463</ele>
        <time>2010-01-01T16:46:04Z</time>
      </trkpt>
      <trkpt lat="44.749908" lon="2.664639">
        <ele>381.53</ele>
        <time>2010-01-01T16:46:06Z</time>
      </trkpt>
      <trkpt lat="44.750550" lon="2.664970">
        <ele>386.39</ele>
        <time>2010-01-01T16:46:11Z</time>
      </trkpt>
      <trkpt lat="44.750640" lon="2.665160">
        <ele>386.39</ele>
        <time>2010-01-01T16:46:16Z</time>
      </trkpt>
      <trkpt lat="44.750650" lon="2.665910">
        <ele>386.39</ele>
        <time>2010-01-01T16:46:30Z</time>
      </trkpt>
      <trkpt lat="44.750730" lon="2.666222">
        <ele>385.45</ele>
        <time>2010-01-01T16:50:20Z</time>
      </trkpt>
      <trkpt lat="44.751156" lon="2.666456">
        <ele>381.19</ele>
        <time>2010-01-01T16:50:39Z</time>
      </trkpt>
      <trkpt lat="44.751360" lon="2.666740">
        <ele>379.960968</ele>
        <time>2010-01-01T16:54:13Z</time>
      </trkpt>
      <trkpt lat="44.751708" lon="2.667928">
        <ele>380.98</ele>
        <time>2010-01-01T16:54:16Z</time>
      </trkpt>
      <trkpt lat="44.751739" lon="2.668319">
        <ele>379.53</ele>
        <time>2010-01-01T16:54:44Z</time>
      </trkpt>
      <trkpt lat="44.751578" lon="2.669700">
        <ele>379.53</ele>
        <time>2010-01-01T16:55:02Z</time>
      </trkpt>
      <trkpt lat="44.751640" lon="2.669990">
        <ele>382.615814</ele>
        <time>2010-01-01T16:55:10Z</time>
      </trkpt>
      <trkpt lat="44.751797" lon="2.670169">
        <ele>384.35</ele>
        <time>2010-01-01T16:56:12Z</time>
      </trkpt>
      <trkpt lat="44.752111" lon="2.670175">
        <ele>379.304993</ele>
        <time>2010-01-01T16:56:37Z</time>
      </trkpt>
      <trkpt lat="44.752700" lon="2.670320">
        <ele>373.843628</ele>
        <time>2010-01-01T16:56:58Z</time>
      </trkpt>
      <trkpt lat="44.752950" lon="2.670480">
        <ele>370.987488</ele>
        <time>2010-01-01T16:57:08Z</time>
      </trkpt>
      <trkpt lat="44.753727" lon="2.671361">
        <ele>369.501373</ele>
        <time>2010-01-01T16:57:23Z</time>
      </trkpt>
      <trkpt lat="44.754180" lon="2.672030">
        <ele>366.93</ele>
        <time>2010-01-01T16:57:42Z</time>
      </trkpt>
      <trkpt lat="44.754239" lon="2.672234">
        <ele>366.93</ele>
        <time>2010-01-01T16:57:54Z</time>
      </trkpt>
      <trkpt lat="44.754200" lon="2.672440">
        <ele>366.93</ele>
        <time>2010-01-01T16:58:19Z</time>
      </trkpt>
      <trkpt lat="44.753840" lon="2.673000">
        <ele>371.85</ele>
        <time>2010-01-01T16:58:48Z</time>
      </trkpt>
      <trkpt lat="44.753790" lon="2.673280">
        <ele>371.85</ele>
        <time>2010-01-01T16:59:00Z</time>
      </trkpt>
      <trkpt lat="44.753860" lon="2.673520">
        <ele>370.97</ele>
        <time>2010-01-01T16:59:12Z</time>
      </trkpt>
      <trkpt lat="44.754030" lon="2.673660">
        <ele>370.53</ele>
        <time>2010-01-01T16:59:22Z</time>
      </trkpt>
      <trkpt lat="44.754640" lon="2.673720">
        <ele>361.088898</ele>
        <time>2010-01-01T17:00:32Z</time>
      </trkpt>
      <trkpt lat="44.754960" lon="2.673900">
        <ele>356.55</ele>
        <time>2010-01-01T17:00:46Z</time>
      </trkpt>
      <trkpt lat="44.755500" lon="2.674630">
        <ele>356.55</ele>
        <time>2010-01-01T17:01:14Z</time>
      </trkpt>
      <trkpt lat="44.755560" lon="2.674740">
        <ele>356.55</ele>
        <time>2010-01-01T17:03:15Z</time>
      </trkpt>
      <trkpt lat="44.755670" lon="2.675180">
        <ele>359.66</ele>
        <time>2010-01-01T17:03:58Z</time>
      </trkpt>
      <trkpt lat="44.755820" lon="2.675400">
        <ele>359.66</ele>
        <time>2010-01-01T17:04:33Z</time>
      </trkpt>
      <trkpt lat="44.756000" lon="2.675490">
        <ele>359.66</ele>
        <time>2010-01-01T17:04:46Z</time>
      </trkpt>
      <trkpt lat="44.756470" lon="2.675550">
        <ele>354.41</ele>
        <time>2010-01-01T17:05:12Z</time>
      </trkpt>
      <trkpt lat="44.757100" lon="2.675940">
        <ele>352.387177</ele>
        <time>2010-01-01T17:05:36Z</time>
      </trkpt>
      <trkpt lat="44.757660" lon="2.676670">
        <ele>351.38</ele>
        <time>2010-01-01T17:07:05Z</time>
      </trkpt>
      <trkpt lat="44.758400" lon="2.677360">
        <ele>344.97</ele>
        <time>2010-01-01T17:07:24Z</time>
      </trkpt>
      <trkpt lat="44.758850" lon="2.677980">
        <ele>344.97</ele>
        <time>2010-01-01T17:08:13Z</time>
      </trkpt>
      <trkpt lat="44.759266" lon="2.678324">
        <ele>344.97</ele>
        <time>2010-01-01T17:09:20Z</time>
      </trkpt>
      <trkpt lat="44.759451" lon="2.678806">
        <ele>344.97</ele>
        <time>2010-01-01T17:09:37Z</time>
      </trkpt>
      <trkpt lat="44.760012" lon="2.679196">
        <ele>344.378235</ele>
        <time>2010-01-01T17:09:48Z</time>
      </trkpt>
      <trkpt lat="44.760183" lon="2.679346">
        <ele>341.10</ele>
        <time>2010-01-01T17:09:54Z</time>
      </trkpt>
      <trkpt lat="44.760710" lon="2.681390">
        <ele>322.35</ele>
        <time>2010-01-01T17:10:24Z</time>
      </trkpt>
      <trkpt lat="44.760870" lon="2.681548">
        <ele>324.29</ele>
        <time>2010-01-01T17:10:48Z</time>
      </trkpt>
      <trkpt lat="44.761120" lon="2.681510">
        <ele>325.447235</ele>
        <time>2010-01-01T17:10:58Z</time>
      </trkpt>
      <trkpt lat="44.762506" lon="2.681098">
        <ele>355.48</ele>
        <time>2010-01-01T17:11:20Z</time>
      </trkpt>
      <trkpt lat="44.762722" lon="2.681124">
        <ele>358.188965</ele>
        <time>2010-01-01T17:11:58Z</time>
      </trkpt>
      <trkpt lat="44.763072" lon="2.681268">
        <ele>363.42</ele>
        <time>2010-01-01T17:12:10Z</time>
      </trkpt>
      <trkpt lat="44.763297" lon="2.681326">
        <ele>366.65</ele>
        <time>2010-01-01T17:12:27Z</time>
      </trkpt>
      <trkpt lat="44.763380" lon="2.681450">
        <ele>366.65</ele>
        <time>2010-01-01T17:12:56Z</time>
      </trkpt>
      <trkpt lat="44.763510" lon="2.681760">
        <ele>367.15</ele>
        <time>2010-01-01T17:13:36Z</time>
      </trkpt>
      <trkpt lat="44.763670" lon="2.681780">
        <ele>368.98</ele>
        <time>2010-01-01T17:13:56Z</time>
      </trkpt>
      <trkpt lat="44.763670" lon="2.681590">
        <ele>368.99</ele>
        <time>2010-01-01T17:14:10Z</time>
      </trkpt>
      <trkpt lat="44.763580" lon="2.681410">
        <ele>368.95</ele>
        <time>2010-01-01T17:15:22Z</time>
      </trkpt>
      <trkpt lat="44.763373" lon="2.681196">
        <ele>368.74</ele>
        <time>2010-01-01T17:15:32Z</time>
      </trkpt>
      <trkpt lat="44.762940" lon="2.681060">
        <ele>368.97</ele>
        <time>2010-01-01T17:15:58Z</time>
      </trkpt>
      <trkpt lat="44.762650" lon="2.680710">
        <ele>368.17</ele>
        <time>2010-01-01T17:16:08Z</time>
      </trkpt>
      <trkpt lat="44.762614" lon="2.680551">
        <ele>368.55</ele>
        <time>2010-01-01T17:16:32Z</time>
      </trkpt>
      <trkpt lat="44.762680" lon="2.680380">
        <ele>368.55</ele>
        <time>2010-01-01T17:17:10Z</time>
      </trkpt>
      <trkpt lat="44.762875" lon="2.680043">
        <ele>369.95</ele>
        <time>2010-01-01T17:17:23Z</time>
      </trkpt>
      <trkpt lat="44.763023" lon="2.679985">
        <ele>370.506012</ele>
        <time>2010-01-01T17:17:31Z</time>
      </trkpt>
      <trkpt lat="44.763189" lon="2.680069">
        <ele>372.697052</ele>
        <time>2010-01-01T17:17:53Z</time>
      </trkpt>
      <trkpt lat="44.763510" lon="2.680460">
        <ele>378.433655</ele>
        <time>2010-01-01T17:18:15Z</time>
      </trkpt>
      <trkpt lat="44.764000" lon="2.681320">
        <ele>387.143646</ele>
        <time>2010-01-01T17:18:29Z</time>
      </trkpt>
      <trkpt lat="44.764540" lon="2.682420">
        <ele>393.457184</ele>
        <time>2010-01-01T17:18:49Z</time>
      </trkpt>
      <trkpt lat="44.764850" lon="2.682940">
        <ele>397.766144</ele>
        <time>2010-01-01T17:18:56Z</time>
      </trkpt>
      <trkpt lat="44.765280" lon="2.683220">
        <ele>410.239868</ele>
        <time>2010-01-01T17:19:01Z</time>
      </trkpt>
      <trkpt lat="44.765510" lon="2.683580">
        <ele>411.18</ele>
        <time>2010-01-01T17:19:11Z</time>
      </trkpt>
      <trkpt lat="44.765736" lon="2.683645">
        <ele>412.03</ele>
        <time>2010-01-01T17:19:18Z</time>
      </trkpt>
      <trkpt lat="44.766198" lon="2.683710">
        <ele>422.88</ele>
        <time>2010-01-01T17:19:43Z</time>
      </trkpt>
      <trkpt lat="44.766495" lon="2.683821">
        <ele>429.634613</ele>
        <time>2010-01-01T17:19:55Z</time>
      </trkpt>
      <trkpt lat="44.767000" lon="2.684300">
        <ele>433.121002</ele>
        <time>2010-01-01T17:20:14Z</time>
      </trkpt>
      <trkpt lat="44.767520" lon="2.684920">
        <ele>442.985870</ele>
        <time>2010-01-01T17:20:32Z</time>
      </trkpt>
      <trkpt lat="44.768000" lon="2.685770">
        <ele>453.324554</ele>
        <time>2010-01-01T17:20:43Z</time>
      </trkpt>
      <trkpt lat="44.768100" lon="2.686350">
        <ele>457.114044</ele>
        <time>2010-01-01T17:21:01Z</time>
      </trkpt>
      <trkpt lat="44.768030" lon="2.686840">
        <ele>461.964233</ele>
        <time>2010-01-01T17:21:16Z</time>
      </trkpt>
      <trkpt lat="44.768100" lon="2.686930">
        <ele>467.317749</ele>
        <time>2010-01-01T17:21:34Z</time>
      </trkpt>
      <trkpt lat="44.768210" lon="2.686840">
        <ele>471.597229</ele>
        <time>2010-01-01T17:22:16Z</time>
      </trkpt>
      <trkpt lat="44.768320" lon="2.686480">
        <ele>473.037506</ele>
        <time>2010-01-01T17:24:50Z</time>
      </trkpt>
      <trkpt lat="44.768350" lon="2.685780">
        <ele>475.556732</ele>
        <time>2010-01-01T17:25:01Z</time>
      </trkpt>
      <trkpt lat="44.768310" lon="2.685550">
        <ele>475.56</ele>
        <time>2010-01-01T17:25:13Z</time>
      </trkpt>
      <trkpt lat="44.767980" lon="2.684560">
        <ele>475.93</ele>
        <time>2010-01-01T17:25:56Z</time>
      </trkpt>
      <trkpt lat="44.767960" lon="2.684300">
        <ele>476.29</ele>
        <time>2010-01-01T17:26:12Z</time>
      </trkpt>
      <trkpt lat="44.768050" lon="2.684350">
        <ele>477.740356</ele>
        <time>2010-01-01T17:26:45Z</time>
      </trkpt>
      <trkpt lat="44.768120" lon="2.684570">
        <ele>479.191376</ele>
        <time>2010-01-01T17:27:15Z</time>
      </trkpt>
      <trkpt lat="44.768550" lon="2.685380">
        <ele>492.111115</ele>
        <time>2010-01-01T17:27:23Z</time>
      </trkpt>
      <trkpt lat="44.768640" lon="2.685640">
        <ele>494.454651</ele>
        <time>2010-01-01T17:27:44Z</time>
      </trkpt>
      <trkpt lat="44.768710" lon="2.686030">
        <ele>495.75</ele>
        <time>2010-01-01T17:31:17Z</time>
      </trkpt>
      <trkpt lat="44.768700" lon="2.686440">
        <ele>496.86</ele>
        <time>2010-01-01T17:31:28Z</time>
      </trkpt>
      <trkpt lat="44.768630" lon="2.686990">
        <ele>496.77</ele>
        <time>2010-01-01T17:34:15Z</time>
      </trkpt>
      <trkpt lat="44.768650" lon="2.687110">
        <ele>497.63</ele>
        <time>2010-01-01T17:35:37Z</time>
      </trkpt>
      <trkpt lat="44.768840" lon="2.687290">
        <ele>497.820251</ele>
        <time>2010-01-01T17:35:47Z</time>
      </trkpt>
      <trkpt lat="44.768910" lon="2.687260">
        <ele>500.685089</ele>
        <time>2010-01-01T17:36:45Z</time>
      </trkpt>
      <trkpt lat="44.768920" lon="2.687190">
        <ele>502.688751</ele>
        <time>2010-01-01T17:36:51Z</time>
      </trkpt>
      <trkpt lat="44.768810" lon="2.686920">
        <ele>503.508057</ele>
        <time>2010-01-01T17:37:01Z</time>
      </trkpt>
      <trkpt lat="44.768816" lon="2.686667">
        <ele>504.067688</ele>
        <time>2010-01-01T17:37:27Z</time>
      </trkpt>
      <trkpt lat="44.769100" lon="2.685660">
        <ele>521.102722</ele>
        <time>2010-01-01T17:37:39Z</time>
      </trkpt>
      <trkpt lat="44.769040" lon="2.685040">
        <ele>517.87</ele>
        <time>2010-01-01T17:37:48Z</time>
      </trkpt>
      <trkpt lat="44.769152" lon="2.684590">
        <ele>517.574036</ele>
        <time>2010-01-01T17:37:52Z</time>
      </trkpt>
      <trkpt lat="44.769314" lon="2.684420">
        <ele>520.085327</ele>
        <time>2010-01-01T17:37:58Z</time>
      </trkpt>
      <trkpt lat="44.769525" lon="2.684381">
        <ele>522.387146</ele>
        <time>2010-01-01T17:38:04Z</time>
      </trkpt>
      <trkpt lat="44.770329" lon="2.684635">
        <ele>533.935791</ele>
        <time>2010-01-01T17:38:10Z</time>
      </trkpt>
      <trkpt lat="44.770879" lon="2.684837">
        <ele>543.760254</ele>
        <time>2010-01-01T17:39:01Z</time>
      </trkpt>
      <trkpt lat="44.771548" lon="2.684759">
        <ele>543.13</ele>
        <time>2010-01-01T17:39:21Z</time>
      </trkpt>
      <trkpt lat="44.771759" lon="2.684616">
        <ele>543.54</ele>
        <time>2010-01-01T17:39:26Z</time>
      </trkpt>
      <trkpt lat="44.771835" lon="2.684433">
        <ele>542.22</ele>
        <time>2010-01-01T17:39:56Z</time>
      </trkpt>
      <trkpt lat="44.771826" lon="2.684192">
        <ele>542.05</ele>
        <time>2010-01-01T17:40:02Z</time>
      </trkpt>
      <trkpt lat="44.771960" lon="2.684110">
        <ele>543.57</ele>
        <time>2010-01-01T17:40:08Z</time>
      </trkpt>
      <trkpt lat="44.772020" lon="2.684130">
        <ele>543.217651</ele>
        <time>2010-01-01T17:40:24Z</time>
      </trkpt>
      <trkpt lat="44.772080" lon="2.684270">
        <ele>548.386780</ele>
        <time>2010-01-01T17:40:40Z</time>
      </trkpt>
      <trkpt lat="44.772050" lon="2.684450">
        <ele>551.297424</ele>
        <time>2010-01-01T17:40:53Z</time>
      </trkpt>
      <trkpt lat="44.771820" lon="2.684820">
        <ele>556.529541</ele>
        <time>2010-01-01T17:41:05Z</time>
      </trkpt>
      <trkpt lat="44.771395" lon="2.685124">
        <ele>561.916321</ele>
        <time>2010-01-01T17:41:16Z</time>
      </trkpt>
      <trkpt lat="44.770933" lon="2.685306">
        <ele>564.669983</ele>
        <time>2010-01-01T17:41:29Z</time>
      </trkpt>
      <trkpt lat="44.770403" lon="2.685332">
        <ele>564.58</ele>
        <time>2010-01-01T17:42:04Z</time>
      </trkpt>
      <trkpt lat="44.770295" lon="2.685443">
        <ele>564.178162</ele>
        <time>2010-01-01T17:42:09Z</time>
      </trkpt>
      <trkpt lat="44.770344" lon="2.685554">
        <ele>568.056824</ele>
        <time>2010-01-01T17:42:30Z</time>
      </trkpt>
      <trkpt lat="44.770569" lon="2.685541">
        <ele>570.106628</ele>
        <time>2010-01-01T17:42:49Z</time>
      </trkpt>
      <trkpt lat="44.771121" lon="2.685658">
        <ele>579.700012</ele>
        <time>2010-01-01T17:43:02Z</time>
      </trkpt>
      <trkpt lat="44.771530" lon="2.685586">
        <ele>582.41</ele>
        <time>2010-01-01T17:44:12Z</time>
      </trkpt>
      <trkpt lat="44.772264" lon="2.685397">
        <ele>592.841248</ele>
        <time>2010-01-01T17:44:19Z</time>
      </trkpt>
      <trkpt lat="44.772462" lon="2.685306">
        <ele>596.536499</ele>
        <time>2010-01-01T17:44:23Z</time>
      </trkpt>
      <trkpt lat="44.772700" lon="2.685000">
        <ele>596.86</ele>
        <time>2010-01-01T17:44:30Z</time>
      </trkpt>
      <trkpt lat="44.773054" lon="2.684681">
        <ele>596.128784</ele>
        <time>2010-01-01T17:44:36Z</time>
      </trkpt>
      <trkpt lat="44.774170" lon="2.684190">
        <ele>612.414978</ele>
        <time>2010-01-01T17:45:32Z</time>
      </trkpt>
      <trkpt lat="44.774520" lon="2.683750">
        <ele>613.053101</ele>
        <time>2010-01-01T17:47:13Z</time>
      </trkpt>
      <trkpt lat="44.774714" lon="2.683613">
        <ele>615.983826</ele>
        <time>2010-01-01T17:47:19Z</time>
      </trkpt>
      <trkpt lat="44.775064" lon="2.683580">
        <ele>624.575989</ele>
        <time>2010-01-01T17:47:24Z</time>
      </trkpt>
      <trkpt lat="44.775351" lon="2.683515">
        <ele>624.33</ele>
        <time>2010-01-01T17:48:05Z</time>
      </trkpt>
      <trkpt lat="44.775843" lon="2.683372">
        <ele>624.240540</ele>
        <time>2010-01-01T17:48:19Z</time>
      </trkpt>
      <trkpt lat="44.775920" lon="2.683417">
        <ele>625.522827</ele>
        <time>2010-01-01T17:48:50Z</time>
      </trkpt>
      <trkpt lat="44.775906" lon="2.683554">
        <ele>631.180664</ele>
        <time>2010-01-01T17:49:03Z</time>
      </trkpt>
      <trkpt lat="44.775542" lon="2.683645">
        <ele>635.331726</ele>
        <time>2010-01-01T17:49:40Z</time>
      </trkpt>
      <trkpt lat="44.774967" lon="2.684016">
        <ele>638.280212</ele>
        <time>2010-01-01T17:49:51Z</time>
      </trkpt>
      <trkpt lat="44.774774" lon="2.684264">
        <ele>639.330627</ele>
        <time>2010-01-01T17:49:59Z</time>
      </trkpt>
      <trkpt lat="44.774538" lon="2.684980">
        <ele>650.191101</ele>
        <time>2010-01-01T17:50:08Z</time>
      </trkpt>
      <trkpt lat="44.774345" lon="2.685247">
        <ele>650.783875</ele>
        <time>2010-01-01T17:50:35Z</time>
      </trkpt>
      <trkpt lat="44.773909" lon="2.685645">
        <ele>652.11</ele>
        <time>2010-01-01T17:51:09Z</time>
      </trkpt>
      <trkpt lat="44.773693" lon="2.686192">
        <ele>658.201477</ele>
        <time>2010-01-01T17:51:20Z</time>
      </trkpt>
      <trkpt lat="44.773280" lon="2.686837">
        <ele>660.162476</ele>
        <time>2010-01-01T17:51:29Z</time>
      </trkpt>
      <trkpt lat="44.773260" lon="2.687070">
        <ele>660.878418</ele>
        <time>2010-01-01T17:51:35Z</time>
      </trkpt>
      <trkpt lat="44.773290" lon="2.687150">
        <ele>661.02</ele>
        <time>2010-01-01T17:51:39Z</time>
      </trkpt>
      <trkpt lat="44.773940" lon="2.687510">
        <ele>674.213928</ele>
        <time>2010-01-01T17:51:58Z</time>
      </trkpt>
      <trkpt lat="44.774390" lon="2.687690">
        <ele>679.985474</ele>
        <time>2010-01-01T17:52:18Z</time>
      </trkpt>
      <trkpt lat="44.774560" lon="2.687810">
        <ele>680.935974</ele>
        <time>2010-01-01T17:52:54Z</time>
      </trkpt>
      <trkpt lat="44.775900" lon="2.688900">
        <ele>702.080200</ele>
        <time>2010-01-01T17:53:02Z</time>
      </trkpt>
      <trkpt lat="44.776110" lon="2.689720">
        <ele>702.351318</ele>
        <time>2010-01-01T17:53:10Z</time>
      </trkpt>
      <trkpt lat="44.776350" lon="2.690390">
        <ele>703.202576</ele>
        <time>2010-01-01T17:53:14Z</time>
      </trkpt>
      <trkpt lat="44.776510" lon="2.690650">
        <ele>704.742432</ele>
        <time>2010-01-01T17:56:01Z</time>
      </trkpt>
      <trkpt lat="44.776840" lon="2.690890">
        <ele>709.108276</ele>
        <time>2010-01-01T17:57:10Z</time>
      </trkpt>
      <trkpt lat="44.777310" lon="2.691070">
        <ele>715.824463</ele>
        <time>2010-01-01T17:57:41Z</time>
      </trkpt>
      <trkpt lat="44.777610" lon="2.691100">
        <ele>719.891235</ele>
        <time>2010-01-01T17:57:50Z</time>
      </trkpt>
      <trkpt lat="44.778200" lon="2.690880">
        <ele>726.426270</ele>
        <time>2010-01-01T17:58:05Z</time>
      </trkpt>
      <trkpt lat="44.778860" lon="2.690420">
        <ele>730.947998</ele>
        <time>2010-01-01T17:58:21Z</time>
      </trkpt>
      <trkpt lat="44.779150" lon="2.690270">
        <ele>732.895020</ele>
        <time>2010-01-01T17:58:47Z</time>
      </trkpt>
      <trkpt lat="44.779440" lon="2.690200">
        <ele>734.109802</ele>
        <time>2010-01-01T17:59:03Z</time>
      </trkpt>
      <trkpt lat="44.779670" lon="2.690330">
        <ele>734.254517</ele>
        <time>2010-01-01T17:59:14Z</time>
      </trkpt>
      <trkpt lat="44.781010" lon="2.691910">
        <ele>745.018982</ele>
        <time>2010-01-01T17:59:21Z</time>
      </trkpt>
      <trkpt lat="44.781170" lon="2.692330">
        <ele>746.844971</ele>
        <time>2010-01-01T17:59:48Z</time>
      </trkpt>
      <trkpt lat="44.781420" lon="2.693280">
        <ele>752.376831</ele>
        <time>2010-01-01T17:59:56Z</time>
      </trkpt>
      <trkpt lat="44.781613" lon="2.693572">
        <ele>754.078979</ele>
        <time>2010-01-01T18:00:10Z</time>
      </trkpt>
      <trkpt lat="44.784130" lon="2.695110">
        <ele>758.31</ele>
        <time>2010-01-01T18:00:16Z</time>
      </trkpt>
      <trkpt lat="44.785140" lon="2.695600">
        <ele>755.79</ele>
        <time>2010-01-01T18:00:31Z</time>
      </trkpt>
      <trkpt lat="44.786000" lon="2.695650">
        <ele>753.647644</ele>
        <time>2010-01-01T18:00:47Z</time>
      </trkpt>
      <trkpt lat="44.786320" lon="2.695730">
        <ele>753.93</ele>
        <time>2010-01-01T18:00:53Z</time>
      </trkpt>
      <trkpt lat="44.786950" lon="2.695980">
        <ele>753.93</ele>
        <time>2010-01-01T18:01:06Z</time>
      </trkpt>
      <trkpt lat="44.787520" lon="2.696290">
        <ele>755.742493</ele>
        <time>2010-01-01T18:01:40Z</time>
      </trkpt>
      <trkpt lat="44.789680" lon="2.697020">
        <ele>764.197510</ele>
        <time>2010-01-01T18:01:57Z</time>
      </trkpt>
      <trkpt lat="44.790150" lon="2.697100">
        <ele>765.242493</ele>
        <time>2010-01-01T18:02:06Z</time>
      </trkpt>
      <trkpt lat="44.791370" lon="2.697080">
        <ele>768.909973</ele>
        <time>2010-01-01T18:02:17Z</time>
      </trkpt>
      <trkpt lat="44.793040" lon="2.696920">
        <ele>775.748779</ele>
        <time>2010-01-01T18:02:24Z</time>
      </trkpt>
      <trkpt lat="44.793420" lon="2.697200">
        <ele>776.488770</ele>
        <time>2010-01-01T18:02:52Z</time>
      </trkpt>
      <trkpt lat="44.793690" lon="2.697290">
        <ele>776.833740</ele>
        <time>2010-01-01T18:02:57Z</time>
      </trkpt>
      <trkpt lat="44.793840" lon="2.697300">
        <ele>776.820007</ele>
        <time>2010-01-01T18:03:05Z</time>
      </trkpt>
      <trkpt lat="44.794580" lon="2.697120">
        <ele>778.317505</ele>
        <time>2010-01-01T18:03:41Z</time>
      </trkpt>
      <trkpt lat="44.795160" lon="2.697290">
        <ele>779.082520</ele>
        <time>2010-01-01T18:03:45Z</time>
      </trkpt>
      <trkpt lat="44.795390" lon="2.697410">
        <ele>779.217529</ele>
        <time>2010-01-01T18:04:00Z</time>
      </trkpt>
      <trkpt lat="44.795860" lon="2.697810">
        <ele>779.040710</ele>
        <time>2010-01-01T18:04:16Z</time>
      </trkpt>
      <trkpt lat="44.796740" lon="2.698280">
        <ele>780.769226</ele>
        <time>2010-01-01T18:04:34Z</time>
      </trkpt>
      <trkpt lat="44.797040" lon="2.698390">
        <ele>782.023987</ele>
        <time>2010-01-01T18:04:39Z</time>
      </trkpt>
      <trkpt lat="44.797460" lon="2.698430">
        <ele>784.66</ele>
        <time>2010-01-01T18:04:44Z</time>
      </trkpt>
      <trkpt lat="44.798060" lon="2.699010">
        <ele>787.824524</ele>
        <time>2010-01-01T18:05:04Z</time>
      </trkpt>
      <trkpt lat="44.798920" lon="2.699730">
        <ele>792.724976</ele>
        <time>2010-01-01T18:05:10Z</time>
      </trkpt>
      <trkpt lat="44.799380" lon="2.700030">
        <ele>794.546997</ele>
        <time>2010-01-01T18:05:24Z</time>
      </trkpt>
      <trkpt lat="44.799720" lon="2.700150">
        <ele>795.053833</ele>
        <time>2010-01-01T18:06:29Z</time>
      </trkpt>
      <trkpt lat="44.801440" lon="2.699460">
        <ele>800.825684</ele>
        <time>2010-01-01T18:06:35Z</time>
      </trkpt>
      <trkpt lat="44.801670" lon="2.699340">
        <ele>800.413757</ele>
        <time>2010-01-01T18:06:55Z</time>
      </trkpt>
      <trkpt lat="44.802250" lon="2.698880">
        <ele>797.084595</ele>
        <time>2010-01-01T18:07:09Z</time>
      </trkpt>
      <trkpt lat="44.802470" lon="2.698780">
        <ele>795.569519</ele>
        <time>2010-01-01T18:07:26Z</time>
      </trkpt>
      <trkpt lat="44.803070" lon="2.698760">
        <ele>791.264465</ele>
        <time>2010-01-01T18:09:21Z</time>
      </trkpt>
      <trkpt lat="44.803980" lon="2.698310">
        <ele>786.971680</ele>
        <time>2010-01-01T18:10:13Z</time>
      </trkpt>
      <trkpt lat="44.804290" lon="2.698280">
        <ele>786.172791</ele>
        <time>2010-01-01T18:10:28Z</time>
      </trkpt>
      <trkpt lat="44.804500" lon="2.698330">
        <ele>785.547363</ele>
        <time>2010-01-01T18:10:42Z</time>
      </trkpt>
      <trkpt lat="44.804970" lon="2.698740">
        <ele>784.653748</ele>
        <time>2010-01-01T18:10:49Z</time>
      </trkpt>
      <trkpt lat="44.805400" lon="2.699210">
        <ele>783.760681</ele>
        <time>2010-01-01T18:10:53Z</time>
      </trkpt>
      <trkpt lat="44.805600" lon="2.699610">
        <ele>783.11</ele>
        <time>2010-01-01T18:10:59Z</time>
      </trkpt>
      <trkpt lat="44.805750" lon="2.700290">
        <ele>784.475708</ele>
        <time>2010-01-01T18:11:17Z</time>
      </trkpt>
      <trkpt lat="44.805830" lon="2.700490">
        <ele>785.379456</ele>
        <time>2010-01-01T18:11:22Z</time>
      </trkpt>
      <trkpt lat="44.805930" lon="2.700600">
        <ele>786.245911</ele>
        <time>2010-01-01T18:11:35Z</time>
      </trkpt>
      <trkpt lat="44.806180" lon="2.700600">
        <ele>786.853699</ele>
        <time>2010-01-01T18:11:58Z</time>
      </trkpt>
      <trkpt lat="44.806350" lon="2.700680">
        <ele>787.120789</ele>
        <time>2010-01-01T18:12:06Z</time>
      </trkpt>
      <trkpt lat="44.806650" lon="2.701440">
        <ele>792.637146</ele>
        <time>2010-01-01T18:12:18Z</time>
      </trkpt>
      <trkpt lat="44.806900" lon="2.701690">
        <ele>793.93</ele>
        <time>2010-01-01T18:12:33Z</time>
      </trkpt>
      <trkpt lat="44.807350" lon="2.701910">
        <ele>794.172668</ele>
        <time>2010-01-01T18:12:37Z</time>
      </trkpt>
      <trkpt lat="44.807790" lon="2.701980">
        <ele>793.899536</ele>
        <time>2010-01-01T18:14:23Z</time>
      </trkpt>
      <trkpt lat="44.808050" lon="2.701860">
        <ele>792.662231</ele>
        <time>2010-01-01T18:14:30Z</time>
      </trkpt>
      <trkpt lat="44.808410" lon="2.701440">
        <ele>790.27</ele>
        <time>2010-01-01T18:14:43Z</time>
      </trkpt>
      <trkpt lat="44.808750" lon="2.701600">
        <ele>793.280029</ele>
        <time>2010-01-01T18:14:49Z</time>
      </trkpt>
      <trkpt lat="44.809160" lon="2.701340">
        <ele>793.92</ele>
        <time>2010-01-01T18:15:09Z</time>
      </trkpt>
      <trkpt lat="44.809436" lon="2.701310">
        <ele>794.100647</ele>
        <time>2010-01-01T18:15:35Z</time>
      </trkpt>
      <trkpt lat="44.809921" lon="2.701583">
        <ele>797.184998</ele>
        <time>2010-01-01T18:16:24Z</time>
      </trkpt>
      <trkpt lat="44.810090" lon="2.701860">
        <ele>798.554504</ele>
        <time>2010-01-01T18:16:39Z</time>
      </trkpt>
      <trkpt lat="44.810865" lon="2.703290">
        <ele>798.375000</ele>
        <time>2010-01-01T18:16:44Z</time>
      </trkpt>
      <trkpt lat="44.811305" lon="2.703694">
        <ele>797.347107</ele>
        <time>2010-01-01T18:17:14Z</time>
      </trkpt>
      <trkpt lat="44.812769" lon="2.704579">
        <ele>791.925171</ele>
        <time>2010-01-01T18:17:23Z</time>
      </trkpt>
      <trkpt lat="44.813070" lon="2.705060">
        <ele>789.268066</ele>
        <time>2010-01-01T18:17:48Z</time>
      </trkpt>
      <trkpt lat="44.813230" lon="2.705380">
        <ele>787.729553</ele>
        <time>2010-01-01T18:18:08Z</time>
      </trkpt>
      <trkpt lat="44.813340" lon="2.705760">
        <ele>787.060486</ele>
        <time>2010-01-01T18:18:45Z</time>
      </trkpt>
      <trkpt lat="44.813300" lon="2.707270">
        <ele>786.932495</ele>
        <time>2010-01-01T18:19:05Z</time>
      </trkpt>
      <trkpt lat="44.813370" lon="2.707830">
        <ele>787.162476</ele>
        <time>2010-01-01T18:19:30Z</time>
      </trkpt>
      <trkpt lat="44.813750" lon="2.708880">
        <ele>783.398376</ele>
        <time>2010-01-01T18:19:40Z</time>
      </trkpt>
      <trkpt lat="44.814210" lon="2.709710">
        <ele>782.127075</ele>
        <time>2010-01-01T18:20:35Z</time>
      </trkpt>
      <trkpt lat="44.814250" lon="2.709990">
        <ele>781.434998</ele>
        <time>2010-01-01T18:20:54Z</time>
      </trkpt>
      <trkpt lat="44.814210" lon="2.710710">
        <ele>779.231934</ele>
        <time>2010-01-01T18:21:21Z</time>
      </trkpt>
      <trkpt lat="44.814289" lon="2.711080">
        <ele>777.89</ele>
        <time>2010-01-01T18:21:27Z</time>
      </trkpt>
      <trkpt lat="44.814567" lon="2.711223">
        <ele>776.932617</ele>
        <time>2010-01-01T18:21:34Z</time>
      </trkpt>
      <trkpt lat="44.815385" lon="2.711080">
        <ele>776.742920</ele>
        <time>2010-01-01T18:21:49Z</time>
      </trkpt>
      <trkpt lat="44.815637" lon="2.711145">
        <ele>775.031250</ele>
        <time>2010-01-01T18:22:23Z</time>
      </trkpt>
      <trkpt lat="44.816697" lon="2.712057">
        <ele>766.78</ele>
        <time>2010-01-01T18:23:43Z</time>
      </trkpt>
      <trkpt lat="44.817218" lon="2.712252">
        <ele>765.419556</ele>
        <time>2010-01-01T18:24:13Z</time>
      </trkpt>
      <trkpt lat="44.818134" lon="2.712317">
        <ele>760.846252</ele>
        <time>2010-01-01T18:24:35Z</time>
      </trkpt>
      <trkpt lat="44.818791" lon="2.712135">
        <ele>760.149597</ele>
        <time>2010-01-01T18:24:55Z</time>
      </trkpt>
      <trkpt lat="44.819060" lon="2.712240">
        <ele>760.647156</ele>
        <time>2010-01-01T18:25:05Z</time>
      </trkpt>
      <trkpt lat="44.819270" lon="2.712500">
        <ele>757.55</ele>
        <time>2010-01-01T18:25:14Z</time>
      </trkpt>
      <trkpt lat="44.819952" lon="2.713770">
        <ele>745.35</ele>
        <time>2010-01-01T18:25:28Z</time>
      </trkpt>
      <trkpt lat="44.820163" lon="2.713946">
        <ele>745.35</ele>
        <time>2010-01-01T18:25:35Z</time>
      </trkpt>
      <trkpt lat="44.821501" lon="2.713907">
        <ele>745.35</ele>
        <time>2010-01-01T18:25:52Z</time>
      </trkpt>
      <trkpt lat="44.821784" lon="2.714024">
        <ele>745.35</ele>
        <time>2010-01-01T18:26:00Z</time>
      </trkpt>
      <trkpt lat="44.822027" lon="2.714297">
        <ele>745.34</ele>
        <time>2010-01-01T18:26:14Z</time>
      </trkpt>
      <trkpt lat="44.822125" lon="2.714766">
        <ele>740.516418</ele>
        <time>2010-01-01T18:26:20Z</time>
      </trkpt>
      <trkpt lat="44.822170" lon="2.715500">
        <ele>733.637512</ele>
        <time>2010-01-01T18:26:43Z</time>
      </trkpt>
      <trkpt lat="44.822516" lon="2.716050">
        <ele>733.230103</ele>
        <time>2010-01-01T18:26:49Z</time>
      </trkpt>
      <trkpt lat="44.823580" lon="2.717550">
        <ele>722.617493</ele>
        <time>2010-01-01T18:27:07Z</time>
      </trkpt>
      <trkpt lat="44.823800" lon="2.717730">
        <ele>722.17</ele>
        <time>2010-01-01T18:27:33Z</time>
      </trkpt>
      <trkpt lat="44.824261" lon="2.717717">
        <ele>722.17</ele>
        <time>2010-01-01T18:27:38Z</time>
      </trkpt>
      <trkpt lat="44.824589" lon="2.717854">
        <ele>721.03</ele>
        <time>2010-01-01T18:28:05Z</time>
      </trkpt>
      <trkpt lat="44.825190" lon="2.718240">
        <ele>713.075134</ele>
        <time>2010-01-01T18:28:37Z</time>
      </trkpt>
      <trkpt lat="44.825350" lon="2.718270">
        <ele>711.664429</ele>
        <time>2010-01-01T18:28:50Z</time>
      </trkpt>
      <trkpt lat="44.825550" lon="2.718090">
        <ele>711.80</ele>
        <time>2010-01-01T18:29:17Z</time>
      </trkpt>
      <trkpt lat="44.825830" lon="2.717260">
        <ele>711.80</ele>
        <time>2010-01-01T18:29:40Z</time>
      </trkpt>
      <trkpt lat="44.826050" lon="2.716960">
        <ele>710.079346</ele>
        <time>2010-01-01T18:29:49Z</time>
      </trkpt>
      <trkpt lat="44.826260" lon="2.716950">
        <ele>705.505188</ele>
        <time>2010-01-01T18:31:02Z</time>
      </trkpt>
      <trkpt lat="44.826360" lon="2.717010">
        <ele>702.879089</ele>
        <time>2010-01-01T18:31:33Z</time>
      </trkpt>
      <trkpt lat="44.826460" lon="2.717160">
        <ele>700.294983</ele>
        <time>2010-01-01T18:31:47Z</time>
      </trkpt>
      <trkpt lat="44.826530" lon="2.717360">
        <ele>698.247498</ele>
        <time>2010-01-01T18:32:12Z</time>
      </trkpt>
      <trkpt lat="44.826540" lon="2.717560">
        <ele>697.656250</ele>
        <time>2010-01-01T18:32:27Z</time>
      </trkpt>
      <trkpt lat="44.826410" lon="2.719360">
        <ele>692.377869</ele>
        <time>2010-01-01T18:32:39Z</time>
      </trkpt>
      <trkpt lat="44.826290" lon="2.720030">
        <ele>686.177490</ele>
        <time>2010-01-01T18:32:49Z</time>
      </trkpt>
      <trkpt lat="44.826230" lon="2.720180">
        <ele>685.36</ele>
        <time>2010-01-01T18:33:42Z</time>
      </trkpt>
      <trkpt lat="44.826085" lon="2.720251">
        <ele>685.36</ele>
        <time>2010-01-01T18:34:19Z</time>
      </trkpt>
      <trkpt lat="44.825951" lon="2.720179">
        <ele>687.450012</ele>
        <time>2010-01-01T18:34:27Z</time>
      </trkpt>
      <trkpt lat="44.825610" lon="2.719790">
        <ele>690.238464</ele>
        <time>2010-01-01T18:34:51Z</time>
      </trkpt>
      <trkpt lat="44.825470" lon="2.719720">
        <ele>690.881348</ele>
        <time>2010-01-01T18:35:15Z</time>
      </trkpt>
      <trkpt lat="44.825320" lon="2.719770">
        <ele>689.299500</ele>
        <time>2010-01-01T18:35:39Z</time>
      </trkpt>
      <trkpt lat="44.824990" lon="2.720060">
        <ele>681.164307</ele>
        <time>2010-01-01T18:35:50Z</time>
      </trkpt>
      <trkpt lat="44.824600" lon="2.719970">
        <ele>679.47</ele>
        <time>2010-01-01T18:36:03Z</time>
      </trkpt>
      <trkpt lat="44.824300" lon="2.719730">
        <ele>679.47</ele>
        <time>2010-01-01T18:36:13Z</time>
      </trkpt>
      <trkpt lat="44.824120" lon="2.719430">
        <ele>682.80</ele>
        <time>2010-01-01T18:36:52Z</time>
      </trkpt>
      <trkpt lat="44.823880" lon="2.719210">
        <ele>681.507935</ele>
        <time>2010-01-01T18:37:05Z</time>
      </trkpt>
      <trkpt lat="44.823560" lon="2.719170">
        <ele>676.320374</ele>
        <time>2010-01-01T18:37:17Z</time>
      </trkpt>
      <trkpt lat="44.822690" lon="2.719190">
        <ele>664.69</ele>
        <time>2010-01-01T18:37:34Z</time>
      </trkpt>
      <trkpt lat="44.822560" lon="2.719150">
        <ele>663.69</ele>
        <time>2010-01-01T18:38:15Z</time>
      </trkpt>
      <trkpt lat="44.822110" lon="2.718760">
        <ele>663.90</ele>
        <time>2010-01-01T18:38:27Z</time>
      </trkpt>
      <trkpt lat="44.821670" lon="2.718560">
        <ele>662.02</ele>
        <time>2010-01-01T18:38:44Z</time>
      </trkpt>
      <trkpt lat="44.821470" lon="2.718180">
        <ele>659.02</ele>
        <time>2010-01-01T18:38:54Z</time>
      </trkpt>
      <trkpt lat="44.821317" lon="2.718023">
        <ele>658.02</ele>
        <time>2010-01-01T18:38:58Z</time>
      </trkpt>
      <trkpt lat="44.821106" lon="2.718075">
        <ele>657.02</ele>
        <time>2010-01-01T18:39:24Z</time>
      </trkpt>
      <trkpt lat="44.820791" lon="2.718401">
        <ele>656.97</ele>
        <time>2010-01-01T18:39:38Z</time>
      </trkpt>
      <trkpt lat="44.820605" lon="2.718479">
        <ele>656.416626</ele>
        <time>2010-01-01T18:40:07Z</time>
      </trkpt>
      <trkpt lat="44.819860" lon="2.718300">
        <ele>655.911865</ele>
        <time>2010-01-01T18:40:11Z</time>
      </trkpt>
      <trkpt lat="44.819680" lon="2.718320">
        <ele>652.127014</ele>
        <time>2010-01-01T18:40:20Z</time>
      </trkpt>
      <trkpt lat="44.819620" lon="2.718410">
        <ele>648.31</ele>
        <time>2010-01-01T18:40:55Z</time>
      </trkpt>
      <trkpt lat="44.819620" lon="2.718670">
        <ele>648.04</ele>
        <time>2010-01-01T18:41:03Z</time>
      </trkpt>
      <trkpt lat="44.819740" lon="2.718780">
        <ele>647.17</ele>
        <time>2010-01-01T18:41:11Z</time>
      </trkpt>
      <trkpt lat="44.820205" lon="2.718701">
        <ele>646.43</ele>
        <time>2010-01-01T18:41:30Z</time>
      </trkpt>
      <trkpt lat="44.820394" lon="2.718727">
        <ele>645.66</ele>
        <time>2010-01-01T18:41:53Z</time>
      </trkpt>
      <trkpt lat="44.820713" lon="2.718863">
        <ele>645.66</ele>
        <time>2010-01-01T18:43:40Z</time>
      </trkpt>
      <trkpt lat="44.821018" lon="2.718759">
        <ele>645.63</ele>
        <time>2010-01-01T18:44:00Z</time>
      </trkpt>
      <trkpt lat="44.821110" lon="2.718860">
        <ele>644.524231</ele>
        <time>2010-01-01T18:44:05Z</time>
      </trkpt>
      <trkpt lat="44.821286" lon="2.719170">
        <ele>638.37</ele>
        <time>2010-01-01T18:44:29Z</time>
      </trkpt>
      <trkpt lat="44.821439" lon="2.719280">
        <ele>638.516602</ele>
        <time>2010-01-01T18:44:50Z</time>
      </trkpt>
      <trkpt lat="44.821753" lon="2.719293">
        <ele>641.052002</ele>
        <time>2010-01-01T18:44:55Z</time>
      </trkpt>
      <trkpt lat="44.821911" lon="2.719378">
        <ele>639.799988</ele>
        <time>2010-01-01T18:45:14Z</time>
      </trkpt>
      <trkpt lat="44.822369" lon="2.719749">
        <ele>633.492188</ele>
        <time>2010-01-01T18:45:30Z</time>
      </trkpt>
      <trkpt lat="44.822898" lon="2.720049">
        <ele>635.79</ele>
        <time>2010-01-01T18:47:10Z</time>
      </trkpt>
      <trkpt lat="44.823360" lon="2.720060">
        <ele>636.623413</ele>
        <time>2010-01-01T18:47:31Z</time>
      </trkpt>
      <trkpt lat="44.823500" lon="2.720100">
        <ele>636.36</ele>
        <time>2010-01-01T18:47:37Z</time>
      </trkpt>
      <trkpt lat="44.823600" lon="2.720230">
        <ele>635.42</ele>
        <time>2010-01-01T18:48:17Z</time>
      </trkpt>
      <trkpt lat="44.823703" lon="2.720563">
        <ele>630.58</ele>
        <time>2010-01-01T18:48:25Z</time>
      </trkpt>
      <trkpt lat="44.823901" lon="2.720752">
        <ele>629.32</ele>
        <time>2010-01-01T18:48:55Z</time>
      </trkpt>
      <trkpt lat="44.824390" lon="2.720980">
        <ele>628.126770</ele>
        <time>2010-01-01T18:49:07Z</time>
      </trkpt>
      <trkpt lat="44.824670" lon="2.721270">
        <ele>626.94</ele>
        <time>2010-01-01T18:50:05Z</time>
      </trkpt>
      <trkpt lat="44.825410" lon="2.721600">
        <ele>623.08</ele>
        <time>2010-01-01T18:50:26Z</time>
      </trkpt>
      <trkpt lat="44.825600" lon="2.721970">
        <ele>615.87</ele>
        <time>2010-01-01T18:52:28Z</time>
      </trkpt>
      <trkpt lat="44.825860" lon="2.722120">
        <ele>613.54</ele>
        <time>2010-01-01T18:53:27Z</time>
      </trkpt>
      <trkpt lat="44.826460" lon="2.722370">
        <ele>610.957458</ele>
        <time>2010-01-01T18:53:35Z</time>
      </trkpt>
      <trkpt lat="44.826740" lon="2.722410">
        <ele>609.701660</ele>
        <time>2010-01-01T18:54:06Z</time>
      </trkpt>
      <trkpt lat="44.826940" lon="2.722400">
        <ele>607.257080</ele>
        <time>2010-01-01T18:54:16Z</time>
      </trkpt>
      <trkpt lat="44.827130" lon="2.722250">
        <ele>605.991821</ele>
        <time>2010-01-01T18:54:31Z</time>
      </trkpt>
      <trkpt lat="44.827580" lon="2.721510">
        <ele>606.62</ele>
        <time>2010-01-01T18:55:13Z</time>
      </trkpt>
      <trkpt lat="44.827780" lon="2.720350">
        <ele>606.83</ele>
        <time>2010-01-01T18:55:22Z</time>
      </trkpt>
      <trkpt lat="44.827910" lon="2.720010">
        <ele>607.27</ele>
        <time>2010-01-01T18:55:43Z</time>
      </trkpt>
      <trkpt lat="44.828080" lon="2.719780">
        <ele>608.448608</ele>
        <time>2010-01-01T18:56:15Z</time>
      </trkpt>
      <trkpt lat="44.828220" lon="2.719840">
        <ele>608.16</ele>
        <time>2010-01-01T18:56:36Z</time>
      </trkpt>
      <trkpt lat="44.828250" lon="2.719960">
        <ele>608.013306</ele>
        <time>2010-01-01T18:56:48Z</time>
      </trkpt>
      <trkpt lat="44.827970" lon="2.720510">
        <ele>605.93</ele>
        <time>2010-01-01T18:56:57Z</time>
      </trkpt>
      <trkpt lat="44.827970" lon="2.721220">
        <ele>601.159607</ele>
        <time>2010-01-01T18:57:09Z</time>
      </trkpt>
      <trkpt lat="44.827470" lon="2.722240">
        <ele>593.382141</ele>
        <time>2010-01-01T18:57:21Z</time>
      </trkpt>
      <trkpt lat="44.827400" lon="2.722520">
        <ele>590.348572</ele>
        <time>2010-01-01T18:57:30Z</time>
      </trkpt>
      <trkpt lat="44.827470" lon="2.722770">
        <ele>582.728149</ele>
        <time>2010-01-01T18:58:23Z</time>
      </trkpt>
      <trkpt lat="44.827560" lon="2.722880">
        <ele>578.073059</ele>
        <time>2010-01-01T18:58:34Z</time>
      </trkpt>
      <trkpt lat="44.827824" lon="2.723039">
        <ele>571.393127</ele>
        <time>2010-01-01T18:58:44Z</time>
      </trkpt>
      <trkpt lat="44.827887" lon="2.723195">
        <ele>568.275085</ele>
        <time>2010-01-01T18:59:07Z</time>
      </trkpt>
      <trkpt lat="44.827833" lon="2.723345">
        <ele>566.44</ele>
        <time>2010-01-01T18:59:26Z</time>
      </trkpt>
      <trkpt lat="44.827689" lon="2.723377">
        <ele>567.47</ele>
        <time>2010-01-01T18:59:44Z</time>
      </trkpt>
      <trkpt lat="44.826860" lon="2.723247">
        <ele>572.21</ele>
        <time>2010-01-01T19:00:08Z</time>
      </trkpt>
      <trkpt lat="44.826190" lon="2.723006">
        <ele>572.58</ele>
        <time>2010-01-01T19:00:23Z</time>
      </trkpt>
      <trkpt lat="44.825840" lon="2.722804">
        <ele>572.45</ele>
        <time>2010-01-01T19:00:33Z</time>
      </trkpt>
      <trkpt lat="44.825512" lon="2.722680">
        <ele>571.62</ele>
        <time>2010-01-01T19:00:44Z</time>
      </trkpt>
      <trkpt lat="44.824500" lon="2.721910">
        <ele>571.55</ele>
        <time>2010-01-01T19:01:22Z</time>
      </trkpt>
      <trkpt lat="44.824389" lon="2.721931">
        <ele>571.52</ele>
        <time>2010-01-01T19:01:39Z</time>
      </trkpt>
      <trkpt lat="44.824039" lon="2.723169">
        <ele>572.52</ele>
        <time>2010-01-01T19:01:46Z</time>
      </trkpt>
      <trkpt lat="44.824101" lon="2.723364">
        <ele>572.06</ele>
        <time>2010-01-01T19:02:04Z</time>
      </trkpt>
      <trkpt lat="44.824680" lon="2.723550">
        <ele>572.90</ele>
        <time>2010-01-01T19:02:18Z</time>
      </trkpt>
      <trkpt lat="44.825360" lon="2.724040">
        <ele>579.06</ele>
        <time>2010-01-01T19:02:57Z</time>
      </trkpt>
      <trkpt lat="44.825570" lon="2.724150">
        <ele>579.63</ele>
        <time>2010-01-01T19:03:13Z</time>
      </trkpt>
      <trkpt lat="44.825950" lon="2.724250">
        <ele>579.23</ele>
        <time>2010-01-01T19:03:25Z</time>
      </trkpt>
      <trkpt lat="44.826280" lon="2.724540">
        <ele>580.99</ele>
        <time>2010-01-01T19:03:33Z</time>
      </trkpt>
      <trkpt lat="44.826920" lon="2.724530">
        <ele>580.66</ele>
        <time>2010-01-01T19:03:44Z</time>
      </trkpt>
      <trkpt lat="44.827320" lon="2.724610">
        <ele>580.85</ele>
        <time>2010-01-01T19:03:56Z</time>
      </trkpt>
      <trkpt lat="44.827580" lon="2.724730">
        <ele>581.245483</ele>
        <time>2010-01-01T19:05:04Z</time>
      </trkpt>
      <trkpt lat="44.827690" lon="2.724950">
        <ele>582.335938</ele>
        <time>2010-01-01T19:05:25Z</time>
      </trkpt>
      <trkpt lat="44.827631" lon="2.725149">
        <ele>586.611511</ele>
        <time>2010-01-01T19:05:46Z</time>
      </trkpt>
      <trkpt lat="44.827488" lon="2.725286">
        <ele>590.119141</ele>
        <time>2010-01-01T19:06:47Z</time>
      </trkpt>
      <trkpt lat="44.827180" lon="2.725400">
        <ele>597.548035</ele>
        <time>2010-01-01T19:07:04Z</time>
      </trkpt>
      <trkpt lat="44.827040" lon="2.725580">
        <ele>597.09</ele>
        <time>2010-01-01T19:07:17Z</time>
      </trkpt>
      <trkpt lat="44.826940" lon="2.726050">
        <ele>598.52</ele>
        <time>2010-01-01T19:07:25Z</time>
      </trkpt>
      <trkpt lat="44.826840" lon="2.726220">
        <ele>598.54</ele>
        <time>2010-01-01T19:07:41Z</time>
      </trkpt>
      <trkpt lat="44.826500" lon="2.726450">
        <ele>608.50</ele>
        <time>2010-01-01T19:08:23Z</time>
      </trkpt>
      <trkpt lat="44.826190" lon="2.726770">
        <ele>613.37</ele>
        <time>2010-01-01T19:09:41Z</time>
      </trkpt>
      <trkpt lat="44.826100" lon="2.726950">
        <ele>614.54</ele>
        <time>2010-01-01T19:11:18Z</time>
      </trkpt>
      <trkpt lat="44.826010" lon="2.727400">
        <ele>616.04</ele>
        <time>2010-01-01T19:11:38Z</time>
      </trkpt>
      <trkpt lat="44.825270" lon="2.727990">
        <ele>617.37</ele>
        <time>2010-01-01T19:12:28Z</time>
      </trkpt>
      <trkpt lat="44.824970" lon="2.728380">
        <ele>618.47</ele>
        <time>2010-01-01T19:12:49Z</time>
      </trkpt>
      <trkpt lat="44.824750" lon="2.728510">
        <ele>622.264648</ele>
        <time>2010-01-01T19:13:03Z</time>
      </trkpt>
      <trkpt lat="44.824530" lon="2.728720">
        <ele>625.42</ele>
        <time>2010-01-01T19:13:18Z</time>
      </trkpt>
      <trkpt lat="44.824500" lon="2.728990">
        <ele>625.42</ele>
        <time>2010-01-01T19:13:30Z</time>
      </trkpt>
      <trkpt lat="44.824414" lon="2.729291">
        <ele>625.42</ele>
        <time>2010-01-01T19:13:40Z</time>
      </trkpt>
      <trkpt lat="44.824446" lon="2.729480">
        <ele>624.42</ele>
        <time>2010-01-01T19:13:52Z</time>
      </trkpt>
      <trkpt lat="44.824650" lon="2.729750">
        <ele>622.15</ele>
        <time>2010-01-01T19:14:07Z</time>
      </trkpt>
      <trkpt lat="44.824700" lon="2.729880">
        <ele>619.15</ele>
        <time>2010-01-01T19:14:27Z</time>
      </trkpt>
      <trkpt lat="44.824730" lon="2.730190">
        <ele>619.15</ele>
        <time>2010-01-01T19:14:50Z</time>
      </trkpt>
      <trkpt lat="44.824639" lon="2.730666">
        <ele>626.77</ele>
        <time>2010-01-01T19:15:12Z</time>
      </trkpt>
      <trkpt lat="44.824662" lon="2.730991">
        <ele>627.70</ele>
        <time>2010-01-01T19:16:36Z</time>
      </trkpt>
      <trkpt lat="44.824585" lon="2.731135">
        <ele>627.554810</ele>
        <time>2010-01-01T19:16:51Z</time>
      </trkpt>
      <trkpt lat="44.824450" lon="2.731290">
        <ele>630.70</ele>
        <time>2010-01-01T19:17:05Z</time>
      </trkpt>
      <trkpt lat="44.824400" lon="2.731440">
        <ele>630.70</ele>
        <time>2010-01-01T19:17:19Z</time>
      </trkpt>
      <trkpt lat="44.824522" lon="2.731643">
        <ele>630.70</ele>
        <time>2010-01-01T19:17:54Z</time>
      </trkpt>
      <trkpt lat="44.824610" lon="2.731840">
        <ele>628.15</ele>
        <time>2010-01-01T19:18:15Z</time>
      </trkpt>
      <trkpt lat="44.824780" lon="2.732360">
        <ele>628.15</ele>
        <time>2010-01-01T19:18:27Z</time>
      </trkpt>
      <trkpt lat="44.824860" lon="2.732990">
        <ele>628.15</ele>
        <time>2010-01-01T19:18:35Z</time>
      </trkpt>
      <trkpt lat="44.824810" lon="2.733160">
        <ele>628.925232</ele>
        <time>2010-01-01T19:18:43Z</time>
      </trkpt>
      <trkpt lat="44.824700" lon="2.733180">
        <ele>636.63</ele>
        <time>2010-01-01T19:18:55Z</time>
      </trkpt>
      <trkpt lat="44.824626" lon="2.732991">
        <ele>637.38</ele>
        <time>2010-01-01T19:19:17Z</time>
      </trkpt>
      <trkpt lat="44.824710" lon="2.732490">
        <ele>637.66</ele>
        <time>2010-01-01T19:19:25Z</time>
      </trkpt>
      <trkpt lat="44.824690" lon="2.732280">
        <ele>637.94</ele>
        <time>2010-01-01T19:19:43Z</time>
      </trkpt>
      <trkpt lat="44.824510" lon="2.731840">
        <ele>639.47</ele>
        <time>2010-01-01T19:20:25Z</time>
      </trkpt>
      <trkpt lat="44.824255" lon="2.731623">
        <ele>641.23</ele>
        <time>2010-01-01T19:21:20Z</time>
      </trkpt>
      <trkpt lat="44.824228" lon="2.731447">
        <ele>641.49</ele>
        <time>2010-01-01T19:21:52Z</time>
      </trkpt>
      <trkpt lat="44.824412" lon="2.731044">
        <ele>642.01</ele>
        <time>2010-01-01T19:22:04Z</time>
      </trkpt>
      <trkpt lat="44.824345" lon="2.730555">
        <ele>644.57</ele>
        <time>2010-01-01T19:22:32Z</time>
      </trkpt>
      <trkpt lat="44.824349" lon="2.730301">
        <ele>646.287903</ele>
        <time>2010-01-01T19:23:01Z</time>
      </trkpt>
      <trkpt lat="44.824286" lon="2.730132">
        <ele>647.410645</ele>
        <time>2010-01-01T19:23:08Z</time>
      </trkpt>
      <trkpt lat="44.824120" lon="2.730030">
        <ele>654.650391</ele>
        <time>2010-01-01T19:23:25Z</time>
      </trkpt>
      <trkpt lat="44.824030" lon="2.729860">
        <ele>656.507324</ele>
        <time>2010-01-01T19:23:41Z</time>
      </trkpt>
      <trkpt lat="44.823860" lon="2.729210">
        <ele>660.19</ele>
        <time>2010-01-01T19:23:51Z</time>
      </trkpt>
      <trkpt lat="44.823950" lon="2.728730">
        <ele>663.65</ele>
        <time>2010-01-01T19:23:58Z</time>
      </trkpt>
      <trkpt lat="44.823800" lon="2.728160">
        <ele>667.180176</ele>
        <time>2010-01-01T19:24:09Z</time>
      </trkpt>
      <trkpt lat="44.823891" lon="2.727917">
        <ele>667.62</ele>
        <time>2010-01-01T19:24:33Z</time>
      </trkpt>
      <trkpt lat="44.824296" lon="2.727709">
        <ele>666.550476</ele>
        <time>2010-01-01T19:25:03Z</time>
      </trkpt>
      <trkpt lat="44.824408" lon="2.727604">
        <ele>665.843384</ele>
        <time>2010-01-01T19:25:11Z</time>
      </trkpt>
      <trkpt lat="44.824480" lon="2.727396">
        <ele>668.989929</ele>
        <time>2010-01-01T19:25:36Z</time>
      </trkpt>
      <trkpt lat="44.824570" lon="2.726953">
        <ele>676.027710</ele>
        <time>2010-01-01T19:26:14Z</time>
      </trkpt>
      <trkpt lat="44.824978" lon="2.726406">
        <ele>677.040405</ele>
        <time>2010-01-01T19:26:40Z</time>
      </trkpt>
      <trkpt lat="44.825037" lon="2.726224">
        <ele>677.002380</ele>
        <time>2010-01-01T19:26:46Z</time>
      </trkpt>
      <trkpt lat="44.825050" lon="2.726035">
        <ele>677.776794</ele>
        <time>2010-01-01T19:27:00Z</time>
      </trkpt>
      <trkpt lat="44.824983" lon="2.725846">
        <ele>680.39</ele>
        <time>2010-01-01T19:27:20Z</time>
      </trkpt>
      <trkpt lat="44.824812" lon="2.725729">
        <ele>680.61</ele>
        <time>2010-01-01T19:27:26Z</time>
      </trkpt>
      <trkpt lat="44.824350" lon="2.725740">
        <ele>685.790649</ele>
        <time>2010-01-01T19:27:45Z</time>
      </trkpt>
      <trkpt lat="44.823080" lon="2.725320">
        <ele>694.388672</ele>
        <time>2010-01-01T19:27:51Z</time>
      </trkpt>
      <trkpt lat="44.822710" lon="2.725270">
        <ele>696.794373</ele>
        <time>2010-01-01T19:29:25Z</time>
      </trkpt>
      <trkpt lat="44.822380" lon="2.725340">
        <ele>704.30</ele>
        <time>2010-01-01T19:29:30Z</time>
      </trkpt>
      <trkpt lat="44.822210" lon="2.725290">
        <ele>707.81</ele>
        <time>2010-01-01T19:29:34Z</time>
      </trkpt>
      <trkpt lat="44.822130" lon="2.725210">
        <ele>708.76</ele>
        <time>2010-01-01T19:30:49Z</time>
      </trkpt>
      <trkpt lat="44.822060" lon="2.725000">
        <ele>707.81</ele>
        <time>2010-01-01T19:31:04Z</time>
      </trkpt>
      <trkpt lat="44.822110" lon="2.724380">
        <ele>707.81</ele>
        <time>2010-01-01T19:31:10Z</time>
      </trkpt>
      <trkpt lat="44.822080" lon="2.724220">
        <ele>707.81</ele>
        <time>2010-01-01T19:31:17Z</time>
      </trkpt>
      <trkpt lat="44.822016" lon="2.724113">
        <ele>707.81</ele>
        <time>2010-01-01T19:31:34Z</time>
      </trkpt>
      <trkpt lat="44.821912" lon="2.724120">
        <ele>708.81</ele>
        <time>2010-01-01T19:31:43Z</time>
      </trkpt>
      <trkpt lat="44.821860" lon="2.724370">
        <ele>709.07</ele>
        <time>2010-01-01T19:31:57Z</time>
      </trkpt>
      <trkpt lat="44.821910" lon="2.725200">
        <ele>716.30</ele>
        <time>2010-01-01T19:32:09Z</time>
      </trkpt>
      <trkpt lat="44.821970" lon="2.725450">
        <ele>716.30</ele>
        <time>2010-01-01T19:32:16Z</time>
      </trkpt>
      <trkpt lat="44.822170" lon="2.725770">
        <ele>716.30</ele>
        <time>2010-01-01T19:32:21Z</time>
      </trkpt>
      <trkpt lat="44.822540" lon="2.725910">
        <ele>716.30</ele>
        <time>2010-01-01T19:32:25Z</time>
      </trkpt>
      <trkpt lat="44.822620" lon="2.725990">
        <ele>716.30</ele>
        <time>2010-01-01T19:32:40Z</time>
      </trkpt>
      <trkpt lat="44.822752" lon="2.726543">
        <ele>719.91</ele>
        <time>2010-01-01T19:33:24Z</time>
      </trkpt>
      <trkpt lat="44.822717" lon="2.726875">
        <ele>722.609314</ele>
        <time>2010-01-01T19:33:59Z</time>
      </trkpt>
      <trkpt lat="44.822591" lon="2.727468">
        <ele>728.01</ele>
        <time>2010-01-01T19:34:18Z</time>
      </trkpt>
      <trkpt lat="44.822609" lon="2.728008">
        <ele>728.01</ele>
        <time>2010-01-01T19:34:27Z</time>
      </trkpt>
      <trkpt lat="44.822506" lon="2.728464">
        <ele>728.11</ele>
        <time>2010-01-01T19:34:48Z</time>
      </trkpt>
      <trkpt lat="44.822160" lon="2.729440">
        <ele>728.77</ele>
        <time>2010-01-01T19:34:59Z</time>
      </trkpt>
      <trkpt lat="44.822140" lon="2.729680">
        <ele>728.97</ele>
        <time>2010-01-01T19:35:08Z</time>
      </trkpt>
      <trkpt lat="44.822280" lon="2.730120">
        <ele>729.134766</ele>
        <time>2010-01-01T19:35:47Z</time>
      </trkpt>
      <trkpt lat="44.822260" lon="2.730310">
        <ele>730.794067</ele>
        <time>2010-01-01T19:35:55Z</time>
      </trkpt>
      <trkpt lat="44.821920" lon="2.730830">
        <ele>741.315063</ele>
        <time>2010-01-01T19:36:40Z</time>
      </trkpt>
      <trkpt lat="44.821829" lon="2.731135">
        <ele>741.41</ele>
        <time>2010-01-01T19:36:55Z</time>
      </trkpt>
      <trkpt lat="44.821775" lon="2.731506">
        <ele>741.41</ele>
        <time>2010-01-01T19:37:04Z</time>
      </trkpt>
      <trkpt lat="44.821710" lon="2.731680">
        <ele>742.41</ele>
        <time>2010-01-01T19:37:20Z</time>
      </trkpt>
      <trkpt lat="44.821339" lon="2.732040">
        <ele>743.85</ele>
        <time>2010-01-01T19:37:49Z</time>
      </trkpt>
      <trkpt lat="44.820962" lon="2.732183">
        <ele>747.41</ele>
        <time>2010-01-01T19:38:32Z</time>
      </trkpt>
      <trkpt lat="44.820570" lon="2.732190">
        <ele>750.905029</ele>
        <time>2010-01-01T19:38:56Z</time>
      </trkpt>
      <trkpt lat="44.820210" lon="2.732110">
        <ele>751.995850</ele>
        <time>2010-01-01T19:39:05Z</time>
      </trkpt>
      <trkpt lat="44.820100" lon="2.732040">
        <ele>752.77</ele>
        <time>2010-01-01T19:39:14Z</time>
      </trkpt>
      <trkpt lat="44.819710" lon="2.731120">
        <ele>758.498779</ele>
        <time>2010-01-01T19:39:27Z</time>
      </trkpt>
      <trkpt lat="44.819640" lon="2.730810">
        <ele>759.390015</ele>
        <time>2010-01-01T19:39:37Z</time>
      </trkpt>
      <trkpt lat="44.819550" lon="2.729960">
        <ele>761.123779</ele>
        <time>2010-01-01T19:39:46Z</time>
      </trkpt>
      <trkpt lat="44.819590" lon="2.729260">
        <ele>762.847229</ele>
        <time>2010-01-01T19:39:55Z</time>
      </trkpt>
      <trkpt lat="44.819496" lon="2.728516">
        <ele>764.976257</ele>
        <time>2010-01-01T19:40:12Z</time>
      </trkpt>
      <trkpt lat="44.819510" lon="2.727960">
        <ele>767.425720</ele>
        <time>2010-01-01T19:40:43Z</time>
      </trkpt>
      <trkpt lat="44.819290" lon="2.727330">
        <ele>768.900024</ele>
        <time>2010-01-01T19:40:51Z</time>
      </trkpt>
      <trkpt lat="44.819159" lon="2.726888">
        <ele>770.006897</ele>
        <time>2010-01-01T19:41:02Z</time>
      </trkpt>
      <trkpt lat="44.818980" lon="2.726590">
        <ele>770.308350</ele>
        <time>2010-01-01T19:41:09Z</time>
      </trkpt>
      <trkpt lat="44.818730" lon="2.726550">
        <ele>770.769531</ele>
        <time>2010-01-01T19:41:34Z</time>
      </trkpt>
      <trkpt lat="44.818463" lon="2.726588">
        <ele>772.703918</ele>
        <time>2010-01-01T19:41:42Z</time>
      </trkpt>
      <trkpt lat="44.817964" lon="2.727005">
        <ele>775.690369</ele>
        <time>2010-01-01T19:42:05Z</time>
      </trkpt>
      <trkpt lat="44.817470" lon="2.727340">
        <ele>778.005005</ele>
        <time>2010-01-01T19:42:11Z</time>
      </trkpt>
      <trkpt lat="44.817070" lon="2.727680">
        <ele>779.187500</ele>
        <time>2010-01-01T19:42:19Z</time>
      </trkpt>
      <trkpt lat="44.816460" lon="2.728060">
        <ele>781.248230</ele>
        <time>2010-01-01T19:42:34Z</time>
      </trkpt>
      <trkpt lat="44.816330" lon="2.728190">
        <ele>781.99</ele>
        <time>2010-01-01T19:43:24Z</time>
      </trkpt>
      <trkpt lat="44.816220" lon="2.728390">
        <ele>781.122314</ele>
        <time>2010-01-01T19:43:30Z</time>
      </trkpt>
      <trkpt lat="44.816150" lon="2.728890">
        <ele>781.142639</ele>
        <time>2010-01-01T19:43:49Z</time>
      </trkpt>
      <trkpt lat="44.816240" lon="2.730080">
        <ele>784.98</ele>
        <time>2010-01-01T19:44:05Z</time>
      </trkpt>
      <trkpt lat="44.816189" lon="2.730451">
        <ele>784.82</ele>
        <time>2010-01-01T19:44:27Z</time>
      </trkpt>
      <trkpt lat="44.815400" lon="2.732600">
        <ele>782.285034</ele>
        <time>2010-01-01T19:44:44Z</time>
      </trkpt>
      <trkpt lat="44.815130" lon="2.733590">
        <ele>780.28</ele>
        <time>2010-01-01T19:44:55Z</time>
      </trkpt>
      <trkpt lat="44.815020" lon="2.734370">
        <ele>780.892517</ele>
        <time>2010-01-01T19:45:08Z</time>
      </trkpt>
      <trkpt lat="44.814760" lon="2.734960">
        <ele>777.612488</ele>
        <time>2010-01-01T19:45:27Z</time>
      </trkpt>
      <trkpt lat="44.814680" lon="2.735300">
        <ele>776.406006</ele>
        <time>2010-01-01T19:45:34Z</time>
      </trkpt>
      <trkpt lat="44.814690" lon="2.735590">
        <ele>775.618958</ele>
        <time>2010-01-01T19:45:44Z</time>
      </trkpt>
      <trkpt lat="44.814820" lon="2.736050">
        <ele>775.042480</ele>
        <time>2010-01-01T19:45:57Z</time>
      </trkpt>
      <trkpt lat="44.814930" lon="2.736270">
        <ele>774.443665</ele>
        <time>2010-01-01T19:46:16Z</time>
      </trkpt>
      <trkpt lat="44.815240" lon="2.736650">
        <ele>774.462463</ele>
        <time>2010-01-01T19:46:30Z</time>
      </trkpt>
      <trkpt lat="44.815330" lon="2.736930">
        <ele>773.262512</ele>
      </trkpt>
      <trkpt lat="44.815280" lon="2.737390">
        <ele>771.385864</ele>
      </trkpt>
      <trkpt lat="44.815210" lon="2.737590">
        <ele>770.904236</ele>
      </trkpt>
      <trkpt lat="44.814840" lon="2.738210">
        <ele>770.152527</ele>
      </trkpt>
      <trkpt lat="44.814710" lon="2.738350">
        <ele>769.604980</ele>
      </trkpt>
      <trkpt lat="44.814290" lon="2.738520">
        <ele>766.412048</ele>
      </trkpt>
      <trkpt lat="44.813640" lon="2.738640">
        <ele>761.997253</ele>
      </trkpt>
      <trkpt lat="44.813540" lon="2.738700">
        <ele>761.960754</ele>
      </trkpt>
      <trkpt lat="44.813050" lon="2.739360">
        <ele>760.777405</ele>
      </trkpt>
      <trkpt lat="44.812895" lon="2.739446">
        <ele>759.36</ele>
      </trkpt>
      <trkpt lat="44.812451" lon="2.739544">
        <ele>759.36</ele>
      </trkpt>
      <trkpt lat="44.812290" lon="2.739710">
        <ele>759.36</ele>
      </trkpt>
      <trkpt lat="44.812120" lon="2.740090">
        <ele>762.01</ele>
      </trkpt>
      <trkpt lat="44.811830" lon="2.740960">
        <ele>763.29</ele>
      </trkpt>
      <trkpt lat="44.811760" lon="2.741770">
        <ele>763.29</ele>
      </trkpt>
      <trkpt lat="44.811660" lon="2.742030">
        <ele>763.648499</ele>
      </trkpt>
      <trkpt lat="44.811443" lon="2.742299">
        <ele>765.02</ele>
      </trkpt>
      <trkpt lat="44.811142" lon="2.742637">
        <ele>767.154968</ele>
      </trkpt>
      <trkpt lat="44.810600" lon="2.744100">
        <ele>770.521790</ele>
      </trkpt>
      <trkpt lat="44.810150" lon="2.744980">
        <ele>772.174988</ele>
      </trkpt>
      <trkpt lat="44.809910" lon="2.745350">
        <ele>773.632507</ele>
      </trkpt>
      <trkpt lat="44.809440" lon="2.745930">
        <ele>775.955017</ele>
      </trkpt>
      <trkpt lat="44.809210" lon="2.746330">
        <ele>776.714966</ele>
      </trkpt>
      <trkpt lat="44.809060" lon="2.746710">
        <ele>777.701782</ele>
      </trkpt>
      <trkpt lat="44.809020" lon="2.747070">
        <ele>778.380554</ele>
      </trkpt>
      <trkpt lat="44.809240" lon="2.748890">
        <ele>779.659119</ele>
      </trkpt>
      <trkpt lat="44.809190" lon="2.750190">
        <ele>783.035583</ele>
      </trkpt>
      <trkpt lat="44.809130" lon="2.750460">
        <ele>783.516235</ele>
      </trkpt>
      <trkpt lat="44.808750" lon="2.751120">
        <ele>786.662537</ele>
      </trkpt>
      <trkpt lat="44.808520" lon="2.751890">
        <ele>787.35</ele>
      </trkpt>
      <trkpt lat="44.808160" lon="2.752570">
        <ele>787.575012</ele>
      </trkpt>
      <trkpt lat="44.807930" lon="2.752800">
        <ele>789.164978</ele>
      </trkpt>
      <trkpt lat="44.807630" lon="2.752940">
        <ele>791.962036</ele>
      </trkpt>
      <trkpt lat="44.807420" lon="2.753150">
        <ele>792.767883</ele>
      </trkpt>
      <trkpt lat="44.806800" lon="2.754220">
        <ele>794.965027</ele>
      </trkpt>
      <trkpt lat="44.806560" lon="2.754500">
        <ele>794.951782</ele>
      </trkpt>
      <trkpt lat="44.806260" lon="2.754650">
        <ele>794.854065</ele>
      </trkpt>
      <trkpt lat="44.805850" lon="2.754700">
        <ele>797.236267</ele>
      </trkpt>
      <trkpt lat="44.804850" lon="2.755040">
        <ele>801.306763</ele>
      </trkpt>
      <trkpt lat="44.804560" lon="2.755040">
        <ele>801.924377</ele>
      </trkpt>
      <trkpt lat="44.804130" lon="2.754890">
        <ele>803.205017</ele>
      </trkpt>
      <trkpt lat="44.803890" lon="2.754860">
        <ele>805.072510</ele>
      </trkpt>
      <trkpt lat="44.803790" lon="2.754920">
        <ele>805.162476</ele>
      </trkpt>
      <trkpt lat="44.803410" lon="2.755660">
        <ele>806.187500</ele>
      </trkpt>
      <trkpt lat="44.803160" lon="2.755980">
        <ele>805.602661</ele>
      </trkpt>
      <trkpt lat="44.802450" lon="2.756210">
        <ele>810.81</ele>
      </trkpt>
      <trkpt lat="44.802420" lon="2.756330">
        <ele>810.81</ele>
      </trkpt>
      <trkpt lat="44.802510" lon="2.756640">
        <ele>810.242493</ele>
      </trkpt>
      <trkpt lat="44.803020" lon="2.757620">
        <ele>808.62</ele>
      </trkpt>
      <trkpt lat="44.803080" lon="2.757890">
        <ele>808.62</ele>
      </trkpt>
      <trkpt lat="44.803080" lon="2.758180">
        <ele>808.34</ele>
      </trkpt>
      <trkpt lat="44.802980" lon="2.758850">
        <ele>805.64</ele>
      </trkpt>
      <trkpt lat="44.802930" lon="2.759640">
        <ele>801.16</ele>
      </trkpt>
      <trkpt lat="44.802638" lon="2.761676">
        <ele>796.53</ele>
      </trkpt>
      <trkpt lat="44.802070" lon="2.763150">
        <ele>796.613770</ele>
      </trkpt>
      <trkpt lat="44.801950" lon="2.762460">
        <ele>795.254395</ele>
      </trkpt>
      <trkpt lat="44.801880" lon="2.762300">
        <ele>795.159973</ele>
      </trkpt>
      <trkpt lat="44.801460" lon="2.761730">
        <ele>796.195007</ele>
      </trkpt>
      <trkpt lat="44.801040" lon="2.761260">
        <ele>798.693542</ele>
      </trkpt>
      <trkpt lat="44.800990" lon="2.761110">
        <ele>799.150146</ele>
      </trkpt>
      <trkpt lat="44.800970" lon="2.760440">
        <ele>800.89</ele>
      </trkpt>
      <trkpt lat="44.801020" lon="2.759870">
        <ele>802.52</ele>
      </trkpt>
      <trkpt lat="44.798550" lon="2.760320">
        <ele>802.00</ele>
      </trkpt>
      <trkpt lat="44.798060" lon="2.760620">
        <ele>801.84</ele>
      </trkpt>
      <trkpt lat="44.797920" lon="2.760630">
        <ele>801.79</ele>
      </trkpt>
      <trkpt lat="44.796960" lon="2.760230">
        <ele>801.051819</ele>
      </trkpt>
      <trkpt lat="44.796780" lon="2.760100">
        <ele>801.274536</ele>
      </trkpt>
      <trkpt lat="44.796180" lon="2.759470">
        <ele>803.931152</ele>
      </trkpt>
      <trkpt lat="44.795910" lon="2.759330">
        <ele>805.759827</ele>
      </trkpt>
      <trkpt lat="44.794440" lon="2.759350">
        <ele>804.092651</ele>
      </trkpt>
      <trkpt lat="44.793930" lon="2.759460">
        <ele>804.832336</ele>
      </trkpt>
      <trkpt lat="44.791060" lon="2.760840">
        <ele>809.717590</ele>
      </trkpt>
      <trkpt lat="44.789780" lon="2.761900">
        <ele>811.73</ele>
      </trkpt>
      <trkpt lat="44.789620" lon="2.762080">
        <ele>811.66</ele>
      </trkpt>
      <trkpt lat="44.789120" lon="2.762890">
        <ele>811.80</ele>
      </trkpt>
      <trkpt lat="44.788910" lon="2.763130">
        <ele>811.630615</ele>
      </trkpt>
      <trkpt lat="44.788570" lon="2.763330">
        <ele>813.937317</ele>
      </trkpt>
      <trkpt lat="44.787530" lon="2.763590">
        <ele>815.32</ele>
      </trkpt>
      <trkpt lat="44.787320" lon="2.763690">
        <ele>817.741943</ele>
      </trkpt>
      <trkpt lat="44.786900" lon="2.764090">
        <ele>817.436096</ele>
      </trkpt>
      <trkpt lat="44.786340" lon="2.764900">
        <ele>819.291626</ele>
      </trkpt>
      <trkpt lat="44.785970" lon="2.765410">
        <ele>821.297485</ele>
      </trkpt>
      <trkpt lat="44.785720" lon="2.765660">
        <ele>822.066528</ele>
      </trkpt>
      <trkpt lat="44.785500" lon="2.765780">
        <ele>822.299133</ele>
      </trkpt>
      <trkpt lat="44.785200" lon="2.765840">
        <ele>822.974121</ele>
      </trkpt>
      <trkpt lat="44.784910" lon="2.765780">
        <ele>824.338501</ele>
      </trkpt>
      <trkpt lat="44.784710" lon="2.765670">
        <ele>824.912476</ele>
      </trkpt>
      <trkpt lat="44.783570" lon="2.764680">
        <ele>827.171692</ele>
      </trkpt>
      <trkpt lat="44.783320" lon="2.764600">
        <ele>828.56</ele>
      </trkpt>
      <trkpt lat="44.783070" lon="2.764600">
        <ele>830.284180</ele>
      </trkpt>
      <trkpt lat="44.782500" lon="2.764800">
        <ele>833.457764</ele>
      </trkpt>
      <trkpt lat="44.782050" lon="2.765020">
        <ele>833.308167</ele>
      </trkpt>
      <trkpt lat="44.781690" lon="2.765380">
        <ele>834.88</ele>
      </trkpt>
      <trkpt lat="44.781250" lon="2.765980">
        <ele>836.695007</ele>
      </trkpt>
      <trkpt lat="44.780930" lon="2.766240">
        <ele>837.887451</ele>
      </trkpt>
      <trkpt lat="44.780690" lon="2.766300">
        <ele>838.316895</ele>
      </trkpt>
      <trkpt lat="44.780420" lon="2.766290">
        <ele>838.048462</ele>
      </trkpt>
      <trkpt lat="44.779480" lon="2.766100">
        <ele>838.809875</ele>
      </trkpt>
      <trkpt lat="44.779070" lon="2.765920">
        <ele>841.070007</ele>
      </trkpt>
      <trkpt lat="44.778910" lon="2.765790">
        <ele>842.423035</ele>
      </trkpt>
      <trkpt lat="44.778600" lon="2.765350">
        <ele>845.687012</ele>
      </trkpt>
      <trkpt lat="44.778450" lon="2.764920">
        <ele>847.432983</ele>
      </trkpt>
      <trkpt lat="44.778260" lon="2.763560">
        <ele>848.18</ele>
      </trkpt>
      <trkpt lat="44.778090" lon="2.763060">
        <ele>848.863525</ele>
      </trkpt>
      <trkpt lat="44.777870" lon="2.762780">
        <ele>848.759338</ele>
      </trkpt>
      <trkpt lat="44.777680" lon="2.762650">
        <ele>848.664856</ele>
      </trkpt>
      <trkpt lat="44.777420" lon="2.762560">
        <ele>852.78</ele>
      </trkpt>
      <trkpt lat="44.777120" lon="2.762570">
        <ele>856.404358</ele>
      </trkpt>
      <trkpt lat="44.776601" lon="2.762738">
        <ele>858.120667</ele>
      </trkpt>
      <trkpt lat="44.776170" lon="2.763135">
        <ele>858.527771</ele>
      </trkpt>
      <trkpt lat="44.775760" lon="2.763860">
        <ele>859.18</ele>
      </trkpt>
      <trkpt lat="44.775460" lon="2.764470">
        <ele>860.899963</ele>
      </trkpt>
      <trkpt lat="44.775200" lon="2.765130">
        <ele>863.046509</ele>
      </trkpt>
      <trkpt lat="44.774690" lon="2.767160">
        <ele>866.883606</ele>
      </trkpt>
      <trkpt lat="44.774510" lon="2.767680">
        <ele>868.059265</ele>
      </trkpt>
      <trkpt lat="44.774330" lon="2.768060">
        <ele>869.766663</ele>
      </trkpt>
      <trkpt lat="44.774190" lon="2.768250">
        <ele>870.962402</ele>
      </trkpt>
      <trkpt lat="44.773830" lon="2.768550">
        <ele>872.493164</ele>
      </trkpt>
      <trkpt lat="44.772820" lon="2.768860">
        <ele>875.200012</ele>
      </trkpt>
      <trkpt lat="44.770990" lon="2.769820">
        <ele>882.275391</ele>
      </trkpt>
      <trkpt lat="44.769086" lon="2.770587">
        <ele>886.80</ele>
      </trkpt>
      <trkpt lat="44.768650" lon="2.770720">
        <ele>887.859070</ele>
      </trkpt>
      <trkpt lat="44.768160" lon="2.770750">
        <ele>889.377869</ele>
      </trkpt>
      <trkpt lat="44.766910" lon="2.770670">
        <ele>891.888794</ele>
      </trkpt>
      <trkpt lat="44.766390" lon="2.770510">
        <ele>893.671509</ele>
      </trkpt>
      <trkpt lat="44.766080" lon="2.770280">
        <ele>896.046021</ele>
      </trkpt>
      <trkpt lat="44.765780" lon="2.769970">
        <ele>897.973511</ele>
      </trkpt>
      <trkpt lat="44.765530" lon="2.769730">
        <ele>899.101440</ele>
      </trkpt>
      <trkpt lat="44.765300" lon="2.769600">
        <ele>900.416260</ele>
      </trkpt>
      <trkpt lat="44.765000" lon="2.769560">
        <ele>901.684998</ele>
      </trkpt>
      <trkpt lat="44.764640" lon="2.769640">
        <ele>904.234985</ele>
      </trkpt>
      <trkpt lat="44.764180" lon="2.769960">
        <ele>905.21</ele>
      </trkpt>
      <trkpt lat="44.763750" lon="2.770500">
        <ele>906.72</ele>
      </trkpt>
      <trkpt lat="44.763320" lon="2.770950">
        <ele>906.29</ele>
      </trkpt>
      <trkpt lat="44.761520" lon="2.772520">
        <ele>909.03</ele>
      </trkpt>
      <trkpt lat="44.761180" lon="2.772660">
        <ele>909.71</ele>
      </trkpt>
      <trkpt lat="44.760810" lon="2.772710">
        <ele>909.95</ele>
      </trkpt>
      <trkpt lat="44.760470" lon="2.772700">
        <ele>910.05</ele>
      </trkpt>
      <trkpt lat="44.759610" lon="2.772550">
        <ele>910.42</ele>
      </trkpt>
      <trkpt lat="44.759090" lon="2.772690">
        <ele>910.21</ele>
      </trkpt>
      <trkpt lat="44.758830" lon="2.772920">
        <ele>910.20</ele>
      </trkpt>
      <trkpt lat="44.758690" lon="2.773110">
        <ele>910.04</ele>
      </trkpt>
      <trkpt lat="44.758590" lon="2.773340">
        <ele>910.08</ele>
      </trkpt>
      <trkpt lat="44.758530" lon="2.773780">
        <ele>911.09</ele>
      </trkpt>
      <trkpt lat="44.758580" lon="2.774550">
        <ele>911.35</ele>
      </trkpt>
      <trkpt lat="44.758520" lon="2.774790">
        <ele>911.95</ele>
      </trkpt>
      <trkpt lat="44.758270" lon="2.775350">
        <ele>911.36</ele>
      </trkpt>
      <trkpt lat="44.757560" lon="2.776400">
        <ele>913.03</ele>
      </trkpt>
      <trkpt lat="44.756360" lon="2.777370">
        <ele>915.34</ele>
      </trkpt>
      <trkpt lat="44.755730" lon="2.778060">
        <ele>916.26</ele>
      </trkpt>
      <trkpt lat="44.755580" lon="2.778420">
        <ele>916.19</ele>
      </trkpt>
      <trkpt lat="44.755410" lon="2.779390">
        <ele>915.34</ele>
      </trkpt>
      <trkpt lat="44.754950" lon="2.780170">
        <ele>914.12</ele>
      </trkpt>
      <trkpt lat="44.754790" lon="2.780300">
        <ele>914.97</ele>
      </trkpt>
      <trkpt lat="44.754400" lon="2.780430">
        <ele>914.04</ele>
      </trkpt>
      <trkpt lat="44.754000" lon="2.780460">
        <ele>913.15</ele>
      </trkpt>
      <trkpt lat="44.753740" lon="2.780420">
        <ele>911.40</ele>
      </trkpt>
      <trkpt lat="44.753560" lon="2.780480">
        <ele>911.40</ele>
      </trkpt>
      <trkpt lat="44.753400" lon="2.780760">
        <ele>911.40</ele>
      </trkpt>
      <trkpt lat="44.753170" lon="2.781570">
        <ele>912.64</ele>
      </trkpt>
      <trkpt lat="44.752690" lon="2.782350">
        <ele>912.35</ele>
      </trkpt>
      <trkpt lat="44.752520" lon="2.782490">
        <ele>911.19</ele>
      </trkpt>
      <trkpt lat="44.751940" lon="2.782810">
        <ele>909.01</ele>
      </trkpt>
      <trkpt lat="44.751150" lon="2.783580">
        <ele>907.11</ele>
      </trkpt>
      <trkpt lat="44.750540" lon="2.783890">
        <ele>904.21</ele>
      </trkpt>
      <trkpt lat="44.750420" lon="2.784010">
        <ele>903.73</ele>
      </trkpt>
      <trkpt lat="44.750220" lon="2.784400">
        <ele>902.36</ele>
      </trkpt>
      <trkpt lat="44.749980" lon="2.785020">
        <ele>902.36</ele>
      </trkpt>
      <trkpt lat="44.749980" lon="2.785260">
        <ele>902.36</ele>
      </trkpt>
      <trkpt lat="44.750170" lon="2.785860">
        <ele>903.79</ele>
      </trkpt>
      <trkpt lat="44.750190" lon="2.786080">
        <ele>903.03</ele>
      </trkpt>
      <trkpt lat="44.750094" lon="2.786721">
        <ele>903.03</ele>
      </trkpt>
      <trkpt lat="44.750085" lon="2.787072">
        <ele>902.88</ele>
      </trkpt>
      <trkpt lat="44.750453" lon="2.788531">
        <ele>904.213135</ele>
      </trkpt>
      <trkpt lat="44.750628" lon="2.788785">
        <ele>904.475464</ele>
      </trkpt>
      <trkpt lat="44.750800" lon="2.789000">
        <ele>904.334778</ele>
      </trkpt>
      <trkpt lat="44.750860" lon="2.789190">
        <ele>904.577881</ele>
      </trkpt>
      <trkpt lat="44.750860" lon="2.789320">
        <ele>904.631165</ele>
      </trkpt>
      <trkpt lat="44.750793" lon="2.789560">
        <ele>903.901672</ele>
      </trkpt>
      <trkpt lat="44.750470" lon="2.790264">
        <ele>903.38</ele>
      </trkpt>
      <trkpt lat="44.750295" lon="2.790980">
        <ele>903.38</ele>
      </trkpt>
      <trkpt lat="44.749980" lon="2.791650">
        <ele>902.390015</ele>
      </trkpt>
      <trkpt lat="44.749700" lon="2.791960">
        <ele>901.59</ele>
      </trkpt>
      <trkpt lat="44.749600" lon="2.792140">
        <ele>901.59</ele>
      </trkpt>
      <trkpt lat="44.749580" lon="2.792380">
        <ele>901.59</ele>
      </trkpt>
      <trkpt lat="44.749740" lon="2.792950">
        <ele>901.59</ele>
      </trkpt>
      <trkpt lat="44.749710" lon="2.793240">
        <ele>901.59</ele>
      </trkpt>
      <trkpt lat="44.749480" lon="2.793600">
        <ele>900.346008</ele>
      </trkpt>
      <trkpt lat="44.749240" lon="2.793880">
        <ele>900.187744</ele>
      </trkpt>
      <trkpt lat="44.749090" lon="2.794020">
        <ele>901.43</ele>
      </trkpt>
      <trkpt lat="44.748980" lon="2.794040">
        <ele>902.246460</ele>
      </trkpt>
      <trkpt lat="44.748870" lon="2.793990">
        <ele>902.598633</ele>
      </trkpt>
      <trkpt lat="44.748580" lon="2.793700">
        <ele>902.746521</ele>
      </trkpt>
      <trkpt lat="44.747570" lon="2.793070">
        <ele>905.362488</ele>
      </trkpt>
      <trkpt lat="44.746730" lon="2.793410">
        <ele>907.83</ele>
      </trkpt>
      <trkpt lat="44.746240" lon="2.793340">
        <ele>906.768738</ele>
      </trkpt>
      <trkpt lat="44.746020" lon="2.793400">
        <ele>906.824280</ele>
      </trkpt>
      <trkpt lat="44.745600" lon="2.793820">
        <ele>908.928772</ele>
      </trkpt>
      <trkpt lat="44.745320" lon="2.793820">
        <ele>910.184998</ele>
      </trkpt>
      <trkpt lat="44.745150" lon="2.793650">
        <ele>910.289978</ele>
      </trkpt>
      <trkpt lat="44.744580" lon="2.792520">
        <ele>910.942627</ele>
      </trkpt>
      <trkpt lat="44.744420" lon="2.792370">
        <ele>911.273438</ele>
      </trkpt>
      <trkpt lat="44.743320" lon="2.791990">
        <ele>912.562500</ele>
      </trkpt>
      <trkpt lat="44.742960" lon="2.791940">
        <ele>911.812500</ele>
      </trkpt>
      <trkpt lat="44.742720" lon="2.792010">
        <ele>911.169983</ele>
      </trkpt>
      <trkpt lat="44.742380" lon="2.792290">
        <ele>911.978760</ele>
      </trkpt>
      <trkpt lat="44.741880" lon="2.793040">
        <ele>912.79</ele>
      </trkpt>
      <trkpt lat="44.740840" lon="2.793410">
        <ele>912.15</ele>
      </trkpt>
      <trkpt lat="44.740240" lon="2.793490">
        <ele>911.806580</ele>
      </trkpt>
      <trkpt lat="44.740030" lon="2.793600">
        <ele>911.073730</ele>
      </trkpt>
      <trkpt lat="44.739840" lon="2.793770">
        <ele>911.456848</ele>
      </trkpt>
      <trkpt lat="44.739630" lon="2.794100">
        <ele>913.510864</ele>
      </trkpt>
      <trkpt lat="44.739520" lon="2.794400">
        <ele>916.865784</ele>
      </trkpt>
      <trkpt lat="44.739450" lon="2.794700">
        <ele>920.004761</ele>
      </trkpt>
      <trkpt lat="44.739440" lon="2.795020">
        <ele>921.658997</ele>
      </trkpt>
      <trkpt lat="44.739520" lon="2.795630">
        <ele>922.822937</ele>
      </trkpt>
      <trkpt lat="44.739970" lon="2.796500">
        <ele>924.79</ele>
      </trkpt>
      <trkpt lat="44.740060" lon="2.796740">
        <ele>924.96</ele>
      </trkpt>
      <trkpt lat="44.740110" lon="2.797130">
        <ele>924.96</ele>
      </trkpt>
      <trkpt lat="44.740050" lon="2.797370">
        <ele>924.96</ele>
      </trkpt>
      <trkpt lat="44.739680" lon="2.798070">
        <ele>925.048767</ele>
      </trkpt>
      <trkpt lat="44.739520" lon="2.798210">
        <ele>924.932495</ele>
      </trkpt>
      <trkpt lat="44.738950" lon="2.798460">
        <ele>924.13</ele>
      </trkpt>
      <trkpt lat="44.738840" lon="2.798550">
        <ele>924.13</ele>
      </trkpt>
      <trkpt lat="44.738670" lon="2.798740">
        <ele>924.13</ele>
      </trkpt>
      <trkpt lat="44.738470" lon="2.799160">
        <ele>924.13</ele>
      </trkpt>
      <trkpt lat="44.738080" lon="2.800830">
        <ele>925.056274</ele>
      </trkpt>
      <trkpt lat="44.738070" lon="2.801040">
        <ele>925.199280</ele>
      </trkpt>
      <trkpt lat="44.738160" lon="2.801710">
        <ele>927.257507</ele>
      </trkpt>
      <trkpt lat="44.738130" lon="2.802260">
        <ele>927.71</ele>
      </trkpt>
      <trkpt lat="44.737990" lon="2.803020">
        <ele>927.71</ele>
      </trkpt>
      <trkpt lat="44.738040" lon="2.803620">
        <ele>928.210876</ele>
      </trkpt>
      <trkpt lat="44.737990" lon="2.803980">
        <ele>928.295471</ele>
      </trkpt>
      <trkpt lat="44.737760" lon="2.804310">
        <ele>928.695007</ele>
      </trkpt>
      <trkpt lat="44.737290" lon="2.804440">
        <ele>928.21</ele>
      </trkpt>
      <trkpt lat="44.737130" lon="2.804540">
        <ele>928.21</ele>
      </trkpt>
      <trkpt lat="44.736940" lon="2.804800">
        <ele>928.21</ele>
      </trkpt>
      <trkpt lat="44.736750" lon="2.805160">
        <ele>929.659973</ele>
      </trkpt>
      <trkpt lat="44.736370" lon="2.805530">
        <ele>930.65</ele>
      </trkpt>
      <trkpt lat="44.736030" lon="2.805650">
        <ele>930.012512</ele>
      </trkpt>
      <trkpt lat="44.735535" lon="2.805811">
        <ele>928.230408</ele>
      </trkpt>
      <trkpt lat="44.735346" lon="2.805994">
        <ele>928.043335</ele>
      </trkpt>
      <trkpt lat="44.735203" lon="2.806215">
        <ele>928.113892</ele>
      </trkpt>
      <trkpt lat="44.735100" lon="2.806470">
        <ele>928.000000</ele>
      </trkpt>
      <trkpt lat="44.734790" lon="2.807400">
        <ele>928.000000</ele>
      </trkpt>
      <trkpt lat="44.734340" lon="2.808300">
        <ele>925.000000</ele>
      </trkpt>
      <trkpt lat="44.734290" lon="2.808560">
        <ele>925.00</ele>
      </trkpt>
      <trkpt lat="44.734330" lon="2.808740">
        <ele>925.00</ele>
      </trkpt>
      <trkpt lat="44.734490" lon="2.808880">
        <ele>925.00</ele>
      </trkpt>
      <trkpt lat="44.735015" lon="2.808931">
        <ele>927.000000</ele>
      </trkpt>
      <trkpt lat="44.735222" lon="2.809023">
        <ele>928.000000</ele>
      </trkpt>
      <trkpt lat="44.735438" lon="2.809264">
        <ele>928.000000</ele>
      </trkpt>
      <trkpt lat="44.735810" lon="2.809900">
        <ele>926.00</ele>
      </trkpt>
      <trkpt lat="44.736120" lon="2.810104">
        <ele>926.00</ele>
      </trkpt>
      <trkpt lat="44.736439" lon="2.810390">
        <ele>926.00</ele>
      </trkpt>
      <trkpt lat="44.737072" lon="2.810879">
        <ele>925.00</ele>
      </trkpt>
      <trkpt lat="44.737117" lon="2.810996">
        <ele>924.000000</ele>
      </trkpt>
      <trkpt lat="44.737110" lon="2.811190">
        <ele>924.00</ele>
      </trkpt>
      <trkpt lat="44.737030" lon="2.811410">
        <ele>925.000000</ele>
      </trkpt>
      <trkpt lat="44.736930" lon="2.811540">
        <ele>925.00</ele>
      </trkpt>
      <trkpt lat="44.735720" lon="2.812670">
        <ele>927.000000</ele>
      </trkpt>
      <trkpt lat="44.735520" lon="2.812790">
        <ele>927.00</ele>
      </trkpt>
      <trkpt lat="44.735180" lon="2.812730">
        <ele>927.00</ele>
      </trkpt>
      <trkpt lat="44.735026" lon="2.812768">
        <ele>927.00</ele>
      </trkpt>
      <trkpt lat="44.734850" lon="2.812870">
        <ele>927.00</ele>
      </trkpt>
      <trkpt lat="44.734700" lon="2.813130">
        <ele>927.000000</ele>
      </trkpt>
      <trkpt lat="44.734550" lon="2.813610">
        <ele>929.000000</ele>
      </trkpt>
      <trkpt lat="44.734380" lon="2.813800">
        <ele>930.000000</ele>
      </trkpt>
      <trkpt lat="44.734100" lon="2.813940">
        <ele>929.000000</ele>
      </trkpt>
      <trkpt lat="44.733640" lon="2.814000">
        <ele>928.00</ele>
      </trkpt>
      <trkpt lat="44.733225" lon="2.814357">
        <ele>928.00</ele>
      </trkpt>
      <trkpt lat="44.733090" lon="2.814410">
        <ele>928.00</ele>
      </trkpt>
      <trkpt lat="44.732973" lon="2.814429">
        <ele>928.00</ele>
      </trkpt>
      <trkpt lat="44.732860" lon="2.814340">
        <ele>928.00</ele>
      </trkpt>
      <trkpt lat="44.732776" lon="2.814266">
        <ele>928.00</ele>
      </trkpt>
      <trkpt lat="44.732713" lon="2.814057">
        <ele>928.00</ele>
      </trkpt>
      <trkpt lat="44.732600" lon="2.813840">
        <ele>928.000000</ele>
      </trkpt>
      <trkpt lat="44.732410" lon="2.813680">
        <ele>928.000000</ele>
      </trkpt>
      <trkpt lat="44.732448" lon="2.813706">
        <ele>928.00</ele>
      </trkpt>
      <trkpt lat="44.732116" lon="2.813641">
        <ele>929.000000</ele>
      </trkpt>
      <trkpt lat="44.731880" lon="2.813640">
        <ele>929.000000</ele>
      </trkpt>
      <trkpt lat="44.731500" lon="2.813820">
        <ele>931.000000</ele>
      </trkpt>
      <trkpt lat="44.731310" lon="2.813850">
        <ele>930.000000</ele>
      </trkpt>
      <trkpt lat="44.730750" lon="2.813840">
        <ele>927.000000</ele>
      </trkpt>
      <trkpt lat="44.730639" lon="2.813888">
        <ele>927.000000</ele>
      </trkpt>
      <trkpt lat="44.730473" lon="2.814005">
        <ele>927.000000</ele>
      </trkpt>
      <trkpt lat="44.730342" lon="2.814142">
        <ele>927.000000</ele>
      </trkpt>
      <trkpt lat="44.730176" lon="2.814520">
        <ele>929.000000</ele>
      </trkpt>
      <trkpt lat="44.730050" lon="2.814700">
        <ele>929.000000</ele>
      </trkpt>
      <trkpt lat="44.729750" lon="2.814990">
        <ele>929.000000</ele>
      </trkpt>
      <trkpt lat="44.729340" lon="2.815320">
        <ele>929.000000</ele>
      </trkpt>
      <trkpt lat="44.729180" lon="2.815380">
        <ele>928.000000</ele>
      </trkpt>
      <trkpt lat="44.728920" lon="2.815380">
        <ele>926.000000</ele>
      </trkpt>
      <trkpt lat="44.728730" lon="2.815510">
        <ele>925.000000</ele>
      </trkpt>
      <trkpt lat="44.728425" lon="2.816591">
        <ele>925.000000</ele>
      </trkpt>
      <trkpt lat="44.728245" lon="2.817379">
        <ele>925.00</ele>
      </trkpt>
      <trkpt lat="44.728079" lon="2.817861">
        <ele>925.00</ele>
      </trkpt>
      <trkpt lat="44.728038" lon="2.818089">
        <ele>925.00</ele>
      </trkpt>
      <trkpt lat="44.728038" lon="2.818480">
        <ele>926.000000</ele>
      </trkpt>
      <trkpt lat="44.728007" lon="2.818617">
        <ele>926.000000</ele>
      </trkpt>
      <trkpt lat="44.727895" lon="2.818773">
        <ele>926.000000</ele>
      </trkpt>
      <trkpt lat="44.727726" lon="2.818864">
        <ele>925.00</ele>
      </trkpt>
      <trkpt lat="44.727421" lon="2.818962">
        <ele>925.000000</ele>
      </trkpt>
      <trkpt lat="44.727327" lon="2.819073">
        <ele>925.000000</ele>
      </trkpt>
      <trkpt lat="44.727273" lon="2.819236">
        <ele>925.000000</ele>
      </trkpt>
      <trkpt lat="44.727300" lon="2.819410">
        <ele>925.000000</ele>
      </trkpt>
      <trkpt lat="44.727535" lon="2.819998">
        <ele>925.000000</ele>
      </trkpt>
      <trkpt lat="44.727630" lon="2.820320">
        <ele>925.000000</ele>
      </trkpt>
      <trkpt lat="44.727720" lon="2.820610">
        <ele>923.000000</ele>
      </trkpt>
      <trkpt lat="44.727770" lon="2.820990">
        <ele>921.000000</ele>
      </trkpt>
      <trkpt lat="44.727819" lon="2.821463">
        <ele>919.000000</ele>
      </trkpt>
      <trkpt lat="44.727790" lon="2.821970">
        <ele>917.00</ele>
      </trkpt>
      <trkpt lat="44.727740" lon="2.822430">
        <ele>917.00</ele>
      </trkpt>
      <trkpt lat="44.727620" lon="2.822950">
        <ele>917.00</ele>
      </trkpt>
      <trkpt lat="44.727419" lon="2.823606">
        <ele>917.000000</ele>
      </trkpt>
      <trkpt lat="44.727290" lon="2.823890">
        <ele>920.000000</ele>
      </trkpt>
      <trkpt lat="44.727199" lon="2.824049">
        <ele>921.000000</ele>
      </trkpt>
      <trkpt lat="44.727090" lon="2.824140">
        <ele>922.000000</ele>
      </trkpt>
      <trkpt lat="44.726910" lon="2.824280">
        <ele>925.000000</ele>
      </trkpt>
      <trkpt lat="44.726480" lon="2.824540">
        <ele>928.000000</ele>
      </trkpt>
      <trkpt lat="44.726290" lon="2.824570">
        <ele>928.000000</ele>
      </trkpt>
      <trkpt lat="44.726203" lon="2.824570">
        <ele>927.000000</ele>
      </trkpt>
      <trkpt lat="44.726110" lon="2.824500">
        <ele>927.000000</ele>
      </trkpt>
      <trkpt lat="44.725938" lon="2.824284">
        <ele>925.00</ele>
      </trkpt>
      <trkpt lat="44.725736" lon="2.824140">
        <ele>925.00</ele>
      </trkpt>
      <trkpt lat="44.725363" lon="2.824075">
        <ele>927.00</ele>
      </trkpt>
      <trkpt lat="44.724820" lon="2.823840">
        <ele>928.000000</ele>
      </trkpt>
      <trkpt lat="44.724580" lon="2.823810">
        <ele>929.000000</ele>
      </trkpt>
      <trkpt lat="44.724310" lon="2.823880">
        <ele>932.000000</ele>
      </trkpt>
      <trkpt lat="44.723915" lon="2.824147">
        <ele>937.000000</ele>
      </trkpt>
      <trkpt lat="44.723580" lon="2.824300">
        <ele>940.000000</ele>
      </trkpt>
      <trkpt lat="44.723240" lon="2.824340">
        <ele>942.000000</ele>
      </trkpt>
      <trkpt lat="44.723070" lon="2.824300">
        <ele>942.000000</ele>
      </trkpt>
      <trkpt lat="44.722720" lon="2.824040">
        <ele>941.000000</ele>
      </trkpt>
      <trkpt lat="44.722030" lon="2.823830">
        <ele>946.000000</ele>
      </trkpt>
      <trkpt lat="44.721857" lon="2.823697">
        <ele>947.000000</ele>
      </trkpt>
      <trkpt lat="44.721560" lon="2.823320">
        <ele>948.000000</ele>
      </trkpt>
      <trkpt lat="44.721380" lon="2.822960">
        <ele>949.000000</ele>
      </trkpt>
      <trkpt lat="44.721170" lon="2.822380">
        <ele>948.000000</ele>
      </trkpt>
      <trkpt lat="44.721080" lon="2.822300">
        <ele>949.000000</ele>
      </trkpt>
      <trkpt lat="44.720680" lon="2.822220">
        <ele>957.000000</ele>
      </trkpt>
      <trkpt lat="44.720090" lon="2.821860">
        <ele>958.000000</ele>
      </trkpt>
      <trkpt lat="44.719033" lon="2.821743">
        <ele>965.000000</ele>
      </trkpt>
      <trkpt lat="44.718670" lon="2.821630">
        <ele>966.000000</ele>
      </trkpt>
      <trkpt lat="44.718588" lon="2.821659">
        <ele>967.000000</ele>
      </trkpt>
      <trkpt lat="44.718198" lon="2.821867">
        <ele>970.00</ele>
      </trkpt>
      <trkpt lat="44.717790" lon="2.822010">
        <ele>972.000000</ele>
      </trkpt>
      <trkpt lat="44.717310" lon="2.822040">
        <ele>976.000000</ele>
      </trkpt>
      <trkpt lat="44.717020" lon="2.821860">
        <ele>978.000000</ele>
      </trkpt>
      <trkpt lat="44.716710" lon="2.821370">
        <ele>979.000000</ele>
      </trkpt>
      <trkpt lat="44.716590" lon="2.821000">
        <ele>980.000000</ele>
      </trkpt>
      <trkpt lat="44.716520" lon="2.820213">
        <ele>980.00</ele>
      </trkpt>
      <trkpt lat="44.716412" lon="2.819646">
        <ele>980.00</ele>
      </trkpt>
      <trkpt lat="44.716290" lon="2.819470">
        <ele>980.000000</ele>
      </trkpt>
      <trkpt lat="44.716180" lon="2.819360">
        <ele>981.000000</ele>
      </trkpt>
      <trkpt lat="44.715920" lon="2.819210">
        <ele>984.000000</ele>
      </trkpt>
      <trkpt lat="44.715756" lon="2.819203">
        <ele>985.000000</ele>
      </trkpt>
      <trkpt lat="44.715424" lon="2.819314">
        <ele>989.000000</ele>
      </trkpt>
      <trkpt lat="44.714696" lon="2.819653">
        <ele>992.000000</ele>
      </trkpt>
      <trkpt lat="44.714520" lon="2.819700">
        <ele>991.000000</ele>
      </trkpt>
      <trkpt lat="44.714377" lon="2.819744">
        <ele>991.000000</ele>
      </trkpt>
      <trkpt lat="44.714170" lon="2.819710">
        <ele>990.000000</ele>
      </trkpt>
      <trkpt lat="44.713880" lon="2.819570">
        <ele>989.000000</ele>
      </trkpt>
      <trkpt lat="44.712659" lon="2.818402">
        <ele>984.000000</ele>
      </trkpt>
      <trkpt lat="44.712394" lon="2.818278">
        <ele>983.000000</ele>
      </trkpt>
      <trkpt lat="44.712210" lon="2.818259">
        <ele>982.000000</ele>
      </trkpt>
      <trkpt lat="44.712025" lon="2.818330">
        <ele>982.000000</ele>
      </trkpt>
      <trkpt lat="44.711654" lon="2.818552">
        <ele>980.00</ele>
      </trkpt>
      <trkpt lat="44.710662" lon="2.819184">
        <ele>977.000000</ele>
      </trkpt>
      <trkpt lat="44.709391" lon="2.819972">
        <ele>973.000000</ele>
      </trkpt>
      <trkpt lat="44.708590" lon="2.820470">
        <ele>972.000000</ele>
      </trkpt>
      <trkpt lat="44.708062" lon="2.820747">
        <ele>971.000000</ele>
      </trkpt>
      <trkpt lat="44.707657" lon="2.820911">
        <ele>970.000000</ele>
      </trkpt>
      <trkpt lat="44.707096" lon="2.821094">
        <ele>967.000000</ele>
      </trkpt>
      <trkpt lat="44.706913" lon="2.821157">
        <ele>966.000000</ele>
      </trkpt>
      <trkpt lat="44.706810" lon="2.821249">
        <ele>966.000000</ele>
      </trkpt>
      <trkpt lat="44.706733" lon="2.821346">
        <ele>965.000000</ele>
      </trkpt>
      <trkpt lat="44.706704" lon="2.821501">
        <ele>966.000000</ele>
      </trkpt>
      <trkpt lat="44.706689" lon="2.821652">
        <ele>964.000000</ele>
      </trkpt>
      <trkpt lat="44.706738" lon="2.821828">
        <ele>964.000000</ele>
      </trkpt>
      <trkpt lat="44.706823" lon="2.821913">
        <ele>965.000000</ele>
      </trkpt>
      <trkpt lat="44.706921" lon="2.822065">
        <ele>965.000000</ele>
      </trkpt>
      <trkpt lat="44.706990" lon="2.822220">
        <ele>965.000000</ele>
      </trkpt>
      <trkpt lat="44.707100" lon="2.822990">
        <ele>963.000000</ele>
      </trkpt>
      <trkpt lat="44.707118" lon="2.823333">
        <ele>962.000000</ele>
      </trkpt>
      <trkpt lat="44.707073" lon="2.823671">
        <ele>960.000000</ele>
      </trkpt>
      <trkpt lat="44.707060" lon="2.823940">
        <ele>959.000000</ele>
      </trkpt>
      <trkpt lat="44.707095" lon="2.824427">
        <ele>958.000000</ele>
      </trkpt>
      <trkpt lat="44.707077" lon="2.824726">
        <ele>955.000000</ele>
      </trkpt>
      <trkpt lat="44.707110" lon="2.824890">
        <ele>954.000000</ele>
      </trkpt>
      <trkpt lat="44.707550" lon="2.825700">
        <ele>953.000000</ele>
      </trkpt>
      <trkpt lat="44.708320" lon="2.827330">
        <ele>946.000000</ele>
      </trkpt>
      <trkpt lat="44.708560" lon="2.827700">
        <ele>944.000000</ele>
      </trkpt>
      <trkpt lat="44.708750" lon="2.827900">
        <ele>942.000000</ele>
      </trkpt>
      <trkpt lat="44.708800" lon="2.828050">
        <ele>941.00</ele>
      </trkpt>
      <trkpt lat="44.708800" lon="2.828260">
        <ele>941.00</ele>
      </trkpt>
      <trkpt lat="44.708720" lon="2.828510">
        <ele>941.000000</ele>
      </trkpt>
      <trkpt lat="44.708630" lon="2.828580">
        <ele>942.00</ele>
      </trkpt>
      <trkpt lat="44.708500" lon="2.828580">
        <ele>942.000000</ele>
      </trkpt>
      <trkpt lat="44.708180" lon="2.828480">
        <ele>942.000000</ele>
      </trkpt>
      <trkpt lat="44.707120" lon="2.828310">
        <ele>940.00</ele>
      </trkpt>
      <trkpt lat="44.706770" lon="2.828340">
        <ele>939.00</ele>
      </trkpt>
      <trkpt lat="44.706330" lon="2.828540">
        <ele>939.00</ele>
      </trkpt>
      <trkpt lat="44.706090" lon="2.828860">
        <ele>940.000000</ele>
      </trkpt>
      <trkpt lat="44.705880" lon="2.829530">
        <ele>945.000000</ele>
      </trkpt>
      <trkpt lat="44.705500" lon="2.830330">
        <ele>947.000000</ele>
      </trkpt>
      <trkpt lat="44.705430" lon="2.830670">
        <ele>947.000000</ele>
      </trkpt>
      <trkpt lat="44.705310" lon="2.831960">
        <ele>949.000000</ele>
      </trkpt>
      <trkpt lat="44.705240" lon="2.832150">
        <ele>950.000000</ele>
      </trkpt>
      <trkpt lat="44.705130" lon="2.832290">
        <ele>950.000000</ele>
      </trkpt>
      <trkpt lat="44.704790" lon="2.832400">
        <ele>950.000000</ele>
      </trkpt>
      <trkpt lat="44.703819" lon="2.832458">
        <ele>952.000000</ele>
      </trkpt>
      <trkpt lat="44.703470" lon="2.832510">
        <ele>953.000000</ele>
      </trkpt>
      <trkpt lat="44.703213" lon="2.832608">
        <ele>954.000000</ele>
      </trkpt>
      <trkpt lat="44.702517" lon="2.832946">
        <ele>956.000000</ele>
      </trkpt>
      <trkpt lat="44.701780" lon="2.833210">
        <ele>957.000000</ele>
      </trkpt>
      <trkpt lat="44.701040" lon="2.833590">
        <ele>958.000000</ele>
      </trkpt>
      <trkpt lat="44.700840" lon="2.833740">
        <ele>960.000000</ele>
      </trkpt>
      <trkpt lat="44.700025" lon="2.834438">
        <ele>962.000000</ele>
      </trkpt>
      <trkpt lat="44.699958" lon="2.834542">
        <ele>962.000000</ele>
      </trkpt>
      <trkpt lat="44.699922" lon="2.834692">
        <ele>963.000000</ele>
      </trkpt>
      <trkpt lat="44.699908" lon="2.834848">
        <ele>963.000000</ele>
      </trkpt>
      <trkpt lat="44.699949" lon="2.834985">
        <ele>964.000000</ele>
      </trkpt>
      <trkpt lat="44.700110" lon="2.835324">
        <ele>967.000000</ele>
      </trkpt>
      <trkpt lat="44.700180" lon="2.835510">
        <ele>968.000000</ele>
      </trkpt>
      <trkpt lat="44.700340" lon="2.836255">
        <ele>969.000000</ele>
      </trkpt>
      <trkpt lat="44.700427" lon="2.836659">
        <ele>969.000000</ele>
      </trkpt>
      <trkpt lat="44.700576" lon="2.836926">
        <ele>970.000000</ele>
      </trkpt>
      <trkpt lat="44.701137" lon="2.837799">
        <ele>972.000000</ele>
      </trkpt>
      <trkpt lat="44.702051" lon="2.839232">
        <ele>974.000000</ele>
      </trkpt>
      <trkpt lat="44.702150" lon="2.839505">
        <ele>975.000000</ele>
      </trkpt>
      <trkpt lat="44.702177" lon="2.839812">
        <ele>975.000000</ele>
      </trkpt>
      <trkpt lat="44.702081" lon="2.842065">
        <ele>980.000000</ele>
      </trkpt>
      <trkpt lat="44.702030" lon="2.842550">
        <ele>981.000000</ele>
      </trkpt>
      <trkpt lat="44.701955" lon="2.842899">
        <ele>982.000000</ele>
      </trkpt>
      <trkpt lat="44.701843" lon="2.843036">
        <ele>983.000000</ele>
      </trkpt>
      <trkpt lat="44.701668" lon="2.843147">
        <ele>984.000000</ele>
      </trkpt>
      <trkpt lat="44.701542" lon="2.843147">
        <ele>984.000000</ele>
      </trkpt>
      <trkpt lat="44.701370" lon="2.843060">
        <ele>984.000000</ele>
      </trkpt>
      <trkpt lat="44.701290" lon="2.843003">
        <ele>985.000000</ele>
      </trkpt>
      <trkpt lat="44.701220" lon="2.842830">
        <ele>985.000000</ele>
      </trkpt>
      <trkpt lat="44.701133" lon="2.842384">
        <ele>985.000000</ele>
      </trkpt>
      <trkpt lat="44.701070" lon="2.842140">
        <ele>984.000000</ele>
      </trkpt>
      <trkpt lat="44.700880" lon="2.841940">
        <ele>985.000000</ele>
      </trkpt>
      <trkpt lat="44.699710" lon="2.841780">
        <ele>994.000000</ele>
      </trkpt>
      <trkpt lat="44.699440" lon="2.841630">
        <ele>995.000000</ele>
      </trkpt>
      <trkpt lat="44.698860" lon="2.841160">
        <ele>996.000000</ele>
      </trkpt>
      <trkpt lat="44.698610" lon="2.841130">
        <ele>997.000000</ele>
      </trkpt>
      <trkpt lat="44.698260" lon="2.841180">
        <ele>1001.000000</ele>
      </trkpt>
      <trkpt lat="44.698110" lon="2.841140">
        <ele>1002.000000</ele>
      </trkpt>
      <trkpt lat="44.697648" lon="2.840919">
        <ele>1004.000000</ele>
      </trkpt>
      <trkpt lat="44.697050" lon="2.840550">
        <ele>1009.000000</ele>
      </trkpt>
      <trkpt lat="44.696530" lon="2.840300">
        <ele>1012.000000</ele>
      </trkpt>
      <trkpt lat="44.696290" lon="2.840320">
        <ele>1012.000000</ele>
      </trkpt>
      <trkpt lat="44.696080" lon="2.840450">
        <ele>1012.000000</ele>
      </trkpt>
      <trkpt lat="44.695338" lon="2.841570">
        <ele>1015.000000</ele>
      </trkpt>
      <trkpt lat="44.694153" lon="2.843335">
        <ele>1020.000000</ele>
      </trkpt>
      <trkpt lat="44.694010" lon="2.843460">
        <ele>1020.000000</ele>
      </trkpt>
      <trkpt lat="44.693870" lon="2.843540">
        <ele>1021.000000</ele>
      </trkpt>
      <trkpt lat="44.693762" lon="2.843576">
        <ele>1022.000000</ele>
      </trkpt>
      <trkpt lat="44.693580" lon="2.843530">
        <ele>1023.000000</ele>
      </trkpt>
      <trkpt lat="44.691510" lon="2.842150">
        <ele>1031.000000</ele>
      </trkpt>
      <trkpt lat="44.691280" lon="2.842160">
        <ele>1032.000000</ele>
      </trkpt>
      <trkpt lat="44.691090" lon="2.842340">
        <ele>1032.000000</ele>
      </trkpt>
      <trkpt lat="44.691040" lon="2.842470">
        <ele>1032.000000</ele>
      </trkpt>
      <trkpt lat="44.691034" lon="2.842612">
        <ele>1032.000000</ele>
      </trkpt>
      <trkpt lat="44.691057" lon="2.842808">
        <ele>1031.000000</ele>
      </trkpt>
      <trkpt lat="44.691115" lon="2.842997">
        <ele>1031.000000</ele>
      </trkpt>
      <trkpt lat="44.691394" lon="2.843485">
        <ele>1032.000000</ele>
      </trkpt>
      <trkpt lat="44.691434" lon="2.843648">
        <ele>1031.000000</ele>
      </trkpt>
      <trkpt lat="44.691483" lon="2.843850">
        <ele>1030.000000</ele>
      </trkpt>
      <trkpt lat="44.691448" lon="2.844065">
        <ele>1029.000000</ele>
      </trkpt>
      <trkpt lat="44.691367" lon="2.844306">
        <ele>1030.000000</ele>
      </trkpt>
      <trkpt lat="44.690958" lon="2.844892">
        <ele>1028.000000</ele>
      </trkpt>
      <trkpt lat="44.690762" lon="2.845250">
        <ele>1025.000000</ele>
      </trkpt>
      <trkpt lat="44.690600" lon="2.845690">
        <ele>1024.000000</ele>
      </trkpt>
      <trkpt lat="44.690537" lon="2.845889">
        <ele>1023.000000</ele>
      </trkpt>
      <trkpt lat="44.690259" lon="2.846507">
        <ele>1016.000000</ele>
      </trkpt>
      <trkpt lat="44.690124" lon="2.847002">
        <ele>1012.000000</ele>
      </trkpt>
      <trkpt lat="44.690093" lon="2.847328">
        <ele>1011.000000</ele>
      </trkpt>
      <trkpt lat="44.690129" lon="2.847667">
        <ele>1011.000000</ele>
      </trkpt>
      <trkpt lat="44.690205" lon="2.847953">
        <ele>1011.000000</ele>
      </trkpt>
      <trkpt lat="44.690340" lon="2.848200">
        <ele>1011.000000</ele>
      </trkpt>
      <trkpt lat="44.690510" lon="2.848380">
        <ele>1014.000000</ele>
      </trkpt>
      <trkpt lat="44.691099" lon="2.848794">
        <ele>1019.000000</ele>
      </trkpt>
      <trkpt lat="44.691243" lon="2.848996">
        <ele>1018.000000</ele>
      </trkpt>
      <trkpt lat="44.691341" lon="2.849198">
        <ele>1018.000000</ele>
      </trkpt>
      <trkpt lat="44.691382" lon="2.849458">
        <ele>1018.000000</ele>
      </trkpt>
      <trkpt lat="44.691400" lon="2.849870">
        <ele>1016.000000</ele>
      </trkpt>
      <trkpt lat="44.691481" lon="2.850754">
        <ele>1015.000000</ele>
      </trkpt>
      <trkpt lat="44.691510" lon="2.851390">
        <ele>1014.000000</ele>
      </trkpt>
      <trkpt lat="44.691500" lon="2.851700">
        <ele>1014.000000</ele>
      </trkpt>
      <trkpt lat="44.691450" lon="2.851990">
        <ele>1013.000000</ele>
      </trkpt>
      <trkpt lat="44.691340" lon="2.852270">
        <ele>1011.000000</ele>
      </trkpt>
      <trkpt lat="44.691193" lon="2.852500">
        <ele>1010.000000</ele>
      </trkpt>
      <trkpt lat="44.690990" lon="2.852690">
        <ele>1009.000000</ele>
      </trkpt>
      <trkpt lat="44.690829" lon="2.852819">
        <ele>1009.000000</ele>
      </trkpt>
      <trkpt lat="44.690640" lon="2.852890">
        <ele>1008.000000</ele>
      </trkpt>
      <trkpt lat="44.689800" lon="2.853090">
        <ele>1004.000000</ele>
      </trkpt>
      <trkpt lat="44.689650" lon="2.853170">
        <ele>1004.000000</ele>
      </trkpt>
      <trkpt lat="44.689480" lon="2.853380">
        <ele>1004.000000</ele>
      </trkpt>
      <trkpt lat="44.689410" lon="2.853770">
        <ele>1004.000000</ele>
      </trkpt>
      <trkpt lat="44.689460" lon="2.854300">
        <ele>1002.000000</ele>
      </trkpt>
      <trkpt lat="44.689890" lon="2.855820">
        <ele>1000.000000</ele>
      </trkpt>
      <trkpt lat="44.689924" lon="2.856134">
        <ele>999.000000</ele>
      </trkpt>
      <trkpt lat="44.689860" lon="2.856290">
        <ele>998.000000</ele>
      </trkpt>
      <trkpt lat="44.689350" lon="2.855310">
        <ele>995.000000</ele>
      </trkpt>
      <trkpt lat="44.689120" lon="2.855000">
        <ele>993.000000</ele>
      </trkpt>
      <trkpt lat="44.687480" lon="2.853520">
        <ele>982.000000</ele>
      </trkpt>
      <trkpt lat="44.687310" lon="2.853280">
        <ele>982.000000</ele>
      </trkpt>
      <trkpt lat="44.687219" lon="2.853066">
        <ele>983.000000</ele>
      </trkpt>
      <trkpt lat="44.686999" lon="2.852402">
        <ele>984.000000</ele>
      </trkpt>
      <trkpt lat="44.686288" lon="2.850376">
        <ele>997.000000</ele>
      </trkpt>
      <trkpt lat="44.685430" lon="2.847880">
        <ele>1003.000000</ele>
      </trkpt>
      <trkpt lat="44.685210" lon="2.847320">
        <ele>1007.000000</ele>
      </trkpt>
      <trkpt lat="44.684950" lon="2.846930">
        <ele>1010.000000</ele>
      </trkpt>
      <trkpt lat="44.684750" lon="2.846860">
        <ele>1011.000000</ele>
      </trkpt>
      <trkpt lat="44.684580" lon="2.846920">
        <ele>1010.000000</ele>
      </trkpt>
      <trkpt lat="44.684579" lon="2.846913">
        <ele>1010.000000</ele>
      </trkpt>
      <trkpt lat="44.684574" lon="2.846927">
        <ele>1010.000000</ele>
      </trkpt>
      <trkpt lat="44.684486" lon="2.847006">
        <ele>1010.000000</ele>
      </trkpt>
      <trkpt lat="44.684358" lon="2.847198">
        <ele>1010.000000</ele>
      </trkpt>
      <trkpt lat="44.684210" lon="2.847490">
        <ele>1009.000000</ele>
      </trkpt>
      <trkpt lat="44.683450" lon="2.849790">
        <ele>1009.000000</ele>
      </trkpt>
      <trkpt lat="44.683220" lon="2.850580">
        <ele>1009.000000</ele>
      </trkpt>
      <trkpt lat="44.683190" lon="2.850819">
        <ele>1010.000000</ele>
      </trkpt>
      <trkpt lat="44.683200" lon="2.850970">
        <ele>1010.000000</ele>
      </trkpt>
      <trkpt lat="44.683230" lon="2.851090">
        <ele>1011.000000</ele>
      </trkpt>
      <trkpt lat="44.683190" lon="2.851190">
        <ele>1011.000000</ele>
      </trkpt>
      <trkpt lat="44.683203" lon="2.851432">
        <ele>1012.000000</ele>
      </trkpt>
      <trkpt lat="44.683252" lon="2.851647">
        <ele>1014.000000</ele>
      </trkpt>
      <trkpt lat="44.683370" lon="2.851900">
        <ele>1016.000000</ele>
      </trkpt>
      <trkpt lat="44.683530" lon="2.852140">
        <ele>1017.000000</ele>
      </trkpt>
      <trkpt lat="44.683710" lon="2.852290">
        <ele>1017.000000</ele>
      </trkpt>
      <trkpt lat="44.684280" lon="2.852590">
        <ele>1019.000000</ele>
      </trkpt>
      <trkpt lat="44.684660" lon="2.852680">
        <ele>1021.000000</ele>
      </trkpt>
      <trkpt lat="44.685149" lon="2.852611">
        <ele>1020.000000</ele>
      </trkpt>
      <trkpt lat="44.685250" lon="2.852670">
        <ele>1020.000000</ele>
      </trkpt>
      <trkpt lat="44.685500" lon="2.852890">
        <ele>1021.000000</ele>
      </trkpt>
      <trkpt lat="44.685660" lon="2.853200">
        <ele>1021.000000</ele>
      </trkpt>
      <trkpt lat="44.685860" lon="2.853770">
        <ele>1022.000000</ele>
      </trkpt>
      <trkpt lat="44.685934" lon="2.854154">
        <ele>1023.000000</ele>
      </trkpt>
      <trkpt lat="44.685952" lon="2.854434">
        <ele>1024.000000</ele>
      </trkpt>
      <trkpt lat="44.685939" lon="2.854675">
        <ele>1025.000000</ele>
      </trkpt>
      <trkpt lat="44.685885" lon="2.854929">
        <ele>1025.000000</ele>
      </trkpt>
      <trkpt lat="44.685790" lon="2.855280">
        <ele>1025.000000</ele>
      </trkpt>
      <trkpt lat="44.685470" lon="2.856230">
        <ele>1029.000000</ele>
      </trkpt>
      <trkpt lat="44.685310" lon="2.856580">
        <ele>1031.000000</ele>
      </trkpt>
      <trkpt lat="44.684960" lon="2.857100">
        <ele>1034.000000</ele>
      </trkpt>
      <trkpt lat="44.684190" lon="2.858100">
        <ele>1039.000000</ele>
      </trkpt>
      <trkpt lat="44.684032" lon="2.858316">
        <ele>1039.000000</ele>
      </trkpt>
      <trkpt lat="44.683920" lon="2.858630">
        <ele>1040.000000</ele>
      </trkpt>
      <trkpt lat="44.683877" lon="2.858824">
        <ele>1040.000000</ele>
      </trkpt>
      <trkpt lat="44.683850" lon="2.859110">
        <ele>1040.000000</ele>
      </trkpt>
      <trkpt lat="44.683850" lon="2.860670">
        <ele>1044.000000</ele>
      </trkpt>
      <trkpt lat="44.683710" lon="2.861030">
        <ele>1045.000000</ele>
      </trkpt>
      <trkpt lat="44.683450" lon="2.861440">
        <ele>1046.000000</ele>
      </trkpt>
      <trkpt lat="44.682058" lon="2.863117">
        <ele>1052.000000</ele>
      </trkpt>
      <trkpt lat="44.681910" lon="2.863260">
        <ele>1052.000000</ele>
      </trkpt>
      <trkpt lat="44.681784" lon="2.863312">
        <ele>1053.000000</ele>
      </trkpt>
      <trkpt lat="44.681640" lon="2.863340">
        <ele>1053.000000</ele>
      </trkpt>
      <trkpt lat="44.681227" lon="2.863195">
        <ele>1054.000000</ele>
      </trkpt>
      <trkpt lat="44.681030" lon="2.863160">
        <ele>1054.000000</ele>
      </trkpt>
      <trkpt lat="44.680700" lon="2.863190">
        <ele>1055.000000</ele>
      </trkpt>
      <trkpt lat="44.679945" lon="2.863534">
        <ele>1057.000000</ele>
      </trkpt>
      <trkpt lat="44.678494" lon="2.864224">
        <ele>1064.000000</ele>
      </trkpt>
      <trkpt lat="44.677950" lon="2.864520">
        <ele>1066.000000</ele>
      </trkpt>
      <trkpt lat="44.676950" lon="2.865460">
        <ele>1070.000000</ele>
      </trkpt>
      <trkpt lat="44.676540" lon="2.865760">
        <ele>1072.000000</ele>
      </trkpt>
      <trkpt lat="44.676230" lon="2.865900">
        <ele>1074.000000</ele>
      </trkpt>
      <trkpt lat="44.675970" lon="2.865960">
        <ele>1075.000000</ele>
      </trkpt>
      <trkpt lat="44.675826" lon="2.865970">
        <ele>1076.000000</ele>
      </trkpt>
      <trkpt lat="44.675660" lon="2.865910">
        <ele>1077.000000</ele>
      </trkpt>
      <trkpt lat="44.675148" lon="2.865650">
        <ele>1077.000000</ele>
      </trkpt>
      <trkpt lat="44.674923" lon="2.865631">
        <ele>1077.000000</ele>
      </trkpt>
      <trkpt lat="44.674690" lon="2.865720">
        <ele>1078.000000</ele>
      </trkpt>
      <trkpt lat="44.674539" lon="2.865885">
        <ele>1079.000000</ele>
      </trkpt>
      <trkpt lat="44.674440" lon="2.866030">
        <ele>1080.000000</ele>
      </trkpt>
      <trkpt lat="44.674355" lon="2.866250">
        <ele>1080.000000</ele>
      </trkpt>
      <trkpt lat="44.674330" lon="2.866520">
        <ele>1081.000000</ele>
      </trkpt>
      <trkpt lat="44.674370" lon="2.866950">
        <ele>1082.000000</ele>
      </trkpt>
      <trkpt lat="44.674560" lon="2.867740">
        <ele>1084.000000</ele>
      </trkpt>
      <trkpt lat="44.675071" lon="2.869311">
        <ele>1090.000000</ele>
      </trkpt>
      <trkpt lat="44.675990" lon="2.872030">
        <ele>1101.000000</ele>
      </trkpt>
      <trkpt lat="44.676190" lon="2.872730">
        <ele>1105.000000</ele>
      </trkpt>
      <trkpt lat="44.676280" lon="2.873480">
        <ele>1109.000000</ele>
      </trkpt>
      <trkpt lat="44.676277" lon="2.874001">
        <ele>1110.000000</ele>
      </trkpt>
      <trkpt lat="44.676200" lon="2.874548">
        <ele>1110.000000</ele>
      </trkpt>
      <trkpt lat="44.676200" lon="2.874980">
        <ele>1111.000000</ele>
      </trkpt>
      <trkpt lat="44.676476" lon="2.876893">
        <ele>1113.000000</ele>
      </trkpt>
      <trkpt lat="44.676575" lon="2.877401">
        <ele>1114.000000</ele>
      </trkpt>
      <trkpt lat="44.676691" lon="2.877863">
        <ele>1115.000000</ele>
      </trkpt>
      <trkpt lat="44.676880" lon="2.878339">
        <ele>1117.000000</ele>
      </trkpt>
      <trkpt lat="44.677780" lon="2.880430">
        <ele>1124.000000</ele>
      </trkpt>
      <trkpt lat="44.678010" lon="2.880750">
        <ele>1125.000000</ele>
      </trkpt>
      <trkpt lat="44.679060" lon="2.881920">
        <ele>1129.000000</ele>
      </trkpt>
      <trkpt lat="44.679237" lon="2.882058">
        <ele>1131.000000</ele>
      </trkpt>
      <trkpt lat="44.679570" lon="2.882240">
        <ele>1135.000000</ele>
      </trkpt>
      <trkpt lat="44.679720" lon="2.882380">
        <ele>1136.000000</ele>
      </trkpt>
      <trkpt lat="44.679870" lon="2.882640">
        <ele>1137.000000</ele>
      </trkpt>
      <trkpt lat="44.679954" lon="2.882846">
        <ele>1138.000000</ele>
      </trkpt>
      <trkpt lat="44.680050" lon="2.883160">
        <ele>1138.000000</ele>
      </trkpt>
      <trkpt lat="44.680150" lon="2.883650">
        <ele>1139.000000</ele>
      </trkpt>
      <trkpt lat="44.680170" lon="2.884080">
        <ele>1140.000000</ele>
      </trkpt>
      <trkpt lat="44.680100" lon="2.884630">
        <ele>1141.000000</ele>
      </trkpt>
      <trkpt lat="44.679999" lon="2.884976">
        <ele>1142.000000</ele>
      </trkpt>
      <trkpt lat="44.679860" lon="2.885280">
        <ele>1144.000000</ele>
      </trkpt>
      <trkpt lat="44.679580" lon="2.885660">
        <ele>1145.000000</ele>
      </trkpt>
      <trkpt lat="44.679370" lon="2.885860">
        <ele>1146.000000</ele>
      </trkpt>
      <trkpt lat="44.678440" lon="2.886510">
        <ele>1146.000000</ele>
      </trkpt>
      <trkpt lat="44.678300" lon="2.886650">
        <ele>1146.000000</ele>
      </trkpt>
      <trkpt lat="44.678200" lon="2.886900">
        <ele>1147.000000</ele>
      </trkpt>
      <trkpt lat="44.678120" lon="2.887540">
        <ele>1150.000000</ele>
      </trkpt>
      <trkpt lat="44.677930" lon="2.888450">
        <ele>1151.000000</ele>
      </trkpt>
      <trkpt lat="44.677980" lon="2.889300">
        <ele>1154.000000</ele>
      </trkpt>
      <trkpt lat="44.678080" lon="2.890010">
        <ele>1156.000000</ele>
      </trkpt>
      <trkpt lat="44.678210" lon="2.890450">
        <ele>1157.000000</ele>
      </trkpt>
      <trkpt lat="44.678644" lon="2.891411">
        <ele>1161.000000</ele>
      </trkpt>
      <trkpt lat="44.678930" lon="2.892510">
        <ele>1165.000000</ele>
      </trkpt>
      <trkpt lat="44.679070" lon="2.893920">
        <ele>1168.000000</ele>
      </trkpt>
      <trkpt lat="44.679118" lon="2.894147">
        <ele>1169.000000</ele>
      </trkpt>
      <trkpt lat="44.679330" lon="2.895530">
        <ele>1173.000000</ele>
      </trkpt>
      <trkpt lat="44.679330" lon="2.895800">
        <ele>1174.000000</ele>
      </trkpt>
      <trkpt lat="44.679280" lon="2.896153">
        <ele>1174.000000</ele>
      </trkpt>
      <trkpt lat="44.679210" lon="2.896510">
        <ele>1175.000000</ele>
      </trkpt>
      <trkpt lat="44.679100" lon="2.896850">
        <ele>1175.000000</ele>
      </trkpt>
      <trkpt lat="44.678911" lon="2.897241">
        <ele>1175.000000</ele>
      </trkpt>
      <trkpt lat="44.678810" lon="2.897590">
        <ele>1176.000000</ele>
      </trkpt>
      <trkpt lat="44.678682" lon="2.898341">
        <ele>1180.000000</ele>
      </trkpt>
      <trkpt lat="44.678540" lon="2.898920">
        <ele>1183.000000</ele>
      </trkpt>
      <trkpt lat="44.678160" lon="2.900020">
        <ele>1188.000000</ele>
      </trkpt>
      <trkpt lat="44.677810" lon="2.901360">
        <ele>1190.000000</ele>
      </trkpt>
      <trkpt lat="44.677110" lon="2.902530">
        <ele>1191.000000</ele>
      </trkpt>
      <trkpt lat="44.676990" lon="2.902771">
        <ele>1192.000000</ele>
      </trkpt>
      <trkpt lat="44.676837" lon="2.903194">
        <ele>1194.000000</ele>
      </trkpt>
      <trkpt lat="44.676630" lon="2.903720">
        <ele>1197.000000</ele>
      </trkpt>
      <trkpt lat="44.675950" lon="2.904910">
        <ele>1204.000000</ele>
      </trkpt>
      <trkpt lat="44.675510" lon="2.905460">
        <ele>1207.000000</ele>
      </trkpt>
      <trkpt lat="44.674050" lon="2.906980">
        <ele>1209.000000</ele>
      </trkpt>
      <trkpt lat="44.673560" lon="2.907720">
        <ele>1211.000000</ele>
      </trkpt>
      <trkpt lat="44.673430" lon="2.907980">
        <ele>1211.000000</ele>
      </trkpt>
      <trkpt lat="44.673280" lon="2.908400">
        <ele>1211.000000</ele>
      </trkpt>
      <trkpt lat="44.673260" lon="2.908900">
        <ele>1212.000000</ele>
      </trkpt>
      <trkpt lat="44.673720" lon="2.911170">
        <ele>1216.000000</ele>
      </trkpt>
      <trkpt lat="44.673840" lon="2.911490">
        <ele>1217.000000</ele>
      </trkpt>
      <trkpt lat="44.674080" lon="2.911900">
        <ele>1220.000000</ele>
      </trkpt>
      <trkpt lat="44.675264" lon="2.913642">
        <ele>1227.000000</ele>
      </trkpt>
      <trkpt lat="44.676510" lon="2.915500">
        <ele>1231.000000</ele>
      </trkpt>
      <trkpt lat="44.676820" lon="2.915780">
        <ele>1232.000000</ele>
      </trkpt>
      <trkpt lat="44.676991" lon="2.915817">
        <ele>1234.000000</ele>
      </trkpt>
      <trkpt lat="44.677290" lon="2.915810">
        <ele>1236.000000</ele>
      </trkpt>
      <trkpt lat="44.678610" lon="2.915660">
        <ele>1245.000000</ele>
      </trkpt>
      <trkpt lat="44.679230" lon="2.915510">
        <ele>1248.000000</ele>
      </trkpt>
      <trkpt lat="44.680080" lon="2.915200">
        <ele>1250.000000</ele>
      </trkpt>
      <trkpt lat="44.680184" lon="2.915211">
        <ele>1250.000000</ele>
      </trkpt>
      <trkpt lat="44.680417" lon="2.915270">
        <ele>1250.000000</ele>
      </trkpt>
      <trkpt lat="44.680691" lon="2.915400">
        <ele>1251.000000</ele>
      </trkpt>
      <trkpt lat="44.680890" lon="2.915560">
        <ele>1252.000000</ele>
      </trkpt>
      <trkpt lat="44.681180" lon="2.916010">
        <ele>1254.000000</ele>
      </trkpt>
      <trkpt lat="44.681648" lon="2.917048">
        <ele>1260.000000</ele>
      </trkpt>
      <trkpt lat="44.682420" lon="2.918730">
        <ele>1269.000000</ele>
      </trkpt>
      <trkpt lat="44.682600" lon="2.919230">
        <ele>1270.000000</ele>
      </trkpt>
      <trkpt lat="44.682890" lon="2.920540">
        <ele>1271.000000</ele>
      </trkpt>
      <trkpt lat="44.683170" lon="2.921880">
        <ele>1277.000000</ele>
      </trkpt>
      <trkpt lat="44.683217" lon="2.922376">
        <ele>1278.000000</ele>
      </trkpt>
      <trkpt lat="44.683260" lon="2.923250">
        <ele>1279.000000</ele>
      </trkpt>
      <trkpt lat="44.683250" lon="2.923783">
        <ele>1281.000000</ele>
      </trkpt>
      <trkpt lat="44.683200" lon="2.924300">
        <ele>1282.000000</ele>
      </trkpt>
      <trkpt lat="44.683079" lon="2.925040">
        <ele>1283.000000</ele>
      </trkpt>
      <trkpt lat="44.683021" lon="2.925483">
        <ele>1284.000000</ele>
      </trkpt>
      <trkpt lat="44.683001" lon="2.926226">
        <ele>1288.000000</ele>
      </trkpt>
      <trkpt lat="44.682970" lon="2.926470">
        <ele>1289.000000</ele>
      </trkpt>
      <trkpt lat="44.682890" lon="2.926730">
        <ele>1289.000000</ele>
      </trkpt>
      <trkpt lat="44.682280" lon="2.928010">
        <ele>1291.000000</ele>
      </trkpt>
      <trkpt lat="44.682170" lon="2.928362">
        <ele>1291.000000</ele>
      </trkpt>
      <trkpt lat="44.682030" lon="2.928990">
        <ele>1293.000000</ele>
      </trkpt>
      <trkpt lat="44.681758" lon="2.929658">
        <ele>1298.000000</ele>
      </trkpt>
      <trkpt lat="44.681574" lon="2.929971">
        <ele>1300.000000</ele>
      </trkpt>
      <trkpt lat="44.681180" lon="2.930500">
        <ele>1302.000000</ele>
      </trkpt>
      <trkpt lat="44.680690" lon="2.931010">
        <ele>1303.000000</ele>
      </trkpt>
      <trkpt lat="44.680380" lon="2.931100">
        <ele>1303.000000</ele>
      </trkpt>
      <trkpt lat="44.679321" lon="2.931104">
        <ele>1306.000000</ele>
      </trkpt>
      <trkpt lat="44.678910" lon="2.931130">
        <ele>1306.000000</ele>
      </trkpt>
      <trkpt lat="44.678657" lon="2.931156">
        <ele>1306.000000</ele>
      </trkpt>
      <trkpt lat="44.677988" lon="2.931326">
        <ele>1307.000000</ele>
      </trkpt>
      <trkpt lat="44.677318" lon="2.931449">
        <ele>1307.000000</ele>
      </trkpt>
      <trkpt lat="44.676949" lon="2.931501">
        <ele>1307.000000</ele>
      </trkpt>
      <trkpt lat="44.676761" lon="2.931469">
        <ele>1307.000000</ele>
      </trkpt>
      <trkpt lat="44.676540" lon="2.931360">
        <ele>1307.000000</ele>
      </trkpt>
      <trkpt lat="44.676270" lon="2.931120">
        <ele>1307.000000</ele>
      </trkpt>
      <trkpt lat="44.674860" lon="2.929700">
        <ele>1306.000000</ele>
      </trkpt>
      <trkpt lat="44.673450" lon="2.928660">
        <ele>1303.000000</ele>
      </trkpt>
      <trkpt lat="44.672450" lon="2.928050">
        <ele>1305.000000</ele>
      </trkpt>
      <trkpt lat="44.672090" lon="2.927970">
        <ele>1306.000000</ele>
      </trkpt>
      <trkpt lat="44.671950" lon="2.928000">
        <ele>1306.000000</ele>
      </trkpt>
      <trkpt lat="44.671180" lon="2.928316">
        <ele>1306.000000</ele>
      </trkpt>
      <trkpt lat="44.670930" lon="2.928460">
        <ele>1305.000000</ele>
      </trkpt>
      <trkpt lat="44.670620" lon="2.928710">
        <ele>1306.000000</ele>
      </trkpt>
      <trkpt lat="44.670430" lon="2.928930">
        <ele>1308.000000</ele>
      </trkpt>
      <trkpt lat="44.670160" lon="2.929430">
        <ele>1310.000000</ele>
      </trkpt>
      <trkpt lat="44.669900" lon="2.930110">
        <ele>1312.000000</ele>
      </trkpt>
      <trkpt lat="44.669792" lon="2.930472">
        <ele>1313.000000</ele>
      </trkpt>
      <trkpt lat="44.669729" lon="2.930831">
        <ele>1314.000000</ele>
      </trkpt>
      <trkpt lat="44.669640" lon="2.931280">
        <ele>1314.000000</ele>
      </trkpt>
      <trkpt lat="44.669280" lon="2.932030">
        <ele>1318.000000</ele>
      </trkpt>
      <trkpt lat="44.669189" lon="2.932237">
        <ele>1319.000000</ele>
      </trkpt>
      <trkpt lat="44.668810" lon="2.933290">
        <ele>1322.000000</ele>
      </trkpt>
      <trkpt lat="44.668580" lon="2.933740">
        <ele>1324.000000</ele>
      </trkpt>
      <trkpt lat="44.668420" lon="2.933940">
        <ele>1326.000000</ele>
      </trkpt>
      <trkpt lat="44.667487" lon="2.934928">
        <ele>1333.000000</ele>
      </trkpt>
      <trkpt lat="44.667163" lon="2.935182">
        <ele>1334.000000</ele>
      </trkpt>
      <trkpt lat="44.665535" lon="2.935905">
        <ele>1344.000000</ele>
      </trkpt>
      <trkpt lat="44.665100" lon="2.936150">
        <ele>1346.000000</ele>
      </trkpt>
      <trkpt lat="44.664529" lon="2.936582">
        <ele>1350.000000</ele>
      </trkpt>
      <trkpt lat="44.664180" lon="2.936880">
        <ele>1352.000000</ele>
      </trkpt>
      <trkpt lat="44.663910" lon="2.937190">
        <ele>1352.000000</ele>
      </trkpt>
      <trkpt lat="44.662325" lon="2.940028">
        <ele>1350.000000</ele>
      </trkpt>
      <trkpt lat="44.661210" lon="2.942040">
        <ele>1353.000000</ele>
      </trkpt>
      <trkpt lat="44.661049" lon="2.942457">
        <ele>1355.000000</ele>
      </trkpt>
      <trkpt lat="44.660407" lon="2.944294">
        <ele>1359.000000</ele>
      </trkpt>
      <trkpt lat="44.660220" lon="2.944920">
        <ele>1358.000000</ele>
      </trkpt>
      <trkpt lat="44.660140" lon="2.945450">
        <ele>1358.000000</ele>
      </trkpt>
      <trkpt lat="44.660110" lon="2.946220">
        <ele>1358.000000</ele>
      </trkpt>
      <trkpt lat="44.659990" lon="2.946680">
        <ele>1358.000000</ele>
      </trkpt>
      <trkpt lat="44.659910" lon="2.946810">
        <ele>1358.000000</ele>
      </trkpt>
      <trkpt lat="44.659740" lon="2.946940">
        <ele>1357.000000</ele>
      </trkpt>
      <trkpt lat="44.659510" lon="2.946990">
        <ele>1356.000000</ele>
      </trkpt>
      <trkpt lat="44.659100" lon="2.946970">
        <ele>1355.000000</ele>
      </trkpt>
      <trkpt lat="44.658800" lon="2.947060">
        <ele>1355.000000</ele>
      </trkpt>
      <trkpt lat="44.658634" lon="2.947192">
        <ele>1354.000000</ele>
      </trkpt>
      <trkpt lat="44.658500" lon="2.947360">
        <ele>1352.000000</ele>
      </trkpt>
      <trkpt lat="44.658369" lon="2.947596">
        <ele>1351.000000</ele>
      </trkpt>
      <trkpt lat="44.658300" lon="2.947870">
        <ele>1349.000000</ele>
      </trkpt>
      <trkpt lat="44.658260" lon="2.948130">
        <ele>1347.000000</ele>
      </trkpt>
      <trkpt lat="44.658270" lon="2.948470">
        <ele>1345.000000</ele>
      </trkpt>
      <trkpt lat="44.658460" lon="2.949420">
        <ele>1341.000000</ele>
      </trkpt>
      <trkpt lat="44.658420" lon="2.949730">
        <ele>1341.000000</ele>
      </trkpt>
      <trkpt lat="44.658330" lon="2.949990">
        <ele>1340.000000</ele>
      </trkpt>
      <trkpt lat="44.657920" lon="2.950880">
        <ele>1336.000000</ele>
      </trkpt>
      <trkpt lat="44.657800" lon="2.951060">
        <ele>1335.000000</ele>
      </trkpt>
      <trkpt lat="44.657580" lon="2.951240">
        <ele>1334.000000</ele>
      </trkpt>
      <trkpt lat="44.657090" lon="2.951450">
        <ele>1334.000000</ele>
      </trkpt>
      <trkpt lat="44.656960" lon="2.951590">
        <ele>1333.000000</ele>
      </trkpt>
      <trkpt lat="44.656835" lon="2.951889">
        <ele>1331.000000</ele>
      </trkpt>
      <trkpt lat="44.656803" lon="2.952110">
        <ele>1330.000000</ele>
      </trkpt>
      <trkpt lat="44.656800" lon="2.952400">
        <ele>1328.000000</ele>
      </trkpt>
      <trkpt lat="44.656860" lon="2.953620">
        <ele>1324.000000</ele>
      </trkpt>
      <trkpt lat="44.656830" lon="2.954260">
        <ele>1324.000000</ele>
      </trkpt>
      <trkpt lat="44.656540" lon="2.956750">
        <ele>1327.000000</ele>
      </trkpt>
      <trkpt lat="44.656420" lon="2.957380">
        <ele>1331.000000</ele>
      </trkpt>
      <trkpt lat="44.656310" lon="2.957650">
        <ele>1333.000000</ele>
      </trkpt>
      <trkpt lat="44.656080" lon="2.957950">
        <ele>1335.000000</ele>
      </trkpt>
      <trkpt lat="44.655850" lon="2.958100">
        <ele>1337.000000</ele>
      </trkpt>
      <trkpt lat="44.655260" lon="2.958310">
        <ele>1339.000000</ele>
      </trkpt>
      <trkpt lat="44.655080" lon="2.958470">
        <ele>1340.000000</ele>
      </trkpt>
      <trkpt lat="44.654960" lon="2.958620">
        <ele>1341.000000</ele>
      </trkpt>
      <trkpt lat="44.654857" lon="2.958871">
        <ele>1342.000000</ele>
      </trkpt>
      <trkpt lat="44.654800" lon="2.959070">
        <ele>1343.000000</ele>
      </trkpt>
      <trkpt lat="44.654745" lon="2.959392">
        <ele>1343.000000</ele>
      </trkpt>
      <trkpt lat="44.654695" lon="2.960252">
        <ele>1346.000000</ele>
      </trkpt>
      <trkpt lat="44.654457" lon="2.963287">
        <ele>1356.000000</ele>
      </trkpt>
      <trkpt lat="44.654390" lon="2.963580">
        <ele>1357.000000</ele>
      </trkpt>
      <trkpt lat="44.654260" lon="2.963840">
        <ele>1358.000000</ele>
      </trkpt>
      <trkpt lat="44.652760" lon="2.965580">
        <ele>1364.000000</ele>
      </trkpt>
      <trkpt lat="44.650760" lon="2.967500">
        <ele>1372.000000</ele>
      </trkpt>
      <trkpt lat="44.649760" lon="2.968680">
        <ele>1375.000000</ele>
      </trkpt>
      <trkpt lat="44.649000" lon="2.969340">
        <ele>1374.000000</ele>
      </trkpt>
      <trkpt lat="44.648824" lon="2.969533">
        <ele>1372.000000</ele>
      </trkpt>
      <trkpt lat="44.648720" lon="2.969700">
        <ele>1370.000000</ele>
      </trkpt>
      <trkpt lat="44.648460" lon="2.970350">
        <ele>1368.000000</ele>
      </trkpt>
      <trkpt lat="44.647280" lon="2.972180">
        <ele>1367.000000</ele>
      </trkpt>
      <trkpt lat="44.647080" lon="2.972310">
        <ele>1367.000000</ele>
      </trkpt>
      <trkpt lat="44.646340" lon="2.972560">
        <ele>1365.000000</ele>
      </trkpt>
      <trkpt lat="44.645910" lon="2.973040">
        <ele>1364.000000</ele>
      </trkpt>
      <trkpt lat="44.645110" lon="2.973380">
        <ele>1355.000000</ele>
      </trkpt>
      <trkpt lat="44.644900" lon="2.973540">
        <ele>1354.000000</ele>
      </trkpt>
      <trkpt lat="44.644723" lon="2.973722">
        <ele>1353.000000</ele>
      </trkpt>
      <trkpt lat="44.644032" lon="2.974725">
        <ele>1350.000000</ele>
      </trkpt>
      <trkpt lat="44.643780" lon="2.975120">
        <ele>1348.000000</ele>
      </trkpt>
      <trkpt lat="44.643370" lon="2.976070">
        <ele>1345.000000</ele>
      </trkpt>
      <trkpt lat="44.642980" lon="2.976640">
        <ele>1345.000000</ele>
      </trkpt>
      <trkpt lat="44.642570" lon="2.976920">
        <ele>1346.000000</ele>
      </trkpt>
      <trkpt lat="44.642037" lon="2.977115">
        <ele>1347.000000</ele>
      </trkpt>
      <trkpt lat="44.641640" lon="2.977320">
        <ele>1347.000000</ele>
      </trkpt>
      <trkpt lat="44.641439" lon="2.977467">
        <ele>1345.000000</ele>
      </trkpt>
      <trkpt lat="44.640560" lon="2.978380">
        <ele>1349.000000</ele>
      </trkpt>
      <trkpt lat="44.639810" lon="2.978800">
        <ele>1349.000000</ele>
      </trkpt>
      <trkpt lat="44.639340" lon="2.978900">
        <ele>1348.000000</ele>
      </trkpt>
      <trkpt lat="44.638160" lon="2.978870">
        <ele>1345.000000</ele>
      </trkpt>
      <trkpt lat="44.636490" lon="2.979280">
        <ele>1342.000000</ele>
      </trkpt>
      <trkpt lat="44.636250" lon="2.979500">
        <ele>1342.000000</ele>
      </trkpt>
      <trkpt lat="44.635920" lon="2.980030">
        <ele>1344.000000</ele>
      </trkpt>
      <trkpt lat="44.635730" lon="2.980160">
        <ele>1345.000000</ele>
      </trkpt>
      <trkpt lat="44.635630" lon="2.980170">
        <ele>1345.000000</ele>
      </trkpt>
      <trkpt lat="44.635462" lon="2.980144">
        <ele>1345.000000</ele>
      </trkpt>
      <trkpt lat="44.635301" lon="2.980040">
        <ele>1346.000000</ele>
      </trkpt>
      <trkpt lat="44.635135" lon="2.979799">
        <ele>1348.000000</ele>
      </trkpt>
      <trkpt lat="44.634950" lon="2.979370">
        <ele>1350.000000</ele>
      </trkpt>
      <trkpt lat="44.634721" lon="2.978757">
        <ele>1352.000000</ele>
      </trkpt>
      <trkpt lat="44.634520" lon="2.978250">
        <ele>1353.000000</ele>
      </trkpt>
      <trkpt lat="44.634350" lon="2.978080">
        <ele>1352.000000</ele>
      </trkpt>
      <trkpt lat="44.634250" lon="2.978040">
        <ele>1352.000000</ele>
      </trkpt>
      <trkpt lat="44.634079" lon="2.978001">
        <ele>1353.000000</ele>
      </trkpt>
      <trkpt lat="44.633880" lon="2.978020">
        <ele>1353.000000</ele>
      </trkpt>
      <trkpt lat="44.633160" lon="2.978230">
        <ele>1354.000000</ele>
      </trkpt>
      <trkpt lat="44.632680" lon="2.978310">
        <ele>1354.000000</ele>
      </trkpt>
      <trkpt lat="44.631141" lon="2.978770">
        <ele>1358.000000</ele>
      </trkpt>
      <trkpt lat="44.630110" lon="2.978970">
        <ele>1359.000000</ele>
      </trkpt>
      <trkpt lat="44.629924" lon="2.979037">
        <ele>1358.000000</ele>
      </trkpt>
      <trkpt lat="44.629019" lon="2.979655">
        <ele>1352.000000</ele>
      </trkpt>
      <trkpt lat="44.627223" lon="2.980417">
        <ele>1344.000000</ele>
      </trkpt>
      <trkpt lat="44.626930" lon="2.980570">
        <ele>1344.000000</ele>
      </trkpt>
      <trkpt lat="44.626738" lon="2.980737">
        <ele>1343.000000</ele>
      </trkpt>
      <trkpt lat="44.626560" lon="2.981000">
        <ele>1342.000000</ele>
      </trkpt>
      <trkpt lat="44.625530" lon="2.982420">
        <ele>1338.000000</ele>
      </trkpt>
      <trkpt lat="44.625427" lon="2.982593">
        <ele>1338.000000</ele>
      </trkpt>
      <trkpt lat="44.625380" lon="2.982800">
        <ele>1337.000000</ele>
      </trkpt>
      <trkpt lat="44.625290" lon="2.983890">
        <ele>1335.000000</ele>
      </trkpt>
      <trkpt lat="44.625253" lon="2.984436">
        <ele>1333.000000</ele>
      </trkpt>
      <trkpt lat="44.625270" lon="2.984860">
        <ele>1330.000000</ele>
      </trkpt>
      <trkpt lat="44.625390" lon="2.985530">
        <ele>1324.000000</ele>
      </trkpt>
      <trkpt lat="44.625820" lon="2.986650">
        <ele>1318.000000</ele>
      </trkpt>
      <trkpt lat="44.625845" lon="2.986827">
        <ele>1318.000000</ele>
      </trkpt>
      <trkpt lat="44.625840" lon="2.987048">
        <ele>1317.000000</ele>
      </trkpt>
      <trkpt lat="44.621900" lon="2.986400">
        <ele>1311.80</ele>
        <time>2010-01-01T07:37:23Z</time>
      </trkpt>
      <trkpt lat="44.621920" lon="2.986370">
        <ele>1312.08</ele>
        <time>2010-01-01T07:37:24Z</time>
      </trkpt>
      <trkpt lat="44.622120" lon="2.986710">
        <ele>1310.22</ele>
        <time>2010-01-01T07:37:37Z</time>
      </trkpt>
      <trkpt lat="44.622420" lon="2.986890">
        <ele>1310.22</ele>
        <time>2010-01-01T07:37:50Z</time>
      </trkpt>
      <trkpt lat="44.623520" lon="2.986770">
        <ele>1313.98</ele>
        <time>2010-01-01T07:38:34Z</time>
      </trkpt>
      <trkpt lat="44.624700" lon="2.986930">
        <ele>1314.452759</ele>
        <time>2010-01-01T07:39:21Z</time>
      </trkpt>
      <trkpt lat="44.625290" lon="2.986760">
        <ele>1316.677734</ele>
        <time>2010-01-01T07:39:46Z</time>
      </trkpt>
      <trkpt lat="44.625460" lon="2.986760">
        <ele>1316.279663</ele>
        <time>2010-01-01T07:39:52Z</time>
      </trkpt>
      <trkpt lat="44.625820" lon="2.986980">
        <ele>1316.780029</ele>
        <time>2010-01-01T07:40:08Z</time>
      </trkpt>
      <trkpt lat="44.626000" lon="2.987340">
        <ele>1316.742432</ele>
        <time>2010-01-01T07:40:21Z</time>
      </trkpt>
      <trkpt lat="44.626100" lon="2.987670">
        <ele>1316.625000</ele>
        <time>2010-01-01T07:40:31Z</time>
      </trkpt>
      <trkpt lat="44.626200" lon="2.988630">
        <ele>1317.118774</ele>
        <time>2010-01-01T07:40:58Z</time>
      </trkpt>
      <trkpt lat="44.626140" lon="2.988950">
        <ele>1317.203857</ele>
        <time>2010-01-01T07:41:08Z</time>
      </trkpt>
      <trkpt lat="44.625940" lon="2.989590">
        <ele>1317.542114</ele>
        <time>2010-01-01T07:41:28Z</time>
      </trkpt>
      <trkpt lat="44.625920" lon="2.989830">
        <ele>1317.656860</ele>
        <time>2010-01-01T07:41:35Z</time>
      </trkpt>
      <trkpt lat="44.626000" lon="2.990240">
        <ele>1318.991821</ele>
        <time>2010-01-01T07:41:47Z</time>
      </trkpt>
      <trkpt lat="44.626210" lon="2.990890">
        <ele>1319.828613</ele>
        <time>2010-01-01T07:42:07Z</time>
      </trkpt>
      <trkpt lat="44.626220" lon="2.991200">
        <ele>1320.06</ele>
        <time>2010-01-01T07:42:16Z</time>
      </trkpt>
      <trkpt lat="44.626170" lon="2.991450">
        <ele>1320.06</ele>
        <time>2010-01-01T07:42:23Z</time>
      </trkpt>
      <trkpt lat="44.626030" lon="2.991770">
        <ele>1320.708130</ele>
        <time>2010-01-01T07:42:34Z</time>
      </trkpt>
      <trkpt lat="44.625360" lon="2.992640">
        <ele>1323.344971</ele>
        <time>2010-01-01T07:43:11Z</time>
      </trkpt>
      <trkpt lat="44.625090" lon="2.992910">
        <ele>1323.890015</ele>
        <time>2010-01-01T07:43:24Z</time>
      </trkpt>
      <trkpt lat="44.624510" lon="2.993320">
        <ele>1323.89</ele>
        <time>2010-01-01T07:43:50Z</time>
      </trkpt>
      <trkpt lat="44.624217" lon="2.993646">
        <ele>1323.367554</ele>
        <time>2010-01-01T07:44:29Z</time>
      </trkpt>
      <trkpt lat="44.624047" lon="2.994102">
        <ele>1323.987549</ele>
        <time>2010-01-01T07:45:17Z</time>
      </trkpt>
      <trkpt lat="44.624010" lon="2.994460">
        <ele>1324.247559</ele>
        <time>2010-01-01T07:45:26Z</time>
      </trkpt>
      <trkpt lat="44.623840" lon="2.996140">
        <ele>1324.487549</ele>
        <time>2010-01-01T07:46:13Z</time>
      </trkpt>
      <trkpt lat="44.623860" lon="2.996440">
        <ele>1324.724976</ele>
        <time>2010-01-01T07:46:35Z</time>
      </trkpt>
      <trkpt lat="44.624220" lon="2.998000">
        <ele>1328.652222</ele>
        <time>2010-01-01T07:47:09Z</time>
      </trkpt>
      <trkpt lat="44.624320" lon="2.998760">
        <ele>1330.135986</ele>
        <time>2010-01-01T07:48:10Z</time>
      </trkpt>
      <trkpt lat="44.624340" lon="2.999950">
        <ele>1331.699951</ele>
        <time>2010-01-01T07:48:26Z</time>
      </trkpt>
      <trkpt lat="44.624020" lon="3.002050">
        <ele>1333.791260</ele>
        <time>2010-01-01T07:48:38Z</time>
      </trkpt>
      <trkpt lat="44.624030" lon="3.002620">
        <ele>1335.609497</ele>
        <time>2010-01-01T07:48:58Z</time>
      </trkpt>
      <trkpt lat="44.624090" lon="3.003020">
        <ele>1336.864990</ele>
        <time>2010-01-01T07:50:16Z</time>
      </trkpt>
      <trkpt lat="44.624300" lon="3.003660">
        <ele>1338.585693</ele>
        <time>2010-01-01T07:50:23Z</time>
      </trkpt>
      <trkpt lat="44.625390" lon="3.005960">
        <ele>1338.076294</ele>
        <time>2010-01-01T07:50:35Z</time>
      </trkpt>
      <trkpt lat="44.625500" lon="3.006140">
        <ele>1338.287476</ele>
        <time>2010-01-01T07:51:05Z</time>
      </trkpt>
      <trkpt lat="44.625740" lon="3.006380">
        <ele>1338.984985</ele>
        <time>2010-01-01T07:52:15Z</time>
      </trkpt>
      <trkpt lat="44.625982" lon="3.006465">
        <ele>1339.64</ele>
        <time>2010-01-01T07:52:50Z</time>
      </trkpt>
      <trkpt lat="44.625946" lon="3.006790">
        <ele>1338.560059</ele>
        <time>2010-01-01T07:53:35Z</time>
      </trkpt>
      <trkpt lat="44.625850" lon="3.007000">
        <ele>1337.677490</ele>
        <time>2010-01-01T07:54:30Z</time>
      </trkpt>
      <trkpt lat="44.624700" lon="3.008850">
        <ele>1330.160034</ele>
        <time>2010-01-01T07:55:02Z</time>
      </trkpt>
      <trkpt lat="44.624070" lon="3.009710">
        <ele>1328.390503</ele>
        <time>2010-01-01T07:56:34Z</time>
      </trkpt>
      <trkpt lat="44.623210" lon="3.010710">
        <ele>1325.243774</ele>
        <time>2010-01-01T07:57:03Z</time>
      </trkpt>
      <trkpt lat="44.622280" lon="3.012120">
        <ele>1321.52</ele>
        <time>2010-01-01T07:57:22Z</time>
      </trkpt>
      <trkpt lat="44.621650" lon="3.012840">
        <ele>1320.481812</ele>
        <time>2010-01-01T07:57:32Z</time>
      </trkpt>
      <trkpt lat="44.619790" lon="3.014700">
        <ele>1310.14</ele>
        <time>2010-01-01T07:57:57Z</time>
      </trkpt>
      <trkpt lat="44.619140" lon="3.015190">
        <ele>1312.255005</ele>
        <time>2010-01-01T07:58:03Z</time>
      </trkpt>
      <trkpt lat="44.618770" lon="3.015590">
        <ele>1315.990234</ele>
        <time>2010-01-01T07:58:32Z</time>
      </trkpt>
      <trkpt lat="44.618530" lon="3.015690">
        <ele>1317.114990</ele>
        <time>2010-01-01T07:59:19Z</time>
      </trkpt>
      <trkpt lat="44.617920" lon="3.015540">
        <ele>1320.51</ele>
        <time>2010-01-01T07:59:25Z</time>
      </trkpt>
      <trkpt lat="44.617770" lon="3.015550">
        <ele>1321.57</ele>
        <time>2010-01-01T07:59:35Z</time>
      </trkpt>
      <trkpt lat="44.617070" lon="3.015800">
        <ele>1327.46</ele>
        <time>2010-01-01T07:59:40Z</time>
      </trkpt>
      <trkpt lat="44.615880" lon="3.015870">
        <ele>1333.86</ele>
        <time>2010-01-01T07:59:45Z</time>
      </trkpt>
      <trkpt lat="44.615750" lon="3.015960">
        <ele>1334.73</ele>
        <time>2010-01-01T07:59:54Z</time>
      </trkpt>
      <trkpt lat="44.615570" lon="3.016210">
        <ele>1336.32</ele>
        <time>2010-01-01T08:00:04Z</time>
      </trkpt>
      <trkpt lat="44.615460" lon="3.016290">
        <ele>1337.07</ele>
        <time>2010-01-01T08:00:13Z</time>
      </trkpt>
      <trkpt lat="44.615330" lon="3.016310">
        <ele>1337.72</ele>
        <time>2010-01-01T08:00:30Z</time>
      </trkpt>
      <trkpt lat="44.615130" lon="3.016220">
        <ele>1338.33</ele>
        <time>2010-01-01T08:01:23Z</time>
      </trkpt>
      <trkpt lat="44.614960" lon="3.015960">
        <ele>1338.28</ele>
        <time>2010-01-01T08:02:06Z</time>
      </trkpt>
      <trkpt lat="44.614740" lon="3.015910">
        <ele>1338.20</ele>
        <time>2010-01-01T08:02:30Z</time>
      </trkpt>
      <trkpt lat="44.614340" lon="3.016160">
        <ele>1339.81</ele>
        <time>2010-01-01T08:02:44Z</time>
      </trkpt>
      <trkpt lat="44.613200" lon="3.017110">
        <ele>1344.03</ele>
        <time>2010-01-01T08:03:02Z</time>
      </trkpt>
      <trkpt lat="44.612250" lon="3.017780">
        <ele>1344.03</ele>
        <time>2010-01-01T08:03:20Z</time>
      </trkpt>
      <trkpt lat="44.611730" lon="3.018220">
        <ele>1342.17</ele>
        <time>2010-01-01T08:03:33Z</time>
      </trkpt>
      <trkpt lat="44.611400" lon="3.018410">
        <ele>1338.95</ele>
        <time>2010-01-01T08:03:48Z</time>
      </trkpt>
      <trkpt lat="44.611080" lon="3.018810">
        <ele>1334.27</ele>
        <time>2010-01-01T08:03:57Z</time>
      </trkpt>
      <trkpt lat="44.610680" lon="3.019090">
        <ele>1332.04</ele>
        <time>2010-01-01T08:04:02Z</time>
      </trkpt>
      <trkpt lat="44.610460" lon="3.019470">
        <ele>1331.305054</ele>
        <time>2010-01-01T08:04:26Z</time>
      </trkpt>
      <trkpt lat="44.610100" lon="3.019600">
        <ele>1330.898071</ele>
        <time>2010-01-01T08:04:53Z</time>
      </trkpt>
      <trkpt lat="44.609910" lon="3.019740">
        <ele>1330.551270</ele>
        <time>2010-01-01T08:05:17Z</time>
      </trkpt>
      <trkpt lat="44.609810" lon="3.019860">
        <ele>1330.41</ele>
        <time>2010-01-01T08:06:09Z</time>
      </trkpt>
      <trkpt lat="44.609480" lon="3.020560">
        <ele>1330.41</ele>
        <time>2010-01-01T08:06:46Z</time>
      </trkpt>
      <trkpt lat="44.608980" lon="3.021210">
        <ele>1334.47</ele>
        <time>2010-01-01T08:06:53Z</time>
      </trkpt>
      <trkpt lat="44.608780" lon="3.021970">
        <ele>1336.267822</ele>
        <time>2010-01-01T08:07:07Z</time>
      </trkpt>
      <trkpt lat="44.607920" lon="3.023360">
        <ele>1344.721313</ele>
        <time>2010-01-01T08:07:17Z</time>
      </trkpt>
      <trkpt lat="44.607440" lon="3.024450">
        <ele>1351.60</ele>
        <time>2010-01-01T08:07:42Z</time>
      </trkpt>
      <trkpt lat="44.607430" lon="3.024720">
        <ele>1351.60</ele>
        <time>2010-01-01T08:07:51Z</time>
      </trkpt>
      <trkpt lat="44.607520" lon="3.025200">
        <ele>1351.98</ele>
        <time>2010-01-01T08:07:56Z</time>
      </trkpt>
      <trkpt lat="44.607530" lon="3.025530">
        <ele>1351.862549</ele>
        <time>2010-01-01T08:08:03Z</time>
      </trkpt>
      <trkpt lat="44.607800" lon="3.026340">
        <ele>1349.582520</ele>
        <time>2010-01-01T08:08:10Z</time>
      </trkpt>
      <trkpt lat="44.607840" lon="3.026640">
        <ele>1349.165649</ele>
        <time>2010-01-01T08:08:35Z</time>
      </trkpt>
      <trkpt lat="44.607820" lon="3.026810">
        <ele>1349.174561</ele>
        <time>2010-01-01T08:08:50Z</time>
      </trkpt>
      <trkpt lat="44.607710" lon="3.027010">
        <ele>1349.955200</ele>
        <time>2010-01-01T08:08:57Z</time>
      </trkpt>
      <trkpt lat="44.607550" lon="3.027130">
        <ele>1350.448486</ele>
        <time>2010-01-01T08:09:17Z</time>
      </trkpt>
      <trkpt lat="44.606950" lon="3.027370">
        <ele>1348.835327</ele>
        <time>2010-01-01T08:09:25Z</time>
      </trkpt>
      <trkpt lat="44.606610" lon="3.027590">
        <ele>1344.890015</ele>
        <time>2010-01-01T08:10:26Z</time>
      </trkpt>
      <trkpt lat="44.606450" lon="3.027590">
        <ele>1344.160034</ele>
        <time>2010-01-01T08:10:59Z</time>
      </trkpt>
      <trkpt lat="44.605960" lon="3.027420">
        <ele>1344.054932</ele>
        <time>2010-01-01T08:11:20Z</time>
      </trkpt>
      <trkpt lat="44.605770" lon="3.027400">
        <ele>1343.70</ele>
        <time>2010-01-01T08:11:47Z</time>
      </trkpt>
      <trkpt lat="44.604290" lon="3.027980">
        <ele>1335.016235</ele>
        <time>2010-01-01T08:12:10Z</time>
      </trkpt>
      <trkpt lat="44.603470" lon="3.027910">
        <ele>1330.774780</ele>
        <time>2010-01-01T08:12:46Z</time>
      </trkpt>
      <trkpt lat="44.602970" lon="3.027690">
        <ele>1327.95</ele>
        <time>2010-01-01T08:13:09Z</time>
      </trkpt>
      <trkpt lat="44.602310" lon="3.027560">
        <ele>1327.95</ele>
        <time>2010-01-01T08:13:38Z</time>
      </trkpt>
      <trkpt lat="44.601840" lon="3.027090">
        <ele>1327.95</ele>
        <time>2010-01-01T08:13:50Z</time>
      </trkpt>
      <trkpt lat="44.601040" lon="3.026510">
        <ele>1330.03</ele>
        <time>2010-01-01T08:14:15Z</time>
      </trkpt>
      <trkpt lat="44.600460" lon="3.026620">
        <ele>1327.818848</ele>
        <time>2010-01-01T08:14:36Z</time>
      </trkpt>
      <trkpt lat="44.599760" lon="3.026320">
        <ele>1326.814941</ele>
        <time>2010-01-01T08:14:50Z</time>
      </trkpt>
      <trkpt lat="44.599500" lon="3.026140">
        <ele>1326.390259</ele>
        <time>2010-01-01T08:14:54Z</time>
      </trkpt>
      <trkpt lat="44.599000" lon="3.025620">
        <ele>1325.449951</ele>
        <time>2010-01-01T08:15:06Z</time>
      </trkpt>
      <trkpt lat="44.598890" lon="3.024890">
        <ele>1322.390015</ele>
        <time>2010-01-01T08:15:17Z</time>
      </trkpt>
      <trkpt lat="44.598960" lon="3.024400">
        <ele>1318.952515</ele>
        <time>2010-01-01T08:15:22Z</time>
      </trkpt>
      <trkpt lat="44.598940" lon="3.024290">
        <ele>1318.569946</ele>
        <time>2010-01-01T08:15:40Z</time>
      </trkpt>
      <trkpt lat="44.598750" lon="3.023950">
        <ele>1318.243774</ele>
        <time>2010-01-01T08:15:47Z</time>
      </trkpt>
      <trkpt lat="44.598650" lon="3.023600">
        <ele>1317.010010</ele>
        <time>2010-01-01T08:16:17Z</time>
      </trkpt>
      <trkpt lat="44.598630" lon="3.023410">
        <ele>1315.989990</ele>
        <time>2010-01-01T08:16:38Z</time>
      </trkpt>
      <trkpt lat="44.598710" lon="3.022790">
        <ele>1312.737549</ele>
        <time>2010-01-01T08:18:14Z</time>
      </trkpt>
      <trkpt lat="44.598670" lon="3.022570">
        <ele>1312.400024</ele>
        <time>2010-01-01T08:18:30Z</time>
      </trkpt>
      <trkpt lat="44.598150" lon="3.021790">
        <ele>1312.90</ele>
        <time>2010-01-01T08:18:44Z</time>
      </trkpt>
      <trkpt lat="44.597880" lon="3.021180">
        <ele>1312.90</ele>
        <time>2010-01-01T08:19:48Z</time>
      </trkpt>
      <trkpt lat="44.597709" lon="3.020872">
        <ele>1312.787109</ele>
        <time>2010-01-01T08:20:25Z</time>
      </trkpt>
      <trkpt lat="44.597368" lon="3.020638">
        <ele>1313.85</ele>
        <time>2010-01-01T08:20:54Z</time>
      </trkpt>
      <trkpt lat="44.596865" lon="3.020651">
        <ele>1316.133057</ele>
        <time>2010-01-01T08:21:23Z</time>
      </trkpt>
      <trkpt lat="44.595690" lon="3.021390">
        <ele>1321.965942</ele>
        <time>2010-01-01T08:21:35Z</time>
      </trkpt>
      <trkpt lat="44.595290" lon="3.021550">
        <ele>1323.074951</ele>
        <time>2010-01-01T08:21:45Z</time>
      </trkpt>
      <trkpt lat="44.594960" lon="3.021480">
        <ele>1323.192139</ele>
        <time>2010-01-01T08:21:54Z</time>
      </trkpt>
      <trkpt lat="44.593420" lon="3.020840">
        <ele>1327.794678</ele>
        <time>2010-01-01T08:22:03Z</time>
      </trkpt>
      <trkpt lat="44.592510" lon="3.020750">
        <ele>1331.304077</ele>
        <time>2010-01-01T08:22:13Z</time>
      </trkpt>
      <trkpt lat="44.591870" lon="3.020250">
        <ele>1331.469971</ele>
        <time>2010-01-01T08:22:20Z</time>
      </trkpt>
      <trkpt lat="44.591280" lon="3.019660">
        <ele>1331.436646</ele>
        <time>2010-01-01T08:22:31Z</time>
      </trkpt>
      <trkpt lat="44.591080" lon="3.019320">
        <ele>1331.025024</ele>
        <time>2010-01-01T08:22:38Z</time>
      </trkpt>
      <trkpt lat="44.590960" lon="3.019010">
        <ele>1330.854980</ele>
        <time>2010-01-01T08:23:25Z</time>
      </trkpt>
      <trkpt lat="44.590880" lon="3.018720">
        <ele>1330.484985</ele>
        <time>2010-01-01T08:23:39Z</time>
      </trkpt>
      <trkpt lat="44.590860" lon="3.018420">
        <ele>1330.402710</ele>
        <time>2010-01-01T08:23:49Z</time>
      </trkpt>
      <trkpt lat="44.590780" lon="3.018080">
        <ele>1330.909424</ele>
        <time>2010-01-01T08:24:16Z</time>
      </trkpt>
      <trkpt lat="44.590680" lon="3.017900">
        <ele>1332.366943</ele>
        <time>2010-01-01T08:24:27Z</time>
      </trkpt>
      <trkpt lat="44.590410" lon="3.017750">
        <ele>1334.157471</ele>
        <time>2010-01-01T08:24:59Z</time>
      </trkpt>
      <trkpt lat="44.590230" lon="3.017750">
        <ele>1334.950073</ele>
        <time>2010-01-01T08:25:05Z</time>
      </trkpt>
      <trkpt lat="44.589140" lon="3.018330">
        <ele>1331.254395</ele>
        <time>2010-01-01T08:25:19Z</time>
      </trkpt>
      <trkpt lat="44.588840" lon="3.018600">
        <ele>1330.321899</ele>
        <time>2010-01-01T08:25:34Z</time>
      </trkpt>
      <trkpt lat="44.588680" lon="3.018860">
        <ele>1328.042847</ele>
        <time>2010-01-01T08:25:45Z</time>
      </trkpt>
      <trkpt lat="44.588590" lon="3.019790">
        <ele>1326.688599</ele>
        <time>2010-01-01T08:26:02Z</time>
      </trkpt>
      <trkpt lat="44.588500" lon="3.020140">
        <ele>1325.644287</ele>
        <time>2010-01-01T08:26:10Z</time>
      </trkpt>
      <trkpt lat="44.587900" lon="3.020880">
        <ele>1318.73</ele>
        <time>2010-01-01T08:26:41Z</time>
      </trkpt>
      <trkpt lat="44.587820" lon="3.021080">
        <ele>1317.642822</ele>
        <time>2010-01-01T08:26:52Z</time>
      </trkpt>
      <trkpt lat="44.587740" lon="3.021550">
        <ele>1317.886597</ele>
        <time>2010-01-01T08:27:41Z</time>
      </trkpt>
      <trkpt lat="44.587470" lon="3.021900">
        <ele>1315.331543</ele>
        <time>2010-01-01T08:27:48Z</time>
      </trkpt>
      <trkpt lat="44.587210" lon="3.022050">
        <ele>1313.650024</ele>
        <time>2010-01-01T08:28:01Z</time>
      </trkpt>
      <trkpt lat="44.586790" lon="3.022190">
        <ele>1311.683228</ele>
        <time>2010-01-01T08:28:24Z</time>
      </trkpt>
      <trkpt lat="44.586600" lon="3.022180">
        <ele>1310.600586</ele>
        <time>2010-01-01T08:29:15Z</time>
      </trkpt>
      <trkpt lat="44.585840" lon="3.021960">
        <ele>1306.776245</ele>
        <time>2010-01-01T08:29:27Z</time>
      </trkpt>
      <trkpt lat="44.585580" lon="3.022090">
        <ele>1305.915039</ele>
        <time>2010-01-01T08:29:50Z</time>
      </trkpt>
      <trkpt lat="44.584520" lon="3.022950">
        <ele>1300.540161</ele>
        <time>2010-01-01T08:30:21Z</time>
      </trkpt>
      <trkpt lat="44.584340" lon="3.022960">
        <ele>1298.210449</ele>
        <time>2010-01-01T08:30:21Z</time>
      </trkpt>
      <trkpt lat="44.584020" lon="3.022880">
        <ele>1295.493652</ele>
        <time>2010-01-01T08:30:47Z</time>
      </trkpt>
      <trkpt lat="44.583490" lon="3.022620">
        <ele>1292.838745</ele>
        <time>2010-01-01T08:31:16Z</time>
      </trkpt>
      <trkpt lat="44.582410" lon="3.021610">
        <ele>1293.456055</ele>
        <time>2010-01-01T08:31:26Z</time>
      </trkpt>
      <trkpt lat="44.582190" lon="3.021350">
        <ele>1293.930298</ele>
        <time>2010-01-01T08:32:16Z</time>
      </trkpt>
      <trkpt lat="44.581860" lon="3.020700">
        <ele>1292.400391</ele>
        <time>2010-01-01T08:32:49Z</time>
      </trkpt>
      <trkpt lat="44.581550" lon="3.019690">
        <ele>1287.810059</ele>
        <time>2010-01-01T08:33:45Z</time>
      </trkpt>
      <trkpt lat="44.581550" lon="3.019690">
        <ele>1287.810059</ele>
        <time>2010-01-01T08:34:34Z</time>
      </trkpt>
      <trkpt lat="44.581270" lon="3.018880">
        <ele>1285.611450</ele>
        <time>2010-01-01T08:35:29Z</time>
      </trkpt>
      <trkpt lat="44.581050" lon="3.017890">
        <ele>1282.554810</ele>
        <time>2010-01-01T08:35:34Z</time>
      </trkpt>
      <trkpt lat="44.580950" lon="3.017600">
        <ele>1283.87</ele>
        <time>2010-01-01T08:35:50Z</time>
      </trkpt>
      <trkpt lat="44.580280" lon="3.016100">
        <ele>1283.87</ele>
        <time>2010-01-01T08:36:08Z</time>
      </trkpt>
      <trkpt lat="44.579670" lon="3.015320">
        <ele>1286.81</ele>
        <time>2010-01-01T08:36:17Z</time>
      </trkpt>
      <trkpt lat="44.579280" lon="3.013450">
        <ele>1286.513794</ele>
        <time>2010-01-01T08:37:00Z</time>
      </trkpt>
      <trkpt lat="44.578730" lon="3.011880">
        <ele>1288.910034</ele>
        <time>2010-01-01T08:37:13Z</time>
      </trkpt>
      <trkpt lat="44.578570" lon="3.009990">
        <ele>1288.272949</ele>
        <time>2010-01-01T08:38:00Z</time>
      </trkpt>
      <trkpt lat="44.578600" lon="3.009800">
        <ele>1287.515137</ele>
        <time>2010-01-01T08:39:20Z</time>
      </trkpt>
      <trkpt lat="44.578790" lon="3.009300">
        <ele>1284.914429</ele>
        <time>2010-01-01T08:39:44Z</time>
      </trkpt>
      <trkpt lat="44.578930" lon="3.008720">
        <ele>1283.214966</ele>
        <time>2010-01-01T08:40:08Z</time>
      </trkpt>
      <trkpt lat="44.578970" lon="3.008400">
        <ele>1282.853882</ele>
        <time>2010-01-01T08:40:20Z</time>
      </trkpt>
      <trkpt lat="44.579060" lon="3.006920">
        <ele>1279.770996</ele>
        <time>2010-01-01T08:41:34Z</time>
      </trkpt>
      <trkpt lat="44.579050" lon="3.006460">
        <ele>1275.834717</ele>
        <time>2010-01-01T08:41:58Z</time>
      </trkpt>
      <trkpt lat="44.578958" lon="3.006204">
        <ele>1272.974609</ele>
        <time>2010-01-01T08:42:22Z</time>
      </trkpt>
      <trkpt lat="44.578120" lon="3.005470">
        <ele>1272.564941</ele>
        <time>2010-01-01T08:42:36Z</time>
      </trkpt>
      <trkpt lat="44.577283" lon="3.004511">
        <ele>1263.07</ele>
        <time>2010-01-01T08:43:14Z</time>
      </trkpt>
      <trkpt lat="44.576410" lon="3.004100">
        <ele>1263.07</ele>
        <time>2010-01-01T08:43:21Z</time>
      </trkpt>
      <trkpt lat="44.575900" lon="3.003640">
        <ele>1256.859009</ele>
        <time>2010-01-01T08:43:29Z</time>
      </trkpt>
      <trkpt lat="44.575430" lon="3.003130">
        <ele>1250.639893</ele>
        <time>2010-01-01T08:44:30Z</time>
      </trkpt>
      <trkpt lat="44.575260" lon="3.002790">
        <ele>1245.516479</ele>
        <time>2010-01-01T08:45:12Z</time>
      </trkpt>
      <trkpt lat="44.573820" lon="3.001180">
        <ele>1237.560425</ele>
        <time>2010-01-01T08:45:18Z</time>
      </trkpt>
      <trkpt lat="44.573410" lon="3.000560">
        <ele>1232.457886</ele>
        <time>2010-01-01T08:45:26Z</time>
      </trkpt>
      <trkpt lat="44.573100" lon="2.999850">
        <ele>1226.433960</ele>
        <time>2010-01-01T08:46:11Z</time>
      </trkpt>
      <trkpt lat="44.573030" lon="2.999340">
        <ele>1222.412476</ele>
        <time>2010-01-01T08:46:29Z</time>
      </trkpt>
      <trkpt lat="44.572980" lon="2.998030">
        <ele>1213.998901</ele>
        <time>2010-01-01T08:46:37Z</time>
      </trkpt>
      <trkpt lat="44.572910" lon="2.997800">
        <ele>1213.14</ele>
        <time>2010-01-01T08:47:51Z</time>
      </trkpt>
      <trkpt lat="44.572770" lon="2.997610">
        <ele>1212.722412</ele>
        <time>2010-01-01T08:49:15Z</time>
      </trkpt>
      <trkpt lat="44.571490" lon="2.996450">
        <ele>1203.734497</ele>
        <time>2010-01-01T08:49:37Z</time>
      </trkpt>
      <trkpt lat="44.571029" lon="2.996121">
        <ele>1199.56</ele>
        <time>2010-01-01T08:49:51Z</time>
      </trkpt>
      <trkpt lat="44.570881" lon="2.996147">
        <ele>1199.56</ele>
        <time>2010-01-01T08:51:29Z</time>
      </trkpt>
      <trkpt lat="44.570600" lon="2.996630">
        <ele>1199.56</ele>
        <time>2010-01-01T08:51:44Z</time>
      </trkpt>
      <trkpt lat="44.570460" lon="2.996680">
        <ele>1199.050049</ele>
        <time>2010-01-01T08:51:57Z</time>
      </trkpt>
      <trkpt lat="44.570270" lon="2.996640">
        <ele>1197.964966</ele>
        <time>2010-01-01T08:53:05Z</time>
      </trkpt>
      <trkpt lat="44.569190" lon="2.996160">
        <ele>1191.752441</ele>
        <time>2010-01-01T08:53:16Z</time>
      </trkpt>
      <trkpt lat="44.568740" lon="2.996060">
        <ele>1187.968262</ele>
        <time>2010-01-01T08:53:47Z</time>
      </trkpt>
      <trkpt lat="44.568570" lon="2.995970">
        <ele>1185.685791</ele>
        <time>2010-01-01T08:53:55Z</time>
      </trkpt>
      <trkpt lat="44.567100" lon="2.994380">
        <ele>1172.334961</ele>
        <time>2010-01-01T08:54:05Z</time>
      </trkpt>
      <trkpt lat="44.565180" lon="2.993160">
        <ele>1165.275024</ele>
        <time>2010-01-01T08:54:12Z</time>
      </trkpt>
      <trkpt lat="44.564700" lon="2.992810">
        <ele>1162.335571</ele>
        <time>2010-01-01T08:54:33Z</time>
      </trkpt>
      <trkpt lat="44.564450" lon="2.992480">
        <ele>1160.982910</ele>
        <time>2010-01-01T08:54:36Z</time>
      </trkpt>
      <trkpt lat="44.563310" lon="2.989440">
        <ele>1152.145020</ele>
        <time>2010-01-01T08:54:39Z</time>
      </trkpt>
      <trkpt lat="44.563070" lon="2.989010">
        <ele>1152.200073</ele>
        <time>2010-01-01T08:54:51Z</time>
      </trkpt>
      <trkpt lat="44.562820" lon="2.988760">
        <ele>1150.252563</ele>
        <time>2010-01-01T08:56:39Z</time>
      </trkpt>
      <trkpt lat="44.561210" lon="2.987970">
        <ele>1137.893066</ele>
        <time>2010-01-01T08:56:48Z</time>
      </trkpt>
      <trkpt lat="44.560960" lon="2.987770">
        <ele>1136.102417</ele>
        <time>2010-01-01T08:56:59Z</time>
      </trkpt>
      <trkpt lat="44.560650" lon="2.986800">
        <ele>1134.516235</ele>
        <time>2010-01-01T08:57:30Z</time>
      </trkpt>
      <trkpt lat="44.560650" lon="2.986500">
        <ele>1132.34</ele>
        <time>2010-01-01T08:57:56Z</time>
      </trkpt>
      <trkpt lat="44.560780" lon="2.986230">
        <ele>1130.823242</ele>
        <time>2010-01-01T08:58:41Z</time>
      </trkpt>
      <trkpt lat="44.560940" lon="2.986090">
        <ele>1129.903442</ele>
        <time>2010-01-01T08:59:10Z</time>
      </trkpt>
      <trkpt lat="44.561440" lon="2.985840">
        <ele>1128.144531</ele>
        <time>2010-01-01T08:59:47Z</time>
      </trkpt>
      <trkpt lat="44.561480" lon="2.985750">
        <ele>1127.009399</ele>
        <time>2010-01-01T09:00:11Z</time>
      </trkpt>
      <trkpt lat="44.561470" lon="2.985660">
        <ele>1125.738281</ele>
        <time>2010-01-01T09:00:17Z</time>
      </trkpt>
      <trkpt lat="44.561240" lon="2.985400">
        <ele>1121.888550</ele>
        <time>2010-01-01T09:00:33Z</time>
      </trkpt>
      <trkpt lat="44.558900" lon="2.983520">
        <ele>1101.687256</ele>
        <time>2010-01-01T09:01:26Z</time>
      </trkpt>
      <trkpt lat="44.558720" lon="2.983330">
        <ele>1100.282837</ele>
        <time>2010-01-01T09:01:50Z</time>
      </trkpt>
      <trkpt lat="44.558540" lon="2.983040">
        <ele>1098.045898</ele>
        <time>2010-01-01T09:02:03Z</time>
      </trkpt>
      <trkpt lat="44.558080" lon="2.982150">
        <ele>1091.166748</ele>
        <time>2010-01-01T09:02:08Z</time>
      </trkpt>
      <trkpt lat="44.557750" lon="2.981370">
        <ele>1086.036499</ele>
        <time>2010-01-01T09:02:27Z</time>
      </trkpt>
      <trkpt lat="44.557630" lon="2.979790">
        <ele>1076.151123</ele>
        <time>2010-01-01T09:02:48Z</time>
      </trkpt>
      <trkpt lat="44.557420" lon="2.978830">
        <ele>1071.138184</ele>
        <time>2010-01-01T09:04:18Z</time>
      </trkpt>
      <trkpt lat="44.557440" lon="2.977530">
        <ele>1063.172485</ele>
        <time>2010-01-01T09:04:31Z</time>
      </trkpt>
      <trkpt lat="44.557370" lon="2.976700">
        <ele>1059.934937</ele>
        <time>2010-01-01T09:05:08Z</time>
      </trkpt>
      <trkpt lat="44.557320" lon="2.976490">
        <ele>1057.310059</ele>
        <time>2010-01-01T09:05:56Z</time>
      </trkpt>
      <trkpt lat="44.557060" lon="2.976080">
        <ele>1052.772461</ele>
        <time>2010-01-01T09:06:04Z</time>
      </trkpt>
      <trkpt lat="44.555810" lon="2.975460">
        <ele>1040.344116</ele>
        <time>2010-01-01T09:06:45Z</time>
      </trkpt>
      <trkpt lat="44.555330" lon="2.974940">
        <ele>1031.292236</ele>
        <time>2010-01-01T09:06:55Z</time>
      </trkpt>
      <trkpt lat="44.555130" lon="2.974610">
        <ele>1029.069946</ele>
        <time>2010-01-01T09:08:06Z</time>
      </trkpt>
      <trkpt lat="44.555090" lon="2.974420">
        <ele>1027.540039</ele>
        <time>2010-01-01T09:08:21Z</time>
      </trkpt>
      <trkpt lat="44.555010" lon="2.973780">
        <ele>1023.522522</ele>
        <time>2010-01-01T09:08:45Z</time>
      </trkpt>
      <trkpt lat="44.554930" lon="2.973080">
        <ele>1019.47</ele>
        <time>2010-01-01T09:09:17Z</time>
      </trkpt>
      <trkpt lat="44.554430" lon="2.969980">
        <ele>1007.734802</ele>
        <time>2010-01-01T09:09:38Z</time>
      </trkpt>
      <trkpt lat="44.554290" lon="2.969600">
        <ele>1006.337402</ele>
        <time>2010-01-01T09:09:51Z</time>
      </trkpt>
      <trkpt lat="44.553690" lon="2.968600">
        <ele>1005.612000</ele>
        <time>2010-01-01T09:10:04Z</time>
      </trkpt>
      <trkpt lat="44.553030" lon="2.967210">
        <ele>1002.136230</ele>
        <time>2010-01-01T09:10:34Z</time>
      </trkpt>
      <trkpt lat="44.552950" lon="2.966920">
        <ele>1001.311279</ele>
        <time>2010-01-01T09:10:58Z</time>
      </trkpt>
      <trkpt lat="44.552810" lon="2.965500">
        <ele>997.285461</ele>
        <time>2010-01-01T09:11:08Z</time>
      </trkpt>
      <trkpt lat="44.552620" lon="2.965270">
        <ele>994.84</ele>
        <time>2010-01-01T09:11:26Z</time>
      </trkpt>
      <trkpt lat="44.550990" lon="2.964320">
        <ele>994.84</ele>
        <time>2010-01-01T09:11:44Z</time>
      </trkpt>
      <trkpt lat="44.550660" lon="2.964060">
        <ele>994.84</ele>
        <time>2010-01-01T09:12:06Z</time>
      </trkpt>
      <trkpt lat="44.550200" lon="2.963520">
        <ele>985.65</ele>
        <time>2010-01-01T09:12:17Z</time>
      </trkpt>
      <trkpt lat="44.549680" lon="2.962660">
        <ele>992.505371</ele>
        <time>2010-01-01T09:12:37Z</time>
      </trkpt>
      <trkpt lat="44.549380" lon="2.962090">
        <ele>994.250000</ele>
        <time>2010-01-01T09:13:05Z</time>
      </trkpt>
      <trkpt lat="44.549240" lon="2.961670">
        <ele>994.916260</ele>
        <time>2010-01-01T09:13:42Z</time>
      </trkpt>
      <trkpt lat="44.549170" lon="2.961210">
        <ele>993.702515</ele>
        <time>2010-01-01T09:13:56Z</time>
      </trkpt>
      <trkpt lat="44.549090" lon="2.960170">
        <ele>989.692017</ele>
        <time>2010-01-01T09:14:35Z</time>
      </trkpt>
      <trkpt lat="44.549160" lon="2.959330">
        <ele>988.035828</ele>
        <time>2010-01-01T09:15:30Z</time>
      </trkpt>
      <trkpt lat="44.549030" lon="2.959020">
        <ele>986.259827</ele>
        <time>2010-01-01T09:15:37Z</time>
      </trkpt>
      <trkpt lat="44.548670" lon="2.958650">
        <ele>984.439880</ele>
        <time>2010-01-01T09:16:21Z</time>
      </trkpt>
      <trkpt lat="44.548290" lon="2.958370">
        <ele>981.745544</ele>
        <time>2010-01-01T09:20:41Z</time>
      </trkpt>
      <trkpt lat="44.547760" lon="2.958110">
        <ele>978.973938</ele>
        <time>2010-01-01T09:21:03Z</time>
      </trkpt>
      <trkpt lat="44.547530" lon="2.957920">
        <ele>978.843384</ele>
        <time>2010-01-01T09:21:17Z</time>
      </trkpt>
      <trkpt lat="44.547240" lon="2.957350">
        <ele>977.64</ele>
        <time>2010-01-01T09:21:37Z</time>
      </trkpt>
      <trkpt lat="44.546710" lon="2.956710">
        <ele>975.176270</ele>
        <time>2010-01-01T09:21:58Z</time>
      </trkpt>
      <trkpt lat="44.546210" lon="2.955590">
        <ele>970.839355</ele>
        <time>2010-01-01T09:22:17Z</time>
      </trkpt>
      <trkpt lat="44.545940" lon="2.955300">
        <ele>969.474976</ele>
        <time>2010-01-01T09:22:33Z</time>
      </trkpt>
      <trkpt lat="44.545100" lon="2.954620">
        <ele>965.842712</ele>
        <time>2010-01-01T09:22:45Z</time>
      </trkpt>
      <trkpt lat="44.544070" lon="2.953350">
        <ele>961.768799</ele>
        <time>2010-01-01T09:22:58Z</time>
      </trkpt>
      <trkpt lat="44.543900" lon="2.953220">
        <ele>961.128967</ele>
        <time>2010-01-01T09:23:17Z</time>
      </trkpt>
      <trkpt lat="44.542890" lon="2.952660">
        <ele>958.049988</ele>
        <time>2010-01-01T09:24:02Z</time>
      </trkpt>
      <trkpt lat="44.542464" lon="2.952494">
        <ele>954.577515</ele>
        <time>2010-01-01T09:25:12Z</time>
      </trkpt>
      <trkpt lat="44.542104" lon="2.952559">
        <ele>952.837524</ele>
        <time>2010-01-01T09:25:41Z</time>
      </trkpt>
      <trkpt lat="44.540936" lon="2.952989">
        <ele>950.880493</ele>
        <time>2010-01-01T09:26:28Z</time>
      </trkpt>
      <trkpt lat="44.540586" lon="2.953067">
        <ele>950.687500</ele>
        <time>2010-01-01T09:27:00Z</time>
      </trkpt>
      <trkpt lat="44.540080" lon="2.952937">
        <ele>948.587158</ele>
        <time>2010-01-01T09:27:11Z</time>
      </trkpt>
      <trkpt lat="44.539532" lon="2.952690">
        <ele>946.804321</ele>
        <time>2010-01-01T09:27:29Z</time>
      </trkpt>
      <trkpt lat="44.538958" lon="2.952312">
        <ele>944.210449</ele>
        <time>2010-01-01T09:27:51Z</time>
      </trkpt>
      <trkpt lat="44.538535" lon="2.951830">
        <ele>942.863220</ele>
        <time>2010-01-01T09:28:02Z</time>
      </trkpt>
      <trkpt lat="44.538122" lon="2.950983">
        <ele>940.024048</ele>
        <time>2010-01-01T09:28:09Z</time>
      </trkpt>
      <trkpt lat="44.537590" lon="2.949630">
        <ele>937.946167</ele>
        <time>2010-01-01T09:28:15Z</time>
      </trkpt>
      <trkpt lat="44.537390" lon="2.948920">
        <ele>937.797607</ele>
        <time>2010-01-01T09:28:19Z</time>
      </trkpt>
      <trkpt lat="44.537300" lon="2.948430">
        <ele>937.714600</ele>
        <time>2010-01-01T09:29:01Z</time>
      </trkpt>
      <trkpt lat="44.537240" lon="2.947730">
        <ele>937.353760</ele>
        <time>2010-01-01T09:29:52Z</time>
      </trkpt>
      <trkpt lat="44.537270" lon="2.947010">
        <ele>936.196228</ele>
        <time>2010-01-01T09:30:40Z</time>
      </trkpt>
      <trkpt lat="44.537380" lon="2.946380">
        <ele>933.77</ele>
        <time>2010-01-01T09:30:54Z</time>
      </trkpt>
      <trkpt lat="44.537420" lon="2.945800">
        <ele>931.757507</ele>
        <time>2010-01-01T09:32:10Z</time>
      </trkpt>
      <trkpt lat="44.537430" lon="2.945370">
        <ele>929.718750</ele>
        <time>2010-01-01T09:34:22Z</time>
      </trkpt>
      <trkpt lat="44.537380" lon="2.944920">
        <ele>928.011475</ele>
        <time>2010-01-01T09:35:06Z</time>
      </trkpt>
      <trkpt lat="44.537240" lon="2.944290">
        <ele>925.964783</ele>
        <time>2010-01-01T09:35:19Z</time>
      </trkpt>
      <trkpt lat="44.536680" lon="2.942950">
        <ele>919.082520</ele>
        <time>2010-01-01T09:35:57Z</time>
      </trkpt>
      <trkpt lat="44.536237" lon="2.941109">
        <ele>907.808411</ele>
        <time>2010-01-01T09:36:30Z</time>
      </trkpt>
      <trkpt lat="44.536010" lon="2.940690">
        <ele>906.320251</ele>
        <time>2010-01-01T09:36:37Z</time>
      </trkpt>
      <trkpt lat="44.535520" lon="2.939910">
        <ele>903.895630</ele>
        <time>2010-01-01T09:37:42Z</time>
      </trkpt>
      <trkpt lat="44.534660" lon="2.938790">
        <ele>895.596558</ele>
        <time>2010-01-01T09:37:49Z</time>
      </trkpt>
      <trkpt lat="44.534020" lon="2.938110">
        <ele>890.041809</ele>
        <time>2010-01-01T09:38:01Z</time>
      </trkpt>
      <trkpt lat="44.533830" lon="2.937850">
        <ele>887.417480</ele>
        <time>2010-01-01T09:38:14Z</time>
      </trkpt>
      <trkpt lat="44.533580" lon="2.937340">
        <ele>886.738770</ele>
        <time>2010-01-01T09:38:24Z</time>
      </trkpt>
      <trkpt lat="44.533330" lon="2.936650">
        <ele>885.082764</ele>
        <time>2010-01-01T09:38:44Z</time>
      </trkpt>
      <trkpt lat="44.533100" lon="2.936450">
        <ele>883.579346</ele>
        <time>2010-01-01T09:38:55Z</time>
      </trkpt>
      <trkpt lat="44.532940" lon="2.936530">
        <ele>878.217957</ele>
        <time>2010-01-01T09:41:06Z</time>
      </trkpt>
      <trkpt lat="44.532870" lon="2.936710">
        <ele>874.432373</ele>
        <time>2010-01-01T09:41:28Z</time>
      </trkpt>
      <trkpt lat="44.532870" lon="2.936860">
        <ele>873.091980</ele>
        <time>2010-01-01T09:42:14Z</time>
      </trkpt>
      <trkpt lat="44.533240" lon="2.938230">
        <ele>870.514282</ele>
        <time>2010-01-01T09:42:22Z</time>
      </trkpt>
      <trkpt lat="44.533620" lon="2.939960">
        <ele>864.941772</ele>
        <time>2010-01-01T09:42:37Z</time>
      </trkpt>
      <trkpt lat="44.533790" lon="2.941620">
        <ele>860.157104</ele>
        <time>2010-01-01T09:42:56Z</time>
      </trkpt>
      <trkpt lat="44.533720" lon="2.942080">
        <ele>858.258484</ele>
        <time>2010-01-01T09:43:55Z</time>
      </trkpt>
      <trkpt lat="44.532940" lon="2.944520">
        <ele>851.77</ele>
        <time>2010-01-01T09:44:39Z</time>
      </trkpt>
      <trkpt lat="44.532698" lon="2.944848">
        <ele>851.171204</ele>
        <time>2010-01-01T09:44:50Z</time>
      </trkpt>
      <trkpt lat="44.532392" lon="2.945056">
        <ele>851.41</ele>
        <time>2010-01-01T09:44:58Z</time>
      </trkpt>
      <trkpt lat="44.531710" lon="2.945329">
        <ele>851.41</ele>
        <time>2010-01-01T09:45:19Z</time>
      </trkpt>
      <trkpt lat="44.531395" lon="2.945290">
        <ele>851.31</ele>
        <time>2010-01-01T09:45:30Z</time>
      </trkpt>
      <trkpt lat="44.530020" lon="2.944310">
        <ele>845.11</ele>
        <time>2010-01-01T09:45:40Z</time>
      </trkpt>
      <trkpt lat="44.529050" lon="2.943610">
        <ele>838.95</ele>
        <time>2010-01-01T09:45:50Z</time>
      </trkpt>
      <trkpt lat="44.528740" lon="2.943510">
        <ele>838.64</ele>
        <time>2010-01-01T09:46:26Z</time>
      </trkpt>
      <trkpt lat="44.527770" lon="2.943520">
        <ele>839.72</ele>
        <time>2010-01-01T09:46:39Z</time>
      </trkpt>
      <trkpt lat="44.527214" lon="2.943519">
        <ele>839.811340</ele>
        <time>2010-01-01T09:47:33Z</time>
      </trkpt>
      <trkpt lat="44.526980" lon="2.943730">
        <ele>843.034363</ele>
        <time>2010-01-01T09:47:51Z</time>
      </trkpt>
      <trkpt lat="44.526810" lon="2.943720">
        <ele>843.28</ele>
        <time>2010-01-01T09:48:06Z</time>
      </trkpt>
      <trkpt lat="44.525350" lon="2.942670">
        <ele>837.78</ele>
        <time>2010-01-01T09:48:14Z</time>
      </trkpt>
      <trkpt lat="44.525230" lon="2.942530">
        <ele>837.321228</ele>
        <time>2010-01-01T09:48:26Z</time>
      </trkpt>
      <trkpt lat="44.525100" lon="2.942150">
        <ele>836.867432</ele>
        <time>2010-01-01T09:49:43Z</time>
      </trkpt>
      <trkpt lat="44.525140" lon="2.941680">
        <ele>836.424683</ele>
        <time>2010-01-01T09:49:57Z</time>
      </trkpt>
      <trkpt lat="44.525270" lon="2.941400">
        <ele>836.088196</ele>
        <time>2010-01-01T09:51:32Z</time>
      </trkpt>
      <trkpt lat="44.525610" lon="2.940860">
        <ele>834.172058</ele>
        <time>2010-01-01T09:52:47Z</time>
      </trkpt>
      <trkpt lat="44.525750" lon="2.940530">
        <ele>833.726440</ele>
        <time>2010-01-01T09:53:06Z</time>
      </trkpt>
      <trkpt lat="44.526243" lon="2.938790">
        <ele>829.190735</ele>
        <time>2010-01-01T09:53:21Z</time>
      </trkpt>
      <trkpt lat="44.526306" lon="2.938282">
        <ele>827.523132</ele>
        <time>2010-01-01T09:53:59Z</time>
      </trkpt>
      <trkpt lat="44.526279" lon="2.937774">
        <ele>826.546204</ele>
        <time>2010-01-01T09:54:38Z</time>
      </trkpt>
      <trkpt lat="44.526153" lon="2.937240">
        <ele>825.47</ele>
        <time>2010-01-01T09:55:18Z</time>
      </trkpt>
      <trkpt lat="44.525982" lon="2.936797">
        <ele>823.393738</ele>
        <time>2010-01-01T09:56:30Z</time>
      </trkpt>
      <trkpt lat="44.525700" lon="2.936350">
        <ele>820.454529</ele>
        <time>2010-01-01T09:57:29Z</time>
      </trkpt>
      <trkpt lat="44.525240" lon="2.935900">
        <ele>816.263306</ele>
        <time>2010-01-01T09:58:10Z</time>
      </trkpt>
      <trkpt lat="44.524130" lon="2.935530">
        <ele>813.266663</ele>
        <time>2010-01-01T09:58:58Z</time>
      </trkpt>
      <trkpt lat="44.523940" lon="2.935430">
        <ele>813.027954</ele>
        <time>2010-01-01T09:59:54Z</time>
      </trkpt>
      <trkpt lat="44.523620" lon="2.935140">
        <ele>811.175537</ele>
        <time>2010-01-01T10:00:10Z</time>
      </trkpt>
      <trkpt lat="44.523290" lon="2.934680">
        <ele>809.217468</ele>
        <time>2010-01-01T10:00:45Z</time>
      </trkpt>
      <trkpt lat="44.522450" lon="2.932980">
        <ele>799.942810</ele>
        <time>2010-01-01T10:01:39Z</time>
      </trkpt>
      <trkpt lat="44.521760" lon="2.931790">
        <ele>792.967957</ele>
        <time>2010-01-01T10:01:57Z</time>
      </trkpt>
      <trkpt lat="44.521540" lon="2.931540">
        <ele>790.777283</ele>
        <time>2010-01-01T10:02:06Z</time>
      </trkpt>
      <trkpt lat="44.521360" lon="2.931420">
        <ele>790.33</ele>
        <time>2010-01-01T10:02:11Z</time>
      </trkpt>
      <trkpt lat="44.520830" lon="2.931290">
        <ele>792.458618</ele>
        <time>2010-01-01T10:02:19Z</time>
      </trkpt>
      <trkpt lat="44.520570" lon="2.931170">
        <ele>791.928589</ele>
        <time>2010-01-01T10:02:47Z</time>
      </trkpt>
      <trkpt lat="44.520360" lon="2.931000">
        <ele>791.276245</ele>
        <time>2010-01-01T10:03:00Z</time>
      </trkpt>
      <trkpt lat="44.520170" lon="2.930760">
        <ele>789.403015</ele>
        <time>2010-01-01T10:03:34Z</time>
      </trkpt>
      <trkpt lat="44.519630" lon="2.929780">
        <ele>782.247437</ele>
        <time>2010-01-01T10:03:46Z</time>
      </trkpt>
      <trkpt lat="44.519400" lon="2.929460">
        <ele>781.182983</ele>
        <time>2010-01-01T10:04:34Z</time>
      </trkpt>
      <trkpt lat="44.518250" lon="2.928450">
        <ele>778.853027</ele>
        <time>2010-01-01T10:04:49Z</time>
      </trkpt>
      <trkpt lat="44.517920" lon="2.928010">
        <ele>776.031738</ele>
        <time>2010-01-01T10:05:24Z</time>
      </trkpt>
      <trkpt lat="44.517700" lon="2.927600">
        <ele>774.331848</ele>
        <time>2010-01-01T10:06:08Z</time>
      </trkpt>
      <trkpt lat="44.517660" lon="2.927310">
        <ele>772.060181</ele>
        <time>2010-01-01T10:06:20Z</time>
      </trkpt>
      <trkpt lat="44.517740" lon="2.926910">
        <ele>772.56</ele>
        <time>2010-01-01T10:06:36Z</time>
      </trkpt>
      <trkpt lat="44.519110" lon="2.925040">
        <ele>761.554993</ele>
        <time>2010-01-01T10:06:41Z</time>
      </trkpt>
      <trkpt lat="44.519320" lon="2.924640">
        <ele>761.194336</ele>
        <time>2010-01-01T10:06:46Z</time>
      </trkpt>
      <trkpt lat="44.520070" lon="2.921480">
        <ele>753.419983</ele>
        <time>2010-01-01T10:06:54Z</time>
      </trkpt>
      <trkpt lat="44.520400" lon="2.918890">
        <ele>743.626221</ele>
        <time>2010-01-01T10:08:21Z</time>
      </trkpt>
      <trkpt lat="44.520390" lon="2.918230">
        <ele>740.678650</ele>
        <time>2010-01-01T10:08:27Z</time>
      </trkpt>
      <trkpt lat="44.520340" lon="2.917700">
        <ele>738.931274</ele>
        <time>2010-01-01T10:08:38Z</time>
      </trkpt>
      <trkpt lat="44.520080" lon="2.916410">
        <ele>735.230713</ele>
        <time>2010-01-01T10:08:55Z</time>
      </trkpt>
      <trkpt lat="44.519660" lon="2.915180">
        <ele>734.166016</ele>
        <time>2010-01-01T10:09:09Z</time>
      </trkpt>
      <trkpt lat="44.519380" lon="2.913840">
        <ele>724.129272</ele>
        <time>2010-01-01T10:09:27Z</time>
      </trkpt>
      <trkpt lat="44.518540" lon="2.911600">
        <ele>715.074097</ele>
        <time>2010-01-01T10:09:39Z</time>
      </trkpt>
      <trkpt lat="44.518338" lon="2.911264">
        <ele>713.131897</ele>
        <time>2010-01-01T10:09:51Z</time>
      </trkpt>
      <trkpt lat="44.518059" lon="2.911225">
        <ele>710.681763</ele>
        <time>2010-01-01T10:10:15Z</time>
      </trkpt>
      <trkpt lat="44.517220" lon="2.911830">
        <ele>708.409424</ele>
        <time>2010-01-01T10:10:45Z</time>
      </trkpt>
      <trkpt lat="44.516240" lon="2.912240">
        <ele>705.156006</ele>
        <time>2010-01-01T10:10:52Z</time>
      </trkpt>
      <trkpt lat="44.515060" lon="2.912250">
        <ele>697.993774</ele>
        <time>2010-01-01T10:11:29Z</time>
      </trkpt>
      <trkpt lat="44.514498" lon="2.912306">
        <ele>695.967773</ele>
        <time>2010-01-01T10:12:31Z</time>
      </trkpt>
      <trkpt lat="44.513690" lon="2.912680">
        <ele>692.230652</ele>
        <time>2010-01-01T10:12:34Z</time>
      </trkpt>
      <trkpt lat="44.513360" lon="2.912970">
        <ele>691.498962</ele>
        <time>2010-01-01T10:13:00Z</time>
      </trkpt>
      <trkpt lat="44.512740" lon="2.913840">
        <ele>691.832520</ele>
        <time>2010-01-01T10:13:34Z</time>
      </trkpt>
      <trkpt lat="44.511490" lon="2.914550">
        <ele>686.007996</ele>
        <time>2010-01-01T10:13:45Z</time>
      </trkpt>
      <trkpt lat="44.511100" lon="2.914850">
        <ele>685.361633</ele>
        <time>2010-01-01T10:13:59Z</time>
      </trkpt>
      <trkpt lat="44.510910" lon="2.915060">
        <ele>684.77</ele>
        <time>2010-01-01T10:14:47Z</time>
      </trkpt>
      <trkpt lat="44.510880" lon="2.914910">
        <ele>682.526184</ele>
        <time>2010-01-01T10:15:31Z</time>
      </trkpt>
      <trkpt lat="44.510980" lon="2.914640">
        <ele>680.751892</ele>
        <time>2010-01-01T10:15:36Z</time>
      </trkpt>
      <trkpt lat="44.511490" lon="2.913970">
        <ele>677.327820</ele>
        <time>2010-01-01T10:15:47Z</time>
      </trkpt>
      <trkpt lat="44.511750" lon="2.913720">
        <ele>676.450012</ele>
        <time>2010-01-01T10:16:02Z</time>
      </trkpt>
      <trkpt lat="44.512240" lon="2.912740">
        <ele>668.102478</ele>
        <time>2010-01-01T10:16:15Z</time>
      </trkpt>
      <trkpt lat="44.512360" lon="2.912360">
        <ele>665.687500</ele>
        <time>2010-01-01T10:16:18Z</time>
      </trkpt>
      <trkpt lat="44.512560" lon="2.910700">
        <ele>655.624084</ele>
        <time>2010-01-01T10:16:25Z</time>
      </trkpt>
      <trkpt lat="44.512680" lon="2.910200">
        <ele>650.71</ele>
        <time>2010-01-01T10:16:28Z</time>
      </trkpt>
      <trkpt lat="44.513240" lon="2.909240">
        <ele>644.86</ele>
        <time>2010-01-01T10:16:48Z</time>
      </trkpt>
      <trkpt lat="44.513650" lon="2.907830">
        <ele>644.86</ele>
        <time>2010-01-01T10:17:14Z</time>
      </trkpt>
      <trkpt lat="44.513820" lon="2.907500">
        <ele>644.86</ele>
        <time>2010-01-01T10:17:41Z</time>
      </trkpt>
      <trkpt lat="44.514130" lon="2.907110">
        <ele>644.86</ele>
        <time>2010-01-01T10:17:53Z</time>
      </trkpt>
      <trkpt lat="44.514200" lon="2.906980">
        <ele>645.87</ele>
        <time>2010-01-01T10:18:07Z</time>
      </trkpt>
      <trkpt lat="44.514230" lon="2.906810">
        <ele>645.87</ele>
        <time>2010-01-01T10:18:31Z</time>
      </trkpt>
      <trkpt lat="44.514200" lon="2.906530">
        <ele>645.77</ele>
        <time>2010-01-01T10:18:39Z</time>
      </trkpt>
      <trkpt lat="44.513110" lon="2.903880">
        <ele>633.621826</ele>
        <time>2010-01-01T10:18:52Z</time>
      </trkpt>
      <trkpt lat="44.513020" lon="2.903740">
        <ele>632.583496</ele>
        <time>2010-01-01T10:19:04Z</time>
      </trkpt>
      <trkpt lat="44.512760" lon="2.903550">
        <ele>630.497559</ele>
        <time>2010-01-01T10:19:41Z</time>
      </trkpt>
      <trkpt lat="44.512340" lon="2.903490">
        <ele>625.712158</ele>
        <time>2010-01-01T10:19:52Z</time>
      </trkpt>
      <trkpt lat="44.512010" lon="2.903330">
        <ele>621.132507</ele>
        <time>2010-01-01T10:20:11Z</time>
      </trkpt>
      <trkpt lat="44.511700" lon="2.902890">
        <ele>619.088440</ele>
        <time>2010-01-01T10:20:30Z</time>
      </trkpt>
      <trkpt lat="44.511590" lon="2.902500">
        <ele>617.352051</ele>
        <time>2010-01-01T10:20:34Z</time>
      </trkpt>
      <trkpt lat="44.511570" lon="2.902070">
        <ele>616.559753</ele>
        <time>2010-01-01T10:20:50Z</time>
      </trkpt>
      <trkpt lat="44.511670" lon="2.901240">
        <ele>609.825195</ele>
        <time>2010-01-01T10:21:01Z</time>
      </trkpt>
      <trkpt lat="44.511700" lon="2.900210">
        <ele>601.43</ele>
        <time>2010-01-01T10:21:25Z</time>
      </trkpt>
      <trkpt lat="44.511690" lon="2.899950">
        <ele>601.43</ele>
        <time>2010-01-01T10:22:16Z</time>
      </trkpt>
      <trkpt lat="44.511500" lon="2.898670">
        <ele>601.43</ele>
        <time>2010-01-01T10:22:38Z</time>
      </trkpt>
      <trkpt lat="44.511430" lon="2.896530">
        <ele>594.15</ele>
        <time>2010-01-01T10:22:43Z</time>
      </trkpt>
      <trkpt lat="44.511400" lon="2.896420">
        <ele>594.622986</ele>
        <time>2010-01-01T10:23:04Z</time>
      </trkpt>
      <trkpt lat="44.510980" lon="2.895720">
        <ele>594.138672</ele>
        <time>2010-01-01T10:23:13Z</time>
      </trkpt>
      <trkpt lat="44.510500" lon="2.894740">
        <ele>592.692505</ele>
        <time>2010-01-01T10:23:34Z</time>
      </trkpt>
      <trkpt lat="44.510400" lon="2.894370">
        <ele>591.902649</ele>
        <time>2010-01-01T10:23:49Z</time>
      </trkpt>
      <trkpt lat="44.510370" lon="2.893890">
        <ele>591.258728</ele>
        <time>2010-01-01T10:24:30Z</time>
      </trkpt>
      <trkpt lat="44.510510" lon="2.892220">
        <ele>588.230408</ele>
        <time>2010-01-01T10:25:00Z</time>
      </trkpt>
      <trkpt lat="44.510520" lon="2.890670">
        <ele>581.668518</ele>
        <time>2010-01-01T10:25:23Z</time>
      </trkpt>
      <trkpt lat="44.510580" lon="2.890510">
        <ele>580.366089</ele>
        <time>2010-01-01T10:25:38Z</time>
      </trkpt>
      <trkpt lat="44.510770" lon="2.890280">
        <ele>577.769897</ele>
        <time>2010-01-01T10:26:00Z</time>
      </trkpt>
      <trkpt lat="44.511140" lon="2.890180">
        <ele>574.80</ele>
        <time>2010-01-01T10:26:18Z</time>
      </trkpt>
      <trkpt lat="44.511460" lon="2.890240">
        <ele>574.80</ele>
        <time>2010-01-01T10:26:21Z</time>
      </trkpt>
      <trkpt lat="44.511540" lon="2.890210">
        <ele>574.97</ele>
        <time>2010-01-01T10:26:26Z</time>
      </trkpt>
      <trkpt lat="44.511670" lon="2.890060">
        <ele>575.523193</ele>
        <time>2010-01-01T10:27:12Z</time>
      </trkpt>
      <trkpt lat="44.511670" lon="2.889940">
        <ele>576.246582</ele>
        <time>2010-01-01T10:27:44Z</time>
      </trkpt>
      <trkpt lat="44.511360" lon="2.889380">
        <ele>573.58</ele>
        <time>2010-01-01T10:28:23Z</time>
      </trkpt>
      <trkpt lat="44.511080" lon="2.888550">
        <ele>570.58</ele>
        <time>2010-01-01T10:28:30Z</time>
      </trkpt>
      <trkpt lat="44.510560" lon="2.887980">
        <ele>569.47</ele>
        <time>2010-01-01T10:28:33Z</time>
      </trkpt>
      <trkpt lat="44.510410" lon="2.887630">
        <ele>568.04</ele>
        <time>2010-01-01T10:28:39Z</time>
      </trkpt>
      <trkpt lat="44.510410" lon="2.887130">
        <ele>567.397522</ele>
        <time>2010-01-01T10:28:43Z</time>
      </trkpt>
      <trkpt lat="44.510710" lon="2.886390">
        <ele>564.324097</ele>
        <time>2010-01-01T10:28:55Z</time>
      </trkpt>
      <trkpt lat="44.510780" lon="2.886120">
        <ele>564.028992</ele>
        <time>2010-01-01T10:29:31Z</time>
      </trkpt>
      <trkpt lat="44.510740" lon="2.885670">
        <ele>560.761597</ele>
        <time>2010-01-01T10:29:52Z</time>
      </trkpt>
      <trkpt lat="44.510540" lon="2.885370">
        <ele>558.321899</ele>
        <time>2010-01-01T10:30:07Z</time>
      </trkpt>
      <trkpt lat="44.509740" lon="2.884750">
        <ele>554.85</ele>
        <time>2010-01-01T10:30:30Z</time>
      </trkpt>
      <trkpt lat="44.509510" lon="2.884510">
        <ele>553.88</ele>
        <time>2010-01-01T10:30:35Z</time>
      </trkpt>
      <trkpt lat="44.509180" lon="2.884010">
        <ele>550.30</ele>
        <time>2010-01-01T10:30:39Z</time>
      </trkpt>
      <trkpt lat="44.509000" lon="2.883410">
        <ele>549.65</ele>
        <time>2010-01-01T10:30:43Z</time>
      </trkpt>
      <trkpt lat="44.509030" lon="2.883270">
        <ele>548.415649</ele>
        <time>2010-01-01T10:30:46Z</time>
      </trkpt>
      <trkpt lat="44.509230" lon="2.882800">
        <ele>546.238586</ele>
        <time>2010-01-01T10:31:02Z</time>
      </trkpt>
      <trkpt lat="44.509430" lon="2.882520">
        <ele>542.67</ele>
        <time>2010-01-01T10:31:06Z</time>
      </trkpt>
      <trkpt lat="44.510020" lon="2.882380">
        <ele>540.398010</ele>
        <time>2010-01-01T10:31:11Z</time>
      </trkpt>
      <trkpt lat="44.511200" lon="2.881690">
        <ele>529.50</ele>
        <time>2010-01-01T10:31:52Z</time>
      </trkpt>
      <trkpt lat="44.511730" lon="2.881620">
        <ele>528.67</ele>
        <time>2010-01-01T10:32:08Z</time>
      </trkpt>
      <trkpt lat="44.511820" lon="2.881500">
        <ele>527.676880</ele>
        <time>2010-01-01T10:32:17Z</time>
      </trkpt>
      <trkpt lat="44.511860" lon="2.880760">
        <ele>518.42</ele>
        <time>2010-01-01T10:32:33Z</time>
      </trkpt>
      <trkpt lat="44.511920" lon="2.880450">
        <ele>518.549988</ele>
        <time>2010-01-01T10:32:51Z</time>
      </trkpt>
      <trkpt lat="44.511940" lon="2.879730">
        <ele>513.332947</ele>
        <time>2010-01-01T10:33:08Z</time>
      </trkpt>
      <trkpt lat="44.512020" lon="2.879190">
        <ele>513.100586</ele>
        <time>2010-01-01T10:33:11Z</time>
      </trkpt>
      <trkpt lat="44.512040" lon="2.877760">
        <ele>498.674011</ele>
        <time>2010-01-01T10:33:14Z</time>
      </trkpt>
      <trkpt lat="44.512210" lon="2.876730">
        <ele>489.079254</ele>
        <time>2010-01-01T10:33:29Z</time>
      </trkpt>
      <trkpt lat="44.512430" lon="2.876010">
        <ele>487.28</ele>
        <time>2010-01-01T10:33:37Z</time>
      </trkpt>
      <trkpt lat="44.512740" lon="2.875680">
        <ele>486.901825</ele>
        <time>2010-01-01T10:33:42Z</time>
      </trkpt>
      <trkpt lat="44.512960" lon="2.875000">
        <ele>475.370880</ele>
        <time>2010-01-01T10:33:59Z</time>
      </trkpt>
      <trkpt lat="44.513310" lon="2.874560">
        <ele>472.392548</ele>
        <time>2010-01-01T10:34:19Z</time>
      </trkpt>
      <trkpt lat="44.513380" lon="2.874510">
        <ele>471.091125</ele>
        <time>2010-01-01T10:34:39Z</time>
      </trkpt>
      <trkpt lat="44.513500" lon="2.874520">
        <ele>470.400696</ele>
        <time>2010-01-01T10:34:51Z</time>
      </trkpt>
      <trkpt lat="44.514440" lon="2.875460">
        <ele>459.01</ele>
        <time>2010-01-01T10:35:06Z</time>
      </trkpt>
      <trkpt lat="44.515010" lon="2.876240">
        <ele>457.42</ele>
        <time>2010-01-01T10:35:19Z</time>
      </trkpt>
      <trkpt lat="44.515620" lon="2.877300">
        <ele>453.19</ele>
        <time>2010-01-01T10:35:34Z</time>
      </trkpt>
      <trkpt lat="44.515770" lon="2.877380">
        <ele>451.86</ele>
        <time>2010-01-01T10:36:10Z</time>
      </trkpt>
      <trkpt lat="44.515840" lon="2.877330">
        <ele>450.09</ele>
        <time>2010-01-01T10:36:34Z</time>
      </trkpt>
      <trkpt lat="44.515890" lon="2.877120">
        <ele>446.30</ele>
        <time>2010-01-01T10:36:40Z</time>
      </trkpt>
      <trkpt lat="44.515840" lon="2.877000">
        <ele>445.087006</ele>
        <time>2010-01-01T10:36:52Z</time>
      </trkpt>
      <trkpt lat="44.515580" lon="2.876770">
        <ele>445.484985</ele>
        <time>2010-01-01T10:37:31Z</time>
      </trkpt>
      <trkpt lat="44.515030" lon="2.875800">
        <ele>445.406677</ele>
        <time>2010-01-01T10:37:52Z</time>
      </trkpt>
      <trkpt lat="44.514770" lon="2.875160">
        <ele>442.738525</ele>
        <time>2010-01-01T10:38:10Z</time>
      </trkpt>
      <trkpt lat="44.514650" lon="2.874660">
        <ele>440.254944</ele>
        <time>2010-01-01T10:38:26Z</time>
      </trkpt>
      <trkpt lat="44.514580" lon="2.873860">
        <ele>430.996246</ele>
        <time>2010-01-01T10:38:36Z</time>
      </trkpt>
      <trkpt lat="44.514600" lon="2.873690">
        <ele>428.307617</ele>
        <time>2010-01-01T10:38:42Z</time>
      </trkpt>
      <trkpt lat="44.514690" lon="2.873600">
        <ele>423.600281</ele>
        <time>2010-01-01T10:39:03Z</time>
      </trkpt>
      <trkpt lat="44.514790" lon="2.873620">
        <ele>419.722107</ele>
        <time>2010-01-01T10:39:12Z</time>
      </trkpt>
      <trkpt lat="44.514830" lon="2.873680">
        <ele>418.786987</ele>
        <time>2010-01-01T10:39:28Z</time>
      </trkpt>
      <trkpt lat="44.514990" lon="2.874200">
        <ele>417.31</ele>
        <time>2010-01-01T10:39:28Z</time>
      </trkpt>
      <trkpt lat="44.515100" lon="2.874230">
        <ele>413.61</ele>
        <time>2010-01-01T10:39:42Z</time>
      </trkpt>
      <trkpt lat="44.515210" lon="2.874150">
        <ele>406.251007</ele>
        <time>2010-01-01T10:39:58Z</time>
      </trkpt>
      <trkpt lat="44.515169" lon="2.873799">
        <ele>404.410004</ele>
        <time>2010-01-01T10:40:21Z</time>
      </trkpt>
      <trkpt lat="44.514860" lon="2.872820">
        <ele>401.330200</ele>
        <time>2010-01-01T10:40:42Z</time>
      </trkpt>
      <trkpt lat="44.514600" lon="2.872390">
        <ele>401.09</ele>
        <time>2010-01-01T10:40:56Z</time>
      </trkpt>
      <trkpt lat="44.514380" lon="2.872310">
        <ele>401.09</ele>
        <time>2010-01-01T10:41:36Z</time>
      </trkpt>
      <trkpt lat="44.513970" lon="2.872370">
        <ele>401.09</ele>
        <time>2010-01-01T10:42:32Z</time>
      </trkpt>
      <trkpt lat="44.513530" lon="2.872330">
        <ele>393.91</ele>
        <time>2010-01-01T10:42:42Z</time>
      </trkpt>
      <trkpt lat="44.513130" lon="2.872480">
        <ele>399.372467</ele>
        <time>2010-01-01T10:42:51Z</time>
      </trkpt>
      <trkpt lat="44.513050" lon="2.872460">
        <ele>397.503021</ele>
        <time>2010-01-01T10:42:55Z</time>
      </trkpt>
      <trkpt lat="44.513000" lon="2.872370">
        <ele>391.86</ele>
        <time>2010-01-01T10:43:07Z</time>
      </trkpt>
      <trkpt lat="44.512970" lon="2.871870">
        <ele>386.11</ele>
        <time>2010-01-01T10:43:30Z</time>
      </trkpt>
      <trkpt lat="44.513020" lon="2.871570">
        <ele>386.11</ele>
        <time>2010-01-01T10:43:43Z</time>
      </trkpt>
      <trkpt lat="44.513070" lon="2.871430">
        <ele>386.11</ele>
        <time>2010-01-01T10:43:53Z</time>
      </trkpt>
      <trkpt lat="44.513370" lon="2.871000">
        <ele>386.11</ele>
        <time>2010-01-01T10:44:15Z</time>
      </trkpt>
      <trkpt lat="44.513610" lon="2.870400">
        <ele>391.65</ele>
        <time>2010-01-01T10:44:24Z</time>
      </trkpt>
      <trkpt lat="44.513770" lon="2.869740">
        <ele>395.885498</ele>
        <time>2010-01-01T10:44:34Z</time>
      </trkpt>
      <trkpt lat="44.513750" lon="2.869320">
        <ele>399.683136</ele>
        <time>2010-01-01T10:44:55Z</time>
      </trkpt>
      <trkpt lat="44.513590" lon="2.868830">
        <ele>406.178894</ele>
        <time>2010-01-01T10:45:07Z</time>
      </trkpt>
      <trkpt lat="44.513360" lon="2.868500">
        <ele>408.069153</ele>
        <time>2010-01-01T10:45:18Z</time>
      </trkpt>
      <trkpt lat="44.513050" lon="2.868190">
        <ele>408.382019</ele>
        <time>2010-01-01T10:45:33Z</time>
      </trkpt>
      <trkpt lat="44.512270" lon="2.867600">
        <ele>409.96</ele>
        <time>2010-01-01T10:45:45Z</time>
      </trkpt>
      <trkpt lat="44.511900" lon="2.866930">
        <ele>411.314392</ele>
        <time>2010-01-01T10:46:09Z</time>
      </trkpt>
      <trkpt lat="44.511870" lon="2.866740">
        <ele>412.039673</ele>
        <time>2010-01-01T10:46:21Z</time>
      </trkpt>
      <trkpt lat="44.511880" lon="2.866290">
        <ele>417.379791</ele>
        <time>2010-01-01T10:47:19Z</time>
      </trkpt>
      <trkpt lat="44.511990" lon="2.864960">
        <ele>423.656189</ele>
        <time>2010-01-01T10:47:41Z</time>
      </trkpt>
      <trkpt lat="44.512230" lon="2.864290">
        <ele>425.72</ele>
        <time>2010-01-01T10:47:51Z</time>
      </trkpt>
      <trkpt lat="44.512280" lon="2.863650">
        <ele>429.84</ele>
        <time>2010-01-01T10:48:14Z</time>
      </trkpt>
      <trkpt lat="44.512430" lon="2.863160">
        <ele>433.03</ele>
        <time>2010-01-01T10:48:38Z</time>
      </trkpt>
      <trkpt lat="44.512480" lon="2.862820">
        <ele>440.743652</ele>
        <time>2010-01-01T10:48:47Z</time>
      </trkpt>
      <trkpt lat="44.512410" lon="2.862600">
        <ele>441.917786</ele>
        <time>2010-01-01T10:48:52Z</time>
      </trkpt>
      <trkpt lat="44.512100" lon="2.862040">
        <ele>444.09</ele>
        <time>2010-01-01T10:49:11Z</time>
      </trkpt>
      <trkpt lat="44.511910" lon="2.861880">
        <ele>445.55</ele>
        <time>2010-01-01T10:49:17Z</time>
      </trkpt>
      <trkpt lat="44.511510" lon="2.861700">
        <ele>440.63</ele>
        <time>2010-01-01T10:49:49Z</time>
      </trkpt>
      <trkpt lat="44.511510" lon="2.861700">
        <ele>439.628998</ele>
        <time>2010-01-01T10:50:35Z</time>
      </trkpt>
      <trkpt lat="44.511220" lon="2.861420">
        <ele>438.92</ele>
        <time>2010-01-01T10:50:46Z</time>
      </trkpt>
      <trkpt lat="44.511020" lon="2.860950">
        <ele>438.426971</ele>
        <time>2010-01-01T10:50:56Z</time>
      </trkpt>
      <trkpt lat="44.510860" lon="2.860190">
        <ele>438.02</ele>
        <time>2010-01-01T10:51:05Z</time>
      </trkpt>
      <trkpt lat="44.510780" lon="2.859440">
        <ele>438.01</ele>
        <time>2010-01-01T10:51:14Z</time>
      </trkpt>
      <trkpt lat="44.510830" lon="2.858950">
        <ele>441.37</ele>
        <time>2010-01-01T10:51:29Z</time>
      </trkpt>
      <trkpt lat="44.511100" lon="2.857620">
        <ele>441.29</ele>
        <time>2010-01-01T10:51:36Z</time>
      </trkpt>
      <trkpt lat="44.511680" lon="2.855850">
        <ele>441.50</ele>
        <time>2010-01-01T10:51:50Z</time>
      </trkpt>
      <trkpt lat="44.511880" lon="2.855590">
        <ele>441.29</ele>
        <time>2010-01-01T10:51:57Z</time>
      </trkpt>
      <trkpt lat="44.512060" lon="2.855460">
        <ele>439.213745</ele>
        <time>2010-01-01T10:52:05Z</time>
      </trkpt>
      <trkpt lat="44.512170" lon="2.855440">
        <ele>438.132507</ele>
        <time>2010-01-01T10:52:16Z</time>
      </trkpt>
      <trkpt lat="44.512460" lon="2.855450">
        <ele>435.411926</ele>
        <time>2010-01-01T10:52:21Z</time>
      </trkpt>
      <trkpt lat="44.513010" lon="2.855680">
        <ele>430.610413</ele>
        <time>2010-01-01T10:52:31Z</time>
      </trkpt>
      <trkpt lat="44.513350" lon="2.855720">
        <ele>427.657501</ele>
        <time>2010-01-01T10:52:37Z</time>
      </trkpt>
      <trkpt lat="44.513580" lon="2.855610">
        <ele>424.855011</ele>
        <time>2010-01-01T10:54:03Z</time>
      </trkpt>
      <trkpt lat="44.514000" lon="2.855130">
        <ele>419.690491</ele>
        <time>2010-01-01T10:54:15Z</time>
      </trkpt>
      <trkpt lat="44.514220" lon="2.855060">
        <ele>419.18</ele>
        <time>2010-01-01T10:54:40Z</time>
      </trkpt>
      <trkpt lat="44.514470" lon="2.855140">
        <ele>419.223511</ele>
        <time>2010-01-01T10:55:43Z</time>
      </trkpt>
      <trkpt lat="44.514920" lon="2.855550">
        <ele>416.982330</ele>
        <time>2010-01-01T10:55:54Z</time>
      </trkpt>
      <trkpt lat="44.515210" lon="2.855600">
        <ele>414.711578</ele>
        <time>2010-01-01T10:56:19Z</time>
      </trkpt>
      <trkpt lat="44.515480" lon="2.855550">
        <ele>411.636475</ele>
        <time>2010-01-01T10:56:34Z</time>
      </trkpt>
      <trkpt lat="44.515820" lon="2.855320">
        <ele>406.683716</ele>
        <time>2010-01-01T10:56:47Z</time>
      </trkpt>
      <trkpt lat="44.515920" lon="2.854920">
        <ele>404.918793</ele>
        <time>2010-01-01T10:56:58Z</time>
      </trkpt>
      <trkpt lat="44.515850" lon="2.854090">
        <ele>403.223114</ele>
        <time>2010-01-01T10:57:40Z</time>
      </trkpt>
      <trkpt lat="44.515850" lon="2.853660">
        <ele>399.471130</ele>
        <time>2010-01-01T10:57:47Z</time>
      </trkpt>
      <trkpt lat="44.516080" lon="2.851670">
        <ele>393.384796</ele>
        <time>2010-01-01T10:57:54Z</time>
      </trkpt>
      <trkpt lat="44.516060" lon="2.850910">
        <ele>390.595001</ele>
        <time>2010-01-01T10:58:04Z</time>
      </trkpt>
      <trkpt lat="44.516100" lon="2.850560">
        <ele>391.549377</ele>
        <time>2010-01-01T10:58:24Z</time>
      </trkpt>
      <trkpt lat="44.516010" lon="2.849760">
        <ele>391.52</ele>
        <time>2010-01-01T10:58:35Z</time>
      </trkpt>
      <trkpt lat="44.516020" lon="2.848910">
        <ele>391.52</ele>
        <time>2010-01-01T10:58:59Z</time>
      </trkpt>
      <trkpt lat="44.515950" lon="2.848620">
        <ele>391.52</ele>
        <time>2010-01-01T10:59:14Z</time>
      </trkpt>
      <trkpt lat="44.515880" lon="2.848490">
        <ele>391.52</ele>
        <time>2010-01-01T11:00:10Z</time>
      </trkpt>
      <trkpt lat="44.515520" lon="2.848050">
        <ele>385.38</ele>
        <time>2010-01-01T11:00:22Z</time>
      </trkpt>
      <trkpt lat="44.515430" lon="2.847880">
        <ele>383.178406</ele>
        <time>2010-01-01T11:01:00Z</time>
      </trkpt>
      <trkpt lat="44.515260" lon="2.846770">
        <ele>380.890015</ele>
        <time>2010-01-01T11:01:20Z</time>
      </trkpt>
      <trkpt lat="44.514650" lon="2.845420">
        <ele>372.609009</ele>
        <time>2010-01-01T11:01:52Z</time>
      </trkpt>
      <trkpt lat="44.514530" lon="2.845060">
        <ele>369.850525</ele>
        <time>2010-01-01T11:02:35Z</time>
      </trkpt>
      <trkpt lat="44.514530" lon="2.844710">
        <ele>367.752197</ele>
        <time>2010-01-01T11:02:56Z</time>
      </trkpt>
      <trkpt lat="44.514620" lon="2.844410">
        <ele>366.16</ele>
        <time>2010-01-01T11:03:11Z</time>
      </trkpt>
      <trkpt lat="44.514780" lon="2.844200">
        <ele>365.369354</ele>
        <time>2010-01-01T11:03:24Z</time>
      </trkpt>
      <trkpt lat="44.515130" lon="2.844000">
        <ele>365.38</ele>
        <time>2010-01-01T11:03:28Z</time>
      </trkpt>
      <trkpt lat="44.515210" lon="2.843810">
        <ele>363.85</ele>
        <time>2010-01-01T11:03:46Z</time>
      </trkpt>
      <trkpt lat="44.515120" lon="2.843310">
        <ele>367.40</ele>
        <time>2010-01-01T11:04:06Z</time>
      </trkpt>
      <trkpt lat="44.515020" lon="2.843130">
        <ele>370.02</ele>
        <time>2010-01-01T11:04:33Z</time>
      </trkpt>
      <trkpt lat="44.514840" lon="2.842980">
        <ele>371.25</ele>
        <time>2010-01-01T11:04:41Z</time>
      </trkpt>
      <trkpt lat="44.514570" lon="2.842960">
        <ele>371.38</ele>
        <time>2010-01-01T11:04:58Z</time>
      </trkpt>
      <trkpt lat="44.514440" lon="2.842900">
        <ele>371.489532</ele>
        <time>2010-01-01T11:05:26Z</time>
      </trkpt>
      <trkpt lat="44.514280" lon="2.842670">
        <ele>373.428070</ele>
        <time>2010-01-01T11:05:45Z</time>
      </trkpt>
      <trkpt lat="44.514230" lon="2.842450">
        <ele>375.491699</ele>
        <time>2010-01-01T11:06:05Z</time>
      </trkpt>
      <trkpt lat="44.514270" lon="2.839440">
        <ele>397.064819</ele>
        <time>2010-01-01T11:06:49Z</time>
      </trkpt>
      <trkpt lat="44.514250" lon="2.839030">
        <ele>398.802368</ele>
        <time>2010-01-01T11:07:16Z</time>
      </trkpt>
      <trkpt lat="44.514130" lon="2.838170">
        <ele>398.388550</ele>
        <time>2010-01-01T11:07:41Z</time>
      </trkpt>
      <trkpt lat="44.514020" lon="2.835980">
        <ele>397.71</ele>
        <time>2010-01-01T11:07:55Z</time>
      </trkpt>
      <trkpt lat="44.514080" lon="2.835590">
        <ele>396.874603</ele>
        <time>2010-01-01T11:08:07Z</time>
      </trkpt>
      <trkpt lat="44.514400" lon="2.834830">
        <ele>393.559998</ele>
        <time>2010-01-01T11:08:32Z</time>
      </trkpt>
      <trkpt lat="44.514450" lon="2.834300">
        <ele>391.445007</ele>
        <time>2010-01-01T11:08:54Z</time>
      </trkpt>
      <trkpt lat="44.514390" lon="2.833870">
        <ele>390.297302</ele>
        <time>2010-01-01T11:11:05Z</time>
      </trkpt>
      <trkpt lat="44.514240" lon="2.833550">
        <ele>388.391876</ele>
        <time>2010-01-01T11:11:22Z</time>
      </trkpt>
      <trkpt lat="44.513390" lon="2.832700">
        <ele>381.814850</ele>
        <time>2010-01-01T11:11:37Z</time>
      </trkpt>
      <trkpt lat="44.513280" lon="2.832500">
        <ele>380.751770</ele>
        <time>2010-01-01T11:11:54Z</time>
      </trkpt>
      <trkpt lat="44.513220" lon="2.832280">
        <ele>379.53</ele>
        <time>2010-01-01T11:12:22Z</time>
      </trkpt>
      <trkpt lat="44.513220" lon="2.831930">
        <ele>377.587006</ele>
        <time>2010-01-01T11:13:14Z</time>
      </trkpt>
      <trkpt lat="44.513430" lon="2.831260">
        <ele>377.098907</ele>
        <time>2010-01-01T11:13:36Z</time>
      </trkpt>
      <trkpt lat="44.513490" lon="2.830900">
        <ele>375.914642</ele>
        <time>2010-01-01T11:13:53Z</time>
      </trkpt>
      <trkpt lat="44.513520" lon="2.830050">
        <ele>372.036133</ele>
        <time>2010-01-01T11:14:20Z</time>
      </trkpt>
      <trkpt lat="44.513590" lon="2.829560">
        <ele>372.180145</ele>
        <time>2010-01-01T11:14:27Z</time>
      </trkpt>
      <trkpt lat="44.513520" lon="2.827600">
        <ele>368.037506</ele>
        <time>2010-01-01T11:14:36Z</time>
      </trkpt>
      <trkpt lat="44.513470" lon="2.827180">
        <ele>366.017487</ele>
        <time>2010-01-01T11:15:12Z</time>
      </trkpt>
      <trkpt lat="44.513130" lon="2.825930">
        <ele>365.064880</ele>
        <time>2010-01-01T11:15:23Z</time>
      </trkpt>
      <trkpt lat="44.512890" lon="2.825310">
        <ele>362.614990</ele>
        <time>2010-01-01T11:15:30Z</time>
      </trkpt>
      <trkpt lat="44.512900" lon="2.824180">
        <ele>359.284027</ele>
        <time>2010-01-01T11:15:42Z</time>
      </trkpt>
      <trkpt lat="44.513110" lon="2.822720">
        <ele>359.065979</ele>
        <time>2010-01-01T11:16:06Z</time>
      </trkpt>
      <trkpt lat="44.513380" lon="2.822100">
        <ele>359.37</ele>
        <time>2010-01-01T11:16:45Z</time>
      </trkpt>
      <trkpt lat="44.513500" lon="2.821570">
        <ele>359.37</ele>
        <time>2010-01-01T11:17:23Z</time>
      </trkpt>
      <trkpt lat="44.513730" lon="2.821280">
        <ele>360.96</ele>
        <time>2010-01-01T11:17:39Z</time>
      </trkpt>
      <trkpt lat="44.513770" lon="2.821150">
        <ele>360.841003</ele>
        <time>2010-01-01T11:17:58Z</time>
      </trkpt>
      <trkpt lat="44.513730" lon="2.820510">
        <ele>360.024994</ele>
        <time>2010-01-01T11:17:58Z</time>
      </trkpt>
      <trkpt lat="44.513890" lon="2.819860">
        <ele>360.873718</ele>
        <time>2010-01-01T11:18:41Z</time>
      </trkpt>
      <trkpt lat="44.513780" lon="2.818920">
        <ele>360.317383</ele>
        <time>2010-01-01T11:18:57Z</time>
      </trkpt>
      <trkpt lat="44.513850" lon="2.818660">
        <ele>360.082245</ele>
        <time>2010-01-01T11:19:15Z</time>
      </trkpt>
      <trkpt lat="44.514110" lon="2.818170">
        <ele>360.777527</ele>
        <time>2010-01-01T11:19:36Z</time>
      </trkpt>
      <trkpt lat="44.514030" lon="2.817210">
        <ele>365.52</ele>
        <time>2010-01-01T11:20:01Z</time>
      </trkpt>
      <trkpt lat="44.514100" lon="2.816560">
        <ele>367.10</ele>
        <time>2010-01-01T11:20:27Z</time>
      </trkpt>
      <trkpt lat="44.513590" lon="2.816640">
        <ele>358.785004</ele>
        <time>2010-01-01T11:21:00Z</time>
      </trkpt>
      <trkpt lat="44.512540" lon="2.816270">
        <ele>358.00</ele>
        <time>2010-01-01T11:21:11Z</time>
      </trkpt>
      <trkpt lat="44.511870" lon="2.816110">
        <ele>358.00</ele>
        <time>2010-01-01T11:21:23Z</time>
      </trkpt>
      <trkpt lat="44.511240" lon="2.816210">
        <ele>358.000000</ele>
        <time>2010-01-01T11:21:31Z</time>
      </trkpt>
      <trkpt lat="44.510910" lon="2.816360">
        <ele>358.000000</ele>
        <time>2010-01-01T11:21:37Z</time>
      </trkpt>
      <trkpt lat="44.510650" lon="2.816560">
        <ele>358.17</ele>
        <time>2010-01-01T11:21:47Z</time>
      </trkpt>
      <trkpt lat="44.510170" lon="2.817120">
        <ele>358.17</ele>
        <time>2010-01-01T11:22:58Z</time>
      </trkpt>
      <trkpt lat="44.509840" lon="2.817750">
        <ele>357.28</ele>
        <time>2010-01-01T11:23:10Z</time>
      </trkpt>
      <trkpt lat="44.508580" lon="2.821960">
        <ele>367.38</ele>
        <time>2010-01-01T11:23:21Z</time>
      </trkpt>
      <trkpt lat="44.508430" lon="2.822550">
        <ele>369.69</ele>
        <time>2010-01-01T11:23:26Z</time>
      </trkpt>
      <trkpt lat="44.508350" lon="2.823050">
        <ele>369.69</ele>
        <time>2010-01-01T11:23:31Z</time>
      </trkpt>
      <trkpt lat="44.508340" lon="2.823640">
        <ele>368.93</ele>
        <time>2010-01-01T11:23:36Z</time>
      </trkpt>
      <trkpt lat="44.508420" lon="2.824630">
        <ele>365.769012</ele>
        <time>2010-01-01T11:23:40Z</time>
      </trkpt>
      <trkpt lat="44.508160" lon="2.826390">
        <ele>369.27</ele>
        <time>2010-01-01T11:23:47Z</time>
      </trkpt>
      <trkpt lat="44.507900" lon="2.827080">
        <ele>372.177612</ele>
        <time>2010-01-01T11:24:32Z</time>
      </trkpt>
      <trkpt lat="44.507640" lon="2.827560">
        <ele>375.700409</ele>
        <time>2010-01-01T11:25:01Z</time>
      </trkpt>
      <trkpt lat="44.507130" lon="2.828150">
        <ele>380.27</ele>
        <time>2010-01-01T11:25:20Z</time>
      </trkpt>
      <trkpt lat="44.507030" lon="2.828350">
        <ele>380.27</ele>
        <time>2010-01-01T11:26:02Z</time>
      </trkpt>
      <trkpt lat="44.506960" lon="2.828660">
        <ele>380.27</ele>
        <time>2010-01-01T11:26:19Z</time>
      </trkpt>
      <trkpt lat="44.506980" lon="2.829910">
        <ele>393.90</ele>
        <time>2010-01-01T11:26:33Z</time>
      </trkpt>
      <trkpt lat="44.507030" lon="2.830300">
        <ele>393.90</ele>
        <time>2010-01-01T11:26:48Z</time>
      </trkpt>
      <trkpt lat="44.507100" lon="2.830510">
        <ele>393.90</ele>
        <time>2010-01-01T11:27:06Z</time>
      </trkpt>
      <trkpt lat="44.507280" lon="2.830850">
        <ele>392.01</ele>
        <time>2010-01-01T11:27:13Z</time>
      </trkpt>
      <trkpt lat="44.507570" lon="2.831620">
        <ele>392.01</ele>
        <time>2010-01-01T11:27:25Z</time>
      </trkpt>
      <trkpt lat="44.508240" lon="2.832580">
        <ele>393.60</ele>
        <time>2010-01-01T11:27:34Z</time>
      </trkpt>
      <trkpt lat="44.508680" lon="2.833770">
        <ele>399.92</ele>
        <time>2010-01-01T11:28:50Z</time>
      </trkpt>
      <trkpt lat="44.508930" lon="2.834220">
        <ele>399.92</ele>
        <time>2010-01-01T11:29:29Z</time>
      </trkpt>
      <trkpt lat="44.509260" lon="2.834660">
        <ele>399.92</ele>
        <time>2010-01-01T11:29:46Z</time>
      </trkpt>
      <trkpt lat="44.509260" lon="2.834660">
        <ele>399.92</ele>
        <time>2010-01-01T11:30:15Z</time>
      </trkpt>
      <trkpt lat="44.510110" lon="2.835580">
        <ele>403.349640</ele>
        <time>2010-01-01T11:30:31Z</time>
      </trkpt>
      <trkpt lat="44.510400" lon="2.835970">
        <ele>404.073364</ele>
        <time>2010-01-01T11:32:02Z</time>
      </trkpt>
      <trkpt lat="44.510670" lon="2.836500">
        <ele>404.888947</ele>
        <time>2010-01-01T11:32:13Z</time>
      </trkpt>
      <trkpt lat="44.510910" lon="2.837160">
        <ele>406.617188</ele>
        <time>2010-01-01T11:32:30Z</time>
      </trkpt>
      <trkpt lat="44.511120" lon="2.837970">
        <ele>409.75</ele>
        <time>2010-01-01T11:32:51Z</time>
      </trkpt>
      <trkpt lat="44.511140" lon="2.838870">
        <ele>413.02</ele>
        <time>2010-01-01T11:33:01Z</time>
      </trkpt>
      <trkpt lat="44.511420" lon="2.839950">
        <ele>415.856323</ele>
        <time>2010-01-01T11:33:32Z</time>
      </trkpt>
      <trkpt lat="44.511450" lon="2.840340">
        <ele>416.434052</ele>
        <time>2010-01-01T11:33:38Z</time>
      </trkpt>
      <trkpt lat="44.511420" lon="2.840780">
        <ele>417.65</ele>
        <time>2010-01-01T11:33:48Z</time>
      </trkpt>
      <trkpt lat="44.511350" lon="2.841040">
        <ele>418.15</ele>
        <time>2010-01-01T11:33:54Z</time>
      </trkpt>
      <trkpt lat="44.511260" lon="2.841200">
        <ele>418.15</ele>
        <time>2010-01-01T11:34:36Z</time>
      </trkpt>
      <trkpt lat="44.511040" lon="2.841330">
        <ele>418.15</ele>
        <time>2010-01-01T11:34:54Z</time>
      </trkpt>
      <trkpt lat="44.509260" lon="2.841030">
        <ele>418.15</ele>
        <time>2010-01-01T11:35:23Z</time>
      </trkpt>
      <trkpt lat="44.508990" lon="2.840880">
        <ele>418.15</ele>
        <time>2010-01-01T11:35:32Z</time>
      </trkpt>
      <trkpt lat="44.508750" lon="2.840670">
        <ele>419.22</ele>
        <time>2010-01-01T11:36:29Z</time>
      </trkpt>
      <trkpt lat="44.508630" lon="2.840690">
        <ele>419.22</ele>
        <time>2010-01-01T11:37:10Z</time>
      </trkpt>
      <trkpt lat="44.508540" lon="2.840790">
        <ele>419.22</ele>
        <time>2010-01-01T11:37:27Z</time>
      </trkpt>
      <trkpt lat="44.508490" lon="2.840970">
        <ele>419.22</ele>
        <time>2010-01-01T11:37:31Z</time>
      </trkpt>
      <trkpt lat="44.508500" lon="2.841110">
        <ele>419.22</ele>
        <time>2010-01-01T11:37:40Z</time>
      </trkpt>
      <trkpt lat="44.508610" lon="2.841280">
        <ele>419.22</ele>
        <time>2010-01-01T11:37:46Z</time>
      </trkpt>
      <trkpt lat="44.509590" lon="2.842050">
        <ele>426.63</ele>
        <time>2010-01-01T11:37:50Z</time>
      </trkpt>
      <trkpt lat="44.510200" lon="2.842620">
        <ele>426.134369</ele>
        <time>2010-01-01T11:38:02Z</time>
      </trkpt>
      <trkpt lat="44.510520" lon="2.843100">
        <ele>428.410889</ele>
        <time>2010-01-01T11:38:10Z</time>
      </trkpt>
      <trkpt lat="44.511160" lon="2.844250">
        <ele>439.60</ele>
        <time>2010-01-01T11:38:32Z</time>
      </trkpt>
      <trkpt lat="44.511410" lon="2.844770">
        <ele>439.098114</ele>
        <time>2010-01-01T11:38:56Z</time>
      </trkpt>
      <trkpt lat="44.511540" lon="2.845220">
        <ele>439.541504</ele>
        <time>2010-01-01T11:39:12Z</time>
      </trkpt>
      <trkpt lat="44.511570" lon="2.845720">
        <ele>441.548767</ele>
        <time>2010-01-01T11:39:22Z</time>
      </trkpt>
      <trkpt lat="44.511520" lon="2.846360">
        <ele>445.938873</ele>
        <time>2010-01-01T11:39:44Z</time>
      </trkpt>
      <trkpt lat="44.511460" lon="2.846600">
        <ele>446.462677</ele>
        <time>2010-01-01T11:39:50Z</time>
      </trkpt>
      <trkpt lat="44.511260" lon="2.846880">
        <ele>449.229279</ele>
        <time>2010-01-01T11:40:02Z</time>
      </trkpt>
      <trkpt lat="44.511030" lon="2.846980">
        <ele>450.80</ele>
        <time>2010-01-01T11:40:12Z</time>
      </trkpt>
      <trkpt lat="44.509150" lon="2.846560">
        <ele>460.839203</ele>
        <time>2010-01-01T11:40:19Z</time>
      </trkpt>
      <trkpt lat="44.508190" lon="2.846660">
        <ele>468.435181</ele>
        <time>2010-01-01T11:40:55Z</time>
      </trkpt>
      <trkpt lat="44.507790" lon="2.846840">
        <ele>470.92</ele>
        <time>2010-01-01T11:41:10Z</time>
      </trkpt>
      <trkpt lat="44.507160" lon="2.847370">
        <ele>470.92</ele>
        <time>2010-01-01T11:41:41Z</time>
      </trkpt>
      <trkpt lat="44.506840" lon="2.847700">
        <ele>471.08</ele>
        <time>2010-01-01T11:41:51Z</time>
      </trkpt>
      <trkpt lat="44.505320" lon="2.850070">
        <ele>480.630249</ele>
        <time>2010-01-01T11:42:00Z</time>
      </trkpt>
      <trkpt lat="44.505090" lon="2.850290">
        <ele>482.672638</ele>
        <time>2010-01-01T11:42:09Z</time>
      </trkpt>
      <trkpt lat="44.504710" lon="2.850550">
        <ele>486.499451</ele>
        <time>2010-01-01T11:42:21Z</time>
      </trkpt>
      <trkpt lat="44.504310" lon="2.851030">
        <ele>490.684540</ele>
        <time>2010-01-01T11:42:30Z</time>
      </trkpt>
      <trkpt lat="44.504180" lon="2.851320">
        <ele>492.701630</ele>
        <time>2010-01-01T11:42:40Z</time>
      </trkpt>
      <trkpt lat="44.504120" lon="2.852390">
        <ele>492.68</ele>
        <time>2010-01-01T11:42:58Z</time>
      </trkpt>
      <trkpt lat="44.504050" lon="2.852600">
        <ele>492.68</ele>
        <time>2010-01-01T11:43:11Z</time>
      </trkpt>
      <trkpt lat="44.503880" lon="2.852820">
        <ele>492.68</ele>
        <time>2010-01-01T11:43:38Z</time>
      </trkpt>
      <trkpt lat="44.503740" lon="2.852900">
        <ele>492.68</ele>
        <time>2010-01-01T11:43:46Z</time>
      </trkpt>
      <trkpt lat="44.502680" lon="2.853080">
        <ele>501.77</ele>
        <time>2010-01-01T11:43:53Z</time>
      </trkpt>
      <trkpt lat="44.502240" lon="2.853210">
        <ele>501.108612</ele>
        <time>2010-01-01T11:44:02Z</time>
      </trkpt>
      <trkpt lat="44.501540" lon="2.853300">
        <ele>506.545654</ele>
        <time>2010-01-01T11:44:23Z</time>
      </trkpt>
      <trkpt lat="44.501310" lon="2.853410">
        <ele>507.648254</ele>
        <time>2010-01-01T11:44:45Z</time>
      </trkpt>
      <trkpt lat="44.500110" lon="2.854480">
        <ele>509.408295</ele>
        <time>2010-01-01T11:45:11Z</time>
      </trkpt>
      <trkpt lat="44.499340" lon="2.855440">
        <ele>516.297180</ele>
        <time>2010-01-01T11:45:20Z</time>
      </trkpt>
      <trkpt lat="44.498950" lon="2.855610">
        <ele>522.680725</ele>
        <time>2010-01-01T11:45:36Z</time>
      </trkpt>
      <trkpt lat="44.498870" lon="2.855710">
        <ele>523.47</ele>
        <time>2010-01-01T11:45:45Z</time>
      </trkpt>
      <trkpt lat="44.498790" lon="2.856000">
        <ele>523.47</ele>
        <time>2010-01-01T11:45:57Z</time>
      </trkpt>
      <trkpt lat="44.498820" lon="2.856200">
        <ele>523.47</ele>
        <time>2010-01-01T11:46:22Z</time>
      </trkpt>
      <trkpt lat="44.498890" lon="2.856320">
        <ele>523.47</ele>
        <time>2010-01-01T11:46:42Z</time>
      </trkpt>
      <trkpt lat="44.499140" lon="2.856510">
        <ele>523.47</ele>
        <time>2010-01-01T11:47:15Z</time>
      </trkpt>
      <trkpt lat="44.499310" lon="2.856710">
        <ele>523.47</ele>
        <time>2010-01-01T11:47:24Z</time>
      </trkpt>
      <trkpt lat="44.499580" lon="2.857380">
        <ele>524.51</ele>
        <time>2010-01-01T11:47:31Z</time>
      </trkpt>
      <trkpt lat="44.499970" lon="2.857980">
        <ele>525.323730</ele>
        <time>2010-01-01T11:47:37Z</time>
      </trkpt>
      <trkpt lat="44.500200" lon="2.858470">
        <ele>530.574097</ele>
        <time>2010-01-01T11:48:08Z</time>
      </trkpt>
      <trkpt lat="44.500370" lon="2.858730">
        <ele>531.82</ele>
        <time>2010-01-01T11:48:16Z</time>
      </trkpt>
      <trkpt lat="44.500800" lon="2.859170">
        <ele>529.19</ele>
        <time>2010-01-01T11:48:30Z</time>
      </trkpt>
      <trkpt lat="44.500900" lon="2.859330">
        <ele>529.672607</ele>
        <time>2010-01-01T11:48:39Z</time>
      </trkpt>
      <trkpt lat="44.501030" lon="2.859710">
        <ele>530.844727</ele>
        <time>2010-01-01T11:48:59Z</time>
      </trkpt>
      <trkpt lat="44.501070" lon="2.860060">
        <ele>532.937195</ele>
        <time>2010-01-01T11:49:10Z</time>
      </trkpt>
      <trkpt lat="44.501050" lon="2.860300">
        <ele>534.385437</ele>
        <time>2010-01-01T11:49:22Z</time>
      </trkpt>
      <trkpt lat="44.500780" lon="2.861520">
        <ele>539.099548</ele>
        <time>2010-01-01T11:49:31Z</time>
      </trkpt>
      <trkpt lat="44.500610" lon="2.861970">
        <ele>541.159973</ele>
        <time>2010-01-01T11:49:45Z</time>
      </trkpt>
      <trkpt lat="44.500090" lon="2.862780">
        <ele>542.716614</ele>
        <time>2010-01-01T11:49:56Z</time>
      </trkpt>
      <trkpt lat="44.499900" lon="2.863000">
        <ele>542.28</ele>
        <time>2010-01-01T11:50:11Z</time>
      </trkpt>
      <trkpt lat="44.499680" lon="2.863110">
        <ele>542.28</ele>
        <time>2010-01-01T11:50:21Z</time>
      </trkpt>
      <trkpt lat="44.499460" lon="2.863110">
        <ele>542.711914</ele>
        <time>2010-01-01T11:50:27Z</time>
      </trkpt>
      <trkpt lat="44.499170" lon="2.862950">
        <ele>547.510620</ele>
        <time>2010-01-01T11:50:38Z</time>
      </trkpt>
      <trkpt lat="44.498950" lon="2.862920">
        <ele>549.488586</ele>
        <time>2010-01-01T11:51:03Z</time>
      </trkpt>
      <trkpt lat="44.498720" lon="2.863050">
        <ele>550.00</ele>
        <time>2010-01-01T11:51:12Z</time>
      </trkpt>
      <trkpt lat="44.498390" lon="2.863480">
        <ele>551.253784</ele>
        <time>2010-01-01T11:51:23Z</time>
      </trkpt>
      <trkpt lat="44.498110" lon="2.863710">
        <ele>554.440308</ele>
        <time>2010-01-01T11:51:28Z</time>
      </trkpt>
      <trkpt lat="44.497460" lon="2.863850">
        <ele>560.656982</ele>
        <time>2010-01-01T11:51:47Z</time>
      </trkpt>
      <trkpt lat="44.497250" lon="2.863790">
        <ele>561.165100</ele>
        <time>2010-01-01T11:52:08Z</time>
      </trkpt>
      <trkpt lat="44.497120" lon="2.863660">
        <ele>563.288940</ele>
        <time>2010-01-01T11:52:16Z</time>
      </trkpt>
      <trkpt lat="44.497010" lon="2.863380">
        <ele>564.215576</ele>
        <time>2010-01-01T11:52:24Z</time>
      </trkpt>
      <trkpt lat="44.496940" lon="2.862630">
        <ele>568.711304</ele>
        <time>2010-01-01T11:52:40Z</time>
      </trkpt>
      <trkpt lat="44.496810" lon="2.861900">
        <ele>569.621460</ele>
        <time>2010-01-01T11:52:46Z</time>
      </trkpt>
      <trkpt lat="44.496530" lon="2.861080">
        <ele>569.011353</ele>
        <time>2010-01-01T11:52:50Z</time>
      </trkpt>
      <trkpt lat="44.496510" lon="2.860740">
        <ele>569.810608</ele>
        <time>2010-01-01T11:52:50Z</time>
      </trkpt>
      <trkpt lat="44.496580" lon="2.860190">
        <ele>574.611816</ele>
        <time>2010-01-01T11:52:57Z</time>
      </trkpt>
      <trkpt lat="44.496510" lon="2.859920">
        <ele>574.721619</ele>
        <time>2010-01-01T11:53:15Z</time>
      </trkpt>
      <trkpt lat="44.496260" lon="2.859660">
        <ele>577.25</ele>
        <time>2010-01-01T11:53:22Z</time>
      </trkpt>
      <trkpt lat="44.495680" lon="2.859350">
        <ele>579.460754</ele>
        <time>2010-01-01T11:53:25Z</time>
      </trkpt>
      <trkpt lat="44.495340" lon="2.858820">
        <ele>585.415894</ele>
        <time>2010-01-01T11:53:38Z</time>
      </trkpt>
      <trkpt lat="44.494610" lon="2.858280">
        <ele>585.835693</ele>
        <time>2010-01-01T11:57:35Z</time>
      </trkpt>
      <trkpt lat="44.494400" lon="2.858260">
        <ele>585.287476</ele>
        <time>2010-01-01T11:58:52Z</time>
      </trkpt>
      <trkpt lat="44.494260" lon="2.858400">
        <ele>586.50</ele>
        <time>2010-01-01T11:59:02Z</time>
      </trkpt>
      <trkpt lat="44.494220" lon="2.858630">
        <ele>587.47</ele>
        <time>2010-01-01T11:59:19Z</time>
      </trkpt>
      <trkpt lat="44.494180" lon="2.859710">
        <ele>589.173767</ele>
        <time>2010-01-01T11:59:31Z</time>
      </trkpt>
      <trkpt lat="44.494080" lon="2.859960">
        <ele>591.480957</ele>
        <time>2010-01-01T11:59:43Z</time>
      </trkpt>
      <trkpt lat="44.493810" lon="2.860260">
        <ele>599.180298</ele>
        <time>2010-01-01T12:00:19Z</time>
      </trkpt>
      <trkpt lat="44.493680" lon="2.860510">
        <ele>600.74</ele>
        <time>2010-01-01T12:00:28Z</time>
      </trkpt>
      <trkpt lat="44.493620" lon="2.861190">
        <ele>600.74</ele>
        <time>2010-01-01T12:00:38Z</time>
      </trkpt>
      <trkpt lat="44.493500" lon="2.861540">
        <ele>600.975708</ele>
        <time>2010-01-01T12:00:43Z</time>
      </trkpt>
      <trkpt lat="44.493300" lon="2.861880">
        <ele>602.592468</ele>
        <time>2010-01-01T12:00:54Z</time>
      </trkpt>
      <trkpt lat="44.493090" lon="2.862000">
        <ele>604.393127</ele>
        <time>2010-01-01T12:01:24Z</time>
      </trkpt>
      <trkpt lat="44.492750" lon="2.861990">
        <ele>604.846191</ele>
        <time>2010-01-01T12:01:38Z</time>
      </trkpt>
      <trkpt lat="44.492500" lon="2.861840">
        <ele>607.09</ele>
        <time>2010-01-01T12:01:45Z</time>
      </trkpt>
      <trkpt lat="44.492140" lon="2.861710">
        <ele>607.09</ele>
        <time>2010-01-01T12:02:01Z</time>
      </trkpt>
      <trkpt lat="44.491940" lon="2.861510">
        <ele>607.09</ele>
        <time>2010-01-01T12:02:08Z</time>
      </trkpt>
      <trkpt lat="44.491870" lon="2.861310">
        <ele>607.09</ele>
        <time>2010-01-01T12:02:40Z</time>
      </trkpt>
      <trkpt lat="44.491880" lon="2.860930">
        <ele>607.228088</ele>
        <time>2010-01-01T12:02:49Z</time>
      </trkpt>
      <trkpt lat="44.492090" lon="2.860100">
        <ele>616.752319</ele>
        <time>2010-01-01T12:02:58Z</time>
      </trkpt>
      <trkpt lat="44.492070" lon="2.859770">
        <ele>617.55</ele>
        <time>2010-01-01T12:03:40Z</time>
      </trkpt>
      <trkpt lat="44.491960" lon="2.859440">
        <ele>618.486694</ele>
        <time>2010-01-01T12:03:50Z</time>
      </trkpt>
      <trkpt lat="44.491870" lon="2.859290">
        <ele>618.140442</ele>
        <time>2010-01-01T12:05:07Z</time>
      </trkpt>
      <trkpt lat="44.491500" lon="2.858890">
        <ele>618.59</ele>
        <time>2010-01-01T12:05:19Z</time>
      </trkpt>
      <trkpt lat="44.491020" lon="2.858600">
        <ele>621.63</ele>
        <time>2010-01-01T12:05:55Z</time>
      </trkpt>
      <trkpt lat="44.490820" lon="2.858590">
        <ele>621.80</ele>
        <time>2010-01-01T12:06:26Z</time>
      </trkpt>
      <trkpt lat="44.490670" lon="2.858790">
        <ele>621.75</ele>
        <time>2010-01-01T12:07:02Z</time>
      </trkpt>
      <trkpt lat="44.490530" lon="2.859310">
        <ele>619.65</ele>
        <time>2010-01-01T12:08:00Z</time>
      </trkpt>
      <trkpt lat="44.490420" lon="2.859410">
        <ele>619.65</ele>
        <time>2010-01-01T12:08:46Z</time>
      </trkpt>
      <trkpt lat="44.490320" lon="2.859420">
        <ele>619.65</ele>
        <time>2010-01-01T12:08:59Z</time>
      </trkpt>
      <trkpt lat="44.490320" lon="2.859420">
        <ele>619.65</ele>
        <time>2010-01-01T12:09:06Z</time>
      </trkpt>
      <trkpt lat="44.490140" lon="2.859330">
        <ele>620.96</ele>
        <time>2010-01-01T12:09:11Z</time>
      </trkpt>
      <trkpt lat="44.489770" lon="2.858990">
        <ele>628.93</ele>
        <time>2010-01-01T12:09:20Z</time>
      </trkpt>
      <trkpt lat="44.489590" lon="2.858930">
        <ele>629.51</ele>
        <time>2010-01-01T12:09:27Z</time>
      </trkpt>
      <trkpt lat="44.489530" lon="2.858960">
        <ele>629.814758</ele>
        <time>2010-01-01T12:09:52Z</time>
      </trkpt>
      <trkpt lat="44.489310" lon="2.859300">
        <ele>629.67</ele>
        <time>2010-01-01T12:10:04Z</time>
      </trkpt>
      <trkpt lat="44.489030" lon="2.859463">
        <ele>630.685730</ele>
        <time>2010-01-01T12:10:14Z</time>
      </trkpt>
      <trkpt lat="44.488945" lon="2.859645">
        <ele>630.37</ele>
        <time>2010-01-01T12:10:18Z</time>
      </trkpt>
      <trkpt lat="44.488882" lon="2.860238">
        <ele>630.37</ele>
        <time>2010-01-01T12:10:31Z</time>
      </trkpt>
      <trkpt lat="44.488783" lon="2.860427">
        <ele>630.199890</ele>
        <time>2010-01-01T12:10:42Z</time>
      </trkpt>
      <trkpt lat="44.488424" lon="2.860791">
        <ele>636.549744</ele>
        <time>2010-01-01T12:11:03Z</time>
      </trkpt>
      <trkpt lat="44.488348" lon="2.860980">
        <ele>637.56</ele>
        <time>2010-01-01T12:11:17Z</time>
      </trkpt>
      <trkpt lat="44.488321" lon="2.861606">
        <ele>638.71</ele>
        <time>2010-01-01T12:11:41Z</time>
      </trkpt>
      <trkpt lat="44.488208" lon="2.861886">
        <ele>639.71</ele>
        <time>2010-01-01T12:11:46Z</time>
      </trkpt>
      <trkpt lat="44.487904" lon="2.862101">
        <ele>639.71</ele>
        <time>2010-01-01T12:12:08Z</time>
      </trkpt>
      <trkpt lat="44.487783" lon="2.862387">
        <ele>640.13</ele>
        <time>2010-01-01T12:12:31Z</time>
      </trkpt>
      <trkpt lat="44.487715" lon="2.863892">
        <ele>640.13</ele>
        <time>2010-01-01T12:12:45Z</time>
      </trkpt>
      <trkpt lat="44.487659" lon="2.864016">
        <ele>640.877014</ele>
        <time>2010-01-01T12:12:57Z</time>
      </trkpt>
      <trkpt lat="44.486764" lon="2.864387">
        <ele>646.68</ele>
        <time>2010-01-01T12:13:20Z</time>
      </trkpt>
      <trkpt lat="44.485860" lon="2.864670">
        <ele>650.391479</ele>
        <time>2010-01-01T12:13:37Z</time>
      </trkpt>
      <trkpt lat="44.485637" lon="2.864752">
        <ele>652.39</ele>
        <time>2010-01-01T12:13:54Z</time>
      </trkpt>
      <trkpt lat="44.484662" lon="2.863638">
        <ele>649.46</ele>
        <time>2010-01-01T12:14:06Z</time>
      </trkpt>
      <trkpt lat="44.484280" lon="2.863270">
        <ele>649.41</ele>
        <time>2010-01-01T12:14:11Z</time>
      </trkpt>
      <trkpt lat="44.484020" lon="2.863170">
        <ele>649.868591</ele>
        <time>2010-01-01T12:14:23Z</time>
      </trkpt>
      <trkpt lat="44.483610" lon="2.863100">
        <ele>651.93</ele>
        <time>2010-01-01T12:14:34Z</time>
      </trkpt>
      <trkpt lat="44.483300" lon="2.863170">
        <ele>653.004578</ele>
        <time>2010-01-01T12:14:43Z</time>
      </trkpt>
      <trkpt lat="44.483030" lon="2.863340">
        <ele>654.229187</ele>
        <time>2010-01-01T12:15:03Z</time>
      </trkpt>
      <trkpt lat="44.482738" lon="2.863833">
        <ele>656.326843</ele>
        <time>2010-01-01T12:15:14Z</time>
      </trkpt>
      <trkpt lat="44.482770" lon="2.864490">
        <ele>662.299011</ele>
        <time>2010-01-01T12:15:29Z</time>
      </trkpt>
      <trkpt lat="44.482680" lon="2.864780">
        <ele>662.059998</ele>
        <time>2010-01-01T12:15:49Z</time>
      </trkpt>
      <trkpt lat="44.482510" lon="2.864990">
        <ele>662.637390</ele>
        <time>2010-01-01T12:15:58Z</time>
      </trkpt>
      <trkpt lat="44.482390" lon="2.865050">
        <ele>662.134827</ele>
        <time>2010-01-01T12:16:29Z</time>
      </trkpt>
      <trkpt lat="44.482110" lon="2.865070">
        <ele>662.14</ele>
        <time>2010-01-01T12:16:37Z</time>
      </trkpt>
      <trkpt lat="44.481360" lon="2.864960">
        <ele>662.251831</ele>
        <time>2010-01-01T12:17:15Z</time>
      </trkpt>
      <trkpt lat="44.481020" lon="2.865050">
        <ele>664.05</ele>
        <time>2010-01-01T12:17:42Z</time>
      </trkpt>
      <trkpt lat="44.480840" lon="2.864970">
        <ele>664.86</ele>
        <time>2010-01-01T12:17:49Z</time>
      </trkpt>
      <trkpt lat="44.480520" lon="2.864650">
        <ele>664.12</ele>
        <time>2010-01-01T12:19:51Z</time>
      </trkpt>
      <trkpt lat="44.480340" lon="2.864620">
        <ele>664.612000</ele>
        <time>2010-01-01T12:20:02Z</time>
      </trkpt>
      <trkpt lat="44.480133" lon="2.864706">
        <ele>665.018433</ele>
        <time>2010-01-01T12:20:07Z</time>
      </trkpt>
      <trkpt lat="44.480052" lon="2.864954">
        <ele>666.316833</ele>
        <time>2010-01-01T12:20:28Z</time>
      </trkpt>
      <trkpt lat="44.480220" lon="2.865510">
        <ele>671.820984</ele>
        <time>2010-01-01T12:20:44Z</time>
      </trkpt>
      <trkpt lat="44.480170" lon="2.865840">
        <ele>672.12</ele>
        <time>2010-01-01T12:22:42Z</time>
      </trkpt>
      <trkpt lat="44.480000" lon="2.866030">
        <ele>673.61</ele>
        <time>2010-01-01T12:22:56Z</time>
      </trkpt>
      <trkpt lat="44.479466" lon="2.866282">
        <ele>673.61</ele>
        <time>2010-01-01T12:23:47Z</time>
      </trkpt>
      <trkpt lat="44.479150" lon="2.866890">
        <ele>676.043579</ele>
        <time>2010-01-01T12:23:55Z</time>
      </trkpt>
      <trkpt lat="44.478920" lon="2.867000">
        <ele>676.97</ele>
        <time>2010-01-01T12:24:01Z</time>
      </trkpt>
      <trkpt lat="44.477000" lon="2.867260">
        <ele>680.083496</ele>
        <time>2010-01-01T12:24:15Z</time>
      </trkpt>
      <trkpt lat="44.476740" lon="2.867450">
        <ele>681.020020</ele>
        <time>2010-01-01T12:24:49Z</time>
      </trkpt>
      <trkpt lat="44.476080" lon="2.868290">
        <ele>683.315002</ele>
        <time>2010-01-01T12:25:07Z</time>
      </trkpt>
      <trkpt lat="44.475630" lon="2.869180">
        <ele>683.958740</ele>
        <time>2010-01-01T12:25:33Z</time>
      </trkpt>
      <trkpt lat="44.475230" lon="2.870310">
        <ele>684.613525</ele>
        <time>2010-01-01T12:26:32Z</time>
      </trkpt>
      <trkpt lat="44.474260" lon="2.871820">
        <ele>684.230591</ele>
        <time>2010-01-01T12:26:40Z</time>
      </trkpt>
      <trkpt lat="44.473770" lon="2.873280">
        <ele>685.78</ele>
        <time>2010-01-01T12:27:00Z</time>
      </trkpt>
      <trkpt lat="44.473670" lon="2.873710">
        <ele>682.626953</ele>
        <time>2010-01-01T12:27:09Z</time>
      </trkpt>
      <trkpt lat="44.473690" lon="2.873940">
        <ele>680.913147</ele>
        <time>2010-01-01T12:27:16Z</time>
      </trkpt>
      <trkpt lat="44.473760" lon="2.874090">
        <ele>681.201050</ele>
        <time>2010-01-01T12:27:53Z</time>
      </trkpt>
      <trkpt lat="44.473950" lon="2.874260">
        <ele>683.093689</ele>
        <time>2010-01-01T12:28:02Z</time>
      </trkpt>
      <trkpt lat="44.474140" lon="2.874290">
        <ele>685.986389</ele>
        <time>2010-01-01T12:28:13Z</time>
      </trkpt>
      <trkpt lat="44.474750" lon="2.874190">
        <ele>693.450684</ele>
        <time>2010-01-01T12:28:21Z</time>
      </trkpt>
      <trkpt lat="44.475060" lon="2.874190">
        <ele>695.03</ele>
        <time>2010-01-01T12:28:28Z</time>
      </trkpt>
      <trkpt lat="44.475280" lon="2.874310">
        <ele>694.222839</ele>
        <time>2010-01-01T12:28:38Z</time>
      </trkpt>
      <trkpt lat="44.475370" lon="2.874410">
        <ele>693.38</ele>
        <time>2010-01-01T12:28:48Z</time>
      </trkpt>
      <trkpt lat="44.475540" lon="2.874770">
        <ele>693.38</ele>
        <time>2010-01-01T12:29:04Z</time>
      </trkpt>
      <trkpt lat="44.475600" lon="2.875150">
        <ele>693.38</ele>
        <time>2010-01-01T12:29:35Z</time>
      </trkpt>
      <trkpt lat="44.475570" lon="2.875880">
        <ele>693.92</ele>
        <time>2010-01-01T12:29:41Z</time>
      </trkpt>
      <trkpt lat="44.475370" lon="2.876290">
        <ele>693.38</ele>
        <time>2010-01-01T12:29:49Z</time>
      </trkpt>
      <trkpt lat="44.474960" lon="2.876910">
        <ele>693.04</ele>
        <time>2010-01-01T12:30:06Z</time>
      </trkpt>
      <trkpt lat="44.474910" lon="2.877060">
        <ele>693.38</ele>
        <time>2010-01-01T12:30:21Z</time>
      </trkpt>
      <trkpt lat="44.474840" lon="2.877820">
        <ele>694.267090</ele>
        <time>2010-01-01T12:30:52Z</time>
      </trkpt>
      <trkpt lat="44.474727" lon="2.878215">
        <ele>692.09</ele>
        <time>2010-01-01T12:31:13Z</time>
      </trkpt>
      <trkpt lat="44.474680" lon="2.878600">
        <ele>692.09</ele>
        <time>2010-01-01T12:31:54Z</time>
      </trkpt>
      <trkpt lat="44.474770" lon="2.879080">
        <ele>693.59</ele>
        <time>2010-01-01T12:32:49Z</time>
      </trkpt>
      <trkpt lat="44.474890" lon="2.879470">
        <ele>693.420471</ele>
        <time>2010-01-01T12:32:54Z</time>
      </trkpt>
      <trkpt lat="44.475330" lon="2.879980">
        <ele>697.086182</ele>
        <time>2010-01-01T12:32:57Z</time>
      </trkpt>
      <trkpt lat="44.475570" lon="2.880490">
        <ele>697.633240</ele>
        <time>2010-01-01T12:33:30Z</time>
      </trkpt>
      <trkpt lat="44.475710" lon="2.881040">
        <ele>697.773376</ele>
        <time>2010-01-01T12:33:34Z</time>
      </trkpt>
      <trkpt lat="44.475750" lon="2.881460">
        <ele>698.574341</ele>
        <time>2010-01-01T12:33:41Z</time>
      </trkpt>
      <trkpt lat="44.475720" lon="2.881620">
        <ele>698.236450</ele>
        <time>2010-01-01T12:33:45Z</time>
      </trkpt>
      <trkpt lat="44.475560" lon="2.881980">
        <ele>698.938049</ele>
        <time>2010-01-01T12:34:08Z</time>
      </trkpt>
      <trkpt lat="44.475330" lon="2.882190">
        <ele>698.395020</ele>
        <time>2010-01-01T12:34:16Z</time>
      </trkpt>
      <trkpt lat="44.475120" lon="2.882290">
        <ele>697.50</ele>
        <time>2010-01-01T12:34:33Z</time>
      </trkpt>
      <trkpt lat="44.474610" lon="2.882370">
        <ele>695.539978</ele>
        <time>2010-01-01T12:34:43Z</time>
      </trkpt>
      <trkpt lat="44.474370" lon="2.882500">
        <ele>695.88</ele>
        <time>2010-01-01T12:34:49Z</time>
      </trkpt>
      <trkpt lat="44.474060" lon="2.882810">
        <ele>697.80</ele>
        <time>2010-01-01T12:34:53Z</time>
      </trkpt>
      <trkpt lat="44.473700" lon="2.883290">
        <ele>700.500549</ele>
        <time>2010-01-01T12:34:58Z</time>
      </trkpt>
      <trkpt lat="44.473500" lon="2.883450">
        <ele>701.052490</ele>
        <time>2010-01-01T12:35:34Z</time>
      </trkpt>
      <trkpt lat="44.472740" lon="2.883550">
        <ele>701.086792</ele>
        <time>2010-01-01T12:35:59Z</time>
      </trkpt>
      <trkpt lat="44.472570" lon="2.883700">
        <ele>701.60</ele>
        <time>2010-01-01T12:36:06Z</time>
      </trkpt>
      <trkpt lat="44.472100" lon="2.884870">
        <ele>697.714966</ele>
        <time>2010-01-01T12:36:22Z</time>
      </trkpt>
      <trkpt lat="44.471830" lon="2.885730">
        <ele>692.789978</ele>
        <time>2010-01-01T12:36:25Z</time>
      </trkpt>
      <trkpt lat="44.471780" lon="2.885970">
        <ele>691.964539</ele>
        <time>2010-01-01T12:36:28Z</time>
      </trkpt>
      <trkpt lat="44.471663" lon="2.886969">
        <ele>690.605286</ele>
        <time>2010-01-01T12:36:35Z</time>
      </trkpt>
      <trkpt lat="44.471196" lon="2.888102">
        <ele>684.724976</ele>
        <time>2010-01-01T12:36:49Z</time>
      </trkpt>
      <trkpt lat="44.470420" lon="2.889700">
        <ele>684.043335</ele>
        <time>2010-01-01T12:36:57Z</time>
      </trkpt>
      <trkpt lat="44.470220" lon="2.889960">
        <ele>681.597778</ele>
        <time>2010-01-01T12:37:17Z</time>
      </trkpt>
      <trkpt lat="44.470120" lon="2.890050">
        <ele>680.327515</ele>
        <time>2010-01-01T12:37:52Z</time>
      </trkpt>
      <trkpt lat="44.469620" lon="2.890240">
        <ele>673.694397</ele>
        <time>2010-01-01T12:38:12Z</time>
      </trkpt>
      <trkpt lat="44.469250" lon="2.890440">
        <ele>669.073914</ele>
        <time>2010-01-01T12:38:22Z</time>
      </trkpt>
      <trkpt lat="44.466530" lon="2.892080">
        <ele>651.120300</ele>
        <time>2010-01-01T12:38:41Z</time>
      </trkpt>
      <trkpt lat="44.466260" lon="2.892370">
        <ele>653.036194</ele>
        <time>2010-01-01T12:39:21Z</time>
      </trkpt>
      <trkpt lat="44.465600" lon="2.893880">
        <ele>648.343994</ele>
        <time>2010-01-01T12:39:31Z</time>
      </trkpt>
      <trkpt lat="44.465470" lon="2.894110">
        <ele>648.344360</ele>
        <time>2010-01-01T12:39:41Z</time>
      </trkpt>
      <trkpt lat="44.465350" lon="2.894220">
        <ele>647.11</ele>
        <time>2010-01-01T12:39:59Z</time>
      </trkpt>
      <trkpt lat="44.465010" lon="2.894330">
        <ele>647.11</ele>
        <time>2010-01-01T12:40:54Z</time>
      </trkpt>
      <trkpt lat="44.464150" lon="2.894280">
        <ele>645.85</ele>
        <time>2010-01-01T12:41:11Z</time>
      </trkpt>
      <trkpt lat="44.463720" lon="2.894450">
        <ele>642.646301</ele>
        <time>2010-01-01T12:41:38Z</time>
      </trkpt>
      <trkpt lat="44.463110" lon="2.894780">
        <ele>640.539551</ele>
        <time>2010-01-01T12:41:38Z</time>
      </trkpt>
      <trkpt lat="44.461740" lon="2.895510">
        <ele>630.756653</ele>
        <time>2010-01-01T12:41:55Z</time>
      </trkpt>
      <trkpt lat="44.461550" lon="2.895640">
        <ele>630.922058</ele>
        <time>2010-01-01T12:42:04Z</time>
      </trkpt>
      <trkpt lat="44.461150" lon="2.896050">
        <ele>627.226685</ele>
        <time>2010-01-01T12:42:34Z</time>
      </trkpt>
      <trkpt lat="44.461010" lon="2.896270">
        <ele>626.063965</ele>
        <time>2010-01-01T12:43:07Z</time>
      </trkpt>
      <trkpt lat="44.460960" lon="2.896510">
        <ele>622.93</ele>
        <time>2010-01-01T12:43:45Z</time>
      </trkpt>
      <trkpt lat="44.460840" lon="2.897820">
        <ele>614.989990</ele>
        <time>2010-01-01T12:44:44Z</time>
      </trkpt>
      <trkpt lat="44.460770" lon="2.898110">
        <ele>613.106628</ele>
        <time>2010-01-01T12:44:59Z</time>
      </trkpt>
      <trkpt lat="44.460580" lon="2.898380">
        <ele>612.260071</ele>
        <time>2010-01-01T12:45:15Z</time>
      </trkpt>
      <trkpt lat="44.460390" lon="2.898380">
        <ele>611.715759</ele>
        <time>2010-01-01T12:45:28Z</time>
      </trkpt>
      <trkpt lat="44.460230" lon="2.898260">
        <ele>610.227844</ele>
        <time>2010-01-01T12:46:15Z</time>
      </trkpt>
      <trkpt lat="44.460060" lon="2.898020">
        <ele>610.124756</ele>
        <time>2010-01-01T12:46:30Z</time>
      </trkpt>
      <trkpt lat="44.459910" lon="2.897740">
        <ele>610.37</ele>
        <time>2010-01-01T12:46:46Z</time>
      </trkpt>
      <trkpt lat="44.459760" lon="2.897200">
        <ele>610.37</ele>
        <time>2010-01-01T12:47:17Z</time>
      </trkpt>
      <trkpt lat="44.459260" lon="2.896380">
        <ele>609.408142</ele>
        <time>2010-01-01T12:48:00Z</time>
      </trkpt>
      <trkpt lat="44.459120" lon="2.896320">
        <ele>608.616272</ele>
        <time>2010-01-01T12:48:42Z</time>
      </trkpt>
      <trkpt lat="44.458930" lon="2.896460">
        <ele>607.257935</ele>
        <time>2010-01-01T12:49:01Z</time>
      </trkpt>
      <trkpt lat="44.458790" lon="2.897010">
        <ele>600.666138</ele>
        <time>2010-01-01T12:49:43Z</time>
      </trkpt>
      <trkpt lat="44.458760" lon="2.897520">
        <ele>595.943298</ele>
        <time>2010-01-01T12:49:59Z</time>
      </trkpt>
      <trkpt lat="44.458770" lon="2.898620">
        <ele>589.381897</ele>
        <time>2010-01-01T12:50:12Z</time>
      </trkpt>
      <trkpt lat="44.458820" lon="2.899360">
        <ele>586.785889</ele>
        <time>2010-01-01T12:50:33Z</time>
      </trkpt>
      <trkpt lat="44.458990" lon="2.900770">
        <ele>580.431763</ele>
        <time>2010-01-01T12:50:42Z</time>
      </trkpt>
      <trkpt lat="44.459060" lon="2.902670">
        <ele>569.477295</ele>
        <time>2010-01-01T12:51:03Z</time>
      </trkpt>
      <trkpt lat="44.459010" lon="2.902830">
        <ele>567.66</ele>
        <time>2010-01-01T12:51:12Z</time>
      </trkpt>
      <trkpt lat="44.458930" lon="2.902900">
        <ele>567.66</ele>
        <time>2010-01-01T12:51:19Z</time>
      </trkpt>
      <trkpt lat="44.458130" lon="2.902610">
        <ele>572.096069</ele>
        <time>2010-01-01T12:51:25Z</time>
      </trkpt>
      <trkpt lat="44.458050" lon="2.902630">
        <ele>572.84</ele>
        <time>2010-01-01T12:51:57Z</time>
      </trkpt>
      <trkpt lat="44.457940" lon="2.902830">
        <ele>573.017395</ele>
        <time>2010-01-01T12:52:13Z</time>
      </trkpt>
      <trkpt lat="44.457930" lon="2.902960">
        <ele>573.70</ele>
        <time>2010-01-01T12:53:19Z</time>
      </trkpt>
      <trkpt lat="44.458240" lon="2.903640">
        <ele>568.344055</ele>
        <time>2010-01-01T12:54:10Z</time>
      </trkpt>
      <trkpt lat="44.458300" lon="2.903910">
        <ele>565.689575</ele>
        <time>2010-01-01T12:54:54Z</time>
      </trkpt>
      <trkpt lat="44.458270" lon="2.904520">
        <ele>560.964478</ele>
        <time>2010-01-01T12:55:27Z</time>
      </trkpt>
      <trkpt lat="44.458180" lon="2.904830">
        <ele>558.280212</ele>
        <time>2010-01-01T12:55:44Z</time>
      </trkpt>
      <trkpt lat="44.458080" lon="2.905010">
        <ele>552.255432</ele>
        <time>2010-01-01T12:56:02Z</time>
      </trkpt>
      <trkpt lat="44.458000" lon="2.905050">
        <ele>549.968018</ele>
        <time>2010-01-01T12:57:47Z</time>
      </trkpt>
      <trkpt lat="44.457860" lon="2.905000">
        <ele>549.46</ele>
        <time>2010-01-01T12:57:51Z</time>
      </trkpt>
      <trkpt lat="44.457250" lon="2.904080">
        <ele>549.58</ele>
        <time>2010-01-01T12:58:08Z</time>
      </trkpt>
      <trkpt lat="44.456690" lon="2.903690">
        <ele>549.24</ele>
        <time>2010-01-01T12:58:32Z</time>
      </trkpt>
      <trkpt lat="44.456600" lon="2.903490">
        <ele>549.261841</ele>
        <time>2010-01-01T12:58:40Z</time>
      </trkpt>
      <trkpt lat="44.456570" lon="2.902920">
        <ele>549.61</ele>
        <time>2010-01-01T12:58:40Z</time>
      </trkpt>
      <trkpt lat="44.456520" lon="2.902870">
        <ele>549.546875</ele>
        <time>2010-01-01T12:59:03Z</time>
      </trkpt>
      <trkpt lat="44.456450" lon="2.902890">
        <ele>547.627747</ele>
        <time>2010-01-01T12:59:09Z</time>
      </trkpt>
      <trkpt lat="44.456370" lon="2.903120">
        <ele>546.007202</ele>
        <time>2010-01-01T12:59:18Z</time>
      </trkpt>
      <trkpt lat="44.456370" lon="2.903610">
        <ele>541.552795</ele>
        <time>2010-01-01T12:59:24Z</time>
      </trkpt>
      <trkpt lat="44.456430" lon="2.903890">
        <ele>538.410278</ele>
        <time>2010-01-01T12:59:30Z</time>
      </trkpt>
      <trkpt lat="44.456750" lon="2.904400">
        <ele>534.982056</ele>
        <time>2010-01-01T12:59:36Z</time>
      </trkpt>
      <trkpt lat="44.457110" lon="2.905540">
        <ele>525.133789</ele>
        <time>2010-01-01T12:59:40Z</time>
      </trkpt>
      <trkpt lat="44.457380" lon="2.906130">
        <ele>521.088745</ele>
        <time>2010-01-01T12:59:45Z</time>
      </trkpt>
      <trkpt lat="44.457550" lon="2.906350">
        <ele>520.927002</ele>
        <time>2010-01-01T13:00:01Z</time>
      </trkpt>
      <trkpt lat="44.457960" lon="2.906730">
        <ele>516.35</ele>
        <time>2010-01-01T13:00:16Z</time>
      </trkpt>
      <trkpt lat="44.458850" lon="2.907350">
        <ele>510.936615</ele>
        <time>2010-01-01T13:00:22Z</time>
      </trkpt>
      <trkpt lat="44.459030" lon="2.907580">
        <ele>507.942627</ele>
        <time>2010-01-01T13:00:41Z</time>
      </trkpt>
      <trkpt lat="44.459170" lon="2.907860">
        <ele>503.468750</ele>
        <time>2010-01-01T13:00:52Z</time>
      </trkpt>
      <trkpt lat="44.459360" lon="2.908460">
        <ele>503.768188</ele>
        <time>2010-01-01T13:00:56Z</time>
      </trkpt>
      <trkpt lat="44.459560" lon="2.910340">
        <ele>497.95</ele>
        <time>2010-01-01T13:00:59Z</time>
      </trkpt>
      <trkpt lat="44.459670" lon="2.910940">
        <ele>495.48</ele>
        <time>2010-01-01T13:01:13Z</time>
      </trkpt>
      <trkpt lat="44.460030" lon="2.911730">
        <ele>495.48</ele>
        <time>2010-01-01T13:01:21Z</time>
      </trkpt>
      <trkpt lat="44.460030" lon="2.911730">
        <ele>495.48</ele>
        <time>2010-01-01T13:02:24Z</time>
      </trkpt>
      <trkpt lat="44.460230" lon="2.912230">
        <ele>496.76</ele>
        <time>2010-01-01T13:02:41Z</time>
      </trkpt>
      <trkpt lat="44.460300" lon="2.912530">
        <ele>494.31</ele>
        <time>2010-01-01T13:03:02Z</time>
      </trkpt>
      <trkpt lat="44.460460" lon="2.913570">
        <ele>487.69</ele>
        <time>2010-01-01T13:03:22Z</time>
      </trkpt>
      <trkpt lat="44.460710" lon="2.914680">
        <ele>484.892090</ele>
        <time>2010-01-01T13:03:42Z</time>
      </trkpt>
      <trkpt lat="44.461070" lon="2.915900">
        <ele>482.19</ele>
        <time>2010-01-01T13:04:02Z</time>
      </trkpt>
      <trkpt lat="44.461770" lon="2.917730">
        <ele>482.19</ele>
        <time>2010-01-01T13:04:02Z</time>
      </trkpt>
      <trkpt lat="44.461880" lon="2.918230">
        <ele>481.65</ele>
        <time>2010-01-01T13:04:25Z</time>
      </trkpt>
      <trkpt lat="44.461950" lon="2.918780">
        <ele>482.278778</ele>
        <time>2010-01-01T13:04:35Z</time>
      </trkpt>
      <trkpt lat="44.461970" lon="2.919210">
        <ele>482.56</ele>
        <time>2010-01-01T13:04:54Z</time>
      </trkpt>
      <trkpt lat="44.461770" lon="2.920850">
        <ele>465.819733</ele>
        <time>2010-01-01T13:05:04Z</time>
      </trkpt>
      <trkpt lat="44.461730" lon="2.921370">
        <ele>465.687164</ele>
        <time>2010-01-01T13:05:35Z</time>
      </trkpt>
      <trkpt lat="44.461740" lon="2.921920">
        <ele>465.054413</ele>
        <time>2010-01-01T13:05:56Z</time>
      </trkpt>
      <trkpt lat="44.461940" lon="2.922990">
        <ele>465.08</ele>
        <time>2010-01-01T13:07:16Z</time>
      </trkpt>
      <trkpt lat="44.461970" lon="2.924470">
        <ele>459.407532</ele>
        <time>2010-01-01T13:07:28Z</time>
      </trkpt>
      <trkpt lat="44.462130" lon="2.925930">
        <ele>455.201050</ele>
        <time>2010-01-01T13:07:58Z</time>
      </trkpt>
      <trkpt lat="44.462230" lon="2.926600">
        <ele>456.435669</ele>
        <time>2010-01-01T13:08:23Z</time>
      </trkpt>
      <trkpt lat="44.462600" lon="2.927960">
        <ele>455.25</ele>
        <time>2010-01-01T13:09:13Z</time>
      </trkpt>
      <trkpt lat="44.462650" lon="2.928530">
        <ele>454.01</ele>
        <time>2010-01-01T13:09:37Z</time>
      </trkpt>
      <trkpt lat="44.462650" lon="2.928960">
        <ele>453.09</ele>
        <time>2010-01-01T13:09:47Z</time>
      </trkpt>
      <trkpt lat="44.462540" lon="2.929700">
        <ele>452.17</ele>
        <time>2010-01-01T13:09:54Z</time>
      </trkpt>
      <trkpt lat="44.462440" lon="2.929990">
        <ele>452.80</ele>
        <time>2010-01-01T13:10:21Z</time>
      </trkpt>
      <trkpt lat="44.462120" lon="2.930550">
        <ele>452.60</ele>
        <time>2010-01-01T13:13:11Z</time>
      </trkpt>
      <trkpt lat="44.462120" lon="2.930870">
        <ele>451.49</ele>
        <time>2010-01-01T13:13:16Z</time>
      </trkpt>
      <trkpt lat="44.462190" lon="2.931100">
        <ele>448.770172</ele>
        <time>2010-01-01T13:13:22Z</time>
      </trkpt>
      <trkpt lat="44.462280" lon="2.931240">
        <ele>447.945007</ele>
        <time>2010-01-01T13:13:26Z</time>
      </trkpt>
      <trkpt lat="44.462930" lon="2.931940">
        <ele>444.157288</ele>
        <time>2010-01-01T13:13:33Z</time>
      </trkpt>
      <trkpt lat="44.463190" lon="2.932340">
        <ele>444.89</ele>
        <time>2010-01-01T13:17:34Z</time>
      </trkpt>
      <trkpt lat="44.464130" lon="2.934250">
        <ele>444.02</ele>
        <time>2010-01-01T13:20:30Z</time>
      </trkpt>
      <trkpt lat="44.464940" lon="2.935640">
        <ele>443.17</ele>
        <time>2010-01-01T13:20:30Z</time>
      </trkpt>
      <trkpt lat="44.465510" lon="2.936950">
        <ele>441.09</ele>
        <time>2010-01-01T13:21:09Z</time>
      </trkpt>
      <trkpt lat="44.465800" lon="2.938010">
        <ele>439.296448</ele>
        <time>2010-01-01T13:21:19Z</time>
      </trkpt>
      <trkpt lat="44.465870" lon="2.938620">
        <ele>438.062592</ele>
        <time>2010-01-01T13:21:32Z</time>
      </trkpt>
      <trkpt lat="44.465890" lon="2.939230">
        <ele>436.341187</ele>
        <time>2010-01-01T13:21:37Z</time>
      </trkpt>
      <trkpt lat="44.465804" lon="2.940718">
        <ele>433.672943</ele>
        <time>2010-01-01T13:21:43Z</time>
      </trkpt>
      <trkpt lat="44.465696" lon="2.941037">
        <ele>433.565765</ele>
        <time>2010-01-01T13:21:50Z</time>
      </trkpt>
      <trkpt lat="44.465763" lon="2.941148">
        <ele>432.10</ele>
        <time>2010-01-01T13:22:08Z</time>
      </trkpt>
      <trkpt lat="44.465777" lon="2.941356">
        <ele>430.413879</ele>
        <time>2010-01-01T13:22:14Z</time>
      </trkpt>
      <trkpt lat="44.465710" lon="2.941819">
        <ele>426.856384</ele>
        <time>2010-01-01T13:22:44Z</time>
      </trkpt>
      <trkpt lat="44.465950" lon="2.942750">
        <ele>421.480743</ele>
        <time>2010-01-01T13:23:01Z</time>
      </trkpt>
      <trkpt lat="44.465960" lon="2.942900">
        <ele>421.377838</ele>
        <time>2010-01-01T13:23:10Z</time>
      </trkpt>
      <trkpt lat="44.465680" lon="2.943330">
        <ele>421.582733</ele>
        <time>2010-01-01T13:23:21Z</time>
      </trkpt>
      <trkpt lat="44.465180" lon="2.943790">
        <ele>420.994995</ele>
        <time>2010-01-01T13:23:25Z</time>
      </trkpt>
      <trkpt lat="44.465100" lon="2.944060">
        <ele>420.820007</ele>
        <time>2010-01-01T13:23:55Z</time>
      </trkpt>
      <trkpt lat="44.465100" lon="2.944060">
        <ele>420.820007</ele>
        <time>2010-01-01T13:24:18Z</time>
      </trkpt>
      <trkpt lat="44.464820" lon="2.944750">
        <ele>419.947205</ele>
        <time>2010-01-01T13:24:28Z</time>
      </trkpt>
      <trkpt lat="44.464790" lon="2.944960">
        <ele>419.867828</ele>
        <time>2010-01-01T13:24:43Z</time>
      </trkpt>
      <trkpt lat="44.464810" lon="2.945290">
        <ele>419.809998</ele>
        <time>2010-01-01T13:24:50Z</time>
      </trkpt>
      <trkpt lat="44.464750" lon="2.945470">
        <ele>419.940002</ele>
        <time>2010-01-01T13:25:01Z</time>
      </trkpt>
      <trkpt lat="44.464610" lon="2.945470">
        <ele>420.252502</ele>
        <time>2010-01-01T13:25:07Z</time>
      </trkpt>
      <trkpt lat="44.464460" lon="2.945560">
        <ele>420.584991</ele>
        <time>2010-01-01T13:25:12Z</time>
      </trkpt>
      <trkpt lat="44.464440" lon="2.945680">
        <ele>420.700439</ele>
        <time>2010-01-01T13:25:42Z</time>
      </trkpt>
      <trkpt lat="44.464350" lon="2.945830">
        <ele>421.119934</ele>
        <time>2010-01-01T13:25:46Z</time>
      </trkpt>
      <trkpt lat="44.464290" lon="2.946360">
        <ele>421.904999</ele>
        <time>2010-01-01T13:25:50Z</time>
      </trkpt>
      <trkpt lat="44.464340" lon="2.946910">
        <ele>421.605286</ele>
        <time>2010-01-01T13:25:53Z</time>
      </trkpt>
      <trkpt lat="44.464290" lon="2.947110">
        <ele>421.511536</ele>
        <time>2010-01-01T13:26:12Z</time>
      </trkpt>
      <trkpt lat="44.464010" lon="2.947630">
        <ele>421.991211</ele>
        <time>2010-01-01T13:26:20Z</time>
      </trkpt>
      <trkpt lat="44.463940" lon="2.948010">
        <ele>421.826263</ele>
        <time>2010-01-01T13:26:29Z</time>
      </trkpt>
      <trkpt lat="44.463880" lon="2.948120">
        <ele>421.84</ele>
        <time>2010-01-01T13:26:34Z</time>
      </trkpt>
      <trkpt lat="44.463820" lon="2.948140">
        <ele>421.98</ele>
        <time>2010-01-01T13:26:44Z</time>
      </trkpt>
      <trkpt lat="44.463490" lon="2.948000">
        <ele>421.98</ele>
        <time>2010-01-01T13:26:52Z</time>
      </trkpt>
      <trkpt lat="44.463300" lon="2.948110">
        <ele>421.98</ele>
        <time>2010-01-01T13:26:57Z</time>
      </trkpt>
      <trkpt lat="44.462360" lon="2.949880">
        <ele>421.317505</ele>
        <time>2010-01-01T13:27:11Z</time>
      </trkpt>
      <trkpt lat="44.462050" lon="2.950310">
        <ele>420.467499</ele>
        <time>2010-01-01T13:27:47Z</time>
      </trkpt>
      <trkpt lat="44.461540" lon="2.950420">
        <ele>420.567505</ele>
        <time>2010-01-01T13:28:08Z</time>
      </trkpt>
      <trkpt lat="44.461050" lon="2.950450">
        <ele>420.454987</ele>
        <time>2010-01-01T13:28:22Z</time>
      </trkpt>
      <trkpt lat="44.460540" lon="2.950460">
        <ele>420.260712</ele>
        <time>2010-01-01T13:28:32Z</time>
      </trkpt>
      <trkpt lat="44.460050" lon="2.950550">
        <ele>420.161163</ele>
        <time>2010-01-01T13:29:09Z</time>
      </trkpt>
      <trkpt lat="44.460050" lon="2.950550">
        <ele>420.161163</ele>
        <time>2010-01-01T13:29:17Z</time>
      </trkpt>
      <trkpt lat="44.459490" lon="2.950760">
        <ele>422.492584</ele>
        <time>2010-01-01T13:29:24Z</time>
      </trkpt>
      <trkpt lat="44.459250" lon="2.950780">
        <ele>424.234772</ele>
        <time>2010-01-01T13:29:39Z</time>
      </trkpt>
      <trkpt lat="44.458770" lon="2.950760">
        <ele>429.563110</ele>
        <time>2010-01-01T13:29:56Z</time>
      </trkpt>
      <trkpt lat="44.458540" lon="2.950620">
        <ele>430.48</ele>
        <time>2010-01-01T13:30:31Z</time>
      </trkpt>
      <trkpt lat="44.458300" lon="2.951670">
        <ele>428.50</ele>
        <time>2010-01-01T13:30:50Z</time>
      </trkpt>
      <trkpt lat="44.458210" lon="2.952370">
        <ele>427.25</ele>
        <time>2010-01-01T13:31:00Z</time>
      </trkpt>
      <trkpt lat="44.458160" lon="2.955180">
        <ele>427.46</ele>
        <time>2010-01-01T13:31:30Z</time>
      </trkpt>
      <trkpt lat="44.458200" lon="2.955590">
        <ele>427.030914</ele>
        <time>2010-01-01T13:32:30Z</time>
      </trkpt>
      <trkpt lat="44.458490" lon="2.956560">
        <ele>427.57</ele>
        <time>2010-01-01T13:32:34Z</time>
      </trkpt>
      <trkpt lat="44.458540" lon="2.957430">
        <ele>427.18</ele>
        <time>2010-01-01T13:32:39Z</time>
      </trkpt>
      <trkpt lat="44.458530" lon="2.959190">
        <ele>427.18</ele>
        <time>2010-01-01T13:33:11Z</time>
      </trkpt>
      <trkpt lat="44.458510" lon="2.960030">
        <ele>427.18</ele>
        <time>2010-01-01T13:33:16Z</time>
      </trkpt>
      <trkpt lat="44.458520" lon="2.960390">
        <ele>427.18</ele>
        <time>2010-01-01T13:33:27Z</time>
      </trkpt>
      <trkpt lat="44.458570" lon="2.960620">
        <ele>427.54</ele>
        <time>2010-01-01T13:33:33Z</time>
      </trkpt>
      <trkpt lat="44.458840" lon="2.961490">
        <ele>427.18</ele>
        <time>2010-01-01T13:33:44Z</time>
      </trkpt>
      <trkpt lat="44.460730" lon="2.966800">
        <ele>423.361023</ele>
        <time>2010-01-01T13:33:51Z</time>
      </trkpt>
      <trkpt lat="44.460790" lon="2.966950">
        <ele>423.477509</ele>
        <time>2010-01-01T13:33:56Z</time>
      </trkpt>
      <trkpt lat="44.460920" lon="2.967090">
        <ele>423.187500</ele>
        <time>2010-01-01T13:34:05Z</time>
      </trkpt>
      <trkpt lat="44.460900" lon="2.967230">
        <ele>423.230011</ele>
        <time>2010-01-01T13:34:10Z</time>
      </trkpt>
      <trkpt lat="44.460940" lon="2.967450">
        <ele>423.137512</ele>
        <time>2010-01-01T13:34:17Z</time>
      </trkpt>
      <trkpt lat="44.463650" lon="2.975000">
        <ele>429.64</ele>
        <time>2010-01-01T13:34:40Z</time>
      </trkpt>
      <trkpt lat="44.459800" lon="2.977960">
        <ele>440.248505</ele>
        <time>2010-01-01T13:34:49Z</time>
      </trkpt>
      <trkpt lat="44.459800" lon="2.977960">
        <ele>440.248505</ele>
        <time>2010-01-01T13:34:55Z</time>
      </trkpt>
      <trkpt lat="44.458970" lon="2.978640">
        <ele>447.989227</ele>
        <time>2010-01-01T13:35:02Z</time>
      </trkpt>
      <trkpt lat="44.458820" lon="2.978920">
        <ele>450.353363</ele>
        <time>2010-01-01T13:35:13Z</time>
      </trkpt>
      <trkpt lat="44.458660" lon="2.979350">
        <ele>452.775574</ele>
        <time>2010-01-01T13:35:41Z</time>
      </trkpt>
      <trkpt lat="44.458570" lon="2.979460">
        <ele>453.31</ele>
        <time>2010-01-01T13:35:52Z</time>
      </trkpt>
      <trkpt lat="44.458440" lon="2.979500">
        <ele>453.31</ele>
        <time>2010-01-01T13:36:06Z</time>
      </trkpt>
      <trkpt lat="44.458260" lon="2.979420">
        <ele>453.31</ele>
        <time>2010-01-01T13:36:24Z</time>
      </trkpt>
      <trkpt lat="44.458030" lon="2.978900">
        <ele>453.31</ele>
        <time>2010-01-01T13:36:30Z</time>
      </trkpt>
      <trkpt lat="44.457910" lon="2.978760">
        <ele>453.31</ele>
        <time>2010-01-01T13:36:35Z</time>
      </trkpt>
      <trkpt lat="44.457150" lon="2.978690">
        <ele>455.47</ele>
        <time>2010-01-01T13:36:58Z</time>
      </trkpt>
      <trkpt lat="44.456810" lon="2.978380">
        <ele>455.16</ele>
        <time>2010-01-01T13:37:23Z</time>
      </trkpt>
      <trkpt lat="44.456590" lon="2.978250">
        <ele>455.893463</ele>
        <time>2010-01-01T13:37:28Z</time>
      </trkpt>
      <trkpt lat="44.456320" lon="2.978200">
        <ele>457.450012</ele>
        <time>2010-01-01T13:37:46Z</time>
      </trkpt>
      <trkpt lat="44.456220" lon="2.978230">
        <ele>458.674988</ele>
        <time>2010-01-01T13:37:52Z</time>
      </trkpt>
      <trkpt lat="44.455540" lon="2.978640">
        <ele>470.883636</ele>
        <time>2010-01-01T13:38:20Z</time>
      </trkpt>
      <trkpt lat="44.454960" lon="2.978800">
        <ele>478.033386</ele>
        <time>2010-01-01T13:38:27Z</time>
      </trkpt>
      <trkpt lat="44.454740" lon="2.978710">
        <ele>479.78</ele>
        <time>2010-01-01T13:38:31Z</time>
      </trkpt>
      <trkpt lat="44.454530" lon="2.978270">
        <ele>475.30</ele>
        <time>2010-01-01T13:38:35Z</time>
      </trkpt>
      <trkpt lat="44.454360" lon="2.978160">
        <ele>475.147064</ele>
        <time>2010-01-01T13:38:51Z</time>
      </trkpt>
      <trkpt lat="44.454080" lon="2.978150">
        <ele>476.218964</ele>
        <time>2010-01-01T13:38:58Z</time>
      </trkpt>
      <trkpt lat="44.453980" lon="2.978260">
        <ele>476.927368</ele>
        <time>2010-01-01T13:39:10Z</time>
      </trkpt>
      <trkpt lat="44.453930" lon="2.978440">
        <ele>479.70</ele>
        <time>2010-01-01T13:39:17Z</time>
      </trkpt>
      <trkpt lat="44.453820" lon="2.979460">
        <ele>494.976746</ele>
        <time>2010-01-01T13:39:53Z</time>
      </trkpt>
      <trkpt lat="44.453750" lon="2.979600">
        <ele>495.008209</ele>
        <time>2010-01-01T13:40:24Z</time>
      </trkpt>
      <trkpt lat="44.453660" lon="2.979640">
        <ele>497.29</ele>
        <time>2010-01-01T13:40:31Z</time>
      </trkpt>
      <trkpt lat="44.453590" lon="2.979590">
        <ele>497.59</ele>
        <time>2010-01-01T13:40:36Z</time>
      </trkpt>
      <trkpt lat="44.453390" lon="2.979010">
        <ele>497.27</ele>
        <time>2010-01-01T13:40:41Z</time>
      </trkpt>
      <trkpt lat="44.453240" lon="2.978820">
        <ele>497.76</ele>
        <time>2010-01-01T13:41:01Z</time>
      </trkpt>
      <trkpt lat="44.453030" lon="2.978690">
        <ele>498.112793</ele>
        <time>2010-01-01T13:41:50Z</time>
      </trkpt>
      <trkpt lat="44.452950" lon="2.978540">
        <ele>498.48</ele>
        <time>2010-01-01T13:41:58Z</time>
      </trkpt>
      <trkpt lat="44.452910" lon="2.978200">
        <ele>496.73</ele>
        <time>2010-01-01T13:42:20Z</time>
      </trkpt>
      <trkpt lat="44.452820" lon="2.977950">
        <ele>496.03</ele>
        <time>2010-01-01T13:42:53Z</time>
      </trkpt>
      <trkpt lat="44.452710" lon="2.977860">
        <ele>497.39</ele>
        <time>2010-01-01T13:42:59Z</time>
      </trkpt>
      <trkpt lat="44.452380" lon="2.977740">
        <ele>499.432861</ele>
        <time>2010-01-01T13:43:05Z</time>
      </trkpt>
      <trkpt lat="44.451500" lon="2.977540">
        <ele>503.226563</ele>
        <time>2010-01-01T13:44:16Z</time>
      </trkpt>
      <trkpt lat="44.450970" lon="2.977530">
        <ele>506.053955</ele>
        <time>2010-01-01T13:44:24Z</time>
      </trkpt>
      <trkpt lat="44.450630" lon="2.977670">
        <ele>511.580963</ele>
        <time>2010-01-01T13:45:04Z</time>
      </trkpt>
      <trkpt lat="44.450390" lon="2.977710">
        <ele>513.641174</ele>
        <time>2010-01-01T13:45:45Z</time>
      </trkpt>
      <trkpt lat="44.449470" lon="2.977710">
        <ele>515.078979</ele>
        <time>2010-01-01T13:45:58Z</time>
      </trkpt>
      <trkpt lat="44.449260" lon="2.977750">
        <ele>515.509338</ele>
        <time>2010-01-01T13:46:07Z</time>
      </trkpt>
      <trkpt lat="44.449090" lon="2.977850">
        <ele>516.067261</ele>
        <time>2010-01-01T13:46:26Z</time>
      </trkpt>
      <trkpt lat="44.448780" lon="2.978140">
        <ele>518.609192</ele>
        <time>2010-01-01T13:46:42Z</time>
      </trkpt>
      <trkpt lat="44.448530" lon="2.978600">
        <ele>519.328003</ele>
        <time>2010-01-01T13:46:53Z</time>
      </trkpt>
      <trkpt lat="44.448390" lon="2.979810">
        <ele>532.033325</ele>
        <time>2010-01-01T13:47:33Z</time>
      </trkpt>
      <trkpt lat="44.448350" lon="2.980490">
        <ele>535.273560</ele>
        <time>2010-01-01T13:48:31Z</time>
      </trkpt>
      <trkpt lat="44.448290" lon="2.980820">
        <ele>537.44</ele>
        <time>2010-01-01T13:48:48Z</time>
      </trkpt>
      <trkpt lat="44.447880" lon="2.981700">
        <ele>538.62</ele>
        <time>2010-01-01T13:48:54Z</time>
      </trkpt>
      <trkpt lat="44.447330" lon="2.983630">
        <ele>542.09</ele>
        <time>2010-01-01T13:49:04Z</time>
      </trkpt>
      <trkpt lat="44.447330" lon="2.983800">
        <ele>543.575684</ele>
        <time>2010-01-01T13:49:11Z</time>
      </trkpt>
      <trkpt lat="44.447400" lon="2.983940">
        <ele>545.284851</ele>
        <time>2010-01-01T13:49:19Z</time>
      </trkpt>
      <trkpt lat="44.448090" lon="2.984510">
        <ele>563.202332</ele>
        <time>2010-01-01T13:49:26Z</time>
      </trkpt>
      <trkpt lat="44.448130" lon="2.984680">
        <ele>564.304077</ele>
        <time>2010-01-01T13:49:36Z</time>
      </trkpt>
      <trkpt lat="44.448090" lon="2.985050">
        <ele>564.163696</ele>
        <time>2010-01-01T13:49:48Z</time>
      </trkpt>
      <trkpt lat="44.447970" lon="2.985150">
        <ele>563.63</ele>
        <time>2010-01-01T13:49:54Z</time>
      </trkpt>
      <trkpt lat="44.447690" lon="2.985110">
        <ele>556.698975</ele>
        <time>2010-01-01T13:50:10Z</time>
      </trkpt>
      <trkpt lat="44.447510" lon="2.985160">
        <ele>555.414612</ele>
        <time>2010-01-01T13:50:17Z</time>
      </trkpt>
      <trkpt lat="44.447390" lon="2.985220">
        <ele>555.300293</ele>
        <time>2010-01-01T13:50:31Z</time>
      </trkpt>
      <trkpt lat="44.447230" lon="2.985390">
        <ele>556.845398</ele>
        <time>2010-01-01T13:50:47Z</time>
      </trkpt>
      <trkpt lat="44.447170" lon="2.985560">
        <ele>559.39</ele>
        <time>2010-01-01T13:51:00Z</time>
      </trkpt>
      <trkpt lat="44.447170" lon="2.985800">
        <ele>559.39</ele>
        <time>2010-01-01T13:51:07Z</time>
      </trkpt>
      <trkpt lat="44.447530" lon="2.986420">
        <ele>568.95</ele>
        <time>2010-01-01T13:51:35Z</time>
      </trkpt>
      <trkpt lat="44.447640" lon="2.986700">
        <ele>571.744507</ele>
        <time>2010-01-01T13:52:00Z</time>
      </trkpt>
      <trkpt lat="44.447650" lon="2.986910">
        <ele>572.638367</ele>
        <time>2010-01-01T13:52:07Z</time>
      </trkpt>
      <trkpt lat="44.447550" lon="2.987140">
        <ele>574.870300</ele>
        <time>2010-01-01T13:52:13Z</time>
      </trkpt>
      <trkpt lat="44.447360" lon="2.987390">
        <ele>575.30</ele>
        <time>2010-01-01T13:52:43Z</time>
      </trkpt>
      <trkpt lat="44.446740" lon="2.987830">
        <ele>575.30</ele>
        <time>2010-01-01T13:53:00Z</time>
      </trkpt>
      <trkpt lat="44.446520" lon="2.988100">
        <ele>576.04</ele>
        <time>2010-01-01T13:53:24Z</time>
      </trkpt>
      <trkpt lat="44.446380" lon="2.988540">
        <ele>579.21</ele>
        <time>2010-01-01T13:54:11Z</time>
      </trkpt>
      <trkpt lat="44.446330" lon="2.989150">
        <ele>579.45</ele>
        <time>2010-01-01T13:54:45Z</time>
      </trkpt>
      <trkpt lat="44.446400" lon="2.989340">
        <ele>580.448853</ele>
        <time>2010-01-01T13:54:45Z</time>
      </trkpt>
      <trkpt lat="44.446510" lon="2.989450">
        <ele>583.107788</ele>
        <time>2010-01-01T13:55:41Z</time>
      </trkpt>
      <trkpt lat="44.447050" lon="2.989710">
        <ele>593.46</ele>
        <time>2010-01-01T13:55:48Z</time>
      </trkpt>
      <trkpt lat="44.447610" lon="2.990060">
        <ele>594.07</ele>
        <time>2010-01-01T13:56:13Z</time>
      </trkpt>
      <trkpt lat="44.447740" lon="2.990060">
        <ele>595.53</ele>
        <time>2010-01-01T14:05:16Z</time>
      </trkpt>
      <trkpt lat="44.448160" lon="2.989850">
        <ele>601.20</ele>
        <time>2010-01-01T14:05:53Z</time>
      </trkpt>
      <trkpt lat="44.448310" lon="2.989840">
        <ele>603.421570</ele>
        <time>2010-01-01T14:08:21Z</time>
      </trkpt>
      <trkpt lat="44.448970" lon="2.990170">
        <ele>613.940552</ele>
        <time>2010-01-01T14:08:21Z</time>
      </trkpt>
      <trkpt lat="44.449120" lon="2.990330">
        <ele>612.84</ele>
        <time>2010-01-01T14:09:36Z</time>
      </trkpt>
      <trkpt lat="44.449140" lon="2.990440">
        <ele>611.68</ele>
        <time>2010-01-01T14:10:23Z</time>
      </trkpt>
      <trkpt lat="44.449070" lon="2.990540">
        <ele>610.87</ele>
        <time>2010-01-01T14:10:38Z</time>
      </trkpt>
      <trkpt lat="44.448670" lon="2.990660">
        <ele>610.67</ele>
        <time>2010-01-01T14:11:02Z</time>
      </trkpt>
      <trkpt lat="44.448540" lon="2.990820">
        <ele>610.57</ele>
        <time>2010-01-01T14:11:12Z</time>
      </trkpt>
      <trkpt lat="44.448230" lon="2.990890">
        <ele>610.90</ele>
        <time>2010-01-01T14:11:24Z</time>
      </trkpt>
      <trkpt lat="44.448090" lon="2.990990">
        <ele>610.27</ele>
        <time>2010-01-01T14:11:41Z</time>
      </trkpt>
      <trkpt lat="44.447420" lon="2.991820">
        <ele>617.000854</ele>
        <time>2010-01-01T14:12:19Z</time>
      </trkpt>
      <trkpt lat="44.446710" lon="2.992290">
        <ele>617.990051</ele>
        <time>2010-01-01T14:12:35Z</time>
      </trkpt>
      <trkpt lat="44.446590" lon="2.992450">
        <ele>619.111389</ele>
        <time>2010-01-01T14:13:21Z</time>
      </trkpt>
      <trkpt lat="44.446550" lon="2.992620">
        <ele>619.605835</ele>
        <time>2010-01-01T14:13:36Z</time>
      </trkpt>
      <trkpt lat="44.446570" lon="2.992810">
        <ele>621.375305</ele>
        <time>2010-01-01T14:14:10Z</time>
      </trkpt>
      <trkpt lat="44.446790" lon="2.993430">
        <ele>630.98</ele>
        <time>2010-01-01T14:14:43Z</time>
      </trkpt>
      <trkpt lat="44.447120" lon="2.995090">
        <ele>638.942505</ele>
        <time>2010-01-01T14:15:00Z</time>
      </trkpt>
      <trkpt lat="44.447060" lon="2.995330">
        <ele>643.78</ele>
        <time>2010-01-01T14:15:17Z</time>
      </trkpt>
      <trkpt lat="44.446520" lon="2.995470">
        <ele>645.39</ele>
        <time>2010-01-01T14:15:28Z</time>
      </trkpt>
      <trkpt lat="44.445690" lon="2.995270">
        <ele>644.92</ele>
        <time>2010-01-01T14:15:40Z</time>
      </trkpt>
      <trkpt lat="44.445560" lon="2.995320">
        <ele>644.145569</ele>
        <time>2010-01-01T14:16:03Z</time>
      </trkpt>
      <trkpt lat="44.445450" lon="2.995460">
        <ele>645.77</ele>
        <time>2010-01-01T14:16:31Z</time>
      </trkpt>
      <trkpt lat="44.444720" lon="2.997740">
        <ele>654.616028</ele>
        <time>2010-01-01T14:16:36Z</time>
      </trkpt>
      <trkpt lat="44.444750" lon="2.998030">
        <ele>656.457397</ele>
        <time>2010-01-01T14:16:53Z</time>
      </trkpt>
      <trkpt lat="44.445080" lon="2.999330">
        <ele>666.236145</ele>
        <time>2010-01-01T14:16:57Z</time>
      </trkpt>
      <trkpt lat="44.445520" lon="3.000620">
        <ele>674.992554</ele>
        <time>2010-01-01T14:17:02Z</time>
      </trkpt>
      <trkpt lat="44.445500" lon="3.001090">
        <ele>676.875793</ele>
        <time>2010-01-01T14:17:20Z</time>
      </trkpt>
      <trkpt lat="44.445450" lon="3.001380">
        <ele>677.627991</ele>
        <time>2010-01-01T14:17:43Z</time>
      </trkpt>
      <trkpt lat="44.445320" lon="3.002050">
        <ele>678.794250</ele>
        <time>2010-01-01T14:17:49Z</time>
      </trkpt>
      <trkpt lat="44.445150" lon="3.002550">
        <ele>677.997131</ele>
        <time>2010-01-01T14:18:05Z</time>
      </trkpt>
      <trkpt lat="44.444920" lon="3.002770">
        <ele>678.66</ele>
        <time>2010-01-01T14:18:45Z</time>
      </trkpt>
      <trkpt lat="44.444020" lon="3.003320">
        <ele>682.257507</ele>
        <time>2010-01-01T14:20:38Z</time>
      </trkpt>
      <trkpt lat="44.442730" lon="3.004280">
        <ele>685.191467</ele>
        <time>2010-01-01T14:21:03Z</time>
      </trkpt>
      <trkpt lat="44.442320" lon="3.004420">
        <ele>690.919678</ele>
        <time>2010-01-01T14:21:46Z</time>
      </trkpt>
      <trkpt lat="44.442220" lon="3.004590">
        <ele>691.39</ele>
        <time>2010-01-01T14:22:05Z</time>
      </trkpt>
      <trkpt lat="44.442170" lon="3.004930">
        <ele>691.39</ele>
        <time>2010-01-01T14:22:15Z</time>
      </trkpt>
      <trkpt lat="44.442100" lon="3.005140">
        <ele>691.39</ele>
        <time>2010-01-01T14:22:26Z</time>
      </trkpt>
      <trkpt lat="44.441950" lon="3.005300">
        <ele>691.39</ele>
        <time>2010-01-01T14:22:32Z</time>
      </trkpt>
      <trkpt lat="44.441770" lon="3.005400">
        <ele>691.39</ele>
        <time>2010-01-01T14:22:49Z</time>
      </trkpt>
      <trkpt lat="44.441530" lon="3.005470">
        <ele>691.39</ele>
        <time>2010-01-01T14:22:54Z</time>
      </trkpt>
      <trkpt lat="44.441240" lon="3.005420">
        <ele>691.39</ele>
        <time>2010-01-01T14:22:59Z</time>
      </trkpt>
      <trkpt lat="44.441110" lon="3.005290">
        <ele>691.48</ele>
        <time>2010-01-01T14:23:37Z</time>
      </trkpt>
      <trkpt lat="44.440870" lon="3.004870">
        <ele>693.44</ele>
        <time>2010-01-01T14:23:53Z</time>
      </trkpt>
      <trkpt lat="44.440710" lon="3.004720">
        <ele>694.932312</ele>
        <time>2010-01-01T14:24:02Z</time>
      </trkpt>
      <trkpt lat="44.440390" lon="3.004530">
        <ele>694.214417</ele>
        <time>2010-01-01T14:24:23Z</time>
      </trkpt>
      <trkpt lat="44.439990" lon="3.004460">
        <ele>694.243347</ele>
        <time>2010-01-01T14:24:33Z</time>
      </trkpt>
      <trkpt lat="44.439690" lon="3.004570">
        <ele>696.279602</ele>
        <time>2010-01-01T14:25:02Z</time>
      </trkpt>
      <trkpt lat="44.439560" lon="3.004740">
        <ele>698.693726</ele>
        <time>2010-01-01T14:25:24Z</time>
      </trkpt>
      <trkpt lat="44.439340" lon="3.005680">
        <ele>700.54</ele>
        <time>2010-01-01T14:25:33Z</time>
      </trkpt>
      <trkpt lat="44.439280" lon="3.006560">
        <ele>700.521301</ele>
        <time>2010-01-01T14:25:42Z</time>
      </trkpt>
      <trkpt lat="44.439220" lon="3.006760">
        <ele>700.822632</ele>
        <time>2010-01-01T14:25:57Z</time>
      </trkpt>
      <trkpt lat="44.439080" lon="3.006890">
        <ele>701.552368</ele>
        <time>2010-01-01T14:26:17Z</time>
      </trkpt>
      <trkpt lat="44.438380" lon="3.007230">
        <ele>705.658020</ele>
        <time>2010-01-01T14:26:41Z</time>
      </trkpt>
      <trkpt lat="44.438020" lon="3.007520">
        <ele>707.00</ele>
        <time>2010-01-01T14:28:14Z</time>
      </trkpt>
      <trkpt lat="44.437620" lon="3.008160">
        <ele>706.768555</ele>
        <time>2010-01-01T14:28:34Z</time>
      </trkpt>
      <trkpt lat="44.436740" lon="3.009280">
        <ele>706.672852</ele>
        <time>2010-01-01T14:29:33Z</time>
      </trkpt>
      <trkpt lat="44.436240" lon="3.010220">
        <ele>705.79</ele>
        <time>2010-01-01T14:29:47Z</time>
      </trkpt>
      <trkpt lat="44.436240" lon="3.010220">
        <ele>705.789429</ele>
        <time>2010-01-01T14:29:47Z</time>
      </trkpt>
      <trkpt lat="44.435510" lon="3.011910">
        <ele>704.981445</ele>
        <time>2010-01-01T14:31:02Z</time>
      </trkpt>
      <trkpt lat="44.435460" lon="3.012130">
        <ele>704.381226</ele>
        <time>2010-01-01T14:31:26Z</time>
      </trkpt>
      <trkpt lat="44.435380" lon="3.013010">
        <ele>703.48</ele>
        <time>2010-01-01T14:31:36Z</time>
      </trkpt>
      <trkpt lat="44.435293" lon="3.013304">
        <ele>703.48</ele>
        <time>2010-01-01T14:32:03Z</time>
      </trkpt>
      <trkpt lat="44.435091" lon="3.013695">
        <ele>704.012512</ele>
        <time>2010-01-01T14:32:10Z</time>
      </trkpt>
      <trkpt lat="44.434723" lon="3.014411">
        <ele>706.186218</ele>
        <time>2010-01-01T14:33:22Z</time>
      </trkpt>
      <trkpt lat="44.434354" lon="3.014874">
        <ele>708.28</ele>
        <time>2010-01-01T14:33:42Z</time>
      </trkpt>
      <trkpt lat="44.433761" lon="3.015356">
        <ele>703.109985</ele>
        <time>2010-01-01T14:34:24Z</time>
      </trkpt>
      <trkpt lat="44.433599" lon="3.015590">
        <ele>701.062378</ele>
        <time>2010-01-01T14:34:32Z</time>
      </trkpt>
      <trkpt lat="44.433251" lon="3.016600">
        <ele>698.453247</ele>
        <time>2010-01-01T14:34:42Z</time>
      </trkpt>
      <trkpt lat="44.433071" lon="3.016815">
        <ele>696.332886</ele>
        <time>2010-01-01T14:34:46Z</time>
      </trkpt>
      <trkpt lat="44.432802" lon="3.016932">
        <ele>692.603271</ele>
        <time>2010-01-01T14:34:58Z</time>
      </trkpt>
      <trkpt lat="44.432568" lon="3.016886">
        <ele>690.370117</ele>
        <time>2010-01-01T14:35:06Z</time>
      </trkpt>
      <trkpt lat="44.432348" lon="3.016710">
        <ele>687.145020</ele>
        <time>2010-01-01T14:35:13Z</time>
      </trkpt>
      <trkpt lat="44.431935" lon="3.016085">
        <ele>681.606262</ele>
        <time>2010-01-01T14:35:24Z</time>
      </trkpt>
      <trkpt lat="44.431737" lon="3.015922">
        <ele>680.771423</ele>
        <time>2010-01-01T14:35:31Z</time>
      </trkpt>
      <trkpt lat="44.431460" lon="3.015857">
        <ele>679.859985</ele>
        <time>2010-01-01T14:35:39Z</time>
      </trkpt>
      <trkpt lat="44.431141" lon="3.015955">
        <ele>678.01</ele>
        <time>2010-01-01T14:36:02Z</time>
      </trkpt>
      <trkpt lat="44.429532" lon="3.017147">
        <ele>669.119995</ele>
        <time>2010-01-01T14:36:08Z</time>
      </trkpt>
      <trkpt lat="44.429172" lon="3.017258">
        <ele>666.755859</ele>
        <time>2010-01-01T14:36:24Z</time>
      </trkpt>
      <trkpt lat="44.428852" lon="3.017192">
        <ele>663.991699</ele>
        <time>2010-01-01T14:36:32Z</time>
      </trkpt>
      <trkpt lat="44.425876" lon="3.016209">
        <ele>651.243774</ele>
        <time>2010-01-01T14:36:45Z</time>
      </trkpt>
      <trkpt lat="44.425046" lon="3.015896">
        <ele>646.732483</ele>
        <time>2010-01-01T14:37:07Z</time>
      </trkpt>
      <trkpt lat="44.423850" lon="3.015640">
        <ele>639.659973</ele>
        <time>2010-01-01T14:37:19Z</time>
      </trkpt>
      <trkpt lat="44.422930" lon="3.015600">
        <ele>636.967529</ele>
        <time>2010-01-01T14:37:31Z</time>
      </trkpt>
      <trkpt lat="44.422420" lon="3.015603">
        <ele>635.67</ele>
        <time>2010-01-01T14:37:43Z</time>
      </trkpt>
      <trkpt lat="44.419250" lon="3.016140">
        <ele>642.31</ele>
        <time>2010-01-01T14:37:58Z</time>
      </trkpt>
      <trkpt lat="44.419250" lon="3.016140">
        <ele>642.309753</ele>
        <time>2010-01-01T14:38:06Z</time>
      </trkpt>
      <trkpt lat="44.417400" lon="3.016430">
        <ele>657.368164</ele>
        <time>2010-01-01T14:38:19Z</time>
      </trkpt>
      <trkpt lat="44.416330" lon="3.017130">
        <ele>664.566589</ele>
        <time>2010-01-01T14:38:44Z</time>
      </trkpt>
      <trkpt lat="44.415960" lon="3.017240">
        <ele>666.711792</ele>
        <time>2010-01-01T14:38:56Z</time>
      </trkpt>
      <trkpt lat="44.415350" lon="3.017280">
        <ele>669.147522</ele>
        <time>2010-01-01T14:39:03Z</time>
      </trkpt>
      <trkpt lat="44.415130" lon="3.017360">
        <ele>670.244751</ele>
        <time>2010-01-01T14:39:24Z</time>
      </trkpt>
      <trkpt lat="44.414830" lon="3.017520">
        <ele>672.659973</ele>
        <time>2010-01-01T14:39:37Z</time>
      </trkpt>
      <trkpt lat="44.414470" lon="3.017820">
        <ele>676.445007</ele>
        <time>2010-01-01T14:39:44Z</time>
      </trkpt>
      <trkpt lat="44.413750" lon="3.018690">
        <ele>689.378052</ele>
        <time>2010-01-01T14:39:59Z</time>
      </trkpt>
      <trkpt lat="44.413420" lon="3.019020">
        <ele>691.493774</ele>
        <time>2010-01-01T14:40:12Z</time>
      </trkpt>
      <trkpt lat="44.412390" lon="3.019700">
        <ele>697.300598</ele>
        <time>2010-01-01T14:40:18Z</time>
      </trkpt>
      <trkpt lat="44.412030" lon="3.019870">
        <ele>700.403076</ele>
        <time>2010-01-01T14:40:32Z</time>
      </trkpt>
      <trkpt lat="44.411200" lon="3.020080">
        <ele>706.73</ele>
        <time>2010-01-01T14:40:54Z</time>
      </trkpt>
      <trkpt lat="44.410370" lon="3.020120">
        <ele>709.676636</ele>
        <time>2010-01-01T14:41:04Z</time>
      </trkpt>
      <trkpt lat="44.410110" lon="3.020580">
        <ele>713.391968</ele>
        <time>2010-01-01T14:41:20Z</time>
      </trkpt>
      <trkpt lat="44.409790" lon="3.020990">
        <ele>714.471924</ele>
        <time>2010-01-01T14:41:29Z</time>
      </trkpt>
      <trkpt lat="44.409660" lon="3.021330">
        <ele>715.985291</ele>
        <time>2010-01-01T14:41:38Z</time>
      </trkpt>
      <trkpt lat="44.409600" lon="3.021740">
        <ele>719.271973</ele>
        <time>2010-01-01T14:42:12Z</time>
      </trkpt>
      <trkpt lat="44.409600" lon="3.022530">
        <ele>722.944580</ele>
        <time>2010-01-01T14:42:38Z</time>
      </trkpt>
      <trkpt lat="44.409740" lon="3.023490">
        <ele>730.946472</ele>
        <time>2010-01-01T14:42:46Z</time>
      </trkpt>
      <trkpt lat="44.409660" lon="3.023640">
        <ele>731.212769</ele>
        <time>2010-01-01T14:43:14Z</time>
      </trkpt>
      <trkpt lat="44.409330" lon="3.023980">
        <ele>732.407593</ele>
        <time>2010-01-01T14:43:34Z</time>
      </trkpt>
      <trkpt lat="44.409220" lon="3.024030">
        <ele>733.215393</ele>
        <time>2010-01-01T14:44:16Z</time>
      </trkpt>
      <trkpt lat="44.409110" lon="3.024010">
        <ele>733.276917</ele>
        <time>2010-01-01T14:44:40Z</time>
      </trkpt>
      <trkpt lat="44.408750" lon="3.023650">
        <ele>734.92</ele>
        <time>2010-01-01T14:45:26Z</time>
      </trkpt>
      <trkpt lat="44.408240" lon="3.023280">
        <ele>736.559998</ele>
        <time>2010-01-01T14:45:35Z</time>
      </trkpt>
      <trkpt lat="44.408070" lon="3.023230">
        <ele>737.775024</ele>
        <time>2010-01-01T14:45:40Z</time>
      </trkpt>
      <trkpt lat="44.407690" lon="3.023250">
        <ele>740.33</ele>
        <time>2010-01-01T14:45:49Z</time>
      </trkpt>
      <trkpt lat="44.406720" lon="3.023620">
        <ele>740.33</ele>
        <time>2010-01-01T14:46:00Z</time>
      </trkpt>
      <trkpt lat="44.404070" lon="3.025030">
        <ele>737.21</ele>
        <time>2010-01-01T14:46:05Z</time>
      </trkpt>
      <trkpt lat="44.403540" lon="3.025460">
        <ele>735.772339</ele>
        <time>2010-01-01T14:46:09Z</time>
      </trkpt>
      <trkpt lat="44.402740" lon="3.026480">
        <ele>732.758728</ele>
        <time>2010-01-01T14:46:21Z</time>
      </trkpt>
      <trkpt lat="44.402350" lon="3.026840">
        <ele>730.967712</ele>
        <time>2010-01-01T14:46:34Z</time>
      </trkpt>
      <trkpt lat="44.402180" lon="3.027090">
        <ele>730.89</ele>
        <time>2010-01-01T14:46:50Z</time>
      </trkpt>
      <trkpt lat="44.402050" lon="3.027440">
        <ele>732.116882</ele>
        <time>2010-01-01T14:47:10Z</time>
      </trkpt>
      <trkpt lat="44.402030" lon="3.027630">
        <ele>733.076294</ele>
        <time>2010-01-01T14:47:16Z</time>
      </trkpt>
      <trkpt lat="44.402130" lon="3.028220">
        <ele>735.420837</ele>
        <time>2010-01-01T14:47:20Z</time>
      </trkpt>
      <trkpt lat="44.402120" lon="3.028380">
        <ele>735.640015</ele>
        <time>2010-01-01T14:47:26Z</time>
      </trkpt>
      <trkpt lat="44.402050" lon="3.028550">
        <ele>735.46</ele>
        <time>2010-01-01T14:47:40Z</time>
      </trkpt>
      <trkpt lat="44.401190" lon="3.029100">
        <ele>735.46</ele>
        <time>2010-01-01T14:48:14Z</time>
      </trkpt>
      <trkpt lat="44.401030" lon="3.029630">
        <ele>735.144531</ele>
        <time>2010-01-01T14:48:24Z</time>
      </trkpt>
      <trkpt lat="44.400890" lon="3.029850">
        <ele>735.886902</ele>
        <time>2010-01-01T14:48:55Z</time>
      </trkpt>
      <trkpt lat="44.400400" lon="3.030150">
        <ele>737.737488</ele>
        <time>2010-01-01T14:49:10Z</time>
      </trkpt>
      <trkpt lat="44.400160" lon="3.030200">
        <ele>737.969971</ele>
        <time>2010-01-01T14:49:34Z</time>
      </trkpt>
      <trkpt lat="44.399450" lon="3.030070">
        <ele>737.534973</ele>
        <time>2010-01-01T14:50:39Z</time>
      </trkpt>
      <trkpt lat="44.398910" lon="3.030230">
        <ele>737.287476</ele>
        <time>2010-01-01T14:51:09Z</time>
      </trkpt>
      <trkpt lat="44.398680" lon="3.030250">
        <ele>737.468750</ele>
        <time>2010-01-01T14:51:19Z</time>
      </trkpt>
      <trkpt lat="44.398450" lon="3.030190">
        <ele>737.283203</ele>
        <time>2010-01-01T14:51:19Z</time>
      </trkpt>
      <trkpt lat="44.398120" lon="3.030000">
        <ele>737.120972</ele>
        <time>2010-01-01T14:51:36Z</time>
      </trkpt>
      <trkpt lat="44.397600" lon="3.030000">
        <ele>737.361145</ele>
        <time>2010-01-01T14:51:53Z</time>
      </trkpt>
      <trkpt lat="44.397030" lon="3.029750">
        <ele>737.000000</ele>
        <time>2010-01-01T14:52:12Z</time>
      </trkpt>
      <trkpt lat="44.394740" lon="3.029410">
        <ele>737.557373</ele>
        <time>2010-01-01T14:52:28Z</time>
      </trkpt>
      <trkpt lat="44.394230" lon="3.029530">
        <ele>737.032471</ele>
        <time>2010-01-01T14:52:44Z</time>
      </trkpt>
      <trkpt lat="44.392810" lon="3.030110">
        <ele>737.279724</ele>
        <time>2010-01-01T14:53:17Z</time>
      </trkpt>
      <trkpt lat="44.392480" lon="3.030200">
        <ele>737.262085</ele>
        <time>2010-01-01T14:53:47Z</time>
      </trkpt>
      <trkpt lat="44.392480" lon="3.030200">
        <ele>737.262085</ele>
        <time>2010-01-01T14:54:34Z</time>
      </trkpt>
      <trkpt lat="44.390630" lon="3.030580">
        <ele>742.31</ele>
        <time>2010-01-01T14:55:18Z</time>
      </trkpt>
      <trkpt lat="44.390050" lon="3.030750">
        <ele>745.483276</ele>
        <time>2010-01-01T14:55:32Z</time>
      </trkpt>
      <trkpt lat="44.389840" lon="3.030950">
        <ele>746.38</ele>
        <time>2010-01-01T14:58:57Z</time>
      </trkpt>
      <trkpt lat="44.389380" lon="3.031670">
        <ele>746.38</ele>
        <time>2010-01-01T14:59:11Z</time>
      </trkpt>
      <trkpt lat="44.389240" lon="3.031770">
        <ele>746.38</ele>
        <time>2010-01-01T14:59:26Z</time>
      </trkpt>
      <trkpt lat="44.387430" lon="3.031960">
        <ele>751.47</ele>
        <time>2010-01-01T14:59:32Z</time>
      </trkpt>
      <trkpt lat="44.386940" lon="3.031910">
        <ele>752.216614</ele>
        <time>2010-01-01T14:59:40Z</time>
      </trkpt>
      <trkpt lat="44.385910" lon="3.031680">
        <ele>758.554993</ele>
        <time>2010-01-01T14:59:54Z</time>
      </trkpt>
      <trkpt lat="44.385710" lon="3.031680">
        <ele>761.057495</ele>
        <time>2010-01-01T15:01:23Z</time>
      </trkpt>
      <trkpt lat="44.385500" lon="3.031870">
        <ele>760.328918</ele>
        <time>2010-01-01T15:01:51Z</time>
      </trkpt>
      <trkpt lat="44.385450" lon="3.032010">
        <ele>760.713623</ele>
        <time>2010-01-01T15:02:01Z</time>
      </trkpt>
      <trkpt lat="44.385410" lon="3.032410">
        <ele>760.538086</ele>
        <time>2010-01-01T15:02:12Z</time>
      </trkpt>
      <trkpt lat="44.385290" lon="3.032660">
        <ele>760.921021</ele>
        <time>2010-01-01T15:02:31Z</time>
      </trkpt>
      <trkpt lat="44.385140" lon="3.032780">
        <ele>761.460693</ele>
        <time>2010-01-01T15:02:44Z</time>
      </trkpt>
      <trkpt lat="44.384870" lon="3.032850">
        <ele>762.081543</ele>
        <time>2010-01-01T15:03:40Z</time>
      </trkpt>
      <trkpt lat="44.384690" lon="3.032830">
        <ele>762.883850</ele>
        <time>2010-01-01T15:04:01Z</time>
      </trkpt>
      <trkpt lat="44.384520" lon="3.032740">
        <ele>763.762268</ele>
        <time>2010-01-01T15:04:21Z</time>
      </trkpt>
      <trkpt lat="44.384050" lon="3.032290">
        <ele>766.737183</ele>
        <time>2010-01-01T15:04:32Z</time>
      </trkpt>
      <trkpt lat="44.383990" lon="3.032100">
        <ele>768.787964</ele>
        <time>2010-01-01T15:04:43Z</time>
      </trkpt>
      <trkpt lat="44.383910" lon="3.031530">
        <ele>777.206970</ele>
        <time>2010-01-01T15:05:06Z</time>
      </trkpt>
      <trkpt lat="44.383780" lon="3.031320">
        <ele>779.469421</ele>
        <time>2010-01-01T15:05:32Z</time>
      </trkpt>
      <trkpt lat="44.383470" lon="3.031230">
        <ele>779.780762</ele>
        <time>2010-01-01T15:05:45Z</time>
      </trkpt>
      <trkpt lat="44.382910" lon="3.031240">
        <ele>783.98</ele>
        <time>2010-01-01T15:06:14Z</time>
      </trkpt>
      <trkpt lat="44.382660" lon="3.031480">
        <ele>786.383789</ele>
        <time>2010-01-01T15:06:19Z</time>
      </trkpt>
      <trkpt lat="44.382470" lon="3.031790">
        <ele>787.688843</ele>
        <time>2010-01-01T15:06:24Z</time>
      </trkpt>
      <trkpt lat="44.382380" lon="3.032190">
        <ele>787.65</ele>
        <time>2010-01-01T15:06:29Z</time>
      </trkpt>
      <trkpt lat="44.382360" lon="3.032700">
        <ele>787.65</ele>
        <time>2010-01-01T15:06:37Z</time>
      </trkpt>
      <trkpt lat="44.382240" lon="3.032930">
        <ele>787.65</ele>
        <time>2010-01-01T15:06:59Z</time>
      </trkpt>
      <trkpt lat="44.381920" lon="3.033100">
        <ele>790.39</ele>
        <time>2010-01-01T15:08:56Z</time>
      </trkpt>
      <trkpt lat="44.381300" lon="3.033090">
        <ele>796.864990</ele>
        <time>2010-01-01T15:09:05Z</time>
      </trkpt>
      <trkpt lat="44.381010" lon="3.033200">
        <ele>798.476501</ele>
        <time>2010-01-01T15:10:13Z</time>
      </trkpt>
      <trkpt lat="44.380870" lon="3.033310">
        <ele>800.980652</ele>
        <time>2010-01-01T15:10:21Z</time>
      </trkpt>
      <trkpt lat="44.380550" lon="3.033900">
        <ele>801.716125</ele>
        <time>2010-01-01T15:10:38Z</time>
      </trkpt>
      <trkpt lat="44.380280" lon="3.034140">
        <ele>802.671387</ele>
        <time>2010-01-01T15:10:45Z</time>
      </trkpt>
      <trkpt lat="44.380110" lon="3.034180">
        <ele>805.751587</ele>
        <time>2010-01-01T15:10:53Z</time>
      </trkpt>
      <trkpt lat="44.379740" lon="3.034090">
        <ele>811.196106</ele>
        <time>2010-01-01T15:11:35Z</time>
      </trkpt>
      <trkpt lat="44.379460" lon="3.033850">
        <ele>814.582336</ele>
        <time>2010-01-01T15:12:02Z</time>
      </trkpt>
      <trkpt lat="44.379310" lon="3.033810">
        <ele>815.265198</ele>
        <time>2010-01-01T15:12:09Z</time>
      </trkpt>
      <trkpt lat="44.378960" lon="3.033830">
        <ele>816.099304</ele>
        <time>2010-01-01T15:12:15Z</time>
      </trkpt>
      <trkpt lat="44.378450" lon="3.033520">
        <ele>817.934143</ele>
        <time>2010-01-01T15:12:34Z</time>
      </trkpt>
      <trkpt lat="44.378280" lon="3.033290">
        <ele>818.655029</ele>
        <time>2010-01-01T15:12:52Z</time>
      </trkpt>
      <trkpt lat="44.378210" lon="3.032730">
        <ele>823.836731</ele>
        <time>2010-01-01T15:12:59Z</time>
      </trkpt>
      <trkpt lat="44.378050" lon="3.032520">
        <ele>826.338562</ele>
        <time>2010-01-01T15:14:01Z</time>
      </trkpt>
      <trkpt lat="44.377850" lon="3.032390">
        <ele>827.64</ele>
        <time>2010-01-01T15:14:06Z</time>
      </trkpt>
      <trkpt lat="44.376990" lon="3.032200">
        <ele>825.120972</ele>
        <time>2010-01-01T15:14:17Z</time>
      </trkpt>
      <trkpt lat="44.376390" lon="3.031860">
        <ele>820.809143</ele>
        <time>2010-01-01T15:14:45Z</time>
      </trkpt>
      <trkpt lat="44.376200" lon="3.031820">
        <ele>819.722168</ele>
        <time>2010-01-01T15:14:55Z</time>
      </trkpt>
      <trkpt lat="44.375500" lon="3.031860">
        <ele>816.615356</ele>
        <time>2010-01-01T15:15:29Z</time>
      </trkpt>
      <trkpt lat="44.375000" lon="3.031820">
        <ele>812.125000</ele>
        <time>2010-01-01T15:15:46Z</time>
      </trkpt>
      <trkpt lat="44.373950" lon="3.031970">
        <ele>805.996277</ele>
        <time>2010-01-01T15:16:50Z</time>
      </trkpt>
      <trkpt lat="44.373390" lon="3.032210">
        <ele>802.422485</ele>
        <time>2010-01-01T15:17:20Z</time>
      </trkpt>
      <trkpt lat="44.372360" lon="3.032930">
        <ele>792.25</ele>
        <time>2010-01-01T15:17:38Z</time>
      </trkpt>
      <trkpt lat="44.372240" lon="3.033190">
        <ele>792.25</ele>
        <time>2010-01-01T15:18:12Z</time>
      </trkpt>
      <trkpt lat="44.372250" lon="3.033380">
        <ele>792.25</ele>
        <time>2010-01-01T15:18:26Z</time>
      </trkpt>
      <trkpt lat="44.372390" lon="3.033640">
        <ele>792.25</ele>
        <time>2010-01-01T15:18:59Z</time>
      </trkpt>
      <trkpt lat="44.372620" lon="3.033790">
        <ele>792.25</ele>
        <time>2010-01-01T15:19:32Z</time>
      </trkpt>
      <trkpt lat="44.372690" lon="3.033930">
        <ele>792.25</ele>
        <time>2010-01-01T15:19:43Z</time>
      </trkpt>
      <trkpt lat="44.372680" lon="3.034070">
        <ele>792.46</ele>
        <time>2010-01-01T15:20:05Z</time>
      </trkpt>
      <trkpt lat="44.372420" lon="3.034320">
        <ele>786.282471</ele>
        <time>2010-01-01T15:20:54Z</time>
      </trkpt>
      <trkpt lat="44.372210" lon="3.034650">
        <ele>783.04</ele>
        <time>2010-01-01T15:21:30Z</time>
      </trkpt>
      <trkpt lat="44.371890" lon="3.034970">
        <ele>779.031616</ele>
        <time>2010-01-01T15:21:44Z</time>
      </trkpt>
      <trkpt lat="44.371610" lon="3.035560">
        <ele>779.481812</ele>
        <time>2010-01-01T15:22:18Z</time>
      </trkpt>
      <trkpt lat="44.371500" lon="3.035700">
        <ele>780.670288</ele>
        <time>2010-01-01T15:22:42Z</time>
      </trkpt>
      <trkpt lat="44.371410" lon="3.035740">
        <ele>781.587402</ele>
        <time>2010-01-01T15:22:53Z</time>
      </trkpt>
      <trkpt lat="44.371240" lon="3.035700">
        <ele>782.41</ele>
        <time>2010-01-01T15:23:03Z</time>
      </trkpt>
      <trkpt lat="44.370950" lon="3.035440">
        <ele>782.41</ele>
        <time>2010-01-01T15:23:15Z</time>
      </trkpt>
      <trkpt lat="44.370410" lon="3.034520">
        <ele>781.23</ele>
        <time>2010-01-01T15:23:26Z</time>
      </trkpt>
      <trkpt lat="44.370220" lon="3.034290">
        <ele>780.866028</ele>
        <time>2010-01-01T15:24:18Z</time>
      </trkpt>
      <trkpt lat="44.369530" lon="3.033840">
        <ele>784.245422</ele>
        <time>2010-01-01T15:24:26Z</time>
      </trkpt>
      <trkpt lat="44.369150" lon="3.033720">
        <ele>787.793762</ele>
        <time>2010-01-01T15:24:35Z</time>
      </trkpt>
      <trkpt lat="44.368690" lon="3.033190">
        <ele>788.36</ele>
        <time>2010-01-01T15:24:50Z</time>
      </trkpt>
      <trkpt lat="44.367180" lon="3.032350">
        <ele>791.585022</ele>
        <time>2010-01-01T15:25:13Z</time>
      </trkpt>
      <trkpt lat="44.366590" lon="3.031750">
        <ele>794.688477</ele>
        <time>2010-01-01T15:26:25Z</time>
      </trkpt>
      <trkpt lat="44.366360" lon="3.031610">
        <ele>795.631470</ele>
        <time>2010-01-01T15:26:25Z</time>
      </trkpt>
      <trkpt lat="44.366360" lon="3.031610">
        <ele>795.631470</ele>
        <time>2010-01-01T15:26:45Z</time>
      </trkpt>
      <trkpt lat="44.365940" lon="3.031520">
        <ele>797.365723</ele>
        <time>2010-01-01T15:27:00Z</time>
      </trkpt>
      <trkpt lat="44.365510" lon="3.031590">
        <ele>798.629944</ele>
        <time>2010-01-01T15:27:10Z</time>
      </trkpt>
      <trkpt lat="44.365060" lon="3.031800">
        <ele>799.510376</ele>
        <time>2010-01-01T15:27:21Z</time>
      </trkpt>
      <trkpt lat="44.364720" lon="3.032110">
        <ele>800.330872</ele>
        <time>2010-01-01T15:27:27Z</time>
      </trkpt>
      <trkpt lat="44.364430" lon="3.032490">
        <ele>801.377747</ele>
        <time>2010-01-01T15:28:10Z</time>
      </trkpt>
      <trkpt lat="44.363960" lon="3.033450">
        <ele>802.81</ele>
        <time>2010-01-01T15:28:20Z</time>
      </trkpt>
      <trkpt lat="44.363480" lon="3.034250">
        <ele>802.81</ele>
        <time>2010-01-01T15:28:32Z</time>
      </trkpt>
      <trkpt lat="44.362900" lon="3.035660">
        <ele>802.81</ele>
        <time>2010-01-01T15:28:51Z</time>
      </trkpt>
      <trkpt lat="44.362130" lon="3.036770">
        <ele>807.010132</ele>
        <time>2010-01-01T15:30:00Z</time>
      </trkpt>
      <trkpt lat="44.361820" lon="3.037020">
        <ele>807.091980</ele>
        <time>2010-01-01T15:30:23Z</time>
      </trkpt>
      <trkpt lat="44.361357" lon="3.037117">
        <ele>808.94</ele>
        <time>2010-01-01T15:30:40Z</time>
      </trkpt>
      <trkpt lat="44.359974" lon="3.036843">
        <ele>809.28</ele>
        <time>2010-01-01T15:31:30Z</time>
      </trkpt>
      <trkpt lat="44.359587" lon="3.036817">
        <ele>809.28</ele>
        <time>2010-01-01T15:34:09Z</time>
      </trkpt>
      <trkpt lat="44.359264" lon="3.037013">
        <ele>808.49</ele>
        <time>2010-01-01T15:34:39Z</time>
      </trkpt>
      <trkpt lat="44.359012" lon="3.037430">
        <ele>805.867920</ele>
        <time>2010-01-01T15:34:59Z</time>
      </trkpt>
      <trkpt lat="44.358500" lon="3.038563">
        <ele>801.416748</ele>
        <time>2010-01-01T15:35:27Z</time>
      </trkpt>
      <trkpt lat="44.358258" lon="3.038811">
        <ele>799.765503</ele>
        <time>2010-01-01T15:35:32Z</time>
      </trkpt>
      <trkpt lat="44.357961" lon="3.038784">
        <ele>799.250732</ele>
        <time>2010-01-01T15:36:25Z</time>
      </trkpt>
      <trkpt lat="44.357430" lon="3.038410">
        <ele>797.392517</ele>
        <time>2010-01-01T15:36:47Z</time>
      </trkpt>
      <trkpt lat="44.357190" lon="3.038090">
        <ele>796.72</ele>
        <time>2010-01-01T15:36:52Z</time>
      </trkpt>
      <trkpt lat="44.356980" lon="3.037640">
        <ele>796.72</ele>
        <time>2010-01-01T15:38:27Z</time>
      </trkpt>
      <trkpt lat="44.356860" lon="3.037540">
        <ele>796.803101</ele>
        <time>2010-01-01T15:39:04Z</time>
      </trkpt>
      <trkpt lat="44.356640" lon="3.037510">
        <ele>795.182495</ele>
        <time>2010-01-01T15:39:16Z</time>
      </trkpt>
      <trkpt lat="44.356310" lon="3.037640">
        <ele>793.78</ele>
        <time>2010-01-01T15:39:35Z</time>
      </trkpt>
      <trkpt lat="44.355774" lon="3.037573">
        <ele>793.78</ele>
        <time>2010-01-01T15:42:05Z</time>
      </trkpt>
      <trkpt lat="44.355586" lon="3.037677">
        <ele>794.43</ele>
        <time>2010-01-01T15:42:22Z</time>
      </trkpt>
      <trkpt lat="44.355109" lon="3.038433">
        <ele>792.144775</ele>
        <time>2010-01-01T15:42:35Z</time>
      </trkpt>
      <trkpt lat="44.354975" lon="3.038850">
        <ele>788.96</ele>
        <time>2010-01-01T15:42:56Z</time>
      </trkpt>
      <trkpt lat="44.354950" lon="3.039490">
        <ele>788.96</ele>
        <time>2010-01-01T15:43:25Z</time>
      </trkpt>
      <trkpt lat="44.355080" lon="3.040480">
        <ele>788.96</ele>
        <time>2010-01-01T15:43:46Z</time>
      </trkpt>
      <trkpt lat="44.355050" lon="3.040830">
        <ele>788.96</ele>
        <time>2010-01-01T15:44:57Z</time>
      </trkpt>
      <trkpt lat="44.354930" lon="3.041150">
        <ele>789.91</ele>
        <time>2010-01-01T15:45:21Z</time>
      </trkpt>
      <trkpt lat="44.354580" lon="3.041630">
        <ele>792.00</ele>
        <time>2010-01-01T15:46:07Z</time>
      </trkpt>
      <trkpt lat="44.354330" lon="3.041890">
        <ele>791.929993</ele>
        <time>2010-01-01T15:46:07Z</time>
      </trkpt>
      <trkpt lat="44.353703" lon="3.042158">
        <ele>789.052246</ele>
        <time>2010-01-01T15:46:58Z</time>
      </trkpt>
      <trkpt lat="44.353299" lon="3.042432">
        <ele>787.349670</ele>
        <time>2010-01-01T15:48:30Z</time>
      </trkpt>
      <trkpt lat="44.353070" lon="3.042730">
        <ele>787.396240</ele>
        <time>2010-01-01T15:50:03Z</time>
      </trkpt>
      <trkpt lat="44.352700" lon="3.043240">
        <ele>786.505005</ele>
        <time>2010-01-01T15:50:14Z</time>
      </trkpt>
      <trkpt lat="44.352430" lon="3.043830">
        <ele>786.206909</ele>
        <time>2010-01-01T15:50:34Z</time>
      </trkpt>
      <trkpt lat="44.352320" lon="3.044180">
        <ele>786.52</ele>
        <time>2010-01-01T15:50:49Z</time>
      </trkpt>
      <trkpt lat="44.352280" lon="3.044560">
        <ele>786.52</ele>
        <time>2010-01-01T15:51:38Z</time>
      </trkpt>
      <trkpt lat="44.352340" lon="3.045350">
        <ele>788.02</ele>
        <time>2010-01-01T15:51:58Z</time>
      </trkpt>
      <trkpt lat="44.352350" lon="3.046260">
        <ele>788.02</ele>
        <time>2010-01-01T15:52:35Z</time>
      </trkpt>
      <trkpt lat="44.352220" lon="3.046690">
        <ele>786.53</ele>
        <time>2010-01-01T15:52:52Z</time>
      </trkpt>
      <trkpt lat="44.351770" lon="3.047480">
        <ele>786.53</ele>
        <time>2010-01-01T15:53:05Z</time>
      </trkpt>
      <trkpt lat="44.351670" lon="3.047590">
        <ele>786.164063</ele>
        <time>2010-01-01T15:53:20Z</time>
      </trkpt>
      <trkpt lat="44.351540" lon="3.047630">
        <ele>786.606140</ele>
        <time>2010-01-01T15:53:56Z</time>
      </trkpt>
      <trkpt lat="44.351420" lon="3.047590">
        <ele>785.994751</ele>
        <time>2010-01-01T15:54:12Z</time>
      </trkpt>
      <trkpt lat="44.351290" lon="3.047400">
        <ele>783.719177</ele>
        <time>2010-01-01T15:54:52Z</time>
      </trkpt>
      <trkpt lat="44.351070" lon="3.046690">
        <ele>779.715149</ele>
        <time>2010-01-01T15:55:10Z</time>
      </trkpt>
      <trkpt lat="44.350912" lon="3.046522">
        <ele>779.508667</ele>
        <time>2010-01-01T15:55:18Z</time>
      </trkpt>
      <trkpt lat="44.350616" lon="3.046575">
        <ele>779.972290</ele>
        <time>2010-01-01T15:55:26Z</time>
      </trkpt>
      <trkpt lat="44.350131" lon="3.046913">
        <ele>780.523071</ele>
        <time>2010-01-01T15:56:08Z</time>
      </trkpt>
      <trkpt lat="44.348690" lon="3.048740">
        <ele>780.856506</ele>
        <time>2010-01-01T15:56:44Z</time>
      </trkpt>
      <trkpt lat="44.348570" lon="3.048990">
        <ele>780.34</ele>
        <time>2010-01-01T15:56:59Z</time>
      </trkpt>
      <trkpt lat="44.348311" lon="3.050952">
        <ele>776.306824</ele>
        <time>2010-01-01T15:57:13Z</time>
      </trkpt>
      <trkpt lat="44.348300" lon="3.051330">
        <ele>775.12</ele>
        <time>2010-01-01T15:57:39Z</time>
      </trkpt>
      <trkpt lat="44.348390" lon="3.051580">
        <ele>775.12</ele>
        <time>2010-01-01T15:58:01Z</time>
      </trkpt>
      <trkpt lat="44.348770" lon="3.051880">
        <ele>777.610168</ele>
        <time>2010-01-01T15:58:12Z</time>
      </trkpt>
      <trkpt lat="44.348840" lon="3.052100">
        <ele>777.033264</ele>
        <time>2010-01-01T15:59:10Z</time>
      </trkpt>
      <trkpt lat="44.348770" lon="3.052350">
        <ele>775.737732</ele>
        <time>2010-01-01T15:59:28Z</time>
      </trkpt>
      <trkpt lat="44.348060" lon="3.053440">
        <ele>769.164978</ele>
        <time>2010-01-01T15:59:43Z</time>
      </trkpt>
      <trkpt lat="44.347710" lon="3.054240">
        <ele>766.757507</ele>
        <time>2010-01-01T16:00:00Z</time>
      </trkpt>
      <trkpt lat="44.347680" lon="3.054490">
        <ele>766.046265</ele>
        <time>2010-01-01T16:00:08Z</time>
      </trkpt>
      <trkpt lat="44.347700" lon="3.054690">
        <ele>765.693237</ele>
        <time>2010-01-01T16:00:23Z</time>
      </trkpt>
      <trkpt lat="44.347830" lon="3.055340">
        <ele>764.39</ele>
        <time>2010-01-01T16:00:45Z</time>
      </trkpt>
      <trkpt lat="44.348000" lon="3.055900">
        <ele>764.39</ele>
        <time>2010-01-01T16:00:54Z</time>
      </trkpt>
      <trkpt lat="44.347970" lon="3.056160">
        <ele>764.141968</ele>
        <time>2010-01-01T16:01:05Z</time>
      </trkpt>
      <trkpt lat="44.347370" lon="3.056905">
        <ele>760.143616</ele>
        <time>2010-01-01T16:01:22Z</time>
      </trkpt>
      <trkpt lat="44.347080" lon="3.057870">
        <ele>756.639404</ele>
        <time>2010-01-01T16:01:36Z</time>
      </trkpt>
      <trkpt lat="44.346990" lon="3.058000">
        <ele>754.997803</ele>
        <time>2010-01-01T16:02:30Z</time>
      </trkpt>
      <trkpt lat="44.346740" lon="3.058170">
        <ele>752.325073</ele>
        <time>2010-01-01T16:02:51Z</time>
      </trkpt>
      <trkpt lat="44.346040" lon="3.058370">
        <ele>749.139282</ele>
        <time>2010-01-01T16:03:31Z</time>
      </trkpt>
      <trkpt lat="44.345820" lon="3.058520">
        <ele>748.131470</ele>
        <time>2010-01-01T16:04:49Z</time>
      </trkpt>
      <trkpt lat="44.345480" lon="3.059610">
        <ele>744.668457</ele>
        <time>2010-01-01T16:05:10Z</time>
      </trkpt>
      <trkpt lat="44.345200" lon="3.060030">
        <ele>741.917480</ele>
        <time>2010-01-01T16:06:47Z</time>
      </trkpt>
      <trkpt lat="44.344825" lon="3.060292">
        <ele>741.42</ele>
        <time>2010-01-01T16:07:28Z</time>
      </trkpt>
      <trkpt lat="44.344402" lon="3.060448">
        <ele>738.829224</ele>
        <time>2010-01-01T16:07:45Z</time>
      </trkpt>
      <trkpt lat="44.343660" lon="3.060480">
        <ele>734.087463</ele>
        <time>2010-01-01T16:08:16Z</time>
      </trkpt>
      <trkpt lat="44.342920" lon="3.060670">
        <ele>728.176880</ele>
        <time>2010-01-01T16:08:33Z</time>
      </trkpt>
      <trkpt lat="44.342490" lon="3.060850">
        <ele>725.395020</ele>
        <time>2010-01-01T16:09:42Z</time>
      </trkpt>
      <trkpt lat="44.341720" lon="3.061330">
        <ele>722.011841</ele>
        <time>2010-01-01T16:10:10Z</time>
      </trkpt>
      <trkpt lat="44.341380" lon="3.061460">
        <ele>721.184509</ele>
        <time>2010-01-01T16:10:28Z</time>
      </trkpt>
      <trkpt lat="44.340550" lon="3.061480">
        <ele>715.150024</ele>
        <time>2010-01-01T16:11:16Z</time>
      </trkpt>
      <trkpt lat="44.339740" lon="3.061660">
        <ele>711.074829</ele>
        <time>2010-01-01T16:11:51Z</time>
      </trkpt>
      <trkpt lat="44.339500" lon="3.061810">
        <ele>709.868713</ele>
        <time>2010-01-01T16:12:23Z</time>
      </trkpt>
      <trkpt lat="44.339020" lon="3.062230">
        <ele>707.405396</ele>
        <time>2010-01-01T16:13:17Z</time>
      </trkpt>
      <trkpt lat="44.338434" lon="3.062259">
        <ele>705.432251</ele>
        <time>2010-01-01T16:13:17Z</time>
      </trkpt>
      <trkpt lat="44.337810" lon="3.062120">
        <ele>704.007507</ele>
        <time>2010-01-01T16:14:00Z</time>
      </trkpt>
      <trkpt lat="44.336970" lon="3.061700">
        <ele>702.950500</ele>
        <time>2010-01-01T16:14:24Z</time>
      </trkpt>
      <trkpt lat="44.336660" lon="3.061470">
        <ele>702.178589</ele>
        <time>2010-01-01T16:15:13Z</time>
      </trkpt>
      <trkpt lat="44.336060" lon="3.060650">
        <ele>699.472595</ele>
        <time>2010-01-01T16:15:25Z</time>
      </trkpt>
      <trkpt lat="44.335500" lon="3.060330">
        <ele>697.603394</ele>
        <time>2010-01-01T16:17:23Z</time>
      </trkpt>
      <trkpt lat="44.335220" lon="3.060380">
        <ele>694.376404</ele>
        <time>2010-01-01T16:17:54Z</time>
      </trkpt>
      <trkpt lat="44.335020" lon="3.060570">
        <ele>691.543091</ele>
        <time>2010-01-01T16:19:46Z</time>
      </trkpt>
      <trkpt lat="44.334940" lon="3.060970">
        <ele>689.793762</ele>
        <time>2010-01-01T16:21:27Z</time>
      </trkpt>
      <trkpt lat="44.334960" lon="3.061350">
        <ele>689.737488</ele>
        <time>2010-01-01T16:22:28Z</time>
      </trkpt>
      <trkpt lat="44.335260" lon="3.063140">
        <ele>685.093018</ele>
        <time>2010-01-01T16:23:02Z</time>
      </trkpt>
      <trkpt lat="44.335260" lon="3.063410">
        <ele>684.01</ele>
        <time>2010-01-01T16:23:16Z</time>
      </trkpt>
      <trkpt lat="44.335210" lon="3.063710">
        <ele>682.90</ele>
        <time>2010-01-01T16:23:34Z</time>
      </trkpt>
      <trkpt lat="44.335050" lon="3.064180">
        <ele>682.90</ele>
        <time>2010-01-01T16:24:32Z</time>
      </trkpt>
      <trkpt lat="44.334460" lon="3.064200">
        <ele>682.90</ele>
        <time>2010-01-01T16:25:37Z</time>
      </trkpt>
      <trkpt lat="44.334131" lon="3.064317">
        <ele>685.76</ele>
        <time>2010-01-01T16:25:57Z</time>
      </trkpt>
      <trkpt lat="44.333600" lon="3.064604">
        <ele>685.745667</ele>
        <time>2010-01-01T16:26:37Z</time>
      </trkpt>
      <trkpt lat="44.333124" lon="3.065177">
        <ele>692.814880</ele>
        <time>2010-01-01T16:27:36Z</time>
      </trkpt>
      <trkpt lat="44.332990" lon="3.065520">
        <ele>695.628357</ele>
        <time>2010-01-01T16:27:39Z</time>
      </trkpt>
      <trkpt lat="44.332990" lon="3.065520">
        <ele>695.628357</ele>
        <time>2010-01-01T16:27:42Z</time>
      </trkpt>
      <trkpt lat="44.332710" lon="3.066100">
        <ele>696.47</ele>
        <time>2010-01-01T16:27:45Z</time>
      </trkpt>
      <trkpt lat="44.332450" lon="3.066460">
        <ele>696.47</ele>
        <time>2010-01-01T16:27:48Z</time>
      </trkpt>
      <trkpt lat="44.332260" lon="3.066670">
        <ele>696.047485</ele>
        <time>2010-01-01T16:28:32Z</time>
      </trkpt>
      <trkpt lat="44.331980" lon="3.066780">
        <ele>695.589966</ele>
        <time>2010-01-01T16:29:31Z</time>
      </trkpt>
      <trkpt lat="44.331850" lon="3.066900">
        <ele>695.216309</ele>
        <time>2010-01-01T16:29:39Z</time>
      </trkpt>
      <trkpt lat="44.331380" lon="3.068220">
        <ele>693.118164</ele>
        <time>2010-01-01T16:29:46Z</time>
      </trkpt>
      <trkpt lat="44.331200" lon="3.068500">
        <ele>692.717529</ele>
        <time>2010-01-01T16:30:16Z</time>
      </trkpt>
      <trkpt lat="44.330960" lon="3.068710">
        <ele>692.187500</ele>
        <time>2010-01-01T16:30:47Z</time>
      </trkpt>
      <trkpt lat="44.330520" lon="3.068970">
        <ele>693.40</ele>
        <time>2010-01-01T16:31:04Z</time>
      </trkpt>
      <trkpt lat="44.328870" lon="3.069720">
        <ele>697.335022</ele>
        <time>2010-01-01T16:31:25Z</time>
      </trkpt>
      <trkpt lat="44.328350" lon="3.070070">
        <ele>700.774902</ele>
        <time>2010-01-01T16:31:47Z</time>
      </trkpt>
      <trkpt lat="44.328020" lon="3.070400">
        <ele>703.574646</ele>
        <time>2010-01-01T16:31:54Z</time>
      </trkpt>
      <trkpt lat="44.327080" lon="3.071550">
        <ele>706.951721</ele>
        <time>2010-01-01T16:31:59Z</time>
      </trkpt>
      <trkpt lat="44.326277" lon="3.072511">
        <ele>711.36</ele>
        <time>2010-01-01T16:32:07Z</time>
      </trkpt>
      <trkpt lat="44.325801" lon="3.072772">
        <ele>715.836182</ele>
        <time>2010-01-01T16:32:30Z</time>
      </trkpt>
      <trkpt lat="44.325298" lon="3.072811">
        <ele>718.158142</ele>
        <time>2010-01-01T16:32:40Z</time>
      </trkpt>
      <trkpt lat="44.324687" lon="3.072746">
        <ele>721.546692</ele>
        <time>2010-01-01T16:33:07Z</time>
      </trkpt>
      <trkpt lat="44.324288" lon="3.072824">
        <ele>723.684998</ele>
        <time>2010-01-01T16:33:28Z</time>
      </trkpt>
      <trkpt lat="44.323550" lon="3.073460">
        <ele>725.068726</ele>
        <time>2010-01-01T16:33:28Z</time>
      </trkpt>
      <trkpt lat="44.322830" lon="3.073700">
        <ele>729.625366</ele>
        <time>2010-01-01T16:33:42Z</time>
      </trkpt>
      <trkpt lat="44.322340" lon="3.073710">
        <ele>731.09</ele>
        <time>2010-01-01T16:33:52Z</time>
      </trkpt>
      <trkpt lat="44.321670" lon="3.073420">
        <ele>729.75</ele>
        <time>2010-01-01T16:34:02Z</time>
      </trkpt>
      <trkpt lat="44.321550" lon="3.073460">
        <ele>728.463135</ele>
        <time>2010-01-01T16:34:23Z</time>
      </trkpt>
      <trkpt lat="44.320510" lon="3.074600">
        <ele>726.69</ele>
        <time>2010-01-01T16:34:33Z</time>
      </trkpt>
      <trkpt lat="44.320970" lon="3.074990">
        <ele>726.69</ele>
        <time>2010-01-01T16:35:48Z</time>
      </trkpt>
      <trkpt lat="44.321040" lon="3.075170">
        <ele>726.69</ele>
        <time>2010-01-01T16:36:01Z</time>
      </trkpt>
      <trkpt lat="44.321050" lon="3.078490">
        <ele>726.89</ele>
        <time>2010-01-01T16:36:50Z</time>
      </trkpt>
      <trkpt lat="44.321460" lon="3.079640">
        <ele>727.86</ele>
        <time>2010-01-01T16:36:59Z</time>
      </trkpt>
      <trkpt lat="44.321540" lon="3.080050">
        <ele>727.739990</ele>
        <time>2010-01-01T16:37:18Z</time>
      </trkpt>
      <trkpt lat="44.321530" lon="3.080700">
        <ele>727.74</ele>
        <time>2010-01-01T16:37:43Z</time>
      </trkpt>
      <trkpt lat="44.321170" lon="3.085920">
        <ele>734.81</ele>
        <time>2010-01-01T16:37:59Z</time>
      </trkpt>
      <trkpt lat="44.321090" lon="3.086480">
        <ele>735.792847</ele>
        <time>2010-01-01T16:38:15Z</time>
      </trkpt>
      <trkpt lat="44.320960" lon="3.086930">
        <ele>736.22</ele>
        <time>2010-01-01T16:38:57Z</time>
      </trkpt>
      <trkpt lat="44.320690" lon="3.087540">
        <ele>736.486877</ele>
        <time>2010-01-01T16:39:31Z</time>
      </trkpt>
      <trkpt lat="44.320200" lon="3.088300">
        <ele>736.252502</ele>
        <time>2010-01-01T16:39:46Z</time>
      </trkpt>
      <trkpt lat="44.319890" lon="3.088870">
        <ele>736.52</ele>
        <time>2010-01-01T16:39:56Z</time>
      </trkpt>
      <trkpt lat="44.319050" lon="3.091060">
        <ele>740.620178</ele>
        <time>2010-01-01T16:40:03Z</time>
      </trkpt>
      <trkpt lat="44.318670" lon="3.091720">
        <ele>741.870483</ele>
        <time>2010-01-01T16:40:12Z</time>
      </trkpt>
      <trkpt lat="44.317870" lon="3.092840">
        <ele>744.532837</ele>
        <time>2010-01-01T16:40:29Z</time>
      </trkpt>
      <trkpt lat="44.317870" lon="3.092840">
        <ele>744.532837</ele>
        <time>2010-01-01T16:40:35Z</time>
      </trkpt>
      <trkpt lat="44.317050" lon="3.094210">
        <ele>746.101868</ele>
        <time>2010-01-01T16:40:59Z</time>
      </trkpt>
      <trkpt lat="44.315360" lon="3.096410">
        <ele>753.242920</ele>
        <time>2010-01-01T16:41:32Z</time>
      </trkpt>
      <trkpt lat="44.313590" lon="3.098500">
        <ele>757.980591</ele>
        <time>2010-01-01T16:41:44Z</time>
      </trkpt>
      <trkpt lat="44.313400" lon="3.098800">
        <ele>757.313171</ele>
        <time>2010-01-01T16:41:56Z</time>
      </trkpt>
      <trkpt lat="44.313230" lon="3.099420">
        <ele>757.092834</ele>
        <time>2010-01-01T16:42:04Z</time>
      </trkpt>
      <trkpt lat="44.313190" lon="3.099960">
        <ele>757.175720</ele>
        <time>2010-01-01T16:42:16Z</time>
      </trkpt>
      <trkpt lat="44.313200" lon="3.101680">
        <ele>761.22</ele>
        <time>2010-01-01T16:43:12Z</time>
      </trkpt>
      <trkpt lat="44.313170" lon="3.102350">
        <ele>762.522583</ele>
        <time>2010-01-01T16:43:27Z</time>
      </trkpt>
      <trkpt lat="44.312820" lon="3.103580">
        <ele>770.494995</ele>
        <time>2010-01-01T16:43:45Z</time>
      </trkpt>
      <trkpt lat="44.312810" lon="3.104170">
        <ele>773.634399</ele>
        <time>2010-01-01T16:43:54Z</time>
      </trkpt>
      <trkpt lat="44.312930" lon="3.104590">
        <ele>775.902893</ele>
        <time>2010-01-01T16:44:39Z</time>
      </trkpt>
      <trkpt lat="44.313170" lon="3.104960">
        <ele>776.908691</ele>
        <time>2010-01-01T16:45:06Z</time>
      </trkpt>
      <trkpt lat="44.313970" lon="3.105550">
        <ele>776.088318</ele>
        <time>2010-01-01T16:45:39Z</time>
      </trkpt>
      <trkpt lat="44.314310" lon="3.105880">
        <ele>779.175171</ele>
        <time>2010-01-01T16:45:50Z</time>
      </trkpt>
      <trkpt lat="44.314930" lon="3.106960">
        <ele>781.781982</ele>
        <time>2010-01-01T16:46:35Z</time>
      </trkpt>
      <trkpt lat="44.315160" lon="3.107480">
        <ele>782.002258</ele>
        <time>2010-01-01T16:47:23Z</time>
      </trkpt>
      <trkpt lat="44.315240" lon="3.107760">
        <ele>782.260010</ele>
        <time>2010-01-01T16:47:40Z</time>
      </trkpt>
      <trkpt lat="44.315270" lon="3.108030">
        <ele>782.80</ele>
        <time>2010-01-01T16:48:08Z</time>
      </trkpt>
      <trkpt lat="44.315310" lon="3.109490">
        <ele>786.536194</ele>
        <time>2010-01-01T16:48:18Z</time>
      </trkpt>
      <trkpt lat="44.315470" lon="3.110740">
        <ele>790.507507</ele>
        <time>2010-01-01T16:48:51Z</time>
      </trkpt>
      <trkpt lat="44.315480" lon="3.111250">
        <ele>792.122864</ele>
        <time>2010-01-01T16:49:06Z</time>
      </trkpt>
      <trkpt lat="44.315350" lon="3.111720">
        <ele>793.030640</ele>
        <time>2010-01-01T16:49:37Z</time>
      </trkpt>
      <trkpt lat="44.314960" lon="3.112420">
        <ele>797.153870</ele>
        <time>2010-01-01T16:49:49Z</time>
      </trkpt>
      <trkpt lat="44.314800" lon="3.113160">
        <ele>800.075378</ele>
        <time>2010-01-01T16:50:02Z</time>
      </trkpt>
      <trkpt lat="44.314680" lon="3.113520">
        <ele>800.057129</ele>
        <time>2010-01-01T16:50:53Z</time>
      </trkpt>
      <trkpt lat="44.313920" lon="3.115220">
        <ele>809.210632</ele>
        <time>2010-01-01T16:51:07Z</time>
      </trkpt>
      <trkpt lat="44.313750" lon="3.115810">
        <ele>813.878174</ele>
        <time>2010-01-01T16:52:35Z</time>
      </trkpt>
      <trkpt lat="44.313650" lon="3.116320">
        <ele>816.247498</ele>
        <time>2010-01-01T16:52:51Z</time>
      </trkpt>
      <trkpt lat="44.313570" lon="3.116920">
        <ele>817.500000</ele>
        <time>2010-01-01T16:53:04Z</time>
      </trkpt>
      <trkpt lat="44.313580" lon="3.117190">
        <ele>817.554993</ele>
        <time>2010-01-01T16:53:18Z</time>
      </trkpt>
      <trkpt lat="44.313720" lon="3.117680">
        <ele>817.447510</ele>
        <time>2010-01-01T16:53:36Z</time>
      </trkpt>
      <trkpt lat="44.314050" lon="3.118280">
        <ele>816.484009</ele>
        <time>2010-01-01T16:54:16Z</time>
      </trkpt>
      <trkpt lat="44.314130" lon="3.118560">
        <ele>814.930359</ele>
        <time>2010-01-01T16:54:29Z</time>
      </trkpt>
      <trkpt lat="44.314190" lon="3.118950">
        <ele>812.05</ele>
        <time>2010-01-01T16:54:40Z</time>
      </trkpt>
      <trkpt lat="44.314200" lon="3.119530">
        <ele>812.05</ele>
        <time>2010-01-01T16:54:47Z</time>
      </trkpt>
      <trkpt lat="44.314130" lon="3.120010">
        <ele>812.05</ele>
        <time>2010-01-01T16:54:55Z</time>
      </trkpt>
      <trkpt lat="44.313580" lon="3.121750">
        <ele>818.95</ele>
        <time>2010-01-01T16:55:09Z</time>
      </trkpt>
      <trkpt lat="44.313410" lon="3.122440">
        <ele>818.930603</ele>
        <time>2010-01-01T16:56:25Z</time>
      </trkpt>
      <trkpt lat="44.313170" lon="3.123790">
        <ele>821.091309</ele>
        <time>2010-01-01T16:56:47Z</time>
      </trkpt>
      <trkpt lat="44.312510" lon="3.126360">
        <ele>823.69</ele>
        <time>2010-01-01T16:56:58Z</time>
      </trkpt>
      <trkpt lat="44.312440" lon="3.127080">
        <ele>825.255127</ele>
        <time>2010-01-01T16:57:37Z</time>
      </trkpt>
      <trkpt lat="44.312460" lon="3.130470">
        <ele>830.652527</ele>
        <time>2010-01-01T16:57:50Z</time>
      </trkpt>
      <trkpt lat="44.312300" lon="3.131890">
        <ele>838.152527</ele>
        <time>2010-01-01T16:58:18Z</time>
      </trkpt>
      <trkpt lat="44.312160" lon="3.132440">
        <ele>842.256226</ele>
        <time>2010-01-01T16:58:42Z</time>
      </trkpt>
      <trkpt lat="44.311820" lon="3.133410">
        <ele>848.718018</ele>
        <time>2010-01-01T16:58:54Z</time>
      </trkpt>
      <trkpt lat="44.311690" lon="3.133970">
        <ele>852.474365</ele>
        <time>2010-01-01T16:59:21Z</time>
      </trkpt>
      <trkpt lat="44.311370" lon="3.136340">
        <ele>865.00</ele>
        <time>2010-01-01T16:59:44Z</time>
      </trkpt>
      <trkpt lat="44.311180" lon="3.137270">
        <ele>863.76</ele>
        <time>2010-01-01T16:59:44Z</time>
      </trkpt>
      <trkpt lat="44.310960" lon="3.137820">
        <ele>861.80</ele>
        <time>2010-01-01T17:01:00Z</time>
      </trkpt>
      <trkpt lat="44.310230" lon="3.139160">
        <ele>858.18</ele>
        <time>2010-01-01T17:01:09Z</time>
      </trkpt>
      <trkpt lat="44.309760" lon="3.140200">
        <ele>857.68</ele>
        <time>2010-01-01T17:02:01Z</time>
      </trkpt>
      <trkpt lat="44.309480" lon="3.141230">
        <ele>857.68</ele>
        <time>2010-01-01T17:02:45Z</time>
      </trkpt>
      <trkpt lat="44.309080" lon="3.143040">
        <ele>857.68</ele>
        <time>2010-01-01T17:03:08Z</time>
      </trkpt>
      <trkpt lat="44.309080" lon="3.143040">
        <ele>857.68</ele>
        <time>2010-01-01T17:03:42Z</time>
      </trkpt>
      <trkpt lat="44.308760" lon="3.144470">
        <ele>857.68</ele>
        <time>2010-01-01T17:03:58Z</time>
      </trkpt>
      <trkpt lat="44.308630" lon="3.145280">
        <ele>857.68</ele>
        <time>2010-01-01T17:04:16Z</time>
      </trkpt>
      <trkpt lat="44.308550" lon="3.147000">
        <ele>857.68</ele>
        <time>2010-01-01T17:04:41Z</time>
      </trkpt>
      <trkpt lat="44.308500" lon="3.147400">
        <ele>857.68</ele>
        <time>2010-01-01T17:04:48Z</time>
      </trkpt>
      <trkpt lat="44.307580" lon="3.151340">
        <ele>857.71</ele>
        <time>2010-01-01T17:05:11Z</time>
      </trkpt>
      <trkpt lat="44.307400" lon="3.152390">
        <ele>856.107910</ele>
        <time>2010-01-01T17:05:40Z</time>
      </trkpt>
      <trkpt lat="44.307050" lon="3.156270">
        <ele>853.907715</ele>
        <time>2010-01-01T17:05:49Z</time>
      </trkpt>
      <trkpt lat="44.306860" lon="3.159780">
        <ele>852.77</ele>
        <time>2010-01-01T17:05:56Z</time>
      </trkpt>
      <trkpt lat="44.306440" lon="3.161830">
        <ele>854.044983</ele>
        <time>2010-01-01T17:06:14Z</time>
      </trkpt>
      <trkpt lat="44.306310" lon="3.163000">
        <ele>856.206238</ele>
        <time>2010-01-01T17:06:25Z</time>
      </trkpt>
      <trkpt lat="44.306320" lon="3.163470">
        <ele>856.897522</ele>
        <time>2010-01-01T17:06:44Z</time>
      </trkpt>
      <trkpt lat="44.306420" lon="3.164090">
        <ele>857.535034</ele>
        <time>2010-01-01T17:06:49Z</time>
      </trkpt>
      <trkpt lat="44.307020" lon="3.165940">
        <ele>859.705017</ele>
        <time>2010-01-01T17:06:54Z</time>
      </trkpt>
      <trkpt lat="44.307450" lon="3.168130">
        <ele>863.127502</ele>
        <time>2010-01-01T17:07:02Z</time>
      </trkpt>
      <trkpt lat="44.307510" lon="3.168820">
        <ele>863.938782</ele>
        <time>2010-01-01T17:07:49Z</time>
      </trkpt>
      <trkpt lat="44.307520" lon="3.170220">
        <ele>865.798218</ele>
        <time>2010-01-01T17:07:54Z</time>
      </trkpt>
      <trkpt lat="44.307700" lon="3.172260">
        <ele>865.884338</ele>
        <time>2010-01-01T17:08:11Z</time>
      </trkpt>
      <trkpt lat="44.307620" lon="3.172310">
        <ele>865.861572</ele>
        <time>2010-01-01T17:08:59Z</time>
      </trkpt>
      <trkpt lat="44.307610" lon="3.172390">
        <ele>865.949463</ele>
        <time>2010-01-01T17:09:06Z</time>
      </trkpt>
      <trkpt lat="44.307660" lon="3.172470">
        <ele>866.061523</ele>
        <time>2010-01-01T17:09:33Z</time>
      </trkpt>
      <trkpt lat="44.307730" lon="3.172450">
        <ele>866.48</ele>
        <time>2010-01-01T17:10:01Z</time>
      </trkpt>
      <trkpt lat="44.308230" lon="3.173840">
        <ele>869.67</ele>
        <time>2010-01-01T17:10:23Z</time>
      </trkpt>
      <trkpt lat="44.308441" lon="3.174447">
        <ele>869.67</ele>
        <time>2010-01-01T17:10:40Z</time>
      </trkpt>
      <trkpt lat="44.308470" lon="3.175790">
        <ele>869.67</ele>
        <time>2010-01-01T17:11:14Z</time>
      </trkpt>
      <trkpt lat="44.308470" lon="3.176080">
        <ele>869.156311</ele>
        <time>2010-01-01T17:11:30Z</time>
      </trkpt>
      <trkpt lat="44.308420" lon="3.176300">
        <ele>868.691711</ele>
        <time>2010-01-01T17:12:16Z</time>
      </trkpt>
      <trkpt lat="44.308140" lon="3.177260">
        <ele>868.65</ele>
        <time>2010-01-01T17:12:42Z</time>
      </trkpt>
      <trkpt lat="44.307570" lon="3.178010">
        <ele>870.630005</ele>
        <time>2010-01-01T17:13:43Z</time>
      </trkpt>
      <trkpt lat="44.307320" lon="3.178470">
        <ele>871.562500</ele>
        <time>2010-01-01T17:13:54Z</time>
      </trkpt>
      <trkpt lat="44.307080" lon="3.179150">
        <ele>872.424866</ele>
        <time>2010-01-01T17:14:10Z</time>
      </trkpt>
      <trkpt lat="44.306980" lon="3.179880">
        <ele>872.265015</ele>
        <time>2010-01-01T17:14:12Z</time>
      </trkpt>
      <trkpt lat="44.306890" lon="3.180100">
        <ele>871.869995</ele>
        <time>2010-01-01T17:14:14Z</time>
      </trkpt>
      <trkpt lat="44.306790" lon="3.180220">
        <ele>871.429993</ele>
        <time>2010-01-01T17:14:19Z</time>
      </trkpt>
      <trkpt lat="44.306620" lon="3.180320">
        <ele>870.840027</ele>
        <time>2010-01-01T17:14:33Z</time>
      </trkpt>
      <trkpt lat="44.306050" lon="3.180410">
        <ele>869.145020</ele>
        <time>2010-01-01T17:14:43Z</time>
      </trkpt>
      <trkpt lat="44.305800" lon="3.180500">
        <ele>868.034973</ele>
        <time>2010-01-01T17:14:54Z</time>
      </trkpt>
      <trkpt lat="44.305260" lon="3.181060">
        <ele>866.04</ele>
        <time>2010-01-01T17:15:27Z</time>
      </trkpt>
      <trkpt lat="44.304750" lon="3.181180">
        <ele>866.04</ele>
        <time>2010-01-01T17:15:59Z</time>
      </trkpt>
      <trkpt lat="44.304750" lon="3.181180">
        <ele>866.04</ele>
        <time>2010-01-01T17:17:08Z</time>
      </trkpt>
      <trkpt lat="44.304400" lon="3.181260">
        <ele>866.26</ele>
        <time>2010-01-01T17:17:35Z</time>
      </trkpt>
      <trkpt lat="44.304180" lon="3.181450">
        <ele>867.948669</ele>
        <time>2010-01-01T17:17:56Z</time>
      </trkpt>
      <trkpt lat="44.304050" lon="3.181740">
        <ele>869.324768</ele>
        <time>2010-01-01T17:18:00Z</time>
      </trkpt>
      <trkpt lat="44.303980" lon="3.182470">
        <ele>873.172180</ele>
        <time>2010-01-01T17:18:04Z</time>
      </trkpt>
      <trkpt lat="44.303880" lon="3.182800">
        <ele>876.108643</ele>
        <time>2010-01-01T17:18:07Z</time>
      </trkpt>
      <trkpt lat="44.302690" lon="3.184810">
        <ele>883.63</ele>
        <time>2010-01-01T17:18:20Z</time>
      </trkpt>
      <trkpt lat="44.302570" lon="3.185250">
        <ele>883.63</ele>
        <time>2010-01-01T17:18:41Z</time>
      </trkpt>
      <trkpt lat="44.302330" lon="3.186920">
        <ele>887.330017</ele>
        <time>2010-01-01T17:19:31Z</time>
      </trkpt>
      <trkpt lat="44.302230" lon="3.187210">
        <ele>887.890015</ele>
        <time>2010-01-01T17:19:47Z</time>
      </trkpt>
      <trkpt lat="44.301920" lon="3.187680">
        <ele>888.19</ele>
        <time>2010-01-01T17:20:26Z</time>
      </trkpt>
      <trkpt lat="44.301360" lon="3.188090">
        <ele>887.027039</ele>
        <time>2010-01-01T17:20:58Z</time>
      </trkpt>
      <trkpt lat="44.300980" lon="3.188280">
        <ele>887.963623</ele>
        <time>2010-01-01T17:21:24Z</time>
      </trkpt>
      <trkpt lat="44.300580" lon="3.188350">
        <ele>887.864990</ele>
        <time>2010-01-01T17:21:47Z</time>
      </trkpt>
      <trkpt lat="44.299550" lon="3.188310">
        <ele>885.761230</ele>
        <time>2010-01-01T17:21:53Z</time>
      </trkpt>
      <trkpt lat="44.298690" lon="3.188390">
        <ele>885.395264</ele>
        <time>2010-01-01T17:22:05Z</time>
      </trkpt>
      <trkpt lat="44.298340" lon="3.188600">
        <ele>885.554138</ele>
        <time>2010-01-01T17:22:09Z</time>
      </trkpt>
      <trkpt lat="44.298150" lon="3.188830">
        <ele>885.309021</ele>
        <time>2010-01-01T17:22:12Z</time>
      </trkpt>
      <trkpt lat="44.298050" lon="3.189030">
        <ele>884.763733</ele>
        <time>2010-01-01T17:22:16Z</time>
      </trkpt>
      <trkpt lat="44.297980" lon="3.189310">
        <ele>883.913147</ele>
        <time>2010-01-01T17:22:51Z</time>
      </trkpt>
      <trkpt lat="44.297960" lon="3.189890">
        <ele>882.26</ele>
        <time>2010-01-01T17:23:03Z</time>
      </trkpt>
      <trkpt lat="44.298020" lon="3.190110">
        <ele>882.26</ele>
        <time>2010-01-01T17:23:27Z</time>
      </trkpt>
      <trkpt lat="44.298350" lon="3.190810">
        <ele>881.26</ele>
        <time>2010-01-01T17:23:55Z</time>
      </trkpt>
      <trkpt lat="44.298550" lon="3.191900">
        <ele>879.96</ele>
        <time>2010-01-01T17:24:10Z</time>
      </trkpt>
      <trkpt lat="44.298680" lon="3.192290">
        <ele>879.829712</ele>
        <time>2010-01-01T17:24:45Z</time>
      </trkpt>
      <trkpt lat="44.298730" lon="3.192720">
        <ele>879.179688</ele>
        <time>2010-01-01T17:25:21Z</time>
      </trkpt>
      <trkpt lat="44.298670" lon="3.192990">
        <ele>877.890930</ele>
        <time>2010-01-01T17:25:37Z</time>
      </trkpt>
      <trkpt lat="44.298500" lon="3.193320">
        <ele>876.551086</ele>
        <time>2010-01-01T17:25:55Z</time>
      </trkpt>
      <trkpt lat="44.297610" lon="3.194800">
        <ele>875.049988</ele>
        <time>2010-01-01T17:26:09Z</time>
      </trkpt>
      <trkpt lat="44.297250" lon="3.195040">
        <ele>873.948730</ele>
        <time>2010-01-01T17:26:15Z</time>
      </trkpt>
      <trkpt lat="44.296830" lon="3.195200">
        <ele>872.750000</ele>
        <time>2010-01-01T17:26:17Z</time>
      </trkpt>
      <trkpt lat="44.296600" lon="3.195240">
        <ele>872.358765</ele>
        <time>2010-01-01T17:26:23Z</time>
      </trkpt>
      <trkpt lat="44.295480" lon="3.195110">
        <ele>870.86</ele>
        <time>2010-01-01T17:26:29Z</time>
      </trkpt>
      <trkpt lat="44.294840" lon="3.195390">
        <ele>868.976257</ele>
        <time>2010-01-01T17:26:57Z</time>
      </trkpt>
      <trkpt lat="44.294020" lon="3.195620">
        <ele>867.055115</ele>
        <time>2010-01-01T17:28:09Z</time>
      </trkpt>
      <trkpt lat="44.293810" lon="3.195850">
        <ele>866.496521</ele>
        <time>2010-01-01T17:28:40Z</time>
      </trkpt>
      <trkpt lat="44.293130" lon="3.197080">
        <ele>866.127502</ele>
        <time>2010-01-01T17:29:28Z</time>
      </trkpt>
      <trkpt lat="44.292340" lon="3.198350">
        <ele>866.88</ele>
        <time>2010-01-01T17:29:59Z</time>
      </trkpt>
      <trkpt lat="44.292010" lon="3.198700">
        <ele>866.88</ele>
        <time>2010-01-01T17:30:09Z</time>
      </trkpt>
      <trkpt lat="44.291370" lon="3.199120">
        <ele>869.085022</ele>
        <time>2010-01-01T17:30:22Z</time>
      </trkpt>
      <trkpt lat="44.291160" lon="3.199320">
        <ele>869.963623</ele>
        <time>2010-01-01T17:30:36Z</time>
      </trkpt>
      <trkpt lat="44.290560" lon="3.200100">
        <ele>869.964966</ele>
        <time>2010-01-01T17:30:55Z</time>
      </trkpt>
      <trkpt lat="44.290340" lon="3.200550">
        <ele>869.223755</ele>
        <time>2010-01-01T17:30:59Z</time>
      </trkpt>
      <trkpt lat="44.290010" lon="3.201500">
        <ele>868.73</ele>
        <time>2010-01-01T17:31:01Z</time>
      </trkpt>
      <trkpt lat="44.289810" lon="3.201850">
        <ele>868.73</ele>
        <time>2010-01-01T17:31:04Z</time>
      </trkpt>
      <trkpt lat="44.289540" lon="3.202070">
        <ele>869.447510</ele>
        <time>2010-01-01T17:31:21Z</time>
      </trkpt>
      <trkpt lat="44.288350" lon="3.202680">
        <ele>873.992493</ele>
        <time>2010-01-01T17:32:10Z</time>
      </trkpt>
      <trkpt lat="44.287990" lon="3.202750">
        <ele>875.925232</ele>
        <time>2010-01-01T17:32:51Z</time>
      </trkpt>
      <trkpt lat="44.285810" lon="3.202880">
        <ele>882.146729</ele>
        <time>2010-01-01T17:33:39Z</time>
      </trkpt>
      <trkpt lat="44.285390" lon="3.202870">
        <ele>882.920349</ele>
        <time>2010-01-01T17:33:58Z</time>
      </trkpt>
      <trkpt lat="44.285080" lon="3.202770">
        <ele>883.739990</ele>
        <time>2010-01-01T17:34:35Z</time>
      </trkpt>
      <trkpt lat="44.284770" lon="3.202560">
        <ele>884.592468</ele>
        <time>2010-01-01T17:34:42Z</time>
      </trkpt>
      <trkpt lat="44.284440" lon="3.202120">
        <ele>884.173035</ele>
        <time>2010-01-01T17:34:53Z</time>
      </trkpt>
      <trkpt lat="44.284000" lon="3.200870">
        <ele>884.222473</ele>
        <time>2010-01-01T17:34:56Z</time>
      </trkpt>
      <trkpt lat="44.283720" lon="3.200660">
        <ele>885.45</ele>
        <time>2010-01-01T17:34:59Z</time>
      </trkpt>
      <trkpt lat="44.283440" lon="3.200710">
        <ele>886.762512</ele>
        <time>2010-01-01T17:35:02Z</time>
      </trkpt>
      <trkpt lat="44.283300" lon="3.200830">
        <ele>887.462463</ele>
        <time>2010-01-01T17:35:06Z</time>
      </trkpt>
      <trkpt lat="44.283150" lon="3.201050">
        <ele>888.502502</ele>
        <time>2010-01-01T17:35:54Z</time>
      </trkpt>
      <trkpt lat="44.283060" lon="3.201520">
        <ele>889.618042</ele>
        <time>2010-01-01T17:36:11Z</time>
      </trkpt>
      <trkpt lat="44.283050" lon="3.204160">
        <ele>895.102478</ele>
        <time>2010-01-01T17:36:25Z</time>
      </trkpt>
      <trkpt lat="44.283180" lon="3.204900">
        <ele>897.237915</ele>
        <time>2010-01-01T17:36:44Z</time>
      </trkpt>
      <trkpt lat="44.283210" lon="3.205300">
        <ele>897.99</ele>
        <time>2010-01-01T17:37:02Z</time>
      </trkpt>
      <trkpt lat="44.283150" lon="3.206660">
        <ele>897.99</ele>
        <time>2010-01-01T17:37:22Z</time>
      </trkpt>
      <trkpt lat="44.283060" lon="3.207090">
        <ele>897.99</ele>
        <time>2010-01-01T17:37:42Z</time>
      </trkpt>
      <trkpt lat="44.282620" lon="3.207850">
        <ele>900.099792</ele>
        <time>2010-01-01T17:37:56Z</time>
      </trkpt>
      <trkpt lat="44.282170" lon="3.208410">
        <ele>900.987122</ele>
        <time>2010-01-01T17:38:02Z</time>
      </trkpt>
      <trkpt lat="44.281890" lon="3.208520">
        <ele>900.838989</ele>
        <time>2010-01-01T17:38:05Z</time>
      </trkpt>
      <trkpt lat="44.281220" lon="3.208670">
        <ele>901.334412</ele>
        <time>2010-01-01T17:38:08Z</time>
      </trkpt>
      <trkpt lat="44.280640" lon="3.208640">
        <ele>901.207520</ele>
        <time>2010-01-01T17:38:23Z</time>
      </trkpt>
      <trkpt lat="44.280640" lon="3.208640">
        <ele>901.207520</ele>
        <time>2010-01-01T17:38:51Z</time>
      </trkpt>
      <trkpt lat="44.278760" lon="3.208510">
        <ele>905.289490</ele>
        <time>2010-01-01T17:39:09Z</time>
      </trkpt>
      <trkpt lat="44.278530" lon="3.208560">
        <ele>906.05</ele>
        <time>2010-01-01T17:39:28Z</time>
      </trkpt>
      <trkpt lat="44.277450" lon="3.209550">
        <ele>902.613037</ele>
        <time>2010-01-01T17:39:44Z</time>
      </trkpt>
      <trkpt lat="44.276410" lon="3.210060">
        <ele>894.771851</ele>
        <time>2010-01-01T17:39:55Z</time>
      </trkpt>
      <trkpt lat="44.275850" lon="3.210280">
        <ele>893.813416</ele>
        <time>2010-01-01T17:40:09Z</time>
      </trkpt>
      <trkpt lat="44.275170" lon="3.210970">
        <ele>886.974365</ele>
        <time>2010-01-01T17:40:22Z</time>
      </trkpt>
      <trkpt lat="44.274810" lon="3.211250">
        <ele>883.69</ele>
        <time>2010-01-01T17:40:42Z</time>
      </trkpt>
      <trkpt lat="44.274390" lon="3.211460">
        <ele>881.339966</ele>
        <time>2010-01-01T17:40:53Z</time>
      </trkpt>
      <trkpt lat="44.273780" lon="3.211520">
        <ele>881.974243</ele>
        <time>2010-01-01T17:41:29Z</time>
      </trkpt>
      <trkpt lat="44.273600" lon="3.211600">
        <ele>881.101440</ele>
        <time>2010-01-01T17:41:48Z</time>
      </trkpt>
      <trkpt lat="44.273220" lon="3.212170">
        <ele>875.921570</ele>
        <time>2010-01-01T17:42:22Z</time>
      </trkpt>
      <trkpt lat="44.272570" lon="3.212680">
        <ele>875.561768</ele>
        <time>2010-01-01T17:42:29Z</time>
      </trkpt>
      <trkpt lat="44.272460" lon="3.212930">
        <ele>874.774536</ele>
        <time>2010-01-01T17:42:39Z</time>
      </trkpt>
      <trkpt lat="44.272470" lon="3.213170">
        <ele>873.158508</ele>
        <time>2010-01-01T17:42:43Z</time>
      </trkpt>
      <trkpt lat="44.272760" lon="3.213670">
        <ele>868.369385</ele>
        <time>2010-01-01T17:42:45Z</time>
      </trkpt>
      <trkpt lat="44.272780" lon="3.214060">
        <ele>867.001343</ele>
        <time>2010-01-01T17:42:47Z</time>
      </trkpt>
      <trkpt lat="44.272740" lon="3.214690">
        <ele>864.086121</ele>
        <time>2010-01-01T17:42:53Z</time>
      </trkpt>
      <trkpt lat="44.272770" lon="3.214870">
        <ele>861.640991</ele>
        <time>2010-01-01T17:43:23Z</time>
      </trkpt>
      <trkpt lat="44.272820" lon="3.215020">
        <ele>859.599976</ele>
        <time>2010-01-01T17:43:26Z</time>
      </trkpt>
      <trkpt lat="44.272970" lon="3.215210">
        <ele>857.043030</ele>
        <time>2010-01-01T17:43:54Z</time>
      </trkpt>
      <trkpt lat="44.274110" lon="3.215690">
        <ele>849.803040</ele>
        <time>2010-01-01T17:44:00Z</time>
      </trkpt>
      <trkpt lat="44.274220" lon="3.215760">
        <ele>849.52</ele>
        <time>2010-01-01T17:44:12Z</time>
      </trkpt>
      <trkpt lat="44.274490" lon="3.216200">
        <ele>847.32</ele>
        <time>2010-01-01T17:44:19Z</time>
      </trkpt>
      <trkpt lat="44.275590" lon="3.216870">
        <ele>843.176758</ele>
        <time>2010-01-01T17:44:23Z</time>
      </trkpt>
      <trkpt lat="44.275750" lon="3.217000">
        <ele>843.457947</ele>
        <time>2010-01-01T17:44:32Z</time>
      </trkpt>
      <trkpt lat="44.276210" lon="3.217660">
        <ele>834.354187</ele>
        <time>2010-01-01T17:44:36Z</time>
      </trkpt>
      <trkpt lat="44.276810" lon="3.218210">
        <ele>829.743774</ele>
        <time>2010-01-01T17:44:55Z</time>
      </trkpt>
      <trkpt lat="44.277300" lon="3.218550">
        <ele>822.134338</ele>
        <time>2010-01-01T17:45:09Z</time>
      </trkpt>
      <trkpt lat="44.277720" lon="3.218600">
        <ele>821.22</ele>
        <time>2010-01-01T17:45:26Z</time>
      </trkpt>
      <trkpt lat="44.278570" lon="3.218590">
        <ele>820.843567</ele>
        <time>2010-01-01T17:45:41Z</time>
      </trkpt>
      <trkpt lat="44.278960" lon="3.218710">
        <ele>817.853394</ele>
        <time>2010-01-01T17:45:58Z</time>
      </trkpt>
      <trkpt lat="44.280040" lon="3.219200">
        <ele>803.864319</ele>
        <time>2010-01-01T17:47:06Z</time>
      </trkpt>
      <trkpt lat="44.280700" lon="3.219330">
        <ele>798.03</ele>
        <time>2010-01-01T17:47:13Z</time>
      </trkpt>
      <trkpt lat="44.282200" lon="3.219180">
        <ele>792.94</ele>
        <time>2010-01-01T17:47:20Z</time>
      </trkpt>
      <trkpt lat="44.282450" lon="3.219020">
        <ele>792.41</ele>
        <time>2010-01-01T17:47:25Z</time>
      </trkpt>
      <trkpt lat="44.282660" lon="3.218540">
        <ele>792.47</ele>
        <time>2010-01-01T17:47:31Z</time>
      </trkpt>
      <trkpt lat="44.282720" lon="3.218510">
        <ele>792.392517</ele>
        <time>2010-01-01T17:47:41Z</time>
      </trkpt>
      <trkpt lat="44.282760" lon="3.218550">
        <ele>789.627502</ele>
        <time>2010-01-01T17:47:47Z</time>
      </trkpt>
      <trkpt lat="44.282760" lon="3.218710">
        <ele>785.987488</ele>
        <time>2010-01-01T17:48:23Z</time>
      </trkpt>
      <trkpt lat="44.282550" lon="3.219100">
        <ele>785.138977</ele>
        <time>2010-01-01T17:48:47Z</time>
      </trkpt>
      <trkpt lat="44.282350" lon="3.219320">
        <ele>779.069702</ele>
        <time>2010-01-01T17:48:47Z</time>
      </trkpt>
      <trkpt lat="44.282080" lon="3.219440">
        <ele>778.55</ele>
        <time>2010-01-01T17:49:14Z</time>
      </trkpt>
      <trkpt lat="44.281280" lon="3.219580">
        <ele>777.66</ele>
        <time>2010-01-01T17:49:54Z</time>
      </trkpt>
      <trkpt lat="44.280480" lon="3.219800">
        <ele>772.97</ele>
        <time>2010-01-01T17:50:55Z</time>
      </trkpt>
      <trkpt lat="44.278770" lon="3.219790">
        <ele>768.561523</ele>
        <time>2010-01-01T17:51:51Z</time>
      </trkpt>
      <trkpt lat="44.278090" lon="3.219880">
        <ele>763.14</ele>
        <time>2010-01-01T17:52:34Z</time>
      </trkpt>
      <trkpt lat="44.277580" lon="3.219780">
        <ele>762.127319</ele>
        <time>2010-01-01T17:53:12Z</time>
      </trkpt>
      <trkpt lat="44.277510" lon="3.219900">
        <ele>755.900574</ele>
        <time>2010-01-01T17:53:26Z</time>
      </trkpt>
      <trkpt lat="44.277570" lon="3.220010">
        <ele>752.114502</ele>
        <time>2010-01-01T17:54:16Z</time>
      </trkpt>
      <trkpt lat="44.277640" lon="3.220030">
        <ele>751.95</ele>
        <time>2010-01-01T17:54:46Z</time>
      </trkpt>
      <trkpt lat="44.277980" lon="3.220010">
        <ele>751.79</ele>
        <time>2010-01-01T17:55:16Z</time>
      </trkpt>
      <trkpt lat="44.278490" lon="3.220110">
        <ele>751.390991</ele>
        <time>2010-01-01T17:55:34Z</time>
      </trkpt>
      <trkpt lat="44.279700" lon="3.220480">
        <ele>739.491089</ele>
        <time>2010-01-01T17:56:15Z</time>
      </trkpt>
      <trkpt lat="44.280090" lon="3.220640">
        <ele>734.247437</ele>
        <time>2010-01-01T17:57:13Z</time>
      </trkpt>
      <trkpt lat="44.281000" lon="3.221140">
        <ele>720.986450</ele>
        <time>2010-01-01T17:58:21Z</time>
      </trkpt>
      <trkpt lat="44.281800" lon="3.221310">
        <ele>716.467468</ele>
        <time>2010-01-01T17:58:42Z</time>
      </trkpt>
      <trkpt lat="44.282440" lon="3.221240">
        <ele>711.160950</ele>
        <time>2010-01-01T17:59:16Z</time>
      </trkpt>
      <trkpt lat="44.282990" lon="3.221030">
        <ele>704.224976</ele>
        <time>2010-01-01T18:09:16Z</time>
      </trkpt>
      <trkpt lat="44.283110" lon="3.220880">
        <ele>703.197632</ele>
        <time>2010-01-01T18:09:48Z</time>
      </trkpt>
      <trkpt lat="44.283260" lon="3.220540">
        <ele>704.76</ele>
        <time>2010-01-01T18:09:59Z</time>
      </trkpt>
      <trkpt lat="44.283350" lon="3.220530">
        <ele>701.416626</ele>
        <time>2010-01-01T18:10:16Z</time>
      </trkpt>
      <trkpt lat="44.283400" lon="3.220630">
        <ele>697.851807</ele>
        <time>2010-01-01T18:10:36Z</time>
      </trkpt>
      <trkpt lat="44.283370" lon="3.220770">
        <ele>696.705078</ele>
        <time>2010-01-01T18:11:00Z</time>
      </trkpt>
      <trkpt lat="44.282840" lon="3.221730">
        <ele>694.373779</ele>
        <time>2010-01-01T18:11:17Z</time>
      </trkpt>
      <trkpt lat="44.282630" lon="3.222020">
        <ele>691.500000</ele>
        <time>2010-01-01T18:11:17Z</time>
      </trkpt>
      <trkpt lat="44.282080" lon="3.222380">
        <ele>686.943726</ele>
        <time>2010-01-01T18:11:24Z</time>
      </trkpt>
      <trkpt lat="44.281430" lon="3.222700">
        <ele>675.107300</ele>
        <time>2010-01-01T18:11:37Z</time>
      </trkpt>
      <trkpt lat="44.281050" lon="3.222680">
        <ele>672.885010</ele>
        <time>2010-01-01T18:11:52Z</time>
      </trkpt>
      <trkpt lat="44.280200" lon="3.222450">
        <ele>673.617065</ele>
        <time>2010-01-01T18:12:18Z</time>
      </trkpt>
      <trkpt lat="44.279300" lon="3.222440">
        <ele>664.12</ele>
        <time>2010-01-01T18:12:33Z</time>
      </trkpt>
      <trkpt lat="44.278890" lon="3.222300">
        <ele>663.200012</ele>
        <time>2010-01-01T18:12:46Z</time>
      </trkpt>
      <trkpt lat="44.278440" lon="3.222320">
        <ele>658.012512</ele>
        <time>2010-01-01T18:13:18Z</time>
      </trkpt>
      <trkpt lat="44.278120" lon="3.222400">
        <ele>650.495361</ele>
        <time>2010-01-01T18:13:36Z</time>
      </trkpt>
      <trkpt lat="44.278030" lon="3.222570">
        <ele>641.600952</ele>
        <time>2010-01-01T18:13:52Z</time>
      </trkpt>
      <trkpt lat="44.278050" lon="3.222660">
        <ele>637.983826</ele>
        <time>2010-01-01T18:14:07Z</time>
      </trkpt>
      <trkpt lat="44.278160" lon="3.222760">
        <ele>637.89</ele>
        <time>2010-01-01T18:14:20Z</time>
      </trkpt>
      <trkpt lat="44.278310" lon="3.222800">
        <ele>637.132507</ele>
        <time>2010-01-01T18:14:30Z</time>
      </trkpt>
      <trkpt lat="44.279020" lon="3.222890">
        <ele>641.54</ele>
        <time>2010-01-01T18:14:53Z</time>
      </trkpt>
      <trkpt lat="44.280600" lon="3.224050">
        <ele>616.39</ele>
        <time>2010-01-01T18:16:07Z</time>
      </trkpt>
      <trkpt lat="44.281350" lon="3.224400">
        <ele>610.824402</ele>
        <time>2010-01-01T18:16:22Z</time>
      </trkpt>
      <trkpt lat="44.282540" lon="3.224500">
        <ele>600.60</ele>
        <time>2010-01-01T18:16:40Z</time>
      </trkpt>
      <trkpt lat="44.283310" lon="3.224660">
        <ele>591.636230</ele>
        <time>2010-01-01T18:17:18Z</time>
      </trkpt>
      <trkpt lat="44.283560" lon="3.224640">
        <ele>589.177490</ele>
        <time>2010-01-01T18:17:26Z</time>
      </trkpt>
      <trkpt lat="44.283870" lon="3.224540">
        <ele>588.03</ele>
        <time>2010-01-01T18:18:11Z</time>
      </trkpt>
      <trkpt lat="44.284200" lon="3.224330">
        <ele>589.15</ele>
        <time>2010-01-01T18:18:48Z</time>
      </trkpt>
      <trkpt lat="44.284510" lon="3.223850">
        <ele>592.18</ele>
        <time>2010-01-01T18:19:05Z</time>
      </trkpt>
      <trkpt lat="44.284600" lon="3.223850">
        <ele>592.89</ele>
        <time>2010-01-01T18:19:28Z</time>
      </trkpt>
      <trkpt lat="44.284640" lon="3.223910">
        <ele>590.61</ele>
        <time>2010-01-01T18:19:52Z</time>
      </trkpt>
      <trkpt lat="44.284620" lon="3.224020">
        <ele>587.782166</ele>
        <time>2010-01-01T18:20:12Z</time>
      </trkpt>
      <trkpt lat="44.284320" lon="3.224410">
        <ele>577.397949</ele>
        <time>2010-01-01T18:20:25Z</time>
      </trkpt>
      <trkpt lat="44.283230" lon="3.225240">
        <ele>564.747620</ele>
        <time>2010-01-01T18:20:40Z</time>
      </trkpt>
      <trkpt lat="44.282220" lon="3.225470">
        <ele>560.458435</ele>
        <time>2010-01-01T18:20:56Z</time>
      </trkpt>
      <trkpt lat="44.281070" lon="3.225930">
        <ele>548.170837</ele>
        <time>2010-01-01T18:21:27Z</time>
      </trkpt>
      <trkpt lat="44.280590" lon="3.226000">
        <ele>542.235596</ele>
        <time>2010-01-01T18:21:48Z</time>
      </trkpt>
      <trkpt lat="44.279690" lon="3.225760">
        <ele>533.49</ele>
        <time>2010-01-01T18:22:43Z</time>
      </trkpt>
      <trkpt lat="44.279530" lon="3.225650">
        <ele>533.56</ele>
        <time>2010-01-01T18:23:02Z</time>
      </trkpt>
      <trkpt lat="44.279360" lon="3.225380">
        <ele>533.56</ele>
        <time>2010-01-01T18:23:11Z</time>
      </trkpt>
      <trkpt lat="44.279290" lon="3.225340">
        <ele>533.56</ele>
        <time>2010-01-01T18:23:38Z</time>
      </trkpt>
      <trkpt lat="44.279200" lon="3.225380">
        <ele>533.56</ele>
        <time>2010-01-01T18:24:16Z</time>
      </trkpt>
      <trkpt lat="44.279170" lon="3.225460">
        <ele>533.07</ele>
        <time>2010-01-01T18:24:39Z</time>
      </trkpt>
      <trkpt lat="44.279220" lon="3.225600">
        <ele>527.860168</ele>
        <time>2010-01-01T18:24:46Z</time>
      </trkpt>
      <trkpt lat="44.280210" lon="3.226490">
        <ele>515.924927</ele>
        <time>2010-01-01T18:24:52Z</time>
      </trkpt>
      <trkpt lat="44.280600" lon="3.226750">
        <ele>509.527405</ele>
        <time>2010-01-01T18:25:05Z</time>
      </trkpt>
      <trkpt lat="44.280960" lon="3.226800">
        <ele>507.51</ele>
        <time>2010-01-01T18:25:24Z</time>
      </trkpt>
      <trkpt lat="44.281420" lon="3.226770">
        <ele>506.10</ele>
        <time>2010-01-01T18:25:35Z</time>
      </trkpt>
      <trkpt lat="44.281870" lon="3.226840">
        <ele>504.46</ele>
        <time>2010-01-01T18:25:58Z</time>
      </trkpt>
      <trkpt lat="44.282340" lon="3.226590">
        <ele>503.69</ele>
        <time>2010-01-01T18:26:24Z</time>
      </trkpt>
      <trkpt lat="44.282830" lon="3.226560">
        <ele>502.96</ele>
        <time>2010-01-01T18:26:51Z</time>
      </trkpt>
      <trkpt lat="44.283190" lon="3.226480">
        <ele>501.12</ele>
        <time>2010-01-01T18:27:04Z</time>
      </trkpt>
      <trkpt lat="44.283320" lon="3.226570">
        <ele>501.520447</ele>
        <time>2010-01-01T18:27:16Z</time>
      </trkpt>
      <trkpt lat="44.283320" lon="3.226680">
        <ele>501.741486</ele>
        <time>2010-01-01T18:28:32Z</time>
      </trkpt>
      <trkpt lat="44.283260" lon="3.226730">
        <ele>500.596222</ele>
        <time>2010-01-01T18:28:51Z</time>
      </trkpt>
      <trkpt lat="44.282880" lon="3.226720">
        <ele>494.482117</ele>
        <time>2010-01-01T18:29:13Z</time>
      </trkpt>
      <trkpt lat="44.282210" lon="3.226920">
        <ele>491.130219</ele>
        <time>2010-01-01T18:29:34Z</time>
      </trkpt>
      <trkpt lat="44.281820" lon="3.227280">
        <ele>480.932037</ele>
        <time>2010-01-01T18:30:02Z</time>
      </trkpt>
      <trkpt lat="44.281390" lon="3.227500">
        <ele>475.649414</ele>
        <time>2010-01-01T18:30:24Z</time>
      </trkpt>
      <trkpt lat="44.281080" lon="3.227880">
        <ele>462.295013</ele>
        <time>2010-01-01T18:30:49Z</time>
      </trkpt>
      <trkpt lat="44.280840" lon="3.228040">
        <ele>457.614990</ele>
        <time>2010-01-01T18:31:03Z</time>
      </trkpt>
      <trkpt lat="44.280490" lon="3.228080">
        <ele>457.992859</ele>
        <time>2010-01-01T18:31:27Z</time>
      </trkpt>
      <trkpt lat="44.280170" lon="3.228050">
        <ele>456.53</ele>
        <time>2010-01-01T18:31:47Z</time>
      </trkpt>
      <trkpt lat="44.279670" lon="3.227940">
        <ele>455.487488</ele>
        <time>2010-01-01T18:32:07Z</time>
      </trkpt>
      <trkpt lat="44.279420" lon="3.227830">
        <ele>452.624390</ele>
        <time>2010-01-01T18:32:55Z</time>
      </trkpt>
      <trkpt lat="44.278630" lon="3.227230">
        <ele>447.690338</ele>
        <time>2010-01-01T18:32:56Z</time>
      </trkpt>
      <trkpt lat="44.278160" lon="3.227050">
        <ele>441.555328</ele>
        <time>2010-01-01T18:33:22Z</time>
      </trkpt>
      <trkpt lat="44.277380" lon="3.226610">
        <ele>429.837677</ele>
        <time>2010-01-01T18:33:38Z</time>
      </trkpt>
      <trkpt lat="44.277230" lon="3.226440">
        <ele>428.18</ele>
        <time>2010-01-01T18:33:44Z</time>
      </trkpt>
      <trkpt lat="44.277140" lon="3.226130">
        <ele>427.18</ele>
        <time>2010-01-01T18:34:31Z</time>
      </trkpt>
      <trkpt lat="44.277060" lon="3.226080">
        <ele>426.18</ele>
        <time>2010-01-01T18:34:51Z</time>
      </trkpt>
      <trkpt lat="44.277000" lon="3.226100">
        <ele>425.18</ele>
        <time>2010-01-01T18:34:58Z</time>
      </trkpt>
      <trkpt lat="44.276960" lon="3.226160">
        <ele>425.14</ele>
        <time>2010-01-01T18:35:12Z</time>
      </trkpt>
      <trkpt lat="44.276970" lon="3.226340">
        <ele>424.23</ele>
        <time>2010-01-01T18:35:31Z</time>
      </trkpt>
      <trkpt lat="44.277490" lon="3.227130">
        <ele>421.536285</ele>
        <time>2010-01-01T18:35:51Z</time>
      </trkpt>
      <trkpt lat="44.277490" lon="3.227240">
        <ele>420.514008</ele>
        <time>2010-01-01T18:36:25Z</time>
      </trkpt>
      <trkpt lat="44.277000" lon="3.226560">
        <ele>420.04</ele>
        <time>2010-01-01T18:36:59Z</time>
      </trkpt>
      <trkpt lat="44.276910" lon="3.226380">
        <ele>422.19</ele>
        <time>2010-01-01T18:37:22Z</time>
      </trkpt>
      <trkpt lat="44.276850" lon="3.226000">
        <ele>422.19</ele>
        <time>2010-01-01T18:37:41Z</time>
      </trkpt>
      <trkpt lat="44.276690" lon="3.225880">
        <ele>422.19</ele>
        <time>2010-01-01T18:38:15Z</time>
      </trkpt>
      <trkpt lat="44.276590" lon="3.225910">
        <ele>422.19</ele>
        <time>2010-01-01T18:38:33Z</time>
      </trkpt>
      <trkpt lat="44.276410" lon="3.226100">
        <ele>422.19</ele>
        <time>2010-01-01T18:39:06Z</time>
      </trkpt>
      <trkpt lat="44.276310" lon="3.226130">
        <ele>422.19</ele>
        <time>2010-01-01T18:40:03Z</time>
      </trkpt>
      <trkpt lat="44.275840" lon="3.225970">
        <ele>423.554993</ele>
        <time>2010-01-01T18:40:25Z</time>
      </trkpt>
      <trkpt lat="44.275510" lon="3.225920">
        <ele>423.066528</ele>
        <time>2010-01-01T18:40:59Z</time>
      </trkpt>
      <trkpt lat="44.275120" lon="3.225680">
        <ele>427.60</ele>
        <time>2010-01-01T18:41:25Z</time>
      </trkpt>
      <trkpt lat="44.274750" lon="3.225760">
        <ele>424.940002</ele>
        <time>2010-01-01T18:42:12Z</time>
      </trkpt>
      <trkpt lat="44.274320" lon="3.225690">
        <ele>427.216003</ele>
        <time>2010-01-01T18:42:27Z</time>
      </trkpt>
      <trkpt lat="44.272620" lon="3.225760">
        <ele>428.140808</ele>
        <time>2010-01-01T18:42:48Z</time>
      </trkpt>
      <trkpt lat="44.272450" lon="3.225680">
        <ele>429.18</ele>
        <time>2010-01-01T18:43:25Z</time>
      </trkpt>
      <trkpt lat="44.272320" lon="3.225520">
        <ele>429.18</ele>
        <time>2010-01-01T18:44:10Z</time>
      </trkpt>
      <trkpt lat="44.272200" lon="3.225480">
        <ele>429.18</ele>
        <time>2010-01-01T18:44:40Z</time>
      </trkpt>
      <trkpt lat="44.272070" lon="3.225520">
        <ele>429.18</ele>
        <time>2010-01-01T18:44:47Z</time>
      </trkpt>
      <trkpt lat="44.271880" lon="3.225750">
        <ele>427.54</ele>
        <time>2010-01-01T18:44:53Z</time>
      </trkpt>
      <trkpt lat="44.271740" lon="3.225840">
        <ele>427.54</ele>
        <time>2010-01-01T18:44:59Z</time>
      </trkpt>
      <trkpt lat="44.270830" lon="3.225910">
        <ele>429.02</ele>
        <time>2010-01-01T18:45:45Z</time>
      </trkpt>
      <trkpt lat="44.270250" lon="3.226010">
        <ele>429.823425</ele>
        <time>2010-01-01T18:46:05Z</time>
      </trkpt>
      <trkpt lat="44.270250" lon="3.226010">
        <ele>429.823425</ele>
        <time>2010-01-01T18:46:34Z</time>
      </trkpt>
      <trkpt lat="44.269560" lon="3.226110">
        <ele>429.226135</ele>
        <time>2010-01-01T18:47:11Z</time>
      </trkpt>
      <trkpt lat="44.268560" lon="3.226050">
        <ele>429.96</ele>
        <time>2010-01-01T18:47:14Z</time>
      </trkpt>
      <trkpt lat="44.267050" lon="3.225910">
        <ele>429.96</ele>
        <time>2010-01-01T18:47:17Z</time>
      </trkpt>
      <trkpt lat="44.265670" lon="3.225610">
        <ele>429.96</ele>
        <time>2010-01-01T18:47:48Z</time>
      </trkpt>
      <trkpt lat="44.264600" lon="3.225740">
        <ele>427.43</ele>
        <time>2010-01-01T18:47:56Z</time>
      </trkpt>
      <trkpt lat="44.263670" lon="3.225990">
        <ele>427.43</ele>
        <time>2010-01-01T18:48:10Z</time>
      </trkpt>
      <trkpt lat="44.263340" lon="3.226130">
        <ele>427.798737</ele>
      </trkpt>
      <trkpt lat="44.262190" lon="3.226820">
        <ele>423.06</ele>
      </trkpt>
      <trkpt lat="44.261460" lon="3.227070">
        <ele>425.64</ele>
      </trkpt>
      <trkpt lat="44.260760" lon="3.227470">
        <ele>419.81</ele>
      </trkpt>
      <trkpt lat="44.260320" lon="3.227630">
        <ele>423.89</ele>
      </trkpt>
      <trkpt lat="44.259390" lon="3.228210">
        <ele>422.841248</ele>
      </trkpt>
      <trkpt lat="44.258110" lon="3.229120">
        <ele>423.227814</ele>
      </trkpt>
      <trkpt lat="44.256610" lon="3.230270">
        <ele>422.33</ele>
      </trkpt>
      <trkpt lat="44.256140" lon="3.230560">
        <ele>422.33</ele>
      </trkpt>
      <trkpt lat="44.255320" lon="3.230860">
        <ele>422.33</ele>
      </trkpt>
      <trkpt lat="44.253752" lon="3.231713">
        <ele>423.260193</ele>
      </trkpt>
      <trkpt lat="44.253195" lon="3.231882">
        <ele>423.39</ele>
      </trkpt>
      <trkpt lat="44.252646" lon="3.231960">
        <ele>423.83</ele>
      </trkpt>
      <trkpt lat="44.252134" lon="3.232247">
        <ele>422.68</ele>
      </trkpt>
      <trkpt lat="44.249148" lon="3.232052">
        <ele>420.20</ele>
      </trkpt>
      <trkpt lat="44.248088" lon="3.231908">
        <ele>422.93</ele>
      </trkpt>
      <trkpt lat="44.247313" lon="3.231817">
        <ele>422.56</ele>
      </trkpt>
      <trkpt lat="44.245454" lon="3.232338">
        <ele>422.177002</ele>
      </trkpt>
      <trkpt lat="44.244888" lon="3.232416">
        <ele>422.04</ele>
      </trkpt>
      <trkpt lat="44.244304" lon="3.232221">
        <ele>422.659912</ele>
      </trkpt>
      <trkpt lat="44.243047" lon="3.231400">
        <ele>426.558746</ele>
      </trkpt>
      <trkpt lat="44.241852" lon="3.231153">
        <ele>427.985626</ele>
      </trkpt>
      <trkpt lat="44.240790" lon="3.230810">
        <ele>429.47</ele>
      </trkpt>
      <trkpt lat="44.239980" lon="3.230690">
        <ele>428.27</ele>
      </trkpt>
      <trkpt lat="44.239700" lon="3.230710">
        <ele>427.126068</ele>
      </trkpt>
      <trkpt lat="44.239290" lon="3.230650">
        <ele>425.385040</ele>
      </trkpt>
      <trkpt lat="44.238800" lon="3.230710">
        <ele>424.61</ele>
      </trkpt>
      <trkpt lat="44.238200" lon="3.230620">
        <ele>423.88</ele>
      </trkpt>
      <trkpt lat="44.237800" lon="3.230390">
        <ele>424.51</ele>
      </trkpt>
      <trkpt lat="44.237800" lon="3.230390">
        <ele>424.51</ele>
      </trkpt>
      <trkpt lat="44.237630" lon="3.230330">
        <ele>424.51</ele>
      </trkpt>
      <trkpt lat="44.237310" lon="3.230420">
        <ele>424.51</ele>
      </trkpt>
      <trkpt lat="44.236930" lon="3.230420">
        <ele>424.71</ele>
      </trkpt>
      <trkpt lat="44.236290" lon="3.230320">
        <ele>425.25</ele>
      </trkpt>
      <trkpt lat="44.235930" lon="3.230170">
        <ele>427.068512</ele>
      </trkpt>
      <trkpt lat="44.235620" lon="3.230130">
        <ele>427.77</ele>
      </trkpt>
      <trkpt lat="44.234830" lon="3.230240">
        <ele>427.77</ele>
      </trkpt>
      <trkpt lat="44.234400" lon="3.230460">
        <ele>427.77</ele>
      </trkpt>
      <trkpt lat="44.234010" lon="3.230500">
        <ele>427.77</ele>
      </trkpt>
      <trkpt lat="44.233630" lon="3.230390">
        <ele>426.77</ele>
      </trkpt>
      <trkpt lat="44.233330" lon="3.230190">
        <ele>425.12</ele>
      </trkpt>
      <trkpt lat="44.233100" lon="3.230100">
        <ele>423.99</ele>
      </trkpt>
      <trkpt lat="44.232530" lon="3.230080">
        <ele>420.61</ele>
      </trkpt>
      <trkpt lat="44.230670" lon="3.229860">
        <ele>418.68</ele>
      </trkpt>
      <trkpt lat="44.230320" lon="3.229900">
        <ele>417.83</ele>
      </trkpt>
      <trkpt lat="44.229850" lon="3.229930">
        <ele>417.64</ele>
      </trkpt>
      <trkpt lat="44.228920" lon="3.229810">
        <ele>417.89</ele>
      </trkpt>
      <trkpt lat="44.228720" lon="3.229750">
        <ele>417.97</ele>
      </trkpt>
      <trkpt lat="44.227660" lon="3.229210">
        <ele>418.48</ele>
      </trkpt>
      <trkpt lat="44.226740" lon="3.229220">
        <ele>419.15</ele>
      </trkpt>
      <trkpt lat="44.226310" lon="3.229170">
        <ele>420.484985</ele>
      </trkpt>
      <trkpt lat="44.225750" lon="3.228980">
        <ele>421.40</ele>
      </trkpt>
      <trkpt lat="44.225210" lon="3.228640">
        <ele>421.84</ele>
      </trkpt>
      <trkpt lat="44.224850" lon="3.228160">
        <ele>420.81</ele>
      </trkpt>
      <trkpt lat="44.224550" lon="3.227950">
        <ele>418.23</ele>
      </trkpt>
      <trkpt lat="44.224280" lon="3.227630">
        <ele>417.19</ele>
      </trkpt>
      <trkpt lat="44.224040" lon="3.227160">
        <ele>417.07</ele>
      </trkpt>
      <trkpt lat="44.223750" lon="3.226170">
        <ele>418.014801</ele>
      </trkpt>
      <trkpt lat="44.223490" lon="3.225510">
        <ele>418.49</ele>
      </trkpt>
      <trkpt lat="44.222620" lon="3.224040">
        <ele>417.82</ele>
      </trkpt>
      <trkpt lat="44.222360" lon="3.223500">
        <ele>417.704651</ele>
      </trkpt>
      <trkpt lat="44.222190" lon="3.223270">
        <ele>418.61</ele>
      </trkpt>
      <trkpt lat="44.221590" lon="3.222840">
        <ele>416.34</ele>
      </trkpt>
      <trkpt lat="44.220700" lon="3.222430">
        <ele>422.53</ele>
      </trkpt>
      <trkpt lat="44.220180" lon="3.222030">
        <ele>422.53</ele>
      </trkpt>
      <trkpt lat="44.220030" lon="3.222010">
        <ele>422.53</ele>
      </trkpt>
      <trkpt lat="44.219880" lon="3.222060">
        <ele>422.53</ele>
      </trkpt>
      <trkpt lat="44.219570" lon="3.222240">
        <ele>420.80</ele>
      </trkpt>
      <trkpt lat="44.219110" lon="3.222360">
        <ele>420.02</ele>
      </trkpt>
      <trkpt lat="44.218860" lon="3.222490">
        <ele>420.43</ele>
      </trkpt>
      <trkpt lat="44.218290" lon="3.222580">
        <ele>420.030487</ele>
      </trkpt>
      <trkpt lat="44.217660" lon="3.222860">
        <ele>422.74</ele>
      </trkpt>
      <trkpt lat="44.217060" lon="3.223270">
        <ele>422.74</ele>
      </trkpt>
      <trkpt lat="44.216740" lon="3.223370">
        <ele>422.74</ele>
      </trkpt>
      <trkpt lat="44.216440" lon="3.223380">
        <ele>423.25</ele>
      </trkpt>
      <trkpt lat="44.214640" lon="3.224260">
        <ele>423.25</ele>
      </trkpt>
      <trkpt lat="44.214170" lon="3.224320">
        <ele>423.25</ele>
      </trkpt>
      <trkpt lat="44.213620" lon="3.224240">
        <ele>423.25</ele>
      </trkpt>
      <trkpt lat="44.213110" lon="3.224230">
        <ele>423.25</ele>
      </trkpt>
      <trkpt lat="44.212460" lon="3.223840">
        <ele>423.25</ele>
      </trkpt>
      <trkpt lat="44.211990" lon="3.223420">
        <ele>423.470581</ele>
      </trkpt>
      <trkpt lat="44.211430" lon="3.223100">
        <ele>423.25</ele>
      </trkpt>
      <trkpt lat="44.211130" lon="3.222850">
        <ele>422.02</ele>
      </trkpt>
      <trkpt lat="44.210570" lon="3.222520">
        <ele>421.66</ele>
      </trkpt>
      <trkpt lat="44.210130" lon="3.222160">
        <ele>420.42</ele>
      </trkpt>
      <trkpt lat="44.209680" lon="3.221890">
        <ele>419.42</ele>
      </trkpt>
      <trkpt lat="44.208680" lon="3.220930">
        <ele>418.39</ele>
      </trkpt>
      <trkpt lat="44.208680" lon="3.220930">
        <ele>417.39</ele>
      </trkpt>
      <trkpt lat="44.208060" lon="3.220660">
        <ele>417.63</ele>
      </trkpt>
      <trkpt lat="44.207790" lon="3.220210">
        <ele>416.97</ele>
      </trkpt>
      <trkpt lat="44.207680" lon="3.220110">
        <ele>416.72</ele>
      </trkpt>
      <trkpt lat="44.206560" lon="3.219540">
        <ele>412.49</ele>
      </trkpt>
      <trkpt lat="44.206180" lon="3.219130">
        <ele>412.49</ele>
      </trkpt>
      <trkpt lat="44.205990" lon="3.219080">
        <ele>412.49</ele>
      </trkpt>
      <trkpt lat="44.205660" lon="3.219130">
        <ele>412.49</ele>
      </trkpt>
      <trkpt lat="44.205210" lon="3.218860">
        <ele>412.49</ele>
      </trkpt>
      <trkpt lat="44.204860" lon="3.218370">
        <ele>412.49</ele>
      </trkpt>
      <trkpt lat="44.204160" lon="3.217720">
        <ele>412.49</ele>
      </trkpt>
      <trkpt lat="44.203570" lon="3.216840">
        <ele>412.49</ele>
      </trkpt>
      <trkpt lat="44.203260" lon="3.216170">
        <ele>412.49</ele>
      </trkpt>
      <trkpt lat="44.202950" lon="3.215660">
        <ele>412.49</ele>
      </trkpt>
      <trkpt lat="44.202300" lon="3.214920">
        <ele>413.05</ele>
      </trkpt>
      <trkpt lat="44.201910" lon="3.214590">
        <ele>411.71</ele>
      </trkpt>
      <trkpt lat="44.201150" lon="3.214190">
        <ele>410.77</ele>
      </trkpt>
      <trkpt lat="44.199730" lon="3.214000">
        <ele>409.99</ele>
      </trkpt>
      <trkpt lat="44.199190" lon="3.213820">
        <ele>408.91</ele>
      </trkpt>
      <trkpt lat="44.198420" lon="3.213360">
        <ele>408.00</ele>
      </trkpt>
      <trkpt lat="44.197830" lon="3.212930">
        <ele>408.739227</ele>
      </trkpt>
      <trkpt lat="44.196860" lon="3.212020">
        <ele>408.77</ele>
      </trkpt>
      <trkpt lat="44.196520" lon="3.211800">
        <ele>406.703705</ele>
      </trkpt>
      <trkpt lat="44.196020" lon="3.211610">
        <ele>399.589508</ele>
      </trkpt>
      <trkpt lat="44.195330" lon="3.210740">
        <ele>398.94</ele>
      </trkpt>
      <trkpt lat="44.194830" lon="3.209320">
        <ele>398.48</ele>
      </trkpt>
      <trkpt lat="44.194670" lon="3.208320">
        <ele>398.131622</ele>
      </trkpt>
      <trkpt lat="44.194560" lon="3.208110">
        <ele>395.74</ele>
      </trkpt>
      <trkpt lat="44.194420" lon="3.208030">
        <ele>395.74</ele>
      </trkpt>
      <trkpt lat="44.194270" lon="3.208020">
        <ele>395.74</ele>
      </trkpt>
      <trkpt lat="44.193324" lon="3.208512">
        <ele>403.00</ele>
      </trkpt>
      <trkpt lat="44.193210" lon="3.208430">
        <ele>403.00</ele>
      </trkpt>
      <trkpt lat="44.192920" lon="3.207840">
        <ele>403.00</ele>
      </trkpt>
      <trkpt lat="44.192380" lon="3.207190">
        <ele>403.00</ele>
      </trkpt>
      <trkpt lat="44.191830" lon="3.206150">
        <ele>402.32</ele>
      </trkpt>
      <trkpt lat="44.191750" lon="3.206090">
        <ele>402.408875</ele>
      </trkpt>
      <trkpt lat="44.191680" lon="3.206070">
        <ele>402.575806</ele>
      </trkpt>
      <trkpt lat="44.190920" lon="3.206300">
        <ele>402.432892</ele>
      </trkpt>
      <trkpt lat="44.190810" lon="3.206510">
        <ele>401.222961</ele>
      </trkpt>
      <trkpt lat="44.190770" lon="3.207010">
        <ele>401.744598</ele>
      </trkpt>
      <trkpt lat="44.190780" lon="3.206900">
        <ele>401.71</ele>
        <time>2010-01-01T14:57:02Z</time>
      </trkpt>
      <trkpt lat="44.190690" lon="3.207390">
        <ele>401.71</ele>
        <time>2010-01-01T14:57:16Z</time>
      </trkpt>
      <trkpt lat="44.190230" lon="3.212160">
        <ele>408.225311</ele>
        <time>2010-01-01T14:59:35Z</time>
      </trkpt>
      <trkpt lat="44.190120" lon="3.213620">
        <ele>409.05</ele>
        <time>2010-01-01T15:00:17Z</time>
      </trkpt>
      <trkpt lat="44.190130" lon="3.214300">
        <ele>409.23</ele>
        <time>2010-01-01T15:00:36Z</time>
      </trkpt>
      <trkpt lat="44.190170" lon="3.214640">
        <ele>410.18</ele>
        <time>2010-01-01T15:00:46Z</time>
      </trkpt>
      <trkpt lat="44.190380" lon="3.215390">
        <ele>414.47</ele>
        <time>2010-01-01T15:01:09Z</time>
      </trkpt>
      <trkpt lat="44.191430" lon="3.217840">
        <ele>423.73</ele>
        <time>2010-01-01T15:02:31Z</time>
      </trkpt>
      <trkpt lat="44.191520" lon="3.218130">
        <ele>426.14</ele>
        <time>2010-01-01T15:02:40Z</time>
      </trkpt>
      <trkpt lat="44.191510" lon="3.222120">
        <ele>426.38</ele>
        <time>2010-01-01T15:04:35Z</time>
      </trkpt>
      <trkpt lat="44.191570" lon="3.222330">
        <ele>426.87</ele>
        <time>2010-01-01T15:04:41Z</time>
      </trkpt>
      <trkpt lat="44.191860" lon="3.222490">
        <ele>435.11</ele>
        <time>2010-01-01T15:04:54Z</time>
      </trkpt>
      <trkpt lat="44.192060" lon="3.222590">
        <ele>436.99</ele>
        <time>2010-01-01T15:05:02Z</time>
      </trkpt>
      <trkpt lat="44.192120" lon="3.222810">
        <ele>439.12</ele>
        <time>2010-01-01T15:05:09Z</time>
      </trkpt>
      <trkpt lat="44.191990" lon="3.223230">
        <ele>440.76</ele>
        <time>2010-01-01T15:05:22Z</time>
      </trkpt>
      <trkpt lat="44.191940" lon="3.224340">
        <ele>442.87</ele>
        <time>2010-01-01T15:05:54Z</time>
      </trkpt>
      <trkpt lat="44.192010" lon="3.224930">
        <ele>444.917236</ele>
        <time>2010-01-01T15:06:11Z</time>
      </trkpt>
      <trkpt lat="44.192190" lon="3.225330">
        <ele>450.738434</ele>
        <time>2010-01-01T15:06:25Z</time>
      </trkpt>
      <trkpt lat="44.192250" lon="3.225690">
        <ele>450.774719</ele>
        <time>2010-01-01T15:06:35Z</time>
      </trkpt>
      <trkpt lat="44.192150" lon="3.225910">
        <ele>452.242920</ele>
        <time>2010-01-01T15:06:43Z</time>
      </trkpt>
      <trkpt lat="44.191990" lon="3.226060">
        <ele>452.274872</ele>
        <time>2010-01-01T15:06:51Z</time>
      </trkpt>
      <trkpt lat="44.191660" lon="3.226520">
        <ele>453.95</ele>
        <time>2010-01-01T15:07:09Z</time>
      </trkpt>
      <trkpt lat="44.191430" lon="3.227140">
        <ele>458.18</ele>
        <time>2010-01-01T15:07:29Z</time>
      </trkpt>
      <trkpt lat="44.191210" lon="3.228050">
        <ele>459.083374</ele>
        <time>2010-01-01T15:07:57Z</time>
      </trkpt>
      <trkpt lat="44.191170" lon="3.228480">
        <ele>459.831329</ele>
        <time>2010-01-01T15:08:09Z</time>
      </trkpt>
      <trkpt lat="44.191230" lon="3.228980">
        <ele>468.067505</ele>
        <time>2010-01-01T15:08:24Z</time>
      </trkpt>
      <trkpt lat="44.191100" lon="3.230380">
        <ele>473.498535</ele>
        <time>2010-01-01T15:09:04Z</time>
      </trkpt>
      <trkpt lat="44.191100" lon="3.231030">
        <ele>474.82</ele>
        <time>2010-01-01T15:09:23Z</time>
      </trkpt>
      <trkpt lat="44.191060" lon="3.231330">
        <ele>475.912506</ele>
        <time>2010-01-01T15:09:32Z</time>
      </trkpt>
      <trkpt lat="44.191060" lon="3.231490">
        <ele>475.788513</ele>
        <time>2010-01-01T15:09:36Z</time>
      </trkpt>
      <trkpt lat="44.191220" lon="3.232280">
        <ele>486.895233</ele>
        <time>2010-01-01T15:10:00Z</time>
      </trkpt>
      <trkpt lat="44.191240" lon="3.232810">
        <ele>488.423370</ele>
        <time>2010-01-01T15:10:15Z</time>
      </trkpt>
      <trkpt lat="44.191210" lon="3.233910">
        <ele>489.47</ele>
        <time>2010-01-01T15:10:47Z</time>
      </trkpt>
      <trkpt lat="44.191410" lon="3.235620">
        <ele>495.691895</ele>
        <time>2010-01-01T15:11:37Z</time>
      </trkpt>
      <trkpt lat="44.191620" lon="3.236190">
        <ele>501.58</ele>
        <time>2010-01-01T15:11:55Z</time>
      </trkpt>
      <trkpt lat="44.191610" lon="3.236730">
        <ele>502.647827</ele>
        <time>2010-01-01T15:12:10Z</time>
      </trkpt>
      <trkpt lat="44.191960" lon="3.237930">
        <ele>504.98</ele>
        <time>2010-01-01T15:12:48Z</time>
      </trkpt>
      <trkpt lat="44.192100" lon="3.238610">
        <ele>505.807922</ele>
        <time>2010-01-01T15:13:08Z</time>
      </trkpt>
      <trkpt lat="44.192470" lon="3.239490">
        <ele>506.47</ele>
        <time>2010-01-01T15:13:37Z</time>
      </trkpt>
      <trkpt lat="44.193060" lon="3.240170">
        <ele>511.27</ele>
        <time>2010-01-01T15:14:08Z</time>
      </trkpt>
      <trkpt lat="44.193590" lon="3.241160">
        <ele>515.61</ele>
        <time>2010-01-01T15:14:43Z</time>
      </trkpt>
      <trkpt lat="44.193940" lon="3.241410">
        <ele>523.800476</ele>
        <time>2010-01-01T15:14:59Z</time>
      </trkpt>
      <trkpt lat="44.194640" lon="3.242090">
        <ele>534.979736</ele>
        <time>2010-01-01T15:15:33Z</time>
      </trkpt>
      <trkpt lat="44.194780" lon="3.242290">
        <ele>537.487976</ele>
        <time>2010-01-01T15:15:41Z</time>
      </trkpt>
      <trkpt lat="44.195060" lon="3.242940">
        <ele>539.39</ele>
        <time>2010-01-01T15:16:03Z</time>
      </trkpt>
      <trkpt lat="44.195320" lon="3.244420">
        <ele>539.39</ele>
        <time>2010-01-01T15:16:47Z</time>
      </trkpt>
      <trkpt lat="44.195490" lon="3.244620">
        <ele>542.13</ele>
        <time>2010-01-01T15:16:56Z</time>
      </trkpt>
      <trkpt lat="44.195940" lon="3.244930">
        <ele>546.962585</ele>
        <time>2010-01-01T15:17:16Z</time>
      </trkpt>
      <trkpt lat="44.196100" lon="3.245200">
        <ele>546.71</ele>
        <time>2010-01-01T15:17:26Z</time>
      </trkpt>
      <trkpt lat="44.196170" lon="3.246260">
        <ele>547.33</ele>
        <time>2010-01-01T15:17:56Z</time>
      </trkpt>
      <trkpt lat="44.196200" lon="3.247530">
        <ele>530.22</ele>
        <time>2010-01-01T15:18:33Z</time>
      </trkpt>
      <trkpt lat="44.196250" lon="3.247750">
        <ele>532.52</ele>
        <time>2010-01-01T15:18:39Z</time>
      </trkpt>
      <trkpt lat="44.196380" lon="3.247880">
        <ele>533.36</ele>
        <time>2010-01-01T15:18:46Z</time>
      </trkpt>
      <trkpt lat="44.196960" lon="3.247810">
        <ele>549.205139</ele>
        <time>2010-01-01T15:19:09Z</time>
      </trkpt>
      <trkpt lat="44.197110" lon="3.247830">
        <ele>549.508118</ele>
        <time>2010-01-01T15:19:15Z</time>
      </trkpt>
      <trkpt lat="44.197250" lon="3.247920">
        <ele>548.58</ele>
        <time>2010-01-01T15:19:21Z</time>
      </trkpt>
      <trkpt lat="44.197390" lon="3.248150">
        <ele>548.65</ele>
        <time>2010-01-01T15:19:30Z</time>
      </trkpt>
      <trkpt lat="44.197600" lon="3.248890">
        <ele>547.596924</ele>
        <time>2010-01-01T15:19:53Z</time>
      </trkpt>
      <trkpt lat="44.197930" lon="3.249320">
        <ele>547.989746</ele>
        <time>2010-01-01T15:20:11Z</time>
      </trkpt>
      <trkpt lat="44.198070" lon="3.249600">
        <ele>545.564331</ele>
        <time>2010-01-01T15:20:21Z</time>
      </trkpt>
      <trkpt lat="44.198270" lon="3.250420">
        <ele>545.991394</ele>
        <time>2010-01-01T15:20:46Z</time>
      </trkpt>
      <trkpt lat="44.198220" lon="3.251210">
        <ele>539.359192</ele>
        <time>2010-01-01T15:21:08Z</time>
      </trkpt>
      <trkpt lat="44.198260" lon="3.251470">
        <ele>539.411316</ele>
        <time>2010-01-01T15:21:16Z</time>
      </trkpt>
      <trkpt lat="44.198300" lon="3.251580">
        <ele>538.58</ele>
        <time>2010-01-01T15:21:19Z</time>
      </trkpt>
      <trkpt lat="44.198720" lon="3.252170">
        <ele>538.58</ele>
        <time>2010-01-01T15:21:43Z</time>
      </trkpt>
      <trkpt lat="44.198980" lon="3.252660">
        <ele>538.58</ele>
        <time>2010-01-01T15:22:01Z</time>
      </trkpt>
      <trkpt lat="44.198990" lon="3.252960">
        <ele>538.58</ele>
        <time>2010-01-01T15:22:09Z</time>
      </trkpt>
      <trkpt lat="44.198940" lon="3.253340">
        <ele>538.58</ele>
        <time>2010-01-01T15:22:21Z</time>
      </trkpt>
      <trkpt lat="44.199030" lon="3.253940">
        <ele>537.26</ele>
        <time>2010-01-01T15:22:38Z</time>
      </trkpt>
      <trkpt lat="44.199010" lon="3.254460">
        <ele>536.88</ele>
        <time>2010-01-01T15:22:53Z</time>
      </trkpt>
      <trkpt lat="44.199070" lon="3.254940">
        <ele>535.18</ele>
        <time>2010-01-01T15:23:07Z</time>
      </trkpt>
      <trkpt lat="44.199170" lon="3.255160">
        <ele>534.08</ele>
        <time>2010-01-01T15:23:15Z</time>
      </trkpt>
      <trkpt lat="44.199270" lon="3.255220">
        <ele>533.01</ele>
        <time>2010-01-01T15:23:19Z</time>
      </trkpt>
      <trkpt lat="44.199750" lon="3.255270">
        <ele>533.48</ele>
        <time>2010-01-01T15:23:38Z</time>
      </trkpt>
      <trkpt lat="44.199900" lon="3.255440">
        <ele>532.54</ele>
        <time>2010-01-01T15:23:46Z</time>
      </trkpt>
      <trkpt lat="44.199910" lon="3.255530">
        <ele>531.47</ele>
        <time>2010-01-01T15:23:49Z</time>
      </trkpt>
      <trkpt lat="44.199500" lon="3.257640">
        <ele>523.02</ele>
        <time>2010-01-01T15:24:51Z</time>
      </trkpt>
      <trkpt lat="44.199520" lon="3.257870">
        <ele>523.73</ele>
        <time>2010-01-01T15:24:58Z</time>
      </trkpt>
      <trkpt lat="44.199690" lon="3.258750">
        <ele>523.73</ele>
        <time>2010-01-01T15:25:24Z</time>
      </trkpt>
      <trkpt lat="44.199760" lon="3.258910">
        <ele>523.73</ele>
        <time>2010-01-01T15:25:29Z</time>
      </trkpt>
      <trkpt lat="44.200190" lon="3.259430">
        <ele>527.36</ele>
        <time>2010-01-01T15:25:52Z</time>
      </trkpt>
      <trkpt lat="44.200360" lon="3.259740">
        <ele>527.653564</ele>
        <time>2010-01-01T15:26:03Z</time>
      </trkpt>
      <trkpt lat="44.200420" lon="3.259970">
        <ele>527.24</ele>
        <time>2010-01-01T15:26:10Z</time>
      </trkpt>
      <trkpt lat="44.200490" lon="3.260760">
        <ele>524.09</ele>
        <time>2010-01-01T15:26:33Z</time>
      </trkpt>
      <trkpt lat="44.200600" lon="3.260990">
        <ele>524.09</ele>
        <time>2010-01-01T15:26:41Z</time>
      </trkpt>
      <trkpt lat="44.200870" lon="3.261330">
        <ele>524.09</ele>
        <time>2010-01-01T15:26:56Z</time>
      </trkpt>
      <trkpt lat="44.200930" lon="3.261480">
        <ele>524.43</ele>
        <time>2010-01-01T15:27:01Z</time>
      </trkpt>
      <trkpt lat="44.200940" lon="3.261780">
        <ele>525.49</ele>
        <time>2010-01-01T15:27:09Z</time>
      </trkpt>
      <trkpt lat="44.200780" lon="3.262500">
        <ele>517.01</ele>
        <time>2010-01-01T15:27:31Z</time>
      </trkpt>
      <trkpt lat="44.200770" lon="3.262850">
        <ele>516.93</ele>
        <time>2010-01-01T15:27:41Z</time>
      </trkpt>
      <trkpt lat="44.201390" lon="3.264410">
        <ele>516.433167</ele>
        <time>2010-01-01T15:28:32Z</time>
      </trkpt>
      <trkpt lat="44.201400" lon="3.264580">
        <ele>510.07</ele>
        <time>2010-01-01T15:28:37Z</time>
      </trkpt>
      <trkpt lat="44.201330" lon="3.265180">
        <ele>503.31</ele>
        <time>2010-01-01T15:28:55Z</time>
      </trkpt>
      <trkpt lat="44.201350" lon="3.265360">
        <ele>500.67</ele>
        <time>2010-01-01T15:29:00Z</time>
      </trkpt>
      <trkpt lat="44.201460" lon="3.265510">
        <ele>500.67</ele>
        <time>2010-01-01T15:29:06Z</time>
      </trkpt>
      <trkpt lat="44.201600" lon="3.265570">
        <ele>500.83</ele>
        <time>2010-01-01T15:29:12Z</time>
      </trkpt>
      <trkpt lat="44.202050" lon="3.265450">
        <ele>509.22</ele>
        <time>2010-01-01T15:29:30Z</time>
      </trkpt>
      <trkpt lat="44.202330" lon="3.265490">
        <ele>509.22</ele>
        <time>2010-01-01T15:29:41Z</time>
      </trkpt>
      <trkpt lat="44.202480" lon="3.265590">
        <ele>509.79</ele>
        <time>2010-01-01T15:29:48Z</time>
      </trkpt>
      <trkpt lat="44.202800" lon="3.265950">
        <ele>505.22</ele>
        <time>2010-01-01T15:30:04Z</time>
      </trkpt>
      <trkpt lat="44.202950" lon="3.266220">
        <ele>508.29</ele>
        <time>2010-01-01T15:30:14Z</time>
      </trkpt>
      <trkpt lat="44.202950" lon="3.266440">
        <ele>505.41</ele>
        <time>2010-01-01T15:30:21Z</time>
      </trkpt>
      <trkpt lat="44.202890" lon="3.266550">
        <ele>502.77</ele>
        <time>2010-01-01T15:30:25Z</time>
      </trkpt>
      <trkpt lat="44.202500" lon="3.266750">
        <ele>495.64</ele>
        <time>2010-01-01T15:30:41Z</time>
      </trkpt>
      <trkpt lat="44.202398" lon="3.266846">
        <ele>495.64</ele>
        <time>2010-01-01T15:30:50Z</time>
      </trkpt>
      <trkpt lat="44.202370" lon="3.266980">
        <ele>495.64</ele>
        <time>2010-01-01T15:31:25Z</time>
      </trkpt>
      <trkpt lat="44.202220" lon="3.268180">
        <ele>495.568237</ele>
        <time>2010-01-01T15:31:59Z</time>
      </trkpt>
      <trkpt lat="44.201950" lon="3.269330">
        <ele>490.91</ele>
        <time>2010-01-01T15:32:25Z</time>
      </trkpt>
      <trkpt lat="44.201800" lon="3.270190">
        <ele>490.91</ele>
        <time>2010-01-01T15:32:43Z</time>
      </trkpt>
      <trkpt lat="44.201760" lon="3.270820">
        <ele>490.91</ele>
        <time>2010-01-01T15:33:01Z</time>
      </trkpt>
      <trkpt lat="44.201650" lon="3.271420">
        <ele>489.10</ele>
        <time>2010-01-01T15:33:21Z</time>
      </trkpt>
      <trkpt lat="44.201590" lon="3.272110">
        <ele>488.364075</ele>
        <time>2010-01-01T15:33:37Z</time>
      </trkpt>
      <trkpt lat="44.201400" lon="3.272610">
        <ele>487.751343</ele>
        <time>2010-01-01T15:33:56Z</time>
      </trkpt>
      <trkpt lat="44.201110" lon="3.273150">
        <ele>486.46</ele>
        <time>2010-01-01T15:34:12Z</time>
      </trkpt>
      <trkpt lat="44.200930" lon="3.273660">
        <ele>486.46</ele>
        <time>2010-01-01T15:34:30Z</time>
      </trkpt>
      <trkpt lat="44.200600" lon="3.274050">
        <ele>485.09</ele>
        <time>2010-01-01T15:34:34Z</time>
      </trkpt>
      <trkpt lat="44.200550" lon="3.274190">
        <ele>485.09</ele>
        <time>2010-01-01T15:35:09Z</time>
      </trkpt>
      <trkpt lat="44.200540" lon="3.275390">
        <ele>485.09</ele>
        <time>2010-01-01T15:35:29Z</time>
      </trkpt>
      <trkpt lat="44.200690" lon="3.276060">
        <ele>485.09</ele>
        <time>2010-01-01T15:35:41Z</time>
      </trkpt>
      <trkpt lat="44.200640" lon="3.276470">
        <ele>485.09</ele>
        <time>2010-01-01T15:35:55Z</time>
      </trkpt>
      <trkpt lat="44.200690" lon="3.276970">
        <ele>485.44</ele>
        <time>2010-01-01T15:36:05Z</time>
      </trkpt>
      <trkpt lat="44.200830" lon="3.277250">
        <ele>489.00</ele>
        <time>2010-01-01T15:36:31Z</time>
      </trkpt>
      <trkpt lat="44.201360" lon="3.277750">
        <ele>493.80</ele>
        <time>2010-01-01T15:36:42Z</time>
      </trkpt>
      <trkpt lat="44.201550" lon="3.278060">
        <ele>494.874878</ele>
        <time>2010-01-01T15:36:58Z</time>
      </trkpt>
      <trkpt lat="44.201710" lon="3.278540">
        <ele>493.87</ele>
        <time>2010-01-01T15:37:06Z</time>
      </trkpt>
      <trkpt lat="44.201840" lon="3.278790">
        <ele>493.87</ele>
        <time>2010-01-01T15:37:14Z</time>
      </trkpt>
      <trkpt lat="44.201890" lon="3.279050">
        <ele>493.87</ele>
        <time>2010-01-01T15:37:57Z</time>
      </trkpt>
      <trkpt lat="44.201340" lon="3.280330">
        <ele>493.87</ele>
        <time>2010-01-01T15:38:11Z</time>
      </trkpt>
      <trkpt lat="44.201200" lon="3.280760">
        <ele>493.87</ele>
        <time>2010-01-01T15:38:36Z</time>
      </trkpt>
      <trkpt lat="44.201160" lon="3.281630">
        <ele>494.44</ele>
        <time>2010-01-01T15:39:15Z</time>
      </trkpt>
      <trkpt lat="44.200880" lon="3.282930">
        <ele>494.44</ele>
        <time>2010-01-01T15:39:36Z</time>
      </trkpt>
      <trkpt lat="44.200580" lon="3.283540">
        <ele>495.93</ele>
        <time>2010-01-01T15:40:04Z</time>
      </trkpt>
      <trkpt lat="44.200110" lon="3.284280">
        <ele>496.30</ele>
        <time>2010-01-01T15:40:14Z</time>
      </trkpt>
      <trkpt lat="44.199990" lon="3.284580">
        <ele>497.74</ele>
        <time>2010-01-01T15:40:26Z</time>
      </trkpt>
      <trkpt lat="44.200030" lon="3.284990">
        <ele>498.47</ele>
        <time>2010-01-01T15:40:52Z</time>
      </trkpt>
      <trkpt lat="44.200280" lon="3.285820">
        <ele>501.55</ele>
        <time>2010-01-01T15:41:21Z</time>
      </trkpt>
      <trkpt lat="44.200350" lon="3.286850">
        <ele>502.48</ele>
        <time>2010-01-01T15:42:01Z</time>
      </trkpt>
      <trkpt lat="44.200280" lon="3.288210">
        <ele>502.18</ele>
        <time>2010-01-01T15:42:07Z</time>
      </trkpt>
      <trkpt lat="44.200350" lon="3.288430">
        <ele>502.67</ele>
        <time>2010-01-01T15:42:19Z</time>
      </trkpt>
      <trkpt lat="44.200560" lon="3.288720">
        <ele>504.802795</ele>
        <time>2010-01-01T15:42:50Z</time>
      </trkpt>
      <trkpt lat="44.201200" lon="3.289320">
        <ele>505.33</ele>
        <time>2010-01-01T15:43:02Z</time>
      </trkpt>
      <trkpt lat="44.201480" lon="3.289500">
        <ele>505.33</ele>
        <time>2010-01-01T15:43:10Z</time>
      </trkpt>
      <trkpt lat="44.201660" lon="3.289490">
        <ele>506.33</ele>
        <time>2010-01-01T15:43:22Z</time>
      </trkpt>
      <trkpt lat="44.201930" lon="3.289320">
        <ele>507.02</ele>
        <time>2010-01-01T15:43:52Z</time>
      </trkpt>
      <trkpt lat="44.202680" lon="3.289250">
        <ele>508.76</ele>
        <time>2010-01-01T15:44:02Z</time>
      </trkpt>
      <trkpt lat="44.202930" lon="3.289360">
        <ele>508.76</ele>
        <time>2010-01-01T15:44:38Z</time>
      </trkpt>
      <trkpt lat="44.203740" lon="3.289930">
        <ele>508.76</ele>
        <time>2010-01-01T15:44:57Z</time>
      </trkpt>
      <trkpt lat="44.204180" lon="3.290150">
        <ele>505.297638</ele>
        <time>2010-01-01T15:45:10Z</time>
      </trkpt>
      <trkpt lat="44.204510" lon="3.290200">
        <ele>506.42</ele>
        <time>2010-01-01T15:45:24Z</time>
      </trkpt>
      <trkpt lat="44.204850" lon="3.290170">
        <ele>507.42</ele>
        <time>2010-01-01T15:45:54Z</time>
      </trkpt>
      <trkpt lat="44.205580" lon="3.290000">
        <ele>510.95</ele>
        <time>2010-01-01T15:46:03Z</time>
      </trkpt>
      <trkpt lat="44.205800" lon="3.290080">
        <ele>510.95</ele>
        <time>2010-01-01T15:47:54Z</time>
      </trkpt>
      <trkpt lat="44.206283" lon="3.290751">
        <ele>510.95</ele>
        <time>2010-01-01T15:48:01Z</time>
      </trkpt>
      <trkpt lat="44.206378" lon="3.290985">
        <ele>510.70</ele>
        <time>2010-01-01T15:48:12Z</time>
      </trkpt>
      <trkpt lat="44.206400" lon="3.291396">
        <ele>511.87</ele>
        <time>2010-01-01T15:49:13Z</time>
      </trkpt>
      <trkpt lat="44.206387" lon="3.291695">
        <ele>511.87</ele>
        <time>2010-01-01T15:50:04Z</time>
      </trkpt>
      <trkpt lat="44.206532" lon="3.292392">
        <ele>511.87</ele>
        <time>2010-01-01T15:50:54Z</time>
      </trkpt>
      <trkpt lat="44.206684" lon="3.292646">
        <ele>512.593079</ele>
        <time>2010-01-01T15:51:02Z</time>
      </trkpt>
      <trkpt lat="44.207200" lon="3.293180">
        <ele>513.01</ele>
        <time>2010-01-01T15:51:27Z</time>
      </trkpt>
      <trkpt lat="44.207310" lon="3.293360">
        <ele>514.44</ele>
        <time>2010-01-01T15:51:47Z</time>
      </trkpt>
      <trkpt lat="44.207440" lon="3.293700">
        <ele>514.95</ele>
        <time>2010-01-01T15:52:16Z</time>
      </trkpt>
      <trkpt lat="44.207510" lon="3.294170">
        <ele>513.19</ele>
        <time>2010-01-01T15:52:45Z</time>
      </trkpt>
      <trkpt lat="44.207492" lon="3.294633">
        <ele>513.82</ele>
        <time>2010-01-01T15:53:12Z</time>
      </trkpt>
      <trkpt lat="44.207300" lon="3.295760">
        <ele>513.82</ele>
        <time>2010-01-01T15:53:49Z</time>
      </trkpt>
      <trkpt lat="44.207060" lon="3.297520">
        <ele>513.82</ele>
        <time>2010-01-01T15:54:38Z</time>
      </trkpt>
      <trkpt lat="44.206910" lon="3.299250">
        <ele>513.82</ele>
        <time>2010-01-01T15:55:23Z</time>
      </trkpt>
      <trkpt lat="44.206910" lon="3.299530">
        <ele>515.82</ele>
        <time>2010-01-01T15:55:33Z</time>
      </trkpt>
      <trkpt lat="44.207110" lon="3.300350">
        <ele>519.92</ele>
        <time>2010-01-01T15:55:51Z</time>
      </trkpt>
      <trkpt lat="44.207130" lon="3.301060">
        <ele>521.46</ele>
        <time>2010-01-01T15:56:06Z</time>
      </trkpt>
      <trkpt lat="44.206890" lon="3.302010">
        <ele>522.46</ele>
        <time>2010-01-01T15:56:27Z</time>
      </trkpt>
      <trkpt lat="44.206850" lon="3.303020">
        <ele>527.82</ele>
        <time>2010-01-01T15:57:26Z</time>
      </trkpt>
      <trkpt lat="44.206660" lon="3.303910">
        <ele>529.08</ele>
        <time>2010-01-01T15:57:41Z</time>
      </trkpt>
      <trkpt lat="44.206520" lon="3.305190">
        <ele>535.321228</ele>
        <time>2010-01-01T15:58:17Z</time>
      </trkpt>
      <trkpt lat="44.206140" lon="3.306830">
        <ele>533.570129</ele>
        <time>2010-01-01T15:58:41Z</time>
      </trkpt>
      <trkpt lat="44.205920" lon="3.308340">
        <ele>545.296326</ele>
        <time>2010-01-01T15:59:20Z</time>
      </trkpt>
      <trkpt lat="44.205790" lon="3.308650">
        <ele>545.471191</ele>
        <time>2010-01-01T15:59:59Z</time>
      </trkpt>
      <trkpt lat="44.205510" lon="3.309130">
        <ele>545.070007</ele>
        <time>2010-01-01T16:00:17Z</time>
      </trkpt>
      <trkpt lat="44.205330" lon="3.309590">
        <ele>546.161377</ele>
        <time>2010-01-01T16:00:51Z</time>
      </trkpt>
      <trkpt lat="44.205130" lon="3.310290">
        <ele>547.381531</ele>
        <time>2010-01-01T16:00:57Z</time>
      </trkpt>
      <trkpt lat="44.204670" lon="3.312230">
        <ele>562.60</ele>
        <time>2010-01-01T16:01:50Z</time>
      </trkpt>
      <trkpt lat="44.204470" lon="3.312680">
        <ele>563.476746</ele>
        <time>2010-01-01T16:02:19Z</time>
      </trkpt>
      <trkpt lat="44.203900" lon="3.313640">
        <ele>568.400024</ele>
        <time>2010-01-01T16:03:11Z</time>
      </trkpt>
      <trkpt lat="44.203440" lon="3.314170">
        <ele>571.214294</ele>
        <time>2010-01-01T16:03:24Z</time>
      </trkpt>
      <trkpt lat="44.202620" lon="3.314940">
        <ele>572.70</ele>
        <time>2010-01-01T16:03:42Z</time>
      </trkpt>
      <trkpt lat="44.201990" lon="3.315980">
        <ele>574.553467</ele>
        <time>2010-01-01T16:04:17Z</time>
      </trkpt>
      <trkpt lat="44.201770" lon="3.316500">
        <ele>581.83</ele>
        <time>2010-01-01T16:05:09Z</time>
      </trkpt>
      <trkpt lat="44.201270" lon="3.317480">
        <ele>581.83</ele>
        <time>2010-01-01T16:05:28Z</time>
      </trkpt>
      <trkpt lat="44.201220" lon="3.317670">
        <ele>581.606995</ele>
        <time>2010-01-01T16:06:13Z</time>
      </trkpt>
      <trkpt lat="44.201250" lon="3.319510">
        <ele>588.508789</ele>
        <time>2010-01-01T16:06:26Z</time>
      </trkpt>
      <trkpt lat="44.201380" lon="3.320500">
        <ele>590.26</ele>
        <time>2010-01-01T16:06:50Z</time>
      </trkpt>
      <trkpt lat="44.201730" lon="3.322250">
        <ele>591.49</ele>
        <time>2010-01-01T16:07:00Z</time>
      </trkpt>
      <trkpt lat="44.201860" lon="3.322650">
        <ele>592.84</ele>
        <time>2010-01-01T16:07:24Z</time>
      </trkpt>
      <trkpt lat="44.202140" lon="3.323160">
        <ele>597.335327</ele>
        <time>2010-01-01T16:07:50Z</time>
      </trkpt>
      <trkpt lat="44.202540" lon="3.324240">
        <ele>599.057251</ele>
        <time>2010-01-01T16:08:35Z</time>
      </trkpt>
      <trkpt lat="44.203230" lon="3.325760">
        <ele>605.51</ele>
        <time>2010-01-01T16:09:15Z</time>
      </trkpt>
      <trkpt lat="44.203420" lon="3.326400">
        <ele>605.07</ele>
        <time>2010-01-01T16:09:48Z</time>
      </trkpt>
      <trkpt lat="44.203720" lon="3.327880">
        <ele>607.777527</ele>
        <time>2010-01-01T16:10:09Z</time>
      </trkpt>
      <trkpt lat="44.203770" lon="3.328340">
        <ele>606.02</ele>
        <time>2010-01-01T16:11:21Z</time>
      </trkpt>
      <trkpt lat="44.203760" lon="3.329180">
        <ele>605.585388</ele>
        <time>2010-01-01T16:11:34Z</time>
      </trkpt>
      <trkpt lat="44.203830" lon="3.329530">
        <ele>604.58</ele>
        <time>2010-01-01T16:11:52Z</time>
      </trkpt>
      <trkpt lat="44.204090" lon="3.330250">
        <ele>604.53</ele>
        <time>2010-01-01T16:12:17Z</time>
      </trkpt>
      <trkpt lat="44.204320" lon="3.331110">
        <ele>605.59</ele>
        <time>2010-01-01T16:12:37Z</time>
      </trkpt>
      <trkpt lat="44.204500" lon="3.332650">
        <ele>607.905151</ele>
        <time>2010-01-01T16:12:57Z</time>
      </trkpt>
      <trkpt lat="44.204760" lon="3.334020">
        <ele>608.99</ele>
        <time>2010-01-01T16:13:09Z</time>
      </trkpt>
      <trkpt lat="44.204850" lon="3.335140">
        <ele>609.12</ele>
        <time>2010-01-01T16:13:22Z</time>
      </trkpt>
      <trkpt lat="44.204780" lon="3.335860">
        <ele>610.33</ele>
        <time>2010-01-01T16:13:42Z</time>
      </trkpt>
      <trkpt lat="44.203750" lon="3.337950">
        <ele>610.33</ele>
        <time>2010-01-01T16:14:29Z</time>
      </trkpt>
      <trkpt lat="44.203640" lon="3.338350">
        <ele>611.259705</ele>
        <time>2010-01-01T16:15:16Z</time>
      </trkpt>
      <trkpt lat="44.203540" lon="3.338960">
        <ele>612.92</ele>
        <time>2010-01-01T16:15:35Z</time>
      </trkpt>
      <trkpt lat="44.203270" lon="3.339780">
        <ele>613.48</ele>
        <time>2010-01-01T16:15:54Z</time>
      </trkpt>
      <trkpt lat="44.202960" lon="3.340320">
        <ele>614.35</ele>
        <time>2010-01-01T16:16:29Z</time>
      </trkpt>
      <trkpt lat="44.202590" lon="3.340790">
        <ele>615.57</ele>
        <time>2010-01-01T16:16:44Z</time>
      </trkpt>
      <trkpt lat="44.202410" lon="3.341090">
        <ele>616.55</ele>
        <time>2010-01-01T16:17:04Z</time>
      </trkpt>
      <trkpt lat="44.202240" lon="3.341490">
        <ele>617.92</ele>
        <time>2010-01-01T16:17:16Z</time>
      </trkpt>
      <trkpt lat="44.202100" lon="3.342170">
        <ele>618.06</ele>
        <time>2010-01-01T16:17:27Z</time>
      </trkpt>
      <trkpt lat="44.201890" lon="3.343780">
        <ele>618.63</ele>
        <time>2010-01-01T16:17:35Z</time>
      </trkpt>
      <trkpt lat="44.201500" lon="3.345300">
        <ele>617.373108</ele>
        <time>2010-01-01T16:17:48Z</time>
      </trkpt>
      <trkpt lat="44.201440" lon="3.345980">
        <ele>617.476501</ele>
        <time>2010-01-01T16:18:14Z</time>
      </trkpt>
      <trkpt lat="44.201450" lon="3.346620">
        <ele>615.32</ele>
        <time>2010-01-01T16:18:40Z</time>
      </trkpt>
      <trkpt lat="44.201640" lon="3.347820">
        <ele>615.32</ele>
        <time>2010-01-01T16:18:53Z</time>
      </trkpt>
      <trkpt lat="44.201820" lon="3.348300">
        <ele>615.32</ele>
        <time>2010-01-01T16:19:28Z</time>
      </trkpt>
      <trkpt lat="44.202180" lon="3.348780">
        <ele>616.32</ele>
        <time>2010-01-01T16:19:36Z</time>
      </trkpt>
      <trkpt lat="44.202370" lon="3.349110">
        <ele>616.32</ele>
        <time>2010-01-01T16:19:46Z</time>
      </trkpt>
      <trkpt lat="44.202450" lon="3.349460">
        <ele>616.32</ele>
        <time>2010-01-01T16:20:10Z</time>
      </trkpt>
      <trkpt lat="44.202420" lon="3.349720">
        <ele>616.32</ele>
        <time>2010-01-01T16:20:26Z</time>
      </trkpt>
      <trkpt lat="44.202290" lon="3.350160">
        <ele>616.32</ele>
        <time>2010-01-01T16:20:56Z</time>
      </trkpt>
      <trkpt lat="44.201950" lon="3.350940">
        <ele>617.13</ele>
        <time>2010-01-01T16:21:07Z</time>
      </trkpt>
      <trkpt lat="44.201760" lon="3.351800">
        <ele>617.13</ele>
        <time>2010-01-01T16:21:37Z</time>
      </trkpt>
      <trkpt lat="44.201820" lon="3.352220">
        <ele>618.50</ele>
        <time>2010-01-01T16:22:02Z</time>
      </trkpt>
      <trkpt lat="44.202320" lon="3.353240">
        <ele>619.50</ele>
        <time>2010-01-01T16:22:45Z</time>
      </trkpt>
      <trkpt lat="44.202370" lon="3.353510">
        <ele>619.50</ele>
        <time>2010-01-01T16:23:03Z</time>
      </trkpt>
      <trkpt lat="44.202340" lon="3.353870">
        <ele>619.50</ele>
        <time>2010-01-01T16:23:25Z</time>
      </trkpt>
      <trkpt lat="44.202160" lon="3.354670">
        <ele>619.50</ele>
        <time>2010-01-01T16:23:30Z</time>
      </trkpt>
      <trkpt lat="44.201960" lon="3.355150">
        <ele>619.50</ele>
        <time>2010-01-01T16:23:56Z</time>
      </trkpt>
      <trkpt lat="44.201500" lon="3.355950">
        <ele>618.98</ele>
        <time>2010-01-01T16:25:15Z</time>
      </trkpt>
      <trkpt lat="44.201460" lon="3.356320">
        <ele>619.58</ele>
        <time>2010-01-01T16:25:40Z</time>
      </trkpt>
      <trkpt lat="44.201470" lon="3.357380">
        <ele>620.650024</ele>
        <time>2010-01-01T16:26:42Z</time>
      </trkpt>
      <trkpt lat="44.201570" lon="3.358230">
        <ele>623.459412</ele>
        <time>2010-01-01T16:26:55Z</time>
      </trkpt>
      <trkpt lat="44.201870" lon="3.359680">
        <ele>627.000671</ele>
        <time>2010-01-01T16:27:11Z</time>
      </trkpt>
      <trkpt lat="44.201940" lon="3.360300">
        <ele>629.74</ele>
        <time>2010-01-01T16:27:36Z</time>
      </trkpt>
      <trkpt lat="44.201850" lon="3.361050">
        <ele>630.45</ele>
        <time>2010-01-01T16:28:05Z</time>
      </trkpt>
      <trkpt lat="44.201860" lon="3.361240">
        <ele>631.03</ele>
        <time>2010-01-01T16:28:28Z</time>
      </trkpt>
      <trkpt lat="44.202050" lon="3.362110">
        <ele>632.13</ele>
        <time>2010-01-01T16:28:37Z</time>
      </trkpt>
      <trkpt lat="44.202024" lon="3.362659">
        <ele>633.653931</ele>
        <time>2010-01-01T16:28:58Z</time>
      </trkpt>
      <trkpt lat="44.201935" lon="3.363499">
        <ele>637.41</ele>
        <time>2010-01-01T16:29:08Z</time>
      </trkpt>
      <trkpt lat="44.202030" lon="3.364850">
        <ele>639.245422</ele>
        <time>2010-01-01T16:29:26Z</time>
      </trkpt>
      <trkpt lat="44.202030" lon="3.365710">
        <ele>646.234375</ele>
        <time>2010-01-01T16:29:45Z</time>
      </trkpt>
      <trkpt lat="44.201830" lon="3.367860">
        <ele>651.288391</ele>
        <time>2010-01-01T16:30:18Z</time>
      </trkpt>
      <trkpt lat="44.201750" lon="3.368300">
        <ele>653.803650</ele>
        <time>2010-01-01T16:31:27Z</time>
      </trkpt>
      <trkpt lat="44.201600" lon="3.368820">
        <ele>654.74</ele>
        <time>2010-01-01T16:31:53Z</time>
      </trkpt>
      <trkpt lat="44.201300" lon="3.369570">
        <ele>654.74</ele>
        <time>2010-01-01T16:32:40Z</time>
      </trkpt>
      <trkpt lat="44.201180" lon="3.370550">
        <ele>653.80</ele>
        <time>2010-01-01T16:33:09Z</time>
      </trkpt>
      <trkpt lat="44.200930" lon="3.371300">
        <ele>654.43</ele>
        <time>2010-01-01T16:34:03Z</time>
      </trkpt>
      <trkpt lat="44.200870" lon="3.371590">
        <ele>655.13</ele>
        <time>2010-01-01T16:34:32Z</time>
      </trkpt>
      <trkpt lat="44.200820" lon="3.372320">
        <ele>656.879517</ele>
        <time>2010-01-01T16:34:45Z</time>
      </trkpt>
      <trkpt lat="44.200760" lon="3.372670">
        <ele>658.252014</ele>
        <time>2010-01-01T16:35:11Z</time>
      </trkpt>
      <trkpt lat="44.200570" lon="3.373240">
        <ele>662.48</ele>
        <time>2010-01-01T16:36:14Z</time>
      </trkpt>
      <trkpt lat="44.200320" lon="3.373790">
        <ele>662.48</ele>
        <time>2010-01-01T16:36:53Z</time>
      </trkpt>
      <trkpt lat="44.200100" lon="3.374880">
        <ele>662.48</ele>
        <time>2010-01-01T16:37:04Z</time>
      </trkpt>
      <trkpt lat="44.200090" lon="3.377310">
        <ele>662.57</ele>
        <time>2010-01-01T16:38:24Z</time>
      </trkpt>
      <trkpt lat="44.200130" lon="3.378190">
        <ele>662.57</ele>
        <time>2010-01-01T16:39:01Z</time>
      </trkpt>
      <trkpt lat="44.199930" lon="3.379810">
        <ele>663.44</ele>
        <time>2010-01-01T16:39:22Z</time>
      </trkpt>
      <trkpt lat="44.199910" lon="3.380830">
        <ele>664.89</ele>
        <time>2010-01-01T16:39:36Z</time>
      </trkpt>
      <trkpt lat="44.200080" lon="3.382700">
        <ele>666.04</ele>
        <time>2010-01-01T16:40:03Z</time>
      </trkpt>
      <trkpt lat="44.200110" lon="3.383700">
        <ele>670.83</ele>
        <time>2010-01-01T16:40:35Z</time>
      </trkpt>
      <trkpt lat="44.200080" lon="3.384160">
        <ele>673.16</ele>
        <time>2010-01-01T16:40:59Z</time>
      </trkpt>
      <trkpt lat="44.199950" lon="3.385040">
        <ele>676.945190</ele>
        <time>2010-01-01T16:42:39Z</time>
      </trkpt>
      <trkpt lat="44.199240" lon="3.386990">
        <ele>677.33</ele>
        <time>2010-01-01T16:42:43Z</time>
      </trkpt>
      <trkpt lat="44.198870" lon="3.388240">
        <ele>677.33</ele>
        <time>2010-01-01T16:42:52Z</time>
      </trkpt>
      <trkpt lat="44.198710" lon="3.388570">
        <ele>677.33</ele>
        <time>2010-01-01T16:43:45Z</time>
      </trkpt>
      <trkpt lat="44.198173" lon="3.389299">
        <ele>677.33</ele>
        <time>2010-01-01T16:43:59Z</time>
      </trkpt>
      <trkpt lat="44.197380" lon="3.390630">
        <ele>677.423462</ele>
        <time>2010-01-01T16:44:50Z</time>
      </trkpt>
      <trkpt lat="44.196650" lon="3.391450">
        <ele>677.069214</ele>
        <time>2010-01-01T16:45:02Z</time>
      </trkpt>
      <trkpt lat="44.196270" lon="3.391950">
        <ele>677.950562</ele>
        <time>2010-01-01T16:45:11Z</time>
      </trkpt>
      <trkpt lat="44.196050" lon="3.392330">
        <ele>679.88</ele>
        <time>2010-01-01T16:45:41Z</time>
      </trkpt>
      <trkpt lat="44.195877" lon="3.392738">
        <ele>679.88</ele>
        <time>2010-01-01T16:46:04Z</time>
      </trkpt>
      <trkpt lat="44.195830" lon="3.393220">
        <ele>681.76</ele>
        <time>2010-01-01T16:46:20Z</time>
      </trkpt>
      <trkpt lat="44.195860" lon="3.394310">
        <ele>682.36</ele>
        <time>2010-01-01T16:46:51Z</time>
      </trkpt>
      <trkpt lat="44.195960" lon="3.395160">
        <ele>682.36</ele>
        <time>2010-01-01T16:47:08Z</time>
      </trkpt>
      <trkpt lat="44.195865" lon="3.395682">
        <ele>682.36</ele>
        <time>2010-01-01T16:47:16Z</time>
      </trkpt>
      <trkpt lat="44.195551" lon="3.396516">
        <ele>682.36</ele>
        <time>2010-01-01T16:47:32Z</time>
      </trkpt>
      <trkpt lat="44.194630" lon="3.397970">
        <ele>682.51</ele>
        <time>2010-01-01T16:47:49Z</time>
      </trkpt>
      <trkpt lat="44.194590" lon="3.398090">
        <ele>683.256165</ele>
        <time>2010-01-01T16:48:26Z</time>
      </trkpt>
      <trkpt lat="44.194570" lon="3.398420">
        <ele>685.216248</ele>
        <time>2010-01-01T16:48:50Z</time>
      </trkpt>
      <trkpt lat="44.194690" lon="3.400250">
        <ele>690.751892</ele>
        <time>2010-01-01T16:49:58Z</time>
      </trkpt>
      <trkpt lat="44.194670" lon="3.400730">
        <ele>690.85</ele>
        <time>2010-01-01T16:50:31Z</time>
      </trkpt>
      <trkpt lat="44.193810" lon="3.402060">
        <ele>690.85</ele>
        <time>2010-01-01T16:51:04Z</time>
      </trkpt>
      <trkpt lat="44.193660" lon="3.402410">
        <ele>691.85</ele>
        <time>2010-01-01T16:51:47Z</time>
      </trkpt>
      <trkpt lat="44.193580" lon="3.402710">
        <ele>682.31</ele>
        <time>2010-01-01T16:52:12Z</time>
      </trkpt>
      <trkpt lat="44.193520" lon="3.403760">
        <ele>692.302307</ele>
        <time>2010-01-01T16:52:29Z</time>
      </trkpt>
      <trkpt lat="44.193600" lon="3.404540">
        <ele>693.91</ele>
        <time>2010-01-01T16:52:40Z</time>
      </trkpt>
      <trkpt lat="44.193580" lon="3.405080">
        <ele>694.085327</ele>
        <time>2010-01-01T16:53:43Z</time>
      </trkpt>
      <trkpt lat="44.193660" lon="3.406180">
        <ele>695.309998</ele>
        <time>2010-01-01T16:53:51Z</time>
      </trkpt>
      <trkpt lat="44.193620" lon="3.406750">
        <ele>694.81</ele>
        <time>2010-01-01T16:53:55Z</time>
      </trkpt>
      <trkpt lat="44.193540" lon="3.407030">
        <ele>694.81</ele>
        <time>2010-01-01T16:54:36Z</time>
      </trkpt>
      <trkpt lat="44.193280" lon="3.407430">
        <ele>694.20</ele>
        <time>2010-01-01T16:58:43Z</time>
      </trkpt>
      <trkpt lat="44.192960" lon="3.407820">
        <ele>694.20</ele>
        <time>2010-01-01T16:58:59Z</time>
      </trkpt>
      <trkpt lat="44.192220" lon="3.408610">
        <ele>693.29</ele>
        <time>2010-01-01T17:00:11Z</time>
      </trkpt>
      <trkpt lat="44.191840" lon="3.409230">
        <ele>693.29</ele>
        <time>2010-01-01T17:02:01Z</time>
      </trkpt>
      <trkpt lat="44.190950" lon="3.411270">
        <ele>693.29</ele>
        <time>2010-01-01T17:02:52Z</time>
      </trkpt>
      <trkpt lat="44.190740" lon="3.412360">
        <ele>697.42</ele>
        <time>2010-01-01T17:04:05Z</time>
      </trkpt>
      <trkpt lat="44.190460" lon="3.413460">
        <ele>697.42</ele>
        <time>2010-01-01T17:04:18Z</time>
      </trkpt>
      <trkpt lat="44.189900" lon="3.414740">
        <ele>697.42</ele>
        <time>2010-01-01T17:04:35Z</time>
      </trkpt>
      <trkpt lat="44.189610" lon="3.415510">
        <ele>698.970032</ele>
        <time>2010-01-01T17:04:51Z</time>
      </trkpt>
      <trkpt lat="44.189280" lon="3.415850">
        <ele>699.19</ele>
        <time>2010-01-01T17:04:55Z</time>
      </trkpt>
      <trkpt lat="44.189020" lon="3.415980">
        <ele>699.56</ele>
        <time>2010-01-01T17:05:41Z</time>
      </trkpt>
      <trkpt lat="44.187430" lon="3.416040">
        <ele>704.62</ele>
        <time>2010-01-01T17:05:48Z</time>
      </trkpt>
      <trkpt lat="44.187250" lon="3.416100">
        <ele>704.815979</ele>
        <time>2010-01-01T17:06:36Z</time>
      </trkpt>
      <trkpt lat="44.187160" lon="3.416190">
        <ele>704.68</ele>
        <time>2010-01-01T17:06:43Z</time>
      </trkpt>
      <trkpt lat="44.186660" lon="3.417420">
        <ele>704.68</ele>
        <time>2010-01-01T17:06:54Z</time>
      </trkpt>
      <trkpt lat="44.185601" lon="3.421150">
        <ele>708.45</ele>
        <time>2010-01-01T17:07:06Z</time>
      </trkpt>
      <trkpt lat="44.185224" lon="3.421984">
        <ele>714.94</ele>
        <time>2010-01-01T17:07:15Z</time>
      </trkpt>
      <trkpt lat="44.184658" lon="3.422726">
        <ele>714.94</ele>
        <time>2010-01-01T17:07:48Z</time>
      </trkpt>
      <trkpt lat="44.183120" lon="3.423990">
        <ele>714.94</ele>
        <time>2010-01-01T17:07:59Z</time>
      </trkpt>
      <trkpt lat="44.182800" lon="3.424300">
        <ele>714.94</ele>
        <time>2010-01-01T17:08:48Z</time>
      </trkpt>
      <trkpt lat="44.181410" lon="3.425900">
        <ele>714.94</ele>
        <time>2010-01-01T17:09:41Z</time>
      </trkpt>
      <trkpt lat="44.180923" lon="3.426660">
        <ele>714.94</ele>
        <time>2010-01-01T17:09:51Z</time>
      </trkpt>
      <trkpt lat="44.180359" lon="3.428191">
        <ele>714.56</ele>
        <time>2010-01-01T17:10:24Z</time>
      </trkpt>
      <trkpt lat="44.180274" lon="3.428269">
        <ele>715.05</ele>
        <time>2010-01-01T17:11:03Z</time>
      </trkpt>
      <trkpt lat="44.179964" lon="3.428237">
        <ele>716.54</ele>
        <time>2010-01-01T17:11:22Z</time>
      </trkpt>
      <trkpt lat="44.179680" lon="3.428580">
        <ele>716.135010</ele>
        <time>2010-01-01T17:11:33Z</time>
      </trkpt>
      <trkpt lat="44.179300" lon="3.430250">
        <ele>716.37</ele>
        <time>2010-01-01T17:11:59Z</time>
      </trkpt>
      <trkpt lat="44.180990" lon="3.431250">
        <ele>716.37</ele>
        <time>2010-01-01T17:12:23Z</time>
      </trkpt>
      <trkpt lat="44.181160" lon="3.431640">
        <ele>717.669617</ele>
        <time>2010-01-01T17:12:58Z</time>
      </trkpt>
      <trkpt lat="44.181260" lon="3.432220">
        <ele>717.998718</ele>
        <time>2010-01-01T17:13:46Z</time>
      </trkpt>
      <trkpt lat="44.181350" lon="3.432760">
        <ele>718.971924</ele>
        <time>2010-01-01T17:14:26Z</time>
      </trkpt>
      <trkpt lat="44.181400" lon="3.432860">
        <ele>719.234924</ele>
        <time>2010-01-01T17:14:56Z</time>
      </trkpt>
      <trkpt lat="44.182210" lon="3.433980">
        <ele>720.098572</ele>
        <time>2010-01-01T17:15:35Z</time>
      </trkpt>
      <trkpt lat="44.182360" lon="3.434130">
        <ele>720.762695</ele>
        <time>2010-01-01T17:16:31Z</time>
      </trkpt>
      <trkpt lat="44.183440" lon="3.434900">
        <ele>725.914734</ele>
        <time>2010-01-01T17:16:44Z</time>
      </trkpt>
      <trkpt lat="44.183550" lon="3.435050">
        <ele>725.743835</ele>
        <time>2010-01-01T17:16:51Z</time>
      </trkpt>
      <trkpt lat="44.183800" lon="3.435250">
        <ele>726.79</ele>
        <time>2010-01-01T17:17:12Z</time>
      </trkpt>
      <trkpt lat="44.184080" lon="3.435380">
        <ele>726.79</ele>
        <time>2010-01-01T17:17:30Z</time>
      </trkpt>
      <trkpt lat="44.184260" lon="3.435580">
        <ele>727.50</ele>
        <time>2010-01-01T17:17:56Z</time>
      </trkpt>
      <trkpt lat="44.184640" lon="3.436590">
        <ele>721.22</ele>
        <time>2010-01-01T17:18:41Z</time>
      </trkpt>
      <trkpt lat="44.184830" lon="3.436850">
        <ele>721.22</ele>
        <time>2010-01-01T17:18:58Z</time>
      </trkpt>
      <trkpt lat="44.185840" lon="3.437810">
        <ele>721.22</ele>
        <time>2010-01-01T17:19:11Z</time>
      </trkpt>
      <trkpt lat="44.186990" lon="3.438740">
        <ele>721.22</ele>
        <time>2010-01-01T17:19:25Z</time>
      </trkpt>
      <trkpt lat="44.187240" lon="3.438820">
        <ele>721.245300</ele>
        <time>2010-01-01T17:19:38Z</time>
      </trkpt>
      <trkpt lat="44.188070" lon="3.438850">
        <ele>726.64</ele>
        <time>2010-01-01T17:20:01Z</time>
      </trkpt>
      <trkpt lat="44.189020" lon="3.439120">
        <ele>726.471252</ele>
        <time>2010-01-01T17:20:13Z</time>
      </trkpt>
      <trkpt lat="44.189480" lon="3.439060">
        <ele>729.58</ele>
        <time>2010-01-01T17:20:35Z</time>
      </trkpt>
      <trkpt lat="44.189770" lon="3.439080">
        <ele>730.327942</ele>
        <time>2010-01-01T17:20:48Z</time>
      </trkpt>
      <trkpt lat="44.190380" lon="3.439350">
        <ele>732.688721</ele>
        <time>2010-01-01T17:21:23Z</time>
      </trkpt>
      <trkpt lat="44.190930" lon="3.439690">
        <ele>735.976868</ele>
        <time>2010-01-01T17:21:50Z</time>
      </trkpt>
      <trkpt lat="44.191660" lon="3.440360">
        <ele>736.087280</ele>
        <time>2010-01-01T17:22:06Z</time>
      </trkpt>
      <trkpt lat="44.192800" lon="3.440870">
        <ele>743.139526</ele>
        <time>2010-01-01T17:22:53Z</time>
      </trkpt>
      <trkpt lat="44.193780" lon="3.441130">
        <ele>744.79</ele>
        <time>2010-01-01T17:23:27Z</time>
      </trkpt>
      <trkpt lat="44.194450" lon="3.441610">
        <ele>745.820007</ele>
        <time>2010-01-01T17:24:15Z</time>
      </trkpt>
      <trkpt lat="44.195380" lon="3.442050">
        <ele>753.090881</ele>
        <time>2010-01-01T17:24:43Z</time>
      </trkpt>
      <trkpt lat="44.196590" lon="3.443030">
        <ele>757.10</ele>
        <time>2010-01-01T17:24:49Z</time>
      </trkpt>
      <trkpt lat="44.196840" lon="3.443310">
        <ele>756.555664</ele>
        <time>2010-01-01T17:25:33Z</time>
      </trkpt>
      <trkpt lat="44.196940" lon="3.443500">
        <ele>756.56</ele>
        <time>2010-01-01T17:26:11Z</time>
      </trkpt>
      <trkpt lat="44.197140" lon="3.444170">
        <ele>756.56</ele>
        <time>2010-01-01T17:29:30Z</time>
      </trkpt>
      <trkpt lat="44.197380" lon="3.444720">
        <ele>756.56</ele>
        <time>2010-01-01T17:29:42Z</time>
      </trkpt>
      <trkpt lat="44.197560" lon="3.445590">
        <ele>755.331299</ele>
        <time>2010-01-01T17:29:58Z</time>
      </trkpt>
      <trkpt lat="44.197960" lon="3.447040">
        <ele>755.880066</ele>
        <time>2010-01-01T17:30:38Z</time>
      </trkpt>
      <trkpt lat="44.198070" lon="3.447620">
        <ele>755.526123</ele>
        <time>2010-01-01T17:31:20Z</time>
      </trkpt>
      <trkpt lat="44.198080" lon="3.448060">
        <ele>755.887512</ele>
        <time>2010-01-01T17:31:38Z</time>
      </trkpt>
      <trkpt lat="44.198000" lon="3.448550">
        <ele>756.418335</ele>
        <time>2010-01-01T17:32:03Z</time>
      </trkpt>
      <trkpt lat="44.197860" lon="3.448970">
        <ele>756.406128</ele>
        <time>2010-01-01T17:32:08Z</time>
      </trkpt>
      <trkpt lat="44.197690" lon="3.449740">
        <ele>756.255005</ele>
        <time>2010-01-01T17:32:17Z</time>
      </trkpt>
      <trkpt lat="44.197700" lon="3.450140">
        <ele>757.66</ele>
        <time>2010-01-01T17:32:38Z</time>
      </trkpt>
      <trkpt lat="44.197870" lon="3.450860">
        <ele>759.87</ele>
        <time>2010-01-01T17:32:45Z</time>
      </trkpt>
      <trkpt lat="44.197900" lon="3.451320">
        <ele>759.87</ele>
        <time>2010-01-01T17:33:16Z</time>
      </trkpt>
      <trkpt lat="44.197670" lon="3.452500">
        <ele>759.317139</ele>
        <time>2010-01-01T17:33:33Z</time>
      </trkpt>
      <trkpt lat="44.197540" lon="3.453430">
        <ele>762.42</ele>
        <time>2010-01-01T17:33:39Z</time>
      </trkpt>
      <trkpt lat="44.197370" lon="3.453920">
        <ele>761.906433</ele>
        <time>2010-01-01T17:34:11Z</time>
      </trkpt>
      <trkpt lat="44.196950" lon="3.455460">
        <ele>763.264587</ele>
        <time>2010-01-01T17:34:26Z</time>
      </trkpt>
      <trkpt lat="44.196770" lon="3.456620">
        <ele>763.105591</ele>
        <time>2010-01-01T17:34:57Z</time>
      </trkpt>
      <trkpt lat="44.196732" lon="3.457221">
        <ele>763.820007</ele>
        <time>2010-01-01T17:35:36Z</time>
      </trkpt>
      <trkpt lat="44.196799" lon="3.457788">
        <ele>764.734985</ele>
        <time>2010-01-01T17:36:09Z</time>
      </trkpt>
      <trkpt lat="44.196920" lon="3.458260">
        <ele>764.809998</ele>
        <time>2010-01-01T17:36:26Z</time>
      </trkpt>
      <trkpt lat="44.197340" lon="3.459050">
        <ele>765.383728</ele>
        <time>2010-01-01T17:36:32Z</time>
      </trkpt>
      <trkpt lat="44.197400" lon="3.459230">
        <ele>766.193726</ele>
        <time>2010-01-01T17:38:05Z</time>
      </trkpt>
      <trkpt lat="44.197600" lon="3.460730">
        <ele>766.777100</ele>
        <time>2010-01-01T17:38:08Z</time>
      </trkpt>
      <trkpt lat="44.198010" lon="3.461930">
        <ele>775.006470</ele>
        <time>2010-01-01T17:38:11Z</time>
      </trkpt>
      <trkpt lat="44.199060" lon="3.468720">
        <ele>776.930420</ele>
        <time>2010-01-01T17:38:21Z</time>
      </trkpt>
      <trkpt lat="44.199120" lon="3.469100">
        <ele>778.281067</ele>
        <time>2010-01-01T17:38:40Z</time>
      </trkpt>
      <trkpt lat="44.199120" lon="3.469680">
        <ele>779.977051</ele>
        <time>2010-01-01T17:39:08Z</time>
      </trkpt>
      <trkpt lat="44.198940" lon="3.471040">
        <ele>780.729004</ele>
        <time>2010-01-01T17:39:18Z</time>
      </trkpt>
      <trkpt lat="44.198910" lon="3.472500">
        <ele>782.921631</ele>
        <time>2010-01-01T17:39:25Z</time>
      </trkpt>
      <trkpt lat="44.198990" lon="3.473130">
        <ele>784.125916</ele>
        <time>2010-01-01T17:39:36Z</time>
      </trkpt>
      <trkpt lat="44.199320" lon="3.473860">
        <ele>787.196655</ele>
        <time>2010-01-01T17:39:47Z</time>
      </trkpt>
      <trkpt lat="44.199350" lon="3.474030">
        <ele>787.962463</ele>
        <time>2010-01-01T17:40:00Z</time>
      </trkpt>
      <trkpt lat="44.199280" lon="3.474310">
        <ele>790.96</ele>
        <time>2010-01-01T17:40:04Z</time>
      </trkpt>
      <trkpt lat="44.198960" lon="3.474890">
        <ele>790.798462</ele>
        <time>2010-01-01T17:40:20Z</time>
      </trkpt>
      <trkpt lat="44.198900" lon="3.475140">
        <ele>791.551147</ele>
        <time>2010-01-01T17:40:36Z</time>
      </trkpt>
      <trkpt lat="44.199030" lon="3.476200">
        <ele>794.321411</ele>
        <time>2010-01-01T17:40:49Z</time>
      </trkpt>
      <trkpt lat="44.199210" lon="3.476750">
        <ele>797.775696</ele>
        <time>2010-01-01T17:41:05Z</time>
      </trkpt>
      <trkpt lat="44.199220" lon="3.476930">
        <ele>798.286194</ele>
        <time>2010-01-01T17:41:17Z</time>
      </trkpt>
      <trkpt lat="44.198890" lon="3.477970">
        <ele>799.471863</ele>
        <time>2010-01-01T17:41:22Z</time>
      </trkpt>
      <trkpt lat="44.198820" lon="3.478470">
        <ele>800.861877</ele>
        <time>2010-01-01T17:41:27Z</time>
      </trkpt>
      <trkpt lat="44.198850" lon="3.479550">
        <ele>803.315002</ele>
        <time>2010-01-01T17:41:43Z</time>
      </trkpt>
      <trkpt lat="44.198610" lon="3.480870">
        <ele>803.449463</ele>
        <time>2010-01-01T17:41:48Z</time>
      </trkpt>
      <trkpt lat="44.198710" lon="3.482000">
        <ele>806.437317</ele>
        <time>2010-01-01T17:42:11Z</time>
      </trkpt>
      <trkpt lat="44.198900" lon="3.482540">
        <ele>807.508789</ele>
        <time>2010-01-01T17:42:34Z</time>
      </trkpt>
      <trkpt lat="44.199020" lon="3.482700">
        <ele>808.220215</ele>
        <time>2010-01-01T17:42:42Z</time>
      </trkpt>
      <trkpt lat="44.199884" lon="3.483015">
        <ele>822.248962</ele>
        <time>2010-01-01T17:42:47Z</time>
      </trkpt>
      <trkpt lat="44.200324" lon="3.482989">
        <ele>826.33</ele>
        <time>2010-01-01T17:42:51Z</time>
      </trkpt>
      <trkpt lat="44.200710" lon="3.482845">
        <ele>826.33</ele>
        <time>2010-01-01T17:43:49Z</time>
      </trkpt>
      <trkpt lat="44.201250" lon="3.483160">
        <ele>826.33</ele>
        <time>2010-01-01T17:44:42Z</time>
      </trkpt>
      <trkpt lat="44.201290" lon="3.483240">
        <ele>826.33</ele>
        <time>2010-01-01T17:44:45Z</time>
      </trkpt>
      <trkpt lat="44.201270" lon="3.483340">
        <ele>826.33</ele>
        <time>2010-01-01T17:44:49Z</time>
      </trkpt>
      <trkpt lat="44.201030" lon="3.483450">
        <ele>826.33</ele>
        <time>2010-01-01T17:45:02Z</time>
      </trkpt>
      <trkpt lat="44.200620" lon="3.483790">
        <ele>826.33</ele>
        <time>2010-01-01T17:45:15Z</time>
      </trkpt>
      <trkpt lat="44.199960" lon="3.484060">
        <ele>825.93</ele>
        <time>2010-01-01T17:45:18Z</time>
      </trkpt>
      <trkpt lat="44.199720" lon="3.484210">
        <ele>825.93</ele>
        <time>2010-01-01T17:45:31Z</time>
      </trkpt>
      <trkpt lat="44.199600" lon="3.484380">
        <ele>825.93</ele>
        <time>2010-01-01T17:45:37Z</time>
      </trkpt>
      <trkpt lat="44.199550" lon="3.484770">
        <ele>828.892822</ele>
        <time>2010-01-01T17:46:09Z</time>
      </trkpt>
      <trkpt lat="44.199550" lon="3.485160">
        <ele>830.98</ele>
        <time>2010-01-01T17:46:42Z</time>
      </trkpt>
      <trkpt lat="44.199680" lon="3.485540">
        <ele>836.849976</ele>
        <time>2010-01-01T17:46:50Z</time>
      </trkpt>
      <trkpt lat="44.199690" lon="3.485700">
        <ele>837.762512</ele>
        <time>2010-01-01T17:46:56Z</time>
      </trkpt>
      <trkpt lat="44.199550" lon="3.486230">
        <ele>837.102722</ele>
        <time>2010-01-01T17:47:09Z</time>
      </trkpt>
      <trkpt lat="44.199530" lon="3.486760">
        <ele>837.771851</ele>
        <time>2010-01-01T17:47:18Z</time>
      </trkpt>
      <trkpt lat="44.199690" lon="3.487170">
        <ele>840.742065</ele>
        <time>2010-01-01T17:47:24Z</time>
      </trkpt>
      <trkpt lat="44.200000" lon="3.487520">
        <ele>843.696106</ele>
        <time>2010-01-01T17:47:38Z</time>
      </trkpt>
      <trkpt lat="44.200250" lon="3.487730">
        <ele>848.787659</ele>
        <time>2010-01-01T17:47:47Z</time>
      </trkpt>
      <trkpt lat="44.200320" lon="3.487880">
        <ele>853.607849</ele>
        <time>2010-01-01T17:47:54Z</time>
      </trkpt>
      <trkpt lat="44.200270" lon="3.488030">
        <ele>854.86</ele>
        <time>2010-01-01T17:48:15Z</time>
      </trkpt>
      <trkpt lat="44.199880" lon="3.488210">
        <ele>855.86</ele>
        <time>2010-01-01T17:48:41Z</time>
      </trkpt>
      <trkpt lat="44.199800" lon="3.488360">
        <ele>856.86</ele>
        <time>2010-01-01T17:48:54Z</time>
      </trkpt>
      <trkpt lat="44.199750" lon="3.489150">
        <ele>857.10</ele>
        <time>2010-01-01T17:49:13Z</time>
      </trkpt>
      <trkpt lat="44.199310" lon="3.489670">
        <ele>858.37</ele>
        <time>2010-01-01T17:49:16Z</time>
      </trkpt>
      <trkpt lat="44.199270" lon="3.489920">
        <ele>859.12</ele>
        <time>2010-01-01T17:49:26Z</time>
      </trkpt>
      <trkpt lat="44.199300" lon="3.490120">
        <ele>859.85</ele>
        <time>2010-01-01T17:49:33Z</time>
      </trkpt>
      <trkpt lat="44.199360" lon="3.490230">
        <ele>859.51</ele>
        <time>2010-01-01T17:49:47Z</time>
      </trkpt>
      <trkpt lat="44.200580" lon="3.491320">
        <ele>872.49</ele>
        <time>2010-01-01T17:50:00Z</time>
      </trkpt>
      <trkpt lat="44.201640" lon="3.492390">
        <ele>884.995605</ele>
        <time>2010-01-01T17:50:03Z</time>
      </trkpt>
      <trkpt lat="44.201670" lon="3.492480">
        <ele>885.80</ele>
        <time>2010-01-01T17:50:06Z</time>
      </trkpt>
      <trkpt lat="44.201620" lon="3.492600">
        <ele>885.80</ele>
        <time>2010-01-01T17:50:11Z</time>
      </trkpt>
      <trkpt lat="44.201310" lon="3.492730">
        <ele>885.80</ele>
        <time>2010-01-01T17:50:29Z</time>
      </trkpt>
      <trkpt lat="44.201020" lon="3.492930">
        <ele>886.12</ele>
        <time>2010-01-01T17:50:57Z</time>
      </trkpt>
      <trkpt lat="44.200940" lon="3.492920">
        <ele>887.05</ele>
        <time>2010-01-01T17:51:10Z</time>
      </trkpt>
      <trkpt lat="44.200670" lon="3.492640">
        <ele>888.55</ele>
        <time>2010-01-01T17:51:39Z</time>
      </trkpt>
      <trkpt lat="44.200540" lon="3.492600">
        <ele>889.13</ele>
        <time>2010-01-01T17:51:46Z</time>
      </trkpt>
      <trkpt lat="44.199740" lon="3.492570">
        <ele>890.96</ele>
        <time>2010-01-01T17:51:54Z</time>
      </trkpt>
      <trkpt lat="44.198900" lon="3.492610">
        <ele>891.00</ele>
        <time>2010-01-01T17:52:33Z</time>
      </trkpt>
      <trkpt lat="44.198710" lon="3.492720">
        <ele>891.78</ele>
        <time>2010-01-01T17:52:45Z</time>
      </trkpt>
      <trkpt lat="44.198610" lon="3.492870">
        <ele>892.54</ele>
        <time>2010-01-01T17:52:48Z</time>
      </trkpt>
      <trkpt lat="44.198460" lon="3.493240">
        <ele>892.958923</ele>
        <time>2010-01-01T17:52:51Z</time>
      </trkpt>
      <trkpt lat="44.198430" lon="3.493570">
        <ele>893.420837</ele>
        <time>2010-01-01T17:53:01Z</time>
      </trkpt>
      <trkpt lat="44.198480" lon="3.493780">
        <ele>895.480896</ele>
        <time>2010-01-01T17:53:11Z</time>
      </trkpt>
      <trkpt lat="44.198680" lon="3.494180">
        <ele>903.517517</ele>
        <time>2010-01-01T17:53:21Z</time>
      </trkpt>
      <trkpt lat="44.198750" lon="3.494470">
        <ele>905.598083</ele>
        <time>2010-01-01T17:53:27Z</time>
      </trkpt>
      <trkpt lat="44.198750" lon="3.494700">
        <ele>904.60</ele>
        <time>2010-01-01T17:53:35Z</time>
      </trkpt>
      <trkpt lat="44.198370" lon="3.495200">
        <ele>904.60</ele>
        <time>2010-01-01T17:54:10Z</time>
      </trkpt>
      <trkpt lat="44.198050" lon="3.496010">
        <ele>904.010010</ele>
        <time>2010-01-01T17:54:17Z</time>
      </trkpt>
      <trkpt lat="44.197980" lon="3.496450">
        <ele>907.028503</ele>
        <time>2010-01-01T17:55:48Z</time>
      </trkpt>
      <trkpt lat="44.198110" lon="3.497080">
        <ele>915.359985</ele>
        <time>2010-01-01T17:55:51Z</time>
      </trkpt>
      <trkpt lat="44.198080" lon="3.497170">
        <ele>916.61</ele>
        <time>2010-01-01T17:55:55Z</time>
      </trkpt>
      <trkpt lat="44.197840" lon="3.497300">
        <ele>916.61</ele>
        <time>2010-01-01T17:56:22Z</time>
      </trkpt>
      <trkpt lat="44.197710" lon="3.497480">
        <ele>917.61</ele>
        <time>2010-01-01T17:57:05Z</time>
      </trkpt>
      <trkpt lat="44.197630" lon="3.497940">
        <ele>918.61</ele>
        <time>2010-01-01T17:57:14Z</time>
      </trkpt>
      <trkpt lat="44.197730" lon="3.498370">
        <ele>920.12</ele>
        <time>2010-01-01T17:57:33Z</time>
      </trkpt>
      <trkpt lat="44.197730" lon="3.498460">
        <ele>922.410217</ele>
        <time>2010-01-01T17:57:38Z</time>
      </trkpt>
      <trkpt lat="44.197670" lon="3.498560">
        <ele>922.192444</ele>
        <time>2010-01-01T17:57:45Z</time>
      </trkpt>
      <trkpt lat="44.197550" lon="3.498550">
        <ele>923.759949</ele>
        <time>2010-01-01T17:57:49Z</time>
      </trkpt>
      <trkpt lat="44.197150" lon="3.498310">
        <ele>923.065002</ele>
        <time>2010-01-01T17:58:53Z</time>
      </trkpt>
      <trkpt lat="44.196530" lon="3.497830">
        <ele>925.30</ele>
        <time>2010-01-01T17:59:31Z</time>
      </trkpt>
      <trkpt lat="44.196300" lon="3.497490">
        <ele>925.30</ele>
        <time>2010-01-01T18:00:13Z</time>
      </trkpt>
      <trkpt lat="44.195950" lon="3.496630">
        <ele>925.30</ele>
        <time>2010-01-01T18:00:20Z</time>
      </trkpt>
      <trkpt lat="44.195800" lon="3.496470">
        <ele>925.934753</ele>
        <time>2010-01-01T18:00:39Z</time>
      </trkpt>
      <trkpt lat="44.195620" lon="3.496480">
        <ele>926.488098</ele>
        <time>2010-01-01T18:00:47Z</time>
      </trkpt>
      <trkpt lat="44.194710" lon="3.497040">
        <ele>933.911194</ele>
        <time>2010-01-01T18:00:53Z</time>
      </trkpt>
      <trkpt lat="44.194460" lon="3.497230">
        <ele>933.540771</ele>
        <time>2010-01-01T18:01:11Z</time>
      </trkpt>
      <trkpt lat="44.194450" lon="3.497350">
        <ele>936.514160</ele>
        <time>2010-01-01T18:01:21Z</time>
      </trkpt>
      <trkpt lat="44.194510" lon="3.497410">
        <ele>937.33</ele>
        <time>2010-01-01T18:01:30Z</time>
      </trkpt>
      <trkpt lat="44.194710" lon="3.497230">
        <ele>938.769470</ele>
        <time>2010-01-01T18:02:02Z</time>
      </trkpt>
      <trkpt lat="44.194940" lon="3.497110">
        <ele>939.46</ele>
        <time>2010-01-01T18:02:05Z</time>
      </trkpt>
      <trkpt lat="44.195210" lon="3.497080">
        <ele>940.204651</ele>
        <time>2010-01-01T18:02:11Z</time>
      </trkpt>
      <trkpt lat="44.195350" lon="3.497120">
        <ele>941.432556</ele>
        <time>2010-01-01T18:02:44Z</time>
      </trkpt>
      <trkpt lat="44.195520" lon="3.497280">
        <ele>942.873474</ele>
        <time>2010-01-01T18:02:51Z</time>
      </trkpt>
      <trkpt lat="44.196050" lon="3.498230">
        <ele>950.425903</ele>
        <time>2010-01-01T18:02:55Z</time>
      </trkpt>
      <trkpt lat="44.196180" lon="3.498390">
        <ele>952.377991</ele>
        <time>2010-01-01T18:03:14Z</time>
      </trkpt>
      <trkpt lat="44.198210" lon="3.499850">
        <ele>959.828552</ele>
        <time>2010-01-01T18:03:27Z</time>
      </trkpt>
      <trkpt lat="44.198200" lon="3.499950">
        <ele>963.42</ele>
        <time>2010-01-01T18:03:56Z</time>
      </trkpt>
      <trkpt lat="44.198110" lon="3.499970">
        <ele>963.42</ele>
        <time>2010-01-01T18:04:35Z</time>
      </trkpt>
      <trkpt lat="44.197510" lon="3.499520">
        <ele>963.598755</ele>
        <time>2010-01-01T18:04:42Z</time>
      </trkpt>
      <trkpt lat="44.196520" lon="3.498970">
        <ele>964.292725</ele>
        <time>2010-01-01T18:05:00Z</time>
      </trkpt>
      <trkpt lat="44.196290" lon="3.498970">
        <ele>968.35</ele>
        <time>2010-01-01T18:05:12Z</time>
      </trkpt>
      <trkpt lat="44.195830" lon="3.499070">
        <ele>968.35</ele>
        <time>2010-01-01T18:05:22Z</time>
      </trkpt>
      <trkpt lat="44.195690" lon="3.499140">
        <ele>968.35</ele>
        <time>2010-01-01T18:05:30Z</time>
      </trkpt>
      <trkpt lat="44.195620" lon="3.499330">
        <ele>968.229431</ele>
        <time>2010-01-01T18:05:39Z</time>
      </trkpt>
      <trkpt lat="44.195660" lon="3.499470">
        <ele>969.00</ele>
        <time>2010-01-01T18:05:46Z</time>
      </trkpt>
      <trkpt lat="44.196700" lon="3.501150">
        <ele>976.06</ele>
        <time>2010-01-01T18:06:05Z</time>
      </trkpt>
      <trkpt lat="44.197260" lon="3.502240">
        <ele>979.275757</ele>
        <time>2010-01-01T18:06:19Z</time>
      </trkpt>
      <trkpt lat="44.197960" lon="3.503340">
        <ele>983.884033</ele>
        <time>2010-01-01T18:06:25Z</time>
      </trkpt>
      <trkpt lat="44.198100" lon="3.503490">
        <ele>983.042786</ele>
        <time>2010-01-01T18:06:31Z</time>
      </trkpt>
      <trkpt lat="44.198540" lon="3.503730">
        <ele>990.443604</ele>
        <time>2010-01-01T18:07:09Z</time>
      </trkpt>
      <trkpt lat="44.198680" lon="3.503910">
        <ele>992.203979</ele>
        <time>2010-01-01T18:07:19Z</time>
      </trkpt>
      <trkpt lat="44.198750" lon="3.504090">
        <ele>993.25</ele>
        <time>2010-01-01T18:07:45Z</time>
      </trkpt>
      <trkpt lat="44.198860" lon="3.504710">
        <ele>994.80</ele>
        <time>2010-01-01T18:07:59Z</time>
      </trkpt>
      <trkpt lat="44.199000" lon="3.505000">
        <ele>995.77</ele>
        <time>2010-01-01T18:08:06Z</time>
      </trkpt>
      <trkpt lat="44.199210" lon="3.505070">
        <ele>996.71</ele>
        <time>2010-01-01T18:08:12Z</time>
      </trkpt>
      <trkpt lat="44.199980" lon="3.504760">
        <ele>1000.97</ele>
        <time>2010-01-01T18:08:19Z</time>
      </trkpt>
      <trkpt lat="44.200060" lon="3.504800">
        <ele>1000.97</ele>
        <time>2010-01-01T18:08:33Z</time>
      </trkpt>
      <trkpt lat="44.200110" lon="3.504970">
        <ele>1000.97</ele>
        <time>2010-01-01T18:08:54Z</time>
      </trkpt>
      <trkpt lat="44.200130" lon="3.506120">
        <ele>1000.97</ele>
        <time>2010-01-01T18:09:33Z</time>
      </trkpt>
      <trkpt lat="44.200170" lon="3.506370">
        <ele>1001.957214</ele>
        <time>2010-01-01T18:10:03Z</time>
      </trkpt>
      <trkpt lat="44.200230" lon="3.506490">
        <ele>1004.59</ele>
        <time>2010-01-01T18:10:31Z</time>
      </trkpt>
      <trkpt lat="44.200600" lon="3.506890">
        <ele>1004.59</ele>
        <time>2010-01-01T18:10:53Z</time>
      </trkpt>
      <trkpt lat="44.200830" lon="3.507210">
        <ele>1004.881287</ele>
        <time>2010-01-01T18:11:08Z</time>
      </trkpt>
      <trkpt lat="44.201430" lon="3.507760">
        <ele>1004.59</ele>
        <time>2010-01-01T18:11:17Z</time>
      </trkpt>
      <trkpt lat="44.201692" lon="3.507740">
        <ele>1004.59</ele>
        <time>2010-01-01T18:11:49Z</time>
      </trkpt>
      <trkpt lat="44.201926" lon="3.507531">
        <ele>1004.006775</ele>
        <time>2010-01-01T18:12:00Z</time>
      </trkpt>
      <trkpt lat="44.202210" lon="3.507120">
        <ele>1010.98</ele>
        <time>2010-01-01T18:12:15Z</time>
      </trkpt>
      <trkpt lat="44.202370" lon="3.506980">
        <ele>1010.98</ele>
        <time>2010-01-01T18:12:28Z</time>
      </trkpt>
      <trkpt lat="44.202820" lon="3.506930">
        <ele>1010.92</ele>
        <time>2010-01-01T18:12:59Z</time>
      </trkpt>
      <trkpt lat="44.203100" lon="3.506840">
        <ele>1014.161438</ele>
        <time>2010-01-01T18:13:11Z</time>
      </trkpt>
      <trkpt lat="44.203350" lon="3.506860">
        <ele>1016.540527</ele>
        <time>2010-01-01T18:14:32Z</time>
      </trkpt>
      <trkpt lat="44.203550" lon="3.506940">
        <ele>1020.699402</ele>
        <time>2010-01-01T18:16:07Z</time>
      </trkpt>
      <trkpt lat="44.203700" lon="3.507160">
        <ele>1022.35</ele>
        <time>2010-01-01T18:16:17Z</time>
      </trkpt>
      <trkpt lat="44.203730" lon="3.507420">
        <ele>1022.33</ele>
        <time>2010-01-01T18:16:49Z</time>
      </trkpt>
      <trkpt lat="44.203600" lon="3.508030">
        <ele>1017.215332</ele>
        <time>2010-01-01T18:17:02Z</time>
      </trkpt>
      <trkpt lat="44.203430" lon="3.508450">
        <ele>1014.376526</ele>
        <time>2010-01-01T18:17:18Z</time>
      </trkpt>
      <trkpt lat="44.203500" lon="3.508660">
        <ele>1013.42</ele>
        <time>2010-01-01T18:17:41Z</time>
      </trkpt>
      <trkpt lat="44.203620" lon="3.508760">
        <ele>1012.10</ele>
        <time>2010-01-01T18:18:10Z</time>
      </trkpt>
      <trkpt lat="44.204550" lon="3.509130">
        <ele>1012.033203</ele>
        <time>2010-01-01T18:18:41Z</time>
      </trkpt>
      <trkpt lat="44.204790" lon="3.509130">
        <ele>1012.01</ele>
        <time>2010-01-01T18:18:59Z</time>
      </trkpt>
      <trkpt lat="44.205420" lon="3.509000">
        <ele>1018.64</ele>
        <time>2010-01-01T18:19:24Z</time>
      </trkpt>
      <trkpt lat="44.205780" lon="3.509080">
        <ele>1019.25</ele>
        <time>2010-01-01T18:20:08Z</time>
      </trkpt>
      <trkpt lat="44.205910" lon="3.509250">
        <ele>1019.25</ele>
        <time>2010-01-01T18:20:33Z</time>
      </trkpt>
      <trkpt lat="44.205930" lon="3.509450">
        <ele>1019.25</ele>
        <time>2010-01-01T18:20:42Z</time>
      </trkpt>
      <trkpt lat="44.205890" lon="3.509670">
        <ele>1019.25</ele>
        <time>2010-01-01T18:21:01Z</time>
      </trkpt>
      <trkpt lat="44.205720" lon="3.510100">
        <ele>1022.373230</ele>
        <time>2010-01-01T18:21:14Z</time>
      </trkpt>
      <trkpt lat="44.205400" lon="3.510680">
        <ele>1022.970703</ele>
        <time>2010-01-01T18:21:23Z</time>
      </trkpt>
      <trkpt lat="44.204910" lon="3.511850">
        <ele>1025.218872</ele>
        <time>2010-01-01T18:21:29Z</time>
      </trkpt>
      <trkpt lat="44.204790" lon="3.512900">
        <ele>1027.557251</ele>
        <time>2010-01-01T18:21:39Z</time>
      </trkpt>
      <trkpt lat="44.204520" lon="3.513810">
        <ele>1029.760254</ele>
        <time>2010-01-01T18:21:49Z</time>
      </trkpt>
      <trkpt lat="44.204430" lon="3.514560">
        <ele>1033.309937</ele>
        <time>2010-01-01T18:21:57Z</time>
      </trkpt>
      <trkpt lat="44.204170" lon="3.514920">
        <ele>1033.346313</ele>
        <time>2010-01-01T18:22:09Z</time>
      </trkpt>
      <trkpt lat="44.203940" lon="3.514950">
        <ele>1033.53</ele>
        <time>2010-01-01T18:22:17Z</time>
      </trkpt>
      <trkpt lat="44.203200" lon="3.514520">
        <ele>1033.53</ele>
        <time>2010-01-01T18:22:24Z</time>
      </trkpt>
      <trkpt lat="44.202930" lon="3.514550">
        <ele>1033.91</ele>
        <time>2010-01-01T18:22:38Z</time>
      </trkpt>
      <trkpt lat="44.202580" lon="3.514700">
        <ele>1037.578735</ele>
        <time>2010-01-01T18:22:44Z</time>
      </trkpt>
      <trkpt lat="44.202260" lon="3.514760">
        <ele>1038.43</ele>
        <time>2010-01-01T18:23:02Z</time>
      </trkpt>
      <trkpt lat="44.201500" lon="3.514500">
        <ele>1038.43</ele>
        <time>2010-01-01T18:23:28Z</time>
      </trkpt>
      <trkpt lat="44.201190" lon="3.514520">
        <ele>1038.737793</ele>
        <time>2010-01-01T18:23:35Z</time>
      </trkpt>
      <trkpt lat="44.199540" lon="3.516160">
        <ele>1048.518799</ele>
        <time>2010-01-01T18:23:56Z</time>
      </trkpt>
      <trkpt lat="44.197290" lon="3.517180">
        <ele>1052.67</ele>
        <time>2010-01-01T18:24:04Z</time>
      </trkpt>
      <trkpt lat="44.197120" lon="3.517440">
        <ele>1052.76</ele>
        <time>2010-01-01T18:24:12Z</time>
      </trkpt>
      <trkpt lat="44.196830" lon="3.518460">
        <ele>1051.351318</ele>
        <time>2010-01-01T18:24:29Z</time>
      </trkpt>
      <trkpt lat="44.196660" lon="3.518840">
        <ele>1050.086426</ele>
        <time>2010-01-01T18:24:52Z</time>
      </trkpt>
      <trkpt lat="44.196370" lon="3.519240">
        <ele>1047.696899</ele>
        <time>2010-01-01T18:25:02Z</time>
      </trkpt>
      <trkpt lat="44.195900" lon="3.519690">
        <ele>1044.939941</ele>
        <time>2010-01-01T18:25:12Z</time>
      </trkpt>
      <trkpt lat="44.195210" lon="3.519990">
        <ele>1039.79</ele>
        <time>2010-01-01T18:26:02Z</time>
      </trkpt>
      <trkpt lat="44.194450" lon="3.520170">
        <ele>1039.79</ele>
        <time>2010-01-01T18:26:19Z</time>
      </trkpt>
      <trkpt lat="44.194000" lon="3.520190">
        <ele>1039.79</ele>
        <time>2010-01-01T18:26:27Z</time>
      </trkpt>
      <trkpt lat="44.193370" lon="3.520140">
        <ele>1039.79</ele>
        <time>2010-01-01T18:26:42Z</time>
      </trkpt>
      <trkpt lat="44.192270" lon="3.520300">
        <ele>1046.46</ele>
        <time>2010-01-01T18:27:04Z</time>
      </trkpt>
      <trkpt lat="44.191650" lon="3.520240">
        <ele>1054.554077</ele>
        <time>2010-01-01T18:27:28Z</time>
      </trkpt>
      <trkpt lat="44.191450" lon="3.520350">
        <ele>1058.593750</ele>
        <time>2010-01-01T18:27:58Z</time>
      </trkpt>
      <trkpt lat="44.191040" lon="3.520700">
        <ele>1067.901367</ele>
        <time>2010-01-01T18:28:23Z</time>
      </trkpt>
      <trkpt lat="44.190720" lon="3.520800">
        <ele>1071.559326</ele>
        <time>2010-01-01T18:28:39Z</time>
      </trkpt>
      <trkpt lat="44.190490" lon="3.520760">
        <ele>1072.87</ele>
        <time>2010-01-01T18:28:53Z</time>
      </trkpt>
      <trkpt lat="44.190400" lon="3.520590">
        <ele>1071.95</ele>
        <time>2010-01-01T18:29:41Z</time>
      </trkpt>
      <trkpt lat="44.190380" lon="3.520260">
        <ele>1071.95</ele>
        <time>2010-01-01T18:29:48Z</time>
      </trkpt>
      <trkpt lat="44.190300" lon="3.519930">
        <ele>1071.95</ele>
        <time>2010-01-01T18:30:07Z</time>
      </trkpt>
      <trkpt lat="44.190160" lon="3.519730">
        <ele>1071.625366</ele>
        <time>2010-01-01T18:30:15Z</time>
      </trkpt>
      <trkpt lat="44.189890" lon="3.519550">
        <ele>1077.101685</ele>
        <time>2010-01-01T18:30:53Z</time>
      </trkpt>
      <trkpt lat="44.189730" lon="3.519360">
        <ele>1081.079712</ele>
        <time>2010-01-01T18:31:19Z</time>
      </trkpt>
      <trkpt lat="44.189690" lon="3.519130">
        <ele>1083.618896</ele>
        <time>2010-01-01T18:31:42Z</time>
      </trkpt>
      <trkpt lat="44.189710" lon="3.518650">
        <ele>1085.293457</ele>
        <time>2010-01-01T18:32:29Z</time>
      </trkpt>
      <trkpt lat="44.189660" lon="3.518450">
        <ele>1089.010010</ele>
        <time>2010-01-01T18:32:55Z</time>
      </trkpt>
      <trkpt lat="44.189450" lon="3.517880">
        <ele>1095.805786</ele>
        <time>2010-01-01T18:33:03Z</time>
      </trkpt>
      <trkpt lat="44.189090" lon="3.517140">
        <ele>1102.076660</ele>
        <time>2010-01-01T18:33:27Z</time>
      </trkpt>
      <trkpt lat="44.189090" lon="3.516900">
        <ele>1102.651123</ele>
        <time>2010-01-01T18:33:44Z</time>
      </trkpt>
      <trkpt lat="44.189260" lon="3.516210">
        <ele>1102.886475</ele>
        <time>2010-01-01T18:33:51Z</time>
      </trkpt>
      <trkpt lat="44.189250" lon="3.515910">
        <ele>1104.186768</ele>
        <time>2010-01-01T18:34:17Z</time>
      </trkpt>
      <trkpt lat="44.189190" lon="3.515670">
        <ele>1105.990723</ele>
        <time>2010-01-01T18:34:32Z</time>
      </trkpt>
      <trkpt lat="44.188930" lon="3.515180">
        <ele>1106.50</ele>
        <time>2010-01-01T18:34:54Z</time>
      </trkpt>
      <trkpt lat="44.188550" lon="3.514610">
        <ele>1106.50</ele>
        <time>2010-01-01T18:35:11Z</time>
      </trkpt>
      <trkpt lat="44.188320" lon="3.514470">
        <ele>1106.100708</ele>
        <time>2010-01-01T18:35:18Z</time>
      </trkpt>
      <trkpt lat="44.188050" lon="3.514460">
        <ele>1110.162109</ele>
        <time>2010-01-01T18:35:41Z</time>
      </trkpt>
      <trkpt lat="44.186820" lon="3.514630">
        <ele>1120.752441</ele>
        <time>2010-01-01T18:36:07Z</time>
      </trkpt>
      <trkpt lat="44.186460" lon="3.514970">
        <ele>1124.566284</ele>
        <time>2010-01-01T18:36:12Z</time>
      </trkpt>
      <trkpt lat="44.186340" lon="3.515180">
        <ele>1125.85</ele>
        <time>2010-01-01T18:36:22Z</time>
      </trkpt>
      <trkpt lat="44.186220" lon="3.515660">
        <ele>1128.106567</ele>
        <time>2010-01-01T18:36:33Z</time>
      </trkpt>
      <trkpt lat="44.186200" lon="3.516450">
        <ele>1130.348633</ele>
        <time>2010-01-01T18:38:01Z</time>
      </trkpt>
      <trkpt lat="44.186310" lon="3.517270">
        <ele>1135.552490</ele>
        <time>2010-01-01T18:38:26Z</time>
      </trkpt>
      <trkpt lat="44.186240" lon="3.518300">
        <ele>1141.137817</ele>
        <time>2010-01-01T18:38:37Z</time>
      </trkpt>
      <trkpt lat="44.186240" lon="3.519170">
        <ele>1145.334351</ele>
        <time>2010-01-01T18:38:42Z</time>
      </trkpt>
      <trkpt lat="44.186150" lon="3.519710">
        <ele>1145.873413</ele>
        <time>2010-01-01T18:39:20Z</time>
      </trkpt>
      <trkpt lat="44.186010" lon="3.520160">
        <ele>1145.854858</ele>
        <time>2010-01-01T18:39:31Z</time>
      </trkpt>
      <trkpt lat="44.185390" lon="3.521610">
        <ele>1156.535034</ele>
        <time>2010-01-01T18:39:36Z</time>
      </trkpt>
      <trkpt lat="44.185260" lon="3.521770">
        <ele>1157.12</ele>
        <time>2010-01-01T18:39:42Z</time>
      </trkpt>
      <trkpt lat="44.184830" lon="3.521990">
        <ele>1157.12</ele>
        <time>2010-01-01T18:40:00Z</time>
      </trkpt>
      <trkpt lat="44.184650" lon="3.522150">
        <ele>1157.12</ele>
        <time>2010-01-01T18:40:12Z</time>
      </trkpt>
      <trkpt lat="44.184010" lon="3.523100">
        <ele>1159.179565</ele>
        <time>2010-01-01T18:40:21Z</time>
      </trkpt>
      <trkpt lat="44.183600" lon="3.523840">
        <ele>1168.237427</ele>
        <time>2010-01-01T18:40:30Z</time>
      </trkpt>
      <trkpt lat="44.183210" lon="3.524390">
        <ele>1169.637573</ele>
        <time>2010-01-01T18:40:45Z</time>
      </trkpt>
      <trkpt lat="44.182500" lon="3.525730">
        <ele>1173.59</ele>
        <time>2010-01-01T18:40:53Z</time>
      </trkpt>
      <trkpt lat="44.182070" lon="3.526410">
        <ele>1175.993774</ele>
        <time>2010-01-01T18:41:12Z</time>
      </trkpt>
      <trkpt lat="44.181970" lon="3.526640">
        <ele>1176.109985</ele>
        <time>2010-01-01T18:41:25Z</time>
      </trkpt>
      <trkpt lat="44.181710" lon="3.527380">
        <ele>1177.663696</ele>
        <time>2010-01-01T18:41:37Z</time>
      </trkpt>
      <trkpt lat="44.181600" lon="3.527940">
        <ele>1182.150269</ele>
        <time>2010-01-01T18:41:49Z</time>
      </trkpt>
      <trkpt lat="44.181510" lon="3.528170">
        <ele>1184.943848</ele>
        <time>2010-01-01T18:42:00Z</time>
      </trkpt>
      <trkpt lat="44.180950" lon="3.528630">
        <ele>1185.87</ele>
        <time>2010-01-01T18:42:46Z</time>
      </trkpt>
      <trkpt lat="44.180740" lon="3.529070">
        <ele>1186.49</ele>
        <time>2010-01-01T18:42:56Z</time>
      </trkpt>
      <trkpt lat="44.180540" lon="3.529790">
        <ele>1195.376587</ele>
        <time>2010-01-01T18:45:02Z</time>
      </trkpt>
      <trkpt lat="44.180280" lon="3.530260">
        <ele>1197.29</ele>
        <time>2010-01-01T18:45:55Z</time>
      </trkpt>
      <trkpt lat="44.180110" lon="3.530320">
        <ele>1198.475586</ele>
        <time>2010-01-01T18:47:26Z</time>
      </trkpt>
      <trkpt lat="44.179550" lon="3.530320">
        <ele>1199.57</ele>
        <time>2010-01-01T18:47:41Z</time>
      </trkpt>
      <trkpt lat="44.178920" lon="3.530490">
        <ele>1203.940430</ele>
        <time>2010-01-01T18:48:13Z</time>
      </trkpt>
      <trkpt lat="44.178820" lon="3.530590">
        <ele>1204.820435</ele>
        <time>2010-01-01T18:48:27Z</time>
      </trkpt>
      <trkpt lat="44.178670" lon="3.530890">
        <ele>1208.322144</ele>
        <time>2010-01-01T18:48:56Z</time>
      </trkpt>
      <trkpt lat="44.178420" lon="3.531070">
        <ele>1209.55</ele>
        <time>2010-01-01T18:49:09Z</time>
      </trkpt>
      <trkpt lat="44.177483" lon="3.530954">
        <ele>1209.55</ele>
        <time>2010-01-01T18:49:22Z</time>
      </trkpt>
      <trkpt lat="44.176917" lon="3.531123">
        <ele>1209.55</ele>
        <time>2010-01-01T18:49:52Z</time>
      </trkpt>
      <trkpt lat="44.176845" lon="3.531384">
        <ele>1211.80</ele>
        <time>2010-01-01T18:49:58Z</time>
      </trkpt>
      <trkpt lat="44.176890" lon="3.532140">
        <ele>1213.770752</ele>
        <time>2010-01-01T18:50:09Z</time>
      </trkpt>
      <trkpt lat="44.176860" lon="3.533010">
        <ele>1220.76</ele>
        <time>2010-01-01T18:50:19Z</time>
      </trkpt>
      <trkpt lat="44.176810" lon="3.533380">
        <ele>1220.76</ele>
        <time>2010-01-01T18:50:27Z</time>
      </trkpt>
      <trkpt lat="44.176710" lon="3.533490">
        <ele>1221.53</ele>
        <time>2010-01-01T18:50:45Z</time>
      </trkpt>
      <trkpt lat="44.176450" lon="3.533546">
        <ele>1221.53</ele>
        <time>2010-01-01T18:50:59Z</time>
      </trkpt>
      <trkpt lat="44.176261" lon="3.533820">
        <ele>1221.53</ele>
        <time>2010-01-01T18:51:09Z</time>
      </trkpt>
      <trkpt lat="44.176090" lon="3.534390">
        <ele>1221.53</ele>
        <time>2010-01-01T18:51:23Z</time>
      </trkpt>
      <trkpt lat="44.176060" lon="3.534760">
        <ele>1221.53</ele>
        <time>2010-01-01T18:51:30Z</time>
      </trkpt>
      <trkpt lat="44.176080" lon="3.534930">
        <ele>1221.53</ele>
        <time>2010-01-01T18:51:43Z</time>
      </trkpt>
      <trkpt lat="44.176160" lon="3.535110">
        <ele>1215.66</ele>
        <time>2010-01-01T18:51:52Z</time>
      </trkpt>
      <trkpt lat="44.176560" lon="3.535380">
        <ele>1221.53</ele>
        <time>2010-01-01T18:52:12Z</time>
      </trkpt>
      <trkpt lat="44.176740" lon="3.535700">
        <ele>1224.84</ele>
        <time>2010-01-01T18:52:17Z</time>
      </trkpt>
      <trkpt lat="44.176860" lon="3.535980">
        <ele>1224.447632</ele>
        <time>2010-01-01T18:52:50Z</time>
      </trkpt>
      <trkpt lat="44.176850" lon="3.536280">
        <ele>1224.956055</ele>
        <time>2010-01-01T18:52:56Z</time>
      </trkpt>
      <trkpt lat="44.176680" lon="3.536750">
        <ele>1222.916504</ele>
        <time>2010-01-01T18:53:04Z</time>
      </trkpt>
      <trkpt lat="44.176530" lon="3.536960">
        <ele>1222.622925</ele>
        <time>2010-01-01T18:53:12Z</time>
      </trkpt>
      <trkpt lat="44.176160" lon="3.537350">
        <ele>1220.861572</ele>
        <time>2010-01-01T18:53:29Z</time>
      </trkpt>
      <trkpt lat="44.175840" lon="3.537500">
        <ele>1219.70</ele>
        <time>2010-01-01T18:53:52Z</time>
      </trkpt>
      <trkpt lat="44.175630" lon="3.537800">
        <ele>1219.49</ele>
        <time>2010-01-01T18:54:32Z</time>
      </trkpt>
      <trkpt lat="44.175510" lon="3.538160">
        <ele>1221.15</ele>
        <time>2010-01-01T18:54:52Z</time>
      </trkpt>
      <trkpt lat="44.175440" lon="3.538550">
        <ele>1221.15</ele>
        <time>2010-01-01T18:54:56Z</time>
      </trkpt>
      <trkpt lat="44.175460" lon="3.540130">
        <ele>1221.15</ele>
        <time>2010-01-01T18:55:04Z</time>
      </trkpt>
      <trkpt lat="44.175360" lon="3.540460">
        <ele>1220.15</ele>
        <time>2010-01-01T18:55:15Z</time>
      </trkpt>
      <trkpt lat="44.174703" lon="3.540854">
        <ele>1215.41</ele>
        <time>2010-01-01T18:55:23Z</time>
      </trkpt>
      <trkpt lat="44.172540" lon="3.542390">
        <ele>1208.00</ele>
        <time>2010-01-01T18:55:42Z</time>
      </trkpt>
      <trkpt lat="44.171410" lon="3.543360">
        <ele>1206.98</ele>
        <time>2010-01-01T18:56:14Z</time>
      </trkpt>
      <trkpt lat="44.169500" lon="3.545120">
        <ele>1203.132813</ele>
        <time>2010-01-01T18:56:37Z</time>
      </trkpt>
      <trkpt lat="44.169160" lon="3.545310">
        <ele>1202.067383</ele>
        <time>2010-01-01T18:56:50Z</time>
      </trkpt>
      <trkpt lat="44.168400" lon="3.545610">
        <ele>1198.233765</ele>
        <time>2010-01-01T18:57:00Z</time>
      </trkpt>
      <trkpt lat="44.168110" lon="3.545880">
        <ele>1197.688110</ele>
        <time>2010-01-01T18:57:11Z</time>
      </trkpt>
      <trkpt lat="44.167670" lon="3.546710">
        <ele>1196.54</ele>
        <time>2010-01-01T18:57:17Z</time>
      </trkpt>
      <trkpt lat="44.167420" lon="3.546960">
        <ele>1195.62</ele>
        <time>2010-01-01T18:57:29Z</time>
      </trkpt>
      <trkpt lat="44.167110" lon="3.547160">
        <ele>1195.427002</ele>
        <time>2010-01-01T18:58:08Z</time>
      </trkpt>
      <trkpt lat="44.166380" lon="3.547330">
        <ele>1191.854614</ele>
        <time>2010-01-01T18:58:29Z</time>
      </trkpt>
      <trkpt lat="44.166250" lon="3.547410">
        <ele>1190.18</ele>
        <time>2010-01-01T18:58:45Z</time>
      </trkpt>
      <trkpt lat="44.166040" lon="3.547670">
        <ele>1190.18</ele>
        <time>2010-01-01T18:59:04Z</time>
      </trkpt>
      <trkpt lat="44.165940" lon="3.548010">
        <ele>1190.432251</ele>
        <time>2010-01-01T18:59:41Z</time>
      </trkpt>
      <trkpt lat="44.165950" lon="3.548290">
        <ele>1191.798218</ele>
        <time>2010-01-01T18:59:53Z</time>
      </trkpt>
      <trkpt lat="44.166110" lon="3.548860">
        <ele>1192.596924</ele>
        <time>2010-01-01T19:00:11Z</time>
      </trkpt>
      <trkpt lat="44.166090" lon="3.549360">
        <ele>1193.694336</ele>
        <time>2010-01-01T19:00:42Z</time>
      </trkpt>
      <trkpt lat="44.165970" lon="3.549640">
        <ele>1194.26</ele>
        <time>2010-01-01T19:00:57Z</time>
      </trkpt>
      <trkpt lat="44.165710" lon="3.549970">
        <ele>1194.26</ele>
        <time>2010-01-01T19:01:11Z</time>
      </trkpt>
      <trkpt lat="44.165560" lon="3.550110">
        <ele>1194.26</ele>
        <time>2010-01-01T19:01:31Z</time>
      </trkpt>
      <trkpt lat="44.165240" lon="3.550210">
        <ele>1195.628418</ele>
        <time>2010-01-01T19:01:44Z</time>
      </trkpt>
      <trkpt lat="44.165010" lon="3.550190">
        <ele>1197.095337</ele>
        <time>2010-01-01T19:02:04Z</time>
      </trkpt>
      <trkpt lat="44.164570" lon="3.549910">
        <ele>1200.578003</ele>
        <time>2010-01-01T19:02:15Z</time>
      </trkpt>
      <trkpt lat="44.164470" lon="3.549770">
        <ele>1201.96</ele>
        <time>2010-01-01T19:02:58Z</time>
      </trkpt>
      <trkpt lat="44.164080" lon="3.548770">
        <ele>1201.96</ele>
        <time>2010-01-01T19:03:04Z</time>
      </trkpt>
      <trkpt lat="44.163990" lon="3.548620">
        <ele>1201.376587</ele>
        <time>2010-01-01T19:03:10Z</time>
      </trkpt>
      <trkpt lat="44.163790" lon="3.548500">
        <ele>1202.805542</ele>
        <time>2010-01-01T19:03:39Z</time>
      </trkpt>
      <trkpt lat="44.163590" lon="3.548520">
        <ele>1204.305542</ele>
        <time>2010-01-01T19:04:00Z</time>
      </trkpt>
      <trkpt lat="44.163190" lon="3.548690">
        <ele>1206.58</ele>
        <time>2010-01-01T19:04:17Z</time>
      </trkpt>
      <trkpt lat="44.162630" lon="3.548580">
        <ele>1208.48</ele>
        <time>2010-01-01T19:04:33Z</time>
      </trkpt>
      <trkpt lat="44.161740" lon="3.549190">
        <ele>1220.853149</ele>
        <time>2010-01-01T19:04:46Z</time>
      </trkpt>
      <trkpt lat="44.161240" lon="3.549320">
        <ele>1222.71</ele>
        <time>2010-01-01T19:04:52Z</time>
      </trkpt>
      <trkpt lat="44.161150" lon="3.549320">
        <ele>1222.554565</ele>
        <time>2010-01-01T19:05:03Z</time>
      </trkpt>
      <trkpt lat="44.160960" lon="3.549200">
        <ele>1227.06</ele>
        <time>2010-01-01T19:05:35Z</time>
      </trkpt>
      <trkpt lat="44.160820" lon="3.548850">
        <ele>1228.538330</ele>
        <time>2010-01-01T19:05:40Z</time>
      </trkpt>
      <trkpt lat="44.160770" lon="3.548610">
        <ele>1229.93</ele>
        <time>2010-01-01T19:06:14Z</time>
      </trkpt>
      <trkpt lat="44.160710" lon="3.547950">
        <ele>1234.19</ele>
        <time>2010-01-01T19:06:22Z</time>
      </trkpt>
      <trkpt lat="44.160810" lon="3.546820">
        <ele>1238.727539</ele>
        <time>2010-01-01T19:06:26Z</time>
      </trkpt>
      <trkpt lat="44.160940" lon="3.546070">
        <ele>1242.275513</ele>
        <time>2010-01-01T19:06:31Z</time>
      </trkpt>
      <trkpt lat="44.160980" lon="3.545600">
        <ele>1244.629395</ele>
        <time>2010-01-01T19:06:38Z</time>
      </trkpt>
      <trkpt lat="44.160920" lon="3.545280">
        <ele>1244.162354</ele>
        <time>2010-01-01T19:07:08Z</time>
      </trkpt>
      <trkpt lat="44.160720" lon="3.544990">
        <ele>1247.315552</ele>
        <time>2010-01-01T19:07:15Z</time>
      </trkpt>
      <trkpt lat="44.160590" lon="3.544890">
        <ele>1247.127563</ele>
        <time>2010-01-01T19:07:25Z</time>
      </trkpt>
      <trkpt lat="44.160290" lon="3.544790">
        <ele>1249.99</ele>
        <time>2010-01-01T19:07:32Z</time>
      </trkpt>
      <trkpt lat="44.159330" lon="3.544980">
        <ele>1260.56</ele>
        <time>2010-01-01T19:07:43Z</time>
      </trkpt>
      <trkpt lat="44.158810" lon="3.544870">
        <ele>1261.66</ele>
        <time>2010-01-01T19:07:53Z</time>
      </trkpt>
      <trkpt lat="44.158430" lon="3.544890">
        <ele>1263.54</ele>
        <time>2010-01-01T19:08:24Z</time>
      </trkpt>
      <trkpt lat="44.157950" lon="3.545050">
        <ele>1267.136597</ele>
        <time>2010-01-01T19:08:33Z</time>
      </trkpt>
      <trkpt lat="44.157080" lon="3.545470">
        <ele>1274.345459</ele>
        <time>2010-01-01T19:08:39Z</time>
      </trkpt>
      <trkpt lat="44.156830" lon="3.545710">
        <ele>1277.995483</ele>
        <time>2010-01-01T19:09:01Z</time>
      </trkpt>
      <trkpt lat="44.156510" lon="3.546160">
        <ele>1281.829102</ele>
        <time>2010-01-01T19:09:10Z</time>
      </trkpt>
      <trkpt lat="44.156130" lon="3.547070">
        <ele>1288.61</ele>
        <time>2010-01-01T19:09:35Z</time>
      </trkpt>
      <trkpt lat="44.155900" lon="3.547480">
        <ele>1291.672485</ele>
        <time>2010-01-01T19:10:01Z</time>
      </trkpt>
      <trkpt lat="44.155590" lon="3.547740">
        <ele>1293.87</ele>
        <time>2010-01-01T19:10:24Z</time>
      </trkpt>
      <trkpt lat="44.155120" lon="3.547940">
        <ele>1295.101685</ele>
        <time>2010-01-01T19:10:40Z</time>
      </trkpt>
      <trkpt lat="44.154820" lon="3.548160">
        <ele>1296.24</ele>
        <time>2010-01-01T19:10:49Z</time>
      </trkpt>
      <trkpt lat="44.154500" lon="3.548670">
        <ele>1299.917480</ele>
        <time>2010-01-01T19:11:01Z</time>
      </trkpt>
      <trkpt lat="44.154240" lon="3.548770">
        <ele>1300.86</ele>
        <time>2010-01-01T19:11:33Z</time>
      </trkpt>
      <trkpt lat="44.153150" lon="3.548650">
        <ele>1300.86</ele>
        <time>2010-01-01T19:11:59Z</time>
      </trkpt>
      <trkpt lat="44.153020" lon="3.548690">
        <ele>1301.472656</ele>
        <time>2010-01-01T19:13:12Z</time>
      </trkpt>
      <trkpt lat="44.152860" lon="3.548760">
        <ele>1302.905640</ele>
        <time>2010-01-01T19:13:23Z</time>
      </trkpt>
      <trkpt lat="44.152240" lon="3.549240">
        <ele>1311.112549</ele>
        <time>2010-01-01T19:13:53Z</time>
      </trkpt>
      <trkpt lat="44.151850" lon="3.549750">
        <ele>1314.628540</ele>
        <time>2010-01-01T19:14:41Z</time>
      </trkpt>
      <trkpt lat="44.151630" lon="3.550230">
        <ele>1317.891113</ele>
        <time>2010-01-01T19:15:44Z</time>
      </trkpt>
      <trkpt lat="44.151460" lon="3.550730">
        <ele>1321.479126</ele>
        <time>2010-01-01T19:16:10Z</time>
      </trkpt>
      <trkpt lat="44.151390" lon="3.551190">
        <ele>1324.280518</ele>
        <time>2010-01-01T19:16:42Z</time>
      </trkpt>
      <trkpt lat="44.151400" lon="3.551410">
        <ele>1325.111938</ele>
        <time>2010-01-01T19:17:05Z</time>
      </trkpt>
      <trkpt lat="44.151480" lon="3.551770">
        <ele>1328.584717</ele>
        <time>2010-01-01T19:17:14Z</time>
      </trkpt>
      <trkpt lat="44.151920" lon="3.552690">
        <ele>1338.266602</ele>
        <time>2010-01-01T19:17:41Z</time>
      </trkpt>
      <trkpt lat="44.151960" lon="3.552840">
        <ele>1338.724365</ele>
        <time>2010-01-01T19:18:51Z</time>
      </trkpt>
      <trkpt lat="44.152040" lon="3.554050">
        <ele>1342.112549</ele>
        <time>2010-01-01T19:19:08Z</time>
      </trkpt>
      <trkpt lat="44.152000" lon="3.554290">
        <ele>1343.888916</ele>
        <time>2010-01-01T19:19:27Z</time>
      </trkpt>
      <trkpt lat="44.151930" lon="3.554400">
        <ele>1345.07</ele>
        <time>2010-01-01T19:19:42Z</time>
      </trkpt>
      <trkpt lat="44.151820" lon="3.554500">
        <ele>1345.07</ele>
        <time>2010-01-01T19:19:49Z</time>
      </trkpt>
      <trkpt lat="44.151640" lon="3.554490">
        <ele>1345.07</ele>
        <time>2010-01-01T19:19:56Z</time>
      </trkpt>
      <trkpt lat="44.150980" lon="3.554020">
        <ele>1339.51</ele>
        <time>2010-01-01T19:20:19Z</time>
      </trkpt>
      <trkpt lat="44.150800" lon="3.554000">
        <ele>1340.819092</ele>
        <time>2010-01-01T19:20:35Z</time>
      </trkpt>
      <trkpt lat="44.150570" lon="3.554120">
        <ele>1343.798584</ele>
        <time>2010-01-01T19:20:45Z</time>
      </trkpt>
      <trkpt lat="44.150440" lon="3.554280">
        <ele>1346.231934</ele>
        <time>2010-01-01T19:20:51Z</time>
      </trkpt>
      <trkpt lat="44.150290" lon="3.554610">
        <ele>1349.902100</ele>
        <time>2010-01-01T19:20:56Z</time>
      </trkpt>
      <trkpt lat="44.150250" lon="3.554950">
        <ele>1352.934570</ele>
        <time>2010-01-01T19:21:14Z</time>
      </trkpt>
      <trkpt lat="44.150220" lon="3.556040">
        <ele>1365.285034</ele>
        <time>2010-01-01T19:21:36Z</time>
      </trkpt>
      <trkpt lat="44.150150" lon="3.556310">
        <ele>1374.043213</ele>
        <time>2010-01-01T19:21:48Z</time>
      </trkpt>
      <trkpt lat="44.149990" lon="3.556390">
        <ele>1374.15</ele>
        <time>2010-01-01T19:22:10Z</time>
      </trkpt>
      <trkpt lat="44.149460" lon="3.556370">
        <ele>1374.15</ele>
        <time>2010-01-01T19:22:25Z</time>
      </trkpt>
      <trkpt lat="44.149220" lon="3.556440">
        <ele>1374.15</ele>
        <time>2010-01-01T19:22:43Z</time>
      </trkpt>
      <trkpt lat="44.148700" lon="3.556900">
        <ele>1374.550049</ele>
        <time>2010-01-01T19:22:57Z</time>
      </trkpt>
      <trkpt lat="44.148250" lon="3.557540">
        <ele>1381.12</ele>
        <time>2010-01-01T19:23:08Z</time>
      </trkpt>
      <trkpt lat="44.147700" lon="3.557770">
        <ele>1381.12</ele>
        <time>2010-01-01T19:23:18Z</time>
      </trkpt>
      <trkpt lat="44.147360" lon="3.558080">
        <ele>1382.81</ele>
        <time>2010-01-01T19:24:01Z</time>
      </trkpt>
      <trkpt lat="44.147200" lon="3.558320">
        <ele>1382.81</ele>
        <time>2010-01-01T19:24:12Z</time>
      </trkpt>
      <trkpt lat="44.147050" lon="3.558660">
        <ele>1382.81</ele>
        <time>2010-01-01T19:24:24Z</time>
      </trkpt>
      <trkpt lat="44.146820" lon="3.559720">
        <ele>1393.86</ele>
        <time>2010-01-01T19:25:21Z</time>
      </trkpt>
      <trkpt lat="44.146350" lon="3.560360">
        <ele>1393.86</ele>
        <time>2010-01-01T19:25:32Z</time>
      </trkpt>
      <trkpt lat="44.145340" lon="3.562460">
        <ele>1403.785156</ele>
        <time>2010-01-01T19:25:58Z</time>
      </trkpt>
      <trkpt lat="44.145110" lon="3.562670">
        <ele>1404.51</ele>
        <time>2010-01-01T19:26:31Z</time>
      </trkpt>
      <trkpt lat="44.144410" lon="3.563100">
        <ele>1404.551147</ele>
        <time>2010-01-01T19:26:39Z</time>
      </trkpt>
      <trkpt lat="44.143360" lon="3.563860">
        <ele>1417.357910</ele>
        <time>2010-01-01T19:26:46Z</time>
      </trkpt>
      <trkpt lat="44.141850" lon="3.564460">
        <ele>1431.678345</ele>
        <time>2010-01-01T19:27:26Z</time>
      </trkpt>
      <trkpt lat="44.141210" lon="3.564640">
        <ele>1436.267456</ele>
        <time>2010-01-01T19:27:53Z</time>
      </trkpt>
      <trkpt lat="44.140410" lon="3.564630">
        <ele>1443.685791</ele>
        <time>2010-01-01T19:28:03Z</time>
      </trkpt>
      <trkpt lat="44.139830" lon="3.564770">
        <ele>1455.383789</ele>
        <time>2010-01-01T19:28:45Z</time>
      </trkpt>
      <trkpt lat="44.139610" lon="3.564740">
        <ele>1457.540039</ele>
        <time>2010-01-01T19:29:18Z</time>
      </trkpt>
      <trkpt lat="44.138960" lon="3.564470">
        <ele>1457.627441</ele>
        <time>2010-01-01T19:29:39Z</time>
      </trkpt>
      <trkpt lat="44.137210" lon="3.564410">
        <ele>1474.730713</ele>
        <time>2010-01-01T19:30:21Z</time>
      </trkpt>
      <trkpt lat="44.136840" lon="3.564180">
        <ele>1476.347168</ele>
        <time>2010-01-01T19:30:53Z</time>
      </trkpt>
      <trkpt lat="44.136410" lon="3.563830">
        <ele>1480.003906</ele>
        <time>2010-01-01T19:31:27Z</time>
      </trkpt>
      <trkpt lat="44.136140" lon="3.563480">
        <ele>1484.687500</ele>
        <time>2010-01-01T19:31:40Z</time>
      </trkpt>
      <trkpt lat="44.136070" lon="3.563280">
        <ele>1485.809937</ele>
        <time>2010-01-01T19:31:46Z</time>
      </trkpt>
      <trkpt lat="44.136060" lon="3.563030">
        <ele>1486.510376</ele>
        <time>2010-01-01T19:32:05Z</time>
      </trkpt>
      <trkpt lat="44.136180" lon="3.562230">
        <ele>1489.013672</ele>
        <time>2010-01-01T19:32:14Z</time>
      </trkpt>
      <trkpt lat="44.136180" lon="3.561670">
        <ele>1490.49</ele>
        <time>2010-01-01T19:32:48Z</time>
      </trkpt>
      <trkpt lat="44.136030" lon="3.561390">
        <ele>1490.49</ele>
        <time>2010-01-01T19:33:22Z</time>
      </trkpt>
      <trkpt lat="44.135910" lon="3.561320">
        <ele>1490.49</ele>
        <time>2010-01-01T19:33:43Z</time>
      </trkpt>
      <trkpt lat="44.135770" lon="3.561320">
        <ele>1490.49</ele>
        <time>2010-01-01T19:35:00Z</time>
      </trkpt>
      <trkpt lat="44.135380" lon="3.561580">
        <ele>1490.49</ele>
        <time>2010-01-01T19:35:32Z</time>
      </trkpt>
      <trkpt lat="44.134970" lon="3.562110">
        <ele>1492.036865</ele>
        <time>2010-01-01T19:35:43Z</time>
      </trkpt>
      <trkpt lat="44.134820" lon="3.562490">
        <ele>1493.73</ele>
        <time>2010-01-01T19:35:47Z</time>
      </trkpt>
      <trkpt lat="44.134660" lon="3.563220">
        <ele>1495.910156</ele>
        <time>2010-01-01T19:35:56Z</time>
      </trkpt>
      <trkpt lat="44.134500" lon="3.563680">
        <ele>1495.896118</ele>
        <time>2010-01-01T19:36:03Z</time>
      </trkpt>
      <trkpt lat="44.134200" lon="3.564140">
        <ele>1496.18</ele>
        <time>2010-01-01T19:36:37Z</time>
      </trkpt>
      <trkpt lat="44.133930" lon="3.564440">
        <ele>1496.779663</ele>
        <time>2010-01-01T19:36:59Z</time>
      </trkpt>
      <trkpt lat="44.133660" lon="3.564510">
        <ele>1496.860596</ele>
        <time>2010-01-01T19:37:08Z</time>
      </trkpt>
      <trkpt lat="44.133410" lon="3.564500">
        <ele>1496.260986</ele>
        <time>2010-01-01T19:37:17Z</time>
      </trkpt>
      <trkpt lat="44.132340" lon="3.564320">
        <ele>1494.19</ele>
        <time>2010-01-01T19:37:21Z</time>
      </trkpt>
      <trkpt lat="44.132070" lon="3.564400">
        <ele>1494.19</ele>
        <time>2010-01-01T19:37:24Z</time>
      </trkpt>
      <trkpt lat="44.131810" lon="3.564640">
        <ele>1494.834961</ele>
        <time>2010-01-01T19:37:34Z</time>
      </trkpt>
      <trkpt lat="44.130940" lon="3.566200">
        <ele>1496.81</ele>
        <time>2010-01-01T19:37:49Z</time>
      </trkpt>
      <trkpt lat="44.130810" lon="3.566520">
        <ele>1496.81</ele>
        <time>2010-01-01T19:37:55Z</time>
      </trkpt>
      <trkpt lat="44.130550" lon="3.567360">
        <ele>1496.805542</ele>
        <time>2010-01-01T19:38:33Z</time>
      </trkpt>
      <trkpt lat="44.130410" lon="3.568490">
        <ele>1496.81</ele>
        <time>2010-01-01T19:38:45Z</time>
      </trkpt>
      <trkpt lat="44.130320" lon="3.568740">
        <ele>1496.540894</ele>
        <time>2010-01-01T19:38:53Z</time>
      </trkpt>
      <trkpt lat="44.130190" lon="3.568880">
        <ele>1496.813110</ele>
        <time>2010-01-01T19:39:02Z</time>
      </trkpt>
      <trkpt lat="44.129240" lon="3.569340">
        <ele>1499.39</ele>
        <time>2010-01-01T19:39:10Z</time>
      </trkpt>
      <trkpt lat="44.128620" lon="3.569700">
        <ele>1504.994995</ele>
        <time>2010-01-01T19:39:20Z</time>
      </trkpt>
      <trkpt lat="44.128360" lon="3.569780">
        <ele>1505.868042</ele>
        <time>2010-01-01T19:39:35Z</time>
      </trkpt>
      <trkpt lat="44.127320" lon="3.569710">
        <ele>1506.942871</ele>
        <time>2010-01-01T19:39:50Z</time>
      </trkpt>
      <trkpt lat="44.126580" lon="3.569230">
        <ele>1510.073730</ele>
        <time>2010-01-01T19:40:12Z</time>
      </trkpt>
      <trkpt lat="44.126040" lon="3.569290">
        <ele>1516.584351</ele>
        <time>2010-01-01T19:40:33Z</time>
      </trkpt>
      <trkpt lat="44.125030" lon="3.569640">
        <ele>1525.06</ele>
        <time>2010-01-01T19:40:44Z</time>
      </trkpt>
      <trkpt lat="44.124250" lon="3.569810">
        <ele>1529.567261</ele>
        <time>2010-01-01T19:40:49Z</time>
      </trkpt>
      <trkpt lat="44.123440" lon="3.570200">
        <ele>1536.397949</ele>
        <time>2010-01-01T19:41:01Z</time>
      </trkpt>
      <trkpt lat="44.123110" lon="3.570280">
        <ele>1538.874756</ele>
        <time>2010-01-01T19:41:32Z</time>
      </trkpt>
      <trkpt lat="44.122980" lon="3.570250">
        <ele>1539.514771</ele>
        <time>2010-01-01T19:41:58Z</time>
      </trkpt>
      <trkpt lat="44.122530" lon="3.569980">
        <ele>1541.080444</ele>
        <time>2010-01-01T19:42:26Z</time>
      </trkpt>
      <trkpt lat="44.122330" lon="3.570110">
        <ele>1541.802612</ele>
        <time>2010-01-01T19:42:42Z</time>
      </trkpt>
      <trkpt lat="44.121980" lon="3.571180">
        <ele>1542.122803</ele>
        <time>2010-01-01T19:43:01Z</time>
      </trkpt>
      <trkpt lat="44.121690" lon="3.572310">
        <ele>1543.206665</ele>
        <time>2010-01-01T19:43:20Z</time>
      </trkpt>
      <trkpt lat="44.121600" lon="3.573030">
        <ele>1544.127441</ele>
        <time>2010-01-01T19:43:37Z</time>
      </trkpt>
      <trkpt lat="44.121610" lon="3.575680">
        <ele>1548.296387</ele>
        <time>2010-01-01T19:44:06Z</time>
      </trkpt>
      <trkpt lat="44.121540" lon="3.576820">
        <ele>1549.607544</ele>
        <time>2010-01-01T19:44:18Z</time>
      </trkpt>
      <trkpt lat="44.121570" lon="3.577200">
        <ele>1549.685059</ele>
        <time>2010-01-01T19:44:33Z</time>
      </trkpt>
      <trkpt lat="44.121480" lon="3.577270">
        <ele>1549.484985</ele>
        <time>2010-01-01T19:44:41Z</time>
      </trkpt>
      <trkpt lat="44.121350" lon="3.577490">
        <ele>1549.836060</ele>
        <time>2010-01-01T19:44:52Z</time>
      </trkpt>
      <trkpt lat="44.121280" lon="3.577740">
        <ele>1550.52</ele>
        <time>2010-01-01T19:45:08Z</time>
      </trkpt>
      <trkpt lat="44.121160" lon="3.578910">
        <ele>1550.72</ele>
        <time>2010-01-01T19:45:14Z</time>
      </trkpt>
      <trkpt lat="44.121200" lon="3.579660">
        <ele>1551.12</ele>
        <time>2010-01-01T19:45:23Z</time>
      </trkpt>
      <trkpt lat="44.121210" lon="3.579990">
        <ele>1551.71</ele>
        <time>2010-01-01T19:47:26Z</time>
      </trkpt>
      <trkpt lat="44.121420" lon="3.579960">
        <ele>1553.83</ele>
        <time>2010-01-01T19:47:48Z</time>
      </trkpt>
      <trkpt lat="44.121500" lon="3.579880">
        <ele>1553.83</ele>
        <time>2010-01-01T19:48:25Z</time>
      </trkpt>
      <trkpt lat="44.121520" lon="3.579770">
        <ele>1553.91</ele>
        <time>2010-01-01T19:48:46Z</time>
      </trkpt>
      <trkpt lat="44.121440" lon="3.579440">
        <ele>1553.12</ele>
        <time>2010-01-01T19:49:13Z</time>
      </trkpt>
      <trkpt lat="44.121300" lon="3.578960">
        <ele>1552.18</ele>
        <time>2010-01-01T19:49:25Z</time>
      </trkpt>
      <trkpt lat="44.121160" lon="3.578910">
        <ele>1550.72</ele>
        <time>2010-01-01T19:50:00Z</time>
      </trkpt>
      <trkpt lat="44.121310" lon="3.577600">
        <ele>1550.11</ele>
        <time>2010-01-01T19:50:24Z</time>
      </trkpt>
      <trkpt lat="44.121480" lon="3.577270">
        <ele>1549.48</ele>
        <time>2010-01-01T19:51:01Z</time>
      </trkpt>
      <trkpt lat="44.121690" lon="3.577180">
        <ele>1549.95</ele>
        <time>2010-01-01T19:51:06Z</time>
      </trkpt>
      <trkpt lat="44.121890" lon="3.577240">
        <ele>1549.18</ele>
        <time>2010-01-01T19:51:23Z</time>
      </trkpt>
      <trkpt lat="44.122040" lon="3.577440">
        <ele>1549.41</ele>
        <time>2010-01-01T19:52:34Z</time>
      </trkpt>
      <trkpt lat="44.122120" lon="3.577780">
        <ele>1549.41</ele>
        <time>2010-01-01T19:52:49Z</time>
      </trkpt>
      <trkpt lat="44.122170" lon="3.578290">
        <ele>1549.41</ele>
        <time>2010-01-01T19:53:12Z</time>
      </trkpt>
      <trkpt lat="44.122330" lon="3.578750">
        <ele>1548.12</ele>
        <time>2010-01-01T19:53:23Z</time>
      </trkpt>
      <trkpt lat="44.122620" lon="3.579420">
        <ele>1544.280029</ele>
        <time>2010-01-01T19:53:38Z</time>
      </trkpt>
      <trkpt lat="44.122930" lon="3.580000">
        <ele>1538.228638</ele>
        <time>2010-01-01T19:53:49Z</time>
      </trkpt>
      <trkpt lat="44.123010" lon="3.580360">
        <ele>1537.156006</ele>
        <time>2010-01-01T19:54:00Z</time>
      </trkpt>
      <trkpt lat="44.123010" lon="3.580550">
        <ele>1536.827515</ele>
        <time>2010-01-01T19:54:07Z</time>
      </trkpt>
      <trkpt lat="44.122950" lon="3.580950">
        <ele>1536.54</ele>
        <time>2010-01-01T19:54:36Z</time>
      </trkpt>
      <trkpt lat="44.122630" lon="3.581920">
        <ele>1533.505127</ele>
        <time>2010-01-01T19:55:31Z</time>
      </trkpt>
      <trkpt lat="44.122410" lon="3.582800">
        <ele>1529.670898</ele>
        <time>2010-01-01T19:55:45Z</time>
      </trkpt>
      <trkpt lat="44.122340" lon="3.583750">
        <ele>1524.387451</ele>
        <time>2010-01-01T19:56:14Z</time>
      </trkpt>
      <trkpt lat="44.122340" lon="3.584310">
        <ele>1519.690063</ele>
        <time>2010-01-01T19:56:24Z</time>
      </trkpt>
      <trkpt lat="44.122230" lon="3.584960">
        <ele>1516.301514</ele>
        <time>2010-01-01T19:56:50Z</time>
      </trkpt>
      <trkpt lat="44.121980" lon="3.585510">
        <ele>1513.392456</ele>
        <time>2010-01-01T19:57:41Z</time>
      </trkpt>
      <trkpt lat="44.121700" lon="3.585980">
        <ele>1508.969971</ele>
        <time>2010-01-01T19:57:47Z</time>
      </trkpt>
      <trkpt lat="44.121150" lon="3.586590">
        <ele>1503.94</ele>
        <time>2010-01-01T19:58:01Z</time>
      </trkpt>
      <trkpt lat="44.120850" lon="3.586740">
        <ele>1503.94</ele>
        <time>2010-01-01T19:58:04Z</time>
      </trkpt>
      <trkpt lat="44.120490" lon="3.586680">
        <ele>1503.962280</ele>
        <time>2010-01-01T19:58:13Z</time>
      </trkpt>
      <trkpt lat="44.120290" lon="3.586700">
        <ele>1503.097656</ele>
        <time>2010-01-01T19:58:29Z</time>
      </trkpt>
      <trkpt lat="44.120020" lon="3.586800">
        <ele>1500.443970</ele>
        <time>2010-01-01T19:58:56Z</time>
      </trkpt>
      <trkpt lat="44.119660" lon="3.587050">
        <ele>1497.133789</ele>
        <time>2010-01-01T19:59:02Z</time>
      </trkpt>
      <trkpt lat="44.119520" lon="3.587030">
        <ele>1497.31</ele>
        <time>2010-01-01T19:59:17Z</time>
      </trkpt>
      <trkpt lat="44.119480" lon="3.586700">
        <ele>1497.31</ele>
        <time>2010-01-01T19:59:34Z</time>
      </trkpt>
      <trkpt lat="44.120140" lon="3.582520">
        <ele>1492.722778</ele>
        <time>2010-01-01T19:59:41Z</time>
      </trkpt>
      <trkpt lat="44.120200" lon="3.581780">
        <ele>1490.087891</ele>
        <time>2010-01-01T20:00:02Z</time>
      </trkpt>
      <trkpt lat="44.120150" lon="3.580470">
        <ele>1489.155884</ele>
        <time>2010-01-01T20:00:15Z</time>
      </trkpt>
      <trkpt lat="44.119880" lon="3.579870">
        <ele>1485.903320</ele>
        <time>2010-01-01T20:00:25Z</time>
      </trkpt>
      <trkpt lat="44.119410" lon="3.579210">
        <ele>1476.412598</ele>
        <time>2010-01-01T20:00:34Z</time>
      </trkpt>
      <trkpt lat="44.119300" lon="3.578790">
        <ele>1474.69</ele>
        <time>2010-01-01T20:00:44Z</time>
      </trkpt>
      <trkpt lat="44.119170" lon="3.577590">
        <ele>1473.82</ele>
        <time>2010-01-01T20:00:55Z</time>
      </trkpt>
      <trkpt lat="44.119130" lon="3.576780">
        <ele>1473.82</ele>
        <time>2010-01-01T20:01:35Z</time>
      </trkpt>
      <trkpt lat="44.119160" lon="3.575490">
        <ele>1473.82</ele>
        <time>2010-01-01T20:01:52Z</time>
      </trkpt>
      <trkpt lat="44.119120" lon="3.575300">
        <ele>1473.92</ele>
        <time>2010-01-01T20:02:07Z</time>
      </trkpt>
      <trkpt lat="44.118810" lon="3.574920">
        <ele>1466.71</ele>
        <time>2010-01-01T20:02:21Z</time>
      </trkpt>
      <trkpt lat="44.117690" lon="3.573010">
        <ele>1463.087158</ele>
        <time>2010-01-01T20:03:01Z</time>
      </trkpt>
      <trkpt lat="44.117490" lon="3.572550">
        <ele>1460.97</ele>
        <time>2010-01-01T20:03:32Z</time>
      </trkpt>
      <trkpt lat="44.117310" lon="3.571810">
        <ele>1460.97</ele>
        <time>2010-01-01T20:03:41Z</time>
      </trkpt>
      <trkpt lat="44.117170" lon="3.571480">
        <ele>1460.97</ele>
        <time>2010-01-01T20:04:24Z</time>
      </trkpt>
      <trkpt lat="44.116920" lon="3.571060">
        <ele>1458.81</ele>
        <time>2010-01-01T20:04:33Z</time>
      </trkpt>
      <trkpt lat="44.116820" lon="3.570730">
        <ele>1456.492188</ele>
        <time>2010-01-01T20:04:52Z</time>
      </trkpt>
      <trkpt lat="44.116940" lon="3.570360">
        <ele>1455.207764</ele>
        <time>2010-01-01T20:05:27Z</time>
      </trkpt>
      <trkpt lat="44.117090" lon="3.570240">
        <ele>1455.36</ele>
        <time>2010-01-01T20:05:32Z</time>
      </trkpt>
      <trkpt lat="44.117770" lon="3.569930">
        <ele>1455.36</ele>
        <time>2010-01-01T20:05:38Z</time>
      </trkpt>
      <trkpt lat="44.118760" lon="3.568590">
        <ele>1449.14</ele>
        <time>2010-01-01T20:05:49Z</time>
      </trkpt>
      <trkpt lat="44.119050" lon="3.568300">
        <ele>1447.761719</ele>
        <time>2010-01-01T20:06:00Z</time>
      </trkpt>
      <trkpt lat="44.119680" lon="3.567810">
        <ele>1446.994751</ele>
        <time>2010-01-01T20:06:11Z</time>
      </trkpt>
      <trkpt lat="44.119820" lon="3.567520">
        <ele>1445.691040</ele>
        <time>2010-01-01T20:06:44Z</time>
      </trkpt>
      <trkpt lat="44.119970" lon="3.566670">
        <ele>1439.223633</ele>
        <time>2010-01-01T20:06:59Z</time>
      </trkpt>
      <trkpt lat="44.120370" lon="3.564960">
        <ele>1431.44</ele>
        <time>2010-01-01T20:07:09Z</time>
      </trkpt>
      <trkpt lat="44.120440" lon="3.564790">
        <ele>1431.44</ele>
        <time>2010-01-01T20:07:14Z</time>
      </trkpt>
      <trkpt lat="44.120730" lon="3.564480">
        <ele>1431.44</ele>
        <time>2010-01-01T20:07:17Z</time>
      </trkpt>
      <trkpt lat="44.120760" lon="3.564390">
        <ele>1431.44</ele>
        <time>2010-01-01T20:07:25Z</time>
      </trkpt>
      <trkpt lat="44.120730" lon="3.564090">
        <ele>1431.44</ele>
        <time>2010-01-01T20:07:41Z</time>
      </trkpt>
      <trkpt lat="44.120430" lon="3.563700">
        <ele>1431.44</ele>
        <time>2010-01-01T20:07:50Z</time>
      </trkpt>
      <trkpt lat="44.119830" lon="3.563310">
        <ele>1424.53</ele>
        <time>2010-01-01T20:08:04Z</time>
      </trkpt>
      <trkpt lat="44.119720" lon="3.563180">
        <ele>1423.287476</ele>
        <time>2010-01-01T20:08:20Z</time>
      </trkpt>
      <trkpt lat="44.119500" lon="3.562740">
        <ele>1422.90</ele>
        <time>2010-01-01T20:08:24Z</time>
      </trkpt>
      <trkpt lat="44.119390" lon="3.562180">
        <ele>1422.90</ele>
        <time>2010-01-01T20:08:28Z</time>
      </trkpt>
      <trkpt lat="44.119280" lon="3.561970">
        <ele>1422.90</ele>
        <time>2010-01-01T20:08:43Z</time>
      </trkpt>
      <trkpt lat="44.118780" lon="3.561750">
        <ele>1421.616211</ele>
        <time>2010-01-01T20:08:58Z</time>
      </trkpt>
      <trkpt lat="44.118500" lon="3.561560">
        <ele>1420.060059</ele>
        <time>2010-01-01T20:09:18Z</time>
      </trkpt>
      <trkpt lat="44.118290" lon="3.561360">
        <ele>1418.497925</ele>
        <time>2010-01-01T20:09:34Z</time>
      </trkpt>
      <trkpt lat="44.118140" lon="3.561140">
        <ele>1418.099487</ele>
        <time>2010-01-01T20:09:49Z</time>
      </trkpt>
      <trkpt lat="44.118010" lon="3.560820">
        <ele>1417.775024</ele>
        <time>2010-01-01T20:09:58Z</time>
      </trkpt>
      <trkpt lat="44.117950" lon="3.560440">
        <ele>1417.062500</ele>
        <time>2010-01-01T20:10:09Z</time>
      </trkpt>
      <trkpt lat="44.117900" lon="3.559080">
        <ele>1410.582520</ele>
        <time>2010-01-01T20:10:25Z</time>
      </trkpt>
      <trkpt lat="44.117780" lon="3.558480">
        <ele>1407.079712</ele>
        <time>2010-01-01T20:10:31Z</time>
      </trkpt>
      <trkpt lat="44.117640" lon="3.558010">
        <ele>1406.799683</ele>
        <time>2010-01-01T20:10:38Z</time>
      </trkpt>
      <trkpt lat="44.117450" lon="3.557590">
        <ele>1406.74</ele>
        <time>2010-01-01T20:11:00Z</time>
      </trkpt>
      <trkpt lat="44.116750" lon="3.556630">
        <ele>1401.673096</ele>
        <time>2010-01-01T20:11:17Z</time>
      </trkpt>
      <trkpt lat="44.116250" lon="3.555780">
        <ele>1397.949707</ele>
        <time>2010-01-01T20:11:36Z</time>
      </trkpt>
      <trkpt lat="44.116130" lon="3.555520">
        <ele>1396.646606</ele>
        <time>2010-01-01T20:11:51Z</time>
      </trkpt>
      <trkpt lat="44.115730" lon="3.554120">
        <ele>1395.451660</ele>
        <time>2010-01-01T20:11:59Z</time>
      </trkpt>
      <trkpt lat="44.115620" lon="3.553880">
        <ele>1395.81</ele>
        <time>2010-01-01T20:12:11Z</time>
      </trkpt>
      <trkpt lat="44.115250" lon="3.553430">
        <ele>1395.81</ele>
        <time>2010-01-01T20:12:20Z</time>
      </trkpt>
      <trkpt lat="44.114470" lon="3.552940">
        <ele>1391.054688</ele>
        <time>2010-01-01T20:13:00Z</time>
      </trkpt>
      <trkpt lat="44.114370" lon="3.552830">
        <ele>1390.185059</ele>
        <time>2010-01-01T20:13:14Z</time>
      </trkpt>
      <trkpt lat="44.114270" lon="3.552670">
        <ele>1388.443848</ele>
        <time>2010-01-01T20:13:27Z</time>
      </trkpt>
      <trkpt lat="44.114180" lon="3.552300">
        <ele>1384.900024</ele>
        <time>2010-01-01T20:13:57Z</time>
      </trkpt>
      <trkpt lat="44.114210" lon="3.551900">
        <ele>1382.70</ele>
        <time>2010-01-01T20:14:42Z</time>
      </trkpt>
      <trkpt lat="44.114320" lon="3.551580">
        <ele>1382.70</ele>
        <time>2010-01-01T20:14:48Z</time>
      </trkpt>
      <trkpt lat="44.114950" lon="3.550800">
        <ele>1383.260010</ele>
        <time>2010-01-01T20:14:53Z</time>
      </trkpt>
      <trkpt lat="44.115190" lon="3.550420">
        <ele>1383.755005</ele>
        <time>2010-01-01T20:14:57Z</time>
      </trkpt>
      <trkpt lat="44.115340" lon="3.550140">
        <ele>1386.16</ele>
        <time>2010-01-01T20:15:01Z</time>
      </trkpt>
      <trkpt lat="44.115370" lon="3.549970">
        <ele>1386.16</ele>
        <time>2010-01-01T20:15:13Z</time>
      </trkpt>
      <trkpt lat="44.115350" lon="3.549870">
        <ele>1386.16</ele>
        <time>2010-01-01T20:15:23Z</time>
      </trkpt>
      <trkpt lat="44.115180" lon="3.549740">
        <ele>1384.58</ele>
        <time>2010-01-01T20:15:58Z</time>
      </trkpt>
      <trkpt lat="44.114800" lon="3.549900">
        <ele>1376.022461</ele>
        <time>2010-01-01T20:16:20Z</time>
      </trkpt>
      <trkpt lat="44.114570" lon="3.549890">
        <ele>1370.39</ele>
        <time>2010-01-01T20:16:41Z</time>
      </trkpt>
      <trkpt lat="44.114270" lon="3.549630">
        <ele>1368.03</ele>
        <time>2010-01-01T20:17:02Z</time>
      </trkpt>
      <trkpt lat="44.114040" lon="3.549170">
        <ele>1367.24</ele>
        <time>2010-01-01T20:17:12Z</time>
      </trkpt>
      <trkpt lat="44.113960" lon="3.549090">
        <ele>1367.206421</ele>
        <time>2010-01-01T20:17:36Z</time>
      </trkpt>
      <trkpt lat="44.113860" lon="3.549050">
        <ele>1367.605835</ele>
        <time>2010-01-01T20:17:47Z</time>
      </trkpt>
      <trkpt lat="44.113490" lon="3.549140">
        <ele>1365.599976</ele>
        <time>2010-01-01T20:18:19Z</time>
      </trkpt>
      <trkpt lat="44.113130" lon="3.549180">
        <ele>1365.796021</ele>
        <time>2010-01-01T20:18:34Z</time>
      </trkpt>
      <trkpt lat="44.112620" lon="3.549130">
        <ele>1364.349365</ele>
        <time>2010-01-01T20:18:46Z</time>
      </trkpt>
      <trkpt lat="44.112230" lon="3.548990">
        <ele>1360.998413</ele>
        <time>2010-01-01T20:18:59Z</time>
      </trkpt>
      <trkpt lat="44.111930" lon="3.548680">
        <ele>1356.331299</ele>
        <time>2010-01-01T20:19:18Z</time>
      </trkpt>
      <trkpt lat="44.111800" lon="3.548440">
        <ele>1355.496216</ele>
        <time>2010-01-01T20:19:22Z</time>
      </trkpt>
      <trkpt lat="44.111690" lon="3.548080">
        <ele>1355.34</ele>
        <time>2010-01-01T20:19:30Z</time>
      </trkpt>
      <trkpt lat="44.111630" lon="3.547540">
        <ele>1355.34</ele>
        <time>2010-01-01T20:19:53Z</time>
      </trkpt>
      <trkpt lat="44.111530" lon="3.547370">
        <ele>1355.34</ele>
        <time>2010-01-01T20:20:11Z</time>
      </trkpt>
      <trkpt lat="44.111370" lon="3.547330">
        <ele>1352.34</ele>
        <time>2010-01-01T20:20:32Z</time>
      </trkpt>
      <trkpt lat="44.110810" lon="3.547430">
        <ele>1353.34</ele>
        <time>2010-01-01T20:20:54Z</time>
      </trkpt>
      <trkpt lat="44.110390" lon="3.547330">
        <ele>1349.38</ele>
        <time>2010-01-01T20:21:40Z</time>
      </trkpt>
      <trkpt lat="44.109960" lon="3.547060">
        <ele>1349.03</ele>
        <time>2010-01-01T20:22:27Z</time>
      </trkpt>
      <trkpt lat="44.109650" lon="3.546800">
        <ele>1349.30</ele>
        <time>2010-01-01T20:22:53Z</time>
      </trkpt>
      <trkpt lat="44.109500" lon="3.546610">
        <ele>1349.30</ele>
        <time>2010-01-01T20:23:16Z</time>
      </trkpt>
      <trkpt lat="44.109330" lon="3.546280">
        <ele>1349.30</ele>
        <time>2010-01-01T20:23:52Z</time>
      </trkpt>
      <trkpt lat="44.109110" lon="3.546170">
        <ele>1348.176147</ele>
        <time>2010-01-01T20:24:07Z</time>
      </trkpt>
      <trkpt lat="44.108110" lon="3.546070">
        <ele>1339.234741</ele>
        <time>2010-01-01T20:24:24Z</time>
      </trkpt>
      <trkpt lat="44.107760" lon="3.546130">
        <ele>1339.433960</ele>
        <time>2010-01-01T20:24:58Z</time>
      </trkpt>
      <trkpt lat="44.107480" lon="3.546320">
        <ele>1338.88</ele>
        <time>2010-01-01T20:25:07Z</time>
      </trkpt>
      <trkpt lat="44.106870" lon="3.546940">
        <ele>1338.435791</ele>
        <time>2010-01-01T20:25:18Z</time>
      </trkpt>
      <trkpt lat="44.106030" lon="3.548010">
        <ele>1323.571533</ele>
        <time>2010-01-01T20:25:26Z</time>
      </trkpt>
      <trkpt lat="44.105890" lon="3.548060">
        <ele>1322.657959</ele>
        <time>2010-01-01T20:25:33Z</time>
      </trkpt>
      <trkpt lat="44.105780" lon="3.548020">
        <ele>1318.313843</ele>
        <time>2010-01-01T20:25:59Z</time>
      </trkpt>
      <trkpt lat="44.105740" lon="3.547890">
        <ele>1317.47</ele>
        <time>2010-01-01T20:26:08Z</time>
      </trkpt>
      <trkpt lat="44.105750" lon="3.547750">
        <ele>1317.47</ele>
        <time>2010-01-01T20:26:35Z</time>
      </trkpt>
      <trkpt lat="44.105830" lon="3.547340">
        <ele>1317.47</ele>
        <time>2010-01-01T20:26:58Z</time>
      </trkpt>
      <trkpt lat="44.105730" lon="3.547010">
        <ele>1317.47</ele>
        <time>2010-01-01T20:27:08Z</time>
      </trkpt>
      <trkpt lat="44.105180" lon="3.546080">
        <ele>1317.47</ele>
        <time>2010-01-01T20:27:36Z</time>
      </trkpt>
      <trkpt lat="44.104760" lon="3.545570">
        <ele>1315.78</ele>
        <time>2010-01-01T20:27:46Z</time>
      </trkpt>
      <trkpt lat="44.104430" lon="3.545020">
        <ele>1315.989136</ele>
        <time>2010-01-01T20:27:59Z</time>
      </trkpt>
      <trkpt lat="44.104030" lon="3.544560">
        <ele>1309.59</ele>
        <time>2010-01-01T20:30:08Z</time>
      </trkpt>
      <trkpt lat="44.103960" lon="3.544210">
        <ele>1308.52</ele>
        <time>2010-01-01T20:31:16Z</time>
      </trkpt>
      <trkpt lat="44.103880" lon="3.543400">
        <ele>1308.09</ele>
        <time>2010-01-01T20:31:31Z</time>
      </trkpt>
      <trkpt lat="44.103790" lon="3.543040">
        <ele>1308.722290</ele>
        <time>2010-01-01T20:31:44Z</time>
      </trkpt>
      <trkpt lat="44.103440" lon="3.542030">
        <ele>1301.026001</ele>
        <time>2010-01-01T20:32:30Z</time>
      </trkpt>
      <trkpt lat="44.103200" lon="3.541640">
        <ele>1295.776367</ele>
        <time>2010-01-01T20:32:45Z</time>
      </trkpt>
      <trkpt lat="44.102980" lon="3.541350">
        <ele>1295.708618</ele>
        <time>2010-01-01T20:32:55Z</time>
      </trkpt>
      <trkpt lat="44.102760" lon="3.541720">
        <ele>1291.490112</ele>
        <time>2010-01-01T20:33:41Z</time>
      </trkpt>
      <trkpt lat="44.102370" lon="3.542050">
        <ele>1290.498535</ele>
        <time>2010-01-01T20:33:54Z</time>
      </trkpt>
      <trkpt lat="44.102290" lon="3.542170">
        <ele>1289.665405</ele>
        <time>2010-01-01T20:34:19Z</time>
      </trkpt>
      <trkpt lat="44.102210" lon="3.542410">
        <ele>1288.04</ele>
        <time>2010-01-01T20:34:31Z</time>
      </trkpt>
      <trkpt lat="44.102090" lon="3.543200">
        <ele>1278.993408</ele>
        <time>2010-01-01T20:34:39Z</time>
      </trkpt>
      <trkpt lat="44.101930" lon="3.543770">
        <ele>1277.741699</ele>
        <time>2010-01-01T20:35:08Z</time>
      </trkpt>
      <trkpt lat="44.101670" lon="3.544420">
        <ele>1272.415039</ele>
        <time>2010-01-01T20:35:16Z</time>
      </trkpt>
      <trkpt lat="44.101320" lon="3.544980">
        <ele>1267.812012</ele>
        <time>2010-01-01T20:35:22Z</time>
      </trkpt>
      <trkpt lat="44.100350" lon="3.545870">
        <ele>1265.230957</ele>
        <time>2010-01-01T20:35:36Z</time>
      </trkpt>
      <trkpt lat="44.099270" lon="3.546520">
        <ele>1264.176270</ele>
        <time>2010-01-01T20:36:04Z</time>
      </trkpt>
      <trkpt lat="44.098710" lon="3.546980">
        <ele>1260.025757</ele>
        <time>2010-01-01T20:36:19Z</time>
      </trkpt>
      <trkpt lat="44.098260" lon="3.547440">
        <ele>1257.720215</ele>
        <time>2010-01-01T20:36:37Z</time>
      </trkpt>
      <trkpt lat="44.097600" lon="3.548310">
        <ele>1245.749268</ele>
        <time>2010-01-01T20:36:43Z</time>
      </trkpt>
      <trkpt lat="44.097280" lon="3.548600">
        <ele>1243.140991</ele>
        <time>2010-01-01T20:36:50Z</time>
      </trkpt>
      <trkpt lat="44.096910" lon="3.548840">
        <ele>1240.414185</ele>
        <time>2010-01-01T20:37:10Z</time>
      </trkpt>
      <trkpt lat="44.096080" lon="3.549160">
        <ele>1238.640503</ele>
        <time>2010-01-01T20:37:24Z</time>
      </trkpt>
      <trkpt lat="44.095850" lon="3.549200">
        <ele>1238.383667</ele>
        <time>2010-01-01T20:37:31Z</time>
      </trkpt>
      <trkpt lat="44.095590" lon="3.549160">
        <ele>1237.983521</ele>
        <time>2010-01-01T20:37:42Z</time>
      </trkpt>
      <trkpt lat="44.095410" lon="3.549030">
        <ele>1237.835327</ele>
        <time>2010-01-01T20:37:58Z</time>
      </trkpt>
      <trkpt lat="44.095290" lon="3.548870">
        <ele>1237.605835</ele>
        <time>2010-01-01T20:38:13Z</time>
      </trkpt>
      <trkpt lat="44.094970" lon="3.548050">
        <ele>1236.266846</ele>
        <time>2010-01-01T20:38:20Z</time>
      </trkpt>
      <trkpt lat="44.094820" lon="3.547820">
        <ele>1235.535278</ele>
        <time>2010-01-01T20:38:34Z</time>
      </trkpt>
      <trkpt lat="44.094300" lon="3.547230">
        <ele>1231.461304</ele>
        <time>2010-01-01T20:38:43Z</time>
      </trkpt>
      <trkpt lat="44.093810" lon="3.546800">
        <ele>1229.228760</ele>
        <time>2010-01-01T20:38:48Z</time>
      </trkpt>
      <trkpt lat="44.093580" lon="3.546710">
        <ele>1226.747437</ele>
        <time>2010-01-01T20:38:53Z</time>
      </trkpt>
      <trkpt lat="44.092880" lon="3.546790">
        <ele>1218.39</ele>
        <time>2010-01-01T20:39:08Z</time>
      </trkpt>
      <trkpt lat="44.092630" lon="3.546850">
        <ele>1219.20</ele>
        <time>2010-01-01T20:39:14Z</time>
      </trkpt>
      <trkpt lat="44.092360" lon="3.546940">
        <ele>1221.380249</ele>
        <time>2010-01-01T20:39:38Z</time>
      </trkpt>
      <trkpt lat="44.092139" lon="3.546794">
        <ele>1223.10</ele>
        <time>2010-01-01T20:40:09Z</time>
      </trkpt>
      <trkpt lat="44.090761" lon="3.543629">
        <ele>1219.537964</ele>
        <time>2010-01-01T20:40:22Z</time>
      </trkpt>
      <trkpt lat="44.090690" lon="3.543290">
        <ele>1217.664673</ele>
        <time>2010-01-01T20:40:33Z</time>
      </trkpt>
      <trkpt lat="44.090670" lon="3.540930">
        <ele>1214.092163</ele>
        <time>2010-01-01T20:40:43Z</time>
      </trkpt>
      <trkpt lat="44.090610" lon="3.540410">
        <ele>1214.206543</ele>
        <time>2010-01-01T20:40:57Z</time>
      </trkpt>
      <trkpt lat="44.090470" lon="3.540020">
        <ele>1213.547607</ele>
        <time>2010-01-01T20:41:25Z</time>
      </trkpt>
      <trkpt lat="44.089780" lon="3.538720">
        <ele>1212.012573</ele>
        <time>2010-01-01T20:41:34Z</time>
      </trkpt>
      <trkpt lat="44.089520" lon="3.538350">
        <ele>1212.933594</ele>
        <time>2010-01-01T20:41:43Z</time>
      </trkpt>
      <trkpt lat="44.089300" lon="3.538170">
        <ele>1212.758789</ele>
        <time>2010-01-01T20:42:15Z</time>
      </trkpt>
      <trkpt lat="44.088200" lon="3.537700">
        <ele>1209.94</ele>
        <time>2010-01-01T20:42:23Z</time>
      </trkpt>
      <trkpt lat="44.087910" lon="3.537540">
        <ele>1208.07</ele>
        <time>2010-01-01T20:42:35Z</time>
      </trkpt>
      <trkpt lat="44.087638" lon="3.537415">
        <ele>1208.13</ele>
        <time>2010-01-01T20:42:53Z</time>
      </trkpt>
      <trkpt lat="44.087340" lon="3.537230">
        <ele>1208.13</ele>
        <time>2010-01-01T20:43:02Z</time>
      </trkpt>
      <trkpt lat="44.087040" lon="3.537120">
        <ele>1208.13</ele>
        <time>2010-01-01T20:43:15Z</time>
      </trkpt>
      <trkpt lat="44.086830" lon="3.537100">
        <ele>1207.69</ele>
        <time>2010-01-01T20:43:22Z</time>
      </trkpt>
      <trkpt lat="44.086120" lon="3.537200">
        <ele>1199.12</ele>
        <time>2010-01-01T20:43:34Z</time>
      </trkpt>
      <trkpt lat="44.085910" lon="3.537150">
        <ele>1197.555786</ele>
        <time>2010-01-01T20:44:01Z</time>
      </trkpt>
      <trkpt lat="44.085790" lon="3.537060">
        <ele>1198.158081</ele>
        <time>2010-01-01T20:44:14Z</time>
      </trkpt>
      <trkpt lat="44.085510" lon="3.536740">
        <ele>1197.708008</ele>
        <time>2010-01-01T20:44:33Z</time>
      </trkpt>
      <trkpt lat="44.085110" lon="3.535960">
        <ele>1197.19</ele>
        <time>2010-01-01T20:44:55Z</time>
      </trkpt>
      <trkpt lat="44.084870" lon="3.535580">
        <ele>1196.75</ele>
        <time>2010-01-01T20:44:59Z</time>
      </trkpt>
      <trkpt lat="44.084770" lon="3.534940">
        <ele>1196.28</ele>
        <time>2010-01-01T20:45:05Z</time>
      </trkpt>
      <trkpt lat="44.084650" lon="3.534810">
        <ele>1196.165161</ele>
        <time>2010-01-01T20:45:10Z</time>
      </trkpt>
      <trkpt lat="44.084480" lon="3.534820">
        <ele>1195.064819</ele>
        <time>2010-01-01T20:45:15Z</time>
      </trkpt>
      <trkpt lat="44.084060" lon="3.535180">
        <ele>1186.611206</ele>
        <time>2010-01-01T20:45:32Z</time>
      </trkpt>
      <trkpt lat="44.083740" lon="3.535380">
        <ele>1184.52</ele>
        <time>2010-01-01T20:45:39Z</time>
      </trkpt>
      <trkpt lat="44.083570" lon="3.535430">
        <ele>1184.52</ele>
        <time>2010-01-01T20:45:58Z</time>
      </trkpt>
      <trkpt lat="44.083300" lon="3.535400">
        <ele>1184.52</ele>
        <time>2010-01-01T20:46:47Z</time>
      </trkpt>
      <trkpt lat="44.082910" lon="3.535200">
        <ele>1183.38</ele>
        <time>2010-01-01T20:46:54Z</time>
      </trkpt>
      <trkpt lat="44.082560" lon="3.535300">
        <ele>1183.440186</ele>
        <time>2010-01-01T20:46:59Z</time>
      </trkpt>
      <trkpt lat="44.082380" lon="3.535290">
        <ele>1182.260498</ele>
        <time>2010-01-01T20:47:08Z</time>
      </trkpt>
      <trkpt lat="44.082050" lon="3.535110">
        <ele>1180.96</ele>
        <time>2010-01-01T20:47:42Z</time>
      </trkpt>
      <trkpt lat="44.081860" lon="3.534950">
        <ele>1179.81</ele>
        <time>2010-01-01T20:47:53Z</time>
      </trkpt>
      <trkpt lat="44.081800" lon="3.534800">
        <ele>1179.728271</ele>
        <time>2010-01-01T20:48:18Z</time>
      </trkpt>
      <trkpt lat="44.081800" lon="3.534640">
        <ele>1182.155640</ele>
        <time>2010-01-01T20:49:33Z</time>
      </trkpt>
      <trkpt lat="44.081930" lon="3.534150">
        <ele>1183.12</ele>
        <time>2010-01-01T20:49:48Z</time>
      </trkpt>
      <trkpt lat="44.081900" lon="3.533930">
        <ele>1183.58</ele>
        <time>2010-01-01T20:50:48Z</time>
      </trkpt>
      <trkpt lat="44.081450" lon="3.533370">
        <ele>1176.346191</ele>
        <time>2010-01-01T20:50:56Z</time>
      </trkpt>
      <trkpt lat="44.081060" lon="3.532440">
        <ele>1172.593506</ele>
        <time>2010-01-01T20:51:15Z</time>
      </trkpt>
      <trkpt lat="44.081040" lon="3.531990">
        <ele>1171.496216</ele>
        <time>2010-01-01T20:51:25Z</time>
      </trkpt>
      <trkpt lat="44.081180" lon="3.531660">
        <ele>1169.742554</ele>
        <time>2010-01-01T20:51:30Z</time>
      </trkpt>
      <trkpt lat="44.081360" lon="3.531430">
        <ele>1169.65</ele>
        <time>2010-01-01T20:51:54Z</time>
      </trkpt>
      <trkpt lat="44.081670" lon="3.531170">
        <ele>1167.68</ele>
        <time>2010-01-01T20:52:24Z</time>
      </trkpt>
      <trkpt lat="44.082360" lon="3.531080">
        <ele>1167.68</ele>
        <time>2010-01-01T20:52:35Z</time>
      </trkpt>
      <trkpt lat="44.082500" lon="3.530850">
        <ele>1167.68</ele>
        <time>2010-01-01T20:52:42Z</time>
      </trkpt>
      <trkpt lat="44.082410" lon="3.530540">
        <ele>1166.68</ele>
        <time>2010-01-01T20:52:52Z</time>
      </trkpt>
      <trkpt lat="44.081840" lon="3.529790">
        <ele>1165.766357</ele>
        <time>2010-01-01T20:53:18Z</time>
      </trkpt>
      <trkpt lat="44.081730" lon="3.529570">
        <ele>1164.307495</ele>
        <time>2010-01-01T20:53:35Z</time>
      </trkpt>
      <trkpt lat="44.081650" lon="3.529160">
        <ele>1163.364990</ele>
        <time>2010-01-01T20:54:08Z</time>
      </trkpt>
      <trkpt lat="44.081590" lon="3.528530">
        <ele>1162.463745</ele>
        <time>2010-01-01T20:54:13Z</time>
      </trkpt>
      <trkpt lat="44.081520" lon="3.528240">
        <ele>1161.482056</ele>
        <time>2010-01-01T20:54:24Z</time>
      </trkpt>
      <trkpt lat="44.081340" lon="3.527860">
        <ele>1160.475220</ele>
        <time>2010-01-01T20:54:26Z</time>
      </trkpt>
      <trkpt lat="44.081270" lon="3.527620">
        <ele>1158.323242</ele>
        <time>2010-01-01T20:54:34Z</time>
      </trkpt>
      <trkpt lat="44.081340" lon="3.527230">
        <ele>1156.614380</ele>
        <time>2010-01-01T20:54:54Z</time>
      </trkpt>
      <trkpt lat="44.081650" lon="3.526540">
        <ele>1155.123901</ele>
        <time>2010-01-01T20:55:03Z</time>
      </trkpt>
      <trkpt lat="44.081890" lon="3.526240">
        <ele>1155.562378</ele>
        <time>2010-01-01T20:55:19Z</time>
      </trkpt>
      <trkpt lat="44.082180" lon="3.525720">
        <ele>1152.510010</ele>
        <time>2010-01-01T20:55:35Z</time>
      </trkpt>
      <trkpt lat="44.082390" lon="3.525010">
        <ele>1151.184082</ele>
        <time>2010-01-01T20:55:42Z</time>
      </trkpt>
      <trkpt lat="44.082400" lon="3.524860">
        <ele>1151.121826</ele>
        <time>2010-01-01T20:55:50Z</time>
      </trkpt>
      <trkpt lat="44.082340" lon="3.524680">
        <ele>1150.360718</ele>
        <time>2010-01-01T20:56:02Z</time>
      </trkpt>
      <trkpt lat="44.082240" lon="3.524590">
        <ele>1151.23</ele>
        <time>2010-01-01T20:56:34Z</time>
      </trkpt>
      <trkpt lat="44.082100" lon="3.524550">
        <ele>1151.23</ele>
        <time>2010-01-01T20:57:05Z</time>
      </trkpt>
      <trkpt lat="44.081680" lon="3.524580">
        <ele>1151.994629</ele>
        <time>2010-01-01T20:57:20Z</time>
      </trkpt>
      <trkpt lat="44.081510" lon="3.524640">
        <ele>1151.23</ele>
        <time>2010-01-01T20:57:26Z</time>
      </trkpt>
      <trkpt lat="44.081140" lon="3.525050">
        <ele>1150.348877</ele>
        <time>2010-01-01T20:58:08Z</time>
      </trkpt>
      <trkpt lat="44.080280" lon="3.526260">
        <ele>1146.59</ele>
        <time>2010-01-01T20:58:13Z</time>
      </trkpt>
      <trkpt lat="44.080150" lon="3.526400">
        <ele>1145.25</ele>
        <time>2010-01-01T20:58:17Z</time>
      </trkpt>
      <trkpt lat="44.080020" lon="3.526450">
        <ele>1144.217529</ele>
        <time>2010-01-01T20:58:24Z</time>
      </trkpt>
      <trkpt lat="44.079800" lon="3.526390">
        <ele>1144.194092</ele>
        <time>2010-01-01T20:58:44Z</time>
      </trkpt>
      <trkpt lat="44.079090" lon="3.525760">
        <ele>1142.49</ele>
        <time>2010-01-01T20:58:47Z</time>
      </trkpt>
      <trkpt lat="44.078830" lon="3.525610">
        <ele>1142.49</ele>
        <time>2010-01-01T20:58:51Z</time>
      </trkpt>
      <trkpt lat="44.078200" lon="3.525640">
        <ele>1142.49</ele>
        <time>2010-01-01T20:58:57Z</time>
      </trkpt>
      <trkpt lat="44.076330" lon="3.525400">
        <ele>1134.477173</ele>
        <time>2010-01-01T20:59:22Z</time>
      </trkpt>
      <trkpt lat="44.075990" lon="3.525240">
        <ele>1133.401245</ele>
        <time>2010-01-01T20:59:31Z</time>
      </trkpt>
      <trkpt lat="44.074940" lon="3.523730">
        <ele>1132.404663</ele>
        <time>2010-01-01T20:59:37Z</time>
      </trkpt>
      <trkpt lat="44.074840" lon="3.523510">
        <ele>1132.57</ele>
        <time>2010-01-01T21:00:06Z</time>
      </trkpt>
      <trkpt lat="44.074670" lon="3.522890">
        <ele>1132.57</ele>
        <time>2010-01-01T21:00:39Z</time>
      </trkpt>
      <trkpt lat="44.074520" lon="3.522620">
        <ele>1132.57</ele>
        <time>2010-01-01T21:00:48Z</time>
      </trkpt>
      <trkpt lat="44.074380" lon="3.522550">
        <ele>1130.57</ele>
        <time>2010-01-01T21:01:03Z</time>
      </trkpt>
      <trkpt lat="44.073800" lon="3.522640">
        <ele>1125.47</ele>
        <time>2010-01-01T21:01:31Z</time>
      </trkpt>
      <trkpt lat="44.073050" lon="3.522480">
        <ele>1124.272949</ele>
        <time>2010-01-01T21:01:41Z</time>
      </trkpt>
      <trkpt lat="44.072790" lon="3.522330">
        <ele>1123.661011</ele>
        <time>2010-01-01T21:02:02Z</time>
      </trkpt>
      <trkpt lat="44.072680" lon="3.522140">
        <ele>1123.87</ele>
        <time>2010-01-01T21:02:19Z</time>
      </trkpt>
      <trkpt lat="44.072650" lon="3.521820">
        <ele>1124.36</ele>
        <time>2010-01-01T21:02:29Z</time>
      </trkpt>
      <trkpt lat="44.072710" lon="3.520910">
        <ele>1124.36</ele>
        <time>2010-01-01T21:02:35Z</time>
      </trkpt>
      <trkpt lat="44.072810" lon="3.520330">
        <ele>1124.36</ele>
        <time>2010-01-01T21:02:53Z</time>
      </trkpt>
      <trkpt lat="44.073120" lon="3.519270">
        <ele>1122.11</ele>
        <time>2010-01-01T21:02:59Z</time>
      </trkpt>
      <trkpt lat="44.073190" lon="3.519140">
        <ele>1122.11</ele>
        <time>2010-01-01T21:03:04Z</time>
      </trkpt>
      <trkpt lat="44.073420" lon="3.518930">
        <ele>1122.212524</ele>
        <time>2010-01-01T21:03:08Z</time>
      </trkpt>
      <trkpt lat="44.073440" lon="3.518850">
        <ele>1121.180054</ele>
        <time>2010-01-01T21:03:24Z</time>
      </trkpt>
      <trkpt lat="44.073440" lon="3.518570">
        <ele>1121.712402</ele>
        <time>2010-01-01T21:03:30Z</time>
      </trkpt>
      <trkpt lat="44.073260" lon="3.517940">
        <ele>1120.060059</ele>
        <time>2010-01-01T21:03:36Z</time>
      </trkpt>
      <trkpt lat="44.073160" lon="3.517660">
        <ele>1120.316284</ele>
        <time>2010-01-01T21:03:52Z</time>
      </trkpt>
      <trkpt lat="44.072860" lon="3.517300">
        <ele>1116.698730</ele>
        <time>2010-01-01T21:03:58Z</time>
      </trkpt>
      <trkpt lat="44.072680" lon="3.516790">
        <ele>1114.081177</ele>
        <time>2010-01-01T21:04:30Z</time>
      </trkpt>
      <trkpt lat="44.072680" lon="3.516540">
        <ele>1113.533203</ele>
        <time>2010-01-01T21:04:46Z</time>
      </trkpt>
      <trkpt lat="44.072750" lon="3.516290">
        <ele>1113.543457</ele>
        <time>2010-01-01T21:04:52Z</time>
      </trkpt>
      <trkpt lat="44.073000" lon="3.516050">
        <ele>1112.867920</ele>
        <time>2010-01-01T21:05:09Z</time>
      </trkpt>
      <trkpt lat="44.073790" lon="3.515900">
        <ele>1111.973999</ele>
        <time>2010-01-01T21:05:38Z</time>
      </trkpt>
      <trkpt lat="44.074540" lon="3.516100">
        <ele>1111.49</ele>
        <time>2010-01-01T21:05:55Z</time>
      </trkpt>
      <trkpt lat="44.074900" lon="3.516330">
        <ele>1111.49</ele>
        <time>2010-01-01T21:06:32Z</time>
      </trkpt>
      <trkpt lat="44.075030" lon="3.516360">
        <ele>1111.319336</ele>
        <time>2010-01-01T21:06:47Z</time>
      </trkpt>
      <trkpt lat="44.076080" lon="3.516090">
        <ele>1110.353760</ele>
        <time>2010-01-01T21:07:35Z</time>
      </trkpt>
      <trkpt lat="44.076170" lon="3.516020">
        <ele>1110.027466</ele>
        <time>2010-01-01T21:07:56Z</time>
      </trkpt>
      <trkpt lat="44.076210" lon="3.515870">
        <ele>1108.15</ele>
        <time>2010-01-01T21:08:06Z</time>
      </trkpt>
      <trkpt lat="44.076170" lon="3.515650">
        <ele>1108.15</ele>
        <time>2010-01-01T21:08:10Z</time>
      </trkpt>
      <trkpt lat="44.075720" lon="3.515310">
        <ele>1103.295044</ele>
        <time>2010-01-01T21:08:38Z</time>
      </trkpt>
      <trkpt lat="44.075670" lon="3.515250">
        <ele>1102.30</ele>
        <time>2010-01-01T21:08:45Z</time>
      </trkpt>
      <trkpt lat="44.075640" lon="3.515100">
        <ele>1101.449829</ele>
        <time>2010-01-01T21:08:49Z</time>
      </trkpt>
      <trkpt lat="44.075670" lon="3.514920">
        <ele>1100.70</ele>
        <time>2010-01-01T21:08:56Z</time>
      </trkpt>
      <trkpt lat="44.076010" lon="3.514170">
        <ele>1100.70</ele>
        <time>2010-01-01T21:09:02Z</time>
      </trkpt>
      <trkpt lat="44.076070" lon="3.513880">
        <ele>1100.70</ele>
        <time>2010-01-01T21:09:27Z</time>
      </trkpt>
      <trkpt lat="44.076040" lon="3.513680">
        <ele>1100.70</ele>
        <time>2010-01-01T21:09:41Z</time>
      </trkpt>
      <trkpt lat="44.075730" lon="3.512770">
        <ele>1096.30</ele>
        <time>2010-01-01T21:09:47Z</time>
      </trkpt>
      <trkpt lat="44.075800" lon="3.511620">
        <ele>1093.679077</ele>
        <time>2010-01-01T21:10:01Z</time>
      </trkpt>
      <trkpt lat="44.075850" lon="3.511310">
        <ele>1093.08</ele>
        <time>2010-01-01T21:10:08Z</time>
      </trkpt>
      <trkpt lat="44.076030" lon="3.510860">
        <ele>1093.08</ele>
        <time>2010-01-01T21:10:14Z</time>
      </trkpt>
      <trkpt lat="44.076530" lon="3.510160">
        <ele>1093.08</ele>
        <time>2010-01-01T21:10:26Z</time>
      </trkpt>
      <trkpt lat="44.076640" lon="3.509860">
        <ele>1093.08</ele>
        <time>2010-01-01T21:10:35Z</time>
      </trkpt>
      <trkpt lat="44.076600" lon="3.509110">
        <ele>1092.008179</ele>
        <time>2010-01-01T21:10:39Z</time>
      </trkpt>
      <trkpt lat="44.076420" lon="3.508580">
        <ele>1088.364868</ele>
        <time>2010-01-01T21:10:54Z</time>
      </trkpt>
      <trkpt lat="44.076450" lon="3.508250">
        <ele>1088.906738</ele>
        <time>2010-01-01T21:11:13Z</time>
      </trkpt>
      <trkpt lat="44.076560" lon="3.508100">
        <ele>1088.92</ele>
        <time>2010-01-01T21:11:32Z</time>
      </trkpt>
      <trkpt lat="44.076980" lon="3.507850">
        <ele>1089.13</ele>
        <time>2010-01-01T21:11:54Z</time>
      </trkpt>
      <trkpt lat="44.077040" lon="3.507660">
        <ele>1089.13</ele>
        <time>2010-01-01T21:12:34Z</time>
      </trkpt>
      <trkpt lat="44.077030" lon="3.507510">
        <ele>1089.13</ele>
        <time>2010-01-01T21:12:42Z</time>
      </trkpt>
      <trkpt lat="44.076970" lon="3.507390">
        <ele>1089.13</ele>
        <time>2010-01-01T21:12:53Z</time>
      </trkpt>
      <trkpt lat="44.076580" lon="3.507210">
        <ele>1086.87</ele>
        <time>2010-01-01T21:12:59Z</time>
      </trkpt>
      <trkpt lat="44.076470" lon="3.507070">
        <ele>1085.722534</ele>
        <time>2010-01-01T21:13:05Z</time>
      </trkpt>
      <trkpt lat="44.076440" lon="3.506870">
        <ele>1084.02</ele>
        <time>2010-01-01T21:13:23Z</time>
      </trkpt>
      <trkpt lat="44.076460" lon="3.506320">
        <ele>1082.36</ele>
        <time>2010-01-01T21:13:38Z</time>
      </trkpt>
      <trkpt lat="44.076500" lon="3.506120">
        <ele>1082.36</ele>
        <time>2010-01-01T21:14:19Z</time>
      </trkpt>
      <trkpt lat="44.076860" lon="3.505110">
        <ele>1082.36</ele>
        <time>2010-01-01T21:14:53Z</time>
      </trkpt>
      <trkpt lat="44.077130" lon="3.504700">
        <ele>1081.753784</ele>
        <time>2010-01-01T21:15:00Z</time>
      </trkpt>
      <trkpt lat="44.077170" lon="3.504530">
        <ele>1080.94</ele>
        <time>2010-01-01T21:15:19Z</time>
      </trkpt>
      <trkpt lat="44.076980" lon="3.503970">
        <ele>1080.94</ele>
        <time>2010-01-01T21:15:26Z</time>
      </trkpt>
      <trkpt lat="44.077020" lon="3.502980">
        <ele>1080.94</ele>
        <time>2010-01-01T21:15:38Z</time>
      </trkpt>
      <trkpt lat="44.076920" lon="3.502400">
        <ele>1080.94</ele>
        <time>2010-01-01T21:15:43Z</time>
      </trkpt>
      <trkpt lat="44.076620" lon="3.501190">
        <ele>1080.838379</ele>
        <time>2010-01-01T21:16:00Z</time>
      </trkpt>
      <trkpt lat="44.076360" lon="3.500800">
        <ele>1079.44</ele>
        <time>2010-01-01T21:16:12Z</time>
      </trkpt>
      <trkpt lat="44.075220" lon="3.500290">
        <ele>1072.43</ele>
        <time>2010-01-01T21:16:54Z</time>
      </trkpt>
      <trkpt lat="44.074740" lon="3.499960">
        <ele>1071.10</ele>
        <time>2010-01-01T21:17:03Z</time>
      </trkpt>
      <trkpt lat="44.074600" lon="3.499710">
        <ele>1071.10</ele>
        <time>2010-01-01T21:17:14Z</time>
      </trkpt>
      <trkpt lat="44.074500" lon="3.499630">
        <ele>1071.10</ele>
        <time>2010-01-01T21:17:56Z</time>
      </trkpt>
      <trkpt lat="44.073830" lon="3.499340">
        <ele>1071.10</ele>
        <time>2010-01-01T21:18:47Z</time>
      </trkpt>
      <trkpt lat="44.073700" lon="3.499170">
        <ele>1071.10</ele>
        <time>2010-01-01T21:18:54Z</time>
      </trkpt>
      <trkpt lat="44.073680" lon="3.499040">
        <ele>1072.80</ele>
        <time>2010-01-01T21:19:04Z</time>
      </trkpt>
      <trkpt lat="44.073710" lon="3.498810">
        <ele>1071.10</ele>
        <time>2010-01-01T21:19:31Z</time>
      </trkpt>
      <trkpt lat="44.073810" lon="3.498660">
        <ele>1071.10</ele>
        <time>2010-01-01T21:19:39Z</time>
      </trkpt>
      <trkpt lat="44.074360" lon="3.498240">
        <ele>1066.515137</ele>
        <time>2010-01-01T21:19:45Z</time>
      </trkpt>
      <trkpt lat="44.074630" lon="3.497950">
        <ele>1065.414551</ele>
        <time>2010-01-01T21:19:52Z</time>
      </trkpt>
      <trkpt lat="44.074700" lon="3.497750">
        <ele>1065.05</ele>
        <time>2010-01-01T21:20:37Z</time>
      </trkpt>
      <trkpt lat="44.074670" lon="3.497260">
        <ele>1061.68</ele>
        <time>2010-01-01T21:21:07Z</time>
      </trkpt>
      <trkpt lat="44.074760" lon="3.497050">
        <ele>1062.471558</ele>
        <time>2010-01-01T21:21:43Z</time>
      </trkpt>
      <trkpt lat="44.074890" lon="3.496950">
        <ele>1062.50</ele>
        <time>2010-01-01T21:22:15Z</time>
      </trkpt>
      <trkpt lat="44.075170" lon="3.496860">
        <ele>1062.50</ele>
        <time>2010-01-01T21:22:23Z</time>
      </trkpt>
      <trkpt lat="44.075320" lon="3.496630">
        <ele>1062.50</ele>
        <time>2010-01-01T21:23:17Z</time>
      </trkpt>
      <trkpt lat="44.075320" lon="3.496460">
        <ele>1061.20</ele>
        <time>2010-01-01T21:23:23Z</time>
      </trkpt>
      <trkpt lat="44.075140" lon="3.496020">
        <ele>1062.50</ele>
        <time>2010-01-01T21:23:39Z</time>
      </trkpt>
      <trkpt lat="44.075180" lon="3.495370">
        <ele>1061.34</ele>
        <time>2010-01-01T21:23:43Z</time>
      </trkpt>
      <trkpt lat="44.075150" lon="3.494700">
        <ele>1056.315186</ele>
        <time>2010-01-01T21:23:51Z</time>
      </trkpt>
      <trkpt lat="44.075360" lon="3.494010">
        <ele>1055.626465</ele>
        <time>2010-01-01T21:24:30Z</time>
      </trkpt>
      <trkpt lat="44.075880" lon="3.492800">
        <ele>1050.65</ele>
        <time>2010-01-01T21:24:38Z</time>
      </trkpt>
      <trkpt lat="44.076040" lon="3.492650">
        <ele>1050.65</ele>
        <time>2010-01-01T21:25:15Z</time>
      </trkpt>
      <trkpt lat="44.076320" lon="3.492590">
        <ele>1050.65</ele>
        <time>2010-01-01T21:26:18Z</time>
      </trkpt>
      <trkpt lat="44.076430" lon="3.492450">
        <ele>1050.65</ele>
        <time>2010-01-01T21:26:27Z</time>
      </trkpt>
      <trkpt lat="44.076440" lon="3.492250">
        <ele>1050.65</ele>
        <time>2010-01-01T21:26:44Z</time>
      </trkpt>
      <trkpt lat="44.076360" lon="3.491650">
        <ele>1050.65</ele>
        <time>2010-01-01T21:27:10Z</time>
      </trkpt>
      <trkpt lat="44.076400" lon="3.491100">
        <ele>1051.36</ele>
        <time>2010-01-01T21:27:27Z</time>
      </trkpt>
      <trkpt lat="44.076700" lon="3.489750">
        <ele>1052.374878</ele>
        <time>2010-01-01T21:27:50Z</time>
      </trkpt>
      <trkpt lat="44.076620" lon="3.488580">
        <ele>1052.121826</ele>
        <time>2010-01-01T21:27:57Z</time>
      </trkpt>
      <trkpt lat="44.076530" lon="3.488350">
        <ele>1050.492310</ele>
        <time>2010-01-01T21:28:10Z</time>
      </trkpt>
      <trkpt lat="44.076180" lon="3.487910">
        <ele>1046.849854</ele>
        <time>2010-01-01T21:28:33Z</time>
      </trkpt>
      <trkpt lat="44.076080" lon="3.487710">
        <ele>1046.96</ele>
        <time>2010-01-01T21:28:43Z</time>
      </trkpt>
      <trkpt lat="44.076020" lon="3.487300">
        <ele>1046.867065</ele>
        <time>2010-01-01T21:29:00Z</time>
      </trkpt>
      <trkpt lat="44.076050" lon="3.487130">
        <ele>1047.867920</ele>
        <time>2010-01-01T21:29:07Z</time>
      </trkpt>
      <trkpt lat="44.076280" lon="3.486640">
        <ele>1047.323486</ele>
        <time>2010-01-01T21:29:26Z</time>
      </trkpt>
      <trkpt lat="44.076470" lon="3.486340">
        <ele>1047.56</ele>
        <time>2010-01-01T21:29:35Z</time>
      </trkpt>
      <trkpt lat="44.076980" lon="3.485070">
        <ele>1047.56</ele>
        <time>2010-01-01T21:29:44Z</time>
      </trkpt>
      <trkpt lat="44.077040" lon="3.484760">
        <ele>1047.56</ele>
        <time>2010-01-01T21:30:02Z</time>
      </trkpt>
      <trkpt lat="44.076940" lon="3.484410">
        <ele>1047.646729</ele>
        <time>2010-01-01T21:30:06Z</time>
      </trkpt>
      <trkpt lat="44.076390" lon="3.483140">
        <ele>1046.782471</ele>
        <time>2010-01-01T21:30:12Z</time>
      </trkpt>
      <trkpt lat="44.075480" lon="3.481930">
        <ele>1040.420044</ele>
        <time>2010-01-01T21:30:17Z</time>
      </trkpt>
      <trkpt lat="44.075420" lon="3.481700">
        <ele>1039.859985</ele>
        <time>2010-01-01T21:30:24Z</time>
      </trkpt>
      <trkpt lat="44.075500" lon="3.481340">
        <ele>1039.783325</ele>
        <time>2010-01-01T21:30:48Z</time>
      </trkpt>
      <trkpt lat="44.076020" lon="3.480770">
        <ele>1041.16</ele>
        <time>2010-01-01T21:31:21Z</time>
      </trkpt>
      <trkpt lat="44.076060" lon="3.480480">
        <ele>1041.59</ele>
        <time>2010-01-01T21:31:46Z</time>
      </trkpt>
      <trkpt lat="44.076000" lon="3.480310">
        <ele>1040.96</ele>
        <time>2010-01-01T21:31:54Z</time>
      </trkpt>
      <trkpt lat="44.075840" lon="3.480220">
        <ele>1040.96</ele>
        <time>2010-01-01T21:32:00Z</time>
      </trkpt>
      <trkpt lat="44.074710" lon="3.480030">
        <ele>1040.96</ele>
        <time>2010-01-01T21:32:21Z</time>
      </trkpt>
      <trkpt lat="44.074090" lon="3.479490">
        <ele>1040.96</ele>
        <time>2010-01-01T21:32:27Z</time>
      </trkpt>
      <trkpt lat="44.073530" lon="3.478480">
        <ele>1038.96</ele>
        <time>2010-01-01T21:32:32Z</time>
      </trkpt>
      <trkpt lat="44.072900" lon="3.477790">
        <ele>1036.12</ele>
        <time>2010-01-01T21:33:01Z</time>
      </trkpt>
      <trkpt lat="44.072920" lon="3.477530">
        <ele>1034.27</ele>
        <time>2010-01-01T21:34:07Z</time>
      </trkpt>
      <trkpt lat="44.073990" lon="3.476400">
        <ele>1033.27</ele>
        <time>2010-01-01T21:34:19Z</time>
      </trkpt>
      <trkpt lat="44.074080" lon="3.476230">
        <ele>1033.27</ele>
        <time>2010-01-01T21:34:44Z</time>
      </trkpt>
      <trkpt lat="44.074230" lon="3.475690">
        <ele>1032.280640</ele>
        <time>2010-01-01T21:35:06Z</time>
      </trkpt>
      <trkpt lat="44.074280" lon="3.475590">
        <ele>1031.205811</ele>
        <time>2010-01-01T21:35:13Z</time>
      </trkpt>
      <trkpt lat="44.074450" lon="3.475470">
        <ele>1030.48</ele>
        <time>2010-01-01T21:35:22Z</time>
      </trkpt>
      <trkpt lat="44.075420" lon="3.475580">
        <ele>1033.24</ele>
        <time>2010-01-01T21:35:59Z</time>
      </trkpt>
      <trkpt lat="44.075630" lon="3.475560">
        <ele>1033.24</ele>
        <time>2010-01-01T21:36:11Z</time>
      </trkpt>
      <trkpt lat="44.076480" lon="3.475070">
        <ele>1033.24</ele>
        <time>2010-01-01T21:36:22Z</time>
      </trkpt>
      <trkpt lat="44.078020" lon="3.474540">
        <ele>1031.43</ele>
        <time>2010-01-01T21:36:27Z</time>
      </trkpt>
      <trkpt lat="44.078240" lon="3.474490">
        <ele>1031.43</ele>
        <time>2010-01-01T21:36:32Z</time>
      </trkpt>
      <trkpt lat="44.078660" lon="3.474520">
        <ele>1031.73</ele>
        <time>2010-01-01T21:36:47Z</time>
      </trkpt>
      <trkpt lat="44.079180" lon="3.474010">
        <ele>1030.95</ele>
        <time>2010-01-01T21:37:02Z</time>
      </trkpt>
      <trkpt lat="44.079600" lon="3.473900">
        <ele>1030.92</ele>
        <time>2010-01-01T21:37:14Z</time>
      </trkpt>
      <trkpt lat="44.080170" lon="3.473840">
        <ele>1030.967651</ele>
        <time>2010-01-01T21:37:30Z</time>
      </trkpt>
      <trkpt lat="44.080350" lon="3.473760">
        <ele>1029.41</ele>
        <time>2010-01-01T21:37:42Z</time>
      </trkpt>
      <trkpt lat="44.080570" lon="3.473440">
        <ele>1029.41</ele>
        <time>2010-01-01T21:37:58Z</time>
      </trkpt>
      <trkpt lat="44.080830" lon="3.472710">
        <ele>1028.69</ele>
        <time>2010-01-01T21:38:12Z</time>
      </trkpt>
      <trkpt lat="44.080970" lon="3.472440">
        <ele>1029.78</ele>
        <time>2010-01-01T21:38:42Z</time>
      </trkpt>
      <trkpt lat="44.081050" lon="3.471860">
        <ele>1029.78</ele>
        <time>2010-01-01T21:38:56Z</time>
      </trkpt>
      <trkpt lat="44.081050" lon="3.471600">
        <ele>1029.78</ele>
        <time>2010-01-01T21:39:06Z</time>
      </trkpt>
      <trkpt lat="44.080880" lon="3.471010">
        <ele>1029.78</ele>
        <time>2010-01-01T21:39:34Z</time>
      </trkpt>
      <trkpt lat="44.080880" lon="3.470680">
        <ele>1032.84</ele>
        <time>2010-01-01T21:39:47Z</time>
      </trkpt>
      <trkpt lat="44.081040" lon="3.470460">
        <ele>1032.84</ele>
        <time>2010-01-01T21:39:58Z</time>
      </trkpt>
      <trkpt lat="44.081470" lon="3.470260">
        <ele>1032.84</ele>
        <time>2010-01-01T21:40:05Z</time>
      </trkpt>
      <trkpt lat="44.081550" lon="3.470170">
        <ele>1033.18</ele>
        <time>2010-01-01T21:40:15Z</time>
      </trkpt>
      <trkpt lat="44.081600" lon="3.469990">
        <ele>1033.18</ele>
        <time>2010-01-01T21:40:27Z</time>
      </trkpt>
      <trkpt lat="44.081590" lon="3.469810">
        <ele>1033.18</ele>
        <time>2010-01-01T21:40:36Z</time>
      </trkpt>
      <trkpt lat="44.081480" lon="3.469620">
        <ele>1033.18</ele>
        <time>2010-01-01T21:40:52Z</time>
      </trkpt>
      <trkpt lat="44.080950" lon="3.469230">
        <ele>1033.18</ele>
        <time>2010-01-01T21:40:58Z</time>
      </trkpt>
      <trkpt lat="44.080310" lon="3.468520">
        <ele>1031.750000</ele>
        <time>2010-01-01T21:41:05Z</time>
      </trkpt>
      <trkpt lat="44.079750" lon="3.468120">
        <ele>1027.25</ele>
        <time>2010-01-01T21:41:21Z</time>
      </trkpt>
      <trkpt lat="44.079600" lon="3.467960">
        <ele>1027.25</ele>
        <time>2010-01-01T21:41:33Z</time>
      </trkpt>
      <trkpt lat="44.079510" lon="3.467780">
        <ele>1027.25</ele>
        <time>2010-01-01T21:41:45Z</time>
      </trkpt>
      <trkpt lat="44.079430" lon="3.467040">
        <ele>1027.25</ele>
        <time>2010-01-01T21:41:49Z</time>
      </trkpt>
      <trkpt lat="44.079360" lon="3.466870">
        <ele>1028.385498</ele>
        <time>2010-01-01T21:42:15Z</time>
      </trkpt>
      <trkpt lat="44.079250" lon="3.466780">
        <ele>1028.37</ele>
        <time>2010-01-01T21:42:31Z</time>
      </trkpt>
      <trkpt lat="44.078530" lon="3.466690">
        <ele>1022.14</ele>
        <time>2010-01-01T21:42:50Z</time>
      </trkpt>
      <trkpt lat="44.076990" lon="3.465920">
        <ele>1020.266602</ele>
        <time>2010-01-01T21:42:55Z</time>
      </trkpt>
      <trkpt lat="44.076690" lon="3.465980">
        <ele>1020.30</ele>
        <time>2010-01-01T21:43:02Z</time>
      </trkpt>
      <trkpt lat="44.076140" lon="3.466400">
        <ele>1011.335999</ele>
        <time>2010-01-01T21:43:23Z</time>
      </trkpt>
      <trkpt lat="44.075600" lon="3.466530">
        <ele>1009.433716</ele>
        <time>2010-01-01T21:43:36Z</time>
      </trkpt>
      <trkpt lat="44.075420" lon="3.466520">
        <ele>1007.661682</ele>
        <time>2010-01-01T21:43:50Z</time>
      </trkpt>
      <trkpt lat="44.075260" lon="3.466290">
        <ele>1008.741821</ele>
        <time>2010-01-01T21:43:58Z</time>
      </trkpt>
      <trkpt lat="44.074970" lon="3.465060">
        <ele>1005.523743</ele>
        <time>2010-01-01T21:44:14Z</time>
      </trkpt>
      <trkpt lat="44.074920" lon="3.464660">
        <ele>1005.72</ele>
        <time>2010-01-01T21:44:23Z</time>
      </trkpt>
      <trkpt lat="44.074950" lon="3.464290">
        <ele>1005.72</ele>
        <time>2010-01-01T21:45:52Z</time>
      </trkpt>
      <trkpt lat="44.074890" lon="3.464150">
        <ele>1005.436279</ele>
        <time>2010-01-01T21:46:00Z</time>
      </trkpt>
      <trkpt lat="44.074770" lon="3.464050">
        <ele>1005.028198</ele>
        <time>2010-01-01T21:46:15Z</time>
      </trkpt>
      <trkpt lat="44.074410" lon="3.464000">
        <ele>1003.868774</ele>
        <time>2010-01-01T21:46:38Z</time>
      </trkpt>
      <trkpt lat="44.074050" lon="3.464150">
        <ele>1002.04</ele>
        <time>2010-01-01T21:46:46Z</time>
      </trkpt>
      <trkpt lat="44.073730" lon="3.464160">
        <ele>1002.04</ele>
        <time>2010-01-01T21:47:05Z</time>
      </trkpt>
      <trkpt lat="44.073350" lon="3.464040">
        <ele>1002.04</ele>
        <time>2010-01-01T21:47:11Z</time>
      </trkpt>
      <trkpt lat="44.073070" lon="3.464180">
        <ele>997.40</ele>
        <time>2010-01-01T21:47:27Z</time>
      </trkpt>
      <trkpt lat="44.072680" lon="3.464210">
        <ele>997.40</ele>
        <time>2010-01-01T21:47:45Z</time>
      </trkpt>
      <trkpt lat="44.072360" lon="3.464440">
        <ele>993.59</ele>
        <time>2010-01-01T21:48:05Z</time>
      </trkpt>
      <trkpt lat="44.071620" lon="3.464610">
        <ele>993.59</ele>
        <time>2010-01-01T21:49:09Z</time>
      </trkpt>
      <trkpt lat="44.071360" lon="3.464940">
        <ele>988.895569</ele>
        <time>2010-01-01T21:49:13Z</time>
      </trkpt>
      <trkpt lat="44.071150" lon="3.465090">
        <ele>988.279724</ele>
        <time>2010-01-01T21:49:29Z</time>
      </trkpt>
      <trkpt lat="44.070480" lon="3.465370">
        <ele>985.280640</ele>
        <time>2010-01-01T21:49:36Z</time>
      </trkpt>
      <trkpt lat="44.070150" lon="3.465430">
        <ele>984.003113</ele>
        <time>2010-01-01T21:49:46Z</time>
      </trkpt>
      <trkpt lat="44.069870" lon="3.465420">
        <ele>984.319702</ele>
        <time>2010-01-01T21:50:19Z</time>
      </trkpt>
      <trkpt lat="44.069710" lon="3.465340">
        <ele>984.11</ele>
        <time>2010-01-01T21:50:29Z</time>
      </trkpt>
      <trkpt lat="44.069540" lon="3.465090">
        <ele>981.23</ele>
        <time>2010-01-01T21:50:44Z</time>
      </trkpt>
      <trkpt lat="44.069430" lon="3.464710">
        <ele>981.23</ele>
        <time>2010-01-01T21:50:52Z</time>
      </trkpt>
      <trkpt lat="44.069280" lon="3.464440">
        <ele>981.23</ele>
        <time>2010-01-01T21:50:58Z</time>
      </trkpt>
      <trkpt lat="44.068920" lon="3.464220">
        <ele>981.23</ele>
        <time>2010-01-01T21:51:02Z</time>
      </trkpt>
      <trkpt lat="44.068820" lon="3.464080">
        <ele>979.383179</ele>
        <time>2010-01-01T21:51:08Z</time>
      </trkpt>
      <trkpt lat="44.068760" lon="3.463850">
        <ele>978.93</ele>
        <time>2010-01-01T21:51:25Z</time>
      </trkpt>
      <trkpt lat="44.068820" lon="3.463300">
        <ele>984.16</ele>
        <time>2010-01-01T21:51:38Z</time>
      </trkpt>
      <trkpt lat="44.068680" lon="3.462930">
        <ele>984.16</ele>
        <time>2010-01-01T21:51:57Z</time>
      </trkpt>
      <trkpt lat="44.068620" lon="3.462510">
        <ele>984.14</ele>
        <time>2010-01-01T21:52:18Z</time>
      </trkpt>
      <trkpt lat="44.068570" lon="3.462410">
        <ele>984.14</ele>
        <time>2010-01-01T21:52:32Z</time>
      </trkpt>
      <trkpt lat="44.067950" lon="3.462090">
        <ele>978.26</ele>
        <time>2010-01-01T21:52:36Z</time>
      </trkpt>
      <trkpt lat="44.067560" lon="3.461990">
        <ele>973.51</ele>
        <time>2010-01-01T21:52:40Z</time>
      </trkpt>
      <trkpt lat="44.067090" lon="3.462010">
        <ele>973.51</ele>
        <time>2010-01-01T21:52:47Z</time>
      </trkpt>
      <trkpt lat="44.066980" lon="3.461900">
        <ele>973.51</ele>
        <time>2010-01-01T21:53:26Z</time>
      </trkpt>
      <trkpt lat="44.066910" lon="3.461680">
        <ele>973.51</ele>
        <time>2010-01-01T21:53:34Z</time>
      </trkpt>
      <trkpt lat="44.067010" lon="3.460970">
        <ele>972.381348</ele>
        <time>2010-01-01T21:53:50Z</time>
      </trkpt>
      <trkpt lat="44.067000" lon="3.460530">
        <ele>972.49</ele>
        <time>2010-01-01T21:54:21Z</time>
      </trkpt>
      <trkpt lat="44.067080" lon="3.460050">
        <ele>972.49</ele>
        <time>2010-01-01T21:54:43Z</time>
      </trkpt>
      <trkpt lat="44.067080" lon="3.459760">
        <ele>971.568481</ele>
        <time>2010-01-01T21:54:57Z</time>
      </trkpt>
      <trkpt lat="44.066980" lon="3.459240">
        <ele>963.834290</ele>
        <time>2010-01-01T21:55:01Z</time>
      </trkpt>
      <trkpt lat="44.067040" lon="3.458920">
        <ele>962.043701</ele>
        <time>2010-01-01T21:55:16Z</time>
      </trkpt>
      <trkpt lat="44.068670" lon="3.456840">
        <ele>955.18</ele>
        <time>2010-01-01T21:55:21Z</time>
      </trkpt>
      <trkpt lat="44.068870" lon="3.456760">
        <ele>953.70</ele>
        <time>2010-01-01T21:55:26Z</time>
      </trkpt>
      <trkpt lat="44.069240" lon="3.456780">
        <ele>953.151245</ele>
        <time>2010-01-01T21:56:07Z</time>
      </trkpt>
      <trkpt lat="44.069820" lon="3.456930">
        <ele>953.27</ele>
        <time>2010-01-01T21:56:39Z</time>
      </trkpt>
      <trkpt lat="44.070000" lon="3.456850">
        <ele>952.25</ele>
        <time>2010-01-01T21:57:11Z</time>
      </trkpt>
      <trkpt lat="44.070400" lon="3.456490">
        <ele>952.15</ele>
        <time>2010-01-01T21:57:18Z</time>
      </trkpt>
      <trkpt lat="44.070480" lon="3.456320">
        <ele>951.47</ele>
        <time>2010-01-01T21:57:32Z</time>
      </trkpt>
      <trkpt lat="44.070590" lon="3.455800">
        <ele>950.90</ele>
        <time>2010-01-01T21:57:41Z</time>
      </trkpt>
      <trkpt lat="44.070820" lon="3.455250">
        <ele>950.078552</ele>
        <time>2010-01-01T21:58:04Z</time>
      </trkpt>
      <trkpt lat="44.070960" lon="3.454580">
        <ele>945.363220</ele>
        <time>2010-01-01T21:58:15Z</time>
      </trkpt>
      <trkpt lat="44.071830" lon="3.452710">
        <ele>940.77</ele>
        <time>2010-01-01T21:58:35Z</time>
      </trkpt>
      <trkpt lat="44.071850" lon="3.452580">
        <ele>940.77</ele>
        <time>2010-01-01T21:58:44Z</time>
      </trkpt>
      <trkpt lat="44.071760" lon="3.452040">
        <ele>940.77</ele>
        <time>2010-01-01T21:59:01Z</time>
      </trkpt>
      <trkpt lat="44.071620" lon="3.451880">
        <ele>940.77</ele>
        <time>2010-01-01T21:59:05Z</time>
      </trkpt>
      <trkpt lat="44.071380" lon="3.451870">
        <ele>941.464722</ele>
        <time>2010-01-01T21:59:27Z</time>
      </trkpt>
      <trkpt lat="44.070550" lon="3.451960">
        <ele>926.877441</ele>
        <time>2010-01-01T21:59:48Z</time>
      </trkpt>
      <trkpt lat="44.070310" lon="3.452040">
        <ele>925.096069</ele>
        <time>2010-01-01T21:59:52Z</time>
      </trkpt>
      <trkpt lat="44.069930" lon="3.452050">
        <ele>922.100525</ele>
        <time>2010-01-01T21:59:57Z</time>
      </trkpt>
      <trkpt lat="44.069750" lon="3.451950">
        <ele>919.78</ele>
        <time>2010-01-01T22:00:35Z</time>
      </trkpt>
      <trkpt lat="44.069690" lon="3.451760">
        <ele>919.78</ele>
        <time>2010-01-01T22:01:07Z</time>
      </trkpt>
      <trkpt lat="44.069720" lon="3.451620">
        <ele>919.78</ele>
        <time>2010-01-01T22:01:13Z</time>
      </trkpt>
      <trkpt lat="44.069840" lon="3.451480">
        <ele>920.16</ele>
        <time>2010-01-01T22:01:21Z</time>
      </trkpt>
      <trkpt lat="44.070220" lon="3.451280">
        <ele>920.16</ele>
        <time>2010-01-01T22:01:24Z</time>
      </trkpt>
      <trkpt lat="44.070500" lon="3.451040">
        <ele>921.33</ele>
        <time>2010-01-01T22:01:35Z</time>
      </trkpt>
      <trkpt lat="44.070820" lon="3.450540">
        <ele>921.33</ele>
        <time>2010-01-01T22:01:54Z</time>
      </trkpt>
      <trkpt lat="44.071260" lon="3.450110">
        <ele>923.08</ele>
        <time>2010-01-01T22:02:21Z</time>
      </trkpt>
      <trkpt lat="44.071480" lon="3.449750">
        <ele>923.08</ele>
        <time>2010-01-01T22:02:51Z</time>
      </trkpt>
      <trkpt lat="44.071500" lon="3.449620">
        <ele>922.17</ele>
        <time>2010-01-01T22:03:14Z</time>
      </trkpt>
      <trkpt lat="44.071460" lon="3.449500">
        <ele>922.835815</ele>
        <time>2010-01-01T22:03:28Z</time>
      </trkpt>
      <trkpt lat="44.071300" lon="3.449410">
        <ele>923.903137</ele>
        <time>2010-01-01T22:03:36Z</time>
      </trkpt>
      <trkpt lat="44.070340" lon="3.449680">
        <ele>913.409241</ele>
        <time>2010-01-01T22:03:40Z</time>
      </trkpt>
      <trkpt lat="44.070130" lon="3.449680">
        <ele>912.021851</ele>
        <time>2010-01-01T22:03:52Z</time>
      </trkpt>
      <trkpt lat="44.069740" lon="3.449540">
        <ele>911.51</ele>
        <time>2010-01-01T22:04:15Z</time>
      </trkpt>
      <trkpt lat="44.069080" lon="3.448980">
        <ele>910.341553</ele>
        <time>2010-01-01T22:04:42Z</time>
      </trkpt>
      <trkpt lat="44.068640" lon="3.448510">
        <ele>909.45</ele>
        <time>2010-01-01T22:04:49Z</time>
      </trkpt>
      <trkpt lat="44.068420" lon="3.448160">
        <ele>909.45</ele>
        <time>2010-01-01T22:04:56Z</time>
      </trkpt>
      <trkpt lat="44.068400" lon="3.448010">
        <ele>909.45</ele>
        <time>2010-01-01T22:04:59Z</time>
      </trkpt>
      <trkpt lat="44.068470" lon="3.447510">
        <ele>909.45</ele>
        <time>2010-01-01T22:05:06Z</time>
      </trkpt>
      <trkpt lat="44.068460" lon="3.447340">
        <ele>909.45</ele>
        <time>2010-01-01T22:05:22Z</time>
      </trkpt>
      <trkpt lat="44.068380" lon="3.447180">
        <ele>909.45</ele>
        <time>2010-01-01T22:05:35Z</time>
      </trkpt>
      <trkpt lat="44.067490" lon="3.446530">
        <ele>908.83</ele>
        <time>2010-01-01T22:05:59Z</time>
      </trkpt>
      <trkpt lat="44.066690" lon="3.446460">
        <ele>901.92</ele>
        <time>2010-01-01T22:06:12Z</time>
      </trkpt>
      <trkpt lat="44.065900" lon="3.446230">
        <ele>898.724976</ele>
        <time>2010-01-01T22:06:27Z</time>
      </trkpt>
      <trkpt lat="44.065740" lon="3.446270">
        <ele>898.369995</ele>
        <time>2010-01-01T22:06:43Z</time>
      </trkpt>
      <trkpt lat="44.065400" lon="3.446470">
        <ele>896.407837</ele>
        <time>2010-01-01T22:06:50Z</time>
      </trkpt>
      <trkpt lat="44.065180" lon="3.446520">
        <ele>894.920776</ele>
        <time>2010-01-01T22:07:16Z</time>
      </trkpt>
      <trkpt lat="44.064600" lon="3.446510">
        <ele>886.812500</ele>
        <time>2010-01-01T22:07:23Z</time>
      </trkpt>
      <trkpt lat="44.064350" lon="3.446390">
        <ele>884.950012</ele>
        <time>2010-01-01T22:07:30Z</time>
      </trkpt>
      <trkpt lat="44.064310" lon="3.447070">
        <ele>880.23</ele>
        <time>2010-01-01T22:07:45Z</time>
      </trkpt>
      <trkpt lat="44.064130" lon="3.447300">
        <ele>880.23</ele>
        <time>2010-01-01T22:07:58Z</time>
      </trkpt>
      <trkpt lat="44.064090" lon="3.447880">
        <ele>880.157654</ele>
        <time>2010-01-01T22:08:21Z</time>
      </trkpt>
      <trkpt lat="44.064010" lon="3.447960">
        <ele>879.723450</ele>
        <time>2010-01-01T22:08:26Z</time>
      </trkpt>
      <trkpt lat="44.063470" lon="3.448100">
        <ele>869.639282</ele>
        <time>2010-01-01T22:08:30Z</time>
      </trkpt>
      <trkpt lat="44.063120" lon="3.448630">
        <ele>867.16</ele>
        <time>2010-01-01T22:08:38Z</time>
      </trkpt>
      <trkpt lat="44.063110" lon="3.448780">
        <ele>866.18</ele>
        <time>2010-01-01T22:09:02Z</time>
      </trkpt>
      <trkpt lat="44.063160" lon="3.448940">
        <ele>865.69</ele>
        <time>2010-01-01T22:09:16Z</time>
      </trkpt>
      <trkpt lat="44.064020" lon="3.449450">
        <ele>865.69</ele>
        <time>2010-01-01T22:09:27Z</time>
      </trkpt>
      <trkpt lat="44.064830" lon="3.449620">
        <ele>864.195129</ele>
        <time>2010-01-01T22:09:33Z</time>
      </trkpt>
      <trkpt lat="44.064890" lon="3.449780">
        <ele>863.818481</ele>
        <time>2010-01-01T22:09:47Z</time>
      </trkpt>
      <trkpt lat="44.064900" lon="3.450080">
        <ele>863.65</ele>
        <time>2010-01-01T22:09:58Z</time>
      </trkpt>
      <trkpt lat="44.064870" lon="3.450180">
        <ele>867.55</ele>
        <time>2010-01-01T22:10:15Z</time>
      </trkpt>
      <trkpt lat="44.064620" lon="3.450250">
        <ele>870.43</ele>
        <time>2010-01-01T22:10:20Z</time>
      </trkpt>
      <trkpt lat="44.064130" lon="3.450220">
        <ele>871.30</ele>
        <time>2010-01-01T22:10:33Z</time>
      </trkpt>
      <trkpt lat="44.063450" lon="3.450260">
        <ele>871.20</ele>
        <time>2010-01-01T22:10:38Z</time>
      </trkpt>
      <trkpt lat="44.062710" lon="3.450410">
        <ele>870.67</ele>
        <time>2010-01-01T22:10:44Z</time>
      </trkpt>
      <trkpt lat="44.062170" lon="3.450240">
        <ele>871.27</ele>
        <time>2010-01-01T22:10:56Z</time>
      </trkpt>
      <trkpt lat="44.061840" lon="3.450470">
        <ele>872.439209</ele>
        <time>2010-01-01T22:11:06Z</time>
      </trkpt>
      <trkpt lat="44.061640" lon="3.450480">
        <ele>872.29</ele>
        <time>2010-01-01T22:11:17Z</time>
      </trkpt>
      <trkpt lat="44.061540" lon="3.450450">
        <ele>870.80</ele>
        <time>2010-01-01T22:11:31Z</time>
      </trkpt>
      <trkpt lat="44.061290" lon="3.450250">
        <ele>866.60</ele>
        <time>2010-01-01T22:11:36Z</time>
      </trkpt>
      <trkpt lat="44.060800" lon="3.450700">
        <ele>866.13</ele>
        <time>2010-01-01T22:11:46Z</time>
      </trkpt>
      <trkpt lat="44.060370" lon="3.451400">
        <ele>870.90</ele>
        <time>2010-01-01T22:12:00Z</time>
      </trkpt>
      <trkpt lat="44.060190" lon="3.451420">
        <ele>869.013062</ele>
        <time>2010-01-01T22:12:04Z</time>
      </trkpt>
      <trkpt lat="44.060050" lon="3.451270">
        <ele>868.38</ele>
        <time>2010-01-01T22:12:28Z</time>
      </trkpt>
      <trkpt lat="44.060020" lon="3.451200">
        <ele>868.605774</ele>
        <time>2010-01-01T22:12:37Z</time>
      </trkpt>
      <trkpt lat="44.060040" lon="3.450960">
        <ele>867.719238</ele>
        <time>2010-01-01T22:12:48Z</time>
      </trkpt>
      <trkpt lat="44.060220" lon="3.450430">
        <ele>862.44</ele>
        <time>2010-01-01T22:13:04Z</time>
      </trkpt>
      <trkpt lat="44.060280" lon="3.450010">
        <ele>861.34</ele>
        <time>2010-01-01T22:13:07Z</time>
      </trkpt>
      <trkpt lat="44.060270" lon="3.449160">
        <ele>866.30</ele>
        <time>2010-01-01T22:13:20Z</time>
      </trkpt>
      <trkpt lat="44.060310" lon="3.448720">
        <ele>866.30</ele>
        <time>2010-01-01T22:13:34Z</time>
      </trkpt>
      <trkpt lat="44.060470" lon="3.448230">
        <ele>865.72</ele>
        <time>2010-01-01T22:13:38Z</time>
      </trkpt>
      <trkpt lat="44.060530" lon="3.447710">
        <ele>865.72</ele>
        <time>2010-01-01T22:14:00Z</time>
      </trkpt>
      <trkpt lat="44.060640" lon="3.447500">
        <ele>865.103882</ele>
        <time>2010-01-01T22:14:16Z</time>
      </trkpt>
      <trkpt lat="44.061160" lon="3.446940">
        <ele>855.435425</ele>
        <time>2010-01-01T22:14:24Z</time>
      </trkpt>
      <trkpt lat="44.061260" lon="3.446760">
        <ele>854.21</ele>
        <time>2010-01-01T22:14:29Z</time>
      </trkpt>
      <trkpt lat="44.061310" lon="3.446520">
        <ele>854.21</ele>
        <time>2010-01-01T22:14:36Z</time>
      </trkpt>
      <trkpt lat="44.061190" lon="3.446030">
        <ele>855.20</ele>
        <time>2010-01-01T22:15:02Z</time>
      </trkpt>
      <trkpt lat="44.061200" lon="3.445580">
        <ele>855.20</ele>
        <time>2010-01-01T22:15:08Z</time>
      </trkpt>
      <trkpt lat="44.060920" lon="3.444880">
        <ele>857.38</ele>
        <time>2010-01-01T22:15:15Z</time>
      </trkpt>
      <trkpt lat="44.060830" lon="3.444750">
        <ele>858.55</ele>
        <time>2010-01-01T22:15:39Z</time>
      </trkpt>
      <trkpt lat="44.060810" lon="3.444620">
        <ele>858.55</ele>
        <time>2010-01-01T22:15:46Z</time>
      </trkpt>
      <trkpt lat="44.060840" lon="3.444360">
        <ele>858.55</ele>
        <time>2010-01-01T22:15:57Z</time>
      </trkpt>
      <trkpt lat="44.061260" lon="3.443730">
        <ele>856.87</ele>
        <time>2010-01-01T22:16:18Z</time>
      </trkpt>
      <trkpt lat="44.061260" lon="3.443270">
        <ele>856.87</ele>
        <time>2010-01-01T22:16:29Z</time>
      </trkpt>
      <trkpt lat="44.061440" lon="3.442940">
        <ele>851.82</ele>
        <time>2010-01-01T22:16:45Z</time>
      </trkpt>
      <trkpt lat="44.061430" lon="3.442750">
        <ele>851.82</ele>
        <time>2010-01-01T22:17:01Z</time>
      </trkpt>
      <trkpt lat="44.061230" lon="3.442330">
        <ele>855.21</ele>
        <time>2010-01-01T22:17:17Z</time>
      </trkpt>
      <trkpt lat="44.061130" lon="3.442000">
        <ele>855.21</ele>
        <time>2010-01-01T22:17:49Z</time>
      </trkpt>
      <trkpt lat="44.061070" lon="3.441410">
        <ele>855.21</ele>
        <time>2010-01-01T22:17:56Z</time>
      </trkpt>
      <trkpt lat="44.061140" lon="3.441280">
        <ele>851.771973</ele>
        <time>2010-01-01T22:18:02Z</time>
      </trkpt>
      <trkpt lat="44.061450" lon="3.441120">
        <ele>849.74</ele>
        <time>2010-01-01T22:18:11Z</time>
      </trkpt>
      <trkpt lat="44.061560" lon="3.441010">
        <ele>848.59</ele>
        <time>2010-01-01T22:18:16Z</time>
      </trkpt>
      <trkpt lat="44.061620" lon="3.440810">
        <ele>848.543335</ele>
        <time>2010-01-01T22:18:28Z</time>
      </trkpt>
      <trkpt lat="44.061620" lon="3.440420">
        <ele>855.145996</ele>
        <time>2010-01-01T22:18:37Z</time>
      </trkpt>
      <trkpt lat="44.061730" lon="3.440100">
        <ele>855.704407</ele>
        <time>2010-01-01T22:18:49Z</time>
      </trkpt>
      <trkpt lat="44.061770" lon="3.439730">
        <ele>859.02</ele>
        <time>2010-01-01T22:19:03Z</time>
      </trkpt>
      <trkpt lat="44.061900" lon="3.439260">
        <ele>859.02</ele>
        <time>2010-01-01T22:19:20Z</time>
      </trkpt>
      <trkpt lat="44.062000" lon="3.439140">
        <ele>859.02</ele>
        <time>2010-01-01T22:19:30Z</time>
      </trkpt>
      <trkpt lat="44.062240" lon="3.439030">
        <ele>858.43</ele>
        <time>2010-01-01T22:19:38Z</time>
      </trkpt>
      <trkpt lat="44.062420" lon="3.438640">
        <ele>858.773254</ele>
        <time>2010-01-01T22:19:54Z</time>
      </trkpt>
      <trkpt lat="44.062510" lon="3.438540">
        <ele>858.971497</ele>
        <time>2010-01-01T22:20:15Z</time>
      </trkpt>
      <trkpt lat="44.063040" lon="3.438200">
        <ele>857.562378</ele>
        <time>2010-01-01T22:20:23Z</time>
      </trkpt>
      <trkpt lat="44.063280" lon="3.438230">
        <ele>853.03</ele>
        <time>2010-01-01T22:20:33Z</time>
      </trkpt>
      <trkpt lat="44.063530" lon="3.438120">
        <ele>853.03</ele>
        <time>2010-01-01T22:20:37Z</time>
      </trkpt>
      <trkpt lat="44.063860" lon="3.437780">
        <ele>855.88</ele>
        <time>2010-01-01T22:20:41Z</time>
      </trkpt>
      <trkpt lat="44.063930" lon="3.437760">
        <ele>855.88</ele>
        <time>2010-01-01T22:20:46Z</time>
      </trkpt>
      <trkpt lat="44.064230" lon="3.437850">
        <ele>855.88</ele>
        <time>2010-01-01T22:21:00Z</time>
      </trkpt>
      <trkpt lat="44.064550" lon="3.437630">
        <ele>855.88</ele>
        <time>2010-01-01T22:21:04Z</time>
      </trkpt>
      <trkpt lat="44.064590" lon="3.437500">
        <ele>855.88</ele>
        <time>2010-01-01T22:21:08Z</time>
      </trkpt>
      <trkpt lat="44.064660" lon="3.436730">
        <ele>865.05</ele>
        <time>2010-01-01T22:21:15Z</time>
      </trkpt>
      <trkpt lat="44.064770" lon="3.436190">
        <ele>862.17</ele>
        <time>2010-01-01T22:21:40Z</time>
      </trkpt>
      <trkpt lat="44.064740" lon="3.435940">
        <ele>860.91</ele>
        <time>2010-01-01T22:21:48Z</time>
      </trkpt>
      <trkpt lat="44.064660" lon="3.435800">
        <ele>860.91</ele>
        <time>2010-01-01T22:22:08Z</time>
      </trkpt>
      <trkpt lat="44.064480" lon="3.435730">
        <ele>860.91</ele>
        <time>2010-01-01T22:22:14Z</time>
      </trkpt>
      <trkpt lat="44.063830" lon="3.435700">
        <ele>863.21</ele>
        <time>2010-01-01T22:22:18Z</time>
      </trkpt>
      <trkpt lat="44.063710" lon="3.435580">
        <ele>864.21</ele>
        <time>2010-01-01T22:22:30Z</time>
      </trkpt>
      <trkpt lat="44.063700" lon="3.435350">
        <ele>864.21</ele>
        <time>2010-01-01T22:22:35Z</time>
      </trkpt>
      <trkpt lat="44.063930" lon="3.434590">
        <ele>864.21</ele>
        <time>2010-01-01T22:22:50Z</time>
      </trkpt>
      <trkpt lat="44.063940" lon="3.434320">
        <ele>862.22</ele>
        <time>2010-01-01T22:23:00Z</time>
      </trkpt>
      <trkpt lat="44.063810" lon="3.433990">
        <ele>862.22</ele>
        <time>2010-01-01T22:23:04Z</time>
      </trkpt>
      <trkpt lat="44.063480" lon="3.433450">
        <ele>859.15</ele>
        <time>2010-01-01T22:23:14Z</time>
      </trkpt>
      <trkpt lat="44.063220" lon="3.433290">
        <ele>859.15</ele>
        <time>2010-01-01T22:23:18Z</time>
      </trkpt>
      <trkpt lat="44.062900" lon="3.432950">
        <ele>857.38</ele>
        <time>2010-01-01T22:23:22Z</time>
      </trkpt>
      <trkpt lat="44.062510" lon="3.432960">
        <ele>864.39</ele>
        <time>2010-01-01T22:23:40Z</time>
      </trkpt>
      <trkpt lat="44.062120" lon="3.432840">
        <ele>861.17</ele>
        <time>2010-01-01T22:23:56Z</time>
      </trkpt>
      <trkpt lat="44.061320" lon="3.432770">
        <ele>860.46</ele>
        <time>2010-01-01T22:24:23Z</time>
      </trkpt>
      <trkpt lat="44.061150" lon="3.432710">
        <ele>862.70</ele>
        <time>2010-01-01T22:24:28Z</time>
      </trkpt>
      <trkpt lat="44.061040" lon="3.432540">
        <ele>864.22</ele>
        <time>2010-01-01T22:24:36Z</time>
      </trkpt>
      <trkpt lat="44.061050" lon="3.432240">
        <ele>864.22</ele>
        <time>2010-01-01T22:24:44Z</time>
      </trkpt>
      <trkpt lat="44.061130" lon="3.432120">
        <ele>864.22</ele>
        <time>2010-01-01T22:25:12Z</time>
      </trkpt>
      <trkpt lat="44.061390" lon="3.431920">
        <ele>856.53</ele>
        <time>2010-01-01T22:25:33Z</time>
      </trkpt>
      <trkpt lat="44.061510" lon="3.431650">
        <ele>856.48</ele>
        <time>2010-01-01T22:25:53Z</time>
      </trkpt>
      <trkpt lat="44.061750" lon="3.431370">
        <ele>856.72</ele>
        <time>2010-01-01T22:25:57Z</time>
      </trkpt>
      <trkpt lat="44.061880" lon="3.430930">
        <ele>854.16</ele>
        <time>2010-01-01T22:26:07Z</time>
      </trkpt>
      <trkpt lat="44.062140" lon="3.430470">
        <ele>853.16</ele>
        <time>2010-01-01T22:26:19Z</time>
      </trkpt>
      <trkpt lat="44.062230" lon="3.430140">
        <ele>853.15</ele>
        <time>2010-01-01T22:26:30Z</time>
      </trkpt>
      <trkpt lat="44.062230" lon="3.429870">
        <ele>853.58</ele>
        <time>2010-01-01T22:26:48Z</time>
      </trkpt>
      <trkpt lat="44.062140" lon="3.429320">
        <ele>852.21</ele>
        <time>2010-01-01T22:27:09Z</time>
      </trkpt>
      <trkpt lat="44.061940" lon="3.428640">
        <ele>852.21</ele>
        <time>2010-01-01T22:27:47Z</time>
      </trkpt>
      <trkpt lat="44.061810" lon="3.428430">
        <ele>852.21</ele>
        <time>2010-01-01T22:28:06Z</time>
      </trkpt>
      <trkpt lat="44.061580" lon="3.428280">
        <ele>852.21</ele>
        <time>2010-01-01T22:28:28Z</time>
      </trkpt>
      <trkpt lat="44.061530" lon="3.428160">
        <ele>852.21</ele>
        <time>2010-01-01T22:28:39Z</time>
      </trkpt>
      <trkpt lat="44.061530" lon="3.428020">
        <ele>852.21</ele>
        <time>2010-01-01T22:28:50Z</time>
      </trkpt>
      <trkpt lat="44.061580" lon="3.427870">
        <ele>852.21</ele>
        <time>2010-01-01T22:28:59Z</time>
      </trkpt>
      <trkpt lat="44.061830" lon="3.427530">
        <ele>847.48</ele>
        <time>2010-01-01T22:29:31Z</time>
      </trkpt>
      <trkpt lat="44.061840" lon="3.427390">
        <ele>845.77</ele>
        <time>2010-01-01T22:29:40Z</time>
      </trkpt>
      <trkpt lat="44.061800" lon="3.427260">
        <ele>845.825378</ele>
        <time>2010-01-01T22:29:45Z</time>
      </trkpt>
      <trkpt lat="44.061660" lon="3.427130">
        <ele>845.20</ele>
        <time>2010-01-01T22:29:52Z</time>
      </trkpt>
      <trkpt lat="44.061040" lon="3.426950">
        <ele>842.106812</ele>
        <time>2010-01-01T22:30:04Z</time>
      </trkpt>
      <trkpt lat="44.060850" lon="3.427050">
        <ele>841.91</ele>
        <time>2010-01-01T22:30:20Z</time>
      </trkpt>
      <trkpt lat="44.060470" lon="3.427480">
        <ele>841.91</ele>
        <time>2010-01-01T22:30:25Z</time>
      </trkpt>
      <trkpt lat="44.060320" lon="3.427510">
        <ele>841.91</ele>
        <time>2010-01-01T22:30:51Z</time>
      </trkpt>
      <trkpt lat="44.060230" lon="3.427450">
        <ele>841.91</ele>
        <time>2010-01-01T22:30:56Z</time>
      </trkpt>
      <trkpt lat="44.060010" lon="3.427160">
        <ele>841.91</ele>
        <time>2010-01-01T22:31:01Z</time>
      </trkpt>
      <trkpt lat="44.059880" lon="3.427120">
        <ele>842.43</ele>
        <time>2010-01-01T22:31:18Z</time>
      </trkpt>
      <trkpt lat="44.059550" lon="3.427300">
        <ele>840.99</ele>
        <time>2010-01-01T22:31:28Z</time>
      </trkpt>
      <trkpt lat="44.059330" lon="3.427480">
        <ele>840.99</ele>
        <time>2010-01-01T22:31:39Z</time>
      </trkpt>
      <trkpt lat="44.059290" lon="3.427620">
        <ele>840.99</ele>
        <time>2010-01-01T22:31:52Z</time>
      </trkpt>
      <trkpt lat="44.059330" lon="3.427970">
        <ele>842.39</ele>
        <time>2010-01-01T22:31:56Z</time>
      </trkpt>
      <trkpt lat="44.059310" lon="3.428100">
        <ele>843.060791</ele>
        <time>2010-01-01T22:32:02Z</time>
      </trkpt>
      <trkpt lat="44.059240" lon="3.428200">
        <ele>843.07</ele>
        <time>2010-01-01T22:32:27Z</time>
      </trkpt>
      <trkpt lat="44.058820" lon="3.428350">
        <ele>843.07</ele>
        <time>2010-01-01T22:32:39Z</time>
      </trkpt>
      <trkpt lat="44.058420" lon="3.428250">
        <ele>843.07</ele>
        <time>2010-01-01T22:32:52Z</time>
      </trkpt>
      <trkpt lat="44.057940" lon="3.428920">
        <ele>842.90</ele>
        <time>2010-01-01T22:32:58Z</time>
      </trkpt>
      <trkpt lat="44.057820" lon="3.428910">
        <ele>841.940125</ele>
        <time>2010-01-01T22:33:16Z</time>
      </trkpt>
      <trkpt lat="44.057640" lon="3.428750">
        <ele>836.285522</ele>
        <time>2010-01-01T22:33:52Z</time>
      </trkpt>
      <trkpt lat="44.057460" lon="3.428710">
        <ele>836.20</ele>
        <time>2010-01-01T22:34:02Z</time>
      </trkpt>
      <trkpt lat="44.056750" lon="3.428860">
        <ele>836.45</ele>
        <time>2010-01-01T22:34:06Z</time>
      </trkpt>
      <trkpt lat="44.056260" lon="3.429100">
        <ele>836.45</ele>
        <time>2010-01-01T22:34:10Z</time>
      </trkpt>
      <trkpt lat="44.055890" lon="3.429560">
        <ele>836.45</ele>
        <time>2010-01-01T22:34:18Z</time>
      </trkpt>
      <trkpt lat="44.055860" lon="3.429680">
        <ele>835.86</ele>
        <time>2010-01-01T22:34:28Z</time>
      </trkpt>
      <trkpt lat="44.055910" lon="3.430040">
        <ele>833.42</ele>
        <time>2010-01-01T22:34:33Z</time>
      </trkpt>
      <trkpt lat="44.055890" lon="3.430450">
        <ele>833.42</ele>
        <time>2010-01-01T22:34:38Z</time>
      </trkpt>
      <trkpt lat="44.055710" lon="3.430730">
        <ele>833.42</ele>
        <time>2010-01-01T22:34:45Z</time>
      </trkpt>
      <trkpt lat="44.055330" lon="3.431090">
        <ele>833.42</ele>
        <time>2010-01-01T22:34:58Z</time>
      </trkpt>
      <trkpt lat="44.054810" lon="3.431210">
        <ele>832.553711</ele>
        <time>2010-01-01T22:35:01Z</time>
      </trkpt>
      <trkpt lat="44.053940" lon="3.431670">
        <ele>829.76</ele>
        <time>2010-01-01T22:35:14Z</time>
      </trkpt>
      <trkpt lat="44.053530" lon="3.432050">
        <ele>829.76</ele>
        <time>2010-01-01T22:35:23Z</time>
      </trkpt>
      <trkpt lat="44.053200" lon="3.432660">
        <ele>829.122498</ele>
        <time>2010-01-01T22:35:28Z</time>
      </trkpt>
      <trkpt lat="44.053000" lon="3.432910">
        <ele>827.98</ele>
        <time>2010-01-01T22:36:00Z</time>
      </trkpt>
      <trkpt lat="44.052860" lon="3.433250">
        <ele>827.98</ele>
        <time>2010-01-01T22:36:13Z</time>
      </trkpt>
      <trkpt lat="44.052670" lon="3.433410">
        <ele>826.41</ele>
        <time>2010-01-01T22:36:25Z</time>
      </trkpt>
      <trkpt lat="44.052090" lon="3.434160">
        <ele>825.59</ele>
        <time>2010-01-01T22:36:30Z</time>
      </trkpt>
      <trkpt lat="44.051860" lon="3.434150">
        <ele>825.59</ele>
        <time>2010-01-01T22:36:38Z</time>
      </trkpt>
      <trkpt lat="44.051780" lon="3.434040">
        <ele>825.59</ele>
        <time>2010-01-01T22:36:51Z</time>
      </trkpt>
      <trkpt lat="44.051770" lon="3.433800">
        <ele>825.59</ele>
        <time>2010-01-01T22:36:56Z</time>
      </trkpt>
      <trkpt lat="44.051840" lon="3.433370">
        <ele>824.664612</ele>
        <time>2010-01-01T22:37:02Z</time>
      </trkpt>
      <trkpt lat="44.051710" lon="3.432850">
        <ele>823.175537</ele>
        <time>2010-01-01T22:37:16Z</time>
      </trkpt>
      <trkpt lat="44.051590" lon="3.432780">
        <ele>823.436035</ele>
        <time>2010-01-01T22:37:32Z</time>
      </trkpt>
      <trkpt lat="44.050970" lon="3.432950">
        <ele>827.48</ele>
        <time>2010-01-01T22:37:38Z</time>
      </trkpt>
      <trkpt lat="44.050860" lon="3.432840">
        <ele>827.48</ele>
        <time>2010-01-01T22:37:43Z</time>
      </trkpt>
      <trkpt lat="44.050890" lon="3.432680">
        <ele>827.48</ele>
        <time>2010-01-01T22:37:59Z</time>
      </trkpt>
      <trkpt lat="44.051090" lon="3.432170">
        <ele>827.48</ele>
        <time>2010-01-01T22:38:04Z</time>
      </trkpt>
      <trkpt lat="44.051250" lon="3.431890">
        <ele>826.158325</ele>
        <time>2010-01-01T22:38:14Z</time>
      </trkpt>
      <trkpt lat="44.051360" lon="3.431540">
        <ele>824.661255</ele>
        <time>2010-01-01T22:38:17Z</time>
      </trkpt>
      <trkpt lat="44.051380" lon="3.431070">
        <ele>824.608765</ele>
        <time>2010-01-01T22:38:26Z</time>
      </trkpt>
      <trkpt lat="44.051360" lon="3.430940">
        <ele>824.169373</ele>
        <time>2010-01-01T22:38:31Z</time>
      </trkpt>
      <trkpt lat="44.051270" lon="3.430800">
        <ele>826.24</ele>
        <time>2010-01-01T22:38:51Z</time>
      </trkpt>
      <trkpt lat="44.051140" lon="3.429940">
        <ele>831.075623</ele>
        <time>2010-01-01T22:38:56Z</time>
      </trkpt>
      <trkpt lat="44.051340" lon="3.429610">
        <ele>831.467529</ele>
        <time>2010-01-01T22:39:08Z</time>
      </trkpt>
      <trkpt lat="44.051600" lon="3.429350">
        <ele>832.440125</ele>
        <time>2010-01-01T22:39:21Z</time>
      </trkpt>
      <trkpt lat="44.051660" lon="3.429170">
        <ele>833.259033</ele>
        <time>2010-01-01T22:39:28Z</time>
      </trkpt>
      <trkpt lat="44.051680" lon="3.428530">
        <ele>834.57</ele>
        <time>2010-01-01T22:39:41Z</time>
      </trkpt>
      <trkpt lat="44.051640" lon="3.427290">
        <ele>839.18</ele>
        <time>2010-01-01T22:39:56Z</time>
      </trkpt>
      <trkpt lat="44.051700" lon="3.426960">
        <ele>839.731079</ele>
        <time>2010-01-01T22:40:16Z</time>
      </trkpt>
      <trkpt lat="44.051760" lon="3.426860">
        <ele>839.11</ele>
        <time>2010-01-01T22:40:50Z</time>
      </trkpt>
      <trkpt lat="44.051870" lon="3.426830">
        <ele>839.99</ele>
        <time>2010-01-01T22:40:58Z</time>
      </trkpt>
      <trkpt lat="44.052030" lon="3.427000">
        <ele>840.63</ele>
        <time>2010-01-01T22:41:04Z</time>
      </trkpt>
      <trkpt lat="44.052180" lon="3.427260">
        <ele>840.07</ele>
        <time>2010-01-01T22:41:10Z</time>
      </trkpt>
      <trkpt lat="44.052300" lon="3.427290">
        <ele>840.07</ele>
        <time>2010-01-01T22:41:32Z</time>
      </trkpt>
      <trkpt lat="44.052420" lon="3.427230">
        <ele>840.07</ele>
        <time>2010-01-01T22:41:57Z</time>
      </trkpt>
      <trkpt lat="44.052520" lon="3.427000">
        <ele>840.07</ele>
        <time>2010-01-01T22:42:10Z</time>
      </trkpt>
      <trkpt lat="44.052460" lon="3.426580">
        <ele>841.82</ele>
        <time>2010-01-01T22:42:22Z</time>
      </trkpt>
      <trkpt lat="44.052490" lon="3.426460">
        <ele>842.535583</ele>
        <time>2010-01-01T22:42:58Z</time>
      </trkpt>
      <trkpt lat="44.052740" lon="3.426180">
        <ele>842.94</ele>
        <time>2010-01-01T22:43:06Z</time>
      </trkpt>
      <trkpt lat="44.052960" lon="3.426120">
        <ele>842.94</ele>
        <time>2010-01-01T22:43:10Z</time>
      </trkpt>
      <trkpt lat="44.053060" lon="3.426020">
        <ele>843.764526</ele>
        <time>2010-01-01T22:43:13Z</time>
      </trkpt>
      <trkpt lat="44.053600" lon="3.425190">
        <ele>847.095642</ele>
        <time>2010-01-01T22:43:34Z</time>
      </trkpt>
      <trkpt lat="44.053760" lon="3.424820">
        <ele>848.23</ele>
        <time>2010-01-01T22:44:39Z</time>
      </trkpt>
      <trkpt lat="44.054010" lon="3.424590">
        <ele>849.32</ele>
        <time>2010-01-01T22:44:52Z</time>
      </trkpt>
      <trkpt lat="44.054080" lon="3.424440">
        <ele>849.68</ele>
        <time>2010-01-01T22:45:04Z</time>
      </trkpt>
      <trkpt lat="44.054060" lon="3.424170">
        <ele>852.53</ele>
        <time>2010-01-01T22:45:10Z</time>
      </trkpt>
      <trkpt lat="44.053880" lon="3.423790">
        <ele>855.64</ele>
        <time>2010-01-01T22:45:31Z</time>
      </trkpt>
      <trkpt lat="44.053850" lon="3.423630">
        <ele>858.451965</ele>
        <time>2010-01-01T22:45:39Z</time>
      </trkpt>
      <trkpt lat="44.053870" lon="3.423420">
        <ele>860.763245</ele>
        <time>2010-01-01T22:45:51Z</time>
      </trkpt>
      <trkpt lat="44.054070" lon="3.423010">
        <ele>856.640808</ele>
        <time>2010-01-01T22:46:12Z</time>
      </trkpt>
      <trkpt lat="44.054130" lon="3.422450">
        <ele>856.64</ele>
        <time>2010-01-01T22:46:29Z</time>
      </trkpt>
      <trkpt lat="44.054120" lon="3.422260">
        <ele>856.64</ele>
        <time>2010-01-01T22:46:50Z</time>
      </trkpt>
      <trkpt lat="44.054060" lon="3.422080">
        <ele>858.97</ele>
        <time>2010-01-01T22:47:09Z</time>
      </trkpt>
      <trkpt lat="44.053810" lon="3.421680">
        <ele>866.24</ele>
        <time>2010-01-01T22:47:17Z</time>
      </trkpt>
      <trkpt lat="44.053840" lon="3.421510">
        <ele>866.24</ele>
        <time>2010-01-01T22:47:20Z</time>
      </trkpt>
      <trkpt lat="44.053980" lon="3.421220">
        <ele>862.367676</ele>
        <time>2010-01-01T22:47:27Z</time>
      </trkpt>
      <trkpt lat="44.053960" lon="3.421100">
        <ele>861.460999</ele>
        <time>2010-01-01T22:47:47Z</time>
      </trkpt>
      <trkpt lat="44.053800" lon="3.420890">
        <ele>861.06</ele>
        <time>2010-01-01T22:47:59Z</time>
      </trkpt>
      <trkpt lat="44.053680" lon="3.420820">
        <ele>861.750977</ele>
        <time>2010-01-01T22:48:26Z</time>
      </trkpt>
      <trkpt lat="44.053180" lon="3.420900">
        <ele>873.289978</ele>
        <time>2010-01-01T22:48:39Z</time>
      </trkpt>
      <trkpt lat="44.053080" lon="3.420860">
        <ele>874.067505</ele>
        <time>2010-01-01T22:48:46Z</time>
      </trkpt>
      <trkpt lat="44.052800" lon="3.420680">
        <ele>874.11</ele>
        <time>2010-01-01T22:48:55Z</time>
      </trkpt>
      <trkpt lat="44.052560" lon="3.420390">
        <ele>874.11</ele>
        <time>2010-01-01T22:49:04Z</time>
      </trkpt>
      <trkpt lat="44.052390" lon="3.420320">
        <ele>874.11</ele>
        <time>2010-01-01T22:49:22Z</time>
      </trkpt>
      <trkpt lat="44.052070" lon="3.420330">
        <ele>874.11</ele>
        <time>2010-01-01T22:49:30Z</time>
      </trkpt>
      <trkpt lat="44.051680" lon="3.420420">
        <ele>878.73</ele>
        <time>2010-01-01T22:49:40Z</time>
      </trkpt>
      <trkpt lat="44.051240" lon="3.420140">
        <ele>879.21</ele>
        <time>2010-01-01T22:50:07Z</time>
      </trkpt>
      <trkpt lat="44.050400" lon="3.419990">
        <ele>885.48</ele>
        <time>2010-01-01T22:50:14Z</time>
      </trkpt>
      <trkpt lat="44.050190" lon="3.419930">
        <ele>887.86</ele>
        <time>2010-01-01T22:50:30Z</time>
      </trkpt>
      <trkpt lat="44.050080" lon="3.419820">
        <ele>887.86</ele>
        <time>2010-01-01T22:50:58Z</time>
      </trkpt>
      <trkpt lat="44.050080" lon="3.419600">
        <ele>887.86</ele>
        <time>2010-01-01T22:51:06Z</time>
      </trkpt>
      <trkpt lat="44.050330" lon="3.418910">
        <ele>887.86</ele>
        <time>2010-01-01T22:51:14Z</time>
      </trkpt>
      <trkpt lat="44.050530" lon="3.418080">
        <ele>887.95</ele>
        <time>2010-01-01T22:51:38Z</time>
      </trkpt>
      <trkpt lat="44.050580" lon="3.417630">
        <ele>887.799011</ele>
        <time>2010-01-01T22:52:04Z</time>
      </trkpt>
      <trkpt lat="44.050510" lon="3.417250">
        <ele>887.63</ele>
        <time>2010-01-01T22:52:09Z</time>
      </trkpt>
      <trkpt lat="44.051120" lon="3.416320">
        <ele>887.63</ele>
        <time>2010-01-01T22:52:15Z</time>
      </trkpt>
      <trkpt lat="44.051210" lon="3.416080">
        <ele>888.399109</ele>
        <time>2010-01-01T22:52:37Z</time>
      </trkpt>
      <trkpt lat="44.051180" lon="3.415950">
        <ele>887.081604</ele>
        <time>2010-01-01T22:52:49Z</time>
      </trkpt>
      <trkpt lat="44.051090" lon="3.415970">
        <ele>885.946533</ele>
        <time>2010-01-01T22:53:00Z</time>
      </trkpt>
      <trkpt lat="44.050670" lon="3.416370">
        <ele>883.382690</ele>
        <time>2010-01-01T22:53:05Z</time>
      </trkpt>
      <trkpt lat="44.049450" lon="3.417890">
        <ele>879.285828</ele>
        <time>2010-01-01T22:53:19Z</time>
      </trkpt>
      <trkpt lat="44.049180" lon="3.418120">
        <ele>874.168762</ele>
        <time>2010-01-01T22:53:29Z</time>
      </trkpt>
      <trkpt lat="44.048950" lon="3.418410">
        <ele>873.52</ele>
        <time>2010-01-01T22:53:48Z</time>
      </trkpt>
      <trkpt lat="44.048880" lon="3.418580">
        <ele>873.52</ele>
        <time>2010-01-01T22:53:55Z</time>
      </trkpt>
      <trkpt lat="44.048780" lon="3.419310">
        <ele>873.52</ele>
        <time>2010-01-01T22:54:12Z</time>
      </trkpt>
      <trkpt lat="44.048670" lon="3.419540">
        <ele>872.523376</ele>
        <time>2010-01-01T22:54:31Z</time>
      </trkpt>
      <trkpt lat="44.048410" lon="3.419690">
        <ele>871.78</ele>
        <time>2010-01-01T22:54:44Z</time>
      </trkpt>
      <trkpt lat="44.047880" lon="3.419660">
        <ele>865.92</ele>
        <time>2010-01-01T22:54:49Z</time>
      </trkpt>
      <trkpt lat="44.047450" lon="3.419710">
        <ele>860.366638</ele>
        <time>2010-01-01T22:54:55Z</time>
      </trkpt>
      <trkpt lat="44.046970" lon="3.420000">
        <ele>860.27</ele>
        <time>2010-01-01T22:55:04Z</time>
      </trkpt>
      <trkpt lat="44.046700" lon="3.420530">
        <ele>860.27</ele>
        <time>2010-01-01T22:55:12Z</time>
      </trkpt>
      <trkpt lat="44.046490" lon="3.420540">
        <ele>860.27</ele>
        <time>2010-01-01T22:55:20Z</time>
      </trkpt>
      <trkpt lat="44.046440" lon="3.420470">
        <ele>860.27</ele>
        <time>2010-01-01T22:55:35Z</time>
      </trkpt>
      <trkpt lat="44.046420" lon="3.420230">
        <ele>860.27</ele>
        <time>2010-01-01T22:55:44Z</time>
      </trkpt>
      <trkpt lat="44.046570" lon="3.419560">
        <ele>860.27</ele>
        <time>2010-01-01T22:55:50Z</time>
      </trkpt>
      <trkpt lat="44.046740" lon="3.419240">
        <ele>860.19</ele>
        <time>2010-01-01T22:55:56Z</time>
      </trkpt>
      <trkpt lat="44.046990" lon="3.418340">
        <ele>857.38</ele>
        <time>2010-01-01T22:56:12Z</time>
      </trkpt>
      <trkpt lat="44.047190" lon="3.417980">
        <ele>856.93</ele>
        <time>2010-01-01T22:56:35Z</time>
      </trkpt>
      <trkpt lat="44.047210" lon="3.417740">
        <ele>855.177917</ele>
        <time>2010-01-01T22:56:44Z</time>
      </trkpt>
      <trkpt lat="44.047140" lon="3.417460">
        <ele>854.89</ele>
        <time>2010-01-01T22:57:02Z</time>
      </trkpt>
      <trkpt lat="44.047150" lon="3.417140">
        <ele>853.84</ele>
        <time>2010-01-01T22:57:06Z</time>
      </trkpt>
      <trkpt lat="44.047480" lon="3.416700">
        <ele>851.932129</ele>
        <time>2010-01-01T22:57:15Z</time>
      </trkpt>
      <trkpt lat="44.047590" lon="3.416500">
        <ele>850.32</ele>
        <time>2010-01-01T22:57:32Z</time>
      </trkpt>
      <trkpt lat="44.047690" lon="3.416170">
        <ele>850.32</ele>
        <time>2010-01-01T22:57:47Z</time>
      </trkpt>
      <trkpt lat="44.047840" lon="3.415250">
        <ele>846.502502</ele>
        <time>2010-01-01T22:58:23Z</time>
      </trkpt>
      <trkpt lat="44.047840" lon="3.415020">
        <ele>846.273743</ele>
        <time>2010-01-01T22:58:30Z</time>
      </trkpt>
      <trkpt lat="44.047740" lon="3.414480">
        <ele>844.97</ele>
        <time>2010-01-01T22:58:38Z</time>
      </trkpt>
      <trkpt lat="44.047740" lon="3.413490">
        <ele>835.94</ele>
        <time>2010-01-01T22:59:34Z</time>
      </trkpt>
      <trkpt lat="44.047660" lon="3.413240">
        <ele>829.39</ele>
        <time>2010-01-01T22:59:39Z</time>
      </trkpt>
      <trkpt lat="44.047480" lon="3.413110">
        <ele>829.39</ele>
        <time>2010-01-01T22:59:45Z</time>
      </trkpt>
      <trkpt lat="44.046890" lon="3.413140">
        <ele>835.65</ele>
        <time>2010-01-01T22:59:55Z</time>
      </trkpt>
      <trkpt lat="44.046270" lon="3.412890">
        <ele>835.47</ele>
        <time>2010-01-01T23:00:11Z</time>
      </trkpt>
      <trkpt lat="44.046150" lon="3.412800">
        <ele>834.86</ele>
        <time>2010-01-01T23:00:27Z</time>
      </trkpt>
      <trkpt lat="44.046080" lon="3.412620">
        <ele>833.79</ele>
        <time>2010-01-01T23:00:57Z</time>
      </trkpt>
      <trkpt lat="44.046040" lon="3.411860">
        <ele>831.26</ele>
        <time>2010-01-01T23:01:12Z</time>
      </trkpt>
      <trkpt lat="44.045970" lon="3.411440">
        <ele>828.26</ele>
        <time>2010-01-01T23:01:40Z</time>
      </trkpt>
      <trkpt lat="44.045870" lon="3.411110">
        <ele>824.87</ele>
        <time>2010-01-01T23:02:00Z</time>
      </trkpt>
      <trkpt lat="44.045740" lon="3.411050">
        <ele>822.51</ele>
        <time>2010-01-01T23:02:05Z</time>
      </trkpt>
      <trkpt lat="44.045400" lon="3.411150">
        <ele>820.42</ele>
        <time>2010-01-01T23:02:12Z</time>
      </trkpt>
      <trkpt lat="44.045180" lon="3.411040">
        <ele>819.26</ele>
        <time>2010-01-01T23:02:36Z</time>
      </trkpt>
      <trkpt lat="44.044710" lon="3.410820">
        <ele>818.05</ele>
        <time>2010-01-01T23:02:47Z</time>
      </trkpt>
      <trkpt lat="44.044610" lon="3.410620">
        <ele>815.63</ele>
        <time>2010-01-01T23:02:57Z</time>
      </trkpt>
      <trkpt lat="44.044520" lon="3.410060">
        <ele>806.127075</ele>
        <time>2010-01-01T23:03:02Z</time>
      </trkpt>
      <trkpt lat="44.044310" lon="3.409470">
        <ele>805.67</ele>
        <time>2010-01-01T23:03:07Z</time>
      </trkpt>
      <trkpt lat="44.044310" lon="3.409000">
        <ele>797.93</ele>
        <time>2010-01-01T23:03:30Z</time>
      </trkpt>
      <trkpt lat="44.044260" lon="3.408870">
        <ele>787.474304</ele>
        <time>2010-01-01T23:04:09Z</time>
      </trkpt>
      <trkpt lat="44.044110" lon="3.408860">
        <ele>787.107361</ele>
        <time>2010-01-01T23:04:29Z</time>
      </trkpt>
      <trkpt lat="44.043920" lon="3.409040">
        <ele>796.049500</ele>
        <time>2010-01-01T23:04:33Z</time>
      </trkpt>
      <trkpt lat="44.043710" lon="3.409110">
        <ele>797.21</ele>
        <time>2010-01-01T23:04:49Z</time>
      </trkpt>
      <trkpt lat="44.043510" lon="3.409090">
        <ele>794.090454</ele>
        <time>2010-01-01T23:05:06Z</time>
      </trkpt>
      <trkpt lat="44.043310" lon="3.408680">
        <ele>785.47</ele>
        <time>2010-01-01T23:05:22Z</time>
      </trkpt>
      <trkpt lat="44.043110" lon="3.408540">
        <ele>785.47</ele>
        <time>2010-01-01T23:05:37Z</time>
      </trkpt>
      <trkpt lat="44.043000" lon="3.408380">
        <ele>785.47</ele>
        <time>2010-01-01T23:05:43Z</time>
      </trkpt>
      <trkpt lat="44.042980" lon="3.408160">
        <ele>785.47</ele>
        <time>2010-01-01T23:05:50Z</time>
      </trkpt>
      <trkpt lat="44.043040" lon="3.407630">
        <ele>776.37</ele>
        <time>2010-01-01T23:05:53Z</time>
      </trkpt>
      <trkpt lat="44.042990" lon="3.406820">
        <ele>775.68</ele>
        <time>2010-01-01T23:06:05Z</time>
      </trkpt>
      <trkpt lat="44.043110" lon="3.406550">
        <ele>774.588379</ele>
        <time>2010-01-01T23:06:10Z</time>
      </trkpt>
      <trkpt lat="44.043260" lon="3.405990">
        <ele>766.51</ele>
        <time>2010-01-01T23:06:56Z</time>
      </trkpt>
      <trkpt lat="44.043230" lon="3.405860">
        <ele>764.406250</ele>
        <time>2010-01-01T23:07:15Z</time>
      </trkpt>
      <trkpt lat="44.043070" lon="3.405630">
        <ele>763.08</ele>
        <time>2010-01-01T23:07:33Z</time>
      </trkpt>
      <trkpt lat="44.042730" lon="3.405240">
        <ele>762.760437</ele>
        <time>2010-01-01T23:07:45Z</time>
      </trkpt>
      <trkpt lat="44.042400" lon="3.404990">
        <ele>755.86</ele>
        <time>2010-01-01T23:08:08Z</time>
      </trkpt>
      <trkpt lat="44.041510" lon="3.404820">
        <ele>754.318726</ele>
        <time>2010-01-01T23:08:16Z</time>
      </trkpt>
      <trkpt lat="44.041360" lon="3.404730">
        <ele>754.08</ele>
        <time>2010-01-01T23:08:45Z</time>
      </trkpt>
      <trkpt lat="44.041300" lon="3.404470">
        <ele>749.34</ele>
        <time>2010-01-01T23:08:57Z</time>
      </trkpt>
      <trkpt lat="44.041150" lon="3.402530">
        <ele>735.10</ele>
        <time>2010-01-01T23:09:04Z</time>
      </trkpt>
      <trkpt lat="44.041080" lon="3.402390">
        <ele>734.09</ele>
        <time>2010-01-01T23:09:50Z</time>
      </trkpt>
      <trkpt lat="44.040950" lon="3.402300">
        <ele>733.94</ele>
        <time>2010-01-01T23:10:28Z</time>
      </trkpt>
      <trkpt lat="44.040690" lon="3.402370">
        <ele>732.57</ele>
        <time>2010-01-01T23:10:33Z</time>
      </trkpt>
      <trkpt lat="44.040350" lon="3.402640">
        <ele>731.82</ele>
        <time>2010-01-01T23:10:42Z</time>
      </trkpt>
      <trkpt lat="44.040040" lon="3.402970">
        <ele>728.28</ele>
        <time>2010-01-01T23:10:53Z</time>
      </trkpt>
      <trkpt lat="44.039330" lon="3.403350">
        <ele>720.43</ele>
        <time>2010-01-01T23:11:18Z</time>
      </trkpt>
      <trkpt lat="44.039000" lon="3.403620">
        <ele>718.77</ele>
        <time>2010-01-01T23:11:31Z</time>
      </trkpt>
      <trkpt lat="44.038450" lon="3.404230">
        <ele>716.73</ele>
        <time>2010-01-01T23:11:45Z</time>
      </trkpt>
      <trkpt lat="44.038300" lon="3.404880">
        <ele>715.66</ele>
        <time>2010-01-01T23:12:06Z</time>
      </trkpt>
      <trkpt lat="44.038220" lon="3.404990">
        <ele>715.15</ele>
        <time>2010-01-01T23:12:20Z</time>
      </trkpt>
      <trkpt lat="44.038040" lon="3.404970">
        <ele>712.63</ele>
        <time>2010-01-01T23:12:55Z</time>
      </trkpt>
      <trkpt lat="44.037520" lon="3.404550">
        <ele>707.262085</ele>
        <time>2010-01-01T23:13:00Z</time>
      </trkpt>
      <trkpt lat="44.037330" lon="3.404290">
        <ele>702.042542</ele>
        <time>2010-01-01T23:13:04Z</time>
      </trkpt>
      <trkpt lat="44.037220" lon="3.403970">
        <ele>698.98</ele>
        <time>2010-01-01T23:13:10Z</time>
      </trkpt>
      <trkpt lat="44.037100" lon="3.403890">
        <ele>698.98</ele>
        <time>2010-01-01T23:13:35Z</time>
      </trkpt>
      <trkpt lat="44.036990" lon="3.403960">
        <ele>698.98</ele>
        <time>2010-01-01T23:13:53Z</time>
      </trkpt>
      <trkpt lat="44.036630" lon="3.404570">
        <ele>698.98</ele>
        <time>2010-01-01T23:14:01Z</time>
      </trkpt>
      <trkpt lat="44.035780" lon="3.405260">
        <ele>698.98</ele>
        <time>2010-01-01T23:14:50Z</time>
      </trkpt>
      <trkpt lat="44.035450" lon="3.405770">
        <ele>697.72</ele>
        <time>2010-01-01T23:14:57Z</time>
      </trkpt>
      <trkpt lat="44.035350" lon="3.405850">
        <ele>697.043762</ele>
        <time>2010-01-01T23:15:04Z</time>
      </trkpt>
      <trkpt lat="44.034970" lon="3.405680">
        <ele>686.725098</ele>
        <time>2010-01-01T23:15:34Z</time>
      </trkpt>
      <trkpt lat="44.034660" lon="3.405300">
        <ele>685.924072</ele>
        <time>2010-01-01T23:15:50Z</time>
      </trkpt>
      <trkpt lat="44.034310" lon="3.405030">
        <ele>686.633850</ele>
        <time>2010-01-01T23:15:59Z</time>
      </trkpt>
      <trkpt lat="44.034010" lon="3.404710">
        <ele>683.135376</ele>
        <time>2010-01-01T23:16:02Z</time>
      </trkpt>
      <trkpt lat="44.034000" lon="3.404500">
        <ele>682.51</ele>
        <time>2010-01-01T23:16:07Z</time>
      </trkpt>
      <trkpt lat="44.034100" lon="3.404330">
        <ele>682.51</ele>
        <time>2010-01-01T23:16:14Z</time>
      </trkpt>
      <trkpt lat="44.034170" lon="3.404290">
        <ele>682.51</ele>
        <time>2010-01-01T23:16:26Z</time>
      </trkpt>
      <trkpt lat="44.034480" lon="3.404350">
        <ele>682.170471</ele>
        <time>2010-01-01T23:17:05Z</time>
      </trkpt>
      <trkpt lat="44.034600" lon="3.404310">
        <ele>681.52</ele>
        <time>2010-01-01T23:17:52Z</time>
      </trkpt>
      <trkpt lat="44.035600" lon="3.403550">
        <ele>673.15</ele>
        <time>2010-01-01T23:18:05Z</time>
      </trkpt>
      <trkpt lat="44.035980" lon="3.403130">
        <ele>667.776001</ele>
        <time>2010-01-01T23:18:17Z</time>
      </trkpt>
      <trkpt lat="44.036200" lon="3.402600">
        <ele>665.218445</ele>
        <time>2010-01-01T23:18:22Z</time>
      </trkpt>
      <trkpt lat="44.036300" lon="3.402200">
        <ele>665.43</ele>
        <time>2010-01-01T23:18:36Z</time>
      </trkpt>
      <trkpt lat="44.036360" lon="3.401410">
        <ele>665.43</ele>
        <time>2010-01-01T23:18:48Z</time>
      </trkpt>
      <trkpt lat="44.036430" lon="3.401140">
        <ele>665.43</ele>
        <time>2010-01-01T23:18:58Z</time>
      </trkpt>
      <trkpt lat="44.036990" lon="3.400520">
        <ele>665.43</ele>
        <time>2010-01-01T23:19:05Z</time>
      </trkpt>
      <trkpt lat="44.037270" lon="3.400310">
        <ele>665.43</ele>
        <time>2010-01-01T23:19:18Z</time>
      </trkpt>
      <trkpt lat="44.037360" lon="3.400100">
        <ele>665.88</ele>
        <time>2010-01-01T23:19:49Z</time>
      </trkpt>
      <trkpt lat="44.037330" lon="3.398520">
        <ele>666.87</ele>
        <time>2010-01-01T23:20:04Z</time>
      </trkpt>
      <trkpt lat="44.037440" lon="3.397220">
        <ele>666.87</ele>
        <time>2010-01-01T23:20:23Z</time>
      </trkpt>
      <trkpt lat="44.037430" lon="3.397020">
        <ele>669.58</ele>
        <time>2010-01-01T23:20:33Z</time>
      </trkpt>
      <trkpt lat="44.037480" lon="3.396730">
        <ele>669.58</ele>
        <time>2010-01-01T23:20:55Z</time>
      </trkpt>
      <trkpt lat="44.037660" lon="3.396420">
        <ele>669.58</ele>
        <time>2010-01-01T23:21:18Z</time>
      </trkpt>
      <trkpt lat="44.037950" lon="3.395680">
        <ele>669.91</ele>
        <time>2010-01-01T23:22:07Z</time>
      </trkpt>
      <trkpt lat="44.038200" lon="3.395370">
        <ele>668.184875</ele>
        <time>2010-01-01T23:22:19Z</time>
      </trkpt>
      <trkpt lat="44.038540" lon="3.395330">
        <ele>668.22</ele>
        <time>2010-01-01T23:22:25Z</time>
      </trkpt>
      <trkpt lat="44.039040" lon="3.395040">
        <ele>668.22</ele>
        <time>2010-01-01T23:22:47Z</time>
      </trkpt>
      <trkpt lat="44.039390" lon="3.394980">
        <ele>667.42</ele>
        <time>2010-01-01T23:22:53Z</time>
      </trkpt>
      <trkpt lat="44.040250" lon="3.394980">
        <ele>666.79</ele>
        <time>2010-01-01T23:22:56Z</time>
      </trkpt>
      <trkpt lat="44.040360" lon="3.394910">
        <ele>662.79</ele>
        <time>2010-01-01T23:23:24Z</time>
      </trkpt>
      <trkpt lat="44.040400" lon="3.394780">
        <ele>661.79</ele>
        <time>2010-01-01T23:23:35Z</time>
      </trkpt>
      <trkpt lat="44.040360" lon="3.394580">
        <ele>662.31</ele>
        <time>2010-01-01T23:23:40Z</time>
      </trkpt>
      <trkpt lat="44.039810" lon="3.394190">
        <ele>664.37</ele>
        <time>2010-01-01T23:23:57Z</time>
      </trkpt>
      <trkpt lat="44.039430" lon="3.393810">
        <ele>666.05</ele>
        <time>2010-01-01T23:24:06Z</time>
      </trkpt>
      <trkpt lat="44.039300" lon="3.393590">
        <ele>667.59</ele>
        <time>2010-01-01T23:24:16Z</time>
      </trkpt>
      <trkpt lat="44.038900" lon="3.392000">
        <ele>680.75</ele>
        <time>2010-01-01T23:24:27Z</time>
      </trkpt>
      <trkpt lat="44.038870" lon="3.391760">
        <ele>682.458984</ele>
        <time>2010-01-01T23:24:47Z</time>
      </trkpt>
      <trkpt lat="44.038900" lon="3.391510">
        <ele>682.39</ele>
        <time>2010-01-01T23:24:56Z</time>
      </trkpt>
      <trkpt lat="44.039170" lon="3.390530">
        <ele>682.39</ele>
        <time>2010-01-01T23:25:02Z</time>
      </trkpt>
      <trkpt lat="44.039430" lon="3.390130">
        <ele>683.05</ele>
        <time>2010-01-01T23:25:44Z</time>
      </trkpt>
      <trkpt lat="44.039620" lon="3.389960">
        <ele>682.65</ele>
        <time>2010-01-01T23:25:54Z</time>
      </trkpt>
      <trkpt lat="44.039660" lon="3.389880">
        <ele>683.40</ele>
        <time>2010-01-01T23:26:03Z</time>
      </trkpt>
      <trkpt lat="44.039620" lon="3.389690">
        <ele>680.25</ele>
        <time>2010-01-01T23:26:37Z</time>
      </trkpt>
      <trkpt lat="44.039470" lon="3.389660">
        <ele>678.75</ele>
        <time>2010-01-01T23:26:46Z</time>
      </trkpt>
      <trkpt lat="44.039190" lon="3.389810">
        <ele>680.636292</ele>
        <time>2010-01-01T23:27:32Z</time>
      </trkpt>
      <trkpt lat="44.038240" lon="3.390170">
        <ele>681.19</ele>
        <time>2010-01-01T23:27:38Z</time>
      </trkpt>
      <trkpt lat="44.037180" lon="3.390850">
        <ele>682.17</ele>
        <time>2010-01-01T23:27:51Z</time>
      </trkpt>
      <trkpt lat="44.036850" lon="3.390820">
        <ele>684.17</ele>
        <time>2010-01-01T23:29:03Z</time>
      </trkpt>
      <trkpt lat="44.036640" lon="3.390540">
        <ele>686.329285</ele>
        <time>2010-01-01T23:29:56Z</time>
      </trkpt>
      <trkpt lat="44.036510" lon="3.390460">
        <ele>687.69</ele>
        <time>2010-01-01T23:30:21Z</time>
      </trkpt>
      <trkpt lat="44.036170" lon="3.390510">
        <ele>690.20</ele>
        <time>2010-01-01T23:30:55Z</time>
      </trkpt>
      <trkpt lat="44.035910" lon="3.390740">
        <ele>691.09</ele>
        <time>2010-01-01T23:31:30Z</time>
      </trkpt>
      <trkpt lat="44.035670" lon="3.390770">
        <ele>692.41</ele>
        <time>2010-01-01T23:31:45Z</time>
      </trkpt>
      <trkpt lat="44.035500" lon="3.390670">
        <ele>693.49</ele>
        <time>2010-01-01T23:31:49Z</time>
      </trkpt>
      <trkpt lat="44.035310" lon="3.390330">
        <ele>694.69</ele>
        <time>2010-01-01T23:32:06Z</time>
      </trkpt>
      <trkpt lat="44.035440" lon="3.389260">
        <ele>692.61</ele>
        <time>2010-01-01T23:32:15Z</time>
      </trkpt>
      <trkpt lat="44.035460" lon="3.388740">
        <ele>688.79</ele>
        <time>2010-01-01T23:33:08Z</time>
      </trkpt>
      <trkpt lat="44.035130" lon="3.388240">
        <ele>687.48</ele>
        <time>2010-01-01T23:33:14Z</time>
      </trkpt>
      <trkpt lat="44.035040" lon="3.387940">
        <ele>686.92</ele>
        <time>2010-01-01T23:33:22Z</time>
      </trkpt>
      <trkpt lat="44.035160" lon="3.387190">
        <ele>684.49</ele>
        <time>2010-01-01T23:33:32Z</time>
      </trkpt>
      <trkpt lat="44.035010" lon="3.386430">
        <ele>683.99</ele>
        <time>2010-01-01T23:33:40Z</time>
      </trkpt>
      <trkpt lat="44.034930" lon="3.384720">
        <ele>683.71</ele>
        <time>2010-01-01T23:33:44Z</time>
      </trkpt>
      <trkpt lat="44.034960" lon="3.384290">
        <ele>682.85</ele>
        <time>2010-01-01T23:33:49Z</time>
      </trkpt>
      <trkpt lat="44.035020" lon="3.384100">
        <ele>681.62</ele>
        <time>2010-01-01T23:33:59Z</time>
      </trkpt>
      <trkpt lat="44.035410" lon="3.383560">
        <ele>677.72</ele>
        <time>2010-01-01T23:34:08Z</time>
      </trkpt>
      <trkpt lat="44.035400" lon="3.383380">
        <ele>676.31</ele>
        <time>2010-01-01T23:34:56Z</time>
      </trkpt>
      <trkpt lat="44.035320" lon="3.383330">
        <ele>675.038391</ele>
        <time>2010-01-01T23:35:09Z</time>
      </trkpt>
      <trkpt lat="44.034640" lon="3.383210">
        <ele>673.81</ele>
        <time>2010-01-01T23:35:41Z</time>
      </trkpt>
      <trkpt lat="44.034380" lon="3.383070">
        <ele>671.29</ele>
        <time>2010-01-01T23:36:04Z</time>
      </trkpt>
      <trkpt lat="44.034320" lon="3.382900">
        <ele>670.234558</ele>
        <time>2010-01-01T23:36:11Z</time>
      </trkpt>
      <trkpt lat="44.034320" lon="3.382330">
        <ele>659.635010</ele>
        <time>2010-01-01T23:36:23Z</time>
      </trkpt>
      <trkpt lat="44.034270" lon="3.382000">
        <ele>656.22</ele>
        <time>2010-01-01T23:36:27Z</time>
      </trkpt>
      <trkpt lat="44.034130" lon="3.381710">
        <ele>656.22</ele>
        <time>2010-01-01T23:36:58Z</time>
      </trkpt>
      <trkpt lat="44.033940" lon="3.381440">
        <ele>656.22</ele>
        <time>2010-01-01T23:37:08Z</time>
      </trkpt>
      <trkpt lat="44.033520" lon="3.381050">
        <ele>655.47</ele>
        <time>2010-01-01T23:37:20Z</time>
      </trkpt>
      <trkpt lat="44.033390" lon="3.380790">
        <ele>655.47</ele>
        <time>2010-01-01T23:37:49Z</time>
      </trkpt>
      <trkpt lat="44.033350" lon="3.380610">
        <ele>651.85</ele>
        <time>2010-01-01T23:37:59Z</time>
      </trkpt>
      <trkpt lat="44.032740" lon="3.379420">
        <ele>651.970642</ele>
        <time>2010-01-01T23:38:20Z</time>
      </trkpt>
      <trkpt lat="44.032690" lon="3.379080">
        <ele>648.942261</ele>
        <time>2010-01-01T23:38:30Z</time>
      </trkpt>
      <trkpt lat="44.032700" lon="3.378770">
        <ele>646.496704</ele>
        <time>2010-01-01T23:40:24Z</time>
      </trkpt>
      <trkpt lat="44.032960" lon="3.377650">
        <ele>633.64</ele>
        <time>2010-01-01T23:40:36Z</time>
      </trkpt>
      <trkpt lat="44.032870" lon="3.377370">
        <ele>633.64</ele>
        <time>2010-01-01T23:41:21Z</time>
      </trkpt>
      <trkpt lat="44.031870" lon="3.376560">
        <ele>633.64</ele>
        <time>2010-01-01T23:41:50Z</time>
      </trkpt>
      <trkpt lat="44.031750" lon="3.376420">
        <ele>632.02</ele>
        <time>2010-01-01T23:42:21Z</time>
      </trkpt>
      <trkpt lat="44.031570" lon="3.376040">
        <ele>623.478760</ele>
        <time>2010-01-01T23:42:52Z</time>
      </trkpt>
      <trkpt lat="44.029990" lon="3.374860">
        <ele>614.269836</ele>
        <time>2010-01-01T23:43:05Z</time>
      </trkpt>
      <trkpt lat="44.028660" lon="3.374980">
        <ele>598.871277</ele>
        <time>2010-01-01T23:43:25Z</time>
      </trkpt>
      <trkpt lat="44.028160" lon="3.375470">
        <ele>598.475403</ele>
        <time>2010-01-01T23:43:49Z</time>
      </trkpt>
      <trkpt lat="44.027390" lon="3.376000">
        <ele>589.330322</ele>
        <time>2010-01-01T23:43:57Z</time>
      </trkpt>
      <trkpt lat="44.026830" lon="3.376940">
        <ele>583.700012</ele>
        <time>2010-01-01T23:44:04Z</time>
      </trkpt>
      <trkpt lat="44.026560" lon="3.377290">
        <ele>576.863647</ele>
        <time>2010-01-01T23:44:07Z</time>
      </trkpt>
      <trkpt lat="44.026530" lon="3.377430">
        <ele>576.70</ele>
        <time>2010-01-01T23:44:10Z</time>
      </trkpt>
      <trkpt lat="44.026530" lon="3.378020">
        <ele>576.70</ele>
        <time>2010-01-01T23:44:14Z</time>
      </trkpt>
      <trkpt lat="44.026460" lon="3.378290">
        <ele>576.70</ele>
        <time>2010-01-01T23:44:39Z</time>
      </trkpt>
      <trkpt lat="44.025790" lon="3.379880">
        <ele>563.62</ele>
        <time>2010-01-01T23:45:01Z</time>
      </trkpt>
      <trkpt lat="44.025780" lon="3.380100">
        <ele>563.392822</ele>
        <time>2010-01-01T23:45:33Z</time>
      </trkpt>
      <trkpt lat="44.025890" lon="3.380350">
        <ele>565.635132</ele>
        <time>2010-01-01T23:46:36Z</time>
      </trkpt>
      <trkpt lat="44.025970" lon="3.380670">
        <ele>566.914124</ele>
        <time>2010-01-01T23:47:15Z</time>
      </trkpt>
      <trkpt lat="44.025880" lon="3.380890">
        <ele>566.36</ele>
        <time>2010-01-01T23:47:59Z</time>
      </trkpt>
      <trkpt lat="44.025770" lon="3.380950">
        <ele>564.810059</ele>
        <time>2010-01-01T23:48:47Z</time>
      </trkpt>
      <trkpt lat="44.025660" lon="3.380940">
        <ele>563.178040</ele>
        <time>2010-01-01T23:50:01Z</time>
      </trkpt>
      <trkpt lat="44.025480" lon="3.380670">
        <ele>557.910217</ele>
        <time>2010-01-01T23:50:14Z</time>
      </trkpt>
      <trkpt lat="44.025480" lon="3.380350">
        <ele>557.174072</ele>
        <time>2010-01-01T23:50:29Z</time>
      </trkpt>
      <trkpt lat="44.025600" lon="3.378700">
        <ele>553.909546</ele>
        <time>2010-01-01T23:50:55Z</time>
      </trkpt>
      <trkpt lat="44.025590" lon="3.378260">
        <ele>551.649902</ele>
        <time>2010-01-01T23:51:44Z</time>
      </trkpt>
      <trkpt lat="44.025710" lon="3.377150">
        <ele>549.666809</ele>
        <time>2010-01-01T23:51:52Z</time>
      </trkpt>
      <trkpt lat="44.025690" lon="3.376350">
        <ele>545.531250</ele>
        <time>2010-01-01T23:52:18Z</time>
      </trkpt>
      <trkpt lat="44.025620" lon="3.376130">
        <ele>542.592529</ele>
        <time>2010-01-01T23:52:52Z</time>
      </trkpt>
      <trkpt lat="44.025320" lon="3.376080">
        <ele>541.59</ele>
        <time>2010-01-01T23:53:16Z</time>
      </trkpt>
      <trkpt lat="44.025250" lon="3.376000">
        <ele>541.59</ele>
        <time>2010-01-01T23:53:58Z</time>
      </trkpt>
      <trkpt lat="44.025390" lon="3.374920">
        <ele>531.265625</ele>
        <time>2010-01-01T23:54:11Z</time>
      </trkpt>
      <trkpt lat="44.025320" lon="3.374600">
        <ele>530.659363</ele>
        <time>2010-01-01T23:54:35Z</time>
      </trkpt>
      <trkpt lat="44.025110" lon="3.374300">
        <ele>530.75</ele>
        <time>2010-01-01T23:55:17Z</time>
      </trkpt>
      <trkpt lat="44.024480" lon="3.373800">
        <ele>530.75</ele>
        <time>2010-01-01T23:55:52Z</time>
      </trkpt>
      <trkpt lat="44.024360" lon="3.373510">
        <ele>530.842529</ele>
        <time>2010-01-01T23:56:16Z</time>
      </trkpt>
      <trkpt lat="44.024310" lon="3.372770">
        <ele>528.94</ele>
        <time>2010-01-01T23:57:08Z</time>
      </trkpt>
      <trkpt lat="44.024230" lon="3.372440">
        <ele>528.94</ele>
        <time>2010-01-01T23:57:40Z</time>
      </trkpt>
      <trkpt lat="44.022410" lon="3.369390">
        <ele>533.59</ele>
        <time>2010-01-01T23:57:51Z</time>
      </trkpt>
      <trkpt lat="44.022340" lon="3.368980">
        <ele>533.18</ele>
        <time>2010-01-01T23:58:12Z</time>
      </trkpt>
      <trkpt lat="44.022260" lon="3.367420">
        <ele>533.18</ele>
        <time>2010-01-01T23:58:16Z</time>
      </trkpt>
      <trkpt lat="44.021990" lon="3.366520">
        <ele>532.21</ele>
        <time>2010-01-01T23:58:19Z</time>
      </trkpt>
      <trkpt lat="44.021730" lon="3.365470">
        <ele>531.991760</ele>
        <time>2010-01-01T23:58:21Z</time>
      </trkpt>
      <trkpt lat="44.021590" lon="3.364420">
        <ele>530.617493</ele>
        <time>2010-01-01T23:58:33Z</time>
      </trkpt>
      <trkpt lat="44.021440" lon="3.364040">
        <ele>530.96</ele>
        <time>2010-01-01T23:58:57Z</time>
      </trkpt>
      <trkpt lat="44.021080" lon="3.363530">
        <ele>532.193481</ele>
        <time>2010-01-01T23:59:22Z</time>
      </trkpt>
      <trkpt lat="44.020740" lon="3.362840">
        <ele>533.891052</ele>
        <time>2010-01-01T23:59:27Z</time>
      </trkpt>
      <trkpt lat="44.020650" lon="3.362620">
        <ele>534.490356</ele>
        <time>2010-01-01T23:59:31Z</time>
      </trkpt>
      <trkpt lat="44.020610" lon="3.362370">
        <ele>534.617004</ele>
        <time>2010-01-01T23:59:35Z</time>
      </trkpt>
      <trkpt lat="44.020620" lon="3.362260">
        <ele>534.537415</ele>
        <time>2010-01-02T00:00:10Z</time>
      </trkpt>
      <trkpt lat="44.020540" lon="3.362250">
        <ele>535.000000</ele>
        <time>2010-01-02T00:00:41Z</time>
      </trkpt>
      <trkpt lat="44.020530" lon="3.362360">
        <ele>535.039978</ele>
        <time>2010-01-02T00:01:09Z</time>
      </trkpt>
      <trkpt lat="44.020010" lon="3.362870">
        <ele>537.022766</ele>
        <time>2010-01-02T00:01:24Z</time>
      </trkpt>
      <trkpt lat="44.019520" lon="3.363190">
        <ele>538.417480</ele>
        <time>2010-01-02T00:02:01Z</time>
      </trkpt>
      <trkpt lat="44.018730" lon="3.363420">
        <ele>542.537476</ele>
        <time>2010-01-02T00:02:25Z</time>
      </trkpt>
      <trkpt lat="44.017170" lon="3.363300">
        <ele>559.006470</ele>
        <time>2010-01-02T00:02:44Z</time>
      </trkpt>
      <trkpt lat="44.016190" lon="3.363520">
        <ele>566.383545</ele>
        <time>2010-01-02T00:02:53Z</time>
      </trkpt>
      <trkpt lat="44.015110" lon="3.363590">
        <ele>576.511230</ele>
        <time>2010-01-02T00:03:02Z</time>
      </trkpt>
      <trkpt lat="44.013920" lon="3.363840">
        <ele>586.188354</ele>
        <time>2010-01-02T00:03:23Z</time>
      </trkpt>
      <trkpt lat="44.012120" lon="3.364430">
        <ele>592.625793</ele>
        <time>2010-01-02T00:03:43Z</time>
      </trkpt>
      <trkpt lat="44.011800" lon="3.364430">
        <ele>594.528625</ele>
        <time>2010-01-02T00:04:32Z</time>
      </trkpt>
      <trkpt lat="44.011430" lon="3.364330">
        <ele>599.175598</ele>
        <time>2010-01-02T00:04:41Z</time>
      </trkpt>
      <trkpt lat="44.010780" lon="3.364370">
        <ele>605.047485</ele>
        <time>2010-01-02T00:04:49Z</time>
      </trkpt>
      <trkpt lat="44.009600" lon="3.363900">
        <ele>618.77</ele>
        <time>2010-01-02T00:05:13Z</time>
      </trkpt>
      <trkpt lat="44.009410" lon="3.363760">
        <ele>622.696350</ele>
        <time>2010-01-02T00:05:44Z</time>
      </trkpt>
      <trkpt lat="44.008890" lon="3.363230">
        <ele>634.594788</ele>
        <time>2010-01-02T00:05:51Z</time>
      </trkpt>
      <trkpt lat="44.008080" lon="3.362920">
        <ele>634.693726</ele>
        <time>2010-01-02T00:06:00Z</time>
      </trkpt>
      <trkpt lat="44.007590" lon="3.362460">
        <ele>639.165771</ele>
        <time>2010-01-02T00:06:08Z</time>
      </trkpt>
      <trkpt lat="44.006550" lon="3.362160">
        <ele>639.126282</ele>
        <time>2010-01-02T00:06:32Z</time>
      </trkpt>
      <trkpt lat="44.006220" lon="3.362130">
        <ele>641.758606</ele>
        <time>2010-01-02T00:07:07Z</time>
      </trkpt>
      <trkpt lat="44.005640" lon="3.362260">
        <ele>649.480957</ele>
        <time>2010-01-02T00:07:15Z</time>
      </trkpt>
      <trkpt lat="44.004600" lon="3.362340">
        <ele>666.122498</ele>
        <time>2010-01-02T00:07:32Z</time>
      </trkpt>
      <trkpt lat="44.003770" lon="3.362740">
        <ele>666.379150</ele>
        <time>2010-01-02T00:07:42Z</time>
      </trkpt>
      <trkpt lat="44.003180" lon="3.362910">
        <ele>670.851990</ele>
        <time>2010-01-02T00:07:51Z</time>
      </trkpt>
      <trkpt lat="44.001970" lon="3.363620">
        <ele>673.129517</ele>
        <time>2010-01-02T00:08:11Z</time>
      </trkpt>
      <trkpt lat="44.001200" lon="3.363910">
        <ele>679.952148</ele>
        <time>2010-01-02T00:08:50Z</time>
      </trkpt>
      <trkpt lat="44.000970" lon="3.364100">
        <ele>682.379028</ele>
        <time>2010-01-02T00:09:00Z</time>
      </trkpt>
      <trkpt lat="44.000650" lon="3.364660">
        <ele>691.800171</ele>
        <time>2010-01-02T00:09:07Z</time>
      </trkpt>
      <trkpt lat="44.000560" lon="3.364730">
        <ele>695.411133</ele>
        <time>2010-01-02T00:09:35Z</time>
      </trkpt>
      <trkpt lat="44.000490" lon="3.364670">
        <ele>698.316772</ele>
        <time>2010-01-02T00:10:21Z</time>
      </trkpt>
      <trkpt lat="44.000480" lon="3.364600">
        <ele>698.64</ele>
        <time>2010-01-02T00:10:47Z</time>
      </trkpt>
      <trkpt lat="44.000630" lon="3.364250">
        <ele>693.27</ele>
        <time>2010-01-02T00:10:57Z</time>
      </trkpt>
      <trkpt lat="44.001050" lon="3.363640">
        <ele>689.48</ele>
        <time>2010-01-02T00:11:16Z</time>
      </trkpt>
      <trkpt lat="44.001580" lon="3.363200">
        <ele>689.48</ele>
        <time>2010-01-02T00:11:35Z</time>
      </trkpt>
      <trkpt lat="44.001640" lon="3.363030">
        <ele>689.48</ele>
        <time>2010-01-02T00:11:53Z</time>
      </trkpt>
      <trkpt lat="44.001600" lon="3.362900">
        <ele>689.18</ele>
        <time>2010-01-02T00:11:57Z</time>
      </trkpt>
      <trkpt lat="44.001520" lon="3.362890">
        <ele>689.539124</ele>
        <time>2010-01-02T00:12:06Z</time>
      </trkpt>
      <trkpt lat="44.000680" lon="3.363320">
        <ele>694.27</ele>
        <time>2010-01-02T00:12:27Z</time>
      </trkpt>
      <trkpt lat="43.999910" lon="3.363410">
        <ele>700.950195</ele>
        <time>2010-01-02T00:12:35Z</time>
      </trkpt>
      <trkpt lat="43.999310" lon="3.363880">
        <ele>711.661743</ele>
        <time>2010-01-02T00:12:43Z</time>
      </trkpt>
      <trkpt lat="43.998940" lon="3.364040">
        <ele>714.099365</ele>
        <time>2010-01-02T00:13:16Z</time>
      </trkpt>
      <trkpt lat="43.998020" lon="3.364050">
        <ele>715.619385</ele>
        <time>2010-01-02T00:13:24Z</time>
      </trkpt>
      <trkpt lat="43.997430" lon="3.364130">
        <ele>718.989990</ele>
        <time>2010-01-02T00:13:33Z</time>
      </trkpt>
      <trkpt lat="43.996960" lon="3.364050">
        <ele>720.985291</ele>
        <time>2010-01-02T00:13:44Z</time>
      </trkpt>
      <trkpt lat="43.996740" lon="3.364060">
        <ele>723.639954</ele>
        <time>2010-01-02T00:14:29Z</time>
      </trkpt>
      <trkpt lat="43.996530" lon="3.364150">
        <ele>725.270020</ele>
        <time>2010-01-02T00:14:42Z</time>
      </trkpt>
      <trkpt lat="43.996100" lon="3.364590">
        <ele>729.583008</ele>
        <time>2010-01-02T00:14:51Z</time>
      </trkpt>
      <trkpt lat="43.995690" lon="3.365000">
        <ele>730.234802</ele>
        <time>2010-01-02T00:15:33Z</time>
      </trkpt>
      <trkpt lat="43.994950" lon="3.366360">
        <ele>748.92</ele>
        <time>2010-01-02T00:16:36Z</time>
      </trkpt>
      <trkpt lat="43.994780" lon="3.366530">
        <ele>748.92</ele>
        <time>2010-01-02T00:16:57Z</time>
      </trkpt>
      <trkpt lat="43.994580" lon="3.366600">
        <ele>748.92</ele>
        <time>2010-01-02T00:17:49Z</time>
      </trkpt>
      <trkpt lat="43.993970" lon="3.366600">
        <ele>748.92</ele>
        <time>2010-01-02T00:18:00Z</time>
      </trkpt>
      <trkpt lat="43.993240" lon="3.366290">
        <ele>748.92</ele>
        <time>2010-01-02T00:20:15Z</time>
      </trkpt>
      <trkpt lat="43.993060" lon="3.366330">
        <ele>748.908203</ele>
        <time>2010-01-02T00:20:50Z</time>
      </trkpt>
      <trkpt lat="43.992880" lon="3.366490">
        <ele>748.589844</ele>
        <time>2010-01-02T00:21:10Z</time>
      </trkpt>
      <trkpt lat="43.992770" lon="3.366750">
        <ele>749.922974</ele>
        <time>2010-01-02T00:21:48Z</time>
      </trkpt>
      <trkpt lat="43.992750" lon="3.367570">
        <ele>757.021362</ele>
        <time>2010-01-02T00:22:00Z</time>
      </trkpt>
      <trkpt lat="43.992560" lon="3.368750">
        <ele>761.00</ele>
        <time>2010-01-02T00:22:32Z</time>
      </trkpt>
      <trkpt lat="43.992610" lon="3.369010">
        <ele>764.738708</ele>
        <time>2010-01-02T00:23:05Z</time>
      </trkpt>
      <trkpt lat="43.992860" lon="3.369520">
        <ele>771.50</ele>
        <time>2010-01-02T00:23:23Z</time>
      </trkpt>
      <trkpt lat="43.992900" lon="3.369850">
        <ele>771.50</ele>
        <time>2010-01-02T00:25:52Z</time>
      </trkpt>
      <trkpt lat="43.992870" lon="3.370170">
        <ele>771.144348</ele>
        <time>2010-01-02T00:27:15Z</time>
      </trkpt>
      <trkpt lat="43.992630" lon="3.370780">
        <ele>773.133301</ele>
        <time>2010-01-02T00:28:12Z</time>
      </trkpt>
      <trkpt lat="43.991950" lon="3.371740">
        <ele>776.679504</ele>
        <time>2010-01-02T00:28:32Z</time>
      </trkpt>
      <trkpt lat="43.991740" lon="3.371930">
        <ele>778.45</ele>
        <time>2010-01-02T00:28:48Z</time>
      </trkpt>
      <trkpt lat="43.991590" lon="3.372000">
        <ele>778.45</ele>
        <time>2010-01-02T00:29:06Z</time>
      </trkpt>
      <trkpt lat="43.990870" lon="3.372010">
        <ele>776.635010</ele>
        <time>2010-01-02T00:29:22Z</time>
      </trkpt>
      <trkpt lat="43.989850" lon="3.372680">
        <ele>781.857483</ele>
        <time>2010-01-02T00:30:27Z</time>
      </trkpt>
      <trkpt lat="43.989220" lon="3.372980">
        <ele>781.521423</ele>
        <time>2010-01-02T00:30:48Z</time>
      </trkpt>
      <trkpt lat="43.989020" lon="3.373170">
        <ele>782.430481</ele>
        <time>2010-01-02T00:31:01Z</time>
      </trkpt>
      <trkpt lat="43.988780" lon="3.373750">
        <ele>786.70</ele>
        <time>2010-01-02T00:31:16Z</time>
      </trkpt>
      <trkpt lat="43.988330" lon="3.373940">
        <ele>786.70</ele>
        <time>2010-01-02T00:31:29Z</time>
      </trkpt>
      <trkpt lat="43.987920" lon="3.374180">
        <ele>788.416809</ele>
        <time>2010-01-02T00:32:07Z</time>
      </trkpt>
      <trkpt lat="43.987810" lon="3.374180">
        <ele>788.562439</ele>
        <time>2010-01-02T00:32:20Z</time>
      </trkpt>
      <trkpt lat="43.987590" lon="3.374080">
        <ele>787.21</ele>
        <time>2010-01-02T00:33:03Z</time>
      </trkpt>
      <trkpt lat="43.987130" lon="3.373750">
        <ele>787.21</ele>
        <time>2010-01-02T00:33:09Z</time>
      </trkpt>
      <trkpt lat="43.986930" lon="3.373680">
        <ele>787.21</ele>
        <time>2010-01-02T00:33:13Z</time>
      </trkpt>
      <trkpt lat="43.986740" lon="3.373720">
        <ele>787.616272</ele>
        <time>2010-01-02T00:33:23Z</time>
      </trkpt>
      <trkpt lat="43.985990" lon="3.374180">
        <ele>792.620483</ele>
        <time>2010-01-02T00:33:35Z</time>
      </trkpt>
      <trkpt lat="43.985790" lon="3.374210">
        <ele>792.11</ele>
        <time>2010-01-02T00:33:45Z</time>
      </trkpt>
      <trkpt lat="43.985560" lon="3.374150">
        <ele>790.32</ele>
        <time>2010-01-02T00:34:13Z</time>
      </trkpt>
      <trkpt lat="43.985340" lon="3.373920">
        <ele>789.392212</ele>
        <time>2010-01-02T00:34:36Z</time>
      </trkpt>
      <trkpt lat="43.984690" lon="3.372650">
        <ele>786.437988</ele>
        <time>2010-01-02T00:34:46Z</time>
      </trkpt>
      <trkpt lat="43.984450" lon="3.372380">
        <ele>784.521423</ele>
        <time>2010-01-02T00:35:09Z</time>
      </trkpt>
      <trkpt lat="43.984230" lon="3.372300">
        <ele>782.730469</ele>
        <time>2010-01-02T00:35:46Z</time>
      </trkpt>
      <trkpt lat="43.983170" lon="3.372220">
        <ele>778.128540</ele>
        <time>2010-01-02T00:36:05Z</time>
      </trkpt>
      <trkpt lat="43.981780" lon="3.371180">
        <ele>777.864197</ele>
        <time>2010-01-02T00:36:15Z</time>
      </trkpt>
      <trkpt lat="43.981270" lon="3.371160">
        <ele>777.003723</ele>
        <time>2010-01-02T00:36:40Z</time>
      </trkpt>
      <trkpt lat="43.979980" lon="3.371510">
        <ele>763.725403</ele>
        <time>2010-01-02T00:37:13Z</time>
      </trkpt>
      <trkpt lat="43.979720" lon="3.371490">
        <ele>762.063354</ele>
        <time>2010-01-02T00:38:27Z</time>
      </trkpt>
      <trkpt lat="43.976880" lon="3.368940">
        <ele>743.853027</ele>
        <time>2010-01-02T00:38:59Z</time>
      </trkpt>
      <trkpt lat="43.976030" lon="3.368650">
        <ele>738.417664</ele>
        <time>2010-01-02T00:39:09Z</time>
      </trkpt>
      <trkpt lat="43.975550" lon="3.368550">
        <ele>734.855896</ele>
        <time>2010-01-02T00:40:27Z</time>
      </trkpt>
      <trkpt lat="43.974670" lon="3.368060">
        <ele>730.341187</ele>
        <time>2010-01-02T00:40:35Z</time>
      </trkpt>
      <trkpt lat="43.974370" lon="3.367960">
        <ele>729.468445</ele>
        <time>2010-01-02T00:40:45Z</time>
      </trkpt>
      <trkpt lat="43.974340" lon="3.366850">
        <ele>729.359741</ele>
        <time>2010-01-02T00:41:03Z</time>
      </trkpt>
      <trkpt lat="43.974370" lon="3.365710">
        <ele>726.256897</ele>
        <time>2010-01-02T00:41:08Z</time>
      </trkpt>
      <trkpt lat="43.974300" lon="3.365080">
        <ele>723.954773</ele>
        <time>2010-01-02T00:41:12Z</time>
      </trkpt>
      <trkpt lat="43.973080" lon="3.360200">
        <ele>722.13</ele>
        <time>2010-01-02T00:41:17Z</time>
      </trkpt>
      <trkpt lat="43.972360" lon="3.357510">
        <ele>722.13</ele>
        <time>2010-01-02T00:41:22Z</time>
      </trkpt>
      <trkpt lat="43.971840" lon="3.355650">
        <ele>722.64</ele>
        <time>2010-01-02T00:41:43Z</time>
      </trkpt>
      <trkpt lat="43.971720" lon="3.354990">
        <ele>723.38</ele>
        <time>2010-01-02T00:41:52Z</time>
      </trkpt>
      <trkpt lat="43.971870" lon="3.354480">
        <ele>725.287415</ele>
        <time>2010-01-02T00:42:09Z</time>
      </trkpt>
      <trkpt lat="43.972015" lon="3.354166">
        <ele>725.829956</ele>
        <time>2010-01-02T00:42:38Z</time>
      </trkpt>
      <trkpt lat="43.972190" lon="3.354030">
        <ele>726.638733</ele>
        <time>2010-01-02T00:43:08Z</time>
      </trkpt>
      <trkpt lat="43.972560" lon="3.353830">
        <ele>727.742371</ele>
        <time>2010-01-02T00:43:15Z</time>
      </trkpt>
      <trkpt lat="43.974120" lon="3.353210">
        <ele>729.932617</ele>
        <time>2010-01-02T00:43:30Z</time>
      </trkpt>
      <trkpt lat="43.974640" lon="3.353050">
        <ele>729.492554</ele>
        <time>2010-01-02T00:43:38Z</time>
      </trkpt>
      <trkpt lat="43.974960" lon="3.353020">
        <ele>730.382080</ele>
        <time>2010-01-02T00:43:47Z</time>
      </trkpt>
      <trkpt lat="43.975340" lon="3.353070">
        <ele>731.929993</ele>
        <time>2010-01-02T00:44:16Z</time>
      </trkpt>
      <trkpt lat="43.975650" lon="3.353180">
        <ele>733.34</ele>
        <time>2010-01-02T00:44:27Z</time>
      </trkpt>
      <trkpt lat="43.976490" lon="3.353780">
        <ele>733.34</ele>
        <time>2010-01-02T00:44:36Z</time>
      </trkpt>
      <trkpt lat="43.976810" lon="3.353930">
        <ele>733.632385</ele>
        <time>2010-01-02T00:45:15Z</time>
      </trkpt>
      <trkpt lat="43.977880" lon="3.353960">
        <ele>733.29</ele>
        <time>2010-01-02T00:45:21Z</time>
      </trkpt>
      <trkpt lat="43.978000" lon="3.353850">
        <ele>733.29</ele>
        <time>2010-01-02T00:45:30Z</time>
      </trkpt>
      <trkpt lat="43.978050" lon="3.353740">
        <ele>733.29</ele>
        <time>2010-01-02T00:45:50Z</time>
      </trkpt>
      <trkpt lat="43.978090" lon="3.353370">
        <ele>733.29</ele>
        <time>2010-01-02T00:46:02Z</time>
      </trkpt>
      <trkpt lat="43.978070" lon="3.352970">
        <ele>733.29</ele>
        <time>2010-01-02T00:46:14Z</time>
      </trkpt>
      <trkpt lat="43.977940" lon="3.352690">
        <ele>734.827576</ele>
        <time>2010-01-02T00:46:20Z</time>
      </trkpt>
      <trkpt lat="43.977330" lon="3.352220">
        <ele>737.891052</ele>
        <time>2010-01-02T00:46:26Z</time>
      </trkpt>
      <trkpt lat="43.976920" lon="3.351640">
        <ele>742.675293</ele>
        <time>2010-01-02T00:46:45Z</time>
      </trkpt>
      <trkpt lat="43.976710" lon="3.351420">
        <ele>744.522888</ele>
        <time>2010-01-02T00:47:51Z</time>
      </trkpt>
      <trkpt lat="43.976190" lon="3.351140">
        <ele>746.247498</ele>
        <time>2010-01-02T00:48:20Z</time>
      </trkpt>
      <trkpt lat="43.975260" lon="3.350940">
        <ele>750.14</ele>
        <time>2010-01-02T00:51:19Z</time>
      </trkpt>
      <trkpt lat="43.974840" lon="3.350650">
        <ele>753.203613</ele>
        <time>2010-01-02T00:51:41Z</time>
      </trkpt>
      <trkpt lat="43.974670" lon="3.350430">
        <ele>755.292358</ele>
        <time>2010-01-02T00:51:53Z</time>
      </trkpt>
      <trkpt lat="43.974290" lon="3.349720">
        <ele>762.058228</ele>
        <time>2010-01-02T00:52:03Z</time>
      </trkpt>
      <trkpt lat="43.973660" lon="3.349000">
        <ele>767.154297</ele>
        <time>2010-01-02T00:52:32Z</time>
      </trkpt>
      <trkpt lat="43.973451" lon="3.348694">
        <ele>767.52</ele>
        <time>2010-01-02T00:52:50Z</time>
      </trkpt>
      <trkpt lat="43.973326" lon="3.348225">
        <ele>767.52</ele>
        <time>2010-01-02T00:53:08Z</time>
      </trkpt>
      <trkpt lat="43.973389" lon="3.347483">
        <ele>774.832092</ele>
        <time>2010-01-02T00:53:41Z</time>
      </trkpt>
      <trkpt lat="43.973344" lon="3.347079">
        <ele>781.507568</ele>
        <time>2010-01-02T00:54:11Z</time>
      </trkpt>
      <trkpt lat="43.973120" lon="3.346670">
        <ele>783.65</ele>
        <time>2010-01-02T00:56:31Z</time>
      </trkpt>
      <trkpt lat="43.972450" lon="3.346080">
        <ele>783.65</ele>
        <time>2010-01-02T00:56:51Z</time>
      </trkpt>
      <trkpt lat="43.972260" lon="3.345830">
        <ele>782.32</ele>
        <time>2010-01-02T00:57:04Z</time>
      </trkpt>
      <trkpt lat="43.972130" lon="3.345542">
        <ele>782.32</ele>
        <time>2010-01-02T00:57:33Z</time>
      </trkpt>
      <trkpt lat="43.972121" lon="3.345203">
        <ele>782.32</ele>
        <time>2010-01-02T00:57:51Z</time>
      </trkpt>
      <trkpt lat="43.972255" lon="3.344317">
        <ele>790.63</ele>
        <time>2010-01-02T01:01:11Z</time>
      </trkpt>
      <trkpt lat="43.972246" lon="3.344070">
        <ele>793.96</ele>
        <time>2010-01-02T01:01:58Z</time>
      </trkpt>
      <trkpt lat="43.971710" lon="3.343720">
        <ele>793.88</ele>
        <time>2010-01-02T01:02:06Z</time>
      </trkpt>
      <trkpt lat="43.971560" lon="3.343540">
        <ele>794.36</ele>
        <time>2010-01-02T01:02:21Z</time>
      </trkpt>
      <trkpt lat="43.971520" lon="3.343200">
        <ele>797.55</ele>
        <time>2010-01-02T01:02:30Z</time>
      </trkpt>
      <trkpt lat="43.971640" lon="3.342580">
        <ele>798.52</ele>
        <time>2010-01-02T01:03:12Z</time>
      </trkpt>
      <trkpt lat="43.971660" lon="3.342410">
        <ele>798.46</ele>
        <time>2010-01-02T01:05:02Z</time>
      </trkpt>
      <trkpt lat="43.971630" lon="3.342290">
        <ele>800.15</ele>
        <time>2010-01-02T01:07:38Z</time>
      </trkpt>
      <trkpt lat="43.971520" lon="3.342190">
        <ele>801.91</ele>
        <time>2010-01-02T01:08:19Z</time>
      </trkpt>
      <trkpt lat="43.971390" lon="3.342160">
        <ele>802.85</ele>
        <time>2010-01-02T01:12:40Z</time>
      </trkpt>
      <trkpt lat="43.970880" lon="3.342240">
        <ele>805.65</ele>
        <time>2010-01-02T01:12:58Z</time>
      </trkpt>
      <trkpt lat="43.970660" lon="3.342190">
        <ele>806.06</ele>
        <time>2010-01-02T01:13:41Z</time>
      </trkpt>
      <trkpt lat="43.970310" lon="3.341860">
        <ele>810.09</ele>
        <time>2010-01-02T01:14:16Z</time>
      </trkpt>
      <trkpt lat="43.969900" lon="3.341020">
        <ele>815.44</ele>
        <time>2010-01-02T01:14:23Z</time>
      </trkpt>
      <trkpt lat="43.969560" lon="3.340090">
        <ele>818.63</ele>
        <time>2010-01-02T01:15:10Z</time>
      </trkpt>
      <trkpt lat="43.969420" lon="3.339960">
        <ele>817.80</ele>
        <time>2010-01-02T01:16:08Z</time>
      </trkpt>
      <trkpt lat="43.969060" lon="3.339790">
        <ele>817.80</ele>
        <time>2010-01-02T01:16:38Z</time>
      </trkpt>
      <trkpt lat="43.968920" lon="3.339600">
        <ele>818.397888</ele>
        <time>2010-01-02T01:19:50Z</time>
      </trkpt>
      <trkpt lat="43.968840" lon="3.339290">
        <ele>820.780029</ele>
        <time>2010-01-02T01:20:21Z</time>
      </trkpt>
      <trkpt lat="43.968850" lon="3.338290">
        <ele>822.549316</ele>
        <time>2010-01-02T01:20:30Z</time>
      </trkpt>
      <trkpt lat="43.968780" lon="3.337910">
        <ele>823.325012</ele>
        <time>2010-01-02T01:21:00Z</time>
      </trkpt>
      <trkpt lat="43.968660" lon="3.337650">
        <ele>823.554016</ele>
        <time>2010-01-02T01:21:20Z</time>
      </trkpt>
      <trkpt lat="43.968030" lon="3.336630">
        <ele>824.632874</ele>
        <time>2010-01-02T01:22:17Z</time>
      </trkpt>
      <trkpt lat="43.967910" lon="3.336520">
        <ele>824.996521</ele>
        <time>2010-01-02T01:22:31Z</time>
      </trkpt>
      <trkpt lat="43.967690" lon="3.336430">
        <ele>826.41</ele>
        <time>2010-01-02T01:22:43Z</time>
      </trkpt>
      <trkpt lat="43.967190" lon="3.336470">
        <ele>826.41</ele>
        <time>2010-01-02T01:22:53Z</time>
      </trkpt>
      <trkpt lat="43.966890" lon="3.336410">
        <ele>826.41</ele>
        <time>2010-01-02T01:23:36Z</time>
      </trkpt>
      <trkpt lat="43.966630" lon="3.336180">
        <ele>827.102295</ele>
        <time>2010-01-02T01:23:56Z</time>
      </trkpt>
      <trkpt lat="43.966550" lon="3.336030">
        <ele>828.481201</ele>
        <time>2010-01-02T01:24:06Z</time>
      </trkpt>
      <trkpt lat="43.966470" lon="3.335830">
        <ele>830.305237</ele>
        <time>2010-01-02T01:24:21Z</time>
      </trkpt>
      <trkpt lat="43.966410" lon="3.335190">
        <ele>831.44</ele>
        <time>2010-01-02T01:24:58Z</time>
      </trkpt>
      <trkpt lat="43.966330" lon="3.332890">
        <ele>831.44</ele>
        <time>2010-01-02T01:25:24Z</time>
      </trkpt>
      <trkpt lat="43.966180" lon="3.331920">
        <ele>831.44</ele>
        <time>2010-01-02T01:26:13Z</time>
      </trkpt>
      <trkpt lat="43.965460" lon="3.325800">
        <ele>818.65</ele>
        <time>2010-01-02T01:26:27Z</time>
      </trkpt>
      <trkpt lat="43.965290" lon="3.325050">
        <ele>813.871033</ele>
        <time>2010-01-02T01:27:24Z</time>
      </trkpt>
      <trkpt lat="43.965150" lon="3.324700">
        <ele>812.673462</ele>
        <time>2010-01-02T01:27:33Z</time>
      </trkpt>
      <trkpt lat="43.965020" lon="3.324410">
        <ele>812.288696</ele>
        <time>2010-01-02T01:27:52Z</time>
      </trkpt>
      <trkpt lat="43.964560" lon="3.323630">
        <ele>809.028137</ele>
        <time>2010-01-02T01:28:06Z</time>
      </trkpt>
      <trkpt lat="43.964310" lon="3.323100">
        <ele>805.542053</ele>
        <time>2010-01-02T01:28:28Z</time>
      </trkpt>
      <trkpt lat="43.964130" lon="3.322530">
        <ele>800.52</ele>
        <time>2010-01-02T01:28:49Z</time>
      </trkpt>
      <trkpt lat="43.963920" lon="3.321410">
        <ele>795.237488</ele>
        <time>2010-01-02T01:31:52Z</time>
      </trkpt>
      <trkpt lat="43.963890" lon="3.320360">
        <ele>793.445007</ele>
        <time>2010-01-02T01:32:11Z</time>
      </trkpt>
      <trkpt lat="43.964050" lon="3.315520">
        <ele>787.39</ele>
        <time>2010-01-02T01:32:24Z</time>
      </trkpt>
      <trkpt lat="43.964000" lon="3.314830">
        <ele>787.40</ele>
        <time>2010-01-02T01:32:35Z</time>
      </trkpt>
      <trkpt lat="43.963870" lon="3.314400">
        <ele>787.82</ele>
        <time>2010-01-02T01:32:46Z</time>
      </trkpt>
      <trkpt lat="43.963380" lon="3.313700">
        <ele>788.94</ele>
        <time>2010-01-02T01:37:12Z</time>
      </trkpt>
      <trkpt lat="43.962980" lon="3.313350">
        <ele>788.94</ele>
        <time>2010-01-02T01:38:01Z</time>
      </trkpt>
      <trkpt lat="43.959070" lon="3.309030">
        <ele>781.19</ele>
        <time>2010-01-02T01:39:11Z</time>
      </trkpt>
      <trkpt lat="43.958320" lon="3.310270">
        <ele>775.321228</ele>
        <time>2010-01-02T01:39:58Z</time>
      </trkpt>
      <trkpt lat="43.958170" lon="3.310430">
        <ele>775.291199</ele>
        <time>2010-01-02T01:40:36Z</time>
      </trkpt>
      <trkpt lat="43.957810" lon="3.310620">
        <ele>774.910828</ele>
        <time>2010-01-02T01:40:39Z</time>
      </trkpt>
      <trkpt lat="43.957590" lon="3.310630">
        <ele>773.959229</ele>
        <time>2010-01-02T01:40:46Z</time>
      </trkpt>
      <trkpt lat="43.956570" lon="3.310330">
        <ele>771.168762</ele>
        <time>2010-01-02T01:41:22Z</time>
      </trkpt>
      <trkpt lat="43.953820" lon="3.310470">
        <ele>762.244751</ele>
        <time>2010-01-02T01:42:02Z</time>
      </trkpt>
      <trkpt lat="43.949920" lon="3.310330">
        <ele>759.000000</ele>
        <time>2010-01-02T01:42:24Z</time>
      </trkpt>
      <trkpt lat="43.948900" lon="3.310490">
        <ele>758.128113</ele>
        <time>2010-01-02T01:42:46Z</time>
      </trkpt>
      <trkpt lat="43.942460" lon="3.311830">
        <ele>758.640015</ele>
        <time>2010-01-02T01:43:18Z</time>
      </trkpt>
      <trkpt lat="43.942010" lon="3.311830">
        <ele>758.900940</ele>
        <time>2010-01-02T01:43:32Z</time>
      </trkpt>
      <trkpt lat="43.940940" lon="3.311690">
        <ele>761.101685</ele>
        <time>2010-01-02T01:43:37Z</time>
      </trkpt>
      <trkpt lat="43.940070" lon="3.311780">
        <ele>766.240051</ele>
        <time>2010-01-02T01:43:47Z</time>
      </trkpt>
      <trkpt lat="43.939880" lon="3.311750">
        <ele>767.549377</ele>
        <time>2010-01-02T01:43:50Z</time>
      </trkpt>
      <trkpt lat="43.938760" lon="3.311320">
        <ele>774.01</ele>
        <time>2010-01-02T01:45:23Z</time>
      </trkpt>
      <trkpt lat="43.937410" lon="3.310620">
        <ele>777.867981</ele>
        <time>2010-01-02T01:45:34Z</time>
      </trkpt>
      <trkpt lat="43.936670" lon="3.310370">
        <ele>780.946289</ele>
        <time>2010-01-02T01:45:45Z</time>
      </trkpt>
      <trkpt lat="43.931890" lon="3.309670">
        <ele>792.635803</ele>
        <time>2010-01-02T01:45:58Z</time>
      </trkpt>
      <trkpt lat="43.931130" lon="3.309780">
        <ele>795.272949</ele>
        <time>2010-01-02T01:46:18Z</time>
      </trkpt>
      <trkpt lat="43.930910" lon="3.309770">
        <ele>796.132507</ele>
        <time>2010-01-02T01:49:20Z</time>
      </trkpt>
      <trkpt lat="43.930180" lon="3.309530">
        <ele>797.145569</ele>
        <time>2010-01-02T01:49:34Z</time>
      </trkpt>
      <trkpt lat="43.929670" lon="3.309550">
        <ele>799.971252</ele>
        <time>2010-01-02T01:49:50Z</time>
      </trkpt>
      <trkpt lat="43.928260" lon="3.309790">
        <ele>805.35</ele>
        <time>2010-01-02T01:50:03Z</time>
      </trkpt>
      <trkpt lat="43.927920" lon="3.309750">
        <ele>806.901001</ele>
        <time>2010-01-02T01:50:17Z</time>
      </trkpt>
      <trkpt lat="43.927660" lon="3.309520">
        <ele>806.860474</ele>
        <time>2010-01-02T01:50:29Z</time>
      </trkpt>
      <trkpt lat="43.927510" lon="3.309260">
        <ele>807.211975</ele>
        <time>2010-01-02T01:50:45Z</time>
      </trkpt>
      <trkpt lat="43.927200" lon="3.307830">
        <ele>812.85</ele>
        <time>2010-01-02T01:51:42Z</time>
      </trkpt>
      <trkpt lat="43.926890" lon="3.307270">
        <ele>812.85</ele>
        <time>2010-01-02T01:51:56Z</time>
      </trkpt>
      <trkpt lat="43.926700" lon="3.307060">
        <ele>812.85</ele>
        <time>2010-01-02T01:52:57Z</time>
      </trkpt>
      <trkpt lat="43.926360" lon="3.306840">
        <ele>812.85</ele>
        <time>2010-01-02T01:53:43Z</time>
      </trkpt>
      <trkpt lat="43.925460" lon="3.306550">
        <ele>812.85</ele>
        <time>2010-01-02T01:53:54Z</time>
      </trkpt>
      <trkpt lat="43.924830" lon="3.306390">
        <ele>811.60</ele>
        <time>2010-01-02T01:54:10Z</time>
      </trkpt>
      <trkpt lat="43.923590" lon="3.306260">
        <ele>806.799011</ele>
        <time>2010-01-02T01:54:27Z</time>
      </trkpt>
      <trkpt lat="43.923250" lon="3.306130">
        <ele>805.046509</ele>
        <time>2010-01-02T01:54:40Z</time>
      </trkpt>
      <trkpt lat="43.921940" lon="3.305390">
        <ele>800.626282</ele>
        <time>2010-01-02T01:55:04Z</time>
      </trkpt>
      <trkpt lat="43.921720" lon="3.305330">
        <ele>800.517761</ele>
        <time>2010-01-02T01:55:17Z</time>
      </trkpt>
      <trkpt lat="43.921250" lon="3.305290">
        <ele>799.40</ele>
        <time>2010-01-02T01:55:26Z</time>
      </trkpt>
      <trkpt lat="43.920900" lon="3.305390">
        <ele>798.957520</ele>
        <time>2010-01-02T01:55:39Z</time>
      </trkpt>
      <trkpt lat="43.920400" lon="3.305730">
        <ele>797.667053</ele>
        <time>2010-01-02T01:55:52Z</time>
      </trkpt>
      <trkpt lat="43.920020" lon="3.306210">
        <ele>796.515015</ele>
        <time>2010-01-02T01:56:49Z</time>
      </trkpt>
      <trkpt lat="43.917340" lon="3.311330">
        <ele>780.482483</ele>
        <time>2010-01-02T01:57:09Z</time>
      </trkpt>
      <trkpt lat="43.916950" lon="3.311740">
        <ele>780.002502</ele>
        <time>2010-01-02T01:57:39Z</time>
      </trkpt>
      <trkpt lat="43.916660" lon="3.311920">
        <ele>780.559753</ele>
        <time>2010-01-02T01:57:48Z</time>
      </trkpt>
      <trkpt lat="43.916390" lon="3.311980">
        <ele>780.620117</ele>
        <time>2010-01-02T01:58:19Z</time>
      </trkpt>
      <trkpt lat="43.916110" lon="3.311960">
        <ele>780.520020</ele>
        <time>2010-01-02T02:01:31Z</time>
      </trkpt>
      <trkpt lat="43.913887" lon="3.311118">
        <ele>779.000000</ele>
        <time>2010-01-02T02:02:02Z</time>
      </trkpt>
      <trkpt lat="43.912910" lon="3.310793">
        <ele>779.000000</ele>
        <time>2010-01-02T02:02:59Z</time>
      </trkpt>
      <trkpt lat="43.912510" lon="3.310695">
        <ele>779.000000</ele>
        <time>2010-01-02T02:03:46Z</time>
      </trkpt>
      <trkpt lat="43.912042" lon="3.310714">
        <ele>779.000000</ele>
        <time>2010-01-02T02:03:54Z</time>
      </trkpt>
      <trkpt lat="43.909600" lon="3.311330">
        <ele>778.211792</ele>
        <time>2010-01-02T02:04:29Z</time>
      </trkpt>
      <trkpt lat="43.909591" lon="3.311496">
        <ele>778.000000</ele>
        <time>2010-01-02T02:05:12Z</time>
      </trkpt>
      <trkpt lat="43.909698" lon="3.311652">
        <ele>778.000000</ele>
        <time>2010-01-02T02:05:30Z</time>
      </trkpt>
      <trkpt lat="43.910450" lon="3.312520">
        <ele>778.667603</ele>
        <time>2010-01-02T02:09:50Z</time>
      </trkpt>
      <trkpt lat="43.911740" lon="3.314140">
        <ele>779.000000</ele>
        <time>2010-01-02T02:10:31Z</time>
      </trkpt>
      <trkpt lat="43.912460" lon="3.315420">
        <ele>779.908936</ele>
        <time>2010-01-02T02:12:57Z</time>
      </trkpt>
      <trkpt lat="43.913000" lon="3.316500">
        <ele>779.036255</ele>
        <time>2010-01-02T02:14:58Z</time>
      </trkpt>
      <trkpt lat="43.913070" lon="3.316560">
        <ele>778.997620</ele>
        <time>2010-01-02T02:15:39Z</time>
      </trkpt>
      <trkpt lat="43.913250" lon="3.316500">
        <ele>778.64</ele>
        <time>2010-01-02T02:15:48Z</time>
      </trkpt>
      <trkpt lat="43.913880" lon="3.315610">
        <ele>778.32</ele>
        <time>2010-01-02T02:16:04Z</time>
      </trkpt>
      <trkpt lat="43.914520" lon="3.314550">
        <ele>778.32</ele>
        <time>2010-01-02T02:16:11Z</time>
      </trkpt>
      <trkpt lat="43.914540" lon="3.313780">
        <ele>778.572571</ele>
        <time>2010-01-02T02:16:58Z</time>
      </trkpt>
      <trkpt lat="43.914490" lon="3.313030">
        <ele>779.000000</ele>
        <time>2010-01-02T02:20:18Z</time>
      </trkpt>
      <trkpt lat="43.914300" lon="3.311950">
        <ele>779.000000</ele>
        <time>2010-01-02T02:20:37Z</time>
      </trkpt>
      <trkpt lat="43.914160" lon="3.311500">
        <ele>779.000000</ele>
        <time>2010-01-02T02:20:47Z</time>
      </trkpt>
      <trkpt lat="43.914080" lon="3.311400">
        <ele>779.000000</ele>
        <time>2010-01-02T02:20:58Z</time>
      </trkpt>
      <trkpt lat="43.913840" lon="3.311310">
        <ele>779.000000</ele>
        <time>2010-01-02T02:21:24Z</time>
      </trkpt>
      <trkpt lat="43.913860" lon="3.311180">
        <ele>779.000000</ele>
        <time>2010-01-02T02:21:35Z</time>
      </trkpt>
      <trkpt lat="43.916110" lon="3.311960">
        <ele>780.520020</ele>
        <time>2010-01-02T02:21:46Z</time>
      </trkpt>
      <trkpt lat="43.916390" lon="3.311980">
        <ele>780.620117</ele>
        <time>2010-01-02T02:22:06Z</time>
      </trkpt>
      <trkpt lat="43.916660" lon="3.311920">
        <ele>780.559753</ele>
        <time>2010-01-02T02:22:46Z</time>
      </trkpt>
      <trkpt lat="43.916950" lon="3.311740">
        <ele>780.00</ele>
        <time>2010-01-02T02:23:00Z</time>
      </trkpt>
      <trkpt lat="43.917340" lon="3.311330">
        <ele>780.48</ele>
        <time>2010-01-02T02:23:12Z</time>
      </trkpt>
      <trkpt lat="43.920020" lon="3.306210">
        <ele>796.52</ele>
        <time>2010-01-02T02:23:47Z</time>
      </trkpt>
      <trkpt lat="43.920260" lon="3.305880">
        <ele>797.256226</ele>
        <time>2010-01-02T02:24:03Z</time>
      </trkpt>
      <trkpt lat="43.920590" lon="3.305570">
        <ele>798.295349</ele>
        <time>2010-01-02T02:24:08Z</time>
      </trkpt>
      <trkpt lat="43.920900" lon="3.305390">
        <ele>798.957520</ele>
        <time>2010-01-02T02:24:20Z</time>
      </trkpt>
      <trkpt lat="43.921250" lon="3.305290">
        <ele>799.395020</ele>
        <time>2010-01-02T02:24:51Z</time>
      </trkpt>
      <trkpt lat="43.921530" lon="3.305290">
        <ele>800.00</ele>
        <time>2010-01-02T02:25:12Z</time>
      </trkpt>
      <trkpt lat="43.921940" lon="3.305390">
        <ele>800.626282</ele>
        <time>2010-01-02T02:25:20Z</time>
      </trkpt>
      <trkpt lat="43.923250" lon="3.306130">
        <ele>803.05</ele>
        <time>2010-01-02T02:25:29Z</time>
      </trkpt>
      <trkpt lat="43.923590" lon="3.306260">
        <ele>806.80</ele>
        <time>2010-01-02T02:25:49Z</time>
      </trkpt>
      <trkpt lat="43.925110" lon="3.306450">
        <ele>812.902832</ele>
        <time>2010-01-02T02:26:04Z</time>
      </trkpt>
      <trkpt lat="43.926220" lon="3.306780">
        <ele>814.161255</ele>
        <time>2010-01-02T02:26:59Z</time>
      </trkpt>
      <trkpt lat="43.926490" lon="3.306910">
        <ele>815.236206</ele>
        <time>2010-01-02T02:27:39Z</time>
      </trkpt>
      <trkpt lat="43.926830" lon="3.307200">
        <ele>815.77</ele>
        <time>2010-01-02T02:28:07Z</time>
      </trkpt>
      <trkpt lat="43.927120" lon="3.307640">
        <ele>813.962585</ele>
        <time>2010-01-02T02:28:43Z</time>
      </trkpt>
      <trkpt lat="43.927260" lon="3.308040">
        <ele>811.984314</ele>
        <time>2010-01-02T02:28:51Z</time>
      </trkpt>
      <trkpt lat="43.927400" lon="3.308850">
        <ele>809.637878</ele>
        <time>2010-01-02T02:29:26Z</time>
      </trkpt>
      <trkpt lat="43.927510" lon="3.309260">
        <ele>807.21</ele>
        <time>2010-01-02T02:29:33Z</time>
      </trkpt>
      <trkpt lat="43.927660" lon="3.309520">
        <ele>807.21</ele>
        <time>2010-01-02T02:29:50Z</time>
      </trkpt>
      <trkpt lat="43.927920" lon="3.309750">
        <ele>807.21</ele>
        <time>2010-01-02T02:30:16Z</time>
      </trkpt>
      <trkpt lat="43.928260" lon="3.309790">
        <ele>807.345459</ele>
        <time>2010-01-02T02:30:36Z</time>
      </trkpt>
      <trkpt lat="43.929670" lon="3.309550">
        <ele>799.971252</ele>
        <time>2010-01-02T02:30:49Z</time>
      </trkpt>
      <trkpt lat="43.930180" lon="3.309530">
        <ele>797.15</ele>
        <time>2010-01-02T02:32:07Z</time>
      </trkpt>
      <trkpt lat="43.930910" lon="3.309770">
        <ele>796.132507</ele>
        <time>2010-01-02T02:33:01Z</time>
      </trkpt>
      <trkpt lat="43.931130" lon="3.309780">
        <ele>795.272949</ele>
        <time>2010-01-02T02:33:11Z</time>
      </trkpt>
      <trkpt lat="43.931890" lon="3.309670">
        <ele>792.635803</ele>
        <time>2010-01-02T02:33:24Z</time>
      </trkpt>
      <trkpt lat="43.936670" lon="3.310370">
        <ele>780.946289</ele>
        <time>2010-01-02T02:34:05Z</time>
      </trkpt>
      <trkpt lat="43.937410" lon="3.310620">
        <ele>777.867981</ele>
        <time>2010-01-02T02:34:53Z</time>
      </trkpt>
      <trkpt lat="43.938760" lon="3.311320">
        <ele>774.006958</ele>
        <time>2010-01-02T02:35:12Z</time>
      </trkpt>
      <trkpt lat="43.939880" lon="3.311750">
        <ele>767.549377</ele>
        <time>2010-01-02T02:37:03Z</time>
      </trkpt>
      <trkpt lat="43.940070" lon="3.311780">
        <ele>766.240051</ele>
        <time>2010-01-02T02:37:26Z</time>
      </trkpt>
      <trkpt lat="43.940940" lon="3.311690">
        <ele>761.101685</ele>
        <time>2010-01-02T02:37:43Z</time>
      </trkpt>
      <trkpt lat="43.942010" lon="3.311830">
        <ele>758.900940</ele>
        <time>2010-01-02T02:39:32Z</time>
      </trkpt>
      <trkpt lat="43.942460" lon="3.311830">
        <ele>758.640015</ele>
        <time>2010-01-02T02:39:39Z</time>
      </trkpt>
      <trkpt lat="43.948900" lon="3.310490">
        <ele>758.13</ele>
        <time>2010-01-02T02:40:02Z</time>
      </trkpt>
      <trkpt lat="43.949920" lon="3.310330">
        <ele>759.000000</ele>
        <time>2010-01-02T02:40:15Z</time>
      </trkpt>
      <trkpt lat="43.953550" lon="3.310470">
        <ele>761.584595</ele>
        <time>2010-01-02T02:40:32Z</time>
      </trkpt>
      <trkpt lat="43.956570" lon="3.310330">
        <ele>771.168762</ele>
        <time>2010-01-02T02:41:18Z</time>
      </trkpt>
      <trkpt lat="43.957590" lon="3.310630">
        <ele>773.959229</ele>
        <time>2010-01-02T02:41:55Z</time>
      </trkpt>
      <trkpt lat="43.957810" lon="3.310620">
        <ele>774.910828</ele>
        <time>2010-01-02T02:42:08Z</time>
      </trkpt>
      <trkpt lat="43.958170" lon="3.310430">
        <ele>775.291199</ele>
        <time>2010-01-02T02:42:36Z</time>
      </trkpt>
      <trkpt lat="43.958320" lon="3.310270">
        <ele>775.321228</ele>
        <time>2010-01-02T02:42:45Z</time>
      </trkpt>
      <trkpt lat="43.959070" lon="3.309030">
        <ele>781.19</ele>
        <time>2010-01-02T02:42:56Z</time>
      </trkpt>
      <trkpt lat="43.962980" lon="3.313350">
        <ele>789.04</ele>
        <time>2010-01-02T02:43:13Z</time>
      </trkpt>
      <trkpt lat="43.963380" lon="3.313700">
        <ele>789.82</ele>
        <time>2010-01-02T02:43:16Z</time>
      </trkpt>
      <trkpt lat="43.963610" lon="3.313560">
        <ele>789.82</ele>
        <time>2010-01-02T02:43:22Z</time>
      </trkpt>
      <trkpt lat="43.963880" lon="3.313560">
        <ele>790.644714</ele>
        <time>2010-01-02T02:43:57Z</time>
      </trkpt>
      <trkpt lat="43.964530" lon="3.313720">
        <ele>793.406372</ele>
        <time>2010-01-02T02:44:13Z</time>
      </trkpt>
      <trkpt lat="43.964770" lon="3.313900">
        <ele>794.10</ele>
        <time>2010-01-02T02:44:50Z</time>
      </trkpt>
      <trkpt lat="43.964940" lon="3.314210">
        <ele>794.10</ele>
        <time>2010-01-02T02:45:03Z</time>
      </trkpt>
      <trkpt lat="43.965220" lon="3.314760">
        <ele>794.10</ele>
        <time>2010-01-02T02:45:08Z</time>
      </trkpt>
      <trkpt lat="43.966120" lon="3.315360">
        <ele>795.630005</ele>
        <time>2010-01-02T02:45:17Z</time>
      </trkpt>
      <trkpt lat="43.966420" lon="3.315640">
        <ele>796.151917</ele>
        <time>2010-01-02T02:45:58Z</time>
      </trkpt>
      <trkpt lat="43.966570" lon="3.315980">
        <ele>795.72</ele>
        <time>2010-01-02T02:46:16Z</time>
      </trkpt>
      <trkpt lat="43.966790" lon="3.317180">
        <ele>791.629028</ele>
        <time>2010-01-02T02:46:30Z</time>
      </trkpt>
      <trkpt lat="43.966920" lon="3.317700">
        <ele>789.577515</ele>
        <time>2010-01-02T02:46:58Z</time>
      </trkpt>
      <trkpt lat="43.966990" lon="3.317850">
        <ele>788.78</ele>
        <time>2010-01-02T02:47:11Z</time>
      </trkpt>
      <trkpt lat="43.967180" lon="3.318140">
        <ele>787.347473</ele>
        <time>2010-01-02T02:47:46Z</time>
      </trkpt>
      <trkpt lat="43.967850" lon="3.318730">
        <ele>785.776245</ele>
        <time>2010-01-02T02:48:32Z</time>
      </trkpt>
      <trkpt lat="43.968220" lon="3.319230">
        <ele>783.247559</ele>
        <time>2010-01-02T02:48:45Z</time>
      </trkpt>
      <trkpt lat="43.968390" lon="3.319380">
        <ele>782.000427</ele>
        <time>2010-01-02T02:49:21Z</time>
      </trkpt>
      <trkpt lat="43.968620" lon="3.319430">
        <ele>779.727234</ele>
        <time>2010-01-02T02:49:34Z</time>
      </trkpt>
      <trkpt lat="43.969110" lon="3.319370">
        <ele>778.372498</ele>
        <time>2010-01-02T02:49:42Z</time>
      </trkpt>
      <trkpt lat="43.969480" lon="3.319420">
        <ele>777.56</ele>
        <time>2010-01-02T02:49:54Z</time>
      </trkpt>
      <trkpt lat="43.970770" lon="3.320060">
        <ele>770.596741</ele>
        <time>2010-01-02T02:50:23Z</time>
      </trkpt>
      <trkpt lat="43.971750" lon="3.320410">
        <ele>763.24</ele>
        <time>2010-01-02T02:50:40Z</time>
      </trkpt>
      <trkpt lat="43.972440" lon="3.320340">
        <ele>757.77</ele>
        <time>2010-01-02T02:50:50Z</time>
      </trkpt>
      <trkpt lat="43.973310" lon="3.319960">
        <ele>758.902527</ele>
        <time>2010-01-02T02:51:05Z</time>
      </trkpt>
      <trkpt lat="43.973510" lon="3.319930">
        <ele>759.35</ele>
        <time>2010-01-02T02:51:22Z</time>
      </trkpt>
      <trkpt lat="43.974380" lon="3.320050">
        <ele>750.81</ele>
        <time>2010-01-02T02:51:33Z</time>
      </trkpt>
      <trkpt lat="43.974550" lon="3.320030">
        <ele>749.089478</ele>
        <time>2010-01-02T02:52:07Z</time>
      </trkpt>
      <trkpt lat="43.974950" lon="3.319840">
        <ele>744.951721</ele>
        <time>2010-01-02T02:53:16Z</time>
      </trkpt>
      <trkpt lat="43.975460" lon="3.319300">
        <ele>743.522278</ele>
        <time>2010-01-02T02:53:26Z</time>
      </trkpt>
      <trkpt lat="43.975940" lon="3.319100">
        <ele>740.495361</ele>
        <time>2010-01-02T02:53:33Z</time>
      </trkpt>
      <trkpt lat="43.976230" lon="3.318870">
        <ele>739.735840</ele>
        <time>2010-01-02T02:53:38Z</time>
      </trkpt>
      <trkpt lat="43.977730" lon="3.317160">
        <ele>727.709534</ele>
        <time>2010-01-02T02:54:29Z</time>
      </trkpt>
      <trkpt lat="43.978800" lon="3.315990">
        <ele>721.068359</ele>
        <time>2010-01-02T02:54:36Z</time>
      </trkpt>
      <trkpt lat="43.979010" lon="3.315820">
        <ele>718.630798</ele>
        <time>2010-01-02T02:54:40Z</time>
      </trkpt>
      <trkpt lat="43.979320" lon="3.315660">
        <ele>715.41</ele>
        <time>2010-01-02T02:54:48Z</time>
      </trkpt>
      <trkpt lat="43.980330" lon="3.315520">
        <ele>710.137024</ele>
        <time>2010-01-02T02:54:52Z</time>
      </trkpt>
      <trkpt lat="43.981460" lon="3.314950">
        <ele>701.460938</ele>
        <time>2010-01-02T02:55:22Z</time>
      </trkpt>
      <trkpt lat="43.981880" lon="3.314690">
        <ele>699.117493</ele>
        <time>2010-01-02T02:55:32Z</time>
      </trkpt>
      <trkpt lat="43.982178" lon="3.314108">
        <ele>697.966553</ele>
        <time>2010-01-02T02:55:56Z</time>
      </trkpt>
      <trkpt lat="43.983430" lon="3.311510">
        <ele>685.328430</ele>
        <time>2010-01-02T02:56:26Z</time>
      </trkpt>
      <trkpt lat="43.983890" lon="3.310990">
        <ele>677.674622</ele>
        <time>2010-01-02T02:56:35Z</time>
      </trkpt>
      <trkpt lat="43.984250" lon="3.310730">
        <ele>670.603760</ele>
        <time>2010-01-02T02:56:47Z</time>
      </trkpt>
      <trkpt lat="43.986880" lon="3.309750">
        <ele>662.773865</ele>
        <time>2010-01-02T02:57:28Z</time>
      </trkpt>
      <trkpt lat="43.987040" lon="3.309620">
        <ele>661.536194</ele>
        <time>2010-01-02T02:57:38Z</time>
      </trkpt>
      <trkpt lat="43.987470" lon="3.309070">
        <ele>661.308716</ele>
        <time>2010-01-02T02:57:49Z</time>
      </trkpt>
      <trkpt lat="43.987770" lon="3.308920">
        <ele>660.666870</ele>
        <time>2010-01-02T02:58:15Z</time>
      </trkpt>
      <trkpt lat="43.988180" lon="3.309030">
        <ele>658.417908</ele>
        <time>2010-01-02T02:58:30Z</time>
      </trkpt>
      <trkpt lat="43.989260" lon="3.309610">
        <ele>647.132202</ele>
        <time>2010-01-02T02:59:39Z</time>
      </trkpt>
      <trkpt lat="43.990160" lon="3.309830">
        <ele>647.202820</ele>
        <time>2010-01-02T03:00:19Z</time>
      </trkpt>
      <trkpt lat="43.990470" lon="3.310000">
        <ele>644.757141</ele>
        <time>2010-01-02T03:00:28Z</time>
      </trkpt>
      <trkpt lat="43.991050" lon="3.310550">
        <ele>636.29</ele>
        <time>2010-01-02T03:00:48Z</time>
      </trkpt>
      <trkpt lat="43.991260" lon="3.310490">
        <ele>636.75</ele>
        <time>2010-01-02T03:00:56Z</time>
      </trkpt>
      <trkpt lat="43.991470" lon="3.310220">
        <ele>636.75</ele>
        <time>2010-01-02T03:01:16Z</time>
      </trkpt>
      <trkpt lat="43.991740" lon="3.309760">
        <ele>638.90</ele>
        <time>2010-01-02T03:01:35Z</time>
      </trkpt>
      <trkpt lat="43.991810" lon="3.309770">
        <ele>638.281189</ele>
        <time>2010-01-02T03:02:08Z</time>
      </trkpt>
      <trkpt lat="43.991910" lon="3.309910">
        <ele>640.09</ele>
        <time>2010-01-02T03:02:13Z</time>
      </trkpt>
      <trkpt lat="43.991970" lon="3.311120">
        <ele>631.97</ele>
        <time>2010-01-02T03:02:26Z</time>
      </trkpt>
      <trkpt lat="43.992120" lon="3.311660">
        <ele>626.277527</ele>
        <time>2010-01-02T03:02:53Z</time>
      </trkpt>
      <trkpt lat="43.992650" lon="3.312700">
        <ele>617.545959</ele>
        <time>2010-01-02T03:06:17Z</time>
      </trkpt>
      <trkpt lat="43.992900" lon="3.312980">
        <ele>613.017700</ele>
        <time>2010-01-02T03:06:25Z</time>
      </trkpt>
      <trkpt lat="43.993030" lon="3.313040">
        <ele>612.764099</ele>
        <time>2010-01-02T03:06:43Z</time>
      </trkpt>
      <trkpt lat="43.993240" lon="3.313040">
        <ele>612.118652</ele>
        <time>2010-01-02T03:07:14Z</time>
      </trkpt>
      <trkpt lat="43.994240" lon="3.312680">
        <ele>610.794922</ele>
        <time>2010-01-02T03:07:31Z</time>
      </trkpt>
      <trkpt lat="43.994690" lon="3.312600">
        <ele>610.524658</ele>
        <time>2010-01-02T03:08:09Z</time>
      </trkpt>
      <trkpt lat="43.995040" lon="3.312610">
        <ele>610.109497</ele>
        <time>2010-01-02T03:08:18Z</time>
      </trkpt>
      <trkpt lat="43.995700" lon="3.312830">
        <ele>600.082031</ele>
        <time>2010-01-02T03:08:21Z</time>
      </trkpt>
      <trkpt lat="43.996040" lon="3.312860">
        <ele>600.835022</ele>
        <time>2010-01-02T03:08:42Z</time>
      </trkpt>
      <trkpt lat="43.996820" lon="3.313410">
        <ele>598.232910</ele>
      </trkpt>
      <trkpt lat="43.997660" lon="3.314470">
        <ele>588.095032</ele>
      </trkpt>
      <trkpt lat="43.997930" lon="3.314740">
        <ele>583.777527</ele>
      </trkpt>
      <trkpt lat="43.998750" lon="3.315270">
        <ele>578.164978</ele>
      </trkpt>
      <trkpt lat="43.999050" lon="3.315390">
        <ele>575.59</ele>
      </trkpt>
      <trkpt lat="43.999270" lon="3.315390">
        <ele>575.59</ele>
      </trkpt>
      <trkpt lat="43.999560" lon="3.315290">
        <ele>575.59</ele>
      </trkpt>
      <trkpt lat="44.000200" lon="3.314840">
        <ele>575.59</ele>
      </trkpt>
      <trkpt lat="44.000600" lon="3.314680">
        <ele>575.59</ele>
      </trkpt>
      <trkpt lat="44.000860" lon="3.314670">
        <ele>574.912476</ele>
      </trkpt>
      <trkpt lat="44.001220" lon="3.314770">
        <ele>571.772095</ele>
      </trkpt>
      <trkpt lat="44.001620" lon="3.314960">
        <ele>565.070007</ele>
      </trkpt>
      <trkpt lat="44.001900" lon="3.314970">
        <ele>562.614990</ele>
      </trkpt>
      <trkpt lat="44.002700" lon="3.314590">
        <ele>555.50</ele>
      </trkpt>
      <trkpt lat="44.004190" lon="3.313400">
        <ele>543.61</ele>
      </trkpt>
      <trkpt lat="44.004380" lon="3.313150">
        <ele>541.25</ele>
      </trkpt>
      <trkpt lat="44.004440" lon="3.312910">
        <ele>539.41</ele>
      </trkpt>
      <trkpt lat="44.004430" lon="3.312760">
        <ele>539.118835</ele>
      </trkpt>
      <trkpt lat="44.004060" lon="3.311040">
        <ele>536.77</ele>
      </trkpt>
      <trkpt lat="44.004130" lon="3.310820">
        <ele>534.99</ele>
      </trkpt>
      <trkpt lat="44.004210" lon="3.310740">
        <ele>534.99</ele>
      </trkpt>
      <trkpt lat="44.004390" lon="3.310700">
        <ele>534.99</ele>
      </trkpt>
      <trkpt lat="44.004500" lon="3.310750">
        <ele>534.99</ele>
      </trkpt>
      <trkpt lat="44.005130" lon="3.311280">
        <ele>528.77</ele>
      </trkpt>
      <trkpt lat="44.005360" lon="3.311420">
        <ele>527.178650</ele>
      </trkpt>
      <trkpt lat="44.005970" lon="3.311460">
        <ele>526.773743</ele>
      </trkpt>
      <trkpt lat="44.006700" lon="3.311670">
        <ele>523.991882</ele>
      </trkpt>
      <trkpt lat="44.006930" lon="3.311630">
        <ele>523.11</ele>
      </trkpt>
      <trkpt lat="44.007200" lon="3.311500">
        <ele>521.883484</ele>
      </trkpt>
      <trkpt lat="44.008110" lon="3.310840">
        <ele>517.660278</ele>
      </trkpt>
      <trkpt lat="44.008310" lon="3.310630">
        <ele>516.29</ele>
      </trkpt>
      <trkpt lat="44.008470" lon="3.310300">
        <ele>516.29</ele>
      </trkpt>
      <trkpt lat="44.008740" lon="3.309510">
        <ele>516.818542</ele>
      </trkpt>
      <trkpt lat="44.008940" lon="3.309070">
        <ele>514.788574</ele>
      </trkpt>
      <trkpt lat="44.010130" lon="3.307300">
        <ele>508.472717</ele>
      </trkpt>
      <trkpt lat="44.010900" lon="3.306450">
        <ele>500.25</ele>
      </trkpt>
      <trkpt lat="44.011040" lon="3.306200">
        <ele>500.25</ele>
      </trkpt>
      <trkpt lat="44.011280" lon="3.305580">
        <ele>500.25</ele>
      </trkpt>
      <trkpt lat="44.011410" lon="3.305370">
        <ele>500.048401</ele>
      </trkpt>
      <trkpt lat="44.011840" lon="3.305010">
        <ele>497.546997</ele>
      </trkpt>
      <trkpt lat="44.012290" lon="3.304810">
        <ele>493.877197</ele>
      </trkpt>
      <trkpt lat="44.013120" lon="3.304740">
        <ele>490.125000</ele>
      </trkpt>
      <trkpt lat="44.013210" lon="3.304820">
        <ele>489.291260</ele>
      </trkpt>
      <trkpt lat="44.013550" lon="3.304740">
        <ele>489.314056</ele>
      </trkpt>
      <trkpt lat="44.014220" lon="3.304700">
        <ele>488.973907</ele>
      </trkpt>
      <trkpt lat="44.019320" lon="3.304550">
        <ele>485.165009</ele>
      </trkpt>
      <trkpt lat="44.019510" lon="3.304600">
        <ele>485.089996</ele>
      </trkpt>
      <trkpt lat="44.019960" lon="3.304540">
        <ele>485.629425</ele>
      </trkpt>
      <trkpt lat="44.020680" lon="3.304170">
        <ele>486.92</ele>
      </trkpt>
      <trkpt lat="44.021020" lon="3.303820">
        <ele>488.263763</ele>
      </trkpt>
      <trkpt lat="44.021720" lon="3.302930">
        <ele>489.000000</ele>
      </trkpt>
      <trkpt lat="44.021940" lon="3.302950">
        <ele>489.000000</ele>
      </trkpt>
      <trkpt lat="44.022010" lon="3.302880">
        <ele>488.802338</ele>
      </trkpt>
      <trkpt lat="44.022210" lon="3.302210">
        <ele>488.010010</ele>
      </trkpt>
      <trkpt lat="44.022240" lon="3.302160">
        <ele>488.123749</ele>
        <time>2010-01-01T17:26:48Z</time>
      </trkpt>
      <trkpt lat="44.022520" lon="3.301890">
        <ele>487.950256</ele>
        <time>2010-01-01T17:27:02Z</time>
      </trkpt>
      <trkpt lat="44.023530" lon="3.301280">
        <ele>484.659393</ele>
        <time>2010-01-01T17:27:46Z</time>
      </trkpt>
      <trkpt lat="44.023610" lon="3.301190">
        <ele>484.531738</ele>
        <time>2010-01-01T17:27:50Z</time>
      </trkpt>
      <trkpt lat="44.023670" lon="3.301010">
        <ele>485.009308</ele>
        <time>2010-01-01T17:27:56Z</time>
      </trkpt>
      <trkpt lat="44.023680" lon="3.300390">
        <ele>489.626709</ele>
        <time>2010-01-01T17:28:14Z</time>
      </trkpt>
      <trkpt lat="44.023800" lon="3.300090">
        <ele>490.82</ele>
        <time>2010-01-01T17:28:23Z</time>
      </trkpt>
      <trkpt lat="44.025350" lon="3.298680">
        <ele>490.82</ele>
        <time>2010-01-01T17:29:38Z</time>
      </trkpt>
      <trkpt lat="44.026670" lon="3.297490">
        <ele>490.82</ele>
        <time>2010-01-01T17:30:41Z</time>
      </trkpt>
      <trkpt lat="44.027800" lon="3.296590">
        <ele>490.871063</ele>
        <time>2010-01-01T17:31:33Z</time>
      </trkpt>
      <trkpt lat="44.028490" lon="3.295890">
        <ele>489.55</ele>
        <time>2010-01-01T17:32:07Z</time>
      </trkpt>
      <trkpt lat="44.028930" lon="3.295370">
        <ele>488.07</ele>
        <time>2010-01-01T17:32:30Z</time>
      </trkpt>
      <trkpt lat="44.029180" lon="3.294990">
        <ele>488.07</ele>
        <time>2010-01-01T17:32:45Z</time>
      </trkpt>
      <trkpt lat="44.029370" lon="3.294530">
        <ele>488.07</ele>
        <time>2010-01-01T17:33:00Z</time>
      </trkpt>
      <trkpt lat="44.029410" lon="3.294290">
        <ele>488.605682</ele>
        <time>2010-01-01T17:33:07Z</time>
      </trkpt>
      <trkpt lat="44.029410" lon="3.294040">
        <ele>489.041931</ele>
        <time>2010-01-01T17:33:14Z</time>
      </trkpt>
      <trkpt lat="44.029310" lon="3.293550">
        <ele>490.45</ele>
        <time>2010-01-01T17:33:29Z</time>
      </trkpt>
      <trkpt lat="44.029290" lon="3.293220">
        <ele>490.45</ele>
        <time>2010-01-01T17:33:39Z</time>
      </trkpt>
      <trkpt lat="44.029480" lon="3.291250">
        <ele>495.96</ele>
        <time>2010-01-01T17:34:36Z</time>
      </trkpt>
      <trkpt lat="44.029560" lon="3.290810">
        <ele>500.425751</ele>
        <time>2010-01-01T17:34:49Z</time>
      </trkpt>
      <trkpt lat="44.029720" lon="3.290330">
        <ele>504.96</ele>
        <time>2010-01-01T17:35:04Z</time>
      </trkpt>
      <trkpt lat="44.030030" lon="3.289730">
        <ele>504.96</ele>
        <time>2010-01-01T17:35:25Z</time>
      </trkpt>
      <trkpt lat="44.030850" lon="3.288800">
        <ele>504.96</ele>
        <time>2010-01-01T17:36:08Z</time>
      </trkpt>
      <trkpt lat="44.031430" lon="3.287880">
        <ele>506.96</ele>
        <time>2010-01-01T17:36:43Z</time>
      </trkpt>
      <trkpt lat="44.031790" lon="3.287650">
        <ele>507.96</ele>
        <time>2010-01-01T17:36:59Z</time>
      </trkpt>
      <trkpt lat="44.032310" lon="3.287530">
        <ele>508.922638</ele>
        <time>2010-01-01T17:37:20Z</time>
      </trkpt>
      <trkpt lat="44.032730" lon="3.287600">
        <ele>510.69</ele>
        <time>2010-01-01T17:37:37Z</time>
      </trkpt>
      <trkpt lat="44.033090" lon="3.287810">
        <ele>510.69</ele>
        <time>2010-01-01T17:37:52Z</time>
      </trkpt>
      <trkpt lat="44.033490" lon="3.288230">
        <ele>511.69</ele>
        <time>2010-01-01T17:38:13Z</time>
      </trkpt>
      <trkpt lat="44.033710" lon="3.288562">
        <ele>512.26</ele>
        <time>2010-01-01T17:40:28Z</time>
      </trkpt>
      <trkpt lat="44.033953" lon="3.288927">
        <ele>512.49</ele>
        <time>2010-01-01T17:40:49Z</time>
      </trkpt>
      <trkpt lat="44.034294" lon="3.289148">
        <ele>514.20</ele>
        <time>2010-01-01T17:41:08Z</time>
      </trkpt>
      <trkpt lat="44.034708" lon="3.289266">
        <ele>515.32</ele>
        <time>2010-01-01T17:41:29Z</time>
      </trkpt>
      <trkpt lat="44.035282" lon="3.289266">
        <ele>515.32</ele>
        <time>2010-01-01T17:41:53Z</time>
      </trkpt>
      <trkpt lat="44.035606" lon="3.289331">
        <ele>515.32</ele>
        <time>2010-01-01T17:42:04Z</time>
      </trkpt>
      <trkpt lat="44.036500" lon="3.289890">
        <ele>516.83</ele>
        <time>2010-01-01T17:42:12Z</time>
      </trkpt>
      <trkpt lat="44.036910" lon="3.290390">
        <ele>517.96</ele>
        <time>2010-01-01T17:42:20Z</time>
      </trkpt>
      <trkpt lat="44.037190" lon="3.290920">
        <ele>517.96</ele>
        <time>2010-01-01T17:42:36Z</time>
      </trkpt>
      <trkpt lat="44.037361" lon="3.291037">
        <ele>517.96</ele>
        <time>2010-01-01T17:42:51Z</time>
      </trkpt>
      <trkpt lat="44.037670" lon="3.290860">
        <ele>518.30</ele>
        <time>2010-01-01T17:43:05Z</time>
      </trkpt>
      <trkpt lat="44.037774" lon="3.290673">
        <ele>519.97</ele>
        <time>2010-01-01T17:43:13Z</time>
      </trkpt>
      <trkpt lat="44.037930" lon="3.290120">
        <ele>522.23</ele>
        <time>2010-01-01T17:43:26Z</time>
      </trkpt>
      <trkpt lat="44.038100" lon="3.289830">
        <ele>522.29</ele>
        <time>2010-01-01T17:43:37Z</time>
      </trkpt>
      <trkpt lat="44.038290" lon="3.289750">
        <ele>523.03</ele>
        <time>2010-01-01T17:44:59Z</time>
      </trkpt>
      <trkpt lat="44.038500" lon="3.289830">
        <ele>522.29</ele>
        <time>2010-01-01T17:45:38Z</time>
      </trkpt>
      <trkpt lat="44.038770" lon="3.290240">
        <ele>522.29</ele>
        <time>2010-01-01T17:46:05Z</time>
      </trkpt>
      <trkpt lat="44.038860" lon="3.290720">
        <ele>522.29</ele>
        <time>2010-01-01T17:46:36Z</time>
      </trkpt>
      <trkpt lat="44.038870" lon="3.291230">
        <ele>522.087280</ele>
        <time>2010-01-01T17:47:04Z</time>
      </trkpt>
      <trkpt lat="44.038910" lon="3.291480">
        <ele>521.446411</ele>
        <time>2010-01-01T17:48:26Z</time>
      </trkpt>
      <trkpt lat="44.039060" lon="3.291900">
        <ele>521.217896</ele>
        <time>2010-01-01T17:49:17Z</time>
      </trkpt>
      <trkpt lat="44.039260" lon="3.292130">
        <ele>520.717224</ele>
        <time>2010-01-01T17:49:28Z</time>
      </trkpt>
      <trkpt lat="44.041090" lon="3.293450">
        <ele>515.272217</ele>
        <time>2010-01-01T17:49:35Z</time>
      </trkpt>
      <trkpt lat="44.041860" lon="3.294270">
        <ele>513.294373</ele>
        <time>2010-01-01T17:49:51Z</time>
      </trkpt>
      <trkpt lat="44.042490" lon="3.294620">
        <ele>511.037750</ele>
        <time>2010-01-01T17:50:01Z</time>
      </trkpt>
      <trkpt lat="44.043260" lon="3.294810">
        <ele>511.537506</ele>
        <time>2010-01-01T17:50:22Z</time>
      </trkpt>
      <trkpt lat="44.043900" lon="3.295170">
        <ele>510.430237</ele>
        <time>2010-01-01T17:50:34Z</time>
      </trkpt>
      <trkpt lat="44.045860" lon="3.295980">
        <ele>502.457764</ele>
        <time>2010-01-01T17:51:24Z</time>
      </trkpt>
      <trkpt lat="44.046455" lon="3.296300">
        <ele>499.96</ele>
        <time>2010-01-01T17:53:17Z</time>
      </trkpt>
      <trkpt lat="44.046743" lon="3.296365">
        <ele>498.32</ele>
        <time>2010-01-01T17:53:33Z</time>
      </trkpt>
      <trkpt lat="44.047050" lon="3.296290">
        <ele>499.96</ele>
        <time>2010-01-01T17:54:11Z</time>
      </trkpt>
      <trkpt lat="44.047237" lon="3.296261">
        <ele>498.32</ele>
        <time>2010-01-01T17:54:30Z</time>
      </trkpt>
      <trkpt lat="44.047310" lon="3.296420">
        <ele>497.72</ele>
        <time>2010-01-01T17:54:52Z</time>
      </trkpt>
      <trkpt lat="44.047370" lon="3.296650">
        <ele>497.72</ele>
        <time>2010-01-01T17:56:54Z</time>
      </trkpt>
      <trkpt lat="44.047300" lon="3.297190">
        <ele>492.90</ele>
        <time>2010-01-01T17:59:50Z</time>
      </trkpt>
      <trkpt lat="44.047300" lon="3.297540">
        <ele>492.90</ele>
        <time>2010-01-01T18:00:06Z</time>
      </trkpt>
      <trkpt lat="44.047540" lon="3.298190">
        <ele>492.90</ele>
        <time>2010-01-01T18:01:59Z</time>
      </trkpt>
      <trkpt lat="44.047730" lon="3.298510">
        <ele>492.90</ele>
        <time>2010-01-01T18:03:07Z</time>
      </trkpt>
      <trkpt lat="44.048298" lon="3.298880">
        <ele>492.90</ele>
        <time>2010-01-01T18:03:13Z</time>
      </trkpt>
      <trkpt lat="44.048720" lon="3.299530">
        <ele>492.90</ele>
        <time>2010-01-01T18:04:14Z</time>
      </trkpt>
      <trkpt lat="44.049179" lon="3.299883">
        <ele>492.90</ele>
        <time>2010-01-01T18:04:26Z</time>
      </trkpt>
      <trkpt lat="44.049799" lon="3.300312">
        <ele>493.250214</ele>
        <time>2010-01-01T18:05:10Z</time>
      </trkpt>
      <trkpt lat="44.051350" lon="3.300910">
        <ele>489.639374</ele>
        <time>2010-01-01T18:05:44Z</time>
      </trkpt>
      <trkpt lat="44.051750" lon="3.300990">
        <ele>487.694733</ele>
        <time>2010-01-01T18:06:04Z</time>
      </trkpt>
      <trkpt lat="44.052690" lon="3.301040">
        <ele>486.095093</ele>
        <time>2010-01-01T18:07:16Z</time>
      </trkpt>
      <trkpt lat="44.053150" lon="3.301160">
        <ele>485.561798</ele>
        <time>2010-01-01T18:07:32Z</time>
      </trkpt>
      <trkpt lat="44.053660" lon="3.301490">
        <ele>481.53</ele>
        <time>2010-01-01T18:07:49Z</time>
      </trkpt>
      <trkpt lat="44.054142" lon="3.302045">
        <ele>476.85</ele>
        <time>2010-01-01T18:08:36Z</time>
      </trkpt>
      <trkpt lat="44.054465" lon="3.302306">
        <ele>476.85</ele>
        <time>2010-01-01T18:09:08Z</time>
      </trkpt>
      <trkpt lat="44.054726" lon="3.302358">
        <ele>476.85</ele>
        <time>2010-01-01T18:09:18Z</time>
      </trkpt>
      <trkpt lat="44.055013" lon="3.302280">
        <ele>476.788788</ele>
        <time>2010-01-01T18:09:27Z</time>
      </trkpt>
      <trkpt lat="44.055301" lon="3.302071">
        <ele>476.85</ele>
        <time>2010-01-01T18:09:39Z</time>
      </trkpt>
      <trkpt lat="44.055660" lon="3.301550">
        <ele>476.85</ele>
        <time>2010-01-01T18:09:50Z</time>
      </trkpt>
      <trkpt lat="44.056010" lon="3.301020">
        <ele>476.911072</ele>
        <time>2010-01-01T18:10:39Z</time>
      </trkpt>
      <trkpt lat="44.056684" lon="3.300195">
        <ele>476.85</ele>
        <time>2010-01-01T18:10:58Z</time>
      </trkpt>
      <trkpt lat="44.057304" lon="3.299896">
        <ele>476.288116</ele>
        <time>2010-01-01T18:11:17Z</time>
      </trkpt>
      <trkpt lat="44.057911" lon="3.299687">
        <ele>476.076782</ele>
        <time>2010-01-01T18:11:54Z</time>
      </trkpt>
      <trkpt lat="44.058405" lon="3.299687">
        <ele>476.115540</ele>
        <time>2010-01-01T18:12:18Z</time>
      </trkpt>
      <trkpt lat="44.059250" lon="3.299974">
        <ele>475.20</ele>
        <time>2010-01-01T18:12:31Z</time>
      </trkpt>
      <trkpt lat="44.060110" lon="3.300490">
        <ele>473.20</ele>
        <time>2010-01-01T18:13:04Z</time>
      </trkpt>
      <trkpt lat="44.060500" lon="3.300560">
        <ele>471.20</ele>
        <time>2010-01-01T18:13:52Z</time>
      </trkpt>
      <trkpt lat="44.063300" lon="3.300160">
        <ele>470.20</ele>
        <time>2010-01-01T18:14:05Z</time>
      </trkpt>
      <trkpt lat="44.064890" lon="3.299280">
        <ele>469.58</ele>
        <time>2010-01-01T18:14:34Z</time>
      </trkpt>
      <trkpt lat="44.065000" lon="3.299150">
        <ele>469.58</ele>
        <time>2010-01-01T18:14:43Z</time>
      </trkpt>
      <trkpt lat="44.065558" lon="3.298150">
        <ele>469.58</ele>
        <time>2010-01-01T18:15:20Z</time>
      </trkpt>
      <trkpt lat="44.065960" lon="3.297530">
        <ele>469.58</ele>
        <time>2010-01-01T18:15:40Z</time>
      </trkpt>
      <trkpt lat="44.066090" lon="3.297130">
        <ele>469.77</ele>
        <time>2010-01-01T18:15:54Z</time>
      </trkpt>
      <trkpt lat="44.066380" lon="3.295650">
        <ele>478.304810</ele>
        <time>2010-01-01T18:16:09Z</time>
      </trkpt>
      <trkpt lat="44.066670" lon="3.294540">
        <ele>482.281982</ele>
        <time>2010-01-01T18:17:06Z</time>
      </trkpt>
      <trkpt lat="44.066850" lon="3.293890">
        <ele>484.226563</ele>
        <time>2010-01-01T18:17:25Z</time>
      </trkpt>
      <trkpt lat="44.067100" lon="3.293148">
        <ele>491.633209</ele>
        <time>2010-01-01T18:17:43Z</time>
      </trkpt>
      <trkpt lat="44.067406" lon="3.292718">
        <ele>491.929718</ele>
        <time>2010-01-01T18:18:00Z</time>
      </trkpt>
      <trkpt lat="44.067684" lon="3.292588">
        <ele>489.78</ele>
        <time>2010-01-01T18:18:19Z</time>
      </trkpt>
      <trkpt lat="44.068200" lon="3.292660">
        <ele>487.91</ele>
        <time>2010-01-01T18:18:43Z</time>
      </trkpt>
      <trkpt lat="44.068570" lon="3.292420">
        <ele>487.91</ele>
        <time>2010-01-01T18:19:21Z</time>
      </trkpt>
      <trkpt lat="44.068990" lon="3.292390">
        <ele>486.894409</ele>
        <time>2010-01-01T18:19:54Z</time>
      </trkpt>
      <trkpt lat="44.070140" lon="3.292760">
        <ele>483.122192</ele>
        <time>2010-01-01T18:20:19Z</time>
      </trkpt>
      <trkpt lat="44.070460" lon="3.293017">
        <ele>478.138611</ele>
        <time>2010-01-01T18:20:31Z</time>
      </trkpt>
      <trkpt lat="44.070830" lon="3.293340">
        <ele>474.53</ele>
        <time>2010-01-01T18:20:43Z</time>
      </trkpt>
      <trkpt lat="44.071070" lon="3.293260">
        <ele>474.53</ele>
        <time>2010-01-01T18:21:10Z</time>
      </trkpt>
      <trkpt lat="44.071210" lon="3.293010">
        <ele>474.53</ele>
        <time>2010-01-01T18:21:39Z</time>
      </trkpt>
      <trkpt lat="44.071290" lon="3.292620">
        <ele>471.366394</ele>
        <time>2010-01-01T18:21:48Z</time>
      </trkpt>
      <trkpt lat="44.071300" lon="3.292250">
        <ele>470.68</ele>
        <time>2010-01-01T18:22:01Z</time>
      </trkpt>
      <trkpt lat="44.071020" lon="3.290590">
        <ele>478.994446</ele>
        <time>2010-01-01T18:22:27Z</time>
      </trkpt>
      <trkpt lat="44.071030" lon="3.289910">
        <ele>479.07</ele>
        <time>2010-01-01T18:23:03Z</time>
      </trkpt>
      <trkpt lat="44.071230" lon="3.289330">
        <ele>474.466980</ele>
        <time>2010-01-01T18:23:31Z</time>
      </trkpt>
      <trkpt lat="44.071850" lon="3.288380">
        <ele>467.682465</ele>
        <time>2010-01-01T18:23:56Z</time>
      </trkpt>
      <trkpt lat="44.072360" lon="3.287900">
        <ele>464.895264</ele>
        <time>2010-01-01T18:24:08Z</time>
      </trkpt>
      <trkpt lat="44.072580" lon="3.287610">
        <ele>464.31</ele>
        <time>2010-01-01T18:26:00Z</time>
      </trkpt>
      <trkpt lat="44.073150" lon="3.286750">
        <ele>464.163910</ele>
        <time>2010-01-01T18:26:15Z</time>
      </trkpt>
      <trkpt lat="44.073830" lon="3.285400">
        <ele>462.929077</ele>
        <time>2010-01-01T18:26:32Z</time>
      </trkpt>
      <trkpt lat="44.074100" lon="3.285160">
        <ele>461.018097</ele>
        <time>2010-01-01T18:26:46Z</time>
      </trkpt>
      <trkpt lat="44.074319" lon="3.285045">
        <ele>460.945984</ele>
        <time>2010-01-01T18:27:47Z</time>
      </trkpt>
      <trkpt lat="44.074830" lon="3.285230">
        <ele>458.559814</ele>
        <time>2010-01-01T18:28:02Z</time>
      </trkpt>
      <trkpt lat="44.075040" lon="3.285210">
        <ele>457.205078</ele>
        <time>2010-01-01T18:28:50Z</time>
      </trkpt>
      <trkpt lat="44.075830" lon="3.284550">
        <ele>456.806641</ele>
        <time>2010-01-01T18:29:31Z</time>
      </trkpt>
      <trkpt lat="44.076240" lon="3.284120">
        <ele>454.958618</ele>
        <time>2010-01-01T18:30:07Z</time>
      </trkpt>
      <trkpt lat="44.076470" lon="3.283770">
        <ele>454.21</ele>
        <time>2010-01-01T18:30:27Z</time>
      </trkpt>
      <trkpt lat="44.076650" lon="3.283320">
        <ele>454.21</ele>
        <time>2010-01-01T18:30:44Z</time>
      </trkpt>
      <trkpt lat="44.077130" lon="3.281450">
        <ele>455.99</ele>
        <time>2010-01-01T18:32:01Z</time>
      </trkpt>
      <trkpt lat="44.077440" lon="3.280920">
        <ele>455.99</ele>
        <time>2010-01-01T18:32:32Z</time>
      </trkpt>
      <trkpt lat="44.077780" lon="3.280510">
        <ele>454.64</ele>
        <time>2010-01-01T18:32:52Z</time>
      </trkpt>
      <trkpt lat="44.078150" lon="3.280230">
        <ele>452.26</ele>
        <time>2010-01-01T18:33:13Z</time>
      </trkpt>
      <trkpt lat="44.078620" lon="3.280160">
        <ele>452.03</ele>
        <time>2010-01-01T18:34:50Z</time>
      </trkpt>
      <trkpt lat="44.079210" lon="3.279960">
        <ele>449.402679</ele>
        <time>2010-01-01T18:35:02Z</time>
      </trkpt>
      <trkpt lat="44.080090" lon="3.279530">
        <ele>449.133514</ele>
        <time>2010-01-01T18:35:12Z</time>
      </trkpt>
      <trkpt lat="44.080820" lon="3.278970">
        <ele>448.485687</ele>
        <time>2010-01-01T18:35:56Z</time>
      </trkpt>
      <trkpt lat="44.081300" lon="3.278440">
        <ele>447.283051</ele>
        <time>2010-01-01T18:36:47Z</time>
      </trkpt>
      <trkpt lat="44.081520" lon="3.278160">
        <ele>445.651978</ele>
        <time>2010-01-01T18:37:28Z</time>
      </trkpt>
      <trkpt lat="44.081710" lon="3.277810">
        <ele>445.341858</ele>
        <time>2010-01-01T18:37:57Z</time>
      </trkpt>
      <trkpt lat="44.081970" lon="3.276940">
        <ele>444.95</ele>
        <time>2010-01-01T18:38:12Z</time>
      </trkpt>
      <trkpt lat="44.082320" lon="3.276070">
        <ele>444.95</ele>
        <time>2010-01-01T18:38:21Z</time>
      </trkpt>
      <trkpt lat="44.082460" lon="3.275840">
        <ele>445.95</ele>
        <time>2010-01-01T18:38:35Z</time>
      </trkpt>
      <trkpt lat="44.082730" lon="3.275560">
        <ele>446.95</ele>
        <time>2010-01-01T18:38:45Z</time>
      </trkpt>
      <trkpt lat="44.083300" lon="3.275110">
        <ele>447.19</ele>
        <time>2010-01-01T18:39:19Z</time>
      </trkpt>
      <trkpt lat="44.084160" lon="3.274740">
        <ele>447.19</ele>
        <time>2010-01-01T18:40:08Z</time>
      </trkpt>
      <trkpt lat="44.084840" lon="3.274760">
        <ele>447.19</ele>
        <time>2010-01-01T18:40:21Z</time>
      </trkpt>
      <trkpt lat="44.085420" lon="3.275100">
        <ele>445.71</ele>
        <time>2010-01-01T18:40:35Z</time>
      </trkpt>
      <trkpt lat="44.085680" lon="3.275330">
        <ele>444.61</ele>
        <time>2010-01-01T18:41:36Z</time>
      </trkpt>
      <trkpt lat="44.086503" lon="3.276369">
        <ele>444.07</ele>
        <time>2010-01-01T18:42:02Z</time>
      </trkpt>
      <trkpt lat="44.086773" lon="3.276551">
        <ele>444.07</ele>
        <time>2010-01-01T18:42:58Z</time>
      </trkpt>
      <trkpt lat="44.086926" lon="3.276499">
        <ele>444.07</ele>
        <time>2010-01-01T18:43:36Z</time>
      </trkpt>
      <trkpt lat="44.087186" lon="3.276069">
        <ele>444.07</ele>
        <time>2010-01-01T18:43:48Z</time>
      </trkpt>
      <trkpt lat="44.087483" lon="3.275040">
        <ele>443.84</ele>
        <time>2010-01-01T18:44:12Z</time>
      </trkpt>
      <trkpt lat="44.087480" lon="3.275040">
        <ele>443.84</ele>
        <time>2010-01-01T18:44:33Z</time>
      </trkpt>
      <trkpt lat="44.087540" lon="3.274550">
        <ele>443.84</ele>
        <time>2010-01-01T18:44:56Z</time>
      </trkpt>
      <trkpt lat="44.087560" lon="3.273960">
        <ele>443.050629</ele>
        <time>2010-01-01T18:45:20Z</time>
      </trkpt>
      <trkpt lat="44.087530" lon="3.273460">
        <ele>443.811218</ele>
        <time>2010-01-01T18:45:50Z</time>
      </trkpt>
      <trkpt lat="44.087270" lon="3.271380">
        <ele>443.50</ele>
        <time>2010-01-01T18:46:01Z</time>
      </trkpt>
      <trkpt lat="44.087240" lon="3.270860">
        <ele>440.36</ele>
        <time>2010-01-01T18:46:12Z</time>
      </trkpt>
      <trkpt lat="44.087430" lon="3.269200">
        <ele>439.43</ele>
        <time>2010-01-01T18:46:49Z</time>
      </trkpt>
      <trkpt lat="44.087890" lon="3.267920">
        <ele>439.43</ele>
        <time>2010-01-01T18:47:47Z</time>
      </trkpt>
      <trkpt lat="44.088380" lon="3.266900">
        <ele>439.43</ele>
        <time>2010-01-01T18:48:38Z</time>
      </trkpt>
      <trkpt lat="44.088710" lon="3.266370">
        <ele>438.94</ele>
        <time>2010-01-01T18:49:00Z</time>
      </trkpt>
      <trkpt lat="44.089030" lon="3.265960">
        <ele>437.90</ele>
        <time>2010-01-01T18:49:24Z</time>
      </trkpt>
      <trkpt lat="44.090580" lon="3.264360">
        <ele>437.90</ele>
        <time>2010-01-01T18:49:42Z</time>
      </trkpt>
      <trkpt lat="44.091130" lon="3.263600">
        <ele>437.90</ele>
        <time>2010-01-01T18:49:54Z</time>
      </trkpt>
      <trkpt lat="44.091550" lon="3.263240">
        <ele>436.094696</ele>
        <time>2010-01-01T18:50:15Z</time>
      </trkpt>
      <trkpt lat="44.091900" lon="3.262700">
        <ele>435.66</ele>
        <time>2010-01-01T18:50:39Z</time>
      </trkpt>
      <trkpt lat="44.093071" lon="3.261427">
        <ele>437.02</ele>
        <time>2010-01-01T18:51:08Z</time>
      </trkpt>
      <trkpt lat="44.093359" lon="3.261336">
        <ele>439.780914</ele>
        <time>2010-01-01T18:51:37Z</time>
      </trkpt>
      <trkpt lat="44.093655" lon="3.261401">
        <ele>439.64</ele>
        <time>2010-01-01T18:51:50Z</time>
      </trkpt>
      <trkpt lat="44.093970" lon="3.261670">
        <ele>439.64</ele>
        <time>2010-01-01T18:52:04Z</time>
      </trkpt>
      <trkpt lat="44.094210" lon="3.261920">
        <ele>439.64</ele>
        <time>2010-01-01T18:52:15Z</time>
      </trkpt>
      <trkpt lat="44.094380" lon="3.262190">
        <ele>437.56</ele>
        <time>2010-01-01T18:52:58Z</time>
      </trkpt>
      <trkpt lat="44.094780" lon="3.263620">
        <ele>436.26</ele>
        <time>2010-01-01T18:53:10Z</time>
      </trkpt>
      <trkpt lat="44.095040" lon="3.265330">
        <ele>434.11</ele>
        <time>2010-01-01T18:53:34Z</time>
      </trkpt>
      <trkpt lat="44.095330" lon="3.266720">
        <ele>432.08</ele>
        <time>2010-01-01T18:53:42Z</time>
      </trkpt>
      <trkpt lat="44.095410" lon="3.267720">
        <ele>432.08</ele>
        <time>2010-01-01T18:53:56Z</time>
      </trkpt>
      <trkpt lat="44.095550" lon="3.268220">
        <ele>432.08</ele>
        <time>2010-01-01T18:54:13Z</time>
      </trkpt>
      <trkpt lat="44.095690" lon="3.268460">
        <ele>433.22</ele>
        <time>2010-01-01T18:54:21Z</time>
      </trkpt>
      <trkpt lat="44.095950" lon="3.268790">
        <ele>432.466766</ele>
        <time>2010-01-01T18:54:29Z</time>
      </trkpt>
      <trkpt lat="44.096160" lon="3.268950">
        <ele>432.52</ele>
        <time>2010-01-01T18:54:51Z</time>
      </trkpt>
      <trkpt lat="44.096980" lon="3.269300">
        <ele>433.53</ele>
        <time>2010-01-01T18:55:48Z</time>
      </trkpt>
      <trkpt lat="44.097471" lon="3.269100">
        <ele>434.43</ele>
        <time>2010-01-01T18:57:30Z</time>
      </trkpt>
      <trkpt lat="44.098130" lon="3.268770">
        <ele>434.43</ele>
        <time>2010-01-01T18:57:46Z</time>
      </trkpt>
      <trkpt lat="44.098410" lon="3.268530">
        <ele>434.13</ele>
        <time>2010-01-01T18:57:56Z</time>
      </trkpt>
      <trkpt lat="44.098660" lon="3.268210">
        <ele>434.43</ele>
        <time>2010-01-01T18:58:24Z</time>
      </trkpt>
      <trkpt lat="44.099550" lon="3.266490">
        <ele>434.43</ele>
        <time>2010-01-01T18:59:21Z</time>
      </trkpt>
      <trkpt lat="44.099790" lon="3.265630">
        <ele>434.43</ele>
        <time>2010-01-01T19:04:35Z</time>
      </trkpt>
      <trkpt lat="44.100170" lon="3.263780">
        <ele>434.43</ele>
        <time>2010-01-01T19:05:05Z</time>
      </trkpt>
      <trkpt lat="44.100670" lon="3.262630">
        <ele>434.203949</ele>
        <time>2010-01-01T19:05:16Z</time>
      </trkpt>
      <trkpt lat="44.100890" lon="3.262350">
        <ele>434.119781</ele>
        <time>2010-01-01T19:06:25Z</time>
      </trkpt>
      <trkpt lat="44.101410" lon="3.261930">
        <ele>434.26</ele>
        <time>2010-01-01T19:07:07Z</time>
      </trkpt>
      <trkpt lat="44.101900" lon="3.261760">
        <ele>434.26</ele>
        <time>2010-01-01T19:07:40Z</time>
      </trkpt>
      <trkpt lat="44.102480" lon="3.261710">
        <ele>435.05</ele>
        <time>2010-01-01T19:08:26Z</time>
      </trkpt>
      <trkpt lat="44.103090" lon="3.261760">
        <ele>435.17</ele>
        <time>2010-01-01T19:08:42Z</time>
      </trkpt>
      <trkpt lat="44.103820" lon="3.261970">
        <ele>434.17</ele>
        <time>2010-01-01T19:08:57Z</time>
      </trkpt>
      <trkpt lat="44.104070" lon="3.262090">
        <ele>433.17</ele>
        <time>2010-01-01T19:09:28Z</time>
      </trkpt>
      <trkpt lat="44.104310" lon="3.262300">
        <ele>432.17</ele>
        <time>2010-01-01T19:09:52Z</time>
      </trkpt>
      <trkpt lat="44.104990" lon="3.263180">
        <ele>431.27</ele>
        <time>2010-01-01T19:12:03Z</time>
      </trkpt>
      <trkpt lat="44.105283" lon="3.263212">
        <ele>430.54</ele>
        <time>2010-01-01T19:12:36Z</time>
      </trkpt>
      <trkpt lat="44.105526" lon="3.263016">
        <ele>429.44</ele>
        <time>2010-01-01T19:13:03Z</time>
      </trkpt>
      <trkpt lat="44.106110" lon="3.262240">
        <ele>430.129639</ele>
        <time>2010-01-01T19:13:23Z</time>
      </trkpt>
      <trkpt lat="44.106316" lon="3.261662">
        <ele>432.344421</ele>
        <time>2010-01-01T19:14:29Z</time>
      </trkpt>
      <trkpt lat="44.106577" lon="3.261271">
        <ele>434.465149</ele>
        <time>2010-01-01T19:14:45Z</time>
      </trkpt>
      <trkpt lat="44.106800" lon="3.260750">
        <ele>436.050201</ele>
        <time>2010-01-01T19:15:11Z</time>
      </trkpt>
      <trkpt lat="44.107150" lon="3.260150">
        <ele>438.883301</ele>
        <time>2010-01-01T19:15:27Z</time>
      </trkpt>
      <trkpt lat="44.107490" lon="3.259450">
        <ele>439.472229</ele>
        <time>2010-01-01T19:15:51Z</time>
      </trkpt>
      <trkpt lat="44.107790" lon="3.259010">
        <ele>439.116638</ele>
        <time>2010-01-01T19:16:02Z</time>
      </trkpt>
      <trkpt lat="44.108030" lon="3.258760">
        <ele>438.311676</ele>
        <time>2010-01-01T19:16:21Z</time>
      </trkpt>
      <trkpt lat="44.108520" lon="3.258430">
        <ele>437.238586</ele>
        <time>2010-01-01T19:16:38Z</time>
      </trkpt>
      <trkpt lat="44.109080" lon="3.258170">
        <ele>433.58</ele>
        <time>2010-01-01T19:17:20Z</time>
      </trkpt>
      <trkpt lat="44.109780" lon="3.257940">
        <ele>433.58</ele>
        <time>2010-01-01T19:17:51Z</time>
      </trkpt>
      <trkpt lat="44.110470" lon="3.257590">
        <ele>433.58</ele>
        <time>2010-01-01T19:18:27Z</time>
      </trkpt>
      <trkpt lat="44.110740" lon="3.257340">
        <ele>433.58</ele>
        <time>2010-01-01T19:25:06Z</time>
      </trkpt>
      <trkpt lat="44.110940" lon="3.256940">
        <ele>433.58</ele>
        <time>2010-01-01T19:25:27Z</time>
      </trkpt>
      <trkpt lat="44.111020" lon="3.256570">
        <ele>433.02</ele>
        <time>2010-01-01T19:25:41Z</time>
      </trkpt>
      <trkpt lat="44.111190" lon="3.255090">
        <ele>433.02</ele>
        <time>2010-01-01T19:26:52Z</time>
      </trkpt>
      <trkpt lat="44.111350" lon="3.254740">
        <ele>433.02</ele>
        <time>2010-01-01T19:27:07Z</time>
      </trkpt>
      <trkpt lat="44.111740" lon="3.254110">
        <ele>433.02</ele>
        <time>2010-01-01T19:27:19Z</time>
      </trkpt>
      <trkpt lat="44.111840" lon="3.253870">
        <ele>430.871338</ele>
        <time>2010-01-01T19:28:03Z</time>
      </trkpt>
      <trkpt lat="44.111950" lon="3.253430">
        <ele>430.234161</ele>
        <time>2010-01-01T19:28:40Z</time>
      </trkpt>
      <trkpt lat="44.112010" lon="3.252840">
        <ele>428.345947</ele>
        <time>2010-01-01T19:29:15Z</time>
      </trkpt>
      <trkpt lat="44.111990" lon="3.252560">
        <ele>426.77</ele>
        <time>2010-01-01T19:29:43Z</time>
      </trkpt>
      <trkpt lat="44.111880" lon="3.252300">
        <ele>426.50</ele>
        <time>2010-01-01T19:29:54Z</time>
      </trkpt>
      <trkpt lat="44.111510" lon="3.251770">
        <ele>425.54</ele>
        <time>2010-01-01T19:30:29Z</time>
      </trkpt>
      <trkpt lat="44.111343" lon="3.251318">
        <ele>424.64</ele>
        <time>2010-01-01T19:31:08Z</time>
      </trkpt>
      <trkpt lat="44.111784" lon="3.250797">
        <ele>422.00</ele>
        <time>2010-01-01T19:31:34Z</time>
      </trkpt>
      <trkpt lat="44.111900" lon="3.250080">
        <ele>421.06</ele>
        <time>2010-01-01T19:34:27Z</time>
      </trkpt>
      <trkpt lat="44.112026" lon="3.249794">
        <ele>420.99</ele>
        <time>2010-01-01T19:34:45Z</time>
      </trkpt>
      <trkpt lat="44.112395" lon="3.249625">
        <ele>419.23</ele>
        <time>2010-01-01T19:35:39Z</time>
      </trkpt>
      <trkpt lat="44.114360" lon="3.249620">
        <ele>418.29</ele>
        <time>2010-01-01T19:36:07Z</time>
      </trkpt>
      <trkpt lat="44.114740" lon="3.249500">
        <ele>418.29</ele>
        <time>2010-01-01T19:36:29Z</time>
      </trkpt>
      <trkpt lat="44.114940" lon="3.249290">
        <ele>418.29</ele>
        <time>2010-01-01T19:36:37Z</time>
      </trkpt>
      <trkpt lat="44.115430" lon="3.248570">
        <ele>419.65</ele>
        <time>2010-01-01T19:37:29Z</time>
      </trkpt>
      <trkpt lat="44.116480" lon="3.247260">
        <ele>419.65</ele>
        <time>2010-01-01T19:38:35Z</time>
      </trkpt>
      <trkpt lat="44.117009" lon="3.246655">
        <ele>419.65</ele>
        <time>2010-01-01T19:39:28Z</time>
      </trkpt>
      <trkpt lat="44.117647" lon="3.246199">
        <ele>419.65</ele>
        <time>2010-01-01T19:40:14Z</time>
      </trkpt>
      <trkpt lat="44.117970" lon="3.246095">
        <ele>419.65</ele>
        <time>2010-01-01T19:40:31Z</time>
      </trkpt>
      <trkpt lat="44.118743" lon="3.245990">
        <ele>419.65</ele>
        <time>2010-01-01T19:41:34Z</time>
      </trkpt>
      <trkpt lat="44.119354" lon="3.245756">
        <ele>418.11</ele>
        <time>2010-01-01T19:42:20Z</time>
      </trkpt>
      <trkpt lat="44.119558" lon="3.245521">
        <ele>418.11</ele>
        <time>2010-01-01T19:42:42Z</time>
      </trkpt>
      <trkpt lat="44.119729" lon="3.245104">
        <ele>418.11</ele>
        <time>2010-01-01T19:43:24Z</time>
      </trkpt>
      <trkpt lat="44.119972" lon="3.244075">
        <ele>418.11</ele>
        <time>2010-01-01T19:44:41Z</time>
      </trkpt>
      <trkpt lat="44.119954" lon="3.243463">
        <ele>418.11</ele>
        <time>2010-01-01T19:46:38Z</time>
      </trkpt>
      <trkpt lat="44.119801" lon="3.242668">
        <ele>417.11</ele>
        <time>2010-01-01T19:47:18Z</time>
      </trkpt>
      <trkpt lat="44.119621" lon="3.242147">
        <ele>416.11</ele>
        <time>2010-01-01T19:47:47Z</time>
      </trkpt>
      <trkpt lat="44.119325" lon="3.241613">
        <ele>415.11</ele>
        <time>2010-01-01T19:48:07Z</time>
      </trkpt>
      <trkpt lat="44.118380" lon="3.240260">
        <ele>414.48</ele>
        <time>2010-01-01T19:48:34Z</time>
      </trkpt>
      <trkpt lat="44.117980" lon="3.239370">
        <ele>413.18</ele>
        <time>2010-01-01T19:49:01Z</time>
      </trkpt>
      <trkpt lat="44.117910" lon="3.239010">
        <ele>412.39</ele>
        <time>2010-01-01T19:49:33Z</time>
      </trkpt>
      <trkpt lat="44.117921" lon="3.238669">
        <ele>411.36</ele>
        <time>2010-01-01T19:49:51Z</time>
      </trkpt>
      <trkpt lat="44.118137" lon="3.238226">
        <ele>410.47</ele>
        <time>2010-01-01T19:50:21Z</time>
      </trkpt>
      <trkpt lat="44.118900" lon="3.237080">
        <ele>409.20</ele>
        <time>2010-01-01T19:51:00Z</time>
      </trkpt>
      <trkpt lat="44.119380" lon="3.235770">
        <ele>408.82</ele>
        <time>2010-01-01T19:51:19Z</time>
      </trkpt>
      <trkpt lat="44.119610" lon="3.234680">
        <ele>408.82</ele>
        <time>2010-01-01T19:51:30Z</time>
      </trkpt>
      <trkpt lat="44.119830" lon="3.233090">
        <ele>408.24</ele>
        <time>2010-01-01T19:51:41Z</time>
      </trkpt>
      <trkpt lat="44.119970" lon="3.232590">
        <ele>408.58</ele>
        <time>2010-01-01T19:52:14Z</time>
      </trkpt>
      <trkpt lat="44.120160" lon="3.232130">
        <ele>408.58</ele>
        <time>2010-01-01T19:52:41Z</time>
      </trkpt>
      <trkpt lat="44.120730" lon="3.231410">
        <ele>409.58</ele>
        <time>2010-01-01T19:53:05Z</time>
      </trkpt>
      <trkpt lat="44.121220" lon="3.230930">
        <ele>409.58</ele>
        <time>2010-01-01T19:53:25Z</time>
      </trkpt>
      <trkpt lat="44.123652" lon="3.229394">
        <ele>410.27</ele>
        <time>2010-01-01T19:54:04Z</time>
      </trkpt>
      <trkpt lat="44.124160" lon="3.228920">
        <ele>410.27</ele>
        <time>2010-01-01T19:54:27Z</time>
      </trkpt>
      <trkpt lat="44.124780" lon="3.228180">
        <ele>410.27</ele>
        <time>2010-01-01T19:55:40Z</time>
      </trkpt>
      <trkpt lat="44.125070" lon="3.227350">
        <ele>410.27</ele>
        <time>2010-01-01T19:55:58Z</time>
      </trkpt>
      <trkpt lat="44.125210" lon="3.226660">
        <ele>410.12</ele>
        <time>2010-01-01T19:56:14Z</time>
      </trkpt>
      <trkpt lat="44.125120" lon="3.224380">
        <ele>410.12</ele>
        <time>2010-01-01T19:56:41Z</time>
      </trkpt>
      <trkpt lat="44.124970" lon="3.223850">
        <ele>409.69</ele>
        <time>2010-01-01T19:56:55Z</time>
      </trkpt>
      <trkpt lat="44.124540" lon="3.223180">
        <ele>409.69</ele>
        <time>2010-01-01T19:57:15Z</time>
      </trkpt>
      <trkpt lat="44.124330" lon="3.222700">
        <ele>409.69</ele>
        <time>2010-01-01T20:04:42Z</time>
      </trkpt>
      <trkpt lat="44.123760" lon="3.222510">
        <ele>408.93</ele>
        <time>2010-01-01T20:06:57Z</time>
      </trkpt>
      <trkpt lat="44.123550" lon="3.222260">
        <ele>408.93</ele>
        <time>2010-01-01T20:07:53Z</time>
      </trkpt>
      <trkpt lat="44.123310" lon="3.221660">
        <ele>407.93</ele>
        <time>2010-01-01T20:08:16Z</time>
      </trkpt>
      <trkpt lat="44.123180" lon="3.221130">
        <ele>406.93</ele>
        <time>2010-01-01T20:08:26Z</time>
      </trkpt>
      <trkpt lat="44.122940" lon="3.219680">
        <ele>405.88</ele>
        <time>2010-01-01T20:12:46Z</time>
      </trkpt>
      <trkpt lat="44.122530" lon="3.218790">
        <ele>405.88</ele>
        <time>2010-01-01T20:20:08Z</time>
      </trkpt>
      <trkpt lat="44.122090" lon="3.217670">
        <ele>403.21</ele>
        <time>2010-01-01T20:20:19Z</time>
      </trkpt>
      <trkpt lat="44.121815" lon="3.217175">
        <ele>402.08</ele>
        <time>2010-01-01T20:20:56Z</time>
      </trkpt>
      <trkpt lat="44.120989" lon="3.216250">
        <ele>402.68</ele>
        <time>2010-01-01T20:21:13Z</time>
      </trkpt>
      <trkpt lat="44.119983" lon="3.214582">
        <ele>401.87</ele>
        <time>2010-01-01T20:28:56Z</time>
      </trkpt>
      <trkpt lat="44.119839" lon="3.214218">
        <ele>401.358215</ele>
        <time>2010-01-01T20:29:01Z</time>
      </trkpt>
      <trkpt lat="44.119803" lon="3.213814">
        <ele>400.826202</ele>
        <time>2010-01-01T20:29:09Z</time>
      </trkpt>
      <trkpt lat="44.119821" lon="3.213423">
        <ele>399.142914</ele>
        <time>2010-01-01T20:30:38Z</time>
      </trkpt>
      <trkpt lat="44.119974" lon="3.213084">
        <ele>399.165741</ele>
        <time>2010-01-01T20:30:53Z</time>
      </trkpt>
      <trkpt lat="44.120468" lon="3.212615">
        <ele>397.90</ele>
        <time>2010-01-01T20:32:38Z</time>
      </trkpt>
      <trkpt lat="44.121487" lon="3.211925">
        <ele>397.90</ele>
        <time>2010-01-01T20:32:41Z</time>
      </trkpt>
      <trkpt lat="44.121721" lon="3.211704">
        <ele>397.90</ele>
        <time>2010-01-01T20:32:49Z</time>
      </trkpt>
      <trkpt lat="44.121973" lon="3.211195">
        <ele>396.90</ele>
        <time>2010-01-01T20:32:54Z</time>
      </trkpt>
      <trkpt lat="44.122053" lon="3.210818">
        <ele>396.90</ele>
        <time>2010-01-01T20:32:57Z</time>
      </trkpt>
      <trkpt lat="44.122062" lon="3.210271">
        <ele>396.90</ele>
        <time>2010-01-01T20:33:02Z</time>
      </trkpt>
      <trkpt lat="44.121973" lon="3.208955">
        <ele>396.90</ele>
        <time>2010-01-01T20:33:15Z</time>
      </trkpt>
      <trkpt lat="44.121470" lon="3.206730">
        <ele>395.90</ele>
        <time>2010-01-01T20:33:19Z</time>
      </trkpt>
      <trkpt lat="44.121410" lon="3.205990">
        <ele>395.90</ele>
        <time>2010-01-01T20:33:48Z</time>
      </trkpt>
      <trkpt lat="44.121470" lon="3.205520">
        <ele>395.90</ele>
        <time>2010-01-01T20:34:54Z</time>
      </trkpt>
      <trkpt lat="44.122240" lon="3.203290">
        <ele>394.90</ele>
        <time>2010-01-01T20:34:58Z</time>
      </trkpt>
      <trkpt lat="44.122360" lon="3.202810">
        <ele>394.90</ele>
        <time>2010-01-01T20:35:03Z</time>
      </trkpt>
      <trkpt lat="44.122400" lon="3.202390">
        <ele>394.90</ele>
        <time>2010-01-01T20:36:45Z</time>
      </trkpt>
      <trkpt lat="44.122420" lon="3.200850">
        <ele>394.90</ele>
        <time>2010-01-01T20:37:01Z</time>
      </trkpt>
      <trkpt lat="44.122520" lon="3.199560">
        <ele>394.90</ele>
        <time>2010-01-01T20:37:16Z</time>
      </trkpt>
      <trkpt lat="44.122640" lon="3.198380">
        <ele>394.90</ele>
        <time>2010-01-01T20:37:25Z</time>
      </trkpt>
      <trkpt lat="44.122810" lon="3.197410">
        <ele>393.90</ele>
        <time>2010-01-01T20:37:38Z</time>
      </trkpt>
      <trkpt lat="44.122830" lon="3.197050">
        <ele>393.90</ele>
        <time>2010-01-01T20:37:41Z</time>
      </trkpt>
      <trkpt lat="44.122720" lon="3.195850">
        <ele>393.90</ele>
        <time>2010-01-01T20:37:53Z</time>
      </trkpt>
      <trkpt lat="44.122330" lon="3.194580">
        <ele>392.90</ele>
        <time>2010-01-01T20:37:56Z</time>
      </trkpt>
      <trkpt lat="44.121980" lon="3.193830">
        <ele>392.90</ele>
        <time>2010-01-01T20:38:00Z</time>
      </trkpt>
      <trkpt lat="44.121062" lon="3.192241">
        <ele>392.90</ele>
        <time>2010-01-01T20:38:55Z</time>
      </trkpt>
      <trkpt lat="44.120874" lon="3.191772">
        <ele>391.33</ele>
        <time>2010-01-01T20:39:02Z</time>
      </trkpt>
      <trkpt lat="44.120838" lon="3.191421">
        <ele>391.87</ele>
        <time>2010-01-01T20:39:09Z</time>
      </trkpt>
      <trkpt lat="44.120946" lon="3.190965">
        <ele>391.87</ele>
        <time>2010-01-01T20:39:16Z</time>
      </trkpt>
      <trkpt lat="44.121269" lon="3.189988">
        <ele>391.87</ele>
        <time>2010-01-01T20:39:30Z</time>
      </trkpt>
      <trkpt lat="44.121377" lon="3.189467">
        <ele>391.87</ele>
        <time>2010-01-01T20:39:33Z</time>
      </trkpt>
      <trkpt lat="44.121377" lon="3.188946">
        <ele>390.87</ele>
        <time>2010-01-01T20:40:07Z</time>
      </trkpt>
      <trkpt lat="44.121300" lon="3.188440">
        <ele>390.87</ele>
        <time>2010-01-01T20:40:17Z</time>
      </trkpt>
      <trkpt lat="44.121130" lon="3.187860">
        <ele>390.87</ele>
        <time>2010-01-01T20:42:31Z</time>
      </trkpt>
      <trkpt lat="44.120430" lon="3.186250">
        <ele>390.87</ele>
        <time>2010-01-01T20:43:43Z</time>
      </trkpt>
      <trkpt lat="44.120210" lon="3.185360">
        <ele>390.87</ele>
        <time>2010-01-01T20:43:55Z</time>
      </trkpt>
      <trkpt lat="44.120100" lon="3.184610">
        <ele>390.87</ele>
        <time>2010-01-01T20:43:59Z</time>
      </trkpt>
      <trkpt lat="44.120020" lon="3.184340">
        <ele>390.87</ele>
        <time>2010-01-01T20:44:03Z</time>
      </trkpt>
      <trkpt lat="44.119320" lon="3.182830">
        <ele>389.79</ele>
        <time>2010-01-01T20:44:16Z</time>
      </trkpt>
      <trkpt lat="44.118230" lon="3.181080">
        <ele>389.79</ele>
        <time>2010-01-01T20:44:38Z</time>
      </trkpt>
      <trkpt lat="44.117560" lon="3.179510">
        <ele>389.79</ele>
        <time>2010-01-01T20:44:47Z</time>
      </trkpt>
      <trkpt lat="44.117261" lon="3.178954">
        <ele>389.79</ele>
        <time>2010-01-01T20:45:04Z</time>
      </trkpt>
      <trkpt lat="44.116680" lon="3.178490">
        <ele>389.79</ele>
        <time>2010-01-01T20:45:12Z</time>
      </trkpt>
      <trkpt lat="44.116370" lon="3.178070">
        <ele>389.79</ele>
        <time>2010-01-01T20:45:44Z</time>
      </trkpt>
      <trkpt lat="44.115480" lon="3.176250">
        <ele>389.79</ele>
        <time>2010-01-01T20:46:32Z</time>
      </trkpt>
      <trkpt lat="44.114910" lon="3.174870">
        <ele>389.79</ele>
        <time>2010-01-01T20:46:49Z</time>
      </trkpt>
      <trkpt lat="44.114700" lon="3.174160">
        <ele>389.00</ele>
        <time>2010-01-01T20:47:12Z</time>
      </trkpt>
      <trkpt lat="44.114470" lon="3.172750">
        <ele>389.00</ele>
        <time>2010-01-01T20:47:55Z</time>
      </trkpt>
      <trkpt lat="44.114380" lon="3.170050">
        <ele>389.00</ele>
        <time>2010-01-01T20:48:11Z</time>
      </trkpt>
      <trkpt lat="44.113862" lon="3.168063">
        <ele>389.00</ele>
        <time>2010-01-01T20:48:22Z</time>
      </trkpt>
      <trkpt lat="44.113548" lon="3.167503">
        <ele>389.00</ele>
        <time>2010-01-01T20:49:50Z</time>
      </trkpt>
      <trkpt lat="44.113225" lon="3.167191">
        <ele>389.00</ele>
        <time>2010-01-01T20:49:54Z</time>
      </trkpt>
      <trkpt lat="44.112720" lon="3.167050">
        <ele>389.00</ele>
        <time>2010-01-01T20:49:57Z</time>
      </trkpt>
      <trkpt lat="44.111820" lon="3.166430">
        <ele>389.00</ele>
        <time>2010-01-01T20:50:05Z</time>
      </trkpt>
      <trkpt lat="44.111340" lon="3.165700">
        <ele>388.63</ele>
        <time>2010-01-01T20:50:41Z</time>
      </trkpt>
      <trkpt lat="44.110970" lon="3.165240">
        <ele>388.63</ele>
        <time>2010-01-01T20:51:07Z</time>
      </trkpt>
      <trkpt lat="44.110550" lon="3.164500">
        <ele>388.63</ele>
        <time>2010-01-01T20:51:32Z</time>
      </trkpt>
      <trkpt lat="44.110220" lon="3.163660">
        <ele>387.55</ele>
        <time>2010-01-01T20:51:49Z</time>
      </trkpt>
      <trkpt lat="44.109800" lon="3.162740">
        <ele>387.065979</ele>
        <time>2010-01-01T20:52:20Z</time>
      </trkpt>
      <trkpt lat="44.109500" lon="3.162260">
        <ele>386.92</ele>
        <time>2010-01-01T20:52:38Z</time>
      </trkpt>
      <trkpt lat="44.108940" lon="3.161560">
        <ele>386.39</ele>
        <time>2010-01-01T20:52:59Z</time>
      </trkpt>
      <trkpt lat="44.108360" lon="3.160460">
        <ele>386.39</ele>
        <time>2010-01-01T20:53:17Z</time>
      </trkpt>
      <trkpt lat="44.108140" lon="3.159900">
        <ele>386.39</ele>
        <time>2010-01-01T20:53:27Z</time>
      </trkpt>
      <trkpt lat="44.108030" lon="3.159540">
        <ele>386.39</ele>
        <time>2010-01-01T20:54:01Z</time>
      </trkpt>
      <trkpt lat="44.108000" lon="3.159160">
        <ele>386.39</ele>
        <time>2010-01-01T20:56:03Z</time>
      </trkpt>
      <trkpt lat="44.108340" lon="3.158100">
        <ele>385.40</ele>
        <time>2010-01-01T20:56:17Z</time>
      </trkpt>
      <trkpt lat="44.108370" lon="3.157180">
        <ele>385.40</ele>
        <time>2010-01-01T20:57:26Z</time>
      </trkpt>
      <trkpt lat="44.108290" lon="3.156350">
        <ele>385.40</ele>
        <time>2010-01-01T20:58:23Z</time>
      </trkpt>
      <trkpt lat="44.108080" lon="3.155710">
        <ele>385.40</ele>
        <time>2010-01-01T20:58:35Z</time>
      </trkpt>
      <trkpt lat="44.107500" lon="3.154610">
        <ele>385.40</ele>
        <time>2010-01-01T20:58:54Z</time>
      </trkpt>
      <trkpt lat="44.107200" lon="3.153940">
        <ele>384.84</ele>
        <time>2010-01-01T20:59:32Z</time>
      </trkpt>
      <trkpt lat="44.106340" lon="3.151690">
        <ele>384.84</ele>
        <time>2010-01-01T20:59:53Z</time>
      </trkpt>
      <trkpt lat="44.106170" lon="3.151120">
        <ele>384.84</ele>
        <time>2010-01-01T21:00:16Z</time>
      </trkpt>
      <trkpt lat="44.106060" lon="3.150580">
        <ele>384.84</ele>
        <time>2010-01-01T21:00:37Z</time>
      </trkpt>
      <trkpt lat="44.105950" lon="3.149640">
        <ele>384.84</ele>
        <time>2010-01-01T21:01:32Z</time>
      </trkpt>
      <trkpt lat="44.105950" lon="3.149180">
        <ele>384.00</ele>
        <time>2010-01-01T21:01:56Z</time>
      </trkpt>
      <trkpt lat="44.106010" lon="3.148470">
        <ele>384.00</ele>
        <time>2010-01-01T21:02:17Z</time>
      </trkpt>
      <trkpt lat="44.106262" lon="3.147233">
        <ele>384.00</ele>
        <time>2010-01-01T21:02:30Z</time>
      </trkpt>
      <trkpt lat="44.106693" lon="3.145787">
        <ele>384.00</ele>
        <time>2010-01-01T21:02:46Z</time>
      </trkpt>
      <trkpt lat="44.107909" lon="3.143299">
        <ele>384.00</ele>
        <time>2010-01-01T21:03:09Z</time>
      </trkpt>
      <trkpt lat="44.109293" lon="3.140785">
        <ele>383.50</ele>
        <time>2010-01-01T21:04:06Z</time>
      </trkpt>
      <trkpt lat="44.109374" lon="3.140512">
        <ele>383.50</ele>
        <time>2010-01-01T21:04:33Z</time>
      </trkpt>
      <trkpt lat="44.109356" lon="3.140134">
        <ele>383.50</ele>
        <time>2010-01-01T21:04:50Z</time>
      </trkpt>
      <trkpt lat="44.109191" lon="3.139561">
        <ele>383.50</ele>
        <time>2010-01-01T21:05:09Z</time>
      </trkpt>
      <trkpt lat="44.109120" lon="3.138870">
        <ele>383.00</ele>
        <time>2010-01-01T21:05:42Z</time>
      </trkpt>
      <trkpt lat="44.108994" lon="3.138466">
        <ele>383.00</ele>
        <time>2010-01-01T21:06:06Z</time>
      </trkpt>
      <trkpt lat="44.108769" lon="3.138232">
        <ele>383.00</ele>
        <time>2010-01-01T21:07:01Z</time>
      </trkpt>
      <trkpt lat="44.108186" lon="3.138102">
        <ele>383.00</ele>
        <time>2010-01-01T21:07:13Z</time>
      </trkpt>
      <trkpt lat="44.107997" lon="3.137815">
        <ele>382.26</ele>
        <time>2010-01-01T21:07:31Z</time>
      </trkpt>
      <trkpt lat="44.107916" lon="3.137489">
        <ele>381.81</ele>
        <time>2010-01-01T21:08:01Z</time>
      </trkpt>
      <trkpt lat="44.108051" lon="3.137046">
        <ele>380.45</ele>
        <time>2010-01-01T21:08:30Z</time>
      </trkpt>
      <trkpt lat="44.108840" lon="3.135720">
        <ele>379.67</ele>
        <time>2010-01-01T21:09:05Z</time>
      </trkpt>
      <trkpt lat="44.109617" lon="3.133568">
        <ele>375.67</ele>
        <time>2010-01-01T21:10:40Z</time>
      </trkpt>
      <trkpt lat="44.109698" lon="3.133099">
        <ele>375.67</ele>
        <time>2010-01-01T21:10:54Z</time>
      </trkpt>
      <trkpt lat="44.109510" lon="3.131340">
        <ele>375.00</ele>
        <time>2010-01-01T21:11:36Z</time>
      </trkpt>
      <trkpt lat="44.109185" lon="3.130220">
        <ele>375.00</ele>
        <time>2010-01-01T21:11:49Z</time>
      </trkpt>
      <trkpt lat="44.108910" lon="3.129580">
        <ele>374.73</ele>
        <time>2010-01-01T21:12:24Z</time>
      </trkpt>
      <trkpt lat="44.108520" lon="3.128960">
        <ele>374.73</ele>
        <time>2010-01-01T21:12:52Z</time>
      </trkpt>
      <trkpt lat="44.108330" lon="3.128760">
        <ele>374.00</ele>
        <time>2010-01-01T21:13:32Z</time>
      </trkpt>
      <trkpt lat="44.108018" lon="3.128566">
        <ele>374.00</ele>
        <time>2010-01-01T21:13:58Z</time>
      </trkpt>
      <trkpt lat="44.106975" lon="3.128410">
        <ele>373.00</ele>
        <time>2010-01-01T21:15:35Z</time>
      </trkpt>
      <trkpt lat="44.105582" lon="3.128540">
        <ele>373.00</ele>
        <time>2010-01-01T21:16:11Z</time>
      </trkpt>
      <trkpt lat="44.104833" lon="3.128839">
        <ele>372.00</ele>
        <time>2010-01-01T21:18:32Z</time>
      </trkpt>
      <trkpt lat="44.103746" lon="3.129543">
        <ele>372.00</ele>
        <time>2010-01-01T21:18:48Z</time>
      </trkpt>
      <trkpt lat="44.103288" lon="3.129673">
        <ele>371.13</ele>
        <time>2010-01-01T21:19:08Z</time>
      </trkpt>
      <trkpt lat="44.102910" lon="3.129595">
        <ele>371.13</ele>
        <time>2010-01-01T21:19:25Z</time>
      </trkpt>
      <trkpt lat="44.102326" lon="3.129152">
        <ele>371.13</ele>
        <time>2010-01-01T21:20:46Z</time>
      </trkpt>
      <trkpt lat="44.102200" lon="3.128900">
        <ele>370.00</ele>
        <time>2010-01-01T21:21:06Z</time>
      </trkpt>
      <trkpt lat="44.101949" lon="3.128097">
        <ele>369.93</ele>
        <time>2010-01-01T21:21:36Z</time>
      </trkpt>
      <trkpt lat="44.101156" lon="3.123485">
        <ele>362.05</ele>
        <time>2010-01-01T21:22:14Z</time>
      </trkpt>
      <trkpt lat="44.101192" lon="3.122573">
        <ele>362.05</ele>
        <time>2010-01-01T21:23:07Z</time>
      </trkpt>
      <trkpt lat="44.101118" lon="3.121049">
        <ele>362.05</ele>
        <time>2010-01-01T21:23:38Z</time>
      </trkpt>
      <trkpt lat="44.101172" lon="3.119304">
        <ele>362.05</ele>
        <time>2010-01-01T21:24:40Z</time>
      </trkpt>
      <trkpt lat="44.101315" lon="3.117232">
        <ele>363.05</ele>
        <time>2010-01-01T21:25:19Z</time>
      </trkpt>
      <trkpt lat="44.101510" lon="3.116451">
        <ele>364.05</ele>
        <time>2010-01-01T21:25:29Z</time>
      </trkpt>
      <trkpt lat="44.101537" lon="3.116099">
        <ele>364.05</ele>
        <time>2010-01-01T21:26:26Z</time>
      </trkpt>
      <trkpt lat="44.101411" lon="3.115617">
        <ele>364.05</ele>
        <time>2010-01-01T21:27:15Z</time>
      </trkpt>
      <trkpt lat="44.100998" lon="3.114875">
        <ele>363.05</ele>
        <time>2010-01-01T21:27:34Z</time>
      </trkpt>
      <trkpt lat="44.100530" lon="3.114370">
        <ele>362.87</ele>
        <time>2010-01-01T21:27:48Z</time>
      </trkpt>
      <trkpt lat="44.100330" lon="3.114070">
        <ele>362.04</ele>
        <time>2010-01-01T21:27:55Z</time>
      </trkpt>
      <trkpt lat="44.100050" lon="3.112870">
        <ele>361.68</ele>
        <time>2010-01-01T21:28:08Z</time>
      </trkpt>
      <trkpt lat="44.100030" lon="3.112260">
        <ele>361.84</ele>
        <time>2010-01-01T21:28:54Z</time>
      </trkpt>
      <trkpt lat="44.100072" lon="3.111852">
        <ele>361.50</ele>
        <time>2010-01-01T21:29:18Z</time>
      </trkpt>
      <trkpt lat="44.100225" lon="3.111006">
        <ele>361.50</ele>
        <time>2010-01-01T21:29:35Z</time>
      </trkpt>
      <trkpt lat="44.100484" lon="3.107606">
        <ele>361.00</ele>
        <time>2010-01-01T21:30:19Z</time>
      </trkpt>
      <trkpt lat="44.100609" lon="3.105117">
        <ele>361.00</ele>
        <time>2010-01-01T21:30:37Z</time>
      </trkpt>
      <trkpt lat="44.101006" lon="3.099294">
        <ele>361.00</ele>
        <time>2010-01-01T21:30:50Z</time>
      </trkpt>
      <trkpt lat="44.101100" lon="3.097640">
        <ele>361.00</ele>
        <time>2010-01-01T21:31:23Z</time>
      </trkpt>
      <trkpt lat="44.101510" lon="3.096360">
        <ele>361.00</ele>
        <time>2010-01-01T21:32:09Z</time>
      </trkpt>
      <trkpt lat="44.101590" lon="3.096220">
        <ele>361.00</ele>
        <time>2010-01-01T21:32:30Z</time>
      </trkpt>
      <trkpt lat="44.101630" lon="3.095950">
        <ele>361.00</ele>
        <time>2010-01-01T21:33:03Z</time>
      </trkpt>
      <trkpt lat="44.101809" lon="3.095269">
        <ele>361.00</ele>
        <time>2010-01-01T21:33:29Z</time>
      </trkpt>
      <trkpt lat="44.101908" lon="3.094579">
        <ele>361.00</ele>
        <time>2010-01-01T21:34:06Z</time>
      </trkpt>
      <trkpt lat="44.102050" lon="3.092910">
        <ele>361.00</ele>
        <time>2010-01-01T21:34:22Z</time>
      </trkpt>
      <trkpt lat="44.102130" lon="3.092420">
        <ele>361.00</ele>
        <time>2010-01-01T21:35:20Z</time>
      </trkpt>
      <trkpt lat="44.102425" lon="3.091986">
        <ele>361.00</ele>
        <time>2010-01-01T21:35:45Z</time>
      </trkpt>
      <trkpt lat="44.103134" lon="3.090410">
        <ele>361.00</ele>
        <time>2010-01-01T21:36:03Z</time>
      </trkpt>
      <trkpt lat="44.103250" lon="3.089941">
        <ele>361.00</ele>
        <time>2010-01-01T21:36:25Z</time>
      </trkpt>
      <trkpt lat="44.103260" lon="3.089310">
        <ele>361.00</ele>
        <time>2010-01-01T21:36:36Z</time>
      </trkpt>
      <trkpt lat="44.103300" lon="3.089210">
        <ele>361.00</ele>
        <time>2010-01-01T21:36:46Z</time>
      </trkpt>
      <trkpt lat="44.103480" lon="3.089130">
        <ele>361.00</ele>
        <time>2010-01-01T21:36:56Z</time>
      </trkpt>
      <trkpt lat="44.103540" lon="3.088980">
        <ele>361.00</ele>
        <time>2010-01-01T21:37:02Z</time>
      </trkpt>
      <trkpt lat="44.103540" lon="3.088850">
        <ele>361.00</ele>
        <time>2010-01-01T21:37:11Z</time>
      </trkpt>
      <trkpt lat="44.103480" lon="3.088700">
        <ele>361.00</ele>
        <time>2010-01-01T21:37:36Z</time>
      </trkpt>
      <trkpt lat="44.103160" lon="3.088600">
        <ele>361.00</ele>
        <time>2010-01-01T21:38:38Z</time>
      </trkpt>
      <trkpt lat="44.103090" lon="3.088530">
        <ele>361.00</ele>
        <time>2010-01-01T21:39:45Z</time>
      </trkpt>
      <trkpt lat="44.102640" lon="3.087720">
        <ele>361.00</ele>
        <time>2010-01-01T21:40:00Z</time>
      </trkpt>
      <trkpt lat="44.102037" lon="3.087075">
        <ele>361.00</ele>
        <time>2010-01-01T21:40:21Z</time>
      </trkpt>
      <trkpt lat="44.101880" lon="3.085860">
        <ele>362.00</ele>
        <time>2010-01-01T21:41:27Z</time>
      </trkpt>
      <trkpt lat="44.101910" lon="3.085730">
        <ele>362.00</ele>
        <time>2010-01-01T21:41:36Z</time>
      </trkpt>
      <trkpt lat="44.101830" lon="3.085590">
        <ele>362.00</ele>
        <time>2010-01-01T21:41:44Z</time>
      </trkpt>
      <trkpt lat="44.101470" lon="3.082070">
        <ele>363.97</ele>
        <time>2010-01-01T21:42:36Z</time>
      </trkpt>
      <trkpt lat="44.101250" lon="3.081600">
        <ele>364.23</ele>
        <time>2010-01-01T21:43:08Z</time>
      </trkpt>
      <trkpt lat="44.100960" lon="3.081300">
        <ele>364.23</ele>
        <time>2010-01-01T21:43:36Z</time>
      </trkpt>
      <trkpt lat="44.100730" lon="3.081220">
        <ele>364.92</ele>
        <time>2010-01-01T21:44:15Z</time>
      </trkpt>
      <trkpt lat="44.100410" lon="3.081200">
        <ele>365.00</ele>
        <time>2010-01-01T21:44:32Z</time>
      </trkpt>
      <trkpt lat="44.100350" lon="3.081120">
        <ele>366.00</ele>
        <time>2010-01-01T21:44:39Z</time>
      </trkpt>
      <trkpt lat="44.100060" lon="3.081100">
        <ele>366.00</ele>
        <time>2010-01-01T21:45:25Z</time>
      </trkpt>
      <trkpt lat="44.100010" lon="3.081020">
        <ele>366.00</ele>
        <time>2010-01-01T21:46:07Z</time>
      </trkpt>
      <trkpt lat="44.099920" lon="3.080990">
        <ele>366.00</ele>
        <time>2010-01-01T21:48:11Z</time>
      </trkpt>
      <trkpt lat="44.099660" lon="3.079100">
        <ele>367.00</ele>
        <time>2010-01-01T21:48:30Z</time>
      </trkpt>
      <trkpt lat="44.099770" lon="3.078920">
        <ele>368.03</ele>
        <time>2010-01-01T21:49:04Z</time>
      </trkpt>
      <trkpt lat="44.099840" lon="3.078700">
        <ele>368.03</ele>
        <time>2010-01-01T21:49:57Z</time>
      </trkpt>
      <trkpt lat="44.099780" lon="3.078480">
        <ele>368.03</ele>
        <time>2010-01-01T21:50:15Z</time>
      </trkpt>
      <trkpt lat="44.099640" lon="3.078334">
        <ele>368.03</ele>
        <time>2010-01-01T21:51:09Z</time>
      </trkpt>
      <trkpt lat="44.099470" lon="3.078300">
        <ele>368.03</ele>
        <time>2010-01-01T21:51:50Z</time>
      </trkpt>
      <trkpt lat="44.099400" lon="3.078240">
        <ele>369.41</ele>
        <time>2010-01-01T21:52:18Z</time>
      </trkpt>
      <trkpt lat="44.099000" lon="3.077180">
        <ele>370.312988</ele>
        <time>2010-01-01T21:52:44Z</time>
      </trkpt>
      <trkpt lat="44.098790" lon="3.077010">
        <ele>369.99</ele>
        <time>2010-01-01T21:53:53Z</time>
      </trkpt>
      <trkpt lat="44.098491" lon="3.076836">
        <ele>369.60</ele>
        <time>2010-01-01T21:55:32Z</time>
      </trkpt>
      <trkpt lat="44.096424" lon="3.076641">
        <ele>365.13</ele>
        <time>2010-01-01T21:55:53Z</time>
      </trkpt>
      <trkpt lat="44.095470" lon="3.076520">
        <ele>363.94</ele>
        <time>2010-01-01T21:56:06Z</time>
      </trkpt>
      <trkpt lat="44.094520" lon="3.074400">
        <ele>363.94</ele>
        <time>2010-01-01T21:56:29Z</time>
      </trkpt>
      <trkpt lat="44.094420" lon="3.074010">
        <ele>362.07</ele>
        <time>2010-01-01T21:57:14Z</time>
      </trkpt>
      <trkpt lat="44.094430" lon="3.073880">
        <ele>362.35</ele>
        <time>2010-01-01T21:58:17Z</time>
      </trkpt>
      <trkpt lat="44.094340" lon="3.073790">
        <ele>362.111237</ele>
        <time>2010-01-01T21:58:25Z</time>
      </trkpt>
      <trkpt lat="44.094270" lon="3.073350">
        <ele>362.652496</ele>
        <time>2010-01-01T21:58:39Z</time>
      </trkpt>
      <trkpt lat="44.093870" lon="3.072820">
        <ele>361.83</ele>
        <time>2010-01-01T21:58:49Z</time>
      </trkpt>
      <trkpt lat="44.093660" lon="3.072710">
        <ele>360.890015</ele>
        <time>2010-01-01T21:59:01Z</time>
      </trkpt>
      <trkpt lat="44.093250" lon="3.072640">
        <ele>359.532501</ele>
        <time>2010-01-01T22:00:03Z</time>
      </trkpt>
      <trkpt lat="44.093080" lon="3.072490">
        <ele>359.149994</ele>
        <time>2010-01-01T22:00:11Z</time>
      </trkpt>
      <trkpt lat="44.092720" lon="3.071480">
        <ele>358.729065</ele>
        <time>2010-01-01T22:00:27Z</time>
      </trkpt>
      <trkpt lat="44.091960" lon="3.070200">
        <ele>358.625000</ele>
        <time>2010-01-01T22:00:52Z</time>
      </trkpt>
      <trkpt lat="44.091750" lon="3.069660">
        <ele>358.15</ele>
        <time>2010-01-01T22:00:59Z</time>
      </trkpt>
      <trkpt lat="44.091570" lon="3.068900">
        <ele>358.15</ele>
        <time>2010-01-01T22:01:30Z</time>
      </trkpt>
      <trkpt lat="44.091280" lon="3.067480">
        <ele>358.000000</ele>
        <time>2010-01-01T22:02:02Z</time>
      </trkpt>
      <trkpt lat="44.091260" lon="3.066990">
        <ele>358.000000</ele>
        <time>2010-01-01T22:02:40Z</time>
      </trkpt>
      <trkpt lat="44.091290" lon="3.066590">
        <ele>358.00</ele>
        <time>2010-01-01T22:03:07Z</time>
      </trkpt>
      <trkpt lat="44.091447" lon="3.065985">
        <ele>357.75</ele>
        <time>2010-01-01T22:03:52Z</time>
      </trkpt>
      <trkpt lat="44.092560" lon="3.064140">
        <ele>367.56</ele>
        <time>2010-01-01T22:04:38Z</time>
      </trkpt>
      <trkpt lat="44.092650" lon="3.064070">
        <ele>370.21</ele>
        <time>2010-01-01T22:06:11Z</time>
      </trkpt>
      <trkpt lat="44.092630" lon="3.063940">
        <ele>371.36</ele>
        <time>2010-01-01T22:06:26Z</time>
      </trkpt>
      <trkpt lat="44.092460" lon="3.063800">
        <ele>371.36</ele>
        <time>2010-01-01T22:06:40Z</time>
      </trkpt>
      <trkpt lat="44.091890" lon="3.062830">
        <ele>371.36</ele>
        <time>2010-01-01T22:08:01Z</time>
      </trkpt>
      <trkpt lat="44.091400" lon="3.062250">
        <ele>371.36</ele>
        <time>2010-01-01T22:08:21Z</time>
      </trkpt>
      <trkpt lat="44.090860" lon="3.061820">
        <ele>371.36</ele>
        <time>2010-01-01T22:09:05Z</time>
      </trkpt>
      <trkpt lat="44.090470" lon="3.061630">
        <ele>371.36</ele>
        <time>2010-01-01T22:09:21Z</time>
      </trkpt>
      <trkpt lat="44.089680" lon="3.061530">
        <ele>371.99</ele>
        <time>2010-01-01T22:10:06Z</time>
      </trkpt>
      <trkpt lat="44.089270" lon="3.061320">
        <ele>371.99</ele>
        <time>2010-01-01T22:10:21Z</time>
      </trkpt>
      <trkpt lat="44.088930" lon="3.060770">
        <ele>371.99</ele>
        <time>2010-01-01T22:10:36Z</time>
      </trkpt>
      <trkpt lat="44.088790" lon="3.060190">
        <ele>371.99</ele>
        <time>2010-01-01T22:11:04Z</time>
      </trkpt>
      <trkpt lat="44.088770" lon="3.059840">
        <ele>371.99</ele>
        <time>2010-01-01T22:11:34Z</time>
      </trkpt>
      <trkpt lat="44.088880" lon="3.058650">
        <ele>371.99</ele>
        <time>2010-01-01T22:12:13Z</time>
      </trkpt>
      <trkpt lat="44.089640" lon="3.054540">
        <ele>372.22</ele>
        <time>2010-01-01T22:12:34Z</time>
      </trkpt>
      <trkpt lat="44.089800" lon="3.054120">
        <ele>371.35</ele>
        <time>2010-01-01T22:13:14Z</time>
      </trkpt>
      <trkpt lat="44.090750" lon="3.052110">
        <ele>366.864319</ele>
        <time>2010-01-01T22:13:53Z</time>
      </trkpt>
      <trkpt lat="44.091630" lon="3.050570">
        <ele>366.59</ele>
        <time>2010-01-01T22:14:59Z</time>
      </trkpt>
      <trkpt lat="44.091790" lon="3.050190">
        <ele>366.59</ele>
        <time>2010-01-01T22:15:25Z</time>
      </trkpt>
      <trkpt lat="44.091960" lon="3.049590">
        <ele>366.59</ele>
        <time>2010-01-01T22:15:47Z</time>
      </trkpt>
      <trkpt lat="44.092170" lon="3.048310">
        <ele>367.60</ele>
        <time>2010-01-01T22:16:21Z</time>
      </trkpt>
      <trkpt lat="44.092180" lon="3.047580">
        <ele>367.953186</ele>
        <time>2010-01-01T22:18:34Z</time>
      </trkpt>
      <trkpt lat="44.092110" lon="3.046780">
        <ele>367.75</ele>
        <time>2010-01-01T22:19:54Z</time>
      </trkpt>
      <trkpt lat="44.091980" lon="3.046050">
        <ele>364.433044</ele>
        <time>2010-01-01T22:20:21Z</time>
      </trkpt>
      <trkpt lat="44.091570" lon="3.044250">
        <ele>357.54</ele>
        <time>2010-01-01T22:21:00Z</time>
      </trkpt>
      <trkpt lat="44.091430" lon="3.043410">
        <ele>357.54</ele>
        <time>2010-01-01T22:21:38Z</time>
      </trkpt>
      <trkpt lat="44.091400" lon="3.042700">
        <ele>357.54</ele>
        <time>2010-01-01T22:21:49Z</time>
      </trkpt>
      <trkpt lat="44.091440" lon="3.042250">
        <ele>358.119720</ele>
        <time>2010-01-01T22:22:08Z</time>
      </trkpt>
      <trkpt lat="44.091550" lon="3.041720">
        <ele>359.442322</ele>
        <time>2010-01-01T22:22:29Z</time>
      </trkpt>
      <trkpt lat="44.091860" lon="3.041050">
        <ele>360.818756</ele>
        <time>2010-01-01T22:23:09Z</time>
      </trkpt>
      <trkpt lat="44.092850" lon="3.039620">
        <ele>362.018341</ele>
        <time>2010-01-01T22:24:08Z</time>
      </trkpt>
      <trkpt lat="44.093300" lon="3.038900">
        <ele>360.97</ele>
        <time>2010-01-01T22:24:41Z</time>
      </trkpt>
      <trkpt lat="44.093550" lon="3.038420">
        <ele>361.75</ele>
        <time>2010-01-01T22:25:28Z</time>
      </trkpt>
      <trkpt lat="44.093780" lon="3.037840">
        <ele>361.75</ele>
        <time>2010-01-01T22:26:35Z</time>
      </trkpt>
      <trkpt lat="44.094070" lon="3.036770">
        <ele>361.678009</ele>
        <time>2010-01-01T22:26:51Z</time>
      </trkpt>
      <trkpt lat="44.094170" lon="3.035970">
        <ele>360.413879</ele>
        <time>2010-01-01T22:27:08Z</time>
      </trkpt>
      <trkpt lat="44.094330" lon="3.034040">
        <ele>358.92</ele>
        <time>2010-01-01T22:27:22Z</time>
      </trkpt>
      <trkpt lat="44.094300" lon="3.033640">
        <ele>358.92</ele>
        <time>2010-01-01T22:27:42Z</time>
      </trkpt>
      <trkpt lat="44.094170" lon="3.033050">
        <ele>358.67</ele>
        <time>2010-01-01T22:27:55Z</time>
      </trkpt>
      <trkpt lat="44.093850" lon="3.032090">
        <ele>361.71</ele>
        <time>2010-01-01T22:28:07Z</time>
      </trkpt>
      <trkpt lat="44.093420" lon="3.031280">
        <ele>361.71</ele>
        <time>2010-01-01T22:28:18Z</time>
      </trkpt>
      <trkpt lat="44.092780" lon="3.030460">
        <ele>361.71</ele>
        <time>2010-01-01T22:29:00Z</time>
      </trkpt>
      <trkpt lat="44.090770" lon="3.028720">
        <ele>361.71</ele>
        <time>2010-01-01T22:29:16Z</time>
      </trkpt>
      <trkpt lat="44.090430" lon="3.028520">
        <ele>361.71</ele>
        <time>2010-01-01T22:30:06Z</time>
      </trkpt>
      <trkpt lat="44.089440" lon="3.028080">
        <ele>361.71</ele>
        <time>2010-01-01T22:30:20Z</time>
      </trkpt>
      <trkpt lat="44.089160" lon="3.027880">
        <ele>361.00</ele>
        <time>2010-01-01T22:30:35Z</time>
      </trkpt>
      <trkpt lat="44.088400" lon="3.027230">
        <ele>361.00</ele>
        <time>2010-01-01T22:30:57Z</time>
      </trkpt>
      <trkpt lat="44.087860" lon="3.026640">
        <ele>361.00</ele>
        <time>2010-01-01T22:31:09Z</time>
      </trkpt>
      <trkpt lat="44.087200" lon="3.025570">
        <ele>361.00</ele>
        <time>2010-01-01T22:31:15Z</time>
      </trkpt>
      <trkpt lat="44.086870" lon="3.024800">
        <ele>357.81</ele>
        <time>2010-01-01T22:31:46Z</time>
      </trkpt>
      <trkpt lat="44.085820" lon="3.021770">
        <ele>357.76</ele>
        <time>2010-01-01T22:31:59Z</time>
      </trkpt>
      <trkpt lat="44.085500" lon="3.020600">
        <ele>357.76</ele>
        <time>2010-01-01T22:32:41Z</time>
      </trkpt>
      <trkpt lat="44.084490" lon="3.015910">
        <ele>356.478760</ele>
        <time>2010-01-01T22:32:51Z</time>
      </trkpt>
      <trkpt lat="44.084440" lon="3.015330">
        <ele>355.385956</ele>
        <time>2010-01-01T22:33:53Z</time>
      </trkpt>
      <trkpt lat="44.084470" lon="3.014660">
        <ele>353.962097</ele>
        <time>2010-01-01T22:39:55Z</time>
      </trkpt>
      <trkpt lat="44.084560" lon="3.014090">
        <ele>352.779541</ele>
        <time>2010-01-01T22:40:17Z</time>
      </trkpt>
      <trkpt lat="44.085170" lon="3.011400">
        <ele>350.55</ele>
        <time>2010-01-01T22:40:43Z</time>
      </trkpt>
      <trkpt lat="44.085350" lon="3.010720">
        <ele>350.55</ele>
        <time>2010-01-01T22:41:21Z</time>
      </trkpt>
      <trkpt lat="44.085670" lon="3.009810">
        <ele>349.55</ele>
        <time>2010-01-01T22:42:18Z</time>
      </trkpt>
      <trkpt lat="44.086220" lon="3.008700">
        <ele>349.55</ele>
        <time>2010-01-01T22:42:42Z</time>
      </trkpt>
      <trkpt lat="44.087060" lon="3.007280">
        <ele>349.55</ele>
        <time>2010-01-01T22:43:25Z</time>
      </trkpt>
      <trkpt lat="44.087670" lon="3.006650">
        <ele>349.55</ele>
        <time>2010-01-01T22:43:42Z</time>
      </trkpt>
      <trkpt lat="44.089020" lon="3.005560">
        <ele>349.00</ele>
        <time>2010-01-01T22:43:50Z</time>
      </trkpt>
      <trkpt lat="44.089790" lon="3.004760">
        <ele>349.00</ele>
        <time>2010-01-01T22:44:24Z</time>
      </trkpt>
      <trkpt lat="44.089970" lon="3.004500">
        <ele>349.00</ele>
        <time>2010-01-01T22:45:02Z</time>
      </trkpt>
      <trkpt lat="44.090760" lon="3.002830">
        <ele>348.00</ele>
        <time>2010-01-01T22:45:29Z</time>
      </trkpt>
      <trkpt lat="44.091320" lon="3.001340">
        <ele>348.00</ele>
        <time>2010-01-01T22:45:40Z</time>
      </trkpt>
      <trkpt lat="44.091470" lon="3.000720">
        <ele>348.00</ele>
        <time>2010-01-01T22:45:57Z</time>
      </trkpt>
      <trkpt lat="44.091530" lon="3.000210">
        <ele>348.00</ele>
        <time>2010-01-01T22:46:12Z</time>
      </trkpt>
      <trkpt lat="44.091520" lon="3.000000">
        <ele>348.00</ele>
        <time>2010-01-01T22:46:40Z</time>
      </trkpt>
      <trkpt lat="44.091370" lon="2.999580">
        <ele>348.00</ele>
        <time>2010-01-01T22:46:59Z</time>
      </trkpt>
      <trkpt lat="44.090660" lon="2.998310">
        <ele>348.00</ele>
        <time>2010-01-01T22:47:17Z</time>
      </trkpt>
      <trkpt lat="44.090210" lon="2.997780">
        <ele>348.00</ele>
        <time>2010-01-01T22:48:13Z</time>
      </trkpt>
      <trkpt lat="44.089850" lon="2.997430">
        <ele>348.00</ele>
        <time>2010-01-01T22:48:51Z</time>
      </trkpt>
      <trkpt lat="44.088920" lon="2.996620">
        <ele>348.00</ele>
        <time>2010-01-01T22:49:20Z</time>
      </trkpt>
      <trkpt lat="44.088590" lon="2.996210">
        <ele>347.00</ele>
        <time>2010-01-01T22:49:59Z</time>
      </trkpt>
      <trkpt lat="44.088420" lon="2.995810">
        <ele>347.00</ele>
        <time>2010-01-01T22:50:35Z</time>
      </trkpt>
      <trkpt lat="44.088170" lon="2.994730">
        <ele>347.00</ele>
        <time>2010-01-01T22:50:54Z</time>
      </trkpt>
      <trkpt lat="44.087730" lon="2.993260">
        <ele>347.00</ele>
        <time>2010-01-01T22:51:40Z</time>
      </trkpt>
      <trkpt lat="44.087480" lon="2.992620">
        <ele>347.00</ele>
        <time>2010-01-01T22:52:03Z</time>
      </trkpt>
      <trkpt lat="44.086990" lon="2.991710">
        <ele>347.00</ele>
        <time>2010-01-01T22:52:34Z</time>
      </trkpt>
      <trkpt lat="44.086550" lon="2.991030">
        <ele>347.00</ele>
        <time>2010-01-01T22:53:09Z</time>
      </trkpt>
      <trkpt lat="44.085840" lon="2.990200">
        <ele>347.00</ele>
        <time>2010-01-01T22:53:19Z</time>
      </trkpt>
      <trkpt lat="44.085570" lon="2.989800">
        <ele>347.00</ele>
        <time>2010-01-01T22:53:24Z</time>
      </trkpt>
      <trkpt lat="44.084680" lon="2.988180">
        <ele>348.00</ele>
        <time>2010-01-01T22:53:32Z</time>
      </trkpt>
      <trkpt lat="44.084270" lon="2.987520">
        <ele>348.00</ele>
        <time>2010-01-01T22:54:01Z</time>
      </trkpt>
      <trkpt lat="44.084060" lon="2.986980">
        <ele>348.00</ele>
        <time>2010-01-01T22:54:46Z</time>
      </trkpt>
      <trkpt lat="44.083950" lon="2.986240">
        <ele>348.00</ele>
        <time>2010-01-01T22:55:19Z</time>
      </trkpt>
      <trkpt lat="44.083980" lon="2.985840">
        <ele>348.00</ele>
        <time>2010-01-01T22:55:37Z</time>
      </trkpt>
      <trkpt lat="44.084080" lon="2.985550">
        <ele>348.00</ele>
        <time>2010-01-01T22:56:01Z</time>
      </trkpt>
      <trkpt lat="44.084280" lon="2.985350">
        <ele>348.00</ele>
        <time>2010-01-01T22:56:17Z</time>
      </trkpt>
      <trkpt lat="44.084450" lon="2.985310">
        <ele>348.00</ele>
        <time>2010-01-01T22:56:43Z</time>
      </trkpt>
      <trkpt lat="44.084670" lon="2.985330">
        <ele>348.00</ele>
        <time>2010-01-01T22:56:59Z</time>
      </trkpt>
      <trkpt lat="44.085270" lon="2.985550">
        <ele>349.00</ele>
        <time>2010-01-01T22:57:19Z</time>
      </trkpt>
      <trkpt lat="44.086740" lon="2.986210">
        <ele>349.00</ele>
        <time>2010-01-01T22:57:48Z</time>
      </trkpt>
      <trkpt lat="44.088410" lon="2.986450">
        <ele>349.00</ele>
        <time>2010-01-01T22:58:20Z</time>
      </trkpt>
      <trkpt lat="44.088790" lon="2.986400">
        <ele>349.00</ele>
        <time>2010-01-01T22:58:27Z</time>
      </trkpt>
      <trkpt lat="44.089290" lon="2.986250">
        <ele>349.00</ele>
        <time>2010-01-01T22:58:36Z</time>
      </trkpt>
      <trkpt lat="44.090900" lon="2.985690">
        <ele>349.00</ele>
        <time>2010-01-01T22:58:39Z</time>
      </trkpt>
      <trkpt lat="44.091110" lon="2.985590">
        <ele>349.00</ele>
        <time>2010-01-01T22:59:11Z</time>
      </trkpt>
      <trkpt lat="44.091280" lon="2.985430">
        <ele>348.00</ele>
        <time>2010-01-01T22:59:33Z</time>
      </trkpt>
      <trkpt lat="44.092180" lon="2.984130">
        <ele>348.00</ele>
        <time>2010-01-01T22:59:56Z</time>
      </trkpt>
      <trkpt lat="44.092680" lon="2.983290">
        <ele>347.00</ele>
        <time>2010-01-01T23:00:19Z</time>
      </trkpt>
      <trkpt lat="44.093050" lon="2.982430">
        <ele>347.00</ele>
        <time>2010-01-01T23:01:07Z</time>
      </trkpt>
      <trkpt lat="44.093460" lon="2.981210">
        <ele>346.00</ele>
        <time>2010-01-01T23:02:49Z</time>
      </trkpt>
      <trkpt lat="44.093580" lon="2.980660">
        <ele>346.00</ele>
        <time>2010-01-01T23:03:19Z</time>
      </trkpt>
      <trkpt lat="44.093600" lon="2.980400">
        <ele>345.00</ele>
        <time>2010-01-01T23:03:48Z</time>
      </trkpt>
      <trkpt lat="44.093480" lon="2.978820">
        <ele>345.00</ele>
        <time>2010-01-01T23:04:27Z</time>
      </trkpt>
      <trkpt lat="44.093500" lon="2.977370">
        <ele>344.00</ele>
        <time>2010-01-01T23:05:34Z</time>
      </trkpt>
      <trkpt lat="44.093780" lon="2.973060">
        <ele>343.54</ele>
        <time>2010-01-01T23:06:05Z</time>
      </trkpt>
      <trkpt lat="44.093750" lon="2.972400">
        <ele>342.70</ele>
        <time>2010-01-01T23:07:01Z</time>
      </trkpt>
      <trkpt lat="44.093610" lon="2.971230">
        <ele>341.80</ele>
        <time>2010-01-01T23:07:46Z</time>
      </trkpt>
      <trkpt lat="44.093130" lon="2.969510">
        <ele>341.80</ele>
        <time>2010-01-01T23:08:18Z</time>
      </trkpt>
      <trkpt lat="44.092900" lon="2.969000">
        <ele>341.80</ele>
        <time>2010-01-01T23:08:36Z</time>
      </trkpt>
      <trkpt lat="44.091980" lon="2.967620">
        <ele>341.80</ele>
        <time>2010-01-01T23:08:47Z</time>
      </trkpt>
      <trkpt lat="44.091160" lon="2.966760">
        <ele>341.80</ele>
        <time>2010-01-01T23:09:13Z</time>
      </trkpt>
      <trkpt lat="44.090560" lon="2.966230">
        <ele>341.80</ele>
        <time>2010-01-01T23:09:35Z</time>
      </trkpt>
      <trkpt lat="44.089940" lon="2.965940">
        <ele>341.80</ele>
        <time>2010-01-01T23:09:54Z</time>
      </trkpt>
      <trkpt lat="44.088370" lon="2.964960">
        <ele>341.80</ele>
        <time>2010-01-01T23:10:00Z</time>
      </trkpt>
      <trkpt lat="44.086070" lon="2.963730">
        <ele>341.80</ele>
        <time>2010-01-01T23:10:19Z</time>
      </trkpt>
      <trkpt lat="44.085610" lon="2.963350">
        <ele>342.80</ele>
        <time>2010-01-01T23:10:40Z</time>
      </trkpt>
      <trkpt lat="44.085370" lon="2.963080">
        <ele>343.80</ele>
        <time>2010-01-01T23:11:11Z</time>
      </trkpt>
      <trkpt lat="44.084980" lon="2.962470">
        <ele>344.80</ele>
        <time>2010-01-01T23:11:38Z</time>
      </trkpt>
      <trkpt lat="44.084370" lon="2.961170">
        <ele>346.05</ele>
        <time>2010-01-01T23:12:07Z</time>
      </trkpt>
      <trkpt lat="44.083390" lon="2.959460">
        <ele>348.68</ele>
        <time>2010-01-01T23:12:46Z</time>
      </trkpt>
      <trkpt lat="44.083290" lon="2.959210">
        <ele>349.69</ele>
        <time>2010-01-01T23:13:06Z</time>
      </trkpt>
      <trkpt lat="44.083210" lon="2.958750">
        <ele>352.12</ele>
        <time>2010-01-01T23:13:56Z</time>
      </trkpt>
      <trkpt lat="44.083210" lon="2.958370">
        <ele>352.12</ele>
        <time>2010-01-01T23:14:24Z</time>
      </trkpt>
      <trkpt lat="44.083260" lon="2.957980">
        <ele>352.12</ele>
        <time>2010-01-01T23:14:46Z</time>
      </trkpt>
      <trkpt lat="44.083760" lon="2.955930">
        <ele>350.12</ele>
        <time>2010-01-01T23:14:55Z</time>
      </trkpt>
      <trkpt lat="44.083740" lon="2.955670">
        <ele>349.74</ele>
        <time>2010-01-01T23:15:37Z</time>
      </trkpt>
      <trkpt lat="44.083590" lon="2.955140">
        <ele>348.28</ele>
        <time>2010-01-01T23:16:20Z</time>
      </trkpt>
      <trkpt lat="44.083670" lon="2.954270">
        <ele>347.29</ele>
        <time>2010-01-01T23:16:48Z</time>
      </trkpt>
      <trkpt lat="44.083720" lon="2.954060">
        <ele>346.81</ele>
        <time>2010-01-01T23:17:23Z</time>
      </trkpt>
      <trkpt lat="44.084260" lon="2.953290">
        <ele>345.91</ele>
        <time>2010-01-01T23:18:03Z</time>
      </trkpt>
      <trkpt lat="44.084890" lon="2.952600">
        <ele>343.93</ele>
        <time>2010-01-01T23:19:05Z</time>
      </trkpt>
      <trkpt lat="44.085480" lon="2.951540">
        <ele>343.05</ele>
        <time>2010-01-01T23:19:16Z</time>
      </trkpt>
      <trkpt lat="44.085820" lon="2.950750">
        <ele>342.19</ele>
        <time>2010-01-01T23:19:19Z</time>
      </trkpt>
      <trkpt lat="44.086480" lon="2.949470">
        <ele>342.89</ele>
        <time>2010-01-01T23:19:26Z</time>
      </trkpt>
      <trkpt lat="44.087090" lon="2.948120">
        <ele>341.22</ele>
        <time>2010-01-01T23:19:52Z</time>
      </trkpt>
      <trkpt lat="44.088240" lon="2.945290">
        <ele>339.24</ele>
        <time>2010-01-01T23:20:11Z</time>
      </trkpt>
      <trkpt lat="44.088380" lon="2.944830">
        <ele>339.24</ele>
        <time>2010-01-01T23:20:18Z</time>
      </trkpt>
      <trkpt lat="44.088430" lon="2.944350">
        <ele>339.24</ele>
        <time>2010-01-01T23:20:36Z</time>
      </trkpt>
      <trkpt lat="44.089210" lon="2.941740">
        <ele>341.24</ele>
        <time>2010-01-01T23:20:44Z</time>
      </trkpt>
      <trkpt lat="44.089250" lon="2.941060">
        <ele>341.88</ele>
        <time>2010-01-01T23:20:48Z</time>
      </trkpt>
      <trkpt lat="44.089150" lon="2.939510">
        <ele>343.24</ele>
        <time>2010-01-01T23:21:04Z</time>
      </trkpt>
      <trkpt lat="44.089000" lon="2.939010">
        <ele>343.24</ele>
        <time>2010-01-01T23:21:30Z</time>
      </trkpt>
      <trkpt lat="44.088430" lon="2.937650">
        <ele>345.24</ele>
        <time>2010-01-01T23:21:39Z</time>
      </trkpt>
      <trkpt lat="44.088180" lon="2.937270">
        <ele>345.24</ele>
        <time>2010-01-01T23:21:43Z</time>
      </trkpt>
      <trkpt lat="44.087880" lon="2.936930">
        <ele>345.99</ele>
        <time>2010-01-01T23:21:55Z</time>
      </trkpt>
      <trkpt lat="44.087310" lon="2.936420">
        <ele>346.60</ele>
        <time>2010-01-01T23:22:14Z</time>
      </trkpt>
      <trkpt lat="44.086600" lon="2.936030">
        <ele>346.88</ele>
        <time>2010-01-01T23:22:39Z</time>
      </trkpt>
      <trkpt lat="44.085720" lon="2.935420">
        <ele>347.58</ele>
        <time>2010-01-01T23:22:53Z</time>
      </trkpt>
      <trkpt lat="44.085230" lon="2.935180">
        <ele>348.00</ele>
        <time>2010-01-01T23:23:21Z</time>
      </trkpt>
      <trkpt lat="44.084260" lon="2.934840">
        <ele>349.31</ele>
        <time>2010-01-01T23:23:32Z</time>
      </trkpt>
      <trkpt lat="44.083300" lon="2.934700">
        <ele>350.56</ele>
        <time>2010-01-01T23:23:47Z</time>
      </trkpt>
      <trkpt lat="44.081710" lon="2.934140">
        <ele>351.911194</ele>
        <time>2010-01-01T23:24:28Z</time>
      </trkpt>
      <trkpt lat="44.081080" lon="2.933870">
        <ele>353.41</ele>
        <time>2010-01-01T23:24:45Z</time>
      </trkpt>
      <trkpt lat="44.080560" lon="2.933610">
        <ele>353.41</ele>
        <time>2010-01-01T23:25:09Z</time>
      </trkpt>
      <trkpt lat="44.079730" lon="2.933320">
        <ele>355.35</ele>
        <time>2010-01-01T23:25:20Z</time>
      </trkpt>
      <trkpt lat="44.076450" lon="2.932600">
        <ele>355.35</ele>
        <time>2010-01-01T23:25:32Z</time>
      </trkpt>
      <trkpt lat="44.074620" lon="2.931520">
        <ele>360.35</ele>
        <time>2010-01-01T23:26:13Z</time>
      </trkpt>
      <trkpt lat="44.074030" lon="2.931080">
        <ele>361.36</ele>
        <time>2010-01-01T23:26:19Z</time>
      </trkpt>
      <trkpt lat="44.073340" lon="2.930110">
        <ele>362.17</ele>
        <time>2010-01-01T23:26:52Z</time>
      </trkpt>
      <trkpt lat="44.072550" lon="2.929400">
        <ele>365.67</ele>
        <time>2010-01-01T23:27:05Z</time>
      </trkpt>
      <trkpt lat="44.072380" lon="2.929090">
        <ele>366.45</ele>
        <time>2010-01-01T23:27:20Z</time>
      </trkpt>
      <trkpt lat="44.072300" lon="2.928440">
        <ele>367.00</ele>
        <time>2010-01-01T23:27:54Z</time>
      </trkpt>
      <trkpt lat="44.072460" lon="2.927720">
        <ele>368.30</ele>
        <time>2010-01-01T23:28:00Z</time>
      </trkpt>
      <trkpt lat="44.072990" lon="2.926570">
        <ele>371.57</ele>
        <time>2010-01-01T23:28:06Z</time>
      </trkpt>
      <trkpt lat="44.074020" lon="2.925100">
        <ele>375.71</ele>
        <time>2010-01-01T23:28:13Z</time>
      </trkpt>
      <trkpt lat="44.074740" lon="2.924530">
        <ele>376.32</ele>
        <time>2010-01-01T23:28:21Z</time>
      </trkpt>
      <trkpt lat="44.075400" lon="2.923180">
        <ele>379.781158</ele>
        <time>2010-01-01T23:28:26Z</time>
      </trkpt>
      <trkpt lat="44.076290" lon="2.921200">
        <ele>375.58</ele>
        <time>2010-01-01T23:28:45Z</time>
      </trkpt>
      <trkpt lat="44.076600" lon="2.920830">
        <ele>374.18</ele>
        <time>2010-01-01T23:28:54Z</time>
      </trkpt>
      <trkpt lat="44.076940" lon="2.920510">
        <ele>372.284515</ele>
        <time>2010-01-01T23:28:59Z</time>
      </trkpt>
      <trkpt lat="44.077250" lon="2.920290">
        <ele>370.640442</ele>
        <time>2010-01-01T23:29:05Z</time>
      </trkpt>
      <trkpt lat="44.077720" lon="2.920050">
        <ele>367.364380</ele>
        <time>2010-01-01T23:29:43Z</time>
      </trkpt>
      <trkpt lat="44.078040" lon="2.920040">
        <ele>367.559113</ele>
        <time>2010-01-01T23:29:53Z</time>
      </trkpt>
      <trkpt lat="44.078350" lon="2.920110">
        <ele>366.891541</ele>
        <time>2010-01-01T23:30:00Z</time>
      </trkpt>
      <trkpt lat="44.078600" lon="2.920240">
        <ele>364.653931</ele>
        <time>2010-01-01T23:30:23Z</time>
      </trkpt>
      <trkpt lat="44.079460" lon="2.921090">
        <ele>360.93</ele>
        <time>2010-01-01T23:30:52Z</time>
      </trkpt>
      <trkpt lat="44.079820" lon="2.921340">
        <ele>357.487610</ele>
        <time>2010-01-01T23:31:09Z</time>
      </trkpt>
      <trkpt lat="44.081000" lon="2.921890">
        <ele>356.256622</ele>
        <time>2010-01-01T23:31:32Z</time>
      </trkpt>
      <trkpt lat="44.081350" lon="2.922020">
        <ele>355.16</ele>
        <time>2010-01-01T23:31:55Z</time>
      </trkpt>
      <trkpt lat="44.081720" lon="2.922080">
        <ele>354.439789</ele>
        <time>2010-01-01T23:32:21Z</time>
      </trkpt>
      <trkpt lat="44.081800" lon="2.921350">
        <ele>344.79</ele>
        <time>2010-01-01T23:32:34Z</time>
      </trkpt>
      <trkpt lat="44.081930" lon="2.920960">
        <ele>342.84</ele>
        <time>2010-01-01T23:34:24Z</time>
      </trkpt>
      <trkpt lat="44.081800" lon="2.920830">
        <ele>342.84</ele>
        <time>2010-01-01T23:35:09Z</time>
      </trkpt>
      <trkpt lat="44.081080" lon="2.920520">
        <ele>344.91</ele>
        <time>2010-01-01T23:35:26Z</time>
      </trkpt>
      <trkpt lat="44.080790" lon="2.920290">
        <ele>345.242493</ele>
        <time>2010-01-01T23:35:36Z</time>
      </trkpt>
      <trkpt lat="44.079830" lon="2.919720">
        <ele>345.24</ele>
        <time>2010-01-01T23:35:45Z</time>
      </trkpt>
      <trkpt lat="44.079620" lon="2.919500">
        <ele>345.24</ele>
        <time>2010-01-01T23:37:29Z</time>
      </trkpt>
      <trkpt lat="44.078550" lon="2.917960">
        <ele>345.24</ele>
        <time>2010-01-01T23:37:46Z</time>
      </trkpt>
      <trkpt lat="44.078107" lon="2.917400">
        <ele>346.207397</ele>
        <time>2010-01-01T23:37:55Z</time>
      </trkpt>
      <trkpt lat="44.076318" lon="2.916214">
        <ele>350.37</ele>
        <time>2010-01-01T23:38:30Z</time>
      </trkpt>
      <trkpt lat="44.075970" lon="2.915771">
        <ele>350.37</ele>
        <time>2010-01-01T23:38:41Z</time>
      </trkpt>
      <trkpt lat="44.075763" lon="2.915146">
        <ele>350.37</ele>
        <time>2010-01-01T23:38:59Z</time>
      </trkpt>
      <trkpt lat="44.075637" lon="2.914286">
        <ele>350.010101</ele>
        <time>2010-01-01T23:39:06Z</time>
      </trkpt>
      <trkpt lat="44.075458" lon="2.913830">
        <ele>351.31</ele>
        <time>2010-01-01T23:39:54Z</time>
      </trkpt>
      <trkpt lat="44.074983" lon="2.913257">
        <ele>353.740875</ele>
        <time>2010-01-01T23:40:02Z</time>
      </trkpt>
      <trkpt lat="44.073223" lon="2.910821">
        <ele>353.727264</ele>
        <time>2010-01-01T23:40:14Z</time>
      </trkpt>
      <trkpt lat="44.072800" lon="2.910391">
        <ele>351.812256</ele>
        <time>2010-01-01T23:40:30Z</time>
      </trkpt>
      <trkpt lat="44.072459" lon="2.910248">
        <ele>351.042480</ele>
        <time>2010-01-01T23:40:35Z</time>
      </trkpt>
      <trkpt lat="44.071940" lon="2.910410">
        <ele>349.481079</ele>
        <time>2010-01-01T23:40:39Z</time>
      </trkpt>
      <trkpt lat="44.071400" lon="2.910600">
        <ele>348.616882</ele>
        <time>2010-01-01T23:40:45Z</time>
      </trkpt>
      <trkpt lat="44.070800" lon="2.910940">
        <ele>345.206604</ele>
        <time>2010-01-01T23:41:35Z</time>
      </trkpt>
      <trkpt lat="44.069950" lon="2.911560">
        <ele>344.73</ele>
        <time>2010-01-01T23:41:52Z</time>
      </trkpt>
      <trkpt lat="44.068770" lon="2.912660">
        <ele>348.509094</ele>
        <time>2010-01-01T23:42:02Z</time>
      </trkpt>
      <trkpt lat="44.068250" lon="2.913060">
        <ele>347.01</ele>
        <time>2010-01-01T23:42:16Z</time>
      </trkpt>
      <trkpt lat="44.067570" lon="2.914200">
        <ele>347.01</ele>
        <time>2010-01-01T23:42:22Z</time>
      </trkpt>
      <trkpt lat="44.067250" lon="2.914590">
        <ele>347.01</ele>
        <time>2010-01-01T23:42:29Z</time>
      </trkpt>
      <trkpt lat="44.067060" lon="2.914740">
        <ele>347.01</ele>
        <time>2010-01-01T23:43:06Z</time>
      </trkpt>
      <trkpt lat="44.066260" lon="2.915110">
        <ele>347.01</ele>
        <time>2010-01-01T23:43:39Z</time>
      </trkpt>
      <trkpt lat="44.065320" lon="2.915330">
        <ele>348.83</ele>
        <time>2010-01-01T23:44:10Z</time>
      </trkpt>
      <trkpt lat="44.064680" lon="2.915620">
        <ele>348.83</ele>
        <time>2010-01-01T23:44:45Z</time>
      </trkpt>
      <trkpt lat="44.064460" lon="2.915800">
        <ele>348.712524</ele>
        <time>2010-01-01T23:44:56Z</time>
      </trkpt>
      <trkpt lat="44.064150" lon="2.916230">
        <ele>349.246338</ele>
        <time>2010-01-01T23:45:05Z</time>
      </trkpt>
      <trkpt lat="44.063850" lon="2.916510">
        <ele>349.48</ele>
        <time>2010-01-01T23:45:13Z</time>
      </trkpt>
      <trkpt lat="44.063160" lon="2.916730">
        <ele>351.009949</ele>
        <time>2010-01-01T23:45:42Z</time>
      </trkpt>
      <trkpt lat="44.062730" lon="2.917020">
        <ele>351.73</ele>
        <time>2010-01-01T23:45:51Z</time>
      </trkpt>
      <trkpt lat="44.062270" lon="2.917070">
        <ele>351.73</ele>
        <time>2010-01-01T23:45:57Z</time>
      </trkpt>
      <trkpt lat="44.060920" lon="2.916630">
        <ele>351.73</ele>
        <time>2010-01-01T23:46:04Z</time>
      </trkpt>
      <trkpt lat="44.059970" lon="2.916490">
        <ele>351.73</ele>
        <time>2010-01-01T23:46:10Z</time>
      </trkpt>
      <trkpt lat="44.059270" lon="2.916220">
        <ele>351.73</ele>
        <time>2010-01-01T23:46:18Z</time>
      </trkpt>
      <trkpt lat="44.058360" lon="2.915790">
        <ele>351.73</ele>
        <time>2010-01-01T23:46:57Z</time>
      </trkpt>
      <trkpt lat="44.057540" lon="2.915260">
        <ele>351.73</ele>
        <time>2010-01-01T23:47:22Z</time>
      </trkpt>
      <trkpt lat="44.057130" lon="2.914940">
        <ele>351.73</ele>
        <time>2010-01-01T23:47:30Z</time>
      </trkpt>
      <trkpt lat="44.056220" lon="2.913930">
        <ele>351.73</ele>
        <time>2010-01-01T23:47:40Z</time>
      </trkpt>
      <trkpt lat="44.055830" lon="2.913350">
        <ele>351.73</ele>
        <time>2010-01-01T23:48:01Z</time>
      </trkpt>
      <trkpt lat="44.055430" lon="2.912430">
        <ele>351.73</ele>
        <time>2010-01-01T23:48:44Z</time>
      </trkpt>
      <trkpt lat="44.055060" lon="2.911340">
        <ele>351.73</ele>
        <time>2010-01-01T23:48:59Z</time>
      </trkpt>
      <trkpt lat="44.054980" lon="2.910990">
        <ele>351.73</ele>
        <time>2010-01-01T23:49:27Z</time>
      </trkpt>
      <trkpt lat="44.054980" lon="2.910830">
        <ele>351.73</ele>
        <time>2010-01-01T23:50:33Z</time>
      </trkpt>
      <trkpt lat="44.055010" lon="2.910570">
        <ele>351.73</ele>
        <time>2010-01-01T23:51:00Z</time>
      </trkpt>
      <trkpt lat="44.055290" lon="2.909640">
        <ele>351.73</ele>
        <time>2010-01-01T23:51:16Z</time>
      </trkpt>
      <trkpt lat="44.055990" lon="2.908410">
        <ele>352.61</ele>
        <time>2010-01-01T23:51:59Z</time>
      </trkpt>
      <trkpt lat="44.056680" lon="2.907790">
        <ele>352.61</ele>
        <time>2010-01-01T23:52:17Z</time>
      </trkpt>
      <trkpt lat="44.057000" lon="2.907310">
        <ele>352.61</ele>
        <time>2010-01-01T23:52:25Z</time>
      </trkpt>
      <trkpt lat="44.057480" lon="2.906830">
        <ele>352.61</ele>
        <time>2010-01-01T23:52:42Z</time>
      </trkpt>
      <trkpt lat="44.057730" lon="2.906390">
        <ele>352.17</ele>
        <time>2010-01-01T23:53:08Z</time>
      </trkpt>
      <trkpt lat="44.058010" lon="2.905590">
        <ele>348.25</ele>
        <time>2010-01-01T23:53:23Z</time>
      </trkpt>
      <trkpt lat="44.058220" lon="2.905110">
        <ele>347.08</ele>
        <time>2010-01-01T23:53:46Z</time>
      </trkpt>
      <trkpt lat="44.058410" lon="2.904470">
        <ele>346.20</ele>
        <time>2010-01-01T23:54:06Z</time>
      </trkpt>
      <trkpt lat="44.058620" lon="2.903520">
        <ele>346.64</ele>
        <time>2010-01-01T23:54:31Z</time>
      </trkpt>
      <trkpt lat="44.058800" lon="2.902430">
        <ele>346.20</ele>
        <time>2010-01-01T23:54:58Z</time>
      </trkpt>
      <trkpt lat="44.058880" lon="2.902210">
        <ele>346.20</ele>
        <time>2010-01-01T23:55:07Z</time>
      </trkpt>
      <trkpt lat="44.059010" lon="2.901940">
        <ele>346.20</ele>
        <time>2010-01-01T23:55:20Z</time>
      </trkpt>
      <trkpt lat="44.059020" lon="2.901830">
        <ele>346.20</ele>
        <time>2010-01-01T23:55:31Z</time>
      </trkpt>
      <trkpt lat="44.058620" lon="2.900870">
        <ele>346.20</ele>
        <time>2010-01-01T23:55:41Z</time>
      </trkpt>
      <trkpt lat="44.058450" lon="2.900160">
        <ele>346.20</ele>
        <time>2010-01-01T23:55:59Z</time>
      </trkpt>
      <trkpt lat="44.058120" lon="2.899510">
        <ele>346.20</ele>
        <time>2010-01-01T23:56:06Z</time>
      </trkpt>
      <trkpt lat="44.057680" lon="2.898980">
        <ele>346.20</ele>
        <time>2010-01-01T23:56:15Z</time>
      </trkpt>
      <trkpt lat="44.056630" lon="2.898150">
        <ele>346.20</ele>
        <time>2010-01-01T23:56:28Z</time>
      </trkpt>
      <trkpt lat="44.054210" lon="2.897050">
        <ele>344.64</ele>
        <time>2010-01-01T23:56:39Z</time>
      </trkpt>
      <trkpt lat="44.053570" lon="2.896530">
        <ele>343.323059</ele>
        <time>2010-01-01T23:56:55Z</time>
      </trkpt>
      <trkpt lat="44.053030" lon="2.895850">
        <ele>341.941345</ele>
        <time>2010-01-01T23:57:02Z</time>
      </trkpt>
      <trkpt lat="44.052390" lon="2.894830">
        <ele>332.191193</ele>
        <time>2010-01-01T23:57:13Z</time>
      </trkpt>
      <trkpt lat="44.051710" lon="2.892720">
        <ele>327.814148</ele>
        <time>2010-01-01T23:57:30Z</time>
      </trkpt>
      <trkpt lat="44.051300" lon="2.891790">
        <ele>330.224548</ele>
        <time>2010-01-01T23:57:52Z</time>
      </trkpt>
      <trkpt lat="44.050360" lon="2.890350">
        <ele>329.81</ele>
        <time>2010-01-01T23:58:41Z</time>
      </trkpt>
      <trkpt lat="44.049560" lon="2.889250">
        <ele>321.82</ele>
        <time>2010-01-01T23:58:56Z</time>
      </trkpt>
      <trkpt lat="44.049110" lon="2.888320">
        <ele>319.574890</ele>
        <time>2010-01-01T23:59:02Z</time>
      </trkpt>
      <trkpt lat="44.048910" lon="2.887750">
        <ele>319.93</ele>
        <time>2010-01-01T23:59:07Z</time>
      </trkpt>
      <trkpt lat="44.048860" lon="2.887390">
        <ele>319.93</ele>
        <time>2010-01-01T23:59:32Z</time>
      </trkpt>
      <trkpt lat="44.048940" lon="2.886490">
        <ele>319.93</ele>
        <time>2010-01-01T23:59:43Z</time>
      </trkpt>
      <trkpt lat="44.048930" lon="2.885720">
        <ele>319.93</ele>
        <time>2010-01-02T00:00:32Z</time>
      </trkpt>
      <trkpt lat="44.048970" lon="2.885080">
        <ele>319.93</ele>
        <time>2010-01-02T00:00:52Z</time>
      </trkpt>
      <trkpt lat="44.049010" lon="2.884880">
        <ele>319.93</ele>
        <time>2010-01-02T00:01:14Z</time>
      </trkpt>
      <trkpt lat="44.049230" lon="2.884290">
        <ele>320.55</ele>
        <time>2010-01-02T00:01:28Z</time>
      </trkpt>
      <trkpt lat="44.049570" lon="2.883740">
        <ele>321.73</ele>
        <time>2010-01-02T00:01:33Z</time>
      </trkpt>
      <trkpt lat="44.050200" lon="2.883120">
        <ele>321.991241</ele>
        <time>2010-01-02T00:01:43Z</time>
      </trkpt>
      <trkpt lat="44.050810" lon="2.882670">
        <ele>321.68</ele>
        <time>2010-01-02T00:01:58Z</time>
      </trkpt>
      <trkpt lat="44.051500" lon="2.882330">
        <ele>323.79</ele>
        <time>2010-01-02T00:02:07Z</time>
      </trkpt>
      <trkpt lat="44.052450" lon="2.882030">
        <ele>328.62</ele>
        <time>2010-01-02T00:02:10Z</time>
      </trkpt>
      <trkpt lat="44.052890" lon="2.881700">
        <ele>329.952484</ele>
        <time>2010-01-02T00:02:22Z</time>
      </trkpt>
      <trkpt lat="44.053940" lon="2.880770">
        <ele>330.44</ele>
        <time>2010-01-02T00:02:44Z</time>
      </trkpt>
      <trkpt lat="44.054380" lon="2.880040">
        <ele>330.44</ele>
        <time>2010-01-02T00:03:02Z</time>
      </trkpt>
      <trkpt lat="44.054700" lon="2.879420">
        <ele>330.012512</ele>
        <time>2010-01-02T00:03:18Z</time>
      </trkpt>
      <trkpt lat="44.054810" lon="2.879120">
        <ele>329.975006</ele>
        <time>2010-01-02T00:03:24Z</time>
      </trkpt>
      <trkpt lat="44.055110" lon="2.877730">
        <ele>333.49</ele>
        <time>2010-01-02T00:03:30Z</time>
      </trkpt>
      <trkpt lat="44.055360" lon="2.876290">
        <ele>333.49</ele>
        <time>2010-01-02T00:04:44Z</time>
      </trkpt>
      <trkpt lat="44.055590" lon="2.875370">
        <ele>333.49</ele>
        <time>2010-01-02T00:04:56Z</time>
      </trkpt>
      <trkpt lat="44.055960" lon="2.874270">
        <ele>333.49</ele>
        <time>2010-01-02T00:05:10Z</time>
      </trkpt>
      <trkpt lat="44.056470" lon="2.873060">
        <ele>333.49</ele>
        <time>2010-01-02T00:05:22Z</time>
      </trkpt>
      <trkpt lat="44.057450" lon="2.871380">
        <ele>333.49</ele>
        <time>2010-01-02T00:05:31Z</time>
      </trkpt>
      <trkpt lat="44.057660" lon="2.871150">
        <ele>332.58</ele>
        <time>2010-01-02T00:06:01Z</time>
      </trkpt>
      <trkpt lat="44.057650" lon="2.871050">
        <ele>330.77</ele>
        <time>2010-01-02T00:06:32Z</time>
      </trkpt>
      <trkpt lat="44.057800" lon="2.870930">
        <ele>330.77</ele>
        <time>2010-01-02T00:07:06Z</time>
      </trkpt>
      <trkpt lat="44.058440" lon="2.870800">
        <ele>331.370728</ele>
        <time>2010-01-02T00:07:22Z</time>
      </trkpt>
      <trkpt lat="44.058910" lon="2.870880">
        <ele>333.46</ele>
        <time>2010-01-02T00:07:50Z</time>
      </trkpt>
      <trkpt lat="44.059070" lon="2.870780">
        <ele>333.46</ele>
        <time>2010-01-02T00:08:26Z</time>
      </trkpt>
      <trkpt lat="44.059120" lon="2.870140">
        <ele>327.79</ele>
        <time>2010-01-02T00:08:33Z</time>
      </trkpt>
      <trkpt lat="44.059070" lon="2.869890">
        <ele>327.79</ele>
        <time>2010-01-02T00:08:49Z</time>
      </trkpt>
      <trkpt lat="44.058960" lon="2.869830">
        <ele>327.79</ele>
        <time>2010-01-02T00:09:01Z</time>
      </trkpt>
      <trkpt lat="44.058570" lon="2.869870">
        <ele>327.79</ele>
        <time>2010-01-02T00:09:23Z</time>
      </trkpt>
      <trkpt lat="44.057970" lon="2.869500">
        <ele>327.79</ele>
        <time>2010-01-02T00:09:52Z</time>
      </trkpt>
      <trkpt lat="44.057820" lon="2.869280">
        <ele>327.79</ele>
        <time>2010-01-02T00:10:07Z</time>
      </trkpt>
      <trkpt lat="44.057790" lon="2.869160">
        <ele>326.46</ele>
        <time>2010-01-02T00:10:15Z</time>
      </trkpt>
      <trkpt lat="44.057820" lon="2.868730">
        <ele>325.17</ele>
        <time>2010-01-02T00:10:27Z</time>
      </trkpt>
      <trkpt lat="44.058060" lon="2.868160">
        <ele>324.55</ele>
        <time>2010-01-02T00:10:52Z</time>
      </trkpt>
      <trkpt lat="44.058460" lon="2.867520">
        <ele>324.55</ele>
        <time>2010-01-02T00:11:07Z</time>
      </trkpt>
      <trkpt lat="44.058800" lon="2.867350">
        <ele>324.55</ele>
        <time>2010-01-02T00:11:11Z</time>
      </trkpt>
      <trkpt lat="44.059340" lon="2.866720">
        <ele>326.03</ele>
        <time>2010-01-02T00:11:20Z</time>
      </trkpt>
      <trkpt lat="44.059580" lon="2.866520">
        <ele>326.926636</ele>
        <time>2010-01-02T00:11:37Z</time>
      </trkpt>
      <trkpt lat="44.059910" lon="2.866340">
        <ele>332.116455</ele>
        <time>2010-01-02T00:11:41Z</time>
      </trkpt>
      <trkpt lat="44.060830" lon="2.865700">
        <ele>349.272858</ele>
        <time>2010-01-02T00:11:54Z</time>
      </trkpt>
      <trkpt lat="44.061150" lon="2.865290">
        <ele>354.800659</ele>
        <time>2010-01-02T00:12:02Z</time>
      </trkpt>
      <trkpt lat="44.061510" lon="2.864610">
        <ele>359.87</ele>
        <time>2010-01-02T00:12:21Z</time>
      </trkpt>
      <trkpt lat="44.061700" lon="2.864340">
        <ele>360.67</ele>
        <time>2010-01-02T00:12:29Z</time>
      </trkpt>
      <trkpt lat="44.061970" lon="2.864230">
        <ele>367.382507</ele>
        <time>2010-01-02T00:12:40Z</time>
      </trkpt>
      <trkpt lat="44.063010" lon="2.864100">
        <ele>373.06</ele>
        <time>2010-01-02T00:12:49Z</time>
      </trkpt>
      <trkpt lat="44.063140" lon="2.864030">
        <ele>373.06</ele>
        <time>2010-01-02T00:12:55Z</time>
      </trkpt>
      <trkpt lat="44.063690" lon="2.863170">
        <ele>373.06</ele>
        <time>2010-01-02T00:13:00Z</time>
      </trkpt>
      <trkpt lat="44.063980" lon="2.862960">
        <ele>373.72</ele>
        <time>2010-01-02T00:13:06Z</time>
      </trkpt>
      <trkpt lat="44.064340" lon="2.862910">
        <ele>375.18</ele>
        <time>2010-01-02T00:13:22Z</time>
      </trkpt>
      <trkpt lat="44.065200" lon="2.863000">
        <ele>382.85</ele>
        <time>2010-01-02T00:13:45Z</time>
      </trkpt>
      <trkpt lat="44.065340" lon="2.862960">
        <ele>383.31</ele>
        <time>2010-01-02T00:13:49Z</time>
      </trkpt>
      <trkpt lat="44.065460" lon="2.862830">
        <ele>383.31</ele>
        <time>2010-01-02T00:14:12Z</time>
      </trkpt>
      <trkpt lat="44.065520" lon="2.862590">
        <ele>384.91</ele>
        <time>2010-01-02T00:14:33Z</time>
      </trkpt>
      <trkpt lat="44.065500" lon="2.862330">
        <ele>384.91</ele>
        <time>2010-01-02T00:14:42Z</time>
      </trkpt>
      <trkpt lat="44.065430" lon="2.862180">
        <ele>384.91</ele>
        <time>2010-01-02T00:15:10Z</time>
      </trkpt>
      <trkpt lat="44.065090" lon="2.861740">
        <ele>384.74</ele>
        <time>2010-01-02T00:15:46Z</time>
      </trkpt>
      <trkpt lat="44.065060" lon="2.861430">
        <ele>385.25</ele>
        <time>2010-01-02T00:15:59Z</time>
      </trkpt>
      <trkpt lat="44.065120" lon="2.861260">
        <ele>385.25</ele>
        <time>2010-01-02T00:16:25Z</time>
      </trkpt>
      <trkpt lat="44.065240" lon="2.861140">
        <ele>386.04</ele>
        <time>2010-01-02T00:16:41Z</time>
      </trkpt>
      <trkpt lat="44.066120" lon="2.860610">
        <ele>397.310638</ele>
        <time>2010-01-02T00:16:52Z</time>
      </trkpt>
      <trkpt lat="44.066300" lon="2.860410">
        <ele>397.23</ele>
        <time>2010-01-02T00:17:19Z</time>
      </trkpt>
      <trkpt lat="44.066380" lon="2.860180">
        <ele>397.23</ele>
        <time>2010-01-02T00:17:51Z</time>
      </trkpt>
      <trkpt lat="44.066330" lon="2.859390">
        <ele>397.23</ele>
        <time>2010-01-02T00:18:08Z</time>
      </trkpt>
      <trkpt lat="44.066390" lon="2.858380">
        <ele>404.16</ele>
        <time>2010-01-02T00:18:32Z</time>
      </trkpt>
      <trkpt lat="44.066350" lon="2.857780">
        <ele>404.524323</ele>
        <time>2010-01-02T00:18:44Z</time>
      </trkpt>
      <trkpt lat="44.066240" lon="2.857010">
        <ele>404.190002</ele>
        <time>2010-01-02T00:18:54Z</time>
      </trkpt>
      <trkpt lat="44.066390" lon="2.856240">
        <ele>409.21</ele>
        <time>2010-01-02T00:19:06Z</time>
      </trkpt>
      <trkpt lat="44.066380" lon="2.855310">
        <ele>409.21</ele>
        <time>2010-01-02T00:19:19Z</time>
      </trkpt>
      <trkpt lat="44.066450" lon="2.854870">
        <ele>409.21</ele>
        <time>2010-01-02T00:19:28Z</time>
      </trkpt>
      <trkpt lat="44.066911" lon="2.853307">
        <ele>409.21</ele>
        <time>2010-01-02T00:20:45Z</time>
      </trkpt>
      <trkpt lat="44.067028" lon="2.852669">
        <ele>402.51</ele>
        <time>2010-01-02T00:20:56Z</time>
      </trkpt>
      <trkpt lat="44.067163" lon="2.852226">
        <ele>398.87</ele>
        <time>2010-01-02T00:21:21Z</time>
      </trkpt>
      <trkpt lat="44.067750" lon="2.851580">
        <ele>398.87</ele>
        <time>2010-01-02T00:21:33Z</time>
      </trkpt>
      <trkpt lat="44.068760" lon="2.850910">
        <ele>398.854858</ele>
        <time>2010-01-02T00:21:49Z</time>
      </trkpt>
      <trkpt lat="44.069100" lon="2.850590">
        <ele>394.00</ele>
        <time>2010-01-02T00:22:08Z</time>
      </trkpt>
      <trkpt lat="44.069280" lon="2.850320">
        <ele>385.26</ele>
        <time>2010-01-02T00:22:16Z</time>
      </trkpt>
      <trkpt lat="44.069270" lon="2.850010">
        <ele>384.46</ele>
        <time>2010-01-02T00:22:33Z</time>
      </trkpt>
      <trkpt lat="44.069097" lon="2.849673">
        <ele>384.46</ele>
        <time>2010-01-02T00:22:49Z</time>
      </trkpt>
      <trkpt lat="44.068657" lon="2.849543">
        <ele>385.75</ele>
        <time>2010-01-02T00:23:02Z</time>
      </trkpt>
      <trkpt lat="44.068010" lon="2.849660">
        <ele>387.29</ele>
        <time>2010-01-02T00:23:44Z</time>
      </trkpt>
      <trkpt lat="44.067139" lon="2.849243">
        <ele>397.62</ele>
        <time>2010-01-02T00:23:55Z</time>
      </trkpt>
      <trkpt lat="44.066990" lon="2.848950">
        <ele>400.748932</ele>
        <time>2010-01-02T00:24:13Z</time>
      </trkpt>
      <trkpt lat="44.066930" lon="2.848350">
        <ele>411.329071</ele>
        <time>2010-01-02T00:24:26Z</time>
      </trkpt>
      <trkpt lat="44.066810" lon="2.848090">
        <ele>412.704987</ele>
        <time>2010-01-02T00:24:33Z</time>
      </trkpt>
      <trkpt lat="44.066501" lon="2.847771">
        <ele>413.83</ele>
        <time>2010-01-02T00:24:53Z</time>
      </trkpt>
      <trkpt lat="44.066000" lon="2.847620">
        <ele>415.00</ele>
        <time>2010-01-02T00:25:14Z</time>
      </trkpt>
      <trkpt lat="44.065860" lon="2.847310">
        <ele>417.38</ele>
        <time>2010-01-02T00:25:30Z</time>
      </trkpt>
      <trkpt lat="44.065690" lon="2.846720">
        <ele>429.642517</ele>
        <time>2010-01-02T00:25:41Z</time>
      </trkpt>
      <trkpt lat="44.065570" lon="2.846550">
        <ele>430.192108</ele>
        <time>2010-01-02T00:25:49Z</time>
      </trkpt>
      <trkpt lat="44.064480" lon="2.845890">
        <ele>431.142487</ele>
        <time>2010-01-02T00:26:45Z</time>
      </trkpt>
      <trkpt lat="44.064360" lon="2.845660">
        <ele>437.037506</ele>
        <time>2010-01-02T00:26:56Z</time>
      </trkpt>
      <trkpt lat="44.064230" lon="2.845260">
        <ele>439.21</ele>
        <time>2010-01-02T00:27:15Z</time>
      </trkpt>
      <trkpt lat="44.063910" lon="2.844940">
        <ele>447.98</ele>
        <time>2010-01-02T00:27:35Z</time>
      </trkpt>
      <trkpt lat="44.063840" lon="2.844820">
        <ele>449.14</ele>
        <time>2010-01-02T00:27:46Z</time>
      </trkpt>
      <trkpt lat="44.063810" lon="2.844660">
        <ele>453.04</ele>
        <time>2010-01-02T00:28:17Z</time>
      </trkpt>
      <trkpt lat="44.063830" lon="2.844470">
        <ele>453.038147</ele>
        <time>2010-01-02T00:28:39Z</time>
      </trkpt>
      <trkpt lat="44.064430" lon="2.842940">
        <ele>473.37</ele>
        <time>2010-01-02T00:28:53Z</time>
      </trkpt>
      <trkpt lat="44.064600" lon="2.842410">
        <ele>477.44</ele>
        <time>2010-01-02T00:29:08Z</time>
      </trkpt>
      <trkpt lat="44.064790" lon="2.842170">
        <ele>479.026611</ele>
        <time>2010-01-02T00:29:26Z</time>
      </trkpt>
      <trkpt lat="44.065140" lon="2.842090">
        <ele>481.999451</ele>
        <time>2010-01-02T00:29:50Z</time>
      </trkpt>
      <trkpt lat="44.065260" lon="2.841970">
        <ele>484.205383</ele>
        <time>2010-01-02T00:30:17Z</time>
      </trkpt>
      <trkpt lat="44.065360" lon="2.841760">
        <ele>484.44</ele>
        <time>2010-01-02T00:30:30Z</time>
      </trkpt>
      <trkpt lat="44.065670" lon="2.840550">
        <ele>483.61</ele>
        <time>2010-01-02T00:30:41Z</time>
      </trkpt>
      <trkpt lat="44.065750" lon="2.839410">
        <ele>477.630249</ele>
        <time>2010-01-02T00:30:48Z</time>
      </trkpt>
      <trkpt lat="44.066170" lon="2.838530">
        <ele>473.151611</ele>
        <time>2010-01-02T00:31:23Z</time>
      </trkpt>
      <trkpt lat="44.066450" lon="2.837350">
        <ele>459.279297</ele>
        <time>2010-01-02T00:31:43Z</time>
      </trkpt>
      <trkpt lat="44.066580" lon="2.837030">
        <ele>456.521942</ele>
        <time>2010-01-02T00:32:08Z</time>
      </trkpt>
      <trkpt lat="44.066740" lon="2.836790">
        <ele>454.66</ele>
        <time>2010-01-02T00:32:13Z</time>
      </trkpt>
      <trkpt lat="44.066920" lon="2.836660">
        <ele>453.72</ele>
        <time>2010-01-02T00:32:23Z</time>
      </trkpt>
      <trkpt lat="44.067640" lon="2.836570">
        <ele>452.137634</ele>
        <time>2010-01-02T00:33:09Z</time>
      </trkpt>
      <trkpt lat="44.067840" lon="2.836490">
        <ele>449.344513</ele>
        <time>2010-01-02T00:33:59Z</time>
      </trkpt>
      <trkpt lat="44.067960" lon="2.836370">
        <ele>448.259369</ele>
        <time>2010-01-02T00:34:16Z</time>
      </trkpt>
      <trkpt lat="44.068070" lon="2.836170">
        <ele>446.603241</ele>
        <time>2010-01-02T00:34:34Z</time>
      </trkpt>
      <trkpt lat="44.068110" lon="2.835970">
        <ele>444.154236</ele>
        <time>2010-01-02T00:34:51Z</time>
      </trkpt>
      <trkpt lat="44.068110" lon="2.835690">
        <ele>442.148132</ele>
        <time>2010-01-02T00:35:13Z</time>
      </trkpt>
      <trkpt lat="44.067940" lon="2.834360">
        <ele>433.159180</ele>
        <time>2010-01-02T00:35:18Z</time>
      </trkpt>
      <trkpt lat="44.067740" lon="2.833540">
        <ele>422.939636</ele>
        <time>2010-01-02T00:35:24Z</time>
      </trkpt>
      <trkpt lat="44.067760" lon="2.833240">
        <ele>416.948853</ele>
        <time>2010-01-02T00:35:37Z</time>
      </trkpt>
      <trkpt lat="44.067940" lon="2.833010">
        <ele>416.133087</ele>
        <time>2010-01-02T00:36:00Z</time>
      </trkpt>
      <trkpt lat="44.068430" lon="2.832720">
        <ele>415.01</ele>
        <time>2010-01-02T00:36:20Z</time>
      </trkpt>
      <trkpt lat="44.069280" lon="2.831820">
        <ele>397.740906</ele>
        <time>2010-01-02T00:36:31Z</time>
      </trkpt>
      <trkpt lat="44.069450" lon="2.831350">
        <ele>394.169830</ele>
        <time>2010-01-02T00:36:38Z</time>
      </trkpt>
      <trkpt lat="44.069690" lon="2.830430">
        <ele>390.45</ele>
        <time>2010-01-02T00:37:34Z</time>
      </trkpt>
      <trkpt lat="44.069680" lon="2.828150">
        <ele>377.450897</ele>
        <time>2010-01-02T00:38:17Z</time>
      </trkpt>
      <trkpt lat="44.069560" lon="2.827240">
        <ele>366.865479</ele>
        <time>2010-01-02T00:38:56Z</time>
      </trkpt>
      <trkpt lat="44.069380" lon="2.826720">
        <ele>364.183624</ele>
        <time>2010-01-02T00:39:05Z</time>
      </trkpt>
      <trkpt lat="44.068720" lon="2.825550">
        <ele>351.323334</ele>
        <time>2010-01-02T00:39:24Z</time>
      </trkpt>
      <trkpt lat="44.068540" lon="2.824970">
        <ele>349.68</ele>
        <time>2010-01-02T00:39:35Z</time>
      </trkpt>
      <trkpt lat="44.068520" lon="2.824700">
        <ele>349.257477</ele>
        <time>2010-01-02T00:40:33Z</time>
      </trkpt>
      <trkpt lat="44.068560" lon="2.824110">
        <ele>348.10</ele>
        <time>2010-01-02T00:41:27Z</time>
      </trkpt>
      <trkpt lat="44.068690" lon="2.823230">
        <ele>347.46</ele>
        <time>2010-01-02T00:41:57Z</time>
      </trkpt>
      <trkpt lat="44.068700" lon="2.822690">
        <ele>346.743256</ele>
        <time>2010-01-02T00:42:31Z</time>
      </trkpt>
      <trkpt lat="44.068630" lon="2.821930">
        <ele>342.93</ele>
        <time>2010-01-02T00:42:40Z</time>
      </trkpt>
      <trkpt lat="44.068710" lon="2.821210">
        <ele>333.37</ele>
        <time>2010-01-02T00:42:46Z</time>
      </trkpt>
      <trkpt lat="44.068550" lon="2.820390">
        <ele>333.37</ele>
        <time>2010-01-02T00:42:52Z</time>
      </trkpt>
      <trkpt lat="44.068470" lon="2.819450">
        <ele>332.16</ele>
        <time>2010-01-02T00:43:31Z</time>
      </trkpt>
      <trkpt lat="44.068410" lon="2.819150">
        <ele>331.50</ele>
        <time>2010-01-02T00:44:01Z</time>
      </trkpt>
      <trkpt lat="44.068330" lon="2.818720">
        <ele>331.50</ele>
        <time>2010-01-02T00:44:21Z</time>
      </trkpt>
      <trkpt lat="44.068370" lon="2.818320">
        <ele>331.50</ele>
        <time>2010-01-02T00:44:27Z</time>
      </trkpt>
      <trkpt lat="44.068500" lon="2.818060">
        <ele>331.00</ele>
        <time>2010-01-02T00:44:34Z</time>
      </trkpt>
      <trkpt lat="44.068830" lon="2.817610">
        <ele>330.70</ele>
        <time>2010-01-02T00:45:21Z</time>
      </trkpt>
      <trkpt lat="44.068910" lon="2.817380">
        <ele>329.80</ele>
        <time>2010-01-02T00:46:18Z</time>
      </trkpt>
      <trkpt lat="44.068880" lon="2.817070">
        <ele>328.46</ele>
        <time>2010-01-02T00:46:38Z</time>
      </trkpt>
      <trkpt lat="44.068710" lon="2.816700">
        <ele>326.83</ele>
        <time>2010-01-02T00:47:29Z</time>
      </trkpt>
      <trkpt lat="44.068610" lon="2.816360">
        <ele>323.72</ele>
        <time>2010-01-02T00:48:08Z</time>
      </trkpt>
      <trkpt lat="44.068560" lon="2.815810">
        <ele>322.71</ele>
        <time>2010-01-02T00:48:36Z</time>
      </trkpt>
      <trkpt lat="44.068580" lon="2.815550">
        <ele>322.882629</ele>
        <time>2010-01-02T00:48:54Z</time>
      </trkpt>
      <trkpt lat="44.068720" lon="2.815240">
        <ele>324.20</ele>
        <time>2010-01-02T00:48:58Z</time>
      </trkpt>
      <trkpt lat="44.069040" lon="2.814830">
        <ele>327.35</ele>
        <time>2010-01-02T00:49:04Z</time>
      </trkpt>
      <trkpt lat="44.069310" lon="2.814150">
        <ele>327.35</ele>
        <time>2010-01-02T00:49:14Z</time>
      </trkpt>
      <trkpt lat="44.070150" lon="2.812940">
        <ele>327.35</ele>
        <time>2010-01-02T00:49:19Z</time>
      </trkpt>
      <trkpt lat="44.070330" lon="2.812470">
        <ele>324.41</ele>
        <time>2010-01-02T00:49:37Z</time>
      </trkpt>
      <trkpt lat="44.070430" lon="2.812320">
        <ele>324.41</ele>
        <time>2010-01-02T00:50:27Z</time>
      </trkpt>
      <trkpt lat="44.070550" lon="2.812250">
        <ele>324.41</ele>
        <time>2010-01-02T00:51:13Z</time>
      </trkpt>
      <trkpt lat="44.071160" lon="2.812400">
        <ele>327.43</ele>
        <time>2010-01-02T00:51:42Z</time>
      </trkpt>
      <trkpt lat="44.071430" lon="2.812310">
        <ele>327.43</ele>
        <time>2010-01-02T00:52:42Z</time>
      </trkpt>
      <trkpt lat="44.072240" lon="2.811050">
        <ele>327.43</ele>
        <time>2010-01-02T00:53:51Z</time>
      </trkpt>
      <trkpt lat="44.072660" lon="2.810680">
        <ele>327.339996</ele>
        <time>2010-01-02T00:54:40Z</time>
      </trkpt>
      <trkpt lat="44.073210" lon="2.810650">
        <ele>326.525330</ele>
        <time>2010-01-02T00:55:23Z</time>
      </trkpt>
      <trkpt lat="44.073400" lon="2.810230">
        <ele>326.29</ele>
        <time>2010-01-02T00:55:57Z</time>
      </trkpt>
      <trkpt lat="44.073390" lon="2.810070">
        <ele>326.29</ele>
        <time>2010-01-02T00:56:36Z</time>
      </trkpt>
      <trkpt lat="44.073230" lon="2.809790">
        <ele>326.17</ele>
        <time>2010-01-02T00:59:42Z</time>
      </trkpt>
      <trkpt lat="44.072910" lon="2.809530">
        <ele>321.31</ele>
        <time>2010-01-02T01:02:54Z</time>
      </trkpt>
      <trkpt lat="44.072700" lon="2.809430">
        <ele>321.562500</ele>
        <time>2010-01-02T01:03:07Z</time>
      </trkpt>
      <trkpt lat="44.072620" lon="2.809440">
        <ele>321.631500</ele>
        <time>2010-01-02T01:03:18Z</time>
      </trkpt>
      <trkpt lat="44.072340" lon="2.809640">
        <ele>321.07</ele>
        <time>2010-01-02T01:04:03Z</time>
      </trkpt>
      <trkpt lat="44.071980" lon="2.810180">
        <ele>319.317352</ele>
        <time>2010-01-02T01:04:14Z</time>
      </trkpt>
      <trkpt lat="44.071600" lon="2.810520">
        <ele>319.466187</ele>
        <time>2010-01-02T01:04:27Z</time>
      </trkpt>
      <trkpt lat="44.071310" lon="2.810910">
        <ele>317.38</ele>
        <time>2010-01-02T01:04:36Z</time>
      </trkpt>
      <trkpt lat="44.071190" lon="2.811020">
        <ele>317.38</ele>
        <time>2010-01-02T01:04:47Z</time>
      </trkpt>
      <trkpt lat="44.071030" lon="2.811040">
        <ele>317.38</ele>
        <time>2010-01-02T01:05:18Z</time>
      </trkpt>
      <trkpt lat="44.069670" lon="2.809290">
        <ele>317.38</ele>
        <time>2010-01-02T01:05:36Z</time>
      </trkpt>
      <trkpt lat="44.069890" lon="2.808990">
        <ele>317.38</ele>
        <time>2010-01-02T01:06:00Z</time>
      </trkpt>
      <trkpt lat="44.069960" lon="2.808520">
        <ele>317.38</ele>
        <time>2010-01-02T01:06:55Z</time>
      </trkpt>
      <trkpt lat="44.070120" lon="2.808170">
        <ele>317.38</ele>
        <time>2010-01-02T01:07:47Z</time>
      </trkpt>
      <trkpt lat="44.070180" lon="2.807880">
        <ele>319.69</ele>
        <time>2010-01-02T01:07:59Z</time>
      </trkpt>
      <trkpt lat="44.070230" lon="2.806820">
        <ele>320.67</ele>
        <time>2010-01-02T01:08:12Z</time>
      </trkpt>
      <trkpt lat="44.069920" lon="2.805840">
        <ele>320.083405</ele>
        <time>2010-01-02T01:08:37Z</time>
      </trkpt>
      <trkpt lat="44.069250" lon="2.805140">
        <ele>322.487000</ele>
        <time>2010-01-02T01:09:04Z</time>
      </trkpt>
      <trkpt lat="44.068860" lon="2.804970">
        <ele>323.815674</ele>
        <time>2010-01-02T01:09:29Z</time>
      </trkpt>
      <trkpt lat="44.068160" lon="2.804970">
        <ele>326.474945</ele>
        <time>2010-01-02T01:10:02Z</time>
      </trkpt>
      <trkpt lat="44.067280" lon="2.805280">
        <ele>328.925354</ele>
        <time>2010-01-02T01:10:23Z</time>
      </trkpt>
      <trkpt lat="44.067140" lon="2.805360">
        <ele>328.309448</ele>
        <time>2010-01-02T01:10:49Z</time>
      </trkpt>
      <trkpt lat="44.066810" lon="2.805730">
        <ele>332.49</ele>
        <time>2010-01-02T01:11:02Z</time>
      </trkpt>
      <trkpt lat="44.066510" lon="2.805740">
        <ele>333.442413</ele>
        <time>2010-01-02T01:11:21Z</time>
      </trkpt>
      <trkpt lat="44.066070" lon="2.806150">
        <ele>336.36</ele>
        <time>2010-01-02T01:11:48Z</time>
      </trkpt>
      <trkpt lat="44.065350" lon="2.806280">
        <ele>338.696747</ele>
        <time>2010-01-02T01:12:15Z</time>
      </trkpt>
      <trkpt lat="44.064980" lon="2.806450">
        <ele>340.05</ele>
        <time>2010-01-02T01:12:35Z</time>
      </trkpt>
      <trkpt lat="44.064820" lon="2.806580">
        <ele>342.504974</ele>
        <time>2010-01-02T01:12:49Z</time>
      </trkpt>
      <trkpt lat="44.064630" lon="2.806900">
        <ele>347.532562</ele>
        <time>2010-01-02T01:13:09Z</time>
      </trkpt>
      <trkpt lat="44.064320" lon="2.807680">
        <ele>360.779999</ele>
        <time>2010-01-02T01:13:19Z</time>
      </trkpt>
      <trkpt lat="44.063950" lon="2.807660">
        <ele>362.725006</ele>
        <time>2010-01-02T01:13:29Z</time>
      </trkpt>
      <trkpt lat="44.063870" lon="2.807610">
        <ele>363.65</ele>
        <time>2010-01-02T01:13:42Z</time>
      </trkpt>
      <trkpt lat="44.063760" lon="2.807320">
        <ele>363.65</ele>
        <time>2010-01-02T01:13:47Z</time>
      </trkpt>
      <trkpt lat="44.063470" lon="2.806890">
        <ele>363.65</ele>
        <time>2010-01-02T01:14:04Z</time>
      </trkpt>
      <trkpt lat="44.063470" lon="2.806760">
        <ele>363.65</ele>
        <time>2010-01-02T01:14:48Z</time>
      </trkpt>
      <trkpt lat="44.063630" lon="2.806370">
        <ele>363.65</ele>
        <time>2010-01-02T01:14:59Z</time>
      </trkpt>
      <trkpt lat="44.063560" lon="2.806110">
        <ele>363.65</ele>
        <time>2010-01-02T01:15:11Z</time>
      </trkpt>
      <trkpt lat="44.063160" lon="2.805740">
        <ele>362.05</ele>
        <time>2010-01-02T01:15:22Z</time>
      </trkpt>
      <trkpt lat="44.062980" lon="2.805640">
        <ele>367.48</ele>
        <time>2010-01-02T01:15:49Z</time>
      </trkpt>
      <trkpt lat="44.062790" lon="2.805360">
        <ele>363.027496</ele>
        <time>2010-01-02T01:16:08Z</time>
      </trkpt>
      <trkpt lat="44.062590" lon="2.805170">
        <ele>364.144989</ele>
        <time>2010-01-02T01:16:20Z</time>
      </trkpt>
      <trkpt lat="44.062460" lon="2.805110">
        <ele>368.066101</ele>
        <time>2010-01-02T01:16:44Z</time>
      </trkpt>
      <trkpt lat="44.062330" lon="2.805140">
        <ele>375.85</ele>
        <time>2010-01-02T01:17:36Z</time>
      </trkpt>
      <trkpt lat="44.062190" lon="2.805070">
        <ele>375.85</ele>
        <time>2010-01-02T01:17:57Z</time>
      </trkpt>
      <trkpt lat="44.061990" lon="2.804580">
        <ele>375.85</ele>
        <time>2010-01-02T01:18:26Z</time>
      </trkpt>
      <trkpt lat="44.061470" lon="2.804250">
        <ele>375.85</ele>
        <time>2010-01-02T01:18:43Z</time>
      </trkpt>
      <trkpt lat="44.061490" lon="2.804120">
        <ele>378.56</ele>
        <time>2010-01-02T01:18:49Z</time>
      </trkpt>
      <trkpt lat="44.061240" lon="2.803390">
        <ele>375.88</ele>
        <time>2010-01-02T01:18:56Z</time>
      </trkpt>
      <trkpt lat="44.060870" lon="2.802880">
        <ele>371.892487</ele>
        <time>2010-01-02T01:19:11Z</time>
      </trkpt>
      <trkpt lat="44.060780" lon="2.802600">
        <ele>370.635223</ele>
        <time>2010-01-02T01:19:15Z</time>
      </trkpt>
      <trkpt lat="44.060750" lon="2.801620">
        <ele>368.97</ele>
        <time>2010-01-02T01:19:41Z</time>
      </trkpt>
      <trkpt lat="44.060470" lon="2.800430">
        <ele>360.24</ele>
        <time>2010-01-02T01:19:54Z</time>
      </trkpt>
      <trkpt lat="44.060440" lon="2.799990">
        <ele>357.13</ele>
        <time>2010-01-02T01:20:02Z</time>
      </trkpt>
      <trkpt lat="44.060490" lon="2.799100">
        <ele>340.65</ele>
        <time>2010-01-02T01:20:35Z</time>
      </trkpt>
      <trkpt lat="44.060380" lon="2.798560">
        <ele>339.73</ele>
        <time>2010-01-02T01:20:56Z</time>
      </trkpt>
      <trkpt lat="44.060230" lon="2.798220">
        <ele>339.19</ele>
        <time>2010-01-02T01:21:00Z</time>
      </trkpt>
      <trkpt lat="44.059750" lon="2.797560">
        <ele>338.14</ele>
        <time>2010-01-02T01:21:07Z</time>
      </trkpt>
      <trkpt lat="44.059430" lon="2.796550">
        <ele>328.44</ele>
        <time>2010-01-02T01:21:18Z</time>
      </trkpt>
      <trkpt lat="44.059200" lon="2.796070">
        <ele>326.110809</ele>
        <time>2010-01-02T01:21:21Z</time>
      </trkpt>
      <trkpt lat="44.058740" lon="2.795530">
        <ele>322.879730</ele>
        <time>2010-01-02T01:21:27Z</time>
      </trkpt>
      <trkpt lat="44.058580" lon="2.795180">
        <ele>318.31</ele>
        <time>2010-01-02T01:21:31Z</time>
      </trkpt>
      <trkpt lat="44.058600" lon="2.794820">
        <ele>315.178619</ele>
        <time>2010-01-02T01:21:39Z</time>
      </trkpt>
      <trkpt lat="44.058730" lon="2.794460">
        <ele>314.069397</ele>
        <time>2010-01-02T01:21:59Z</time>
      </trkpt>
      <trkpt lat="44.058830" lon="2.794020">
        <ele>312.186768</ele>
        <time>2010-01-02T01:22:04Z</time>
      </trkpt>
      <trkpt lat="44.058840" lon="2.793700">
        <ele>310.63</ele>
        <time>2010-01-02T01:22:13Z</time>
      </trkpt>
      <trkpt lat="44.058430" lon="2.791080">
        <ele>308.64</ele>
        <time>2010-01-02T01:23:20Z</time>
      </trkpt>
      <trkpt lat="44.058320" lon="2.790750">
        <ele>306.03</ele>
        <time>2010-01-02T01:23:58Z</time>
      </trkpt>
      <trkpt lat="44.057950" lon="2.790020">
        <ele>306.03</ele>
        <time>2010-01-02T01:24:17Z</time>
      </trkpt>
      <trkpt lat="44.057860" lon="2.789640">
        <ele>306.03</ele>
        <time>2010-01-02T01:25:38Z</time>
      </trkpt>
      <trkpt lat="44.057820" lon="2.789070">
        <ele>306.03</ele>
        <time>2010-01-02T01:25:45Z</time>
      </trkpt>
      <trkpt lat="44.057860" lon="2.788420">
        <ele>303.245239</ele>
        <time>2010-01-02T01:25:51Z</time>
      </trkpt>
      <trkpt lat="44.057910" lon="2.788150">
        <ele>299.74</ele>
        <time>2010-01-02T01:26:07Z</time>
      </trkpt>
      <trkpt lat="44.058020" lon="2.787590">
        <ele>293.78</ele>
        <time>2010-01-02T01:26:16Z</time>
      </trkpt>
      <trkpt lat="44.057990" lon="2.787030">
        <ele>300.93</ele>
        <time>2010-01-02T01:26:24Z</time>
      </trkpt>
      <trkpt lat="44.058080" lon="2.786580">
        <ele>302.93</ele>
        <time>2010-01-02T01:26:39Z</time>
      </trkpt>
      <trkpt lat="44.058820" lon="2.785590">
        <ele>304.43</ele>
        <time>2010-01-02T01:26:47Z</time>
      </trkpt>
      <trkpt lat="44.059050" lon="2.785380">
        <ele>306.16</ele>
        <time>2010-01-02T01:27:24Z</time>
      </trkpt>
      <trkpt lat="44.059510" lon="2.785240">
        <ele>306.16</ele>
        <time>2010-01-02T01:27:54Z</time>
      </trkpt>
      <trkpt lat="44.059830" lon="2.785280">
        <ele>306.16</ele>
        <time>2010-01-02T01:28:47Z</time>
      </trkpt>
      <trkpt lat="44.060000" lon="2.785360">
        <ele>306.16</ele>
        <time>2010-01-02T01:28:57Z</time>
      </trkpt>
      <trkpt lat="44.060400" lon="2.785730">
        <ele>306.16</ele>
        <time>2010-01-02T01:29:11Z</time>
      </trkpt>
      <trkpt lat="44.060820" lon="2.786210">
        <ele>306.62</ele>
        <time>2010-01-02T01:29:29Z</time>
      </trkpt>
      <trkpt lat="44.061080" lon="2.786630">
        <ele>299.42</ele>
        <time>2010-01-02T01:30:03Z</time>
      </trkpt>
      <trkpt lat="44.061320" lon="2.786770">
        <ele>298.23</ele>
        <time>2010-01-02T01:30:10Z</time>
      </trkpt>
      <trkpt lat="44.061530" lon="2.786800">
        <ele>298.23</ele>
        <time>2010-01-02T01:30:25Z</time>
      </trkpt>
      <trkpt lat="44.062760" lon="2.785920">
        <ele>299.410858</ele>
        <time>2010-01-02T01:30:29Z</time>
      </trkpt>
      <trkpt lat="44.062960" lon="2.785650">
        <ele>299.322815</ele>
        <time>2010-01-02T01:30:55Z</time>
      </trkpt>
      <trkpt lat="44.063250" lon="2.785120">
        <ele>299.693726</ele>
        <time>2010-01-02T01:30:57Z</time>
      </trkpt>
      <trkpt lat="44.063470" lon="2.784500">
        <ele>299.380219</ele>
        <time>2010-01-02T01:31:10Z</time>
      </trkpt>
      <trkpt lat="44.063560" lon="2.784120">
        <ele>299.101593</ele>
        <time>2010-01-02T01:31:20Z</time>
      </trkpt>
      <trkpt lat="44.063700" lon="2.783070">
        <ele>300.812622</ele>
        <time>2010-01-02T01:31:29Z</time>
      </trkpt>
      <trkpt lat="44.063600" lon="2.782330">
        <ele>300.073853</ele>
        <time>2010-01-02T01:31:36Z</time>
      </trkpt>
      <trkpt lat="44.063440" lon="2.781890">
        <ele>300.21</ele>
        <time>2010-01-02T01:31:57Z</time>
      </trkpt>
      <trkpt lat="44.063240" lon="2.781460">
        <ele>300.21</ele>
        <time>2010-01-02T01:32:29Z</time>
      </trkpt>
      <trkpt lat="44.062920" lon="2.780990">
        <ele>300.21</ele>
        <time>2010-01-02T01:33:13Z</time>
      </trkpt>
      <trkpt lat="44.062580" lon="2.780300">
        <ele>300.21</ele>
        <time>2010-01-02T01:33:29Z</time>
      </trkpt>
      <trkpt lat="44.062020" lon="2.779820">
        <ele>300.21</ele>
        <time>2010-01-02T01:33:38Z</time>
      </trkpt>
      <trkpt lat="44.061690" lon="2.779750">
        <ele>305.00</ele>
        <time>2010-01-02T01:33:59Z</time>
      </trkpt>
      <trkpt lat="44.061460" lon="2.779560">
        <ele>306.04</ele>
        <time>2010-01-02T01:34:22Z</time>
      </trkpt>
      <trkpt lat="44.061330" lon="2.779410">
        <ele>306.464783</ele>
        <time>2010-01-02T01:34:31Z</time>
      </trkpt>
      <trkpt lat="44.060780" lon="2.778440">
        <ele>306.93</ele>
        <time>2010-01-02T01:34:49Z</time>
      </trkpt>
      <trkpt lat="44.060440" lon="2.777920">
        <ele>306.65</ele>
        <time>2010-01-02T01:35:06Z</time>
      </trkpt>
      <trkpt lat="44.060360" lon="2.777060">
        <ele>306.93</ele>
        <time>2010-01-02T01:35:13Z</time>
      </trkpt>
      <trkpt lat="44.060380" lon="2.776880">
        <ele>306.93</ele>
        <time>2010-01-02T01:35:20Z</time>
      </trkpt>
      <trkpt lat="44.060490" lon="2.776580">
        <ele>306.93</ele>
        <time>2010-01-02T01:35:43Z</time>
      </trkpt>
      <trkpt lat="44.061130" lon="2.775260">
        <ele>306.93</ele>
        <time>2010-01-02T01:35:50Z</time>
      </trkpt>
      <trkpt lat="44.061520" lon="2.773600">
        <ele>306.93</ele>
        <time>2010-01-02T01:36:28Z</time>
      </trkpt>
      <trkpt lat="44.061550" lon="2.773030">
        <ele>306.587341</ele>
        <time>2010-01-02T01:36:33Z</time>
      </trkpt>
      <trkpt lat="44.061510" lon="2.772380">
        <ele>306.93</ele>
        <time>2010-01-02T01:36:53Z</time>
      </trkpt>
      <trkpt lat="44.061410" lon="2.771820">
        <ele>305.93</ele>
        <time>2010-01-02T01:37:16Z</time>
      </trkpt>
      <trkpt lat="44.061190" lon="2.771110">
        <ele>305.93</ele>
        <time>2010-01-02T01:37:22Z</time>
      </trkpt>
      <trkpt lat="44.061100" lon="2.771010">
        <ele>304.93</ele>
        <time>2010-01-02T01:37:28Z</time>
      </trkpt>
      <trkpt lat="44.060950" lon="2.770940">
        <ele>303.93</ele>
        <time>2010-01-02T01:37:58Z</time>
      </trkpt>
      <trkpt lat="44.060630" lon="2.770910">
        <ele>303.93</ele>
        <time>2010-01-02T01:38:11Z</time>
      </trkpt>
      <trkpt lat="44.060070" lon="2.770690">
        <ele>302.93</ele>
        <time>2010-01-02T01:39:03Z</time>
      </trkpt>
      <trkpt lat="44.059590" lon="2.770750">
        <ele>301.64</ele>
        <time>2010-01-02T01:39:10Z</time>
      </trkpt>
      <trkpt lat="44.059320" lon="2.770700">
        <ele>300.21</ele>
        <time>2010-01-02T01:39:17Z</time>
      </trkpt>
      <trkpt lat="44.059140" lon="2.770590">
        <ele>300.50</ele>
        <time>2010-01-02T01:39:27Z</time>
      </trkpt>
      <trkpt lat="44.058100" lon="2.769290">
        <ele>295.15</ele>
        <time>2010-01-02T01:39:43Z</time>
      </trkpt>
      <trkpt lat="44.057270" lon="2.768340">
        <ele>291.78</ele>
        <time>2010-01-02T01:39:58Z</time>
      </trkpt>
      <trkpt lat="44.056640" lon="2.767330">
        <ele>280.11</ele>
        <time>2010-01-02T01:40:22Z</time>
      </trkpt>
      <trkpt lat="44.056430" lon="2.767190">
        <ele>280.320435</ele>
        <time>2010-01-02T01:40:54Z</time>
      </trkpt>
      <trkpt lat="44.055980" lon="2.767040">
        <ele>282.78</ele>
        <time>2010-01-02T01:41:00Z</time>
      </trkpt>
      <trkpt lat="44.055720" lon="2.766890">
        <ele>282.78</ele>
        <time>2010-01-02T01:41:18Z</time>
      </trkpt>
      <trkpt lat="44.054470" lon="2.765890">
        <ele>282.78</ele>
        <time>2010-01-02T01:41:32Z</time>
      </trkpt>
      <trkpt lat="44.053260" lon="2.765000">
        <ele>278.813538</ele>
        <time>2010-01-02T01:41:42Z</time>
      </trkpt>
      <trkpt lat="44.052550" lon="2.764690">
        <ele>276.07</ele>
        <time>2010-01-02T01:41:49Z</time>
      </trkpt>
      <trkpt lat="44.051720" lon="2.764540">
        <ele>276.07</ele>
        <time>2010-01-02T01:41:54Z</time>
      </trkpt>
      <trkpt lat="44.051500" lon="2.764530">
        <ele>276.07</ele>
        <time>2010-01-02T01:41:58Z</time>
      </trkpt>
      <trkpt lat="44.051360" lon="2.764600">
        <ele>276.77</ele>
        <time>2010-01-02T01:42:42Z</time>
      </trkpt>
      <trkpt lat="44.051210" lon="2.764480">
        <ele>277.00</ele>
        <time>2010-01-02T01:42:47Z</time>
      </trkpt>
      <trkpt lat="44.050270" lon="2.764230">
        <ele>282.43</ele>
        <time>2010-01-02T01:42:53Z</time>
      </trkpt>
      <trkpt lat="44.049600" lon="2.763740">
        <ele>282.43</ele>
        <time>2010-01-02T01:42:56Z</time>
      </trkpt>
      <trkpt lat="44.049230" lon="2.763290">
        <ele>282.43</ele>
        <time>2010-01-02T01:43:03Z</time>
      </trkpt>
      <trkpt lat="44.049160" lon="2.763100">
        <ele>280.78</ele>
        <time>2010-01-02T01:43:19Z</time>
      </trkpt>
      <trkpt lat="44.049200" lon="2.762860">
        <ele>275.24</ele>
        <time>2010-01-02T01:44:01Z</time>
      </trkpt>
      <trkpt lat="44.049950" lon="2.761610">
        <ele>266.60</ele>
        <time>2010-01-02T01:44:22Z</time>
      </trkpt>
      <trkpt lat="44.049180" lon="2.759930">
        <ele>266.60</ele>
        <time>2010-01-02T01:44:32Z</time>
      </trkpt>
      <trkpt lat="44.049040" lon="2.759270">
        <ele>266.60</ele>
        <time>2010-01-02T01:44:58Z</time>
      </trkpt>
      <trkpt lat="44.049160" lon="2.757500">
        <ele>271.61</ele>
        <time>2010-01-02T01:45:29Z</time>
      </trkpt>
      <trkpt lat="44.049080" lon="2.756140">
        <ele>271.61</ele>
        <time>2010-01-02T01:46:13Z</time>
      </trkpt>
      <trkpt lat="44.048760" lon="2.755280">
        <ele>271.800507</ele>
        <time>2010-01-02T01:46:41Z</time>
      </trkpt>
      <trkpt lat="44.048720" lon="2.754670">
        <ele>272.31</ele>
        <time>2010-01-02T01:46:50Z</time>
      </trkpt>
      <trkpt lat="44.048680" lon="2.754530">
        <ele>272.235931</ele>
        <time>2010-01-02T01:47:21Z</time>
      </trkpt>
      <trkpt lat="44.048590" lon="2.754390">
        <ele>271.271393</ele>
        <time>2010-01-02T01:47:48Z</time>
      </trkpt>
      <trkpt lat="44.048340" lon="2.754250">
        <ele>267.765686</ele>
        <time>2010-01-02T01:48:04Z</time>
      </trkpt>
      <trkpt lat="44.048250" lon="2.754140">
        <ele>266.724213</ele>
        <time>2010-01-02T01:48:18Z</time>
      </trkpt>
      <trkpt lat="44.048060" lon="2.753560">
        <ele>265.08</ele>
        <time>2010-01-02T01:48:24Z</time>
      </trkpt>
      <trkpt lat="44.047690" lon="2.751930">
        <ele>265.08</ele>
        <time>2010-01-02T01:48:37Z</time>
      </trkpt>
      <trkpt lat="44.047410" lon="2.750360">
        <ele>265.587250</ele>
        <time>2010-01-02T01:48:44Z</time>
      </trkpt>
      <trkpt lat="44.047200" lon="2.749390">
        <ele>268.845856</ele>
        <time>2010-01-02T01:48:53Z</time>
      </trkpt>
      <trkpt lat="44.046600" lon="2.747480">
        <ele>274.806244</ele>
        <time>2010-01-02T01:49:01Z</time>
      </trkpt>
      <trkpt lat="44.045670" lon="2.745490">
        <ele>274.218750</ele>
        <time>2010-01-02T01:49:14Z</time>
      </trkpt>
      <trkpt lat="44.045060" lon="2.744000">
        <ele>274.07</ele>
        <time>2010-01-02T01:49:20Z</time>
      </trkpt>
      <trkpt lat="44.044320" lon="2.742900">
        <ele>274.07</ele>
        <time>2010-01-02T01:49:36Z</time>
      </trkpt>
      <trkpt lat="44.043680" lon="2.742130">
        <ele>274.07</ele>
        <time>2010-01-02T01:49:50Z</time>
      </trkpt>
      <trkpt lat="44.042990" lon="2.741200">
        <ele>274.07</ele>
        <time>2010-01-02T01:50:19Z</time>
      </trkpt>
      <trkpt lat="44.041777" lon="2.738879">
        <ele>275.71</ele>
        <time>2010-01-02T01:50:32Z</time>
      </trkpt>
      <trkpt lat="44.040070" lon="2.736170">
        <ele>276.099335</ele>
        <time>2010-01-02T01:50:44Z</time>
      </trkpt>
      <trkpt lat="44.037990" lon="2.733447">
        <ele>275.55</ele>
        <time>2010-01-02T01:50:49Z</time>
      </trkpt>
      <trkpt lat="44.037235" lon="2.732483">
        <ele>275.55</ele>
        <time>2010-01-02T01:51:02Z</time>
      </trkpt>
      <trkpt lat="44.036480" lon="2.731740">
        <ele>275.968597</ele>
        <time>2010-01-02T01:51:08Z</time>
      </trkpt>
      <trkpt lat="44.036190" lon="2.731520">
        <ele>275.495728</ele>
        <time>2010-01-02T01:51:39Z</time>
      </trkpt>
      <trkpt lat="44.035930" lon="2.731400">
        <ele>275.55</ele>
        <time>2010-01-02T01:53:43Z</time>
      </trkpt>
      <trkpt lat="44.034830" lon="2.731160">
        <ele>275.55</ele>
        <time>2010-01-02T01:53:47Z</time>
      </trkpt>
      <trkpt lat="44.034550" lon="2.731040">
        <ele>275.55</ele>
        <time>2010-01-02T01:54:05Z</time>
      </trkpt>
      <trkpt lat="44.034270" lon="2.730860">
        <ele>275.118195</ele>
        <time>2010-01-02T01:54:09Z</time>
      </trkpt>
      <trkpt lat="44.034080" lon="2.730670">
        <ele>275.638702</ele>
        <time>2010-01-02T01:54:22Z</time>
      </trkpt>
      <trkpt lat="44.033890" lon="2.730390">
        <ele>276.349396</ele>
        <time>2010-01-02T01:54:32Z</time>
      </trkpt>
      <trkpt lat="44.033510" lon="2.729460">
        <ele>276.23</ele>
        <time>2010-01-02T01:54:53Z</time>
      </trkpt>
      <trkpt lat="44.033380" lon="2.728870">
        <ele>276.23</ele>
        <time>2010-01-02T01:55:24Z</time>
      </trkpt>
      <trkpt lat="44.033290" lon="2.728040">
        <ele>276.23</ele>
        <time>2010-01-02T01:55:52Z</time>
      </trkpt>
      <trkpt lat="44.033220" lon="2.726120">
        <ele>276.07</ele>
        <time>2010-01-02T01:56:15Z</time>
      </trkpt>
      <trkpt lat="44.032970" lon="2.724350">
        <ele>277.51</ele>
        <time>2010-01-02T01:56:22Z</time>
      </trkpt>
      <trkpt lat="44.032880" lon="2.723970">
        <ele>275.72</ele>
        <time>2010-01-02T01:56:32Z</time>
      </trkpt>
      <trkpt lat="44.032720" lon="2.723560">
        <ele>273.67</ele>
        <time>2010-01-02T01:57:00Z</time>
      </trkpt>
      <trkpt lat="44.032360" lon="2.722850">
        <ele>278.67</ele>
        <time>2010-01-02T01:57:27Z</time>
      </trkpt>
      <trkpt lat="44.031850" lon="2.722230">
        <ele>278.40</ele>
        <time>2010-01-02T01:57:31Z</time>
      </trkpt>
      <trkpt lat="44.031440" lon="2.721600">
        <ele>278.40</ele>
        <time>2010-01-02T01:57:52Z</time>
      </trkpt>
      <trkpt lat="44.030820" lon="2.720820">
        <ele>278.620087</ele>
        <time>2010-01-02T01:57:58Z</time>
      </trkpt>
      <trkpt lat="44.030400" lon="2.720410">
        <ele>276.75</ele>
        <time>2010-01-02T01:58:06Z</time>
      </trkpt>
      <trkpt lat="44.029830" lon="2.719980">
        <ele>276.75</ele>
        <time>2010-01-02T01:58:21Z</time>
      </trkpt>
      <trkpt lat="44.029520" lon="2.719850">
        <ele>273.96</ele>
        <time>2010-01-02T01:58:38Z</time>
      </trkpt>
      <trkpt lat="44.029030" lon="2.719790">
        <ele>272.12</ele>
        <time>2010-01-02T01:59:09Z</time>
      </trkpt>
      <trkpt lat="44.028390" lon="2.719530">
        <ele>272.12</ele>
        <time>2010-01-02T01:59:25Z</time>
      </trkpt>
      <trkpt lat="44.027720" lon="2.719360">
        <ele>272.12</ele>
        <time>2010-01-02T01:59:35Z</time>
      </trkpt>
      <trkpt lat="44.027260" lon="2.719100">
        <ele>273.25</ele>
        <time>2010-01-02T01:59:42Z</time>
      </trkpt>
      <trkpt lat="44.026960" lon="2.718860">
        <ele>275.20</ele>
        <time>2010-01-02T02:00:04Z</time>
      </trkpt>
      <trkpt lat="44.026590" lon="2.718410">
        <ele>275.20</ele>
        <time>2010-01-02T02:00:29Z</time>
      </trkpt>
      <trkpt lat="44.026450" lon="2.718130">
        <ele>275.575256</ele>
        <time>2010-01-02T02:00:55Z</time>
      </trkpt>
      <trkpt lat="44.026380" lon="2.717790">
        <ele>275.43</ele>
        <time>2010-01-02T02:01:07Z</time>
      </trkpt>
      <trkpt lat="44.026350" lon="2.717330">
        <ele>275.43</ele>
        <time>2010-01-02T02:01:48Z</time>
      </trkpt>
      <trkpt lat="44.026290" lon="2.717160">
        <ele>275.43</ele>
        <time>2010-01-02T02:02:01Z</time>
      </trkpt>
      <trkpt lat="44.025980" lon="2.716780">
        <ele>275.43</ele>
        <time>2010-01-02T02:02:16Z</time>
      </trkpt>
      <trkpt lat="44.025370" lon="2.715510">
        <ele>275.43</ele>
        <time>2010-01-02T02:02:22Z</time>
      </trkpt>
      <trkpt lat="44.025170" lon="2.715250">
        <ele>275.05</ele>
        <time>2010-01-02T02:03:03Z</time>
      </trkpt>
      <trkpt lat="44.024910" lon="2.715010">
        <ele>275.05</ele>
        <time>2010-01-02T02:03:21Z</time>
      </trkpt>
      <trkpt lat="44.024660" lon="2.714910">
        <ele>275.05</ele>
        <time>2010-01-02T02:03:34Z</time>
      </trkpt>
      <trkpt lat="44.023980" lon="2.714910">
        <ele>274.62</ele>
        <time>2010-01-02T02:03:38Z</time>
      </trkpt>
      <trkpt lat="44.023530" lon="2.714660">
        <ele>274.62</ele>
        <time>2010-01-02T02:06:48Z</time>
      </trkpt>
      <trkpt lat="44.023250" lon="2.714590">
        <ele>275.35</ele>
        <time>2010-01-02T02:06:59Z</time>
      </trkpt>
      <trkpt lat="44.022650" lon="2.714580">
        <ele>277.62</ele>
        <time>2010-01-02T02:07:15Z</time>
      </trkpt>
      <trkpt lat="44.021360" lon="2.714290">
        <ele>277.62</ele>
        <time>2010-01-02T02:07:22Z</time>
      </trkpt>
      <trkpt lat="44.020860" lon="2.714040">
        <ele>280.387726</ele>
        <time>2010-01-02T02:07:37Z</time>
      </trkpt>
      <trkpt lat="44.020230" lon="2.713610">
        <ele>286.54</ele>
        <time>2010-01-02T02:07:56Z</time>
      </trkpt>
      <trkpt lat="44.020020" lon="2.713070">
        <ele>286.54</ele>
        <time>2010-01-02T02:08:12Z</time>
      </trkpt>
      <trkpt lat="44.019910" lon="2.712940">
        <ele>286.54</ele>
        <time>2010-01-02T02:09:34Z</time>
      </trkpt>
      <trkpt lat="44.019740" lon="2.712890">
        <ele>286.54</ele>
        <time>2010-01-02T02:09:58Z</time>
      </trkpt>
      <trkpt lat="44.019400" lon="2.713090">
        <ele>287.12</ele>
        <time>2010-01-02T02:10:25Z</time>
      </trkpt>
      <trkpt lat="44.019290" lon="2.713060">
        <ele>287.25</ele>
        <time>2010-01-02T02:11:29Z</time>
      </trkpt>
      <trkpt lat="44.018760" lon="2.712520">
        <ele>294.44</ele>
        <time>2010-01-02T02:11:38Z</time>
      </trkpt>
      <trkpt lat="44.018500" lon="2.712270">
        <ele>294.44</ele>
        <time>2010-01-02T02:11:57Z</time>
      </trkpt>
      <trkpt lat="44.018320" lon="2.712170">
        <ele>294.44</ele>
        <time>2010-01-02T02:12:11Z</time>
      </trkpt>
      <trkpt lat="44.017500" lon="2.712090">
        <ele>282.99</ele>
        <time>2010-01-02T02:12:24Z</time>
      </trkpt>
      <trkpt lat="44.016990" lon="2.711960">
        <ele>281.29</ele>
        <time>2010-01-02T02:12:48Z</time>
      </trkpt>
      <trkpt lat="44.016910" lon="2.711850">
        <ele>281.29</ele>
        <time>2010-01-02T02:13:05Z</time>
      </trkpt>
      <trkpt lat="44.016870" lon="2.711630">
        <ele>281.29</ele>
        <time>2010-01-02T02:13:13Z</time>
      </trkpt>
      <trkpt lat="44.016930" lon="2.711230">
        <ele>281.58</ele>
        <time>2010-01-02T02:13:28Z</time>
      </trkpt>
      <trkpt lat="44.016900" lon="2.711130">
        <ele>281.58</ele>
        <time>2010-01-02T02:13:35Z</time>
      </trkpt>
      <trkpt lat="44.016790" lon="2.711040">
        <ele>281.58</ele>
        <time>2010-01-02T02:13:42Z</time>
      </trkpt>
      <trkpt lat="44.016670" lon="2.711060">
        <ele>278.457733</ele>
        <time>2010-01-02T02:14:10Z</time>
      </trkpt>
      <trkpt lat="44.016530" lon="2.711250">
        <ele>278.288208</ele>
        <time>2010-01-02T02:15:32Z</time>
      </trkpt>
      <trkpt lat="44.016370" lon="2.711890">
        <ele>272.550781</ele>
        <time>2010-01-02T02:16:13Z</time>
      </trkpt>
      <trkpt lat="44.016270" lon="2.712010">
        <ele>270.871918</ele>
        <time>2010-01-02T02:16:17Z</time>
      </trkpt>
      <trkpt lat="44.016060" lon="2.712140">
        <ele>269.253876</ele>
        <time>2010-01-02T02:16:45Z</time>
      </trkpt>
      <trkpt lat="44.014390" lon="2.712190">
        <ele>268.759338</ele>
        <time>2010-01-02T02:16:53Z</time>
      </trkpt>
      <trkpt lat="44.013460" lon="2.712370">
        <ele>267.08</ele>
        <time>2010-01-02T02:17:08Z</time>
      </trkpt>
      <trkpt lat="44.012970" lon="2.712310">
        <ele>267.08</ele>
        <time>2010-01-02T02:17:14Z</time>
      </trkpt>
      <trkpt lat="44.011100" lon="2.711300">
        <ele>267.08</ele>
        <time>2010-01-02T02:17:40Z</time>
      </trkpt>
      <trkpt lat="44.010910" lon="2.711240">
        <ele>267.08</ele>
        <time>2010-01-02T02:18:49Z</time>
      </trkpt>
      <trkpt lat="44.010770" lon="2.711270">
        <ele>267.08</ele>
        <time>2010-01-02T02:19:21Z</time>
      </trkpt>
      <trkpt lat="44.010420" lon="2.711500">
        <ele>267.08</ele>
        <time>2010-01-02T02:19:30Z</time>
      </trkpt>
      <trkpt lat="44.010180" lon="2.711490">
        <ele>266.576904</ele>
        <time>2010-01-02T02:19:49Z</time>
      </trkpt>
      <trkpt lat="44.010040" lon="2.711300">
        <ele>269.07</ele>
        <time>2010-01-02T02:19:56Z</time>
      </trkpt>
      <trkpt lat="44.009950" lon="2.710800">
        <ele>276.37</ele>
        <time>2010-01-02T02:20:24Z</time>
      </trkpt>
      <trkpt lat="44.009790" lon="2.710630">
        <ele>276.37</ele>
        <time>2010-01-02T02:20:42Z</time>
      </trkpt>
      <trkpt lat="44.008920" lon="2.710250">
        <ele>276.37</ele>
        <time>2010-01-02T02:20:51Z</time>
      </trkpt>
      <trkpt lat="44.008280" lon="2.709660">
        <ele>281.01</ele>
        <time>2010-01-02T02:21:11Z</time>
      </trkpt>
      <trkpt lat="44.007090" lon="2.708840">
        <ele>283.65</ele>
        <time>2010-01-02T02:21:20Z</time>
      </trkpt>
      <trkpt lat="44.006920" lon="2.708610">
        <ele>284.84</ele>
        <time>2010-01-02T02:21:38Z</time>
      </trkpt>
      <trkpt lat="44.006730" lon="2.708190">
        <ele>289.762482</ele>
        <time>2010-01-02T02:21:49Z</time>
      </trkpt>
      <trkpt lat="44.006400" lon="2.707800">
        <ele>291.941711</ele>
        <time>2010-01-02T02:22:07Z</time>
      </trkpt>
      <trkpt lat="44.005920" lon="2.706800">
        <ele>301.725220</ele>
        <time>2010-01-02T02:22:27Z</time>
      </trkpt>
      <trkpt lat="44.005780" lon="2.706650">
        <ele>302.52</ele>
        <time>2010-01-02T02:22:39Z</time>
      </trkpt>
      <trkpt lat="44.005410" lon="2.706560">
        <ele>304.52</ele>
        <time>2010-01-02T02:23:06Z</time>
      </trkpt>
      <trkpt lat="44.005320" lon="2.706490">
        <ele>306.52</ele>
        <time>2010-01-02T02:23:15Z</time>
      </trkpt>
      <trkpt lat="44.004950" lon="2.705780">
        <ele>308.076202</ele>
        <time>2010-01-02T02:23:40Z</time>
      </trkpt>
      <trkpt lat="44.004960" lon="2.705690">
        <ele>309.480011</ele>
        <time>2010-01-02T02:23:58Z</time>
      </trkpt>
      <trkpt lat="44.004850" lon="2.705270">
        <ele>312.390991</ele>
        <time>2010-01-02T02:24:06Z</time>
      </trkpt>
      <trkpt lat="44.004810" lon="2.704920">
        <ele>312.690002</ele>
        <time>2010-01-02T02:24:32Z</time>
      </trkpt>
      <trkpt lat="44.004800" lon="2.704630">
        <ele>313.322693</ele>
        <time>2010-01-02T02:25:04Z</time>
      </trkpt>
      <trkpt lat="44.004840" lon="2.704380">
        <ele>313.171051</ele>
        <time>2010-01-02T02:25:11Z</time>
      </trkpt>
      <trkpt lat="44.005120" lon="2.703780">
        <ele>317.366302</ele>
        <time>2010-01-02T02:25:22Z</time>
      </trkpt>
      <trkpt lat="44.005630" lon="2.702930">
        <ele>322.58</ele>
        <time>2010-01-02T02:25:27Z</time>
      </trkpt>
      <trkpt lat="44.006410" lon="2.701850">
        <ele>328.76</ele>
        <time>2010-01-02T02:25:32Z</time>
      </trkpt>
      <trkpt lat="44.006750" lon="2.701510">
        <ele>328.76</ele>
        <time>2010-01-02T02:25:44Z</time>
      </trkpt>
      <trkpt lat="44.006960" lon="2.701430">
        <ele>328.855255</ele>
        <time>2010-01-02T02:26:01Z</time>
      </trkpt>
      <trkpt lat="44.007490" lon="2.701400">
        <ele>339.188995</ele>
        <time>2010-01-02T02:26:27Z</time>
      </trkpt>
      <trkpt lat="44.008030" lon="2.701200">
        <ele>345.833008</ele>
        <time>2010-01-02T02:26:51Z</time>
      </trkpt>
      <trkpt lat="44.008230" lon="2.701070">
        <ele>347.122009</ele>
        <time>2010-01-02T02:27:00Z</time>
      </trkpt>
      <trkpt lat="44.008550" lon="2.700630">
        <ele>348.895844</ele>
        <time>2010-01-02T02:27:08Z</time>
      </trkpt>
      <trkpt lat="44.008780" lon="2.700100">
        <ele>352.68</ele>
        <time>2010-01-02T02:27:30Z</time>
      </trkpt>
      <trkpt lat="44.008760" lon="2.699870">
        <ele>353.606262</ele>
        <time>2010-01-02T02:28:06Z</time>
      </trkpt>
      <trkpt lat="44.008580" lon="2.699800">
        <ele>353.67</ele>
        <time>2010-01-02T02:28:28Z</time>
      </trkpt>
      <trkpt lat="44.008110" lon="2.700220">
        <ele>353.67</ele>
        <time>2010-01-02T02:28:56Z</time>
      </trkpt>
      <trkpt lat="44.007930" lon="2.700300">
        <ele>353.67</ele>
        <time>2010-01-02T02:29:06Z</time>
      </trkpt>
      <trkpt lat="44.006990" lon="2.700240">
        <ele>357.970886</ele>
        <time>2010-01-02T02:29:47Z</time>
      </trkpt>
      <trkpt lat="44.006880" lon="2.700180">
        <ele>358.064148</ele>
        <time>2010-01-02T02:29:58Z</time>
      </trkpt>
      <trkpt lat="44.006490" lon="2.699740">
        <ele>365.710815</ele>
        <time>2010-01-02T02:30:03Z</time>
      </trkpt>
      <trkpt lat="44.005960" lon="2.699390">
        <ele>368.232178</ele>
        <time>2010-01-02T02:30:25Z</time>
      </trkpt>
      <trkpt lat="44.005850" lon="2.699270">
        <ele>368.395294</ele>
        <time>2010-01-02T02:30:34Z</time>
      </trkpt>
      <trkpt lat="44.005770" lon="2.699080">
        <ele>369.018402</ele>
        <time>2010-01-02T02:30:51Z</time>
      </trkpt>
      <trkpt lat="44.005670" lon="2.698070">
        <ele>375.614990</ele>
        <time>2010-01-02T02:31:00Z</time>
      </trkpt>
      <trkpt lat="44.005590" lon="2.697630">
        <ele>378.634064</ele>
        <time>2010-01-02T02:31:20Z</time>
      </trkpt>
      <trkpt lat="44.004930" lon="2.696080">
        <ele>385.836395</ele>
        <time>2010-01-02T02:31:32Z</time>
      </trkpt>
      <trkpt lat="44.005030" lon="2.695870">
        <ele>387.415253</ele>
        <time>2010-01-02T02:31:47Z</time>
      </trkpt>
      <trkpt lat="44.005190" lon="2.695750">
        <ele>389.141724</ele>
        <time>2010-01-02T02:32:01Z</time>
      </trkpt>
      <trkpt lat="44.005430" lon="2.695670">
        <ele>391.675385</ele>
        <time>2010-01-02T02:32:39Z</time>
      </trkpt>
      <trkpt lat="44.005330" lon="2.695140">
        <ele>391.844269</ele>
        <time>2010-01-02T02:32:49Z</time>
      </trkpt>
      <trkpt lat="44.005380" lon="2.694630">
        <ele>393.168335</ele>
        <time>2010-01-02T02:33:36Z</time>
      </trkpt>
      <trkpt lat="44.005550" lon="2.693800">
        <ele>394.295868</ele>
        <time>2010-01-02T02:33:55Z</time>
      </trkpt>
      <trkpt lat="44.006030" lon="2.692930">
        <ele>404.591492</ele>
        <time>2010-01-02T02:35:35Z</time>
      </trkpt>
      <trkpt lat="44.006050" lon="2.692730">
        <ele>404.63</ele>
        <time>2010-01-02T02:36:54Z</time>
      </trkpt>
      <trkpt lat="44.005950" lon="2.692120">
        <ele>404.63</ele>
        <time>2010-01-02T02:37:36Z</time>
      </trkpt>
      <trkpt lat="44.006130" lon="2.691680">
        <ele>410.244080</ele>
        <time>2010-01-02T02:37:52Z</time>
      </trkpt>
      <trkpt lat="44.006170" lon="2.691370">
        <ele>414.393616</ele>
        <time>2010-01-02T02:38:43Z</time>
      </trkpt>
      <trkpt lat="44.006080" lon="2.691150">
        <ele>415.890900</ele>
        <time>2010-01-02T02:39:08Z</time>
      </trkpt>
      <trkpt lat="44.005980" lon="2.691060">
        <ele>415.874756</ele>
        <time>2010-01-02T02:40:18Z</time>
      </trkpt>
      <trkpt lat="44.005860" lon="2.691030">
        <ele>415.45</ele>
        <time>2010-01-02T02:40:46Z</time>
      </trkpt>
      <trkpt lat="44.004860" lon="2.691610">
        <ele>415.45</ele>
        <time>2010-01-02T02:41:04Z</time>
      </trkpt>
      <trkpt lat="44.004740" lon="2.691630">
        <ele>415.45</ele>
        <time>2010-01-02T02:41:17Z</time>
      </trkpt>
      <trkpt lat="44.004620" lon="2.691480">
        <ele>415.45</ele>
        <time>2010-01-02T02:41:34Z</time>
      </trkpt>
      <trkpt lat="44.004610" lon="2.691370">
        <ele>415.45</ele>
        <time>2010-01-02T02:42:01Z</time>
      </trkpt>
      <trkpt lat="44.004700" lon="2.691180">
        <ele>415.45</ele>
        <time>2010-01-02T02:42:10Z</time>
      </trkpt>
      <trkpt lat="44.005090" lon="2.691020">
        <ele>415.37</ele>
        <time>2010-01-02T02:43:45Z</time>
      </trkpt>
      <trkpt lat="44.005940" lon="2.690200">
        <ele>423.362305</ele>
        <time>2010-01-02T02:43:58Z</time>
      </trkpt>
      <trkpt lat="44.006410" lon="2.689870">
        <ele>431.146240</ele>
        <time>2010-01-02T02:44:18Z</time>
      </trkpt>
      <trkpt lat="44.006620" lon="2.689640">
        <ele>436.036072</ele>
        <time>2010-01-02T02:44:38Z</time>
      </trkpt>
      <trkpt lat="44.006970" lon="2.688880">
        <ele>440.200012</ele>
        <time>2010-01-02T02:45:00Z</time>
      </trkpt>
      <trkpt lat="44.007530" lon="2.688150">
        <ele>444.089264</ele>
        <time>2010-01-02T02:45:25Z</time>
      </trkpt>
      <trkpt lat="44.008070" lon="2.686840">
        <ele>451.06</ele>
        <time>2010-01-02T02:45:39Z</time>
      </trkpt>
      <trkpt lat="44.008260" lon="2.685890">
        <ele>451.06</ele>
        <time>2010-01-02T02:46:18Z</time>
      </trkpt>
      <trkpt lat="44.008390" lon="2.685650">
        <ele>451.06</ele>
        <time>2010-01-02T02:46:36Z</time>
      </trkpt>
      <trkpt lat="44.009070" lon="2.685110">
        <ele>451.423431</ele>
        <time>2010-01-02T02:47:28Z</time>
      </trkpt>
      <trkpt lat="44.009720" lon="2.684900">
        <ele>457.387726</ele>
        <time>2010-01-02T02:47:39Z</time>
      </trkpt>
      <trkpt lat="44.010050" lon="2.684560">
        <ele>459.05</ele>
        <time>2010-01-02T02:48:00Z</time>
      </trkpt>
      <trkpt lat="44.010360" lon="2.684320">
        <ele>464.193329</ele>
        <time>2010-01-02T02:48:24Z</time>
      </trkpt>
      <trkpt lat="44.010430" lon="2.684150">
        <ele>465.208496</ele>
        <time>2010-01-02T02:48:34Z</time>
      </trkpt>
      <trkpt lat="44.010490" lon="2.683720">
        <ele>466.719543</ele>
        <time>2010-01-02T02:48:48Z</time>
      </trkpt>
      <trkpt lat="44.010490" lon="2.683460">
        <ele>467.00</ele>
        <time>2010-01-02T02:48:59Z</time>
      </trkpt>
      <trkpt lat="44.010430" lon="2.683170">
        <ele>466.60</ele>
        <time>2010-01-02T02:49:05Z</time>
      </trkpt>
      <trkpt lat="44.010310" lon="2.682940">
        <ele>466.60</ele>
        <time>2010-01-02T02:49:14Z</time>
      </trkpt>
      <trkpt lat="44.010030" lon="2.682680">
        <ele>466.60</ele>
        <time>2010-01-02T02:49:22Z</time>
      </trkpt>
      <trkpt lat="44.009980" lon="2.682500">
        <ele>466.60</ele>
        <time>2010-01-02T02:49:40Z</time>
      </trkpt>
      <trkpt lat="44.009940" lon="2.681960">
        <ele>466.60</ele>
        <time>2010-01-02T02:50:33Z</time>
      </trkpt>
      <trkpt lat="44.009730" lon="2.681550">
        <ele>466.60</ele>
        <time>2010-01-02T02:51:09Z</time>
      </trkpt>
      <trkpt lat="44.009760" lon="2.680540">
        <ele>471.26</ele>
        <time>2010-01-02T02:51:34Z</time>
      </trkpt>
      <trkpt lat="44.009670" lon="2.680100">
        <ele>473.774994</ele>
        <time>2010-01-02T02:51:49Z</time>
      </trkpt>
      <trkpt lat="44.009510" lon="2.679770">
        <ele>474.540710</ele>
        <time>2010-01-02T02:52:13Z</time>
      </trkpt>
      <trkpt lat="44.009390" lon="2.679690">
        <ele>475.60</ele>
        <time>2010-01-02T02:52:25Z</time>
      </trkpt>
      <trkpt lat="44.009080" lon="2.679840">
        <ele>475.60</ele>
        <time>2010-01-02T02:52:54Z</time>
      </trkpt>
      <trkpt lat="44.008930" lon="2.679850">
        <ele>475.60</ele>
        <time>2010-01-02T02:53:06Z</time>
      </trkpt>
      <trkpt lat="44.008180" lon="2.679630">
        <ele>475.60</ele>
        <time>2010-01-02T02:53:18Z</time>
      </trkpt>
      <trkpt lat="44.007955" lon="2.679242">
        <ele>479.41</ele>
        <time>2010-01-02T02:53:36Z</time>
      </trkpt>
      <trkpt lat="44.007214" lon="2.678799">
        <ele>479.475769</ele>
        <time>2010-01-02T02:53:46Z</time>
      </trkpt>
      <trkpt lat="44.006702" lon="2.678187">
        <ele>479.94</ele>
        <time>2010-01-02T02:54:25Z</time>
      </trkpt>
      <trkpt lat="44.006420" lon="2.676530">
        <ele>479.94</ele>
        <time>2010-01-02T02:54:54Z</time>
      </trkpt>
      <trkpt lat="44.006440" lon="2.676390">
        <ele>479.69</ele>
        <time>2010-01-02T02:55:07Z</time>
      </trkpt>
      <trkpt lat="44.006660" lon="2.675860">
        <ele>480.87</ele>
        <time>2010-01-02T02:55:26Z</time>
      </trkpt>
      <trkpt lat="44.006670" lon="2.675710">
        <ele>480.87</ele>
        <time>2010-01-02T02:55:58Z</time>
      </trkpt>
      <trkpt lat="44.006440" lon="2.675370">
        <ele>479.02</ele>
        <time>2010-01-02T02:56:25Z</time>
      </trkpt>
      <trkpt lat="44.006320" lon="2.675080">
        <ele>479.02</ele>
        <time>2010-01-02T02:56:51Z</time>
      </trkpt>
      <trkpt lat="44.006170" lon="2.674370">
        <ele>479.02</ele>
        <time>2010-01-02T02:57:05Z</time>
      </trkpt>
      <trkpt lat="44.006080" lon="2.673300">
        <ele>479.991577</ele>
        <time>2010-01-02T02:57:31Z</time>
      </trkpt>
      <trkpt lat="44.005810" lon="2.672410">
        <ele>478.519989</ele>
        <time>2010-01-02T02:57:48Z</time>
      </trkpt>
      <trkpt lat="44.005500" lon="2.671750">
        <ele>475.793549</ele>
        <time>2010-01-02T02:58:40Z</time>
      </trkpt>
      <trkpt lat="44.005430" lon="2.671520">
        <ele>475.123993</ele>
        <time>2010-01-02T02:59:18Z</time>
      </trkpt>
      <trkpt lat="44.005400" lon="2.671160">
        <ele>475.340485</ele>
        <time>2010-01-02T02:59:56Z</time>
      </trkpt>
      <trkpt lat="44.005500" lon="2.670210">
        <ele>477.24</ele>
        <time>2010-01-02T03:00:15Z</time>
      </trkpt>
      <trkpt lat="44.005365" lon="2.669941">
        <ele>477.24</ele>
        <time>2010-01-02T03:00:41Z</time>
      </trkpt>
      <trkpt lat="44.005020" lon="2.669540">
        <ele>477.24</ele>
        <time>2010-01-02T03:00:46Z</time>
      </trkpt>
      <trkpt lat="44.004980" lon="2.669420">
        <ele>470.85</ele>
        <time>2010-01-02T03:00:59Z</time>
      </trkpt>
      <trkpt lat="44.004980" lon="2.668690">
        <ele>476.73</ele>
        <time>2010-01-02T03:01:13Z</time>
      </trkpt>
      <trkpt lat="44.004930" lon="2.668510">
        <ele>476.73</ele>
        <time>2010-01-02T03:01:29Z</time>
      </trkpt>
      <trkpt lat="44.004740" lon="2.668410">
        <ele>476.056244</ele>
        <time>2010-01-02T03:02:10Z</time>
      </trkpt>
      <trkpt lat="44.004360" lon="2.668520">
        <ele>474.85</ele>
        <time>2010-01-02T03:02:49Z</time>
      </trkpt>
      <trkpt lat="44.003960" lon="2.668410">
        <ele>474.85</ele>
        <time>2010-01-02T03:03:00Z</time>
      </trkpt>
      <trkpt lat="44.003190" lon="2.668410">
        <ele>472.07</ele>
        <time>2010-01-02T03:03:10Z</time>
      </trkpt>
      <trkpt lat="44.002820" lon="2.668650">
        <ele>466.40</ele>
        <time>2010-01-02T03:04:03Z</time>
      </trkpt>
      <trkpt lat="44.002570" lon="2.668620">
        <ele>461.50</ele>
        <time>2010-01-02T03:04:34Z</time>
      </trkpt>
      <trkpt lat="44.002430" lon="2.668450">
        <ele>460.481842</ele>
        <time>2010-01-02T03:05:04Z</time>
      </trkpt>
      <trkpt lat="44.002260" lon="2.667730">
        <ele>460.358612</ele>
        <time>2010-01-02T03:05:47Z</time>
      </trkpt>
      <trkpt lat="44.001910" lon="2.667000">
        <ele>455.640320</ele>
        <time>2010-01-02T03:05:53Z</time>
      </trkpt>
      <trkpt lat="44.001400" lon="2.666470">
        <ele>451.104492</ele>
        <time>2010-01-02T03:11:09Z</time>
      </trkpt>
      <trkpt lat="44.001290" lon="2.666070">
        <ele>450.743713</ele>
        <time>2010-01-02T03:11:36Z</time>
      </trkpt>
      <trkpt lat="44.001030" lon="2.664720">
        <ele>446.539032</ele>
        <time>2010-01-02T03:11:43Z</time>
      </trkpt>
      <trkpt lat="44.001010" lon="2.664240">
        <ele>444.654236</ele>
        <time>2010-01-02T03:12:06Z</time>
      </trkpt>
      <trkpt lat="44.001060" lon="2.663750">
        <ele>442.770752</ele>
        <time>2010-01-02T03:13:18Z</time>
      </trkpt>
      <trkpt lat="44.001020" lon="2.663550">
        <ele>440.674133</ele>
        <time>2010-01-02T03:13:39Z</time>
      </trkpt>
      <trkpt lat="44.000560" lon="2.662250">
        <ele>439.929443</ele>
        <time>2010-01-02T03:14:03Z</time>
      </trkpt>
      <trkpt lat="44.000540" lon="2.661630">
        <ele>439.54</ele>
        <time>2010-01-02T03:14:25Z</time>
      </trkpt>
      <trkpt lat="44.000630" lon="2.661200">
        <ele>439.54</ele>
        <time>2010-01-02T03:14:38Z</time>
      </trkpt>
      <trkpt lat="44.000580" lon="2.661090">
        <ele>439.729309</ele>
        <time>2010-01-02T03:15:46Z</time>
      </trkpt>
      <trkpt lat="44.000355" lon="2.660926">
        <ele>437.469543</ele>
        <time>2010-01-02T03:16:19Z</time>
      </trkpt>
      <trkpt lat="43.999852" lon="2.660210">
        <ele>434.278748</ele>
        <time>2010-01-02T03:17:09Z</time>
      </trkpt>
      <trkpt lat="43.999511" lon="2.659441">
        <ele>432.13</ele>
        <time>2010-01-02T03:17:37Z</time>
      </trkpt>
      <trkpt lat="43.999385" lon="2.658386">
        <ele>432.13</ele>
        <time>2010-01-02T03:18:21Z</time>
      </trkpt>
      <trkpt lat="43.999008" lon="2.657643">
        <ele>432.42</ele>
        <time>2010-01-02T03:18:37Z</time>
      </trkpt>
      <trkpt lat="43.998613" lon="2.657370">
        <ele>432.42</ele>
        <time>2010-01-02T03:19:00Z</time>
      </trkpt>
      <trkpt lat="43.998388" lon="2.657070">
        <ele>432.42</ele>
        <time>2010-01-02T03:20:58Z</time>
      </trkpt>
      <trkpt lat="43.998325" lon="2.656601">
        <ele>431.99</ele>
        <time>2010-01-02T03:21:27Z</time>
      </trkpt>
      <trkpt lat="43.998480" lon="2.655850">
        <ele>437.35</ele>
        <time>2010-01-02T03:21:55Z</time>
      </trkpt>
      <trkpt lat="43.998480" lon="2.655460">
        <ele>437.33</ele>
        <time>2010-01-02T03:22:07Z</time>
      </trkpt>
      <trkpt lat="43.998540" lon="2.654900">
        <ele>438.18</ele>
        <time>2010-01-02T03:22:29Z</time>
      </trkpt>
      <trkpt lat="43.998480" lon="2.654690">
        <ele>438.18</ele>
        <time>2010-01-02T03:22:45Z</time>
      </trkpt>
      <trkpt lat="43.998180" lon="2.654380">
        <ele>438.18</ele>
        <time>2010-01-02T03:22:53Z</time>
      </trkpt>
      <trkpt lat="43.998050" lon="2.653730">
        <ele>442.67</ele>
        <time>2010-01-02T03:23:06Z</time>
      </trkpt>
      <trkpt lat="43.997850" lon="2.653240">
        <ele>444.216583</ele>
        <time>2010-01-02T03:23:23Z</time>
      </trkpt>
      <trkpt lat="43.997673" lon="2.652915">
        <ele>445.791138</ele>
        <time>2010-01-02T03:23:45Z</time>
      </trkpt>
      <trkpt lat="43.997610" lon="2.652511">
        <ele>446.664490</ele>
        <time>2010-01-02T03:24:11Z</time>
      </trkpt>
      <trkpt lat="43.997655" lon="2.652172">
        <ele>447.192505</ele>
        <time>2010-01-02T03:24:22Z</time>
      </trkpt>
      <trkpt lat="43.997808" lon="2.652029">
        <ele>447.845001</ele>
        <time>2010-01-02T03:24:51Z</time>
      </trkpt>
      <trkpt lat="43.998059" lon="2.651899">
        <ele>451.038055</ele>
        <time>2010-01-02T03:25:15Z</time>
      </trkpt>
      <trkpt lat="43.998350" lon="2.650950">
        <ele>454.996948</ele>
        <time>2010-01-02T03:26:03Z</time>
      </trkpt>
      <trkpt lat="43.998320" lon="2.650150">
        <ele>458.07</ele>
        <time>2010-01-02T03:26:13Z</time>
      </trkpt>
      <trkpt lat="43.998130" lon="2.649250">
        <ele>457.36</ele>
        <time>2010-01-02T03:26:35Z</time>
      </trkpt>
      <trkpt lat="43.998176" lon="2.648942">
        <ele>457.36</ele>
        <time>2010-01-02T03:26:46Z</time>
      </trkpt>
      <trkpt lat="43.998329" lon="2.648850">
        <ele>457.36</ele>
        <time>2010-01-02T03:26:59Z</time>
      </trkpt>
      <trkpt lat="43.998518" lon="2.648994">
        <ele>457.36</ele>
        <time>2010-01-02T03:27:21Z</time>
      </trkpt>
      <trkpt lat="43.998724" lon="2.649267">
        <ele>457.36</ele>
        <time>2010-01-02T03:27:52Z</time>
      </trkpt>
      <trkpt lat="43.999330" lon="2.649830">
        <ele>455.078278</ele>
        <time>2010-01-02T03:28:10Z</time>
      </trkpt>
      <trkpt lat="43.999460" lon="2.650080">
        <ele>451.162170</ele>
        <time>2010-01-02T03:28:44Z</time>
      </trkpt>
      <trkpt lat="43.999670" lon="2.650680">
        <ele>450.137726</ele>
        <time>2010-01-02T03:29:19Z</time>
      </trkpt>
      <trkpt lat="43.999900" lon="2.651030">
        <ele>447.79</ele>
        <time>2010-01-02T03:29:27Z</time>
      </trkpt>
      <trkpt lat="44.000170" lon="2.651260">
        <ele>443.544891</ele>
        <time>2010-01-02T03:29:51Z</time>
      </trkpt>
      <trkpt lat="44.000760" lon="2.651520">
        <ele>433.01</ele>
        <time>2010-01-02T03:30:07Z</time>
      </trkpt>
      <trkpt lat="44.001020" lon="2.651970">
        <ele>433.01</ele>
        <time>2010-01-02T03:30:43Z</time>
      </trkpt>
      <trkpt lat="44.001190" lon="2.652130">
        <ele>432.35</ele>
        <time>2010-01-02T03:31:26Z</time>
      </trkpt>
      <trkpt lat="44.001570" lon="2.652160">
        <ele>431.272156</ele>
        <time>2010-01-02T03:31:39Z</time>
      </trkpt>
      <trkpt lat="44.001730" lon="2.652120">
        <ele>431.372864</ele>
        <time>2010-01-02T03:31:52Z</time>
      </trkpt>
      <trkpt lat="44.001870" lon="2.652000">
        <ele>428.587494</ele>
        <time>2010-01-02T03:32:52Z</time>
      </trkpt>
      <trkpt lat="44.002400" lon="2.651340">
        <ele>419.23</ele>
        <time>2010-01-02T03:33:30Z</time>
      </trkpt>
      <trkpt lat="44.002561" lon="2.651299">
        <ele>419.23</ele>
        <time>2010-01-02T03:33:40Z</time>
      </trkpt>
      <trkpt lat="44.003216" lon="2.651651">
        <ele>419.23</ele>
        <time>2010-01-02T03:34:06Z</time>
      </trkpt>
      <trkpt lat="44.003306" lon="2.651658">
        <ele>418.242493</ele>
        <time>2010-01-02T03:34:23Z</time>
      </trkpt>
      <trkpt lat="44.003338" lon="2.651579">
        <ele>415.234741</ele>
        <time>2010-01-02T03:34:34Z</time>
      </trkpt>
      <trkpt lat="44.003257" lon="2.651495">
        <ele>413.416260</ele>
        <time>2010-01-02T03:35:33Z</time>
      </trkpt>
      <trkpt lat="44.003041" lon="2.651391">
        <ele>412.831238</ele>
        <time>2010-01-02T03:36:31Z</time>
      </trkpt>
      <trkpt lat="44.002722" lon="2.651143">
        <ele>408.269440</ele>
        <time>2010-01-02T03:36:42Z</time>
      </trkpt>
      <trkpt lat="44.002460" lon="2.650850">
        <ele>403.587494</ele>
        <time>2010-01-02T03:36:56Z</time>
      </trkpt>
      <trkpt lat="44.002318" lon="2.650778">
        <ele>400.737640</ele>
        <time>2010-01-02T03:37:06Z</time>
      </trkpt>
      <trkpt lat="44.002165" lon="2.650830">
        <ele>400.19</ele>
        <time>2010-01-02T03:37:34Z</time>
      </trkpt>
      <trkpt lat="44.001963" lon="2.651052">
        <ele>403.450775</ele>
        <time>2010-01-02T03:37:49Z</time>
      </trkpt>
      <trkpt lat="44.001729" lon="2.651358">
        <ele>405.41</ele>
        <time>2010-01-02T03:38:19Z</time>
      </trkpt>
      <trkpt lat="44.001590" lon="2.651400">
        <ele>405.41</ele>
        <time>2010-01-02T03:38:33Z</time>
      </trkpt>
      <trkpt lat="44.001490" lon="2.651330">
        <ele>405.41</ele>
        <time>2010-01-02T03:38:51Z</time>
      </trkpt>
      <trkpt lat="44.001190" lon="2.650470">
        <ele>395.143738</ele>
        <time>2010-01-02T03:40:41Z</time>
      </trkpt>
      <trkpt lat="44.001070" lon="2.650250">
        <ele>392.897247</ele>
        <time>2010-01-02T03:41:27Z</time>
      </trkpt>
      <trkpt lat="44.000730" lon="2.650030">
        <ele>393.953033</ele>
        <time>2010-01-02T03:41:39Z</time>
      </trkpt>
      <trkpt lat="44.000620" lon="2.649890">
        <ele>393.445007</ele>
        <time>2010-01-02T03:41:48Z</time>
      </trkpt>
      <trkpt lat="44.000410" lon="2.649020">
        <ele>384.122498</ele>
      </trkpt>
      <trkpt lat="43.999983" lon="2.648147">
        <ele>381.872375</ele>
      </trkpt>
      <trkpt lat="43.999983" lon="2.647782">
        <ele>375.625183</ele>
      </trkpt>
      <trkpt lat="43.999929" lon="2.647600">
        <ele>376.012909</ele>
      </trkpt>
      <trkpt lat="43.999767" lon="2.647300">
        <ele>381.037262</ele>
      </trkpt>
      <trkpt lat="43.999680" lon="2.646920">
        <ele>387.129791</ele>
      </trkpt>
      <trkpt lat="44.000000" lon="2.645900">
        <ele>366.723755</ele>
      </trkpt>
      <trkpt lat="44.000000" lon="2.645610">
        <ele>365.394989</ele>
      </trkpt>
      <trkpt lat="43.999880" lon="2.644950">
        <ele>371.715515</ele>
      </trkpt>
      <trkpt lat="43.999890" lon="2.644730">
        <ele>371.825989</ele>
      </trkpt>
      <trkpt lat="44.000240" lon="2.643880">
        <ele>355.52</ele>
      </trkpt>
      <trkpt lat="44.000310" lon="2.643240">
        <ele>348.61</ele>
      </trkpt>
      <trkpt lat="44.000290" lon="2.642960">
        <ele>349.96</ele>
      </trkpt>
      <trkpt lat="44.000080" lon="2.642320">
        <ele>352.60</ele>
      </trkpt>
      <trkpt lat="44.000030" lon="2.642010">
        <ele>352.60</ele>
      </trkpt>
      <trkpt lat="44.000080" lon="2.641390">
        <ele>352.482483</ele>
      </trkpt>
      <trkpt lat="44.000180" lon="2.641030">
        <ele>346.156250</ele>
      </trkpt>
      <trkpt lat="44.000300" lon="2.640440">
        <ele>338.14</ele>
      </trkpt>
      <trkpt lat="44.000310" lon="2.639740">
        <ele>336.041260</ele>
      </trkpt>
      <trkpt lat="44.000360" lon="2.639310">
        <ele>330.997498</ele>
      </trkpt>
      <trkpt lat="44.000340" lon="2.638400">
        <ele>322.176025</ele>
      </trkpt>
      <trkpt lat="44.000250" lon="2.638090">
        <ele>320.22</ele>
      </trkpt>
      <trkpt lat="43.999780" lon="2.637550">
        <ele>315.24</ele>
      </trkpt>
      <trkpt lat="43.999500" lon="2.637060">
        <ele>313.140808</ele>
      </trkpt>
      <trkpt lat="43.999330" lon="2.636910">
        <ele>313.71</ele>
      </trkpt>
      <trkpt lat="43.998690" lon="2.636710">
        <ele>313.71</ele>
      </trkpt>
      <trkpt lat="43.997920" lon="2.636380">
        <ele>303.53</ele>
      </trkpt>
      <trkpt lat="43.997750" lon="2.636450">
        <ele>303.53</ele>
      </trkpt>
      <trkpt lat="43.997550" lon="2.636670">
        <ele>303.53</ele>
      </trkpt>
      <trkpt lat="43.997410" lon="2.636690">
        <ele>303.53</ele>
      </trkpt>
      <trkpt lat="43.997330" lon="2.636580">
        <ele>308.55</ele>
      </trkpt>
      <trkpt lat="43.997240" lon="2.636180">
        <ele>297.800293</ele>
      </trkpt>
      <trkpt lat="43.996930" lon="2.635750">
        <ele>296.964447</ele>
      </trkpt>
      <trkpt lat="43.996610" lon="2.634980">
        <ele>293.352875</ele>
      </trkpt>
      <trkpt lat="43.996450" lon="2.634190">
        <ele>291.269714</ele>
      </trkpt>
      <trkpt lat="43.996430" lon="2.633870">
        <ele>291.224030</ele>
      </trkpt>
      <trkpt lat="43.996460" lon="2.633580">
        <ele>289.223755</ele>
      </trkpt>
      <trkpt lat="43.996700" lon="2.632900">
        <ele>281.536682</ele>
      </trkpt>
      <trkpt lat="43.996630" lon="2.631670">
        <ele>280.472992</ele>
      </trkpt>
      <trkpt lat="43.996780" lon="2.630910">
        <ele>270.86</ele>
      </trkpt>
      <trkpt lat="43.996780" lon="2.629950">
        <ele>263.31</ele>
      </trkpt>
      <trkpt lat="43.996740" lon="2.629600">
        <ele>261.76</ele>
      </trkpt>
      <trkpt lat="43.996400" lon="2.628270">
        <ele>261.76</ele>
      </trkpt>
      <trkpt lat="43.996650" lon="2.628060">
        <ele>261.805145</ele>
      </trkpt>
      <trkpt lat="43.996660" lon="2.627910">
        <ele>260.76</ele>
      </trkpt>
      <trkpt lat="43.996520" lon="2.627180">
        <ele>258.76</ele>
      </trkpt>
      <trkpt lat="43.996530" lon="2.626840">
        <ele>255.76</ele>
      </trkpt>
      <trkpt lat="43.996640" lon="2.626290">
        <ele>253.90</ele>
      </trkpt>
      <trkpt lat="43.996760" lon="2.626030">
        <ele>252.52</ele>
      </trkpt>
      <trkpt lat="43.997220" lon="2.625700">
        <ele>252.52</ele>
      </trkpt>
      <trkpt lat="43.997410" lon="2.625400">
        <ele>252.52</ele>
      </trkpt>
      <trkpt lat="43.997560" lon="2.624930">
        <ele>247.05</ele>
      </trkpt>
      <trkpt lat="43.997620" lon="2.624430">
        <ele>245.09</ele>
      </trkpt>
      <trkpt lat="43.997860" lon="2.623180">
        <ele>244.80</ele>
      </trkpt>
      <trkpt lat="43.998040" lon="2.622930">
        <ele>244.80</ele>
      </trkpt>
      <trkpt lat="43.997140" lon="2.621870">
        <ele>244.80</ele>
      </trkpt>
      <trkpt lat="43.997440" lon="2.621370">
        <ele>245.65</ele>
      </trkpt>
      <trkpt lat="43.998820" lon="2.618470">
        <ele>247.23</ele>
      </trkpt>
      <trkpt lat="43.999750" lon="2.616040">
        <ele>246.75</ele>
      </trkpt>
      <trkpt lat="44.000120" lon="2.614670">
        <ele>248.00</ele>
      </trkpt>
      <trkpt lat="44.000320" lon="2.614190">
        <ele>248.00</ele>
      </trkpt>
      <trkpt lat="44.001020" lon="2.612740">
        <ele>249.16</ele>
      </trkpt>
      <trkpt lat="44.001460" lon="2.612100">
        <ele>249.08</ele>
      </trkpt>
      <trkpt lat="44.002590" lon="2.610230">
        <ele>250.443069</ele>
      </trkpt>
      <trkpt lat="44.003140" lon="2.609630">
        <ele>252.19</ele>
      </trkpt>
      <trkpt lat="44.003460" lon="2.609200">
        <ele>252.19</ele>
      </trkpt>
      <trkpt lat="44.003780" lon="2.609160">
        <ele>252.19</ele>
      </trkpt>
      <trkpt lat="44.004180" lon="2.608970">
        <ele>252.19</ele>
      </trkpt>
      <trkpt lat="44.004850" lon="2.608820">
        <ele>252.19</ele>
      </trkpt>
      <trkpt lat="44.005070" lon="2.608820">
        <ele>252.19</ele>
      </trkpt>
      <trkpt lat="44.006480" lon="2.609144">
        <ele>252.19</ele>
      </trkpt>
      <trkpt lat="44.006786" lon="2.609118">
        <ele>252.203644</ele>
      </trkpt>
      <trkpt lat="44.007370" lon="2.608920">
        <ele>247.00</ele>
      </trkpt>
      <trkpt lat="44.007640" lon="2.608650">
        <ele>248.74</ele>
      </trkpt>
      <trkpt lat="44.007880" lon="2.608040">
        <ele>249.74</ele>
      </trkpt>
      <trkpt lat="44.008060" lon="2.607390">
        <ele>250.74</ele>
      </trkpt>
      <trkpt lat="44.008120" lon="2.606640">
        <ele>251.74</ele>
      </trkpt>
      <trkpt lat="44.008020" lon="2.605790">
        <ele>252.74</ele>
      </trkpt>
      <trkpt lat="44.007820" lon="2.605370">
        <ele>254.28</ele>
      </trkpt>
      <trkpt lat="44.006920" lon="2.604880">
        <ele>254.28</ele>
      </trkpt>
      <trkpt lat="44.006550" lon="2.604500">
        <ele>254.28</ele>
      </trkpt>
      <trkpt lat="44.005450" lon="2.603530">
        <ele>254.28</ele>
      </trkpt>
      <trkpt lat="44.005280" lon="2.603240">
        <ele>254.28</ele>
      </trkpt>
      <trkpt lat="44.005050" lon="2.602600">
        <ele>255.28</ele>
      </trkpt>
      <trkpt lat="44.004730" lon="2.601880">
        <ele>255.28</ele>
      </trkpt>
      <trkpt lat="44.004650" lon="2.601550">
        <ele>256.728149</ele>
      </trkpt>
      <trkpt lat="44.004620" lon="2.601080">
        <ele>256.418640</ele>
      </trkpt>
      <trkpt lat="44.004520" lon="2.600710">
        <ele>254.13</ele>
      </trkpt>
      <trkpt lat="44.004510" lon="2.600520">
        <ele>254.13</ele>
      </trkpt>
      <trkpt lat="44.004650" lon="2.600240">
        <ele>254.13</ele>
      </trkpt>
      <trkpt lat="44.004720" lon="2.599990">
        <ele>253.87</ele>
      </trkpt>
      <trkpt lat="44.004720" lon="2.599370">
        <ele>253.87</ele>
      </trkpt>
      <trkpt lat="44.005050" lon="2.597580">
        <ele>253.87</ele>
      </trkpt>
      <trkpt lat="44.005420" lon="2.596450">
        <ele>253.87</ele>
      </trkpt>
      <trkpt lat="44.005910" lon="2.595900">
        <ele>253.87</ele>
      </trkpt>
      <trkpt lat="44.006230" lon="2.595610">
        <ele>249.34</ele>
      </trkpt>
      <trkpt lat="44.006630" lon="2.595010">
        <ele>245.14</ele>
      </trkpt>
      <trkpt lat="44.006760" lon="2.594630">
        <ele>245.539948</ele>
      </trkpt>
      <trkpt lat="44.006970" lon="2.593670">
        <ele>244.604355</ele>
      </trkpt>
      <trkpt lat="44.006980" lon="2.593270">
        <ele>244.67</ele>
      </trkpt>
      <trkpt lat="44.006870" lon="2.592860">
        <ele>244.67</ele>
      </trkpt>
      <trkpt lat="44.006580" lon="2.592400">
        <ele>249.86</ele>
      </trkpt>
      <trkpt lat="44.006450" lon="2.592080">
        <ele>249.86</ele>
      </trkpt>
      <trkpt lat="44.006390" lon="2.590730">
        <ele>247.54</ele>
      </trkpt>
      <trkpt lat="44.006210" lon="2.589750">
        <ele>244.089600</ele>
      </trkpt>
      <trkpt lat="44.006090" lon="2.589340">
        <ele>244.521561</ele>
      </trkpt>
      <trkpt lat="44.005850" lon="2.588790">
        <ele>245.98</ele>
      </trkpt>
      <trkpt lat="44.005350" lon="2.587910">
        <ele>245.98</ele>
      </trkpt>
      <trkpt lat="44.005150" lon="2.587020">
        <ele>246.012878</ele>
      </trkpt>
      <trkpt lat="44.004890" lon="2.586190">
        <ele>247.221024</ele>
      </trkpt>
      <trkpt lat="44.004810" lon="2.585720">
        <ele>244.52</ele>
      </trkpt>
      <trkpt lat="44.004800" lon="2.584810">
        <ele>244.52</ele>
      </trkpt>
      <trkpt lat="44.004710" lon="2.584220">
        <ele>243.72</ele>
      </trkpt>
      <trkpt lat="44.003900" lon="2.582830">
        <ele>243.72</ele>
      </trkpt>
      <trkpt lat="44.003260" lon="2.581870">
        <ele>245.12</ele>
      </trkpt>
      <trkpt lat="44.002920" lon="2.580630">
        <ele>243.007996</ele>
      </trkpt>
      <trkpt lat="44.002680" lon="2.580050">
        <ele>240.49</ele>
      </trkpt>
      <trkpt lat="44.002180" lon="2.579490">
        <ele>240.49</ele>
      </trkpt>
      <trkpt lat="44.002100" lon="2.579340">
        <ele>240.201996</ele>
      </trkpt>
      <trkpt lat="44.002050" lon="2.578910">
        <ele>241.33</ele>
      </trkpt>
      <trkpt lat="44.001860" lon="2.578470">
        <ele>241.33</ele>
      </trkpt>
      <trkpt lat="44.001760" lon="2.577960">
        <ele>241.33</ele>
      </trkpt>
      <trkpt lat="44.001360" lon="2.576620">
        <ele>241.33</ele>
      </trkpt>
      <trkpt lat="44.001040" lon="2.575360">
        <ele>241.33</ele>
      </trkpt>
      <trkpt lat="44.000970" lon="2.575000">
        <ele>241.33</ele>
      </trkpt>
      <trkpt lat="44.000970" lon="2.574650">
        <ele>241.33</ele>
      </trkpt>
      <trkpt lat="44.001170" lon="2.572830">
        <ele>241.94</ele>
      </trkpt>
      <trkpt lat="44.001150" lon="2.571760">
        <ele>240.43</ele>
      </trkpt>
      <trkpt lat="44.001490" lon="2.570810">
        <ele>239.87</ele>
      </trkpt>
      <trkpt lat="44.001780" lon="2.569360">
        <ele>239.30</ele>
      </trkpt>
      <trkpt lat="44.001790" lon="2.569170">
        <ele>238.65</ele>
      </trkpt>
      <trkpt lat="44.001668" lon="2.568018">
        <ele>238.65</ele>
      </trkpt>
      <trkpt lat="44.001892" lon="2.567146">
        <ele>238.65</ele>
      </trkpt>
      <trkpt lat="44.001713" lon="2.566429">
        <ele>238.65</ele>
      </trkpt>
      <trkpt lat="44.001381" lon="2.565635">
        <ele>238.65</ele>
      </trkpt>
      <trkpt lat="44.001012" lon="2.565166">
        <ele>238.65</ele>
      </trkpt>
      <trkpt lat="44.000412" lon="2.564853">
        <ele>238.65</ele>
      </trkpt>
      <trkpt lat="43.999308" lon="2.564762">
        <ele>238.65</ele>
      </trkpt>
      <trkpt lat="43.998625" lon="2.564879">
        <ele>238.65</ele>
      </trkpt>
      <trkpt lat="43.998454" lon="2.562925">
        <ele>238.65</ele>
      </trkpt>
      <trkpt lat="43.998790" lon="2.561870">
        <ele>246.80</ele>
      </trkpt>
      <trkpt lat="43.999220" lon="2.561140">
        <ele>259.32</ele>
      </trkpt>
      <trkpt lat="43.999370" lon="2.561000">
        <ele>259.32</ele>
      </trkpt>
      <trkpt lat="43.999940" lon="2.561140">
        <ele>259.32</ele>
      </trkpt>
      <trkpt lat="44.000549" lon="2.561531">
        <ele>259.32</ele>
      </trkpt>
      <trkpt lat="44.000935" lon="2.561857">
        <ele>260.29</ele>
      </trkpt>
      <trkpt lat="44.001303" lon="2.561818">
        <ele>262.968048</ele>
      </trkpt>
      <trkpt lat="44.001630" lon="2.561740">
        <ele>269.05</ele>
      </trkpt>
      <trkpt lat="44.002120" lon="2.561500">
        <ele>275.34</ele>
      </trkpt>
      <trkpt lat="44.002720" lon="2.561480">
        <ele>275.34</ele>
      </trkpt>
      <trkpt lat="44.003120" lon="2.560950">
        <ele>288.41</ele>
      </trkpt>
      <trkpt lat="44.003420" lon="2.560880">
        <ele>289.818817</ele>
      </trkpt>
      <trkpt lat="44.005070" lon="2.561520">
        <ele>291.316010</ele>
      </trkpt>
      <trkpt lat="44.005890" lon="2.561520">
        <ele>303.765930</ele>
      </trkpt>
      <trkpt lat="44.007030" lon="2.562260">
        <ele>302.890381</ele>
      </trkpt>
      <trkpt lat="44.007680" lon="2.562560">
        <ele>307.046173</ele>
      </trkpt>
      <trkpt lat="44.008790" lon="2.562580">
        <ele>320.76</ele>
      </trkpt>
      <trkpt lat="44.009130" lon="2.562860">
        <ele>320.76</ele>
      </trkpt>
      <trkpt lat="44.009680" lon="2.563060">
        <ele>326.08</ele>
      </trkpt>
      <trkpt lat="44.010157" lon="2.563459">
        <ele>328.08</ele>
      </trkpt>
      <trkpt lat="44.010633" lon="2.563485">
        <ele>334.05</ele>
      </trkpt>
      <trkpt lat="44.010957" lon="2.563303">
        <ele>340.52</ele>
      </trkpt>
      <trkpt lat="44.011181" lon="2.562925">
        <ele>340.52</ele>
      </trkpt>
      <trkpt lat="44.011226" lon="2.562482">
        <ele>340.729370</ele>
      </trkpt>
      <trkpt lat="44.011262" lon="2.562156">
        <ele>341.400818</ele>
      </trkpt>
      <trkpt lat="44.011423" lon="2.561922">
        <ele>343.555176</ele>
      </trkpt>
      <trkpt lat="44.011810" lon="2.561910">
        <ele>347.41</ele>
      </trkpt>
      <trkpt lat="44.012450" lon="2.561450">
        <ele>354.10</ele>
      </trkpt>
      <trkpt lat="44.013140" lon="2.561190">
        <ele>357.762482</ele>
      </trkpt>
      <trkpt lat="44.013400" lon="2.561030">
        <ele>361.223755</ele>
      </trkpt>
      <trkpt lat="44.013820" lon="2.560500">
        <ele>362.51</ele>
      </trkpt>
      <trkpt lat="44.014140" lon="2.560210">
        <ele>367.09</ele>
      </trkpt>
      <trkpt lat="44.014280" lon="2.559990">
        <ele>367.489990</ele>
      </trkpt>
      <trkpt lat="44.014420" lon="2.559590">
        <ele>370.915497</ele>
      </trkpt>
      <trkpt lat="44.014550" lon="2.559040">
        <ele>374.499573</ele>
      </trkpt>
      <trkpt lat="44.014650" lon="2.558270">
        <ele>380.350952</ele>
      </trkpt>
      <trkpt lat="44.014950" lon="2.557470">
        <ele>388.555939</ele>
      </trkpt>
      <trkpt lat="44.015120" lon="2.557190">
        <ele>391.204102</ele>
      </trkpt>
      <trkpt lat="44.015700" lon="2.556570">
        <ele>393.360962</ele>
      </trkpt>
      <trkpt lat="44.016000" lon="2.555850">
        <ele>398.536713</ele>
      </trkpt>
      <trkpt lat="44.016810" lon="2.554630">
        <ele>401.073151</ele>
      </trkpt>
      <trkpt lat="44.016900" lon="2.554310">
        <ele>401.757294</ele>
      </trkpt>
      <trkpt lat="44.016830" lon="2.553550">
        <ele>410.42</ele>
      </trkpt>
      <trkpt lat="44.016860" lon="2.553150">
        <ele>414.027740</ele>
      </trkpt>
      <trkpt lat="44.017010" lon="2.552770">
        <ele>415.341644</ele>
      </trkpt>
      <trkpt lat="44.017430" lon="2.552250">
        <ele>418.765991</ele>
      </trkpt>
      <trkpt lat="44.017850" lon="2.551340">
        <ele>431.179504</ele>
      </trkpt>
      <trkpt lat="44.018140" lon="2.550880">
        <ele>432.57</ele>
      </trkpt>
      <trkpt lat="44.018860" lon="2.550250">
        <ele>433.755920</ele>
      </trkpt>
      <trkpt lat="44.019330" lon="2.549210">
        <ele>445.971741</ele>
      </trkpt>
      <trkpt lat="44.019450" lon="2.549010">
        <ele>446.62</ele>
      </trkpt>
      <trkpt lat="44.019910" lon="2.548460">
        <ele>446.610229</ele>
      </trkpt>
      <trkpt lat="44.020160" lon="2.548050">
        <ele>448.71</ele>
      </trkpt>
      <trkpt lat="44.020520" lon="2.546880">
        <ele>452.85</ele>
      </trkpt>
      <trkpt lat="44.021070" lon="2.545610">
        <ele>455.025208</ele>
      </trkpt>
      <trkpt lat="44.021160" lon="2.545180">
        <ele>460.118378</ele>
      </trkpt>
      <trkpt lat="44.021110" lon="2.544740">
        <ele>462.294250</ele>
      </trkpt>
      <trkpt lat="44.020290" lon="2.542960">
        <ele>478.174133</ele>
      </trkpt>
      <trkpt lat="44.020313" lon="2.542642">
        <ele>481.079010</ele>
      </trkpt>
      <trkpt lat="44.020492" lon="2.542421">
        <ele>488.786926</ele>
      </trkpt>
      <trkpt lat="44.020960" lon="2.542290">
        <ele>488.054626</ele>
      </trkpt>
      <trkpt lat="44.021150" lon="2.542070">
        <ele>488.888855</ele>
      </trkpt>
      <trkpt lat="44.021373" lon="2.541613">
        <ele>498.512634</ele>
      </trkpt>
      <trkpt lat="44.021660" lon="2.541500">
        <ele>498.783173</ele>
      </trkpt>
      <trkpt lat="44.022080" lon="2.541490">
        <ele>499.22</ele>
      </trkpt>
      <trkpt lat="44.022320" lon="2.541320">
        <ele>500.18</ele>
      </trkpt>
      <trkpt lat="44.023320" lon="2.539800">
        <ele>510.963287</ele>
      </trkpt>
      <trkpt lat="44.024420" lon="2.538510">
        <ele>524.100037</ele>
      </trkpt>
      <trkpt lat="44.024600" lon="2.538210">
        <ele>524.221252</ele>
      </trkpt>
      <trkpt lat="44.024760" lon="2.537770">
        <ele>526.278259</ele>
      </trkpt>
      <trkpt lat="44.024930" lon="2.537560">
        <ele>528.986694</ele>
      </trkpt>
      <trkpt lat="44.025620" lon="2.537270">
        <ele>531.568726</ele>
      </trkpt>
      <trkpt lat="44.025930" lon="2.537010">
        <ele>534.077454</ele>
      </trkpt>
      <trkpt lat="44.026510" lon="2.536370">
        <ele>539.527161</ele>
      </trkpt>
      <trkpt lat="44.026830" lon="2.536160">
        <ele>539.904846</ele>
      </trkpt>
      <trkpt lat="44.027280" lon="2.536000">
        <ele>539.581909</ele>
      </trkpt>
      <trkpt lat="44.028816" lon="2.534513">
        <ele>562.352539</ele>
      </trkpt>
      <trkpt lat="44.029690" lon="2.534860">
        <ele>562.987732</ele>
      </trkpt>
      <trkpt lat="44.030620" lon="2.535790">
        <ele>563.912415</ele>
      </trkpt>
      <trkpt lat="44.030900" lon="2.535930">
        <ele>565.381958</ele>
      </trkpt>
      <trkpt lat="44.030970" lon="2.535610">
        <ele>564.723450</ele>
      </trkpt>
      <trkpt lat="44.030900" lon="2.535930">
        <ele>565.38</ele>
        <time>2010-01-01T16:12:53Z</time>
      </trkpt>
      <trkpt lat="44.031010" lon="2.535440">
        <ele>565.38</ele>
        <time>2010-01-01T16:13:07Z</time>
      </trkpt>
      <trkpt lat="44.031462" lon="2.535619">
        <ele>566.35</ele>
        <time>2010-01-01T16:13:26Z</time>
      </trkpt>
      <trkpt lat="44.031863" lon="2.535812">
        <ele>568.373535</ele>
        <time>2010-01-01T16:13:43Z</time>
      </trkpt>
      <trkpt lat="44.031940" lon="2.535909">
        <ele>568.852478</ele>
        <time>2010-01-01T16:13:47Z</time>
      </trkpt>
      <trkpt lat="44.031477" lon="2.537601">
        <ele>573.289978</ele>
        <time>2010-01-01T16:16:59Z</time>
      </trkpt>
      <trkpt lat="44.030992" lon="2.539867">
        <ele>579.567505</ele>
        <time>2010-01-01T16:18:36Z</time>
      </trkpt>
      <trkpt lat="44.031090" lon="2.540024">
        <ele>579.824402</ele>
        <time>2010-01-01T16:19:39Z</time>
      </trkpt>
      <trkpt lat="44.031315" lon="2.539919">
        <ele>578.830750</ele>
        <time>2010-01-01T16:20:04Z</time>
      </trkpt>
      <trkpt lat="44.031930" lon="2.538430">
        <ele>575.923096</ele>
        <time>2010-01-01T16:21:06Z</time>
      </trkpt>
      <trkpt lat="44.033040" lon="2.535430">
        <ele>565.415100</ele>
        <time>2010-01-01T16:21:37Z</time>
      </trkpt>
      <trkpt lat="44.034140" lon="2.533840">
        <ele>558.646240</ele>
        <time>2010-01-01T16:22:02Z</time>
      </trkpt>
      <trkpt lat="44.034490" lon="2.533140">
        <ele>557.447998</ele>
        <time>2010-01-01T16:22:08Z</time>
      </trkpt>
      <trkpt lat="44.035520" lon="2.531520">
        <ele>553.020020</ele>
        <time>2010-01-01T16:22:48Z</time>
      </trkpt>
      <trkpt lat="44.036130" lon="2.530870">
        <ele>549.933472</ele>
        <time>2010-01-01T16:23:04Z</time>
      </trkpt>
      <trkpt lat="44.036580" lon="2.530280">
        <ele>545.890625</ele>
        <time>2010-01-01T16:23:32Z</time>
      </trkpt>
      <trkpt lat="44.036710" lon="2.530170">
        <ele>545.205933</ele>
        <time>2010-01-01T16:24:25Z</time>
      </trkpt>
      <trkpt lat="44.037640" lon="2.529620">
        <ele>541.461304</ele>
        <time>2010-01-01T16:24:30Z</time>
      </trkpt>
      <trkpt lat="44.038010" lon="2.529460">
        <ele>540.856262</ele>
        <time>2010-01-01T16:24:57Z</time>
      </trkpt>
      <trkpt lat="44.038720" lon="2.529460">
        <ele>539.369995</ele>
        <time>2010-01-01T16:25:15Z</time>
      </trkpt>
      <trkpt lat="44.039630" lon="2.529224">
        <ele>537.384399</ele>
        <time>2010-01-01T16:25:25Z</time>
      </trkpt>
      <trkpt lat="44.039790" lon="2.529070">
        <ele>536.869568</ele>
        <time>2010-01-01T16:25:36Z</time>
      </trkpt>
      <trkpt lat="44.039700" lon="2.528930">
        <ele>536.743835</ele>
        <time>2010-01-01T16:26:40Z</time>
      </trkpt>
      <trkpt lat="44.039900" lon="2.528050">
        <ele>534.351685</ele>
        <time>2010-01-01T16:27:00Z</time>
      </trkpt>
      <trkpt lat="44.040040" lon="2.527450">
        <ele>532.95</ele>
        <time>2010-01-01T16:27:38Z</time>
      </trkpt>
      <trkpt lat="44.040030" lon="2.527110">
        <ele>532.542480</ele>
        <time>2010-01-01T16:28:16Z</time>
      </trkpt>
      <trkpt lat="44.039950" lon="2.526750">
        <ele>532.097473</ele>
        <time>2010-01-01T16:28:26Z</time>
      </trkpt>
      <trkpt lat="44.039825" lon="2.526463">
        <ele>532.30</ele>
        <time>2010-01-01T16:29:26Z</time>
      </trkpt>
      <trkpt lat="44.038850" lon="2.525120">
        <ele>540.83</ele>
        <time>2010-01-01T16:30:04Z</time>
      </trkpt>
      <trkpt lat="44.038480" lon="2.524670">
        <ele>540.83</ele>
        <time>2010-01-01T16:33:13Z</time>
      </trkpt>
      <trkpt lat="44.037660" lon="2.524020">
        <ele>541.21</ele>
        <time>2010-01-01T16:34:10Z</time>
      </trkpt>
      <trkpt lat="44.036790" lon="2.523440">
        <ele>541.535278</ele>
        <time>2010-01-01T16:34:44Z</time>
      </trkpt>
      <trkpt lat="44.036560" lon="2.523340">
        <ele>542.545898</ele>
        <time>2010-01-01T16:37:43Z</time>
      </trkpt>
      <trkpt lat="44.037020" lon="2.521350">
        <ele>542.574402</ele>
        <time>2010-01-01T16:38:12Z</time>
      </trkpt>
      <trkpt lat="44.037390" lon="2.520130">
        <ele>542.27</ele>
        <time>2010-01-01T16:38:39Z</time>
      </trkpt>
      <trkpt lat="44.039530" lon="2.514280">
        <ele>536.36</ele>
        <time>2010-01-01T16:39:14Z</time>
      </trkpt>
      <trkpt lat="44.040140" lon="2.512500">
        <ele>533.316223</ele>
        <time>2010-01-01T16:41:34Z</time>
      </trkpt>
      <trkpt lat="44.040440" lon="2.511380">
        <ele>531.445129</ele>
        <time>2010-01-01T16:41:54Z</time>
      </trkpt>
      <trkpt lat="44.040947" lon="2.508472">
        <ele>525.848755</ele>
        <time>2010-01-01T16:42:15Z</time>
      </trkpt>
      <trkpt lat="44.041500" lon="2.505340">
        <ele>522.000000</ele>
        <time>2010-01-01T16:42:28Z</time>
      </trkpt>
      <trkpt lat="44.041710" lon="2.504380">
        <ele>522.252441</ele>
        <time>2010-01-01T16:43:11Z</time>
      </trkpt>
      <trkpt lat="44.041980" lon="2.503520">
        <ele>521.752502</ele>
        <time>2010-01-01T16:44:31Z</time>
      </trkpt>
      <trkpt lat="44.042440" lon="2.502500">
        <ele>521.206238</ele>
        <time>2010-01-01T16:44:39Z</time>
      </trkpt>
      <trkpt lat="44.044540" lon="2.498580">
        <ele>520.802551</ele>
        <time>2010-01-01T16:44:49Z</time>
      </trkpt>
      <trkpt lat="44.044740" lon="2.497950">
        <ele>520.673828</ele>
        <time>2010-01-01T16:47:18Z</time>
      </trkpt>
      <trkpt lat="44.044830" lon="2.497240">
        <ele>520.353271</ele>
        <time>2010-01-01T16:47:31Z</time>
      </trkpt>
      <trkpt lat="44.044810" lon="2.496790">
        <ele>520.52</ele>
        <time>2010-01-01T16:47:43Z</time>
      </trkpt>
      <trkpt lat="44.044580" lon="2.495330">
        <ele>519.01</ele>
        <time>2010-01-01T16:47:50Z</time>
      </trkpt>
      <trkpt lat="44.044070" lon="2.492630">
        <ele>518.944336</ele>
        <time>2010-01-01T16:48:06Z</time>
      </trkpt>
      <trkpt lat="44.044040" lon="2.492350">
        <ele>518.238831</ele>
        <time>2010-01-01T16:48:20Z</time>
      </trkpt>
      <trkpt lat="44.044060" lon="2.492020">
        <ele>516.15</ele>
        <time>2010-01-01T16:49:00Z</time>
      </trkpt>
      <trkpt lat="44.044930" lon="2.486990">
        <ele>522.92</ele>
        <time>2010-01-01T16:49:16Z</time>
      </trkpt>
      <trkpt lat="44.045250" lon="2.486970">
        <ele>523.690002</ele>
        <time>2010-01-01T16:49:32Z</time>
      </trkpt>
      <trkpt lat="44.045540" lon="2.486840">
        <ele>524.404297</ele>
        <time>2010-01-01T16:50:24Z</time>
      </trkpt>
      <trkpt lat="44.045700" lon="2.486760">
        <ele>524.569031</ele>
        <time>2010-01-01T16:50:42Z</time>
      </trkpt>
      <trkpt lat="44.046030" lon="2.486450">
        <ele>525.635010</ele>
        <time>2010-01-01T16:51:02Z</time>
      </trkpt>
      <trkpt lat="44.046250" lon="2.486070">
        <ele>527.142578</ele>
        <time>2010-01-01T16:51:31Z</time>
      </trkpt>
      <trkpt lat="44.046680" lon="2.484790">
        <ele>531.076477</ele>
        <time>2010-01-01T16:52:47Z</time>
      </trkpt>
      <trkpt lat="44.046900" lon="2.484350">
        <ele>532.897400</ele>
        <time>2010-01-01T16:53:07Z</time>
      </trkpt>
      <trkpt lat="44.047220" lon="2.484000">
        <ele>534.150024</ele>
        <time>2010-01-01T16:53:23Z</time>
      </trkpt>
      <trkpt lat="44.048400" lon="2.483220">
        <ele>540.185852</ele>
        <time>2010-01-01T16:53:49Z</time>
      </trkpt>
      <trkpt lat="44.048740" lon="2.482850">
        <ele>541.297974</ele>
        <time>2010-01-01T16:54:17Z</time>
      </trkpt>
      <trkpt lat="44.049050" lon="2.482300">
        <ele>542.53</ele>
        <time>2010-01-01T16:54:36Z</time>
      </trkpt>
      <trkpt lat="44.049370" lon="2.481380">
        <ele>542.53</ele>
        <time>2010-01-01T16:56:46Z</time>
      </trkpt>
      <trkpt lat="44.050150" lon="2.478960">
        <ele>541.54</ele>
        <time>2010-01-01T16:57:08Z</time>
      </trkpt>
      <trkpt lat="44.050390" lon="2.478350">
        <ele>541.228333</ele>
        <time>2010-01-01T16:58:04Z</time>
      </trkpt>
      <trkpt lat="44.050650" lon="2.477930">
        <ele>541.29</ele>
        <time>2010-01-01T16:58:21Z</time>
      </trkpt>
      <trkpt lat="44.051160" lon="2.477390">
        <ele>540.45</ele>
        <time>2010-01-01T16:59:07Z</time>
      </trkpt>
      <trkpt lat="44.051810" lon="2.477050">
        <ele>540.229980</ele>
        <time>2010-01-01T16:59:26Z</time>
      </trkpt>
      <trkpt lat="44.052290" lon="2.477000">
        <ele>540.395020</ele>
        <time>2010-01-01T16:59:44Z</time>
      </trkpt>
      <trkpt lat="44.055530" lon="2.477300">
        <ele>536.463745</ele>
        <time>2010-01-01T17:00:00Z</time>
      </trkpt>
      <trkpt lat="44.056080" lon="2.477200">
        <ele>534.756104</ele>
        <time>2010-01-01T17:00:12Z</time>
      </trkpt>
      <trkpt lat="44.057450" lon="2.476790">
        <ele>531.344238</ele>
        <time>2010-01-01T17:00:26Z</time>
      </trkpt>
      <trkpt lat="44.057870" lon="2.476770">
        <ele>530.865784</ele>
        <time>2010-01-01T17:02:46Z</time>
      </trkpt>
      <trkpt lat="44.059000" lon="2.476950">
        <ele>530.979919</ele>
        <time>2010-01-01T17:04:35Z</time>
      </trkpt>
      <trkpt lat="44.059470" lon="2.476940">
        <ele>530.045349</ele>
        <time>2010-01-01T17:05:44Z</time>
      </trkpt>
      <trkpt lat="44.059910" lon="2.476790">
        <ele>527.820007</ele>
        <time>2010-01-01T17:06:10Z</time>
      </trkpt>
      <trkpt lat="44.060280" lon="2.476520">
        <ele>526.130005</ele>
        <time>2010-01-01T17:07:22Z</time>
      </trkpt>
      <trkpt lat="44.060490" lon="2.476270">
        <ele>525.164185</ele>
        <time>2010-01-01T17:09:58Z</time>
      </trkpt>
      <trkpt lat="44.060720" lon="2.475900">
        <ele>524.010010</ele>
        <time>2010-01-01T17:10:23Z</time>
      </trkpt>
      <trkpt lat="44.062760" lon="2.471910">
        <ele>521.96</ele>
        <time>2010-01-01T17:11:05Z</time>
      </trkpt>
      <trkpt lat="44.063980" lon="2.468540">
        <ele>521.96</ele>
        <time>2010-01-01T17:11:34Z</time>
      </trkpt>
      <trkpt lat="44.064960" lon="2.466580">
        <ele>521.137390</ele>
        <time>2010-01-01T17:12:02Z</time>
      </trkpt>
      <trkpt lat="44.065360" lon="2.465850">
        <ele>521.052185</ele>
        <time>2010-01-01T17:12:49Z</time>
      </trkpt>
      <trkpt lat="44.066600" lon="2.464050">
        <ele>521.372498</ele>
        <time>2010-01-01T17:14:26Z</time>
      </trkpt>
      <trkpt lat="44.069030" lon="2.459810">
        <ele>512.430115</ele>
        <time>2010-01-01T17:15:22Z</time>
      </trkpt>
      <trkpt lat="44.069500" lon="2.459210">
        <ele>511.702515</ele>
        <time>2010-01-01T17:16:34Z</time>
      </trkpt>
      <trkpt lat="44.070350" lon="2.458350">
        <ele>510.023010</ele>
        <time>2010-01-01T17:17:00Z</time>
      </trkpt>
      <trkpt lat="44.070880" lon="2.457690">
        <ele>508.299133</ele>
        <time>2010-01-01T17:18:35Z</time>
      </trkpt>
      <trkpt lat="44.071350" lon="2.456970">
        <ele>506.554993</ele>
        <time>2010-01-01T17:19:24Z</time>
      </trkpt>
      <trkpt lat="44.072090" lon="2.455690">
        <ele>504.820831</ele>
        <time>2010-01-01T17:23:16Z</time>
      </trkpt>
      <trkpt lat="44.073770" lon="2.453250">
        <ele>502.046356</ele>
        <time>2010-01-01T17:24:32Z</time>
      </trkpt>
      <trkpt lat="44.074630" lon="2.451710">
        <ele>497.18</ele>
        <time>2010-01-01T17:25:08Z</time>
      </trkpt>
      <trkpt lat="44.075590" lon="2.449610">
        <ele>496.77</ele>
        <time>2010-01-01T17:25:57Z</time>
      </trkpt>
      <trkpt lat="44.076030" lon="2.448930">
        <ele>496.77</ele>
        <time>2010-01-01T17:26:57Z</time>
      </trkpt>
      <trkpt lat="44.077910" lon="2.446950">
        <ele>499.93</ele>
        <time>2010-01-01T17:27:31Z</time>
      </trkpt>
      <trkpt lat="44.078860" lon="2.445870">
        <ele>499.93</ele>
        <time>2010-01-01T17:27:53Z</time>
      </trkpt>
      <trkpt lat="44.083010" lon="2.440250">
        <ele>497.60</ele>
        <time>2010-01-01T17:29:10Z</time>
      </trkpt>
      <trkpt lat="44.084140" lon="2.438100">
        <ele>494.29</ele>
        <time>2010-01-01T17:29:37Z</time>
      </trkpt>
      <trkpt lat="44.084530" lon="2.436970">
        <ele>494.29</ele>
        <time>2010-01-01T17:29:52Z</time>
      </trkpt>
      <trkpt lat="44.084880" lon="2.435360">
        <ele>494.29</ele>
        <time>2010-01-01T17:31:00Z</time>
      </trkpt>
      <trkpt lat="44.085140" lon="2.433280">
        <ele>494.00</ele>
        <time>2010-01-01T17:32:05Z</time>
      </trkpt>
      <trkpt lat="44.085260" lon="2.432130">
        <ele>492.894989</ele>
        <time>2010-01-01T17:33:01Z</time>
      </trkpt>
      <trkpt lat="44.085290" lon="2.431370">
        <ele>492.600006</ele>
        <time>2010-01-01T17:34:10Z</time>
      </trkpt>
      <trkpt lat="44.085230" lon="2.428680">
        <ele>488.36</ele>
        <time>2010-01-01T17:35:33Z</time>
      </trkpt>
      <trkpt lat="44.085340" lon="2.427750">
        <ele>488.36</ele>
        <time>2010-01-01T17:36:30Z</time>
      </trkpt>
      <trkpt lat="44.085470" lon="2.427250">
        <ele>488.36</ele>
        <time>2010-01-01T17:37:17Z</time>
      </trkpt>
      <trkpt lat="44.086240" lon="2.425150">
        <ele>488.42</ele>
        <time>2010-01-01T17:39:16Z</time>
      </trkpt>
      <trkpt lat="44.087020" lon="2.423190">
        <ele>488.42</ele>
        <time>2010-01-01T17:40:17Z</time>
      </trkpt>
      <trkpt lat="44.087600" lon="2.421410">
        <ele>488.42</ele>
        <time>2010-01-01T17:40:42Z</time>
      </trkpt>
      <trkpt lat="44.088190" lon="2.419150">
        <ele>488.42</ele>
        <time>2010-01-01T17:41:22Z</time>
      </trkpt>
      <trkpt lat="44.089110" lon="2.416570">
        <ele>489.895111</ele>
        <time>2010-01-01T17:41:41Z</time>
      </trkpt>
      <trkpt lat="44.089920" lon="2.414930">
        <ele>488.21</ele>
        <time>2010-01-01T17:41:57Z</time>
      </trkpt>
      <trkpt lat="44.090680" lon="2.413660">
        <ele>487.500061</ele>
        <time>2010-01-01T17:42:31Z</time>
      </trkpt>
      <trkpt lat="44.092170" lon="2.410080">
        <ele>487.19</ele>
        <time>2010-01-01T17:43:05Z</time>
      </trkpt>
      <trkpt lat="44.092990" lon="2.408300">
        <ele>485.99</ele>
        <time>2010-01-01T17:44:18Z</time>
      </trkpt>
      <trkpt lat="44.093207" lon="2.407931">
        <ele>485.99</ele>
        <time>2010-01-01T17:45:03Z</time>
      </trkpt>
      <trkpt lat="44.093410" lon="2.407810">
        <ele>485.02</ele>
        <time>2010-01-01T17:45:36Z</time>
      </trkpt>
      <trkpt lat="44.094330" lon="2.407270">
        <ele>486.651245</ele>
        <time>2010-01-01T17:47:16Z</time>
      </trkpt>
      <trkpt lat="44.094740" lon="2.406950">
        <ele>487.317291</ele>
        <time>2010-01-01T17:47:27Z</time>
      </trkpt>
      <trkpt lat="44.095120" lon="2.406780">
        <ele>487.786255</ele>
        <time>2010-01-01T17:48:05Z</time>
      </trkpt>
      <trkpt lat="44.095980" lon="2.406760">
        <ele>489.07</ele>
        <time>2010-01-01T17:48:51Z</time>
      </trkpt>
      <trkpt lat="44.096650" lon="2.406050">
        <ele>488.16</ele>
        <time>2010-01-01T17:49:06Z</time>
      </trkpt>
      <trkpt lat="44.098300" lon="2.404930">
        <ele>485.65</ele>
        <time>2010-01-01T17:49:31Z</time>
      </trkpt>
      <trkpt lat="44.099390" lon="2.404520">
        <ele>485.65</ele>
        <time>2010-01-01T17:49:42Z</time>
      </trkpt>
      <trkpt lat="44.100200" lon="2.404360">
        <ele>485.65</ele>
        <time>2010-01-01T17:50:29Z</time>
      </trkpt>
      <trkpt lat="44.102690" lon="2.404340">
        <ele>484.10</ele>
        <time>2010-01-01T17:51:02Z</time>
      </trkpt>
      <trkpt lat="44.102940" lon="2.404520">
        <ele>485.19</ele>
        <time>2010-01-01T17:51:48Z</time>
      </trkpt>
      <trkpt lat="44.103700" lon="2.405280">
        <ele>485.19</ele>
        <time>2010-01-01T17:55:21Z</time>
      </trkpt>
      <trkpt lat="44.104740" lon="2.406000">
        <ele>484.77</ele>
        <time>2010-01-01T17:55:50Z</time>
      </trkpt>
      <trkpt lat="44.105110" lon="2.406130">
        <ele>486.612488</ele>
        <time>2010-01-01T17:55:55Z</time>
      </trkpt>
      <trkpt lat="44.105710" lon="2.406220">
        <ele>490.690765</ele>
        <time>2010-01-01T17:56:10Z</time>
      </trkpt>
      <trkpt lat="44.106000" lon="2.406180">
        <ele>491.761536</ele>
        <time>2010-01-01T17:56:19Z</time>
      </trkpt>
      <trkpt lat="44.107130" lon="2.405700">
        <ele>492.807495</ele>
        <time>2010-01-01T17:56:32Z</time>
      </trkpt>
      <trkpt lat="44.107880" lon="2.405300">
        <ele>492.099823</ele>
        <time>2010-01-01T17:57:07Z</time>
      </trkpt>
      <trkpt lat="44.109020" lon="2.405010">
        <ele>494.679993</ele>
        <time>2010-01-01T17:57:20Z</time>
      </trkpt>
      <trkpt lat="44.109870" lon="2.404596">
        <ele>495.00</ele>
        <time>2010-01-01T17:57:26Z</time>
      </trkpt>
      <trkpt lat="44.110338" lon="2.404518">
        <ele>494.638580</ele>
        <time>2010-01-01T17:57:37Z</time>
      </trkpt>
      <trkpt lat="44.110508" lon="2.404335">
        <ele>493.798767</ele>
        <time>2010-01-01T17:57:50Z</time>
      </trkpt>
      <trkpt lat="44.110625" lon="2.403971">
        <ele>492.494171</ele>
        <time>2010-01-01T17:58:08Z</time>
      </trkpt>
      <trkpt lat="44.111003" lon="2.401261">
        <ele>478.50</ele>
        <time>2010-01-01T17:58:38Z</time>
      </trkpt>
      <trkpt lat="44.111119" lon="2.401092">
        <ele>478.50</ele>
        <time>2010-01-01T17:58:50Z</time>
      </trkpt>
      <trkpt lat="44.111263" lon="2.401066">
        <ele>478.230011</ele>
        <time>2010-01-01T17:58:54Z</time>
      </trkpt>
      <trkpt lat="44.111488" lon="2.401170">
        <ele>476.55</ele>
        <time>2010-01-01T17:59:01Z</time>
      </trkpt>
      <trkpt lat="44.111901" lon="2.401626">
        <ele>476.55</ele>
        <time>2010-01-01T17:59:19Z</time>
      </trkpt>
      <trkpt lat="44.112070" lon="2.402080">
        <ele>476.17</ele>
        <time>2010-01-01T17:59:23Z</time>
      </trkpt>
      <trkpt lat="44.112269" lon="2.402030">
        <ele>476.17</ele>
        <time>2010-01-01T17:59:28Z</time>
      </trkpt>
      <trkpt lat="44.112710" lon="2.401690">
        <ele>476.17</ele>
        <time>2010-01-01T17:59:44Z</time>
      </trkpt>
      <trkpt lat="44.112740" lon="2.401520">
        <ele>474.486420</ele>
        <time>2010-01-01T17:59:53Z</time>
      </trkpt>
      <trkpt lat="44.112530" lon="2.401090">
        <ele>472.490936</ele>
        <time>2010-01-01T17:59:59Z</time>
      </trkpt>
      <trkpt lat="44.112470" lon="2.400770">
        <ele>472.031738</ele>
        <time>2010-01-01T18:00:15Z</time>
      </trkpt>
      <trkpt lat="44.112450" lon="2.400330">
        <ele>470.332916</ele>
        <time>2010-01-01T18:00:23Z</time>
      </trkpt>
      <trkpt lat="44.112520" lon="2.399110">
        <ele>467.493805</ele>
        <time>2010-01-01T18:01:19Z</time>
      </trkpt>
      <trkpt lat="44.112380" lon="2.398710">
        <ele>460.698120</ele>
        <time>2010-01-01T18:01:25Z</time>
      </trkpt>
      <trkpt lat="44.112370" lon="2.398510">
        <ele>460.418304</ele>
        <time>2010-01-01T18:01:46Z</time>
      </trkpt>
      <trkpt lat="44.112430" lon="2.398130">
        <ele>460.441772</ele>
        <time>2010-01-01T18:02:04Z</time>
      </trkpt>
      <trkpt lat="44.112570" lon="2.397700">
        <ele>460.195007</ele>
        <time>2010-01-01T18:02:11Z</time>
      </trkpt>
      <trkpt lat="44.112830" lon="2.397210">
        <ele>459.392487</ele>
        <time>2010-01-01T18:02:21Z</time>
      </trkpt>
      <trkpt lat="44.113390" lon="2.396490">
        <ele>454.047668</ele>
        <time>2010-01-01T18:02:38Z</time>
      </trkpt>
      <trkpt lat="44.113650" lon="2.396320">
        <ele>450.16</ele>
        <time>2010-01-01T18:08:49Z</time>
      </trkpt>
      <trkpt lat="44.113750" lon="2.396300">
        <ele>450.16</ele>
        <time>2010-01-01T18:09:02Z</time>
      </trkpt>
      <trkpt lat="44.113920" lon="2.396370">
        <ele>450.88</ele>
        <time>2010-01-01T18:12:39Z</time>
      </trkpt>
      <trkpt lat="44.114260" lon="2.396770">
        <ele>450.88</ele>
        <time>2010-01-01T18:12:49Z</time>
      </trkpt>
      <trkpt lat="44.114360" lon="2.396790">
        <ele>450.88</ele>
        <time>2010-01-01T18:14:58Z</time>
      </trkpt>
      <trkpt lat="44.114460" lon="2.396680">
        <ele>450.88</ele>
        <time>2010-01-01T18:15:11Z</time>
      </trkpt>
      <trkpt lat="44.114630" lon="2.396180">
        <ele>450.88</ele>
        <time>2010-01-01T18:16:07Z</time>
      </trkpt>
      <trkpt lat="44.114780" lon="2.395960">
        <ele>450.88</ele>
        <time>2010-01-01T18:16:21Z</time>
      </trkpt>
      <trkpt lat="44.114930" lon="2.395870">
        <ele>450.61</ele>
        <time>2010-01-01T18:16:26Z</time>
      </trkpt>
      <trkpt lat="44.115310" lon="2.395770">
        <ele>450.00</ele>
        <time>2010-01-01T18:16:33Z</time>
      </trkpt>
      <trkpt lat="44.115460" lon="2.395580">
        <ele>447.90</ele>
        <time>2010-01-01T18:16:55Z</time>
      </trkpt>
      <trkpt lat="44.115910" lon="2.393720">
        <ele>442.10</ele>
        <time>2010-01-01T18:17:17Z</time>
      </trkpt>
      <trkpt lat="44.115900" lon="2.393500">
        <ele>440.002625</ele>
        <time>2010-01-01T18:17:51Z</time>
      </trkpt>
      <trkpt lat="44.115690" lon="2.392860">
        <ele>432.40</ele>
        <time>2010-01-01T18:18:11Z</time>
      </trkpt>
      <trkpt lat="44.115560" lon="2.392240">
        <ele>426.744293</ele>
        <time>2010-01-01T18:18:57Z</time>
      </trkpt>
      <trkpt lat="44.115560" lon="2.391990">
        <ele>425.65</ele>
        <time>2010-01-01T18:19:12Z</time>
      </trkpt>
      <trkpt lat="44.115690" lon="2.391700">
        <ele>425.18</ele>
        <time>2010-01-01T18:19:26Z</time>
      </trkpt>
      <trkpt lat="44.116060" lon="2.391460">
        <ele>425.18</ele>
        <time>2010-01-01T18:20:31Z</time>
      </trkpt>
      <trkpt lat="44.117363" lon="2.390801">
        <ele>425.18</ele>
        <time>2010-01-01T18:20:37Z</time>
      </trkpt>
      <trkpt lat="44.117632" lon="2.390553">
        <ele>423.08</ele>
        <time>2010-01-01T18:21:00Z</time>
      </trkpt>
      <trkpt lat="44.118216" lon="2.389797">
        <ele>419.54</ele>
        <time>2010-01-01T18:21:22Z</time>
      </trkpt>
      <trkpt lat="44.118449" lon="2.389654">
        <ele>418.78</ele>
        <time>2010-01-01T18:21:40Z</time>
      </trkpt>
      <trkpt lat="44.118871" lon="2.389654">
        <ele>416.73</ele>
        <time>2010-01-01T18:22:28Z</time>
      </trkpt>
      <trkpt lat="44.119316" lon="2.389615">
        <ele>414.45</ele>
        <time>2010-01-01T18:23:04Z</time>
      </trkpt>
      <trkpt lat="44.120897" lon="2.388742">
        <ele>405.74</ele>
        <time>2010-01-01T18:23:28Z</time>
      </trkpt>
      <trkpt lat="44.121454" lon="2.388286">
        <ele>404.66</ele>
        <time>2010-01-01T18:23:44Z</time>
      </trkpt>
      <trkpt lat="44.121758" lon="2.387739">
        <ele>398.89</ele>
        <time>2010-01-01T18:24:26Z</time>
      </trkpt>
      <trkpt lat="44.122099" lon="2.386749">
        <ele>383.11</ele>
        <time>2010-01-01T18:25:34Z</time>
      </trkpt>
      <trkpt lat="44.122953" lon="2.385994">
        <ele>383.92</ele>
        <time>2010-01-01T18:25:48Z</time>
      </trkpt>
      <trkpt lat="44.123366" lon="2.385863">
        <ele>380.92</ele>
        <time>2010-01-01T18:25:56Z</time>
      </trkpt>
      <trkpt lat="44.123563" lon="2.386059">
        <ele>379.92</ele>
        <time>2010-01-01T18:26:05Z</time>
      </trkpt>
      <trkpt lat="44.123840" lon="2.386460">
        <ele>377.71</ele>
        <time>2010-01-01T18:26:34Z</time>
      </trkpt>
      <trkpt lat="44.124140" lon="2.386620">
        <ele>376.71</ele>
        <time>2010-01-01T18:27:07Z</time>
      </trkpt>
      <trkpt lat="44.125157" lon="2.386410">
        <ele>369.18</ele>
        <time>2010-01-01T18:28:10Z</time>
      </trkpt>
      <trkpt lat="44.126859" lon="2.386463">
        <ele>368.17</ele>
        <time>2010-01-01T18:28:28Z</time>
      </trkpt>
      <trkpt lat="44.128655" lon="2.386072">
        <ele>351.087677</ele>
        <time>2010-01-01T18:28:40Z</time>
      </trkpt>
      <trkpt lat="44.129470" lon="2.385680">
        <ele>340.05</ele>
        <time>2010-01-01T18:29:24Z</time>
      </trkpt>
      <trkpt lat="44.129720" lon="2.385700">
        <ele>337.85</ele>
        <time>2010-01-01T18:29:31Z</time>
      </trkpt>
      <trkpt lat="44.129949" lon="2.386033">
        <ele>335.77</ele>
        <time>2010-01-01T18:30:00Z</time>
      </trkpt>
      <trkpt lat="44.130038" lon="2.386450">
        <ele>334.70</ele>
        <time>2010-01-01T18:30:42Z</time>
      </trkpt>
      <trkpt lat="44.129913" lon="2.387557">
        <ele>333.76</ele>
        <time>2010-01-01T18:31:06Z</time>
      </trkpt>
      <trkpt lat="44.129661" lon="2.388208">
        <ele>333.79</ele>
        <time>2010-01-01T18:31:10Z</time>
      </trkpt>
      <trkpt lat="44.129293" lon="2.388807">
        <ele>329.82</ele>
        <time>2010-01-01T18:31:40Z</time>
      </trkpt>
      <trkpt lat="44.128969" lon="2.389016">
        <ele>328.42</ele>
        <time>2010-01-01T18:31:48Z</time>
      </trkpt>
      <trkpt lat="44.128798" lon="2.389107">
        <ele>328.38</ele>
        <time>2010-01-01T18:32:10Z</time>
      </trkpt>
      <trkpt lat="44.128750" lon="2.389270">
        <ele>327.98</ele>
        <time>2010-01-01T18:32:21Z</time>
      </trkpt>
      <trkpt lat="44.128720" lon="2.389700">
        <ele>324.48</ele>
        <time>2010-01-01T18:33:06Z</time>
      </trkpt>
      <trkpt lat="44.129200" lon="2.391540">
        <ele>325.96</ele>
        <time>2010-01-01T18:33:50Z</time>
      </trkpt>
      <trkpt lat="44.129220" lon="2.392010">
        <ele>326.398163</ele>
        <time>2010-01-01T18:34:01Z</time>
      </trkpt>
      <trkpt lat="44.129280" lon="2.392170">
        <ele>326.41</ele>
        <time>2010-01-01T18:34:19Z</time>
      </trkpt>
      <trkpt lat="44.129460" lon="2.392230">
        <ele>324.75</ele>
        <time>2010-01-01T18:34:58Z</time>
      </trkpt>
      <trkpt lat="44.130000" lon="2.392080">
        <ele>323.37</ele>
        <time>2010-01-01T18:36:16Z</time>
      </trkpt>
      <trkpt lat="44.129930" lon="2.391330">
        <ele>324.45</ele>
        <time>2010-01-01T18:36:23Z</time>
      </trkpt>
      <trkpt lat="44.130070" lon="2.390160">
        <ele>324.45</ele>
        <time>2010-01-01T18:36:32Z</time>
      </trkpt>
      <trkpt lat="44.130290" lon="2.389540">
        <ele>324.739716</ele>
        <time>2010-01-01T18:36:38Z</time>
      </trkpt>
      <trkpt lat="44.131010" lon="2.388300">
        <ele>329.14</ele>
        <time>2010-01-01T18:36:50Z</time>
      </trkpt>
      <trkpt lat="44.131190" lon="2.387830">
        <ele>332.91</ele>
        <time>2010-01-01T18:37:03Z</time>
      </trkpt>
      <trkpt lat="44.131300" lon="2.387370">
        <ele>332.91</ele>
        <time>2010-01-01T18:37:10Z</time>
      </trkpt>
      <trkpt lat="44.131190" lon="2.385110">
        <ele>332.91</ele>
        <time>2010-01-01T18:37:19Z</time>
      </trkpt>
      <trkpt lat="44.131150" lon="2.384920">
        <ele>332.91</ele>
        <time>2010-01-01T18:37:52Z</time>
      </trkpt>
      <trkpt lat="44.130860" lon="2.384240">
        <ele>333.64</ele>
        <time>2010-01-01T18:38:28Z</time>
      </trkpt>
      <trkpt lat="44.130340" lon="2.383990">
        <ele>332.76</ele>
        <time>2010-01-01T18:38:43Z</time>
      </trkpt>
      <trkpt lat="44.129880" lon="2.383920">
        <ele>331.129181</ele>
        <time>2010-01-01T18:39:29Z</time>
      </trkpt>
      <trkpt lat="44.128680" lon="2.384070">
        <ele>328.649994</ele>
        <time>2010-01-01T18:39:48Z</time>
      </trkpt>
      <trkpt lat="44.127810" lon="2.384260">
        <ele>326.354248</ele>
        <time>2010-01-01T18:40:07Z</time>
      </trkpt>
      <trkpt lat="44.127210" lon="2.384260">
        <ele>325.563019</ele>
        <time>2010-01-01T18:41:03Z</time>
      </trkpt>
      <trkpt lat="44.126800" lon="2.384180">
        <ele>325.325287</ele>
        <time>2010-01-01T18:41:18Z</time>
      </trkpt>
      <trkpt lat="44.125810" lon="2.383730">
        <ele>324.68</ele>
        <time>2010-01-01T18:41:49Z</time>
      </trkpt>
      <trkpt lat="44.124220" lon="2.382860">
        <ele>323.604340</ele>
        <time>2010-01-01T18:41:55Z</time>
      </trkpt>
      <trkpt lat="44.123950" lon="2.382560">
        <ele>323.60</ele>
        <time>2010-01-01T18:42:18Z</time>
      </trkpt>
      <trkpt lat="44.123880" lon="2.382300">
        <ele>325.12</ele>
        <time>2010-01-01T18:42:30Z</time>
      </trkpt>
      <trkpt lat="44.123900" lon="2.381980">
        <ele>325.12</ele>
        <time>2010-01-01T18:43:05Z</time>
      </trkpt>
      <trkpt lat="44.124100" lon="2.381030">
        <ele>325.12</ele>
        <time>2010-01-01T18:44:30Z</time>
      </trkpt>
      <trkpt lat="44.124110" lon="2.379890">
        <ele>325.12</ele>
        <time>2010-01-01T18:45:16Z</time>
      </trkpt>
      <trkpt lat="44.123840" lon="2.377720">
        <ele>316.08</ele>
        <time>2010-01-01T18:46:05Z</time>
      </trkpt>
      <trkpt lat="44.123830" lon="2.377080">
        <ele>316.08</ele>
        <time>2010-01-01T18:46:24Z</time>
      </trkpt>
      <trkpt lat="44.123930" lon="2.376700">
        <ele>316.12</ele>
        <time>2010-01-01T18:47:08Z</time>
      </trkpt>
      <trkpt lat="44.124510" lon="2.375400">
        <ele>316.944244</ele>
        <time>2010-01-01T18:47:19Z</time>
      </trkpt>
      <trkpt lat="44.124660" lon="2.375260">
        <ele>316.895386</ele>
        <time>2010-01-01T18:48:17Z</time>
      </trkpt>
      <trkpt lat="44.125380" lon="2.375230">
        <ele>316.799988</ele>
        <time>2010-01-01T18:48:39Z</time>
      </trkpt>
      <trkpt lat="44.126410" lon="2.375500">
        <ele>320.601227</ele>
        <time>2010-01-01T18:49:56Z</time>
      </trkpt>
      <trkpt lat="44.126990" lon="2.375740">
        <ele>321.39</ele>
        <time>2010-01-01T18:49:59Z</time>
      </trkpt>
      <trkpt lat="44.127080" lon="2.375710">
        <ele>320.732880</ele>
        <time>2010-01-01T18:50:55Z</time>
      </trkpt>
      <trkpt lat="44.127180" lon="2.374660">
        <ele>317.80</ele>
        <time>2010-01-01T18:51:13Z</time>
      </trkpt>
      <trkpt lat="44.127040" lon="2.374490">
        <ele>317.80</ele>
        <time>2010-01-01T18:51:21Z</time>
      </trkpt>
      <trkpt lat="44.126540" lon="2.374190">
        <ele>317.80</ele>
        <time>2010-01-01T18:51:49Z</time>
      </trkpt>
      <trkpt lat="44.126300" lon="2.373960">
        <ele>318.95</ele>
        <time>2010-01-01T18:51:58Z</time>
      </trkpt>
      <trkpt lat="44.125590" lon="2.372760">
        <ele>314.94</ele>
        <time>2010-01-01T18:52:11Z</time>
      </trkpt>
      <trkpt lat="44.125060" lon="2.371420">
        <ele>313.755402</ele>
        <time>2010-01-01T18:52:28Z</time>
      </trkpt>
      <trkpt lat="44.124990" lon="2.371040">
        <ele>314.921875</ele>
        <time>2010-01-01T18:52:56Z</time>
      </trkpt>
      <trkpt lat="44.124940" lon="2.370410">
        <ele>317.862701</ele>
        <time>2010-01-01T18:54:08Z</time>
      </trkpt>
      <trkpt lat="44.125020" lon="2.369070">
        <ele>324.70</ele>
        <time>2010-01-01T18:54:38Z</time>
      </trkpt>
      <trkpt lat="44.124962" lon="2.367482">
        <ele>323.69</ele>
        <time>2010-01-01T18:55:04Z</time>
      </trkpt>
      <trkpt lat="44.124640" lon="2.366490">
        <ele>322.13</ele>
        <time>2010-01-01T18:56:43Z</time>
      </trkpt>
      <trkpt lat="44.124670" lon="2.366250">
        <ele>321.063446</ele>
        <time>2010-01-01T18:57:02Z</time>
      </trkpt>
      <trkpt lat="44.124810" lon="2.366000">
        <ele>321.928253</ele>
        <time>2010-01-01T18:57:39Z</time>
      </trkpt>
      <trkpt lat="44.124790" lon="2.365810">
        <ele>321.017517</ele>
        <time>2010-01-01T18:57:55Z</time>
      </trkpt>
      <trkpt lat="44.124520" lon="2.365630">
        <ele>317.246429</ele>
        <time>2010-01-01T19:00:10Z</time>
      </trkpt>
      <trkpt lat="44.124250" lon="2.365350">
        <ele>312.959991</ele>
        <time>2010-01-01T19:00:36Z</time>
      </trkpt>
      <trkpt lat="44.124090" lon="2.365280">
        <ele>312.250000</ele>
        <time>2010-01-01T19:00:59Z</time>
      </trkpt>
      <trkpt lat="44.123880" lon="2.365260">
        <ele>311.29</ele>
        <time>2010-01-01T19:02:51Z</time>
      </trkpt>
      <trkpt lat="44.123060" lon="2.365440">
        <ele>313.16</ele>
        <time>2010-01-01T19:03:27Z</time>
      </trkpt>
      <trkpt lat="44.122810" lon="2.364230">
        <ele>316.16</ele>
        <time>2010-01-01T19:03:38Z</time>
      </trkpt>
      <trkpt lat="44.122880" lon="2.363710">
        <ele>320.32</ele>
        <time>2010-01-01T19:04:35Z</time>
      </trkpt>
      <trkpt lat="44.122780" lon="2.362130">
        <ele>327.003235</ele>
        <time>2010-01-01T19:05:03Z</time>
      </trkpt>
      <trkpt lat="44.122820" lon="2.361460">
        <ele>331.756104</ele>
        <time>2010-01-01T19:05:47Z</time>
      </trkpt>
      <trkpt lat="44.122960" lon="2.360840">
        <ele>337.951569</ele>
        <time>2010-01-01T19:06:50Z</time>
      </trkpt>
      <trkpt lat="44.123720" lon="2.359190">
        <ele>346.454376</ele>
        <time>2010-01-01T19:06:55Z</time>
      </trkpt>
      <trkpt lat="44.123870" lon="2.358730">
        <ele>349.768738</ele>
        <time>2010-01-01T19:07:08Z</time>
      </trkpt>
      <trkpt lat="44.123870" lon="2.357650">
        <ele>357.981537</ele>
        <time>2010-01-01T19:07:26Z</time>
      </trkpt>
      <trkpt lat="44.123920" lon="2.357430">
        <ele>359.923737</ele>
        <time>2010-01-01T19:07:45Z</time>
      </trkpt>
      <trkpt lat="44.124250" lon="2.356780">
        <ele>360.332520</ele>
        <time>2010-01-01T19:08:07Z</time>
      </trkpt>
      <trkpt lat="44.124350" lon="2.356400">
        <ele>361.764008</ele>
        <time>2010-01-01T19:08:58Z</time>
      </trkpt>
      <trkpt lat="44.124590" lon="2.355210">
        <ele>365.549835</ele>
        <time>2010-01-01T19:09:06Z</time>
      </trkpt>
      <trkpt lat="44.124614" lon="2.354833">
        <ele>366.03</ele>
        <time>2010-01-01T19:09:18Z</time>
      </trkpt>
      <trkpt lat="44.125369" lon="2.354182">
        <ele>361.595001</ele>
        <time>2010-01-01T19:09:28Z</time>
      </trkpt>
      <trkpt lat="44.125458" lon="2.354013">
        <ele>361.624237</ele>
        <time>2010-01-01T19:09:33Z</time>
      </trkpt>
      <trkpt lat="44.125405" lon="2.353817">
        <ele>358.835815</ele>
        <time>2010-01-01T19:10:21Z</time>
      </trkpt>
      <trkpt lat="44.125216" lon="2.353700">
        <ele>356.264374</ele>
        <time>2010-01-01T19:10:27Z</time>
      </trkpt>
      <trkpt lat="44.124830" lon="2.353740">
        <ele>354.87</ele>
        <time>2010-01-01T19:11:09Z</time>
      </trkpt>
      <trkpt lat="44.123690" lon="2.353950">
        <ele>346.861694</ele>
        <time>2010-01-01T19:12:04Z</time>
      </trkpt>
      <trkpt lat="44.123102" lon="2.354273">
        <ele>345.742859</ele>
        <time>2010-01-01T19:13:50Z</time>
      </trkpt>
      <trkpt lat="44.122600" lon="2.354651">
        <ele>346.22</ele>
        <time>2010-01-01T19:14:04Z</time>
      </trkpt>
      <trkpt lat="44.122580" lon="2.354660">
        <ele>346.990112</ele>
        <time>2010-01-01T19:14:18Z</time>
      </trkpt>
      <trkpt lat="44.122120" lon="2.354820">
        <ele>343.45</ele>
        <time>2010-01-01T19:14:48Z</time>
      </trkpt>
      <trkpt lat="44.121791" lon="2.354859">
        <ele>339.288116</ele>
        <time>2010-01-01T19:15:03Z</time>
      </trkpt>
      <trkpt lat="44.121030" lon="2.355180">
        <ele>335.43</ele>
        <time>2010-01-01T19:15:12Z</time>
      </trkpt>
      <trkpt lat="44.120810" lon="2.355400">
        <ele>336.13</ele>
        <time>2010-01-01T19:16:03Z</time>
      </trkpt>
      <trkpt lat="44.120673" lon="2.355667">
        <ele>336.769012</ele>
        <time>2010-01-01T19:16:15Z</time>
      </trkpt>
      <trkpt lat="44.120601" lon="2.356058">
        <ele>343.123199</ele>
        <time>2010-01-01T19:16:27Z</time>
      </trkpt>
      <trkpt lat="44.120467" lon="2.356149">
        <ele>341.43</ele>
        <time>2010-01-01T19:17:05Z</time>
      </trkpt>
      <trkpt lat="44.120130" lon="2.355480">
        <ele>338.85</ele>
        <time>2010-01-01T19:17:20Z</time>
      </trkpt>
      <trkpt lat="44.119770" lon="2.354910">
        <ele>333.425507</ele>
        <time>2010-01-01T19:17:36Z</time>
      </trkpt>
      <trkpt lat="44.118280" lon="2.353210">
        <ele>315.822662</ele>
        <time>2010-01-01T19:21:23Z</time>
      </trkpt>
      <trkpt lat="44.118270" lon="2.353080">
        <ele>314.181274</ele>
        <time>2010-01-01T19:21:33Z</time>
      </trkpt>
      <trkpt lat="44.118602" lon="2.351511">
        <ele>313.95</ele>
        <time>2010-01-01T19:21:47Z</time>
      </trkpt>
      <trkpt lat="44.118539" lon="2.351277">
        <ele>314.30</ele>
        <time>2010-01-01T19:22:04Z</time>
      </trkpt>
      <trkpt lat="44.118540" lon="2.351280">
        <ele>314.24</ele>
        <time>2010-01-01T19:22:38Z</time>
      </trkpt>
      <trkpt lat="44.118110" lon="2.351060">
        <ele>313.88</ele>
        <time>2010-01-01T19:22:55Z</time>
      </trkpt>
      <trkpt lat="44.117940" lon="2.350910">
        <ele>313.71</ele>
        <time>2010-01-01T19:23:25Z</time>
      </trkpt>
      <trkpt lat="44.117450" lon="2.350230">
        <ele>314.02</ele>
        <time>2010-01-01T19:23:40Z</time>
      </trkpt>
      <trkpt lat="44.117500" lon="2.349900">
        <ele>314.33</ele>
        <time>2010-01-01T19:24:20Z</time>
      </trkpt>
      <trkpt lat="44.117500" lon="2.349460">
        <ele>315.03</ele>
        <time>2010-01-01T19:25:03Z</time>
      </trkpt>
      <trkpt lat="44.117580" lon="2.348890">
        <ele>315.41</ele>
        <time>2010-01-01T19:25:58Z</time>
      </trkpt>
      <trkpt lat="44.117920" lon="2.348030">
        <ele>314.67</ele>
        <time>2010-01-01T19:26:24Z</time>
      </trkpt>
      <trkpt lat="44.119300" lon="2.346430">
        <ele>313.81</ele>
        <time>2010-01-01T19:26:39Z</time>
      </trkpt>
      <trkpt lat="44.119840" lon="2.345710">
        <ele>313.44</ele>
        <time>2010-01-01T19:28:35Z</time>
      </trkpt>
      <trkpt lat="44.120350" lon="2.345160">
        <ele>312.00</ele>
        <time>2010-01-01T19:28:50Z</time>
      </trkpt>
      <trkpt lat="44.122180" lon="2.342800">
        <ele>311.63</ele>
        <time>2010-01-01T19:29:15Z</time>
      </trkpt>
      <trkpt lat="44.122590" lon="2.342490">
        <ele>311.709198</ele>
        <time>2010-01-01T19:31:07Z</time>
      </trkpt>
      <trkpt lat="44.123510" lon="2.342290">
        <ele>311.00</ele>
        <time>2010-01-01T19:32:05Z</time>
      </trkpt>
      <trkpt lat="44.123890" lon="2.342100">
        <ele>311.00</ele>
        <time>2010-01-01T19:34:04Z</time>
      </trkpt>
      <trkpt lat="44.124128" lon="2.341780">
        <ele>311.00</ele>
        <time>2010-01-01T19:35:23Z</time>
      </trkpt>
      <trkpt lat="44.124227" lon="2.341442">
        <ele>311.000000</ele>
        <time>2010-01-01T19:43:51Z</time>
      </trkpt>
      <trkpt lat="44.124245" lon="2.340816">
        <ele>311.73</ele>
        <time>2010-01-01T19:44:56Z</time>
      </trkpt>
      <trkpt lat="44.124083" lon="2.340178">
        <ele>311.73</ele>
        <time>2010-01-01T19:49:55Z</time>
      </trkpt>
      <trkpt lat="44.123823" lon="2.339553">
        <ele>311.73</ele>
        <time>2010-01-01T20:00:06Z</time>
      </trkpt>
      <trkpt lat="44.123535" lon="2.339305">
        <ele>311.73</ele>
        <time>2010-01-01T20:00:58Z</time>
      </trkpt>
      <trkpt lat="44.122620" lon="2.339230">
        <ele>311.73</ele>
        <time>2010-01-01T20:02:56Z</time>
      </trkpt>
      <trkpt lat="44.121980" lon="2.339060">
        <ele>312.99</ele>
        <time>2010-01-01T20:06:35Z</time>
      </trkpt>
      <trkpt lat="44.121430" lon="2.338850">
        <ele>312.48</ele>
        <time>2010-01-01T20:06:59Z</time>
      </trkpt>
      <trkpt lat="44.121077" lon="2.338615">
        <ele>312.96</ele>
        <time>2010-01-01T20:07:18Z</time>
      </trkpt>
      <trkpt lat="44.120952" lon="2.338341">
        <ele>312.506195</ele>
        <time>2010-01-01T20:07:54Z</time>
      </trkpt>
      <trkpt lat="44.120952" lon="2.338016">
        <ele>312.70</ele>
        <time>2010-01-01T20:08:17Z</time>
      </trkpt>
      <trkpt lat="44.121059" lon="2.337690">
        <ele>311.92</ele>
        <time>2010-01-01T20:09:02Z</time>
      </trkpt>
      <trkpt lat="44.122250" lon="2.335940">
        <ele>310.62</ele>
        <time>2010-01-01T20:09:14Z</time>
      </trkpt>
      <trkpt lat="44.122930" lon="2.335130">
        <ele>310.62</ele>
        <time>2010-01-01T20:09:21Z</time>
      </trkpt>
      <trkpt lat="44.123090" lon="2.334850">
        <ele>310.62</ele>
        <time>2010-01-01T20:09:28Z</time>
      </trkpt>
      <trkpt lat="44.123470" lon="2.332930">
        <ele>308.62</ele>
        <time>2010-01-01T20:09:41Z</time>
      </trkpt>
      <trkpt lat="44.123790" lon="2.332040">
        <ele>306.70</ele>
        <time>2010-01-01T20:10:18Z</time>
      </trkpt>
      <trkpt lat="44.123850" lon="2.330530">
        <ele>302.85</ele>
        <time>2010-01-01T20:12:19Z</time>
      </trkpt>
      <trkpt lat="44.124240" lon="2.328410">
        <ele>301.32</ele>
        <time>2010-01-01T20:12:50Z</time>
      </trkpt>
      <trkpt lat="44.124310" lon="2.328240">
        <ele>301.32</ele>
        <time>2010-01-01T20:13:02Z</time>
      </trkpt>
      <trkpt lat="44.124550" lon="2.327940">
        <ele>303.97</ele>
        <time>2010-01-01T20:14:15Z</time>
      </trkpt>
      <trkpt lat="44.124680" lon="2.327340">
        <ele>303.97</ele>
        <time>2010-01-01T20:14:33Z</time>
      </trkpt>
      <trkpt lat="44.124740" lon="2.326680">
        <ele>303.97</ele>
        <time>2010-01-01T20:15:32Z</time>
      </trkpt>
      <trkpt lat="44.124980" lon="2.325990">
        <ele>304.65</ele>
        <time>2010-01-01T20:16:30Z</time>
      </trkpt>
      <trkpt lat="44.125290" lon="2.324280">
        <ele>305.33</ele>
        <time>2010-01-01T20:17:19Z</time>
      </trkpt>
      <trkpt lat="44.125290" lon="2.324020">
        <ele>305.18</ele>
        <time>2010-01-01T20:17:46Z</time>
      </trkpt>
      <trkpt lat="44.125220" lon="2.323610">
        <ele>305.91</ele>
        <time>2010-01-01T20:18:27Z</time>
      </trkpt>
      <trkpt lat="44.125030" lon="2.323350">
        <ele>304.99</ele>
        <time>2010-01-01T20:18:30Z</time>
      </trkpt>
      <trkpt lat="44.124990" lon="2.323210">
        <ele>304.88</ele>
        <time>2010-01-01T20:18:34Z</time>
      </trkpt>
      <trkpt lat="44.124780" lon="2.321570">
        <ele>304.13</ele>
        <time>2010-01-01T20:18:38Z</time>
      </trkpt>
      <trkpt lat="44.124780" lon="2.321350">
        <ele>304.51</ele>
        <time>2010-01-01T20:19:06Z</time>
      </trkpt>
      <trkpt lat="44.125240" lon="2.320040">
        <ele>310.85</ele>
        <time>2010-01-01T20:19:20Z</time>
      </trkpt>
      <trkpt lat="44.125387" lon="2.319882">
        <ele>312.85</ele>
        <time>2010-01-01T20:19:50Z</time>
      </trkpt>
      <trkpt lat="44.125540" lon="2.319817">
        <ele>313.85</ele>
        <time>2010-01-01T20:19:56Z</time>
      </trkpt>
      <trkpt lat="44.125593" lon="2.319635">
        <ele>314.85</ele>
        <time>2010-01-01T20:20:02Z</time>
      </trkpt>
      <trkpt lat="44.125468" lon="2.319465">
        <ele>315.85</ele>
        <time>2010-01-01T20:20:10Z</time>
      </trkpt>
      <trkpt lat="44.125000" lon="2.319609">
        <ele>316.85</ele>
        <time>2010-01-01T20:20:20Z</time>
      </trkpt>
      <trkpt lat="44.124900" lon="2.320000">
        <ele>317.85</ele>
        <time>2010-01-01T20:20:42Z</time>
      </trkpt>
      <trkpt lat="44.124722" lon="2.319934">
        <ele>318.07</ele>
        <time>2010-01-01T20:20:48Z</time>
      </trkpt>
      <trkpt lat="44.124623" lon="2.319700">
        <ele>318.928375</ele>
        <time>2010-01-01T20:21:21Z</time>
      </trkpt>
      <trkpt lat="44.124641" lon="2.319231">
        <ele>326.69</ele>
        <time>2010-01-01T20:21:39Z</time>
      </trkpt>
      <trkpt lat="44.124928" lon="2.319322">
        <ele>328.85</ele>
        <time>2010-01-01T20:22:00Z</time>
      </trkpt>
      <trkpt lat="44.125261" lon="2.319244">
        <ele>329.14</ele>
        <time>2010-01-01T20:22:19Z</time>
      </trkpt>
      <trkpt lat="44.125486" lon="2.319035">
        <ele>328.61</ele>
        <time>2010-01-01T20:24:14Z</time>
      </trkpt>
      <trkpt lat="44.125647" lon="2.318697">
        <ele>332.947876</ele>
        <time>2010-01-01T20:25:20Z</time>
      </trkpt>
      <trkpt lat="44.125860" lon="2.317760">
        <ele>342.62</ele>
        <time>2010-01-01T20:25:33Z</time>
      </trkpt>
      <trkpt lat="44.126090" lon="2.317360">
        <ele>343.04</ele>
        <time>2010-01-01T20:25:46Z</time>
      </trkpt>
      <trkpt lat="44.126370" lon="2.317090">
        <ele>347.51</ele>
        <time>2010-01-01T20:26:25Z</time>
      </trkpt>
      <trkpt lat="44.127080" lon="2.316800">
        <ele>350.824890</ele>
        <time>2010-01-01T20:26:32Z</time>
      </trkpt>
      <trkpt lat="44.127400" lon="2.316540">
        <ele>352.871674</ele>
        <time>2010-01-01T20:26:38Z</time>
      </trkpt>
      <trkpt lat="44.127540" lon="2.316260">
        <ele>358.515656</ele>
        <time>2010-01-01T20:26:44Z</time>
      </trkpt>
      <trkpt lat="44.127930" lon="2.314600">
        <ele>371.82</ele>
        <time>2010-01-01T20:26:59Z</time>
      </trkpt>
      <trkpt lat="44.128110" lon="2.314230">
        <ele>371.70</ele>
        <time>2010-01-01T20:27:10Z</time>
      </trkpt>
      <trkpt lat="44.128360" lon="2.314010">
        <ele>371.884552</ele>
        <time>2010-01-01T20:27:18Z</time>
      </trkpt>
      <trkpt lat="44.129220" lon="2.313490">
        <ele>378.90</ele>
        <time>2010-01-01T20:27:27Z</time>
      </trkpt>
      <trkpt lat="44.129600" lon="2.313380">
        <ele>382.13</ele>
        <time>2010-01-01T20:28:19Z</time>
      </trkpt>
      <trkpt lat="44.130000" lon="2.313430">
        <ele>385.51</ele>
        <time>2010-01-01T20:28:44Z</time>
      </trkpt>
      <trkpt lat="44.132062" lon="2.314489">
        <ele>407.712494</ele>
        <time>2010-01-01T20:28:54Z</time>
      </trkpt>
      <trkpt lat="44.133178" lon="2.315349">
        <ele>410.692993</ele>
        <time>2010-01-01T20:29:12Z</time>
      </trkpt>
      <trkpt lat="44.134045" lon="2.315583">
        <ele>422.985474</ele>
        <time>2010-01-01T20:29:34Z</time>
      </trkpt>
      <trkpt lat="44.134305" lon="2.315740">
        <ele>424.702362</ele>
        <time>2010-01-01T20:29:43Z</time>
      </trkpt>
      <trkpt lat="44.134683" lon="2.316182">
        <ele>427.285004</ele>
        <time>2010-01-01T20:29:57Z</time>
      </trkpt>
      <trkpt lat="44.135040" lon="2.316730">
        <ele>429.813965</ele>
        <time>2010-01-01T20:30:06Z</time>
      </trkpt>
      <trkpt lat="44.135260" lon="2.316920">
        <ele>431.213409</ele>
        <time>2010-01-01T20:30:40Z</time>
      </trkpt>
      <trkpt lat="44.135590" lon="2.317080">
        <ele>434.957306</ele>
        <time>2010-01-01T20:31:04Z</time>
      </trkpt>
      <trkpt lat="44.136010" lon="2.317060">
        <ele>442.304321</ele>
        <time>2010-01-01T20:31:35Z</time>
      </trkpt>
      <trkpt lat="44.136850" lon="2.316890">
        <ele>444.668762</ele>
        <time>2010-01-01T20:31:45Z</time>
      </trkpt>
      <trkpt lat="44.137230" lon="2.316660">
        <ele>447.987488</ele>
        <time>2010-01-01T20:31:54Z</time>
      </trkpt>
      <trkpt lat="44.137830" lon="2.316020">
        <ele>458.053680</ele>
        <time>2010-01-01T20:32:00Z</time>
      </trkpt>
      <trkpt lat="44.138180" lon="2.315830">
        <ele>460.497528</ele>
        <time>2010-01-01T20:32:06Z</time>
      </trkpt>
      <trkpt lat="44.139170" lon="2.315560">
        <ele>468.565582</ele>
        <time>2010-01-01T20:33:19Z</time>
      </trkpt>
      <trkpt lat="44.140220" lon="2.315400">
        <ele>476.358368</ele>
        <time>2010-01-01T20:33:29Z</time>
      </trkpt>
      <trkpt lat="44.141600" lon="2.315280">
        <ele>480.570007</ele>
        <time>2010-01-01T20:33:39Z</time>
      </trkpt>
      <trkpt lat="44.142260" lon="2.315290">
        <ele>481.924408</ele>
        <time>2010-01-01T20:33:47Z</time>
      </trkpt>
      <trkpt lat="44.142610" lon="2.315470">
        <ele>481.961670</ele>
        <time>2010-01-01T20:33:53Z</time>
      </trkpt>
      <trkpt lat="44.143232" lon="2.316104">
        <ele>480.30</ele>
        <time>2010-01-01T20:34:05Z</time>
      </trkpt>
      <trkpt lat="44.144382" lon="2.316534">
        <ele>476.28</ele>
        <time>2010-01-01T20:34:14Z</time>
      </trkpt>
      <trkpt lat="44.144642" lon="2.316378">
        <ele>476.89</ele>
        <time>2010-01-01T20:34:19Z</time>
      </trkpt>
      <trkpt lat="44.144768" lon="2.316078">
        <ele>476.89</ele>
        <time>2010-01-01T20:34:47Z</time>
      </trkpt>
      <trkpt lat="44.145160" lon="2.316460">
        <ele>475.82</ele>
        <time>2010-01-01T20:35:28Z</time>
      </trkpt>
      <trkpt lat="44.145430" lon="2.316830">
        <ele>474.02</ele>
        <time>2010-01-01T20:35:54Z</time>
      </trkpt>
      <trkpt lat="44.145760" lon="2.317550">
        <ele>471.89</ele>
        <time>2010-01-01T20:36:04Z</time>
      </trkpt>
      <trkpt lat="44.147250" lon="2.320870">
        <ele>482.14</ele>
        <time>2010-01-01T20:36:13Z</time>
      </trkpt>
      <trkpt lat="44.148000" lon="2.322560">
        <ele>485.11</ele>
        <time>2010-01-01T20:37:05Z</time>
      </trkpt>
      <trkpt lat="44.149650" lon="2.326010">
        <ele>471.667389</ele>
        <time>2010-01-01T20:37:54Z</time>
      </trkpt>
      <trkpt lat="44.150780" lon="2.328270">
        <ele>476.43</ele>
        <time>2010-01-01T20:37:59Z</time>
      </trkpt>
      <trkpt lat="44.151772" lon="2.330304">
        <ele>470.66</ele>
        <time>2010-01-01T20:38:09Z</time>
      </trkpt>
      <trkpt lat="44.156106" lon="2.339266">
        <ele>457.22</ele>
        <time>2010-01-01T20:38:16Z</time>
      </trkpt>
      <trkpt lat="44.157890" lon="2.342950">
        <ele>463.85</ele>
        <time>2010-01-01T20:38:22Z</time>
      </trkpt>
      <trkpt lat="44.158810" lon="2.344780">
        <ele>470.85</ele>
        <time>2010-01-01T20:38:29Z</time>
      </trkpt>
      <trkpt lat="44.159519" lon="2.345740">
        <ele>471.443787</ele>
        <time>2010-01-01T20:38:41Z</time>
      </trkpt>
      <trkpt lat="44.160039" lon="2.346275">
        <ele>471.28</ele>
        <time>2010-01-01T20:38:55Z</time>
      </trkpt>
      <trkpt lat="44.165220" lon="2.349960">
        <ele>491.71</ele>
        <time>2010-01-01T20:39:45Z</time>
      </trkpt>
      <trkpt lat="44.167980" lon="2.351954">
        <ele>495.524994</ele>
        <time>2010-01-01T20:40:30Z</time>
      </trkpt>
      <trkpt lat="44.172469" lon="2.355224">
        <ele>498.376312</ele>
        <time>2010-01-01T20:41:17Z</time>
      </trkpt>
      <trkpt lat="44.176302" lon="2.358012">
        <ele>498.480011</ele>
        <time>2010-01-01T20:41:31Z</time>
      </trkpt>
      <trkpt lat="44.178760" lon="2.359790">
        <ele>495.15</ele>
        <time>2010-01-01T20:41:48Z</time>
      </trkpt>
      <trkpt lat="44.179900" lon="2.360700">
        <ele>495.15</ele>
        <time>2010-01-01T20:42:00Z</time>
      </trkpt>
      <trkpt lat="44.181130" lon="2.361520">
        <ele>495.000000</ele>
        <time>2010-01-01T20:42:13Z</time>
      </trkpt>
      <trkpt lat="44.185990" lon="2.365000">
        <ele>505.02</ele>
        <time>2010-01-01T20:42:35Z</time>
      </trkpt>
      <trkpt lat="44.186520" lon="2.365420">
        <ele>505.02</ele>
        <time>2010-01-01T20:43:18Z</time>
      </trkpt>
      <trkpt lat="44.186640" lon="2.364780">
        <ele>504.32</ele>
        <time>2010-01-01T20:43:26Z</time>
      </trkpt>
      <trkpt lat="44.187140" lon="2.363740">
        <ele>500.117493</ele>
        <time>2010-01-01T20:43:44Z</time>
      </trkpt>
      <trkpt lat="44.187630" lon="2.363310">
        <ele>497.837189</ele>
        <time>2010-01-01T20:43:51Z</time>
      </trkpt>
      <trkpt lat="44.188630" lon="2.362600">
        <ele>496.40</ele>
        <time>2010-01-01T20:43:58Z</time>
      </trkpt>
      <trkpt lat="44.188880" lon="2.362370">
        <ele>496.118011</ele>
        <time>2010-01-01T20:44:18Z</time>
      </trkpt>
      <trkpt lat="44.188990" lon="2.362190">
        <ele>495.997681</ele>
        <time>2010-01-01T20:44:33Z</time>
      </trkpt>
      <trkpt lat="44.189080" lon="2.361990">
        <ele>496.004120</ele>
        <time>2010-01-01T20:44:57Z</time>
      </trkpt>
      <trkpt lat="44.189180" lon="2.361550">
        <ele>495.377411</ele>
        <time>2010-01-01T20:45:05Z</time>
      </trkpt>
      <trkpt lat="44.189350" lon="2.360280">
        <ele>489.099335</ele>
        <time>2010-01-01T20:45:15Z</time>
      </trkpt>
      <trkpt lat="44.189839" lon="2.358898">
        <ele>481.838501</ele>
        <time>2010-01-01T20:45:39Z</time>
      </trkpt>
      <trkpt lat="44.190046" lon="2.358559">
        <ele>480.40</ele>
        <time>2010-01-01T20:45:56Z</time>
      </trkpt>
      <trkpt lat="44.191430" lon="2.357380">
        <ele>478.09</ele>
        <time>2010-01-01T20:46:16Z</time>
      </trkpt>
      <trkpt lat="44.192010" lon="2.356710">
        <ele>477.94</ele>
        <time>2010-01-01T20:46:47Z</time>
      </trkpt>
      <trkpt lat="44.192220" lon="2.356370">
        <ele>477.94</ele>
        <time>2010-01-01T20:46:59Z</time>
      </trkpt>
      <trkpt lat="44.192603" lon="2.355485">
        <ele>477.864990</ele>
        <time>2010-01-01T20:47:07Z</time>
      </trkpt>
      <trkpt lat="44.193370" lon="2.354450">
        <ele>485.673950</ele>
        <time>2010-01-01T20:47:58Z</time>
      </trkpt>
      <trkpt lat="44.193610" lon="2.353890">
        <ele>486.99</ele>
        <time>2010-01-01T20:48:09Z</time>
      </trkpt>
      <trkpt lat="44.194130" lon="2.351970">
        <ele>488.86</ele>
        <time>2010-01-01T20:48:29Z</time>
      </trkpt>
      <trkpt lat="44.194870" lon="2.350250">
        <ele>487.686005</ele>
        <time>2010-01-01T20:48:45Z</time>
      </trkpt>
      <trkpt lat="44.195400" lon="2.348700">
        <ele>481.265259</ele>
        <time>2010-01-01T20:49:32Z</time>
      </trkpt>
      <trkpt lat="44.195750" lon="2.347890">
        <ele>479.000000</ele>
        <time>2010-01-01T20:50:14Z</time>
      </trkpt>
      <trkpt lat="44.195980" lon="2.346510">
        <ele>479.084991</ele>
        <time>2010-01-01T20:50:28Z</time>
      </trkpt>
      <trkpt lat="44.196060" lon="2.346510">
        <ele>479.084991</ele>
        <time>2010-01-01T20:50:44Z</time>
      </trkpt>
      <trkpt lat="44.196110" lon="2.346400">
        <ele>479.261261</ele>
        <time>2010-01-01T20:50:50Z</time>
      </trkpt>
      <trkpt lat="44.196040" lon="2.346270">
        <ele>479.468750</ele>
        <time>2010-01-01T20:50:57Z</time>
      </trkpt>
      <trkpt lat="44.196220" lon="2.345330">
        <ele>480.118439</ele>
        <time>2010-01-01T20:51:04Z</time>
      </trkpt>
      <trkpt lat="44.196230" lon="2.344840">
        <ele>480.165009</ele>
        <time>2010-01-01T20:51:22Z</time>
      </trkpt>
      <trkpt lat="44.196000" lon="2.343860">
        <ele>479.72</ele>
        <time>2010-01-01T20:51:53Z</time>
      </trkpt>
      <trkpt lat="44.195990" lon="2.343640">
        <ele>479.649994</ele>
        <time>2010-01-01T20:51:59Z</time>
      </trkpt>
      <trkpt lat="44.196040" lon="2.343460">
        <ele>479.980011</ele>
        <time>2010-01-01T20:52:25Z</time>
      </trkpt>
      <trkpt lat="44.196220" lon="2.343300">
        <ele>480.970856</ele>
        <time>2010-01-01T20:52:46Z</time>
      </trkpt>
      <trkpt lat="44.196470" lon="2.343300">
        <ele>482.767395</ele>
        <time>2010-01-01T20:52:50Z</time>
      </trkpt>
      <trkpt lat="44.196990" lon="2.343450">
        <ele>486.299988</ele>
        <time>2010-01-01T20:52:54Z</time>
      </trkpt>
      <trkpt lat="44.197150" lon="2.343450">
        <ele>487.372498</ele>
        <time>2010-01-01T20:53:08Z</time>
      </trkpt>
      <trkpt lat="44.197880" lon="2.342910">
        <ele>493.219452</ele>
        <time>2010-01-01T20:53:18Z</time>
      </trkpt>
      <trkpt lat="44.198230" lon="2.342520">
        <ele>495.848419</ele>
        <time>2010-01-01T20:53:24Z</time>
      </trkpt>
      <trkpt lat="44.198550" lon="2.341930">
        <ele>495.969360</ele>
        <time>2010-01-01T20:53:28Z</time>
      </trkpt>
      <trkpt lat="44.198790" lon="2.341380">
        <ele>495.253143</ele>
        <time>2010-01-01T20:53:34Z</time>
      </trkpt>
      <trkpt lat="44.200085" lon="2.339207">
        <ele>487.227509</ele>
        <time>2010-01-01T20:54:12Z</time>
      </trkpt>
      <trkpt lat="44.200508" lon="2.338498">
        <ele>485.728973</ele>
        <time>2010-01-01T20:54:29Z</time>
      </trkpt>
      <trkpt lat="44.200670" lon="2.338340">
        <ele>485.651093</ele>
        <time>2010-01-01T20:54:47Z</time>
      </trkpt>
      <trkpt lat="44.202300" lon="2.338130">
        <ele>485.305298</ele>
        <time>2010-01-01T20:55:07Z</time>
      </trkpt>
      <trkpt lat="44.202630" lon="2.338020">
        <ele>484.986237</ele>
        <time>2010-01-01T20:55:11Z</time>
      </trkpt>
      <trkpt lat="44.202930" lon="2.337830">
        <ele>484.071259</ele>
        <time>2010-01-01T20:55:20Z</time>
      </trkpt>
      <trkpt lat="44.203710" lon="2.337040">
        <ele>479.692810</ele>
        <time>2010-01-01T20:55:30Z</time>
      </trkpt>
      <trkpt lat="44.203880" lon="2.336950">
        <ele>479.31</ele>
        <time>2010-01-01T20:55:41Z</time>
      </trkpt>
      <trkpt lat="44.204020" lon="2.336970">
        <ele>479.31</ele>
        <time>2010-01-01T20:55:59Z</time>
      </trkpt>
      <trkpt lat="44.204140" lon="2.337070">
        <ele>479.009583</ele>
        <time>2010-01-01T20:57:17Z</time>
      </trkpt>
      <trkpt lat="44.204360" lon="2.337530">
        <ele>478.718750</ele>
        <time>2010-01-01T20:57:51Z</time>
      </trkpt>
      <trkpt lat="44.204570" lon="2.337770">
        <ele>476.766235</ele>
        <time>2010-01-01T20:58:00Z</time>
      </trkpt>
      <trkpt lat="44.204760" lon="2.337870">
        <ele>474.381470</ele>
        <time>2010-01-01T20:58:29Z</time>
      </trkpt>
      <trkpt lat="44.204980" lon="2.337900">
        <ele>472.54</ele>
        <time>2010-01-01T20:59:15Z</time>
      </trkpt>
      <trkpt lat="44.206280" lon="2.337800">
        <ele>468.203674</ele>
        <time>2010-01-01T20:59:58Z</time>
      </trkpt>
      <trkpt lat="44.206880" lon="2.337920">
        <ele>462.908569</ele>
        <time>2010-01-01T21:00:12Z</time>
      </trkpt>
      <trkpt lat="44.207140" lon="2.337890">
        <ele>461.385986</ele>
        <time>2010-01-01T21:01:00Z</time>
      </trkpt>
      <trkpt lat="44.207530" lon="2.337600">
        <ele>461.027344</ele>
        <time>2010-01-01T21:01:07Z</time>
      </trkpt>
      <trkpt lat="44.207970" lon="2.337150">
        <ele>458.840973</ele>
        <time>2010-01-01T21:01:14Z</time>
      </trkpt>
      <trkpt lat="44.207990" lon="2.336840">
        <ele>458.337616</ele>
        <time>2010-01-01T21:02:02Z</time>
      </trkpt>
      <trkpt lat="44.207780" lon="2.336430">
        <ele>459.95</ele>
        <time>2010-01-01T21:02:17Z</time>
      </trkpt>
      <trkpt lat="44.207760" lon="2.336120">
        <ele>459.95</ele>
        <time>2010-01-01T21:02:59Z</time>
      </trkpt>
      <trkpt lat="44.208100" lon="2.335040">
        <ele>453.228394</ele>
        <time>2010-01-01T21:03:45Z</time>
      </trkpt>
      <trkpt lat="44.208260" lon="2.334240">
        <ele>452.849609</ele>
        <time>2010-01-01T21:04:14Z</time>
      </trkpt>
      <trkpt lat="44.208350" lon="2.333170">
        <ele>449.583313</ele>
        <time>2010-01-01T21:04:24Z</time>
      </trkpt>
      <trkpt lat="44.208250" lon="2.332830">
        <ele>447.960510</ele>
        <time>2010-01-01T21:04:57Z</time>
      </trkpt>
      <trkpt lat="44.208060" lon="2.332680">
        <ele>444.255280</ele>
        <time>2010-01-01T21:06:15Z</time>
      </trkpt>
      <trkpt lat="44.207910" lon="2.332670">
        <ele>443.217957</ele>
        <time>2010-01-01T21:06:34Z</time>
      </trkpt>
      <trkpt lat="44.207770" lon="2.332730">
        <ele>442.015900</ele>
        <time>2010-01-01T21:06:44Z</time>
      </trkpt>
      <trkpt lat="44.206250" lon="2.334130">
        <ele>440.586395</ele>
        <time>2010-01-01T21:06:54Z</time>
      </trkpt>
      <trkpt lat="44.206020" lon="2.334270">
        <ele>439.288330</ele>
        <time>2010-01-01T21:07:03Z</time>
      </trkpt>
      <trkpt lat="44.205770" lon="2.334240">
        <ele>437.712891</ele>
        <time>2010-01-01T21:07:07Z</time>
      </trkpt>
      <trkpt lat="44.205580" lon="2.334090">
        <ele>437.254395</ele>
        <time>2010-01-01T21:07:27Z</time>
      </trkpt>
      <trkpt lat="44.205490" lon="2.333920">
        <ele>435.966248</ele>
        <time>2010-01-01T21:07:45Z</time>
      </trkpt>
      <trkpt lat="44.205450" lon="2.333510">
        <ele>428.108124</ele>
        <time>2010-01-01T21:08:02Z</time>
      </trkpt>
      <trkpt lat="44.205510" lon="2.333230">
        <ele>428.243591</ele>
        <time>2010-01-01T21:08:41Z</time>
      </trkpt>
      <trkpt lat="44.205590" lon="2.333090">
        <ele>428.463013</ele>
        <time>2010-01-01T21:08:47Z</time>
      </trkpt>
      <trkpt lat="44.206170" lon="2.332550">
        <ele>425.32</ele>
        <time>2010-01-01T21:08:50Z</time>
      </trkpt>
      <trkpt lat="44.206910" lon="2.331540">
        <ele>416.745514</ele>
        <time>2010-01-01T21:08:57Z</time>
      </trkpt>
      <trkpt lat="44.207250" lon="2.330790">
        <ele>412.822815</ele>
        <time>2010-01-01T21:09:06Z</time>
      </trkpt>
      <trkpt lat="44.207410" lon="2.330530">
        <ele>409.697235</ele>
        <time>2010-01-01T21:09:21Z</time>
      </trkpt>
      <trkpt lat="44.207610" lon="2.330330">
        <ele>407.028381</ele>
        <time>2010-01-01T21:09:25Z</time>
      </trkpt>
      <trkpt lat="44.208740" lon="2.329470">
        <ele>403.865173</ele>
        <time>2010-01-01T21:09:28Z</time>
      </trkpt>
      <trkpt lat="44.209760" lon="2.328530">
        <ele>391.646179</ele>
        <time>2010-01-01T21:09:49Z</time>
      </trkpt>
      <trkpt lat="44.209860" lon="2.328420">
        <ele>390.843750</ele>
        <time>2010-01-01T21:10:16Z</time>
      </trkpt>
      <trkpt lat="44.209990" lon="2.328130">
        <ele>387.866547</ele>
        <time>2010-01-01T21:10:21Z</time>
      </trkpt>
      <trkpt lat="44.210020" lon="2.327890">
        <ele>387.696899</ele>
        <time>2010-01-01T21:10:52Z</time>
      </trkpt>
      <trkpt lat="44.210000" lon="2.327660">
        <ele>386.233765</ele>
        <time>2010-01-01T21:11:11Z</time>
      </trkpt>
      <trkpt lat="44.209940" lon="2.327450">
        <ele>384.797516</ele>
        <time>2010-01-01T21:11:18Z</time>
      </trkpt>
      <trkpt lat="44.209770" lon="2.327110">
        <ele>384.02</ele>
        <time>2010-01-01T21:11:24Z</time>
      </trkpt>
      <trkpt lat="44.209710" lon="2.326620">
        <ele>383.37</ele>
        <time>2010-01-01T21:11:31Z</time>
      </trkpt>
      <trkpt lat="44.210110" lon="2.324970">
        <ele>376.72</ele>
        <time>2010-01-01T21:11:47Z</time>
      </trkpt>
      <trkpt lat="44.210010" lon="2.323400">
        <ele>375.72</ele>
        <time>2010-01-01T21:12:01Z</time>
      </trkpt>
      <trkpt lat="44.210050" lon="2.321760">
        <ele>368.692596</ele>
        <time>2010-01-01T21:12:42Z</time>
      </trkpt>
      <trkpt lat="44.210100" lon="2.321300">
        <ele>368.616089</ele>
        <time>2010-01-01T21:13:30Z</time>
      </trkpt>
      <trkpt lat="44.210230" lon="2.320730">
        <ele>365.923553</ele>
        <time>2010-01-01T21:13:46Z</time>
      </trkpt>
      <trkpt lat="44.210260" lon="2.320310">
        <ele>362.588593</ele>
        <time>2010-01-01T21:14:05Z</time>
      </trkpt>
      <trkpt lat="44.210180" lon="2.319870">
        <ele>360.49</ele>
        <time>2010-01-01T21:14:16Z</time>
      </trkpt>
      <trkpt lat="44.209920" lon="2.319190">
        <ele>360.49</ele>
        <time>2010-01-01T21:15:07Z</time>
      </trkpt>
      <trkpt lat="44.209600" lon="2.317750">
        <ele>360.63</ele>
        <time>2010-01-01T21:15:16Z</time>
      </trkpt>
      <trkpt lat="44.209570" lon="2.317480">
        <ele>360.01</ele>
        <time>2010-01-01T21:15:28Z</time>
      </trkpt>
      <trkpt lat="44.209740" lon="2.316920">
        <ele>359.16</ele>
        <time>2010-01-01T21:15:58Z</time>
      </trkpt>
      <trkpt lat="44.209720" lon="2.316650">
        <ele>355.989838</ele>
        <time>2010-01-01T21:16:19Z</time>
      </trkpt>
      <trkpt lat="44.209640" lon="2.316460">
        <ele>356.76</ele>
        <time>2010-01-01T21:16:35Z</time>
      </trkpt>
      <trkpt lat="44.209250" lon="2.316020">
        <ele>362.53</ele>
        <time>2010-01-01T21:16:59Z</time>
      </trkpt>
      <trkpt lat="44.208990" lon="2.315640">
        <ele>362.53</ele>
        <time>2010-01-01T21:17:09Z</time>
      </trkpt>
      <trkpt lat="44.208660" lon="2.314940">
        <ele>362.058289</ele>
        <time>2010-01-01T21:17:17Z</time>
      </trkpt>
      <trkpt lat="44.208610" lon="2.314670">
        <ele>358.391266</ele>
        <time>2010-01-01T21:17:42Z</time>
      </trkpt>
      <trkpt lat="44.208720" lon="2.314350">
        <ele>353.465363</ele>
        <time>2010-01-01T21:17:57Z</time>
      </trkpt>
      <trkpt lat="44.209320" lon="2.314260">
        <ele>346.75</ele>
        <time>2010-01-01T21:18:17Z</time>
      </trkpt>
      <trkpt lat="44.209710" lon="2.314080">
        <ele>354.17</ele>
        <time>2010-01-01T21:18:23Z</time>
      </trkpt>
      <trkpt lat="44.210110" lon="2.313640">
        <ele>354.17</ele>
        <time>2010-01-01T21:18:31Z</time>
      </trkpt>
      <trkpt lat="44.210620" lon="2.312840">
        <ele>354.68</ele>
        <time>2010-01-01T21:18:48Z</time>
      </trkpt>
      <trkpt lat="44.210880" lon="2.312650">
        <ele>355.057007</ele>
        <time>2010-01-01T21:18:56Z</time>
      </trkpt>
      <trkpt lat="44.211090" lon="2.312580">
        <ele>356.61</ele>
        <time>2010-01-01T21:19:39Z</time>
      </trkpt>
      <trkpt lat="44.212360" lon="2.312470">
        <ele>373.51</ele>
        <time>2010-01-01T21:20:01Z</time>
      </trkpt>
      <trkpt lat="44.212630" lon="2.312360">
        <ele>372.84</ele>
        <time>2010-01-01T21:20:14Z</time>
      </trkpt>
      <trkpt lat="44.213060" lon="2.312060">
        <ele>375.84</ele>
        <time>2010-01-01T21:20:27Z</time>
      </trkpt>
      <trkpt lat="44.213460" lon="2.312020">
        <ele>379.715729</ele>
        <time>2010-01-01T21:20:44Z</time>
      </trkpt>
      <trkpt lat="44.214330" lon="2.310890">
        <ele>383.92</ele>
        <time>2010-01-01T21:20:57Z</time>
      </trkpt>
      <trkpt lat="44.215210" lon="2.310140">
        <ele>395.79</ele>
        <time>2010-01-01T21:21:44Z</time>
      </trkpt>
      <trkpt lat="44.215460" lon="2.309790">
        <ele>395.79</ele>
        <time>2010-01-01T21:22:29Z</time>
      </trkpt>
      <trkpt lat="44.215700" lon="2.309340">
        <ele>395.79</ele>
        <time>2010-01-01T21:23:19Z</time>
      </trkpt>
      <trkpt lat="44.215850" lon="2.309240">
        <ele>395.79</ele>
        <time>2010-01-01T21:23:34Z</time>
      </trkpt>
      <trkpt lat="44.215970" lon="2.309380">
        <ele>395.18</ele>
        <time>2010-01-01T21:23:46Z</time>
      </trkpt>
      <trkpt lat="44.215950" lon="2.309620">
        <ele>400.88</ele>
        <time>2010-01-01T21:23:52Z</time>
      </trkpt>
      <trkpt lat="44.215590" lon="2.310020">
        <ele>402.650543</ele>
        <time>2010-01-01T21:23:59Z</time>
      </trkpt>
      <trkpt lat="44.215050" lon="2.310800">
        <ele>406.194122</ele>
        <time>2010-01-01T21:24:06Z</time>
      </trkpt>
      <trkpt lat="44.214980" lon="2.310960">
        <ele>407.15</ele>
        <time>2010-01-01T21:24:15Z</time>
      </trkpt>
      <trkpt lat="44.214760" lon="2.311840">
        <ele>413.01</ele>
        <time>2010-01-01T21:24:21Z</time>
      </trkpt>
      <trkpt lat="44.214380" lon="2.312340">
        <ele>414.631836</ele>
        <time>2010-01-01T21:25:10Z</time>
      </trkpt>
      <trkpt lat="44.214350" lon="2.312460">
        <ele>414.500092</ele>
        <time>2010-01-01T21:26:01Z</time>
      </trkpt>
      <trkpt lat="44.214370" lon="2.312590">
        <ele>416.194702</ele>
        <time>2010-01-01T21:26:11Z</time>
      </trkpt>
      <trkpt lat="44.214520" lon="2.313050">
        <ele>426.093811</ele>
        <time>2010-01-01T21:26:21Z</time>
      </trkpt>
      <trkpt lat="44.214510" lon="2.313380">
        <ele>428.933197</ele>
        <time>2010-01-01T21:26:46Z</time>
      </trkpt>
      <trkpt lat="44.214450" lon="2.313580">
        <ele>430.415497</ele>
        <time>2010-01-01T21:27:28Z</time>
      </trkpt>
      <trkpt lat="44.214370" lon="2.313660">
        <ele>430.55</ele>
        <time>2010-01-01T21:27:56Z</time>
      </trkpt>
      <trkpt lat="44.214230" lon="2.313690">
        <ele>429.24</ele>
        <time>2010-01-01T21:28:01Z</time>
      </trkpt>
      <trkpt lat="44.213270" lon="2.313610">
        <ele>429.24</ele>
        <time>2010-01-01T21:28:09Z</time>
      </trkpt>
      <trkpt lat="44.212870" lon="2.313800">
        <ele>429.489990</ele>
        <time>2010-01-01T21:28:21Z</time>
      </trkpt>
      <trkpt lat="44.212540" lon="2.314240">
        <ele>432.854065</ele>
        <time>2010-01-01T21:28:27Z</time>
      </trkpt>
      <trkpt lat="44.212270" lon="2.314820">
        <ele>435.867432</ele>
        <time>2010-01-01T21:28:36Z</time>
      </trkpt>
      <trkpt lat="44.212240" lon="2.314950">
        <ele>435.757050</ele>
        <time>2010-01-01T21:28:46Z</time>
      </trkpt>
      <trkpt lat="44.212250" lon="2.315280">
        <ele>437.75</ele>
        <time>2010-01-01T21:28:56Z</time>
      </trkpt>
      <trkpt lat="44.212350" lon="2.315590">
        <ele>437.75</ele>
        <time>2010-01-01T21:30:09Z</time>
      </trkpt>
      <trkpt lat="44.212560" lon="2.315800">
        <ele>437.129791</ele>
        <time>2010-01-01T21:30:15Z</time>
      </trkpt>
      <trkpt lat="44.213010" lon="2.315990">
        <ele>439.779236</ele>
        <time>2010-01-01T21:30:21Z</time>
      </trkpt>
      <trkpt lat="44.214920" lon="2.316480">
        <ele>451.648407</ele>
        <time>2010-01-01T21:30:29Z</time>
      </trkpt>
      <trkpt lat="44.215730" lon="2.316790">
        <ele>456.415436</ele>
        <time>2010-01-01T21:30:40Z</time>
      </trkpt>
      <trkpt lat="44.215970" lon="2.316800">
        <ele>459.06</ele>
        <time>2010-01-01T21:31:11Z</time>
      </trkpt>
      <trkpt lat="44.216690" lon="2.316660">
        <ele>462.364990</ele>
        <time>2010-01-01T21:31:35Z</time>
      </trkpt>
      <trkpt lat="44.217830" lon="2.316770">
        <ele>463.462494</ele>
        <time>2010-01-01T21:32:08Z</time>
      </trkpt>
      <trkpt lat="44.218880" lon="2.317020">
        <ele>465.467499</ele>
        <time>2010-01-01T21:32:17Z</time>
      </trkpt>
      <trkpt lat="44.219230" lon="2.316900">
        <ele>466.378204</ele>
        <time>2010-01-01T21:32:32Z</time>
      </trkpt>
      <trkpt lat="44.220430" lon="2.317060">
        <ele>469.716248</ele>
        <time>2010-01-01T21:32:41Z</time>
      </trkpt>
      <trkpt lat="44.220400" lon="2.317290">
        <ele>469.990509</ele>
        <time>2010-01-01T21:33:03Z</time>
      </trkpt>
      <trkpt lat="44.220430" lon="2.317060">
        <ele>469.716248</ele>
        <time>2010-01-01T21:33:20Z</time>
      </trkpt>
      <trkpt lat="44.219230" lon="2.316900">
        <ele>466.378204</ele>
        <time>2010-01-01T21:33:31Z</time>
      </trkpt>
      <trkpt lat="44.218880" lon="2.317020">
        <ele>465.467499</ele>
        <time>2010-01-01T21:33:55Z</time>
      </trkpt>
      <trkpt lat="44.217830" lon="2.316770">
        <ele>463.462494</ele>
        <time>2010-01-01T21:34:47Z</time>
      </trkpt>
      <trkpt lat="44.216690" lon="2.316660">
        <ele>462.364990</ele>
        <time>2010-01-01T21:34:56Z</time>
      </trkpt>
      <trkpt lat="44.215970" lon="2.316800">
        <ele>459.061768</ele>
        <time>2010-01-01T21:35:04Z</time>
      </trkpt>
      <trkpt lat="44.215730" lon="2.316790">
        <ele>456.415436</ele>
        <time>2010-01-01T21:35:15Z</time>
      </trkpt>
      <trkpt lat="44.214920" lon="2.316480">
        <ele>451.648407</ele>
        <time>2010-01-01T21:35:31Z</time>
      </trkpt>
      <trkpt lat="44.213010" lon="2.315990">
        <ele>439.779236</ele>
        <time>2010-01-01T21:35:36Z</time>
      </trkpt>
      <trkpt lat="44.212560" lon="2.315800">
        <ele>437.129791</ele>
        <time>2010-01-01T21:35:42Z</time>
      </trkpt>
      <trkpt lat="44.212350" lon="2.315590">
        <ele>436.76</ele>
        <time>2010-01-01T21:35:49Z</time>
      </trkpt>
      <trkpt lat="44.212250" lon="2.315280">
        <ele>436.76</ele>
        <time>2010-01-01T21:36:28Z</time>
      </trkpt>
      <trkpt lat="44.212240" lon="2.314950">
        <ele>435.757050</ele>
        <time>2010-01-01T21:36:41Z</time>
      </trkpt>
      <trkpt lat="44.212270" lon="2.314820">
        <ele>435.867432</ele>
        <time>2010-01-01T21:36:55Z</time>
      </trkpt>
      <trkpt lat="44.212540" lon="2.314240">
        <ele>432.854065</ele>
        <time>2010-01-01T21:38:00Z</time>
      </trkpt>
      <trkpt lat="44.212870" lon="2.313800">
        <ele>429.49</ele>
        <time>2010-01-01T21:38:27Z</time>
      </trkpt>
      <trkpt lat="44.213270" lon="2.313610">
        <ele>429.49</ele>
        <time>2010-01-01T21:39:00Z</time>
      </trkpt>
      <trkpt lat="44.214230" lon="2.313690">
        <ele>429.24</ele>
        <time>2010-01-01T21:39:19Z</time>
      </trkpt>
      <trkpt lat="44.214370" lon="2.313660">
        <ele>430.545471</ele>
        <time>2010-01-01T21:40:14Z</time>
      </trkpt>
      <trkpt lat="44.214450" lon="2.313580">
        <ele>430.415497</ele>
        <time>2010-01-01T21:41:25Z</time>
      </trkpt>
      <trkpt lat="44.214510" lon="2.313380">
        <ele>428.933197</ele>
        <time>2010-01-01T21:42:03Z</time>
      </trkpt>
      <trkpt lat="44.214520" lon="2.313050">
        <ele>426.093811</ele>
        <time>2010-01-01T21:42:52Z</time>
      </trkpt>
      <trkpt lat="44.214370" lon="2.312590">
        <ele>416.194702</ele>
        <time>2010-01-01T21:44:15Z</time>
      </trkpt>
      <trkpt lat="44.214350" lon="2.312460">
        <ele>414.500092</ele>
        <time>2010-01-01T21:45:14Z</time>
      </trkpt>
      <trkpt lat="44.214380" lon="2.312340">
        <ele>414.63</ele>
        <time>2010-01-01T21:46:33Z</time>
      </trkpt>
      <trkpt lat="44.214760" lon="2.311840">
        <ele>411.01</ele>
        <time>2010-01-01T21:46:49Z</time>
      </trkpt>
      <trkpt lat="44.214980" lon="2.310960">
        <ele>407.15</ele>
        <time>2010-01-01T21:46:55Z</time>
      </trkpt>
      <trkpt lat="44.215050" lon="2.310800">
        <ele>406.194122</ele>
        <time>2010-01-01T21:47:10Z</time>
      </trkpt>
      <trkpt lat="44.215590" lon="2.310020">
        <ele>402.650543</ele>
        <time>2010-01-01T21:49:28Z</time>
      </trkpt>
      <trkpt lat="44.215950" lon="2.309620">
        <ele>400.88</ele>
        <time>2010-01-01T21:50:07Z</time>
      </trkpt>
      <trkpt lat="44.215970" lon="2.309380">
        <ele>395.18</ele>
        <time>2010-01-01T21:50:56Z</time>
      </trkpt>
      <trkpt lat="44.215850" lon="2.309240">
        <ele>389.71</ele>
        <time>2010-01-01T21:51:22Z</time>
      </trkpt>
      <trkpt lat="44.215700" lon="2.309340">
        <ele>389.48</ele>
        <time>2010-01-01T21:51:52Z</time>
      </trkpt>
      <trkpt lat="44.215460" lon="2.309790">
        <ele>388.98</ele>
        <time>2010-01-01T21:53:40Z</time>
      </trkpt>
      <trkpt lat="44.215210" lon="2.310140">
        <ele>385.79</ele>
        <time>2010-01-01T21:54:02Z</time>
      </trkpt>
      <trkpt lat="44.214330" lon="2.310890">
        <ele>383.919128</ele>
        <time>2010-01-01T21:54:31Z</time>
      </trkpt>
      <trkpt lat="44.213460" lon="2.312020">
        <ele>379.72</ele>
        <time>2010-01-01T21:55:19Z</time>
      </trkpt>
      <trkpt lat="44.213060" lon="2.312060">
        <ele>374.84</ele>
        <time>2010-01-01T21:55:30Z</time>
      </trkpt>
      <trkpt lat="44.212630" lon="2.312360">
        <ele>373.40</ele>
        <time>2010-01-01T21:56:25Z</time>
      </trkpt>
      <trkpt lat="44.212360" lon="2.312470">
        <ele>372.51</ele>
        <time>2010-01-01T21:56:48Z</time>
      </trkpt>
      <trkpt lat="44.211090" lon="2.312580">
        <ele>356.61</ele>
        <time>2010-01-01T21:57:43Z</time>
      </trkpt>
      <trkpt lat="44.210880" lon="2.312650">
        <ele>355.06</ele>
        <time>2010-01-01T21:58:53Z</time>
      </trkpt>
      <trkpt lat="44.210620" lon="2.312840">
        <ele>354.68</ele>
        <time>2010-01-01T21:59:44Z</time>
      </trkpt>
      <trkpt lat="44.210110" lon="2.313640">
        <ele>353.07</ele>
        <time>2010-01-01T22:00:22Z</time>
      </trkpt>
      <trkpt lat="44.209710" lon="2.314080">
        <ele>350.17</ele>
        <time>2010-01-01T22:01:07Z</time>
      </trkpt>
      <trkpt lat="44.209320" lon="2.314260">
        <ele>346.75</ele>
        <time>2010-01-01T22:01:57Z</time>
      </trkpt>
      <trkpt lat="44.208720" lon="2.314350">
        <ele>353.47</ele>
        <time>2010-01-01T22:02:57Z</time>
      </trkpt>
      <trkpt lat="44.208610" lon="2.314670">
        <ele>358.39</ele>
        <time>2010-01-01T22:03:23Z</time>
      </trkpt>
      <trkpt lat="44.208660" lon="2.314940">
        <ele>362.06</ele>
        <time>2010-01-01T22:04:02Z</time>
      </trkpt>
      <trkpt lat="44.208990" lon="2.315640">
        <ele>362.97</ele>
        <time>2010-01-01T22:04:16Z</time>
      </trkpt>
      <trkpt lat="44.209250" lon="2.316020">
        <ele>362.533691</ele>
        <time>2010-01-01T22:04:30Z</time>
      </trkpt>
      <trkpt lat="44.209640" lon="2.316460">
        <ele>356.76</ele>
        <time>2010-01-01T22:04:42Z</time>
      </trkpt>
      <trkpt lat="44.209720" lon="2.316650">
        <ele>355.99</ele>
        <time>2010-01-01T22:05:16Z</time>
      </trkpt>
      <trkpt lat="44.209740" lon="2.316920">
        <ele>355.99</ele>
        <time>2010-01-01T22:05:36Z</time>
      </trkpt>
      <trkpt lat="44.209570" lon="2.317480">
        <ele>355.99</ele>
        <time>2010-01-01T22:06:12Z</time>
      </trkpt>
      <trkpt lat="44.209600" lon="2.317750">
        <ele>355.99</ele>
        <time>2010-01-01T22:07:03Z</time>
      </trkpt>
      <trkpt lat="44.209920" lon="2.319190">
        <ele>357.77</ele>
        <time>2010-01-01T22:07:22Z</time>
      </trkpt>
      <trkpt lat="44.210180" lon="2.319870">
        <ele>360.493164</ele>
        <time>2010-01-01T22:07:51Z</time>
      </trkpt>
      <trkpt lat="44.210260" lon="2.320310">
        <ele>362.59</ele>
        <time>2010-01-01T22:08:12Z</time>
      </trkpt>
      <trkpt lat="44.210230" lon="2.320730">
        <ele>365.923553</ele>
        <time>2010-01-01T22:08:29Z</time>
      </trkpt>
      <trkpt lat="44.210100" lon="2.321300">
        <ele>368.616089</ele>
        <time>2010-01-01T22:09:20Z</time>
      </trkpt>
      <trkpt lat="44.210050" lon="2.321760">
        <ele>368.692596</ele>
        <time>2010-01-01T22:10:11Z</time>
      </trkpt>
      <trkpt lat="44.210010" lon="2.323400">
        <ele>376.72</ele>
        <time>2010-01-01T22:10:38Z</time>
      </trkpt>
      <trkpt lat="44.210110" lon="2.324970">
        <ele>377.09</ele>
        <time>2010-01-01T22:11:14Z</time>
      </trkpt>
      <trkpt lat="44.209710" lon="2.326620">
        <ele>383.365723</ele>
        <time>2010-01-01T22:12:17Z</time>
      </trkpt>
      <trkpt lat="44.209770" lon="2.327110">
        <ele>385.019257</ele>
        <time>2010-01-01T22:12:41Z</time>
      </trkpt>
      <trkpt lat="44.209940" lon="2.327450">
        <ele>385.80</ele>
        <time>2010-01-01T22:13:16Z</time>
      </trkpt>
      <trkpt lat="44.210000" lon="2.327660">
        <ele>386.233765</ele>
        <time>2010-01-01T22:13:43Z</time>
      </trkpt>
      <trkpt lat="44.210020" lon="2.327890">
        <ele>387.696899</ele>
        <time>2010-01-01T22:14:54Z</time>
      </trkpt>
      <trkpt lat="44.209990" lon="2.328130">
        <ele>387.866547</ele>
        <time>2010-01-01T22:15:54Z</time>
      </trkpt>
      <trkpt lat="44.209860" lon="2.328420">
        <ele>390.843750</ele>
        <time>2010-01-01T22:17:21Z</time>
      </trkpt>
      <trkpt lat="44.209760" lon="2.328530">
        <ele>391.646179</ele>
        <time>2010-01-01T22:17:41Z</time>
      </trkpt>
      <trkpt lat="44.208740" lon="2.329470">
        <ele>403.865173</ele>
        <time>2010-01-01T22:17:58Z</time>
      </trkpt>
      <trkpt lat="44.207610" lon="2.330330">
        <ele>407.028381</ele>
        <time>2010-01-01T22:18:23Z</time>
      </trkpt>
      <trkpt lat="44.207410" lon="2.330530">
        <ele>409.697235</ele>
        <time>2010-01-01T22:18:43Z</time>
      </trkpt>
      <trkpt lat="44.207250" lon="2.330790">
        <ele>412.822815</ele>
        <time>2010-01-01T22:19:11Z</time>
      </trkpt>
      <trkpt lat="44.206910" lon="2.331540">
        <ele>416.745514</ele>
        <time>2010-01-01T22:19:27Z</time>
      </trkpt>
      <trkpt lat="44.206170" lon="2.332550">
        <ele>425.323914</ele>
        <time>2010-01-01T22:19:51Z</time>
      </trkpt>
      <trkpt lat="44.205590" lon="2.333090">
        <ele>428.463013</ele>
        <time>2010-01-01T22:20:18Z</time>
      </trkpt>
      <trkpt lat="44.205510" lon="2.333230">
        <ele>428.243591</ele>
        <time>2010-01-01T22:20:48Z</time>
      </trkpt>
      <trkpt lat="44.205450" lon="2.333510">
        <ele>428.108124</ele>
        <time>2010-01-01T22:21:00Z</time>
      </trkpt>
      <trkpt lat="44.205490" lon="2.333920">
        <ele>435.966248</ele>
        <time>2010-01-01T22:21:23Z</time>
      </trkpt>
      <trkpt lat="44.205580" lon="2.334090">
        <ele>437.254395</ele>
        <time>2010-01-01T22:22:52Z</time>
      </trkpt>
      <trkpt lat="44.205770" lon="2.334240">
        <ele>437.712891</ele>
        <time>2010-01-01T22:23:08Z</time>
      </trkpt>
      <trkpt lat="44.206020" lon="2.334270">
        <ele>439.288330</ele>
        <time>2010-01-01T22:23:12Z</time>
      </trkpt>
      <trkpt lat="44.206250" lon="2.334130">
        <ele>440.59</ele>
        <time>2010-01-01T22:24:30Z</time>
      </trkpt>
      <trkpt lat="44.207770" lon="2.332730">
        <ele>442.015900</ele>
        <time>2010-01-01T22:24:35Z</time>
      </trkpt>
      <trkpt lat="44.207910" lon="2.332670">
        <ele>443.217957</ele>
        <time>2010-01-01T22:24:47Z</time>
      </trkpt>
      <trkpt lat="44.208060" lon="2.332680">
        <ele>444.255280</ele>
        <time>2010-01-01T22:24:54Z</time>
      </trkpt>
      <trkpt lat="44.208250" lon="2.332830">
        <ele>447.960510</ele>
        <time>2010-01-01T22:25:04Z</time>
      </trkpt>
      <trkpt lat="44.208350" lon="2.333170">
        <ele>449.583313</ele>
        <time>2010-01-01T22:25:31Z</time>
      </trkpt>
      <trkpt lat="44.208260" lon="2.334240">
        <ele>452.849609</ele>
        <time>2010-01-01T22:25:55Z</time>
      </trkpt>
      <trkpt lat="44.208100" lon="2.335040">
        <ele>453.228394</ele>
        <time>2010-01-01T22:25:58Z</time>
      </trkpt>
      <trkpt lat="44.207760" lon="2.336120">
        <ele>459.95</ele>
        <time>2010-01-01T22:26:16Z</time>
      </trkpt>
      <trkpt lat="44.207780" lon="2.336430">
        <ele>460.99</ele>
        <time>2010-01-01T22:26:34Z</time>
      </trkpt>
      <trkpt lat="44.207990" lon="2.336840">
        <ele>460.34</ele>
        <time>2010-01-01T22:26:39Z</time>
      </trkpt>
      <trkpt lat="44.207970" lon="2.337150">
        <ele>460.84</ele>
        <time>2010-01-01T22:27:03Z</time>
      </trkpt>
      <trkpt lat="44.207530" lon="2.337600">
        <ele>461.027344</ele>
        <time>2010-01-01T22:27:44Z</time>
      </trkpt>
      <trkpt lat="44.207140" lon="2.337890">
        <ele>461.39</ele>
        <time>2010-01-01T22:28:18Z</time>
      </trkpt>
      <trkpt lat="44.206880" lon="2.337920">
        <ele>462.91</ele>
        <time>2010-01-01T22:28:51Z</time>
      </trkpt>
      <trkpt lat="44.206280" lon="2.337800">
        <ele>468.203674</ele>
        <time>2010-01-01T22:29:33Z</time>
      </trkpt>
      <trkpt lat="44.204980" lon="2.337900">
        <ele>472.535248</ele>
        <time>2010-01-01T22:29:38Z</time>
      </trkpt>
      <trkpt lat="44.204760" lon="2.337870">
        <ele>474.381470</ele>
        <time>2010-01-01T22:29:56Z</time>
      </trkpt>
      <trkpt lat="44.204570" lon="2.337770">
        <ele>476.766235</ele>
        <time>2010-01-01T22:30:00Z</time>
      </trkpt>
      <trkpt lat="44.204360" lon="2.337530">
        <ele>478.718750</ele>
        <time>2010-01-01T22:30:02Z</time>
      </trkpt>
      <trkpt lat="44.204140" lon="2.337070">
        <ele>479.01</ele>
        <time>2010-01-01T22:30:16Z</time>
      </trkpt>
      <trkpt lat="44.204020" lon="2.336970">
        <ele>479.01</ele>
        <time>2010-01-01T22:30:29Z</time>
      </trkpt>
      <trkpt lat="44.203880" lon="2.336950">
        <ele>479.307404</ele>
        <time>2010-01-01T22:30:45Z</time>
      </trkpt>
      <trkpt lat="44.203710" lon="2.337040">
        <ele>479.692810</ele>
        <time>2010-01-01T22:30:55Z</time>
      </trkpt>
      <trkpt lat="44.202930" lon="2.337830">
        <ele>484.07</ele>
        <time>2010-01-01T22:30:58Z</time>
      </trkpt>
      <trkpt lat="44.202630" lon="2.338020">
        <ele>484.986237</ele>
        <time>2010-01-01T22:31:10Z</time>
      </trkpt>
      <trkpt lat="44.202300" lon="2.338130">
        <ele>485.305298</ele>
        <time>2010-01-01T22:31:35Z</time>
      </trkpt>
      <trkpt lat="44.200670" lon="2.338340">
        <ele>485.651093</ele>
        <time>2010-01-01T22:31:42Z</time>
      </trkpt>
      <trkpt lat="44.200380" lon="2.337510">
        <ele>484.200012</ele>
        <time>2010-01-01T22:33:16Z</time>
      </trkpt>
      <trkpt lat="44.200110" lon="2.336420">
        <ele>483.000000</ele>
        <time>2010-01-01T22:33:23Z</time>
      </trkpt>
      <trkpt lat="44.199920" lon="2.335820">
        <ele>483.192505</ele>
        <time>2010-01-01T22:35:35Z</time>
      </trkpt>
      <trkpt lat="44.199120" lon="2.334240">
        <ele>482.515594</ele>
        <time>2010-01-01T22:38:48Z</time>
      </trkpt>
      <trkpt lat="44.198400" lon="2.331990">
        <ele>476.997498</ele>
        <time>2010-01-01T22:38:54Z</time>
      </trkpt>
      <trkpt lat="44.198540" lon="2.330660">
        <ele>474.211243</ele>
        <time>2010-01-01T22:39:02Z</time>
      </trkpt>
      <trkpt lat="44.198490" lon="2.328980">
        <ele>473.094879</ele>
        <time>2010-01-01T22:39:16Z</time>
      </trkpt>
      <trkpt lat="44.198530" lon="2.326070">
        <ele>472.20</ele>
        <time>2010-01-01T22:39:22Z</time>
      </trkpt>
      <trkpt lat="44.198300" lon="2.324050">
        <ele>475.38</ele>
        <time>2010-01-01T22:43:52Z</time>
      </trkpt>
      <trkpt lat="44.197880" lon="2.321370">
        <ele>480.59</ele>
        <time>2010-01-01T22:44:05Z</time>
      </trkpt>
      <trkpt lat="44.197770" lon="2.320830">
        <ele>480.597595</ele>
        <time>2010-01-01T22:44:34Z</time>
      </trkpt>
      <trkpt lat="44.197700" lon="2.320650">
        <ele>480.66</ele>
        <time>2010-01-01T22:45:08Z</time>
      </trkpt>
      <trkpt lat="44.197420" lon="2.320280">
        <ele>480.66</ele>
        <time>2010-01-01T22:45:27Z</time>
      </trkpt>
      <trkpt lat="44.194440" lon="2.317890">
        <ele>480.81</ele>
        <time>2010-01-01T22:45:58Z</time>
      </trkpt>
      <trkpt lat="44.193680" lon="2.317040">
        <ele>480.338745</ele>
        <time>2010-01-01T22:46:26Z</time>
      </trkpt>
      <trkpt lat="44.192770" lon="2.315880">
        <ele>481.609985</ele>
        <time>2010-01-01T22:46:32Z</time>
      </trkpt>
      <trkpt lat="44.192260" lon="2.315340">
        <ele>481.975861</ele>
        <time>2010-01-01T22:48:02Z</time>
      </trkpt>
      <trkpt lat="44.191730" lon="2.314610">
        <ele>483.136261</ele>
        <time>2010-01-01T22:48:40Z</time>
      </trkpt>
      <trkpt lat="44.189540" lon="2.312360">
        <ele>483.584991</ele>
        <time>2010-01-01T22:49:33Z</time>
      </trkpt>
      <trkpt lat="44.189140" lon="2.311850">
        <ele>485.919983</ele>
        <time>2010-01-01T22:50:07Z</time>
      </trkpt>
      <trkpt lat="44.188660" lon="2.311100">
        <ele>489.07</ele>
        <time>2010-01-01T22:50:39Z</time>
      </trkpt>
      <trkpt lat="44.187740" lon="2.310050">
        <ele>492.500305</ele>
        <time>2010-01-01T22:50:51Z</time>
      </trkpt>
      <trkpt lat="44.187580" lon="2.309730">
        <ele>493.442505</ele>
        <time>2010-01-01T22:51:05Z</time>
      </trkpt>
      <trkpt lat="44.187360" lon="2.307820">
        <ele>495.546021</ele>
        <time>2010-01-01T22:51:49Z</time>
      </trkpt>
      <trkpt lat="44.187220" lon="2.307070">
        <ele>495.45</ele>
        <time>2010-01-01T22:54:19Z</time>
      </trkpt>
      <trkpt lat="44.186700" lon="2.305260">
        <ele>490.01</ele>
        <time>2010-01-01T22:54:53Z</time>
      </trkpt>
      <trkpt lat="44.186430" lon="2.302860">
        <ele>485.190796</ele>
        <time>2010-01-01T22:55:34Z</time>
      </trkpt>
      <trkpt lat="44.186520" lon="2.301110">
        <ele>479.757507</ele>
        <time>2010-01-01T22:55:55Z</time>
      </trkpt>
      <trkpt lat="44.186690" lon="2.299780">
        <ele>473.262665</ele>
        <time>2010-01-01T22:56:02Z</time>
      </trkpt>
      <trkpt lat="44.186820" lon="2.298220">
        <ele>467.237396</ele>
        <time>2010-01-01T22:56:07Z</time>
      </trkpt>
      <trkpt lat="44.187150" lon="2.296560">
        <ele>461.968445</ele>
        <time>2010-01-01T22:56:12Z</time>
      </trkpt>
      <trkpt lat="44.187640" lon="2.294590">
        <ele>450.628876</ele>
        <time>2010-01-01T22:56:33Z</time>
      </trkpt>
      <trkpt lat="44.187780" lon="2.293710">
        <ele>448.717499</ele>
        <time>2010-01-01T22:56:39Z</time>
      </trkpt>
      <trkpt lat="44.187870" lon="2.292350">
        <ele>447.003510</ele>
        <time>2010-01-01T22:56:45Z</time>
      </trkpt>
      <trkpt lat="44.187860" lon="2.291870">
        <ele>447.259460</ele>
        <time>2010-01-01T22:56:57Z</time>
      </trkpt>
      <trkpt lat="44.187800" lon="2.291390">
        <ele>447.850861</ele>
        <time>2010-01-01T22:57:43Z</time>
      </trkpt>
      <trkpt lat="44.187720" lon="2.290960">
        <ele>448.984039</ele>
        <time>2010-01-01T22:58:23Z</time>
      </trkpt>
      <trkpt lat="44.187290" lon="2.289950">
        <ele>453.398560</ele>
        <time>2010-01-01T22:58:32Z</time>
      </trkpt>
      <trkpt lat="44.187100" lon="2.289300">
        <ele>457.535248</ele>
        <time>2010-01-01T22:58:48Z</time>
      </trkpt>
      <trkpt lat="44.186920" lon="2.288090">
        <ele>460.69</ele>
        <time>2010-01-01T22:58:53Z</time>
      </trkpt>
      <trkpt lat="44.186850" lon="2.286300">
        <ele>460.40</ele>
        <time>2010-01-01T22:59:00Z</time>
      </trkpt>
      <trkpt lat="44.186870" lon="2.285660">
        <ele>457.147247</ele>
        <time>2010-01-01T22:59:25Z</time>
      </trkpt>
      <trkpt lat="44.186640" lon="2.284670">
        <ele>453.320007</ele>
        <time>2010-01-01T22:59:32Z</time>
      </trkpt>
      <trkpt lat="44.186520" lon="2.283960">
        <ele>451.678162</ele>
        <time>2010-01-01T23:00:04Z</time>
      </trkpt>
      <trkpt lat="44.186530" lon="2.283390">
        <ele>450.50</ele>
        <time>2010-01-01T23:00:25Z</time>
      </trkpt>
      <trkpt lat="44.186710" lon="2.281610">
        <ele>451.94</ele>
        <time>2010-01-01T23:00:30Z</time>
      </trkpt>
      <trkpt lat="44.186810" lon="2.279850">
        <ele>451.874268</ele>
        <time>2010-01-01T23:00:42Z</time>
      </trkpt>
      <trkpt lat="44.186770" lon="2.278920">
        <ele>451.000000</ele>
        <time>2010-01-01T23:01:03Z</time>
      </trkpt>
      <trkpt lat="44.186570" lon="2.277700">
        <ele>450.553040</ele>
        <time>2010-01-01T23:01:17Z</time>
      </trkpt>
      <trkpt lat="44.186520" lon="2.275500">
        <ele>445.477844</ele>
        <time>2010-01-01T23:01:52Z</time>
      </trkpt>
      <trkpt lat="44.186400" lon="2.274670">
        <ele>442.772491</ele>
        <time>2010-01-01T23:02:22Z</time>
      </trkpt>
      <trkpt lat="44.186120" lon="2.273520">
        <ele>440.904999</ele>
        <time>2010-01-01T23:02:30Z</time>
      </trkpt>
      <trkpt lat="44.185980" lon="2.272600">
        <ele>439.595001</ele>
        <time>2010-01-01T23:02:48Z</time>
      </trkpt>
      <trkpt lat="44.185520" lon="2.270200">
        <ele>435.288727</ele>
        <time>2010-01-01T23:02:57Z</time>
      </trkpt>
      <trkpt lat="44.185250" lon="2.268160">
        <ele>434.672791</ele>
        <time>2010-01-01T23:03:20Z</time>
      </trkpt>
      <trkpt lat="44.185172" lon="2.267833">
        <ele>434.592163</ele>
        <time>2010-01-01T23:03:24Z</time>
      </trkpt>
      <trkpt lat="44.184961" lon="2.266993">
        <ele>433.86</ele>
        <time>2010-01-01T23:03:43Z</time>
      </trkpt>
      <trkpt lat="44.184781" lon="2.266153">
        <ele>433.86</ele>
        <time>2010-01-01T23:04:52Z</time>
      </trkpt>
      <trkpt lat="44.184730" lon="2.265240">
        <ele>433.86</ele>
        <time>2010-01-01T23:05:07Z</time>
      </trkpt>
      <trkpt lat="44.184770" lon="2.264560">
        <ele>434.11</ele>
        <time>2010-01-01T23:05:17Z</time>
      </trkpt>
      <trkpt lat="44.184870" lon="2.263980">
        <ele>434.11</ele>
        <time>2010-01-01T23:05:36Z</time>
      </trkpt>
      <trkpt lat="44.185180" lon="2.263240">
        <ele>434.11</ele>
        <time>2010-01-01T23:05:54Z</time>
      </trkpt>
      <trkpt lat="44.185380" lon="2.262580">
        <ele>434.11</ele>
        <time>2010-01-01T23:06:11Z</time>
      </trkpt>
      <trkpt lat="44.185580" lon="2.261640">
        <ele>434.11</ele>
        <time>2010-01-01T23:06:18Z</time>
      </trkpt>
      <trkpt lat="44.185600" lon="2.261080">
        <ele>434.00</ele>
        <time>2010-01-01T23:06:30Z</time>
      </trkpt>
      <trkpt lat="44.185500" lon="2.260260">
        <ele>433.593750</ele>
        <time>2010-01-01T23:06:50Z</time>
      </trkpt>
      <trkpt lat="44.185240" lon="2.259400">
        <ele>432.491241</ele>
        <time>2010-01-01T23:07:00Z</time>
      </trkpt>
      <trkpt lat="44.185020" lon="2.258410">
        <ele>431.809692</ele>
        <time>2010-01-01T23:07:14Z</time>
      </trkpt>
      <trkpt lat="44.184960" lon="2.258010">
        <ele>431.98</ele>
        <time>2010-01-01T23:07:54Z</time>
      </trkpt>
      <trkpt lat="44.184920" lon="2.257190">
        <ele>432.000000</ele>
        <time>2010-01-01T23:08:11Z</time>
      </trkpt>
      <trkpt lat="44.184400" lon="2.254200">
        <ele>426.691589</ele>
        <time>2010-01-01T23:08:22Z</time>
      </trkpt>
      <trkpt lat="44.184359" lon="2.253784">
        <ele>421.758118</ele>
        <time>2010-01-01T23:09:12Z</time>
      </trkpt>
      <trkpt lat="44.184430" lon="2.253640">
        <ele>420.024963</ele>
        <time>2010-01-01T23:09:22Z</time>
      </trkpt>
      <trkpt lat="44.184510" lon="2.253540">
        <ele>419.003265</ele>
        <time>2010-01-01T23:09:41Z</time>
      </trkpt>
      <trkpt lat="44.185628" lon="2.252494">
        <ele>402.160583</ele>
        <time>2010-01-01T23:09:46Z</time>
      </trkpt>
      <trkpt lat="44.185844" lon="2.252370">
        <ele>400.361938</ele>
        <time>2010-01-01T23:10:20Z</time>
      </trkpt>
      <trkpt lat="44.185983" lon="2.252390">
        <ele>397.073059</ele>
        <time>2010-01-01T23:10:59Z</time>
      </trkpt>
      <trkpt lat="44.186136" lon="2.252292">
        <ele>393.114838</ele>
        <time>2010-01-01T23:11:18Z</time>
      </trkpt>
      <trkpt lat="44.186160" lon="2.252190">
        <ele>392.12</ele>
        <time>2010-01-01T23:11:36Z</time>
      </trkpt>
      <trkpt lat="44.186110" lon="2.252020">
        <ele>392.12</ele>
        <time>2010-01-01T23:11:44Z</time>
      </trkpt>
      <trkpt lat="44.185820" lon="2.251900">
        <ele>393.848938</ele>
        <time>2010-01-01T23:11:55Z</time>
      </trkpt>
      <trkpt lat="44.185660" lon="2.251900">
        <ele>392.074036</ele>
        <time>2010-01-01T23:12:30Z</time>
      </trkpt>
      <trkpt lat="44.185430" lon="2.252010">
        <ele>392.206573</ele>
        <time>2010-01-01T23:12:37Z</time>
      </trkpt>
      <trkpt lat="44.185035" lon="2.252233">
        <ele>390.67</ele>
        <time>2010-01-01T23:13:16Z</time>
      </trkpt>
      <trkpt lat="44.184760" lon="2.252270">
        <ele>390.67</ele>
        <time>2010-01-01T23:13:47Z</time>
      </trkpt>
      <trkpt lat="44.184180" lon="2.252320">
        <ele>392.05</ele>
        <time>2010-01-01T23:14:17Z</time>
      </trkpt>
      <trkpt lat="44.184140" lon="2.252240">
        <ele>391.406433</ele>
        <time>2010-01-01T23:14:31Z</time>
      </trkpt>
      <trkpt lat="44.184340" lon="2.251650">
        <ele>378.220337</ele>
        <time>2010-01-01T23:14:43Z</time>
      </trkpt>
      <trkpt lat="44.184290" lon="2.251030">
        <ele>368.454498</ele>
        <time>2010-01-01T23:14:57Z</time>
      </trkpt>
      <trkpt lat="44.184240" lon="2.250880">
        <ele>366.168884</ele>
        <time>2010-01-01T23:14:59Z</time>
      </trkpt>
      <trkpt lat="44.183700" lon="2.250520">
        <ele>365.996246</ele>
        <time>2010-01-01T23:15:02Z</time>
      </trkpt>
      <trkpt lat="44.182820" lon="2.249780">
        <ele>343.265900</ele>
        <time>2010-01-01T23:15:05Z</time>
      </trkpt>
      <trkpt lat="44.182272" lon="2.249661">
        <ele>340.39</ele>
        <time>2010-01-01T23:15:15Z</time>
      </trkpt>
      <trkpt lat="44.182110" lon="2.249654">
        <ele>337.764984</ele>
        <time>2010-01-01T23:15:28Z</time>
      </trkpt>
      <trkpt lat="44.182088" lon="2.249550">
        <ele>333.299988</ele>
        <time>2010-01-01T23:16:29Z</time>
      </trkpt>
      <trkpt lat="44.182210" lon="2.249480">
        <ele>333.299988</ele>
        <time>2010-01-01T23:17:03Z</time>
      </trkpt>
      <trkpt lat="44.183020" lon="2.249390">
        <ele>325.066803</ele>
        <time>2010-01-01T23:17:19Z</time>
      </trkpt>
      <trkpt lat="44.184060" lon="2.249530">
        <ele>319.820282</ele>
        <time>2010-01-01T23:17:34Z</time>
      </trkpt>
      <trkpt lat="44.184200" lon="2.249480">
        <ele>317.243958</ele>
        <time>2010-01-01T23:17:43Z</time>
      </trkpt>
      <trkpt lat="44.184580" lon="2.249190">
        <ele>304.788971</ele>
        <time>2010-01-01T23:19:45Z</time>
      </trkpt>
      <trkpt lat="44.184630" lon="2.249070">
        <ele>300.88</ele>
        <time>2010-01-01T23:20:12Z</time>
      </trkpt>
      <trkpt lat="44.184570" lon="2.249020">
        <ele>300.88</ele>
        <time>2010-01-01T23:20:23Z</time>
      </trkpt>
      <trkpt lat="44.184240" lon="2.249180">
        <ele>300.88</ele>
        <time>2010-01-01T23:20:31Z</time>
      </trkpt>
      <trkpt lat="44.183930" lon="2.249130">
        <ele>300.88</ele>
        <time>2010-01-01T23:20:44Z</time>
      </trkpt>
      <trkpt lat="44.183580" lon="2.248840">
        <ele>300.28</ele>
        <time>2010-01-01T23:20:52Z</time>
      </trkpt>
      <trkpt lat="44.183400" lon="2.248620">
        <ele>296.019379</ele>
        <time>2010-01-01T23:21:00Z</time>
      </trkpt>
      <trkpt lat="44.183420" lon="2.248530">
        <ele>293.468567</ele>
        <time>2010-01-01T23:21:36Z</time>
      </trkpt>
      <trkpt lat="44.183710" lon="2.248330">
        <ele>290.915009</ele>
        <time>2010-01-01T23:22:11Z</time>
      </trkpt>
      <trkpt lat="44.183912" lon="2.248130">
        <ele>290.785004</ele>
        <time>2010-01-01T23:24:27Z</time>
      </trkpt>
      <trkpt lat="44.183984" lon="2.247993">
        <ele>290.84</ele>
        <time>2010-01-01T23:24:37Z</time>
      </trkpt>
      <trkpt lat="44.183988" lon="2.247811">
        <ele>291.34</ele>
        <time>2010-01-01T23:24:45Z</time>
      </trkpt>
      <trkpt lat="44.183930" lon="2.247720">
        <ele>291.34</ele>
        <time>2010-01-01T23:25:09Z</time>
      </trkpt>
      <trkpt lat="44.183810" lon="2.247900">
        <ele>291.38</ele>
        <time>2010-01-01T23:25:23Z</time>
      </trkpt>
      <trkpt lat="44.183687" lon="2.247941">
        <ele>291.59</ele>
        <time>2010-01-01T23:25:32Z</time>
      </trkpt>
      <trkpt lat="44.182728" lon="2.247231">
        <ele>302.27</ele>
        <time>2010-01-01T23:25:51Z</time>
      </trkpt>
      <trkpt lat="44.182428" lon="2.246977">
        <ele>306.190002</ele>
        <time>2010-01-01T23:28:43Z</time>
      </trkpt>
      <trkpt lat="44.182320" lon="2.246795">
        <ele>309.74</ele>
        <time>2010-01-01T23:28:59Z</time>
      </trkpt>
      <trkpt lat="44.182046" lon="2.246677">
        <ele>313.024994</ele>
        <time>2010-01-01T23:29:09Z</time>
      </trkpt>
      <trkpt lat="44.181720" lon="2.246770">
        <ele>315.48</ele>
        <time>2010-01-01T23:29:32Z</time>
      </trkpt>
      <trkpt lat="44.181580" lon="2.246890">
        <ele>315.48</ele>
        <time>2010-01-01T23:34:00Z</time>
      </trkpt>
      <trkpt lat="44.181314" lon="2.247303">
        <ele>316.62</ele>
        <time>2010-01-01T23:36:31Z</time>
      </trkpt>
      <trkpt lat="44.181054" lon="2.248052">
        <ele>314.68</ele>
        <time>2010-01-01T23:36:45Z</time>
      </trkpt>
      <trkpt lat="44.180982" lon="2.248078">
        <ele>314.68</ele>
        <time>2010-01-01T23:37:02Z</time>
      </trkpt>
      <trkpt lat="44.180946" lon="2.247993">
        <ele>318.109955</ele>
        <time>2010-01-01T23:37:35Z</time>
      </trkpt>
      <trkpt lat="44.181256" lon="2.247120">
        <ele>324.20</ele>
        <time>2010-01-01T23:38:12Z</time>
      </trkpt>
      <trkpt lat="44.181422" lon="2.246788">
        <ele>324.20</ele>
        <time>2010-01-01T23:38:34Z</time>
      </trkpt>
      <trkpt lat="44.181611" lon="2.246534">
        <ele>324.93</ele>
        <time>2010-01-01T23:38:45Z</time>
      </trkpt>
      <trkpt lat="44.181826" lon="2.246384">
        <ele>321.38</ele>
        <time>2010-01-01T23:38:56Z</time>
      </trkpt>
      <trkpt lat="44.181988" lon="2.246319">
        <ele>320.12</ele>
        <time>2010-01-01T23:39:03Z</time>
      </trkpt>
      <trkpt lat="44.182140" lon="2.246306">
        <ele>320.12</ele>
        <time>2010-01-01T23:40:01Z</time>
      </trkpt>
      <trkpt lat="44.182176" lon="2.246208">
        <ele>320.12</ele>
        <time>2010-01-01T23:40:10Z</time>
      </trkpt>
      <trkpt lat="44.182114" lon="2.246150">
        <ele>320.63</ele>
        <time>2010-01-01T23:40:36Z</time>
      </trkpt>
      <trkpt lat="44.181890" lon="2.246190">
        <ele>323.86</ele>
        <time>2010-01-01T23:41:42Z</time>
      </trkpt>
      <trkpt lat="44.181328" lon="2.246502">
        <ele>335.63</ele>
        <time>2010-01-01T23:41:53Z</time>
      </trkpt>
      <trkpt lat="44.180901" lon="2.247322">
        <ele>337.88</ele>
        <time>2010-01-01T23:42:13Z</time>
      </trkpt>
      <trkpt lat="44.180533" lon="2.247707">
        <ele>345.48</ele>
        <time>2010-01-01T23:42:26Z</time>
      </trkpt>
      <trkpt lat="44.180227" lon="2.248156">
        <ele>345.74</ele>
        <time>2010-01-01T23:42:46Z</time>
      </trkpt>
      <trkpt lat="44.180093" lon="2.248430">
        <ele>345.62</ele>
        <time>2010-01-01T23:43:03Z</time>
      </trkpt>
      <trkpt lat="44.179990" lon="2.248417">
        <ele>345.44</ele>
        <time>2010-01-01T23:43:16Z</time>
      </trkpt>
      <trkpt lat="44.180017" lon="2.248234">
        <ele>345.77</ele>
        <time>2010-01-01T23:43:46Z</time>
      </trkpt>
      <trkpt lat="44.180223" lon="2.247928">
        <ele>351.22</ele>
        <time>2010-01-01T23:44:03Z</time>
      </trkpt>
      <trkpt lat="44.180569" lon="2.247270">
        <ele>352.47</ele>
        <time>2010-01-01T23:44:20Z</time>
      </trkpt>
      <trkpt lat="44.180776" lon="2.247068">
        <ele>353.26</ele>
        <time>2010-01-01T23:44:46Z</time>
      </trkpt>
      <trkpt lat="44.180874" lon="2.246730">
        <ele>354.540009</ele>
        <time>2010-01-01T23:45:09Z</time>
      </trkpt>
      <trkpt lat="44.181063" lon="2.246000">
        <ele>355.62</ele>
        <time>2010-01-01T23:45:14Z</time>
      </trkpt>
      <trkpt lat="44.181110" lon="2.245610">
        <ele>356.755341</ele>
        <time>2010-01-01T23:45:17Z</time>
      </trkpt>
      <trkpt lat="44.181070" lon="2.245420">
        <ele>358.710052</ele>
        <time>2010-01-01T23:45:20Z</time>
      </trkpt>
      <trkpt lat="44.180950" lon="2.245180">
        <ele>361.591217</ele>
        <time>2010-01-01T23:45:24Z</time>
      </trkpt>
      <trkpt lat="44.180690" lon="2.244830">
        <ele>367.583801</ele>
        <time>2010-01-01T23:46:07Z</time>
      </trkpt>
      <trkpt lat="44.180640" lon="2.244640">
        <ele>369.638153</ele>
        <time>2010-01-01T23:46:31Z</time>
      </trkpt>
      <trkpt lat="44.180646" lon="2.244398">
        <ele>372.12</ele>
        <time>2010-01-01T23:47:21Z</time>
      </trkpt>
      <trkpt lat="44.180731" lon="2.244241">
        <ele>372.12</ele>
        <time>2010-01-01T23:47:44Z</time>
      </trkpt>
      <trkpt lat="44.180740" lon="2.244131">
        <ele>372.390594</ele>
        <time>2010-01-01T23:49:01Z</time>
      </trkpt>
      <trkpt lat="44.180677" lon="2.244066">
        <ele>375.54</ele>
        <time>2010-01-01T23:49:06Z</time>
      </trkpt>
      <trkpt lat="44.180583" lon="2.244163">
        <ele>375.54</ele>
        <time>2010-01-01T23:49:08Z</time>
      </trkpt>
      <trkpt lat="44.180457" lon="2.244762">
        <ele>375.76</ele>
        <time>2010-01-01T23:49:14Z</time>
      </trkpt>
      <trkpt lat="44.180511" lon="2.245082">
        <ele>376.00</ele>
        <time>2010-01-01T23:49:38Z</time>
      </trkpt>
      <trkpt lat="44.180628" lon="2.245394">
        <ele>376.00</ele>
        <time>2010-01-01T23:49:44Z</time>
      </trkpt>
      <trkpt lat="44.180668" lon="2.245694">
        <ele>376.00</ele>
        <time>2010-01-01T23:50:29Z</time>
      </trkpt>
      <trkpt lat="44.180614" lon="2.246143">
        <ele>377.00</ele>
        <time>2010-01-01T23:50:57Z</time>
      </trkpt>
      <trkpt lat="44.180451" lon="2.246554">
        <ele>379.80</ele>
        <time>2010-01-01T23:51:48Z</time>
      </trkpt>
      <trkpt lat="44.179845" lon="2.247159">
        <ele>389.606201</ele>
        <time>2010-01-01T23:52:11Z</time>
      </trkpt>
      <trkpt lat="44.179657" lon="2.247257">
        <ele>390.548126</ele>
        <time>2010-01-01T23:54:13Z</time>
      </trkpt>
      <trkpt lat="44.179445" lon="2.247225">
        <ele>393.585114</ele>
        <time>2010-01-01T23:54:31Z</time>
      </trkpt>
      <trkpt lat="44.178960" lon="2.246899">
        <ele>396.42</ele>
        <time>2010-01-01T23:54:44Z</time>
      </trkpt>
      <trkpt lat="44.178740" lon="2.246638">
        <ele>399.464996</ele>
        <time>2010-01-01T23:55:00Z</time>
      </trkpt>
      <trkpt lat="44.178641" lon="2.246319">
        <ele>401.000336</ele>
        <time>2010-01-01T23:55:04Z</time>
      </trkpt>
      <trkpt lat="44.178491" lon="2.245290">
        <ele>407.143799</ele>
        <time>2010-01-01T23:55:18Z</time>
      </trkpt>
      <trkpt lat="44.178356" lon="2.244756">
        <ele>412.748871</ele>
        <time>2010-01-01T23:55:32Z</time>
      </trkpt>
      <trkpt lat="44.178208" lon="2.244521">
        <ele>415.416901</ele>
        <time>2010-01-01T23:55:48Z</time>
      </trkpt>
      <trkpt lat="44.178023" lon="2.244463">
        <ele>415.945099</ele>
        <time>2010-01-01T23:56:10Z</time>
      </trkpt>
      <trkpt lat="44.177530" lon="2.244600">
        <ele>415.960114</ele>
        <time>2010-01-01T23:56:18Z</time>
      </trkpt>
      <trkpt lat="44.177210" lon="2.244610">
        <ele>418.202148</ele>
        <time>2010-01-01T23:56:30Z</time>
      </trkpt>
      <trkpt lat="44.176490" lon="2.244490">
        <ele>427.821259</ele>
        <time>2010-01-01T23:56:53Z</time>
      </trkpt>
      <trkpt lat="44.175640" lon="2.244540">
        <ele>434.577515</ele>
        <time>2010-01-01T23:56:58Z</time>
      </trkpt>
      <trkpt lat="44.175170" lon="2.244510">
        <ele>435.436676</ele>
        <time>2010-01-01T23:57:03Z</time>
      </trkpt>
      <trkpt lat="44.174390" lon="2.244360">
        <ele>436.320099</ele>
        <time>2010-01-01T23:57:21Z</time>
      </trkpt>
      <trkpt lat="44.173700" lon="2.244310">
        <ele>439.659058</ele>
        <time>2010-01-01T23:57:28Z</time>
      </trkpt>
      <trkpt lat="44.173540" lon="2.244250">
        <ele>440.641266</ele>
        <time>2010-01-01T23:57:32Z</time>
      </trkpt>
      <trkpt lat="44.173359" lon="2.244085">
        <ele>441.718109</ele>
        <time>2010-01-01T23:57:47Z</time>
      </trkpt>
      <trkpt lat="44.175040" lon="2.242390">
        <ele>441.940887</ele>
        <time>2010-01-01T23:58:14Z</time>
      </trkpt>
      <trkpt lat="44.175730" lon="2.241480">
        <ele>441.547394</ele>
        <time>2010-01-01T23:58:20Z</time>
      </trkpt>
      <trkpt lat="44.175846" lon="2.241200">
        <ele>441.719238</ele>
        <time>2010-01-01T23:58:31Z</time>
      </trkpt>
      <trkpt lat="44.176300" lon="2.239800">
        <ele>443.77</ele>
        <time>2010-01-01T23:59:17Z</time>
      </trkpt>
      <trkpt lat="44.175670" lon="2.239020">
        <ele>439.98</ele>
        <time>2010-01-01T23:59:47Z</time>
      </trkpt>
      <trkpt lat="44.175200" lon="2.238130">
        <ele>438.18</ele>
        <time>2010-01-02T00:00:03Z</time>
      </trkpt>
      <trkpt lat="44.175060" lon="2.237740">
        <ele>438.85</ele>
        <time>2010-01-02T00:00:15Z</time>
      </trkpt>
      <trkpt lat="44.174980" lon="2.237270">
        <ele>438.16</ele>
        <time>2010-01-02T00:00:22Z</time>
      </trkpt>
      <trkpt lat="44.174950" lon="2.235720">
        <ele>437.97</ele>
        <time>2010-01-02T00:01:15Z</time>
      </trkpt>
      <trkpt lat="44.174700" lon="2.233859">
        <ele>438.917053</ele>
        <time>2010-01-02T00:01:21Z</time>
      </trkpt>
      <trkpt lat="44.174583" lon="2.233449">
        <ele>438.95</ele>
        <time>2010-01-02T00:01:29Z</time>
      </trkpt>
      <trkpt lat="44.173720" lon="2.230840">
        <ele>437.00</ele>
        <time>2010-01-02T00:02:58Z</time>
      </trkpt>
      <trkpt lat="44.173515" lon="2.230010">
        <ele>437.00</ele>
        <time>2010-01-02T00:03:39Z</time>
      </trkpt>
      <trkpt lat="44.173570" lon="2.229850">
        <ele>436.96</ele>
        <time>2010-01-02T00:03:51Z</time>
      </trkpt>
      <trkpt lat="44.174380" lon="2.229000">
        <ele>432.126740</ele>
        <time>2010-01-02T00:04:43Z</time>
      </trkpt>
      <trkpt lat="44.174810" lon="2.228550">
        <ele>426.110077</ele>
        <time>2010-01-02T00:05:57Z</time>
      </trkpt>
      <trkpt lat="44.174870" lon="2.228330">
        <ele>423.558960</ele>
        <time>2010-01-02T00:07:11Z</time>
      </trkpt>
      <trkpt lat="44.174840" lon="2.228170">
        <ele>421.671570</ele>
        <time>2010-01-02T00:08:23Z</time>
      </trkpt>
      <trkpt lat="44.174750" lon="2.228060">
        <ele>420.424622</ele>
        <time>2010-01-02T00:08:46Z</time>
      </trkpt>
      <trkpt lat="44.174240" lon="2.227880">
        <ele>418.782837</ele>
        <time>2010-01-02T00:09:02Z</time>
      </trkpt>
      <trkpt lat="44.174120" lon="2.227750">
        <ele>418.144836</ele>
        <time>2010-01-02T00:09:11Z</time>
      </trkpt>
      <trkpt lat="44.174090" lon="2.227530">
        <ele>417.134125</ele>
        <time>2010-01-02T00:09:23Z</time>
      </trkpt>
      <trkpt lat="44.174170" lon="2.227120">
        <ele>414.269501</ele>
        <time>2010-01-02T00:09:33Z</time>
      </trkpt>
      <trkpt lat="44.174860" lon="2.225840">
        <ele>406.368744</ele>
        <time>2010-01-02T00:10:35Z</time>
      </trkpt>
      <trkpt lat="44.175670" lon="2.225070">
        <ele>397.82</ele>
        <time>2010-01-02T00:11:10Z</time>
      </trkpt>
      <trkpt lat="44.175890" lon="2.224950">
        <ele>395.421448</ele>
        <time>2010-01-02T00:12:00Z</time>
      </trkpt>
      <trkpt lat="44.176280" lon="2.224850">
        <ele>388.684998</ele>
        <time>2010-01-02T00:12:50Z</time>
      </trkpt>
      <trkpt lat="44.176390" lon="2.224740">
        <ele>387.964508</ele>
        <time>2010-01-02T00:13:25Z</time>
      </trkpt>
      <trkpt lat="44.176460" lon="2.224530">
        <ele>387.87</ele>
        <time>2010-01-02T00:13:40Z</time>
      </trkpt>
      <trkpt lat="44.176530" lon="2.223650">
        <ele>387.87</ele>
        <time>2010-01-02T00:15:37Z</time>
      </trkpt>
      <trkpt lat="44.176580" lon="2.223420">
        <ele>387.00</ele>
        <time>2010-01-02T00:16:42Z</time>
      </trkpt>
      <trkpt lat="44.177020" lon="2.222510">
        <ele>376.66</ele>
        <time>2010-01-02T00:16:48Z</time>
      </trkpt>
      <trkpt lat="44.177280" lon="2.221880">
        <ele>371.90</ele>
        <time>2010-01-02T00:17:57Z</time>
      </trkpt>
      <trkpt lat="44.177320" lon="2.221700">
        <ele>371.44</ele>
        <time>2010-01-02T00:18:06Z</time>
      </trkpt>
      <trkpt lat="44.177313" lon="2.221555">
        <ele>369.46</ele>
        <time>2010-01-02T00:18:32Z</time>
      </trkpt>
      <trkpt lat="44.177160" lon="2.221400">
        <ele>364.69</ele>
        <time>2010-01-02T00:21:56Z</time>
      </trkpt>
      <trkpt lat="44.176630" lon="2.221250">
        <ele>362.89</ele>
        <time>2010-01-02T00:22:18Z</time>
      </trkpt>
      <trkpt lat="44.176300" lon="2.221290">
        <ele>361.78</ele>
        <time>2010-01-02T00:22:37Z</time>
      </trkpt>
      <trkpt lat="44.175470" lon="2.220900">
        <ele>356.89</ele>
        <time>2010-01-02T00:24:15Z</time>
      </trkpt>
      <trkpt lat="44.175180" lon="2.219940">
        <ele>353.10</ele>
        <time>2010-01-02T00:24:42Z</time>
      </trkpt>
      <trkpt lat="44.175050" lon="2.219720">
        <ele>349.86</ele>
        <time>2010-01-02T00:28:53Z</time>
      </trkpt>
      <trkpt lat="44.174690" lon="2.219340">
        <ele>348.710938</ele>
        <time>2010-01-02T00:29:58Z</time>
      </trkpt>
      <trkpt lat="44.174690" lon="2.219040">
        <ele>343.962982</ele>
        <time>2010-01-02T00:30:53Z</time>
      </trkpt>
      <trkpt lat="44.174870" lon="2.218270">
        <ele>341.860626</ele>
        <time>2010-01-02T00:31:53Z</time>
      </trkpt>
      <trkpt lat="44.174930" lon="2.218160">
        <ele>340.998413</ele>
        <time>2010-01-02T00:32:28Z</time>
      </trkpt>
      <trkpt lat="44.175330" lon="2.217800">
        <ele>338.80</ele>
        <time>2010-01-02T00:33:05Z</time>
      </trkpt>
      <trkpt lat="44.175465" lon="2.217484">
        <ele>337.21</ele>
        <time>2010-01-02T00:36:11Z</time>
      </trkpt>
      <trkpt lat="44.175600" lon="2.217126">
        <ele>336.00</ele>
        <time>2010-01-02T00:36:47Z</time>
      </trkpt>
      <trkpt lat="44.175897" lon="2.216663">
        <ele>333.16</ele>
        <time>2010-01-02T00:37:31Z</time>
      </trkpt>
      <trkpt lat="44.176570" lon="2.216190">
        <ele>313.970123</ele>
        <time>2010-01-02T00:38:02Z</time>
      </trkpt>
      <trkpt lat="44.176860" lon="2.215850">
        <ele>306.325195</ele>
        <time>2010-01-02T00:38:13Z</time>
      </trkpt>
      <trkpt lat="44.176960" lon="2.215540">
        <ele>305.791382</ele>
        <time>2010-01-02T00:38:31Z</time>
      </trkpt>
      <trkpt lat="44.177000" lon="2.214880">
        <ele>302.492798</ele>
        <time>2010-01-02T00:39:18Z</time>
      </trkpt>
      <trkpt lat="44.177055" lon="2.214794">
        <ele>299.927734</ele>
        <time>2010-01-02T00:39:42Z</time>
      </trkpt>
      <trkpt lat="44.177118" lon="2.214820">
        <ele>297.78</ele>
        <time>2010-01-02T00:40:19Z</time>
      </trkpt>
      <trkpt lat="44.177060" lon="2.215330">
        <ele>297.78</ele>
        <time>2010-01-02T00:40:28Z</time>
      </trkpt>
      <trkpt lat="44.177070" lon="2.215890">
        <ele>297.637512</ele>
        <time>2010-01-02T00:41:04Z</time>
      </trkpt>
      <trkpt lat="44.177040" lon="2.216160">
        <ele>294.310577</ele>
        <time>2010-01-02T00:41:28Z</time>
      </trkpt>
      <trkpt lat="44.176840" lon="2.216460">
        <ele>293.893555</ele>
        <time>2010-01-02T00:42:06Z</time>
      </trkpt>
      <trkpt lat="44.176420" lon="2.216830">
        <ele>301.915863</ele>
        <time>2010-01-02T00:42:31Z</time>
      </trkpt>
      <trkpt lat="44.176250" lon="2.217090">
        <ele>300.87</ele>
        <time>2010-01-02T00:42:45Z</time>
      </trkpt>
      <trkpt lat="44.176080" lon="2.217530">
        <ele>296.115356</ele>
        <time>2010-01-02T00:43:19Z</time>
      </trkpt>
      <trkpt lat="44.175938" lon="2.218631">
        <ele>281.189117</ele>
        <time>2010-01-02T00:43:29Z</time>
      </trkpt>
      <trkpt lat="44.175950" lon="2.218880">
        <ele>280.94</ele>
        <time>2010-01-02T00:44:13Z</time>
      </trkpt>
      <trkpt lat="44.176140" lon="2.219400">
        <ele>279.704987</ele>
        <time>2010-01-02T00:44:24Z</time>
      </trkpt>
      <trkpt lat="44.176370" lon="2.219610">
        <ele>275.92</ele>
        <time>2010-01-02T00:45:03Z</time>
      </trkpt>
      <trkpt lat="44.176657" lon="2.219686">
        <ele>275.92</ele>
        <time>2010-01-02T00:45:10Z</time>
      </trkpt>
      <trkpt lat="44.177610" lon="2.219540">
        <ele>276.94</ele>
        <time>2010-01-02T00:45:17Z</time>
      </trkpt>
      <trkpt lat="44.177810" lon="2.219320">
        <ele>271.96</ele>
        <time>2010-01-02T00:45:26Z</time>
      </trkpt>
      <trkpt lat="44.177833" lon="2.219210">
        <ele>271.96</ele>
        <time>2010-01-02T00:45:34Z</time>
      </trkpt>
      <trkpt lat="44.177703" lon="2.218872">
        <ele>271.96</ele>
        <time>2010-01-02T00:45:58Z</time>
      </trkpt>
      <trkpt lat="44.177710" lon="2.218730">
        <ele>272.88</ele>
        <time>2010-01-02T00:46:05Z</time>
      </trkpt>
      <trkpt lat="44.177810" lon="2.218590">
        <ele>275.773407</ele>
        <time>2010-01-02T00:46:24Z</time>
      </trkpt>
      <trkpt lat="44.178550" lon="2.218020">
        <ele>282.489990</ele>
        <time>2010-01-02T00:46:39Z</time>
      </trkpt>
      <trkpt lat="44.179460" lon="2.217610">
        <ele>285.645111</ele>
        <time>2010-01-02T00:46:48Z</time>
      </trkpt>
      <trkpt lat="44.179950" lon="2.217570">
        <ele>290.492188</ele>
        <time>2010-01-02T00:47:07Z</time>
      </trkpt>
      <trkpt lat="44.180380" lon="2.217740">
        <ele>292.456848</ele>
        <time>2010-01-02T00:47:20Z</time>
      </trkpt>
      <trkpt lat="44.180540" lon="2.217880">
        <ele>292.55</ele>
        <time>2010-01-02T00:48:52Z</time>
      </trkpt>
      <trkpt lat="44.180730" lon="2.218180">
        <ele>295.22</ele>
        <time>2010-01-02T00:55:48Z</time>
      </trkpt>
      <trkpt lat="44.181107" lon="2.218279">
        <ele>297.73</ele>
        <time>2010-01-02T00:56:13Z</time>
      </trkpt>
      <trkpt lat="44.181420" lon="2.218820">
        <ele>298.01</ele>
        <time>2010-01-02T00:56:20Z</time>
      </trkpt>
      <trkpt lat="44.181590" lon="2.218900">
        <ele>299.32</ele>
        <time>2010-01-02T00:56:28Z</time>
      </trkpt>
      <trkpt lat="44.182550" lon="2.218640">
        <ele>305.29</ele>
        <time>2010-01-02T00:57:10Z</time>
      </trkpt>
      <trkpt lat="44.183310" lon="2.218660">
        <ele>310.17</ele>
        <time>2010-01-02T00:57:29Z</time>
      </trkpt>
      <trkpt lat="44.183890" lon="2.217970">
        <ele>314.17</ele>
        <time>2010-01-02T00:57:50Z</time>
      </trkpt>
      <trkpt lat="44.184180" lon="2.217720">
        <ele>316.04</ele>
        <time>2010-01-02T00:57:58Z</time>
      </trkpt>
      <trkpt lat="44.184460" lon="2.217610">
        <ele>317.73</ele>
        <time>2010-01-02T00:58:28Z</time>
      </trkpt>
      <trkpt lat="44.184810" lon="2.217600">
        <ele>320.67</ele>
        <time>2010-01-02T00:58:34Z</time>
      </trkpt>
      <trkpt lat="44.184860" lon="2.217540">
        <ele>321.30</ele>
        <time>2010-01-02T00:59:05Z</time>
      </trkpt>
      <trkpt lat="44.184850" lon="2.217450">
        <ele>324.04</ele>
        <time>2010-01-02T00:59:38Z</time>
      </trkpt>
      <trkpt lat="44.184790" lon="2.217390">
        <ele>327.25</ele>
        <time>2010-01-02T01:00:25Z</time>
      </trkpt>
      <trkpt lat="44.184540" lon="2.217450">
        <ele>331.605743</ele>
        <time>2010-01-02T01:00:53Z</time>
      </trkpt>
      <trkpt lat="44.184220" lon="2.217450">
        <ele>337.170471</ele>
        <time>2010-01-02T01:02:59Z</time>
      </trkpt>
      <trkpt lat="44.183808" lon="2.217536">
        <ele>337.23</ele>
        <time>2010-01-02T01:03:07Z</time>
      </trkpt>
      <trkpt lat="44.183547" lon="2.217745">
        <ele>338.208038</ele>
        <time>2010-01-02T01:03:22Z</time>
      </trkpt>
      <trkpt lat="44.183296" lon="2.217881">
        <ele>339.209290</ele>
        <time>2010-01-02T01:03:34Z</time>
      </trkpt>
      <trkpt lat="44.182760" lon="2.217910">
        <ele>344.334503</ele>
        <time>2010-01-02T01:03:49Z</time>
      </trkpt>
      <trkpt lat="44.181990" lon="2.217460">
        <ele>354.32</ele>
        <time>2010-01-02T01:04:09Z</time>
      </trkpt>
      <trkpt lat="44.181580" lon="2.217360">
        <ele>355.002258</ele>
        <time>2010-01-02T01:04:18Z</time>
      </trkpt>
      <trkpt lat="44.181230" lon="2.217160">
        <ele>355.757660</ele>
        <time>2010-01-02T01:04:35Z</time>
      </trkpt>
      <trkpt lat="44.181070" lon="2.216980">
        <ele>357.059296</ele>
        <time>2010-01-02T01:04:43Z</time>
      </trkpt>
      <trkpt lat="44.181096" lon="2.216755">
        <ele>361.88</ele>
        <time>2010-01-02T01:06:09Z</time>
      </trkpt>
      <trkpt lat="44.180262" lon="2.216090">
        <ele>361.36</ele>
        <time>2010-01-02T01:06:21Z</time>
      </trkpt>
      <trkpt lat="44.179583" lon="2.215849">
        <ele>355.44</ele>
        <time>2010-01-02T01:06:46Z</time>
      </trkpt>
      <trkpt lat="44.179431" lon="2.215706">
        <ele>353.48</ele>
        <time>2010-01-02T01:07:32Z</time>
      </trkpt>
      <trkpt lat="44.179350" lon="2.215537">
        <ele>351.84</ele>
        <time>2010-01-02T01:07:41Z</time>
      </trkpt>
      <trkpt lat="44.179318" lon="2.215217">
        <ele>349.82</ele>
        <time>2010-01-02T01:09:29Z</time>
      </trkpt>
      <trkpt lat="44.179372" lon="2.214950">
        <ele>349.82</ele>
        <time>2010-01-02T01:10:10Z</time>
      </trkpt>
      <trkpt lat="44.179640" lon="2.214400">
        <ele>349.82</ele>
        <time>2010-01-02T01:10:17Z</time>
      </trkpt>
      <trkpt lat="44.180100" lon="2.213710">
        <ele>350.09</ele>
        <time>2010-01-02T01:10:47Z</time>
      </trkpt>
      <trkpt lat="44.180220" lon="2.213370">
        <ele>350.83</ele>
        <time>2010-01-02T01:11:00Z</time>
      </trkpt>
      <trkpt lat="44.180260" lon="2.213090">
        <ele>350.83</ele>
        <time>2010-01-02T01:11:40Z</time>
      </trkpt>
      <trkpt lat="44.180230" lon="2.212630">
        <ele>348.472717</ele>
        <time>2010-01-02T01:12:19Z</time>
      </trkpt>
      <trkpt lat="44.180170" lon="2.212370">
        <ele>347.00</ele>
        <time>2010-01-02T01:12:30Z</time>
      </trkpt>
      <trkpt lat="44.180050" lon="2.212150">
        <ele>347.00</ele>
        <time>2010-01-02T01:13:36Z</time>
      </trkpt>
      <trkpt lat="44.179330" lon="2.211380">
        <ele>347.429016</ele>
        <time>2010-01-02T01:13:46Z</time>
      </trkpt>
      <trkpt lat="44.178996" lon="2.211075">
        <ele>347.28</ele>
        <time>2010-01-02T01:13:53Z</time>
      </trkpt>
      <trkpt lat="44.178520" lon="2.211030">
        <ele>346.85</ele>
        <time>2010-01-02T01:14:28Z</time>
      </trkpt>
      <trkpt lat="44.177667" lon="2.210938">
        <ele>345.09</ele>
        <time>2010-01-02T01:14:34Z</time>
      </trkpt>
      <trkpt lat="44.177227" lon="2.211101">
        <ele>340.23</ele>
        <time>2010-01-02T01:14:41Z</time>
      </trkpt>
      <trkpt lat="44.177002" lon="2.211049">
        <ele>335.996735</ele>
        <time>2010-01-02T01:15:00Z</time>
      </trkpt>
      <trkpt lat="44.176863" lon="2.210899">
        <ele>332.787231</ele>
        <time>2010-01-02T01:15:37Z</time>
      </trkpt>
      <trkpt lat="44.176773" lon="2.210593">
        <ele>328.872498</ele>
        <time>2010-01-02T01:15:50Z</time>
      </trkpt>
      <trkpt lat="44.176791" lon="2.210196">
        <ele>326.48</ele>
        <time>2010-01-02T01:16:29Z</time>
      </trkpt>
      <trkpt lat="44.176858" lon="2.209863">
        <ele>324.34</ele>
        <time>2010-01-02T01:17:02Z</time>
      </trkpt>
      <trkpt lat="44.177011" lon="2.209499">
        <ele>322.46</ele>
        <time>2010-01-02T01:17:31Z</time>
      </trkpt>
      <trkpt lat="44.177380" lon="2.208830">
        <ele>322.46</ele>
        <time>2010-01-02T01:17:51Z</time>
      </trkpt>
      <trkpt lat="44.177550" lon="2.208600">
        <ele>322.46</ele>
        <time>2010-01-02T01:18:13Z</time>
      </trkpt>
      <trkpt lat="44.177720" lon="2.208470">
        <ele>322.46</ele>
        <time>2010-01-02T01:18:33Z</time>
      </trkpt>
      <trkpt lat="44.178300" lon="2.208220">
        <ele>322.46</ele>
        <time>2010-01-02T01:19:01Z</time>
      </trkpt>
      <trkpt lat="44.178610" lon="2.207960">
        <ele>322.732910</ele>
        <time>2010-01-02T01:19:09Z</time>
      </trkpt>
      <trkpt lat="44.178770" lon="2.207740">
        <ele>321.182495</ele>
        <time>2010-01-02T01:19:27Z</time>
      </trkpt>
      <trkpt lat="44.179040" lon="2.207220">
        <ele>316.964417</ele>
        <time>2010-01-02T01:20:23Z</time>
      </trkpt>
      <trkpt lat="44.179097" lon="2.206848">
        <ele>313.38</ele>
        <time>2010-01-02T01:21:33Z</time>
      </trkpt>
      <trkpt lat="44.179052" lon="2.206581">
        <ele>312.52</ele>
        <time>2010-01-02T01:22:04Z</time>
      </trkpt>
      <trkpt lat="44.178882" lon="2.206379">
        <ele>312.21</ele>
        <time>2010-01-02T01:22:10Z</time>
      </trkpt>
      <trkpt lat="44.178639" lon="2.206327">
        <ele>311.53</ele>
        <time>2010-01-02T01:22:19Z</time>
      </trkpt>
      <trkpt lat="44.178154" lon="2.206659">
        <ele>310.54</ele>
        <time>2010-01-02T01:22:25Z</time>
      </trkpt>
      <trkpt lat="44.177884" lon="2.206756">
        <ele>309.61</ele>
        <time>2010-01-02T01:23:04Z</time>
      </trkpt>
      <trkpt lat="44.177473" lon="2.206717">
        <ele>308.46</ele>
        <time>2010-01-02T01:23:13Z</time>
      </trkpt>
      <trkpt lat="44.177226" lon="2.206561">
        <ele>306.96</ele>
        <time>2010-01-02T01:23:34Z</time>
      </trkpt>
      <trkpt lat="44.177042" lon="2.206261">
        <ele>304.32</ele>
        <time>2010-01-02T01:23:54Z</time>
      </trkpt>
      <trkpt lat="44.176889" lon="2.205584">
        <ele>303.58</ele>
        <time>2010-01-02T01:24:18Z</time>
      </trkpt>
      <trkpt lat="44.176754" lon="2.205304">
        <ele>302.01</ele>
        <time>2010-01-02T01:24:43Z</time>
      </trkpt>
      <trkpt lat="44.176413" lon="2.204965">
        <ele>300.46</ele>
        <time>2010-01-02T01:24:49Z</time>
      </trkpt>
      <trkpt lat="44.176030" lon="2.204680">
        <ele>300.46</ele>
        <time>2010-01-02T01:25:05Z</time>
      </trkpt>
      <trkpt lat="44.175800" lon="2.204230">
        <ele>301.89</ele>
        <time>2010-01-02T01:25:20Z</time>
      </trkpt>
      <trkpt lat="44.175610" lon="2.204000">
        <ele>301.89</ele>
        <time>2010-01-02T01:25:26Z</time>
      </trkpt>
      <trkpt lat="44.175110" lon="2.203580">
        <ele>301.89</ele>
        <time>2010-01-02T01:25:49Z</time>
      </trkpt>
      <trkpt lat="44.174831" lon="2.203409">
        <ele>301.89</ele>
        <time>2010-01-02T01:25:55Z</time>
      </trkpt>
      <trkpt lat="44.173128" lon="2.203076">
        <ele>298.53</ele>
        <time>2010-01-02T01:25:59Z</time>
      </trkpt>
      <trkpt lat="44.171927" lon="2.203200">
        <ele>286.099518</ele>
        <time>2010-01-02T01:26:10Z</time>
      </trkpt>
      <trkpt lat="44.171415" lon="2.203259">
        <ele>284.616882</ele>
        <time>2010-01-02T01:26:16Z</time>
      </trkpt>
      <trkpt lat="44.171140" lon="2.203109">
        <ele>284.42</ele>
        <time>2010-01-02T01:26:26Z</time>
      </trkpt>
      <trkpt lat="44.170690" lon="2.202679">
        <ele>279.73</ele>
        <time>2010-01-02T01:26:33Z</time>
      </trkpt>
      <trkpt lat="44.170506" lon="2.202327">
        <ele>276.47</ele>
        <time>2010-01-02T01:27:04Z</time>
      </trkpt>
      <trkpt lat="44.170340" lon="2.201702">
        <ele>275.72</ele>
        <time>2010-01-02T01:27:11Z</time>
      </trkpt>
      <trkpt lat="44.170205" lon="2.201396">
        <ele>275.21</ele>
        <time>2010-01-02T01:27:15Z</time>
      </trkpt>
      <trkpt lat="44.169967" lon="2.201194">
        <ele>275.67</ele>
        <time>2010-01-02T01:27:22Z</time>
      </trkpt>
      <trkpt lat="44.169210" lon="2.200910">
        <ele>275.67</ele>
        <time>2010-01-02T01:27:46Z</time>
      </trkpt>
      <trkpt lat="44.168835" lon="2.200862">
        <ele>273.67</ele>
        <time>2010-01-02T01:27:54Z</time>
      </trkpt>
      <trkpt lat="44.167213" lon="2.201285">
        <ele>265.275757</ele>
        <time>2010-01-02T01:28:11Z</time>
      </trkpt>
      <trkpt lat="44.166890" lon="2.201233">
        <ele>261.281219</ele>
        <time>2010-01-02T01:28:42Z</time>
      </trkpt>
      <trkpt lat="44.166674" lon="2.201051">
        <ele>260.17</ele>
        <time>2010-01-02T01:29:10Z</time>
      </trkpt>
      <trkpt lat="44.166549" lon="2.200771">
        <ele>260.19</ele>
        <time>2010-01-02T01:29:26Z</time>
      </trkpt>
      <trkpt lat="44.166190" lon="2.199660">
        <ele>260.64</ele>
        <time>2010-01-02T01:29:34Z</time>
      </trkpt>
      <trkpt lat="44.166020" lon="2.199230">
        <ele>259.63</ele>
        <time>2010-01-02T01:29:42Z</time>
      </trkpt>
      <trkpt lat="44.165710" lon="2.198850">
        <ele>258.27</ele>
        <time>2010-01-02T01:29:51Z</time>
      </trkpt>
      <trkpt lat="44.165000" lon="2.198230">
        <ele>255.79</ele>
        <time>2010-01-02T01:30:11Z</time>
      </trkpt>
      <trkpt lat="44.164440" lon="2.197210">
        <ele>255.20</ele>
        <time>2010-01-02T01:30:16Z</time>
      </trkpt>
      <trkpt lat="44.164080" lon="2.196650">
        <ele>253.49</ele>
        <time>2010-01-02T01:30:34Z</time>
      </trkpt>
      <trkpt lat="44.163840" lon="2.196440">
        <ele>252.95</ele>
        <time>2010-01-02T01:30:41Z</time>
      </trkpt>
      <trkpt lat="44.163570" lon="2.196400">
        <ele>251.21</ele>
        <time>2010-01-02T01:30:47Z</time>
      </trkpt>
      <trkpt lat="44.163400" lon="2.196430">
        <ele>249.25</ele>
        <time>2010-01-02T01:31:06Z</time>
      </trkpt>
      <trkpt lat="44.162986" lon="2.196641">
        <ele>241.42</ele>
        <time>2010-01-02T01:31:14Z</time>
      </trkpt>
      <trkpt lat="44.162906" lon="2.196654">
        <ele>240.63</ele>
        <time>2010-01-02T01:31:24Z</time>
      </trkpt>
      <trkpt lat="44.162020" lon="2.196390">
        <ele>240.65</ele>
        <time>2010-01-02T01:31:41Z</time>
      </trkpt>
      <trkpt lat="44.161930" lon="2.196090">
        <ele>240.65</ele>
        <time>2010-01-02T01:32:02Z</time>
      </trkpt>
      <trkpt lat="44.162020" lon="2.195180">
        <ele>244.51</ele>
        <time>2010-01-02T01:32:31Z</time>
      </trkpt>
      <trkpt lat="44.162026" lon="2.194681">
        <ele>244.219223</ele>
        <time>2010-01-02T01:32:51Z</time>
      </trkpt>
      <trkpt lat="44.161923" lon="2.194049">
        <ele>244.562149</ele>
        <time>2010-01-02T01:32:55Z</time>
      </trkpt>
      <trkpt lat="44.161570" lon="2.193000">
        <ele>256.621399</ele>
        <time>2010-01-02T01:33:14Z</time>
      </trkpt>
      <trkpt lat="44.161520" lon="2.192630">
        <ele>258.987488</ele>
        <time>2010-01-02T01:34:10Z</time>
      </trkpt>
      <trkpt lat="44.161530" lon="2.191920">
        <ele>261.742950</ele>
        <time>2010-01-02T01:35:29Z</time>
      </trkpt>
      <trkpt lat="44.161600" lon="2.191480">
        <ele>261.84</ele>
        <time>2010-01-02T01:35:42Z</time>
      </trkpt>
      <trkpt lat="44.161840" lon="2.190880">
        <ele>262.876892</ele>
        <time>2010-01-02T01:35:47Z</time>
      </trkpt>
      <trkpt lat="44.162130" lon="2.190440">
        <ele>264.590240</ele>
        <time>2010-01-02T01:36:06Z</time>
      </trkpt>
      <trkpt lat="44.162390" lon="2.190150">
        <ele>265.66</ele>
        <time>2010-01-02T01:36:13Z</time>
      </trkpt>
      <trkpt lat="44.163010" lon="2.189610">
        <ele>266.52</ele>
        <time>2010-01-02T01:36:36Z</time>
      </trkpt>
      <trkpt lat="44.163390" lon="2.189350">
        <ele>267.40</ele>
        <time>2010-01-02T01:36:49Z</time>
      </trkpt>
      <trkpt lat="44.163730" lon="2.188990">
        <ele>268.49</ele>
        <time>2010-01-02T01:37:01Z</time>
      </trkpt>
      <trkpt lat="44.164170" lon="2.188290">
        <ele>269.04</ele>
        <time>2010-01-02T01:37:21Z</time>
      </trkpt>
      <trkpt lat="44.164620" lon="2.187800">
        <ele>269.99</ele>
        <time>2010-01-02T01:37:36Z</time>
      </trkpt>
      <trkpt lat="44.164650" lon="2.187650">
        <ele>270.03</ele>
        <time>2010-01-02T01:38:37Z</time>
      </trkpt>
      <trkpt lat="44.164610" lon="2.187550">
        <ele>271.25</ele>
        <time>2010-01-02T01:38:48Z</time>
      </trkpt>
      <trkpt lat="44.164540" lon="2.187510">
        <ele>271.80</ele>
        <time>2010-01-02T01:38:55Z</time>
      </trkpt>
      <trkpt lat="44.164450" lon="2.187540">
        <ele>271.84</ele>
        <time>2010-01-02T01:39:21Z</time>
      </trkpt>
      <trkpt lat="44.163680" lon="2.188600">
        <ele>275.50</ele>
        <time>2010-01-02T01:39:27Z</time>
      </trkpt>
      <trkpt lat="44.163210" lon="2.189100">
        <ele>279.868744</ele>
        <time>2010-01-02T01:39:32Z</time>
      </trkpt>
      <trkpt lat="44.162090" lon="2.189860">
        <ele>293.741791</ele>
        <time>2010-01-02T01:39:44Z</time>
      </trkpt>
      <trkpt lat="44.161630" lon="2.190370">
        <ele>295.259369</ele>
        <time>2010-01-02T01:39:55Z</time>
      </trkpt>
      <trkpt lat="44.161409" lon="2.190642">
        <ele>299.01</ele>
        <time>2010-01-02T01:40:21Z</time>
      </trkpt>
      <trkpt lat="44.161023" lon="2.191626">
        <ele>299.01</ele>
        <time>2010-01-02T01:40:43Z</time>
      </trkpt>
      <trkpt lat="44.160933" lon="2.192004">
        <ele>299.01</ele>
        <time>2010-01-02T01:40:54Z</time>
      </trkpt>
      <trkpt lat="44.160940" lon="2.192790">
        <ele>299.01</ele>
        <time>2010-01-02T01:41:03Z</time>
      </trkpt>
      <trkpt lat="44.160830" lon="2.192890">
        <ele>299.01</ele>
        <time>2010-01-02T01:41:10Z</time>
      </trkpt>
      <trkpt lat="44.160780" lon="2.192900">
        <ele>297.18</ele>
        <time>2010-01-02T01:42:26Z</time>
      </trkpt>
      <trkpt lat="44.160700" lon="2.192740">
        <ele>297.77</ele>
        <time>2010-01-02T01:42:41Z</time>
      </trkpt>
      <trkpt lat="44.160800" lon="2.191910">
        <ele>297.77</ele>
        <time>2010-01-02T01:42:50Z</time>
      </trkpt>
      <trkpt lat="44.160770" lon="2.191700">
        <ele>297.77</ele>
        <time>2010-01-02T01:43:00Z</time>
      </trkpt>
      <trkpt lat="44.160350" lon="2.190270">
        <ele>314.02</ele>
        <time>2010-01-02T01:43:14Z</time>
      </trkpt>
      <trkpt lat="44.159870" lon="2.189560">
        <ele>313.95</ele>
        <time>2010-01-02T01:43:36Z</time>
      </trkpt>
      <trkpt lat="44.159120" lon="2.188130">
        <ele>322.70</ele>
        <time>2010-01-02T01:43:46Z</time>
      </trkpt>
      <trkpt lat="44.158640" lon="2.187680">
        <ele>325.751526</ele>
        <time>2010-01-02T01:44:01Z</time>
      </trkpt>
      <trkpt lat="44.158528" lon="2.187301">
        <ele>330.615814</ele>
        <time>2010-01-02T01:44:22Z</time>
      </trkpt>
      <trkpt lat="44.158492" lon="2.186395">
        <ele>336.391937</ele>
        <time>2010-01-02T01:44:57Z</time>
      </trkpt>
      <trkpt lat="44.158375" lon="2.185699">
        <ele>336.899750</ele>
        <time>2010-01-02T01:45:15Z</time>
      </trkpt>
      <trkpt lat="44.158357" lon="2.185151">
        <ele>342.144989</ele>
        <time>2010-01-02T01:45:54Z</time>
      </trkpt>
      <trkpt lat="44.158299" lon="2.184845">
        <ele>343.957489</ele>
        <time>2010-01-02T01:46:16Z</time>
      </trkpt>
      <trkpt lat="44.158075" lon="2.184168">
        <ele>349.096313</ele>
        <time>2010-01-02T01:46:22Z</time>
      </trkpt>
      <trkpt lat="44.157980" lon="2.183590">
        <ele>355.282623</ele>
        <time>2010-01-02T01:46:28Z</time>
      </trkpt>
      <trkpt lat="44.157860" lon="2.183000">
        <ele>357.409973</ele>
        <time>2010-01-02T01:46:58Z</time>
      </trkpt>
      <trkpt lat="44.157890" lon="2.182550">
        <ele>359.132111</ele>
        <time>2010-01-02T01:47:17Z</time>
      </trkpt>
      <trkpt lat="44.158040" lon="2.182010">
        <ele>363.42</ele>
        <time>2010-01-02T01:47:38Z</time>
      </trkpt>
      <trkpt lat="44.157980" lon="2.181890">
        <ele>363.42</ele>
        <time>2010-01-02T01:48:00Z</time>
      </trkpt>
      <trkpt lat="44.157660" lon="2.181700">
        <ele>363.42</ele>
        <time>2010-01-02T01:48:09Z</time>
      </trkpt>
      <trkpt lat="44.157390" lon="2.181390">
        <ele>363.42</ele>
        <time>2010-01-02T01:48:34Z</time>
      </trkpt>
      <trkpt lat="44.157140" lon="2.180990">
        <ele>363.42</ele>
        <time>2010-01-02T01:49:13Z</time>
      </trkpt>
      <trkpt lat="44.156820" lon="2.180350">
        <ele>364.837799</ele>
        <time>2010-01-02T01:49:20Z</time>
      </trkpt>
      <trkpt lat="44.156720" lon="2.180110">
        <ele>365.07</ele>
        <time>2010-01-02T01:50:06Z</time>
      </trkpt>
      <trkpt lat="44.156670" lon="2.179690">
        <ele>367.360657</ele>
        <time>2010-01-02T01:50:21Z</time>
      </trkpt>
      <trkpt lat="44.156890" lon="2.178950">
        <ele>372.48</ele>
        <time>2010-01-02T01:54:46Z</time>
      </trkpt>
      <trkpt lat="44.156880" lon="2.178780">
        <ele>372.48</ele>
        <time>2010-01-02T01:55:05Z</time>
      </trkpt>
      <trkpt lat="44.156780" lon="2.178680">
        <ele>372.48</ele>
        <time>2010-01-02T01:57:04Z</time>
      </trkpt>
      <trkpt lat="44.156360" lon="2.178860">
        <ele>372.48</ele>
        <time>2010-01-02T01:57:33Z</time>
      </trkpt>
      <trkpt lat="44.156180" lon="2.178770">
        <ele>372.15</ele>
        <time>2010-01-02T01:58:25Z</time>
      </trkpt>
      <trkpt lat="44.156120" lon="2.178650">
        <ele>373.35</ele>
        <time>2010-01-02T01:58:43Z</time>
      </trkpt>
      <trkpt lat="44.156050" lon="2.178150">
        <ele>378.02</ele>
        <time>2010-01-02T01:59:29Z</time>
      </trkpt>
      <trkpt lat="44.155780" lon="2.177300">
        <ele>380.904175</ele>
        <time>2010-01-02T01:59:55Z</time>
      </trkpt>
      <trkpt lat="44.155760" lon="2.177080">
        <ele>381.156647</ele>
        <time>2010-01-02T02:00:15Z</time>
      </trkpt>
      <trkpt lat="44.155800" lon="2.176720">
        <ele>382.458160</ele>
        <time>2010-01-02T02:00:46Z</time>
      </trkpt>
      <trkpt lat="44.156200" lon="2.175220">
        <ele>392.547516</ele>
        <time>2010-01-02T02:01:38Z</time>
      </trkpt>
      <trkpt lat="44.156190" lon="2.174170">
        <ele>394.071716</ele>
        <time>2010-01-02T02:02:05Z</time>
      </trkpt>
      <trkpt lat="44.156220" lon="2.173610">
        <ele>395.131989</ele>
        <time>2010-01-02T02:02:30Z</time>
      </trkpt>
      <trkpt lat="44.156290" lon="2.173190">
        <ele>395.780273</ele>
        <time>2010-01-02T02:03:19Z</time>
      </trkpt>
      <trkpt lat="44.156370" lon="2.172980">
        <ele>396.500183</ele>
        <time>2010-01-02T02:03:24Z</time>
      </trkpt>
      <trkpt lat="44.157170" lon="2.171510">
        <ele>405.246307</ele>
        <time>2010-01-02T02:03:58Z</time>
      </trkpt>
      <trkpt lat="44.157220" lon="2.171320">
        <ele>405.867371</ele>
        <time>2010-01-02T02:04:52Z</time>
      </trkpt>
      <trkpt lat="44.157200" lon="2.171020">
        <ele>406.489990</ele>
        <time>2010-01-02T02:05:14Z</time>
      </trkpt>
      <trkpt lat="44.157114" lon="2.170789">
        <ele>407.589996</ele>
        <time>2010-01-02T02:07:39Z</time>
      </trkpt>
      <trkpt lat="44.156943" lon="2.170620">
        <ele>407.931641</ele>
        <time>2010-01-02T02:07:51Z</time>
      </trkpt>
      <trkpt lat="44.156252" lon="2.170197">
        <ele>408.570007</ele>
        <time>2010-01-02T02:09:12Z</time>
      </trkpt>
      <trkpt lat="44.156072" lon="2.169995">
        <ele>409.065002</ele>
        <time>2010-01-02T02:10:21Z</time>
      </trkpt>
      <trkpt lat="44.155790" lon="2.168900">
        <ele>412.63</ele>
        <time>2010-01-02T02:10:27Z</time>
      </trkpt>
      <trkpt lat="44.155560" lon="2.167520">
        <ele>417.484741</ele>
        <time>2010-01-02T02:10:39Z</time>
      </trkpt>
      <trkpt lat="44.155360" lon="2.167180">
        <ele>419.047516</ele>
        <time>2010-01-02T02:10:48Z</time>
      </trkpt>
      <trkpt lat="44.154200" lon="2.166390">
        <ele>420.896057</ele>
        <time>2010-01-02T02:11:00Z</time>
      </trkpt>
      <trkpt lat="44.152420" lon="2.165680">
        <ele>420.60</ele>
        <time>2010-01-02T02:11:38Z</time>
      </trkpt>
      <trkpt lat="44.151050" lon="2.165253">
        <ele>420.60</ele>
        <time>2010-01-02T02:11:42Z</time>
      </trkpt>
      <trkpt lat="44.151160" lon="2.165010">
        <ele>420.60</ele>
        <time>2010-01-02T02:11:45Z</time>
      </trkpt>
      <trkpt lat="44.152770" lon="2.163920">
        <ele>420.60</ele>
        <time>2010-01-02T02:11:55Z</time>
      </trkpt>
      <trkpt lat="44.153270" lon="2.163520">
        <ele>420.553436</ele>
      </trkpt>
      <trkpt lat="44.153590" lon="2.163160">
        <ele>420.682495</ele>
      </trkpt>
      <trkpt lat="44.153740" lon="2.162920">
        <ele>420.672485</ele>
      </trkpt>
      <trkpt lat="44.153880" lon="2.162570">
        <ele>420.738739</ele>
      </trkpt>
      <trkpt lat="44.153940" lon="2.162220">
        <ele>420.654999</ele>
      </trkpt>
      <trkpt lat="44.153660" lon="2.160090">
        <ele>422.000000</ele>
      </trkpt>
      <trkpt lat="44.153520" lon="2.158900">
        <ele>422.40</ele>
      </trkpt>
      <trkpt lat="44.153620" lon="2.157170">
        <ele>421.70</ele>
      </trkpt>
      <trkpt lat="44.154010" lon="2.155500">
        <ele>416.585388</ele>
      </trkpt>
      <trkpt lat="44.154500" lon="2.154490">
        <ele>413.432495</ele>
      </trkpt>
      <trkpt lat="44.154590" lon="2.153980">
        <ele>413.044495</ele>
      </trkpt>
      <trkpt lat="44.154770" lon="2.149910">
        <ele>413.87</ele>
      </trkpt>
      <trkpt lat="44.154730" lon="2.147650">
        <ele>413.87</ele>
      </trkpt>
      <trkpt lat="44.154770" lon="2.147450">
        <ele>414.87</ele>
      </trkpt>
      <trkpt lat="44.155600" lon="2.145340">
        <ele>415.87</ele>
      </trkpt>
      <trkpt lat="44.155680" lon="2.145060">
        <ele>416.87</ele>
      </trkpt>
      <trkpt lat="44.155820" lon="2.144170">
        <ele>417.87</ele>
      </trkpt>
      <trkpt lat="44.156012" lon="2.142944">
        <ele>418.07</ele>
      </trkpt>
      <trkpt lat="44.156642" lon="2.140411">
        <ele>420.51</ele>
      </trkpt>
      <trkpt lat="44.156876" lon="2.139785">
        <ele>420.51</ele>
      </trkpt>
      <trkpt lat="44.157800" lon="2.137680">
        <ele>418.47</ele>
      </trkpt>
      <trkpt lat="44.157680" lon="2.136950">
        <ele>419.00</ele>
      </trkpt>
      <trkpt lat="44.157480" lon="2.136350">
        <ele>420.232513</ele>
      </trkpt>
      <trkpt lat="44.156873" lon="2.135083">
        <ele>421.90</ele>
      </trkpt>
      <trkpt lat="44.156100" lon="2.133540">
        <ele>421.90</ele>
      </trkpt>
      <trkpt lat="44.155700" lon="2.132770">
        <ele>422.720001</ele>
      </trkpt>
      <trkpt lat="44.155445" lon="2.132041">
        <ele>424.528748</ele>
      </trkpt>
      <trkpt lat="44.152461" lon="2.129005">
        <ele>429.832489</ele>
      </trkpt>
      <trkpt lat="44.152144" lon="2.128673">
        <ele>430.505920</ele>
      </trkpt>
      <trkpt lat="44.151928" lon="2.128387">
        <ele>431.00</ele>
      </trkpt>
      <trkpt lat="44.151721" lon="2.127872">
        <ele>431.00</ele>
      </trkpt>
      <trkpt lat="44.151430" lon="2.126710">
        <ele>431.000000</ele>
      </trkpt>
      <trkpt lat="44.151120" lon="2.124490">
        <ele>431.282104</ele>
      </trkpt>
      <trkpt lat="44.150930" lon="2.122580">
        <ele>431.768921</ele>
      </trkpt>
      <trkpt lat="44.150916" lon="2.122179">
        <ele>432.000000</ele>
      </trkpt>
      <trkpt lat="44.151024" lon="2.120877">
        <ele>432.000000</ele>
      </trkpt>
      <trkpt lat="44.151000" lon="2.120500">
        <ele>432.000000</ele>
      </trkpt>
      <trkpt lat="44.150750" lon="2.119330">
        <ele>432.000000</ele>
      </trkpt>
      <trkpt lat="44.150730" lon="2.118030">
        <ele>432.000000</ele>
      </trkpt>
      <trkpt lat="44.150671" lon="2.117659">
        <ele>431.410004</ele>
      </trkpt>
      <trkpt lat="44.150377" lon="2.116259">
        <ele>430.510162</ele>
      </trkpt>
      <trkpt lat="44.151451" lon="2.114813">
        <ele>425.352509</ele>
      </trkpt>
      <trkpt lat="44.151692" lon="2.114643">
        <ele>424.052368</ele>
      </trkpt>
      <trkpt lat="44.152146" lon="2.114454">
        <ele>420.745453</ele>
      </trkpt>
      <trkpt lat="44.152474" lon="2.114109">
        <ele>419.329285</ele>
      </trkpt>
      <trkpt lat="44.153070" lon="2.113680">
        <ele>415.09</ele>
      </trkpt>
      <trkpt lat="44.153800" lon="2.112960">
        <ele>409.483734</ele>
      </trkpt>
      <trkpt lat="44.153944" lon="2.112780">
        <ele>408.535736</ele>
      </trkpt>
      <trkpt lat="44.154400" lon="2.111680">
        <ele>404.727509</ele>
      </trkpt>
      <trkpt lat="44.154810" lon="2.110770">
        <ele>399.806061</ele>
      </trkpt>
      <trkpt lat="44.155000" lon="2.110510">
        <ele>397.509033</ele>
      </trkpt>
      <trkpt lat="44.155390" lon="2.110160">
        <ele>395.362915</ele>
      </trkpt>
      <trkpt lat="44.156070" lon="2.108830">
        <ele>393.581177</ele>
      </trkpt>
      <trkpt lat="44.156500" lon="2.108270">
        <ele>388.365204</ele>
      </trkpt>
      <trkpt lat="44.156656" lon="2.107928">
        <ele>385.722565</ele>
      </trkpt>
      <trkpt lat="44.156697" lon="2.107589">
        <ele>384.237793</ele>
      </trkpt>
      <trkpt lat="44.156650" lon="2.107060">
        <ele>384.225128</ele>
      </trkpt>
      <trkpt lat="44.156680" lon="2.106760">
        <ele>382.329071</ele>
      </trkpt>
      <trkpt lat="44.157260" lon="2.105780">
        <ele>377.524017</ele>
      </trkpt>
      <trkpt lat="44.157680" lon="2.105180">
        <ele>374.507751</ele>
      </trkpt>
      <trkpt lat="44.158400" lon="2.104320">
        <ele>363.461700</ele>
      </trkpt>
      <trkpt lat="44.158820" lon="2.103700">
        <ele>361.468170</ele>
      </trkpt>
      <trkpt lat="44.159130" lon="2.103470">
        <ele>357.878876</ele>
      </trkpt>
      <trkpt lat="44.159505" lon="2.103382">
        <ele>353.568115</ele>
      </trkpt>
      <trkpt lat="44.159716" lon="2.103245">
        <ele>349.172302</ele>
      </trkpt>
      <trkpt lat="44.159810" lon="2.102990">
        <ele>347.70</ele>
      </trkpt>
      <trkpt lat="44.159710" lon="2.102660">
        <ele>346.363647</ele>
      </trkpt>
      <trkpt lat="44.159654" lon="2.102398">
        <ele>345.321594</ele>
      </trkpt>
      <trkpt lat="44.159734" lon="2.102098">
        <ele>346.876526</ele>
      </trkpt>
      <trkpt lat="44.159995" lon="2.101467">
        <ele>341.78</ele>
      </trkpt>
      <trkpt lat="44.160020" lon="2.101260">
        <ele>342.50</ele>
      </trkpt>
      <trkpt lat="44.159950" lon="2.100870">
        <ele>342.50</ele>
      </trkpt>
      <trkpt lat="44.159560" lon="2.099640">
        <ele>342.50</ele>
      </trkpt>
      <trkpt lat="44.159570" lon="2.099370">
        <ele>342.50</ele>
      </trkpt>
      <trkpt lat="44.159660" lon="2.099160">
        <ele>342.50</ele>
      </trkpt>
      <trkpt lat="44.159840" lon="2.099020">
        <ele>342.50</ele>
      </trkpt>
      <trkpt lat="44.160050" lon="2.098990">
        <ele>343.02</ele>
      </trkpt>
      <trkpt lat="44.160630" lon="2.099100">
        <ele>330.26</ele>
      </trkpt>
      <trkpt lat="44.160810" lon="2.099090">
        <ele>329.85</ele>
      </trkpt>
      <trkpt lat="44.161290" lon="2.098950">
        <ele>329.032074</ele>
      </trkpt>
      <trkpt lat="44.161620" lon="2.098770">
        <ele>326.992798</ele>
      </trkpt>
      <trkpt lat="44.161770" lon="2.098520">
        <ele>325.14</ele>
      </trkpt>
      <trkpt lat="44.161820" lon="2.097850">
        <ele>324.35</ele>
      </trkpt>
      <trkpt lat="44.161930" lon="2.097440">
        <ele>323.38</ele>
      </trkpt>
      <trkpt lat="44.162371" lon="2.096855">
        <ele>322.61</ele>
      </trkpt>
      <trkpt lat="44.162726" lon="2.096041">
        <ele>321.06</ele>
      </trkpt>
      <trkpt lat="44.163009" lon="2.095624">
        <ele>320.72</ele>
      </trkpt>
      <trkpt lat="44.163490" lon="2.095130">
        <ele>317.13</ele>
      </trkpt>
      <trkpt lat="44.164314" lon="2.093820">
        <ele>317.93</ele>
      </trkpt>
      <trkpt lat="44.164529" lon="2.093670">
        <ele>318.901367</ele>
      </trkpt>
      <trkpt lat="44.164696" lon="2.093279">
        <ele>318.62</ele>
      </trkpt>
      <trkpt lat="44.164727" lon="2.092634">
        <ele>316.571045</ele>
      </trkpt>
      <trkpt lat="44.164646" lon="2.092244">
        <ele>313.961456</ele>
      </trkpt>
      <trkpt lat="44.164359" lon="2.092055">
        <ele>313.69</ele>
      </trkpt>
      <trkpt lat="44.164300" lon="2.091814">
        <ele>314.358429</ele>
      </trkpt>
      <trkpt lat="44.164403" lon="2.091234">
        <ele>314.40</ele>
      </trkpt>
      <trkpt lat="44.164372" lon="2.090889">
        <ele>314.33</ele>
      </trkpt>
      <trkpt lat="44.164165" lon="2.090283">
        <ele>312.244843</ele>
      </trkpt>
      <trkpt lat="44.164111" lon="2.090016">
        <ele>311.88</ele>
      </trkpt>
      <trkpt lat="44.164209" lon="2.089443">
        <ele>310.63</ele>
      </trkpt>
      <trkpt lat="44.164214" lon="2.089091">
        <ele>310.45</ele>
      </trkpt>
      <trkpt lat="44.164034" lon="2.088557">
        <ele>309.29</ele>
      </trkpt>
      <trkpt lat="44.163859" lon="2.088335">
        <ele>309.27</ele>
      </trkpt>
      <trkpt lat="44.163603" lon="2.088192">
        <ele>308.872345</ele>
      </trkpt>
      <trkpt lat="44.163265" lon="2.088179">
        <ele>300.553131</ele>
      </trkpt>
      <trkpt lat="44.163063" lon="2.087977">
        <ele>299.32</ele>
      </trkpt>
      <trkpt lat="44.162879" lon="2.087274">
        <ele>298.453278</ele>
      </trkpt>
      <trkpt lat="44.163123" lon="2.085066">
        <ele>297.868011</ele>
      </trkpt>
      <trkpt lat="44.163107" lon="2.084590">
        <ele>295.58</ele>
      </trkpt>
      <trkpt lat="44.163004" lon="2.084330">
        <ele>291.573914</ele>
      </trkpt>
      <trkpt lat="44.162829" lon="2.084076">
        <ele>285.381500</ele>
      </trkpt>
      <trkpt lat="44.162824" lon="2.083822">
        <ele>284.95</ele>
      </trkpt>
      <trkpt lat="44.163050" lon="2.083060">
        <ele>283.06</ele>
      </trkpt>
      <trkpt lat="44.163090" lon="2.082160">
        <ele>282.19</ele>
      </trkpt>
      <trkpt lat="44.163160" lon="2.081960">
        <ele>280.070923</ele>
      </trkpt>
      <trkpt lat="44.163310" lon="2.081790">
        <ele>280.58</ele>
      </trkpt>
      <trkpt lat="44.163548" lon="2.081633">
        <ele>280.58</ele>
      </trkpt>
      <trkpt lat="44.163831" lon="2.081575">
        <ele>280.58</ele>
      </trkpt>
      <trkpt lat="44.163952" lon="2.081425">
        <ele>280.58</ele>
      </trkpt>
      <trkpt lat="44.164060" lon="2.080960">
        <ele>280.58</ele>
      </trkpt>
      <trkpt lat="44.164200" lon="2.080799">
        <ele>280.58</ele>
      </trkpt>
      <trkpt lat="44.164470" lon="2.080650">
        <ele>280.58</ele>
      </trkpt>
      <trkpt lat="44.164720" lon="2.080010">
        <ele>280.79</ele>
      </trkpt>
      <trkpt lat="44.164790" lon="2.079730">
        <ele>277.63</ele>
      </trkpt>
      <trkpt lat="44.164700" lon="2.078720">
        <ele>274.14</ele>
      </trkpt>
      <trkpt lat="44.164730" lon="2.078490">
        <ele>272.33</ele>
      </trkpt>
      <trkpt lat="44.165010" lon="2.077490">
        <ele>272.252472</ele>
      </trkpt>
      <trkpt lat="44.165130" lon="2.076350">
        <ele>270.208618</ele>
      </trkpt>
      <trkpt lat="44.165520" lon="2.074800">
        <ele>262.947998</ele>
      </trkpt>
      <trkpt lat="44.165680" lon="2.073860">
        <ele>256.28</ele>
      </trkpt>
      <trkpt lat="44.165886" lon="2.073087">
        <ele>251.83</ele>
      </trkpt>
      <trkpt lat="44.165855" lon="2.072579">
        <ele>248.606918</ele>
      </trkpt>
      <trkpt lat="44.165679" lon="2.071628">
        <ele>237.675766</ele>
      </trkpt>
      <trkpt lat="44.165390" lon="2.070834">
        <ele>234.870178</ele>
      </trkpt>
      <trkpt lat="44.165386" lon="2.070541">
        <ele>232.160004</ele>
      </trkpt>
      <trkpt lat="44.165511" lon="2.070143">
        <ele>228.259003</ele>
      </trkpt>
      <trkpt lat="44.165570" lon="2.069730">
        <ele>224.332962</ele>
      </trkpt>
      <trkpt lat="44.165530" lon="2.069470">
        <ele>224.70</ele>
      </trkpt>
      <trkpt lat="44.165370" lon="2.069000">
        <ele>222.17</ele>
      </trkpt>
      <trkpt lat="44.165330" lon="2.068570">
        <ele>222.36</ele>
      </trkpt>
      <trkpt lat="44.165390" lon="2.068040">
        <ele>222.10</ele>
      </trkpt>
      <trkpt lat="44.165570" lon="2.067400">
        <ele>223.73</ele>
      </trkpt>
      <trkpt lat="44.165700" lon="2.067150">
        <ele>220.351913</ele>
      </trkpt>
      <trkpt lat="44.166020" lon="2.066790">
        <ele>216.97</ele>
      </trkpt>
      <trkpt lat="44.166130" lon="2.066520">
        <ele>214.47</ele>
      </trkpt>
      <trkpt lat="44.166130" lon="2.063530">
        <ele>212.96</ele>
      </trkpt>
      <trkpt lat="44.166260" lon="2.063160">
        <ele>210.37</ele>
      </trkpt>
      <trkpt lat="44.166760" lon="2.062650">
        <ele>208.80</ele>
      </trkpt>
      <trkpt lat="44.167470" lon="2.061410">
        <ele>206.96</ele>
      </trkpt>
      <trkpt lat="44.167670" lon="2.061240">
        <ele>204.81</ele>
      </trkpt>
      <trkpt lat="44.167953" lon="2.061187">
        <ele>197.95</ele>
      </trkpt>
      <trkpt lat="44.168177" lon="2.060999">
        <ele>197.949081</ele>
      </trkpt>
      <trkpt lat="44.169830" lon="2.059050">
        <ele>189.941895</ele>
      </trkpt>
      <trkpt lat="44.170060" lon="2.058960">
        <ele>184.61</ele>
      </trkpt>
      <trkpt lat="44.170401" lon="2.059526">
        <ele>177.47</ele>
      </trkpt>
      <trkpt lat="44.170580" lon="2.059670">
        <ele>179.40</ele>
      </trkpt>
      <trkpt lat="44.170750" lon="2.059740">
        <ele>179.40</ele>
      </trkpt>
      <trkpt lat="44.171480" lon="2.059770">
        <ele>179.90</ele>
      </trkpt>
      <trkpt lat="44.171820" lon="2.059840">
        <ele>178.82</ele>
      </trkpt>
      <trkpt lat="44.172680" lon="2.060550">
        <ele>181.60</ele>
      </trkpt>
      <trkpt lat="44.173610" lon="2.060880">
        <ele>181.60</ele>
      </trkpt>
      <trkpt lat="44.173880" lon="2.060920">
        <ele>180.73</ele>
      </trkpt>
      <trkpt lat="44.175540" lon="2.060760">
        <ele>180.73</ele>
      </trkpt>
      <trkpt lat="44.175750" lon="2.060610">
        <ele>180.73</ele>
      </trkpt>
      <trkpt lat="44.175810" lon="2.060400">
        <ele>177.81</ele>
      </trkpt>
      <trkpt lat="44.175650" lon="2.059190">
        <ele>173.74</ele>
      </trkpt>
      <trkpt lat="44.175700" lon="2.059000">
        <ele>173.74</ele>
      </trkpt>
      <trkpt lat="44.175860" lon="2.058860">
        <ele>185.66</ele>
      </trkpt>
      <trkpt lat="44.176310" lon="2.058690">
        <ele>185.86</ele>
      </trkpt>
      <trkpt lat="44.177140" lon="2.058080">
        <ele>194.84</ele>
      </trkpt>
      <trkpt lat="44.177400" lon="2.057820">
        <ele>196.96</ele>
      </trkpt>
      <trkpt lat="44.178110" lon="2.056910">
        <ele>207.63</ele>
      </trkpt>
      <trkpt lat="44.178620" lon="2.056010">
        <ele>218.90</ele>
      </trkpt>
      <trkpt lat="44.179170" lon="2.055360">
        <ele>219.18</ele>
      </trkpt>
      <trkpt lat="44.179460" lon="2.054760">
        <ele>219.43</ele>
      </trkpt>
      <trkpt lat="44.179920" lon="2.054370">
        <ele>222.53</ele>
      </trkpt>
      <trkpt lat="44.180250" lon="2.053850">
        <ele>225.71</ele>
      </trkpt>
      <trkpt lat="44.180870" lon="2.053390">
        <ele>227.986298</ele>
      </trkpt>
      <trkpt lat="44.181040" lon="2.053230">
        <ele>228.109848</ele>
      </trkpt>
      <trkpt lat="44.181340" lon="2.052780">
        <ele>232.773743</ele>
      </trkpt>
      <trkpt lat="44.182110" lon="2.051140">
        <ele>249.288940</ele>
      </trkpt>
      <trkpt lat="44.183670" lon="2.050050">
        <ele>254.466003</ele>
      </trkpt>
      <trkpt lat="44.184340" lon="2.049480">
        <ele>265.08</ele>
      </trkpt>
      <trkpt lat="44.184490" lon="2.049450">
        <ele>265.10</ele>
      </trkpt>
      <trkpt lat="44.184680" lon="2.049580">
        <ele>266.43</ele>
      </trkpt>
      <trkpt lat="44.184830" lon="2.049610">
        <ele>267.80</ele>
      </trkpt>
      <trkpt lat="44.185790" lon="2.049320">
        <ele>273.508881</ele>
      </trkpt>
      <trkpt lat="44.185980" lon="2.049210">
        <ele>278.340637</ele>
      </trkpt>
      <trkpt lat="44.186420" lon="2.048810">
        <ele>290.567963</ele>
      </trkpt>
      <trkpt lat="44.186890" lon="2.048540">
        <ele>292.33</ele>
      </trkpt>
      <trkpt lat="44.187480" lon="2.048480">
        <ele>295.64</ele>
      </trkpt>
      <trkpt lat="44.188100" lon="2.048550">
        <ele>296.87</ele>
      </trkpt>
      <trkpt lat="44.188240" lon="2.048450">
        <ele>297.34</ele>
      </trkpt>
      <trkpt lat="44.188490" lon="2.048010">
        <ele>298.56</ele>
      </trkpt>
      <trkpt lat="44.188620" lon="2.047500">
        <ele>299.46</ele>
      </trkpt>
      <trkpt lat="44.188570" lon="2.047320">
        <ele>300.60</ele>
      </trkpt>
      <trkpt lat="44.188090" lon="2.046850">
        <ele>308.348236</ele>
      </trkpt>
      <trkpt lat="44.188010" lon="2.046690">
        <ele>309.66</ele>
      </trkpt>
      <trkpt lat="44.188030" lon="2.046570">
        <ele>309.66</ele>
      </trkpt>
      <trkpt lat="44.188290" lon="2.046440">
        <ele>307.90</ele>
      </trkpt>
      <trkpt lat="44.188420" lon="2.046310">
        <ele>307.90</ele>
      </trkpt>
      <trkpt lat="44.188500" lon="2.045990">
        <ele>307.90</ele>
      </trkpt>
      <trkpt lat="44.188480" lon="2.045750">
        <ele>309.81</ele>
      </trkpt>
      <trkpt lat="44.188140" lon="2.044780">
        <ele>326.718536</ele>
      </trkpt>
      <trkpt lat="44.188140" lon="2.044520">
        <ele>329.900391</ele>
      </trkpt>
      <trkpt lat="44.188220" lon="2.044440">
        <ele>330.398438</ele>
      </trkpt>
      <trkpt lat="44.188380" lon="2.044430">
        <ele>330.73</ele>
      </trkpt>
      <trkpt lat="44.188980" lon="2.044650">
        <ele>330.73</ele>
      </trkpt>
      <trkpt lat="44.189160" lon="2.044640">
        <ele>330.73</ele>
      </trkpt>
      <trkpt lat="44.189530" lon="2.044330">
        <ele>332.44</ele>
      </trkpt>
      <trkpt lat="44.190110" lon="2.043630">
        <ele>340.522491</ele>
      </trkpt>
      <trkpt lat="44.190780" lon="2.043350">
        <ele>342.61</ele>
      </trkpt>
      <trkpt lat="44.191190" lon="2.043330">
        <ele>343.628113</ele>
      </trkpt>
      <trkpt lat="44.191380" lon="2.043220">
        <ele>344.921082</ele>
      </trkpt>
      <trkpt lat="44.191530" lon="2.043040">
        <ele>346.889740</ele>
      </trkpt>
      <trkpt lat="44.191650" lon="2.042800">
        <ele>349.061737</ele>
      </trkpt>
      <trkpt lat="44.191790" lon="2.042130">
        <ele>355.470001</ele>
      </trkpt>
      <trkpt lat="44.191800" lon="2.041930">
        <ele>356.649994</ele>
      </trkpt>
      <trkpt lat="44.191700" lon="2.041330">
        <ele>362.169556</ele>
      </trkpt>
      <trkpt lat="44.191710" lon="2.041070">
        <ele>364.010773</ele>
      </trkpt>
      <trkpt lat="44.191790" lon="2.040900">
        <ele>364.665009</ele>
      </trkpt>
      <trkpt lat="44.192140" lon="2.040470">
        <ele>365.644989</ele>
      </trkpt>
      <trkpt lat="44.192230" lon="2.040220">
        <ele>367.223358</ele>
      </trkpt>
      <trkpt lat="44.192280" lon="2.039870">
        <ele>369.982544</ele>
      </trkpt>
      <trkpt lat="44.192220" lon="2.039280">
        <ele>374.78</ele>
      </trkpt>
      <trkpt lat="44.192060" lon="2.038600">
        <ele>374.78</ele>
      </trkpt>
      <trkpt lat="44.192104" lon="2.038442">
        <ele>374.78</ele>
      </trkpt>
      <trkpt lat="44.192580" lon="2.038090">
        <ele>375.26</ele>
      </trkpt>
      <trkpt lat="44.192835" lon="2.037850">
        <ele>375.26</ele>
      </trkpt>
      <trkpt lat="44.192990" lon="2.037800">
        <ele>375.26</ele>
      </trkpt>
      <trkpt lat="44.193030" lon="2.037670">
        <ele>375.26</ele>
      </trkpt>
      <trkpt lat="44.192984" lon="2.037472">
        <ele>375.26</ele>
      </trkpt>
      <trkpt lat="44.192961" lon="2.037251">
        <ele>375.26</ele>
      </trkpt>
      <trkpt lat="44.193020" lon="2.037110">
        <ele>375.26</ele>
      </trkpt>
      <trkpt lat="44.193340" lon="2.035180">
        <ele>365.62</ele>
      </trkpt>
      <trkpt lat="44.193910" lon="2.032550">
        <ele>361.38</ele>
      </trkpt>
      <trkpt lat="44.194040" lon="2.032150">
        <ele>361.28</ele>
      </trkpt>
      <trkpt lat="44.194140" lon="2.032060">
        <ele>360.51</ele>
      </trkpt>
      <trkpt lat="44.194620" lon="2.031910">
        <ele>357.076050</ele>
      </trkpt>
      <trkpt lat="44.194780" lon="2.031930">
        <ele>355.398529</ele>
      </trkpt>
      <trkpt lat="44.195320" lon="2.032250">
        <ele>349.946289</ele>
      </trkpt>
      <trkpt lat="44.195630" lon="2.032230">
        <ele>348.670013</ele>
      </trkpt>
      <trkpt lat="44.195940" lon="2.032130">
        <ele>347.694153</ele>
      </trkpt>
      <trkpt lat="44.196360" lon="2.031770">
        <ele>346.129364</ele>
      </trkpt>
      <trkpt lat="44.196640" lon="2.031420">
        <ele>344.501343</ele>
      </trkpt>
      <trkpt lat="44.197620" lon="2.029810">
        <ele>331.886261</ele>
      </trkpt>
      <trkpt lat="44.197710" lon="2.029460">
        <ele>329.141815</ele>
      </trkpt>
      <trkpt lat="44.197720" lon="2.029190">
        <ele>327.815277</ele>
      </trkpt>
      <trkpt lat="44.197650" lon="2.028300">
        <ele>324.43</ele>
      </trkpt>
      <trkpt lat="44.197670" lon="2.028110">
        <ele>323.859985</ele>
      </trkpt>
      <trkpt lat="44.197760" lon="2.027960">
        <ele>322.404999</ele>
      </trkpt>
      <trkpt lat="44.198050" lon="2.027820">
        <ele>318.435333</ele>
      </trkpt>
      <trkpt lat="44.198280" lon="2.027630">
        <ele>315.626740</ele>
      </trkpt>
      <trkpt lat="44.198680" lon="2.026940">
        <ele>308.796234</ele>
      </trkpt>
      <trkpt lat="44.198940" lon="2.026250">
        <ele>302.018188</ele>
      </trkpt>
      <trkpt lat="44.198950" lon="2.025880">
        <ele>301.117401</ele>
      </trkpt>
      <trkpt lat="44.198890" lon="2.025580">
        <ele>300.16</ele>
      </trkpt>
      <trkpt lat="44.198790" lon="2.025380">
        <ele>300.16</ele>
      </trkpt>
      <trkpt lat="44.198349" lon="2.025051">
        <ele>300.16</ele>
      </trkpt>
      <trkpt lat="44.198479" lon="2.024354">
        <ele>296.769379</ele>
      </trkpt>
      <trkpt lat="44.198260" lon="2.023227">
        <ele>295.949249</ele>
      </trkpt>
      <trkpt lat="44.198330" lon="2.023020">
        <ele>295.170746</ele>
      </trkpt>
      <trkpt lat="44.198660" lon="2.022820">
        <ele>294.00</ele>
      </trkpt>
      <trkpt lat="44.198880" lon="2.022760">
        <ele>294.00</ele>
      </trkpt>
      <trkpt lat="44.199130" lon="2.022780">
        <ele>295.68</ele>
      </trkpt>
      <trkpt lat="44.199450" lon="2.023010">
        <ele>298.304993</ele>
      </trkpt>
      <trkpt lat="44.199860" lon="2.023530">
        <ele>300.032562</ele>
      </trkpt>
      <trkpt lat="44.200080" lon="2.023640">
        <ele>300.019257</ele>
      </trkpt>
      <trkpt lat="44.200460" lon="2.023540">
        <ele>301.086487</ele>
      </trkpt>
      <trkpt lat="44.200940" lon="2.023250">
        <ele>305.613281</ele>
      </trkpt>
      <trkpt lat="44.201810" lon="2.023190">
        <ele>309.659546</ele>
      </trkpt>
      <trkpt lat="44.202260" lon="2.023230">
        <ele>311.585297</ele>
      </trkpt>
      <trkpt lat="44.202432" lon="2.023129">
        <ele>313.90</ele>
      </trkpt>
      <trkpt lat="44.202593" lon="2.022934">
        <ele>316.709900</ele>
      </trkpt>
      <trkpt lat="44.203050" lon="2.022470">
        <ele>323.211151</ele>
      </trkpt>
      <trkpt lat="44.203580" lon="2.022260">
        <ele>327.368591</ele>
      </trkpt>
      <trkpt lat="44.203620" lon="2.022060">
        <ele>330.013763</ele>
      </trkpt>
      <trkpt lat="44.203540" lon="2.021900">
        <ele>332.320007</ele>
      </trkpt>
      <trkpt lat="44.202890" lon="2.021340">
        <ele>339.804443</ele>
      </trkpt>
      <trkpt lat="44.202420" lon="2.021230">
        <ele>341.824524</ele>
      </trkpt>
      <trkpt lat="44.201930" lon="2.020970">
        <ele>347.768646</ele>
      </trkpt>
      <trkpt lat="44.201390" lon="2.020850">
        <ele>348.754761</ele>
      </trkpt>
      <trkpt lat="44.201210" lon="2.020690">
        <ele>349.378754</ele>
      </trkpt>
      <trkpt lat="44.201070" lon="2.019850">
        <ele>354.537720</ele>
      </trkpt>
      <trkpt lat="44.200990" lon="2.018490">
        <ele>363.450653</ele>
      </trkpt>
      <trkpt lat="44.201040" lon="2.018230">
        <ele>366.483429</ele>
      </trkpt>
      <trkpt lat="44.201600" lon="2.016850">
        <ele>378.290009</ele>
      </trkpt>
      <trkpt lat="44.201840" lon="2.016430">
        <ele>379.934998</ele>
      </trkpt>
      <trkpt lat="44.206670" lon="2.010110">
        <ele>393.124115</ele>
      </trkpt>
      <trkpt lat="44.207040" lon="2.009740">
        <ele>393.861877</ele>
      </trkpt>
      <trkpt lat="44.209710" lon="2.007890">
        <ele>402.853760</ele>
      </trkpt>
      <trkpt lat="44.210320" lon="2.007360">
        <ele>404.195007</ele>
      </trkpt>
      <trkpt lat="44.211390" lon="2.006310">
        <ele>407.487488</ele>
      </trkpt>
      <trkpt lat="44.211730" lon="2.005900">
        <ele>409.333740</ele>
      </trkpt>
      <trkpt lat="44.212420" lon="2.004640">
        <ele>413.041260</ele>
      </trkpt>
      <trkpt lat="44.212740" lon="2.003850">
        <ele>416.564606</ele>
      </trkpt>
      <trkpt lat="44.212910" lon="2.003170">
        <ele>419.64</ele>
      </trkpt>
      <trkpt lat="44.213100" lon="2.002120">
        <ele>425.33</ele>
      </trkpt>
      <trkpt lat="44.213570" lon="2.000450">
        <ele>425.33</ele>
      </trkpt>
      <trkpt lat="44.213710" lon="1.999510">
        <ele>426.58</ele>
      </trkpt>
      <trkpt lat="44.213790" lon="1.998670">
        <ele>423.52</ele>
      </trkpt>
      <trkpt lat="44.213810" lon="1.996950">
        <ele>415.919586</ele>
      </trkpt>
      <trkpt lat="44.213840" lon="1.996800">
        <ele>415.247864</ele>
      </trkpt>
      <trkpt lat="44.214300" lon="1.995770">
        <ele>410.181366</ele>
      </trkpt>
      <trkpt lat="44.214535" lon="1.995447">
        <ele>407.929993</ele>
      </trkpt>
      <trkpt lat="44.215440" lon="1.994780">
        <ele>401.971222</ele>
      </trkpt>
      <trkpt lat="44.215870" lon="1.994350">
        <ele>398.809204</ele>
      </trkpt>
      <trkpt lat="44.217469" lon="1.992379">
        <ele>383.978241</ele>
      </trkpt>
      <trkpt lat="44.218610" lon="1.991020">
        <ele>368.634521</ele>
      </trkpt>
      <trkpt lat="44.218750" lon="1.990630">
        <ele>367.60</ele>
      </trkpt>
      <trkpt lat="44.218716" lon="1.990028">
        <ele>367.60</ele>
      </trkpt>
      <trkpt lat="44.218681" lon="1.989220">
        <ele>367.90</ele>
      </trkpt>
      <trkpt lat="44.218582" lon="1.988647">
        <ele>365.427032</ele>
      </trkpt>
      <trkpt lat="44.218645" lon="1.988302">
        <ele>365.896515</ele>
      </trkpt>
      <trkpt lat="44.218870" lon="1.987920">
        <ele>364.373962</ele>
      </trkpt>
      <trkpt lat="44.220010" lon="1.986160">
        <ele>350.809998</ele>
      </trkpt>
      <trkpt lat="44.220130" lon="1.986000">
        <ele>349.904999</ele>
      </trkpt>
      <trkpt lat="44.220290" lon="1.985650">
        <ele>346.62</ele>
      </trkpt>
      <trkpt lat="44.220370" lon="1.985360">
        <ele>346.62</ele>
      </trkpt>
      <trkpt lat="44.220480" lon="1.985000">
        <ele>346.62</ele>
      </trkpt>
      <trkpt lat="44.220720" lon="1.983710">
        <ele>346.25</ele>
      </trkpt>
      <trkpt lat="44.220780" lon="1.983600">
        <ele>347.416656</ele>
      </trkpt>
      <trkpt lat="44.220840" lon="1.983600">
        <ele>347.749725</ele>
      </trkpt>
      <trkpt lat="44.220921" lon="1.983703">
        <ele>348.081451</ele>
      </trkpt>
      <trkpt lat="44.220980" lon="1.983890">
        <ele>349.007141</ele>
      </trkpt>
      <trkpt lat="44.220980" lon="1.983890">
        <ele>349.007141</ele>
        <time>2010-01-01T15:17:27Z</time>
      </trkpt>
      <trkpt lat="44.220840" lon="1.983600">
        <ele>347.749725</ele>
        <time>2010-01-01T15:17:37Z</time>
      </trkpt>
      <trkpt lat="44.220780" lon="1.983600">
        <ele>347.416656</ele>
        <time>2010-01-01T15:17:39Z</time>
      </trkpt>
      <trkpt lat="44.220720" lon="1.983710">
        <ele>346.245239</ele>
        <time>2010-01-01T15:17:43Z</time>
      </trkpt>
      <trkpt lat="44.220480" lon="1.985000">
        <ele>343.145020</ele>
        <time>2010-01-01T15:18:22Z</time>
      </trkpt>
      <trkpt lat="44.220430" lon="1.985130">
        <ele>342.434998</ele>
        <time>2010-01-01T15:18:26Z</time>
      </trkpt>
      <trkpt lat="44.220380" lon="1.985160">
        <ele>341.404999</ele>
        <time>2010-01-01T15:18:28Z</time>
      </trkpt>
      <trkpt lat="44.220310" lon="1.985140">
        <ele>339.737610</ele>
        <time>2010-01-01T15:18:31Z</time>
      </trkpt>
      <trkpt lat="44.220200" lon="1.984950">
        <ele>336.163574</ele>
        <time>2010-01-01T15:18:38Z</time>
      </trkpt>
      <trkpt lat="44.220160" lon="1.984750">
        <ele>333.951874</ele>
        <time>2010-01-01T15:18:44Z</time>
      </trkpt>
      <trkpt lat="44.220160" lon="1.983950">
        <ele>329.815887</ele>
        <time>2010-01-01T15:19:07Z</time>
      </trkpt>
      <trkpt lat="44.220080" lon="1.983130">
        <ele>325.368927</ele>
        <time>2010-01-01T15:19:31Z</time>
      </trkpt>
      <trkpt lat="44.219780" lon="1.981640">
        <ele>312.615723</ele>
        <time>2010-01-01T15:20:15Z</time>
      </trkpt>
      <trkpt lat="44.219790" lon="1.980110">
        <ele>309.656464</ele>
        <time>2010-01-01T15:20:59Z</time>
      </trkpt>
      <trkpt lat="44.219750" lon="1.979680">
        <ele>306.121002</ele>
        <time>2010-01-01T15:21:11Z</time>
      </trkpt>
      <trkpt lat="44.219630" lon="1.979170">
        <ele>300.388123</ele>
        <time>2010-01-01T15:21:27Z</time>
      </trkpt>
      <trkpt lat="44.219280" lon="1.978240">
        <ele>293.634094</ele>
        <time>2010-01-01T15:21:57Z</time>
      </trkpt>
      <trkpt lat="44.218730" lon="1.977230">
        <ele>285.051422</ele>
        <time>2010-01-01T15:22:33Z</time>
      </trkpt>
      <trkpt lat="44.218340" lon="1.976220">
        <ele>285.049438</ele>
        <time>2010-01-01T15:23:06Z</time>
      </trkpt>
      <trkpt lat="44.218080" lon="1.975750">
        <ele>283.667816</ele>
        <time>2010-01-01T15:23:23Z</time>
      </trkpt>
      <trkpt lat="44.217450" lon="1.974830">
        <ele>274.835907</ele>
        <time>2010-01-01T15:24:00Z</time>
      </trkpt>
      <trkpt lat="44.217310" lon="1.974490">
        <ele>274.240845</ele>
        <time>2010-01-01T15:24:11Z</time>
      </trkpt>
      <trkpt lat="44.217250" lon="1.974220">
        <ele>274.123901</ele>
        <time>2010-01-01T15:24:19Z</time>
      </trkpt>
      <trkpt lat="44.217180" lon="1.973630">
        <ele>275.073120</ele>
        <time>2010-01-01T15:24:36Z</time>
      </trkpt>
      <trkpt lat="44.217110" lon="1.972160">
        <ele>274.92</ele>
        <time>2010-01-01T15:25:18Z</time>
      </trkpt>
      <trkpt lat="44.216920" lon="1.970790">
        <ele>271.14</ele>
        <time>2010-01-01T15:25:58Z</time>
      </trkpt>
      <trkpt lat="44.216690" lon="1.970010">
        <ele>263.016541</ele>
        <time>2010-01-01T15:26:23Z</time>
      </trkpt>
      <trkpt lat="44.216650" lon="1.969350">
        <ele>259.198608</ele>
        <time>2010-01-01T15:26:42Z</time>
      </trkpt>
      <trkpt lat="44.216720" lon="1.969000">
        <ele>259.505310</ele>
        <time>2010-01-01T15:26:52Z</time>
      </trkpt>
      <trkpt lat="44.216940" lon="1.968290">
        <ele>257.127808</ele>
        <time>2010-01-01T15:27:14Z</time>
      </trkpt>
      <trkpt lat="44.216970" lon="1.967750">
        <ele>252.716629</ele>
        <time>2010-01-01T15:27:30Z</time>
      </trkpt>
      <trkpt lat="44.216930" lon="1.967470">
        <ele>250.799957</ele>
        <time>2010-01-01T15:27:38Z</time>
      </trkpt>
      <trkpt lat="44.216630" lon="1.966440">
        <ele>245.148163</ele>
        <time>2010-01-01T15:28:10Z</time>
      </trkpt>
      <trkpt lat="44.216580" lon="1.966130">
        <ele>243.874130</ele>
        <time>2010-01-01T15:28:19Z</time>
      </trkpt>
      <trkpt lat="44.216620" lon="1.965940">
        <ele>243.719498</ele>
        <time>2010-01-01T15:28:25Z</time>
      </trkpt>
      <trkpt lat="44.216730" lon="1.965790">
        <ele>243.675003</ele>
        <time>2010-01-01T15:28:31Z</time>
      </trkpt>
      <trkpt lat="44.216980" lon="1.965800">
        <ele>243.157501</ele>
        <time>2010-01-01T15:28:41Z</time>
      </trkpt>
      <trkpt lat="44.217370" lon="1.966010">
        <ele>241.152328</ele>
        <time>2010-01-01T15:28:58Z</time>
      </trkpt>
      <trkpt lat="44.217680" lon="1.966260">
        <ele>239.044418</ele>
        <time>2010-01-01T15:29:12Z</time>
      </trkpt>
      <trkpt lat="44.218140" lon="1.966830">
        <ele>235.182434</ele>
        <time>2010-01-01T15:29:37Z</time>
      </trkpt>
      <trkpt lat="44.218740" lon="1.967230">
        <ele>227.151550</ele>
        <time>2010-01-01T15:30:03Z</time>
      </trkpt>
      <trkpt lat="44.218980" lon="1.967500">
        <ele>224.048492</ele>
        <time>2010-01-01T15:30:16Z</time>
      </trkpt>
      <trkpt lat="44.219280" lon="1.968200">
        <ele>221.062500</ele>
        <time>2010-01-01T15:30:39Z</time>
      </trkpt>
      <trkpt lat="44.219820" lon="1.969270">
        <ele>213.266769</ele>
        <time>2010-01-01T15:31:16Z</time>
      </trkpt>
      <trkpt lat="44.219950" lon="1.969640">
        <ele>213.601929</ele>
        <time>2010-01-01T15:31:28Z</time>
      </trkpt>
      <trkpt lat="44.220435" lon="1.972168">
        <ele>207.096039</ele>
        <time>2010-01-01T15:33:43Z</time>
      </trkpt>
      <trkpt lat="44.221253" lon="1.972390">
        <ele>201.60</ele>
        <time>2010-01-01T15:34:09Z</time>
      </trkpt>
      <trkpt lat="44.221390" lon="1.971400">
        <ele>201.60</ele>
        <time>2010-01-01T15:34:54Z</time>
      </trkpt>
      <trkpt lat="44.221570" lon="1.970520">
        <ele>200.25</ele>
        <time>2010-01-01T15:35:15Z</time>
      </trkpt>
      <trkpt lat="44.222230" lon="1.969260">
        <ele>202.19</ele>
        <time>2010-01-01T15:35:40Z</time>
      </trkpt>
      <trkpt lat="44.222730" lon="1.969440">
        <ele>206.85</ele>
        <time>2010-01-01T15:36:42Z</time>
      </trkpt>
      <trkpt lat="44.223290" lon="1.969850">
        <ele>210.700882</ele>
        <time>2010-01-01T15:36:55Z</time>
      </trkpt>
      <trkpt lat="44.224820" lon="1.970300">
        <ele>215.47</ele>
        <time>2010-01-01T15:37:07Z</time>
      </trkpt>
      <trkpt lat="44.225130" lon="1.970240">
        <ele>216.63</ele>
        <time>2010-01-01T15:37:12Z</time>
      </trkpt>
      <trkpt lat="44.225420" lon="1.970110">
        <ele>216.57</ele>
        <time>2010-01-01T15:37:48Z</time>
      </trkpt>
      <trkpt lat="44.225540" lon="1.970110">
        <ele>217.82</ele>
        <time>2010-01-01T15:38:05Z</time>
      </trkpt>
      <trkpt lat="44.226400" lon="1.970500">
        <ele>217.41</ele>
        <time>2010-01-01T15:38:37Z</time>
      </trkpt>
      <trkpt lat="44.226730" lon="1.970850">
        <ele>218.86</ele>
        <time>2010-01-01T15:38:55Z</time>
      </trkpt>
      <trkpt lat="44.227510" lon="1.971160">
        <ele>219.73</ele>
        <time>2010-01-01T15:39:17Z</time>
      </trkpt>
      <trkpt lat="44.227950" lon="1.971120">
        <ele>219.79</ele>
        <time>2010-01-01T15:39:35Z</time>
      </trkpt>
      <trkpt lat="44.228410" lon="1.971530">
        <ele>227.792297</ele>
        <time>2010-01-01T15:40:01Z</time>
      </trkpt>
      <trkpt lat="44.228860" lon="1.971680">
        <ele>229.041458</ele>
        <time>2010-01-01T15:40:16Z</time>
      </trkpt>
      <trkpt lat="44.229360" lon="1.972250">
        <ele>234.285004</ele>
        <time>2010-01-01T15:40:19Z</time>
      </trkpt>
      <trkpt lat="44.229540" lon="1.972700">
        <ele>240.600601</ele>
        <time>2010-01-01T15:40:34Z</time>
      </trkpt>
      <trkpt lat="44.229620" lon="1.972750">
        <ele>240.81</ele>
        <time>2010-01-01T15:41:10Z</time>
      </trkpt>
      <trkpt lat="44.229980" lon="1.972740">
        <ele>241.67</ele>
        <time>2010-01-01T15:41:27Z</time>
      </trkpt>
      <trkpt lat="44.230740" lon="1.973400">
        <ele>242.002472</ele>
        <time>2010-01-01T15:41:39Z</time>
      </trkpt>
      <trkpt lat="44.231010" lon="1.973870">
        <ele>246.167404</ele>
        <time>2010-01-01T15:41:54Z</time>
      </trkpt>
      <trkpt lat="44.231110" lon="1.974270">
        <ele>250.917038</ele>
        <time>2010-01-01T15:41:59Z</time>
      </trkpt>
      <trkpt lat="44.231160" lon="1.974790">
        <ele>258.222809</ele>
        <time>2010-01-01T15:43:01Z</time>
      </trkpt>
      <trkpt lat="44.231230" lon="1.974910">
        <ele>259.57</ele>
        <time>2010-01-01T15:43:25Z</time>
      </trkpt>
      <trkpt lat="44.232730" lon="1.975530">
        <ele>268.274994</ele>
        <time>2010-01-01T15:43:35Z</time>
      </trkpt>
      <trkpt lat="44.233180" lon="1.976080">
        <ele>274.158081</ele>
        <time>2010-01-01T15:43:43Z</time>
      </trkpt>
      <trkpt lat="44.233290" lon="1.976380">
        <ele>276.425201</ele>
        <time>2010-01-01T15:43:47Z</time>
      </trkpt>
      <trkpt lat="44.233320" lon="1.976650">
        <ele>280.036224</ele>
        <time>2010-01-01T15:44:23Z</time>
      </trkpt>
      <trkpt lat="44.233390" lon="1.976760">
        <ele>281.352844</ele>
        <time>2010-01-01T15:44:44Z</time>
      </trkpt>
      <trkpt lat="44.234280" lon="1.976990">
        <ele>283.790314</ele>
        <time>2010-01-01T15:45:08Z</time>
      </trkpt>
      <trkpt lat="44.234750" lon="1.977320">
        <ele>288.580109</ele>
        <time>2010-01-01T15:45:28Z</time>
      </trkpt>
      <trkpt lat="44.235250" lon="1.977790">
        <ele>294.716248</ele>
        <time>2010-01-01T15:45:36Z</time>
      </trkpt>
      <trkpt lat="44.235700" lon="1.978040">
        <ele>296.490234</ele>
        <time>2010-01-01T15:45:59Z</time>
      </trkpt>
      <trkpt lat="44.235910" lon="1.978080">
        <ele>296.087158</ele>
        <time>2010-01-01T15:46:11Z</time>
      </trkpt>
      <trkpt lat="44.236390" lon="1.977620">
        <ele>299.870758</ele>
        <time>2010-01-01T15:46:36Z</time>
      </trkpt>
      <trkpt lat="44.236690" lon="1.977630">
        <ele>300.314087</ele>
        <time>2010-01-01T15:46:42Z</time>
      </trkpt>
      <trkpt lat="44.237240" lon="1.977280">
        <ele>303.693909</ele>
        <time>2010-01-01T15:47:06Z</time>
      </trkpt>
      <trkpt lat="44.237360" lon="1.977150">
        <ele>304.578430</ele>
        <time>2010-01-01T15:47:13Z</time>
      </trkpt>
      <trkpt lat="44.237730" lon="1.976470">
        <ele>311.828430</ele>
        <time>2010-01-01T15:47:27Z</time>
      </trkpt>
      <trkpt lat="44.237880" lon="1.976370">
        <ele>311.767487</ele>
        <time>2010-01-01T15:47:37Z</time>
      </trkpt>
      <trkpt lat="44.238220" lon="1.976330">
        <ele>313.317200</ele>
        <time>2010-01-01T15:47:52Z</time>
      </trkpt>
      <trkpt lat="44.238470" lon="1.976390">
        <ele>315.015198</ele>
        <time>2010-01-01T15:47:56Z</time>
      </trkpt>
      <trkpt lat="44.238850" lon="1.976340">
        <ele>322.68</ele>
        <time>2010-01-01T15:48:06Z</time>
      </trkpt>
      <trkpt lat="44.238950" lon="1.976390">
        <ele>322.68</ele>
        <time>2010-01-01T15:48:13Z</time>
      </trkpt>
      <trkpt lat="44.239140" lon="1.976610">
        <ele>322.68</ele>
        <time>2010-01-01T15:48:26Z</time>
      </trkpt>
      <trkpt lat="44.239300" lon="1.976720">
        <ele>322.12</ele>
        <time>2010-01-01T15:48:44Z</time>
      </trkpt>
      <trkpt lat="44.239610" lon="1.976620">
        <ele>322.28</ele>
        <time>2010-01-01T15:49:22Z</time>
      </trkpt>
      <trkpt lat="44.240050" lon="1.976700">
        <ele>323.57</ele>
        <time>2010-01-01T15:49:30Z</time>
      </trkpt>
      <trkpt lat="44.240990" lon="1.976440">
        <ele>328.673126</ele>
        <time>2010-01-01T15:49:37Z</time>
      </trkpt>
      <trkpt lat="44.241200" lon="1.976430">
        <ele>333.181763</ele>
        <time>2010-01-01T15:50:00Z</time>
      </trkpt>
      <trkpt lat="44.241340" lon="1.976530">
        <ele>333.71</ele>
        <time>2010-01-01T15:50:14Z</time>
      </trkpt>
      <trkpt lat="44.241610" lon="1.977230">
        <ele>332.58</ele>
        <time>2010-01-01T15:50:25Z</time>
      </trkpt>
      <trkpt lat="44.241720" lon="1.977720">
        <ele>333.39</ele>
        <time>2010-01-01T15:50:43Z</time>
      </trkpt>
      <trkpt lat="44.241940" lon="1.977920">
        <ele>334.76</ele>
        <time>2010-01-01T15:51:14Z</time>
      </trkpt>
      <trkpt lat="44.242370" lon="1.978130">
        <ele>335.82</ele>
        <time>2010-01-01T15:51:25Z</time>
      </trkpt>
      <trkpt lat="44.243130" lon="1.978380">
        <ele>340.12</ele>
        <time>2010-01-01T15:51:34Z</time>
      </trkpt>
      <trkpt lat="44.243400" lon="1.978310">
        <ele>341.510468</ele>
        <time>2010-01-01T15:51:39Z</time>
      </trkpt>
      <trkpt lat="44.243590" lon="1.978180">
        <ele>342.866058</ele>
        <time>2010-01-01T15:51:42Z</time>
      </trkpt>
      <trkpt lat="44.243680" lon="1.978040">
        <ele>346.484375</ele>
        <time>2010-01-01T15:51:45Z</time>
      </trkpt>
      <trkpt lat="44.243690" lon="1.977950">
        <ele>349.39</ele>
        <time>2010-01-01T15:51:58Z</time>
      </trkpt>
      <trkpt lat="44.243620" lon="1.977890">
        <ele>349.39</ele>
        <time>2010-01-01T15:52:05Z</time>
      </trkpt>
      <trkpt lat="44.243340" lon="1.978080">
        <ele>349.51</ele>
        <time>2010-01-01T15:52:39Z</time>
      </trkpt>
      <trkpt lat="44.243150" lon="1.978060">
        <ele>349.51</ele>
        <time>2010-01-01T15:52:42Z</time>
      </trkpt>
      <trkpt lat="44.242420" lon="1.977490">
        <ele>353.296295</ele>
        <time>2010-01-01T15:52:47Z</time>
      </trkpt>
      <trkpt lat="44.242370" lon="1.977400">
        <ele>354.537384</ele>
        <time>2010-01-01T15:52:50Z</time>
      </trkpt>
      <trkpt lat="44.242380" lon="1.977230">
        <ele>358.889252</ele>
        <time>2010-01-01T15:53:07Z</time>
      </trkpt>
      <trkpt lat="44.242450" lon="1.977210">
        <ele>360.88</ele>
        <time>2010-01-01T15:53:18Z</time>
      </trkpt>
      <trkpt lat="44.242830" lon="1.977530">
        <ele>360.88</ele>
        <time>2010-01-01T15:53:31Z</time>
      </trkpt>
      <trkpt lat="44.243090" lon="1.977600">
        <ele>360.88</ele>
        <time>2010-01-01T15:53:53Z</time>
      </trkpt>
      <trkpt lat="44.243400" lon="1.977540">
        <ele>363.030823</ele>
        <time>2010-01-01T15:54:01Z</time>
      </trkpt>
      <trkpt lat="44.243930" lon="1.977260">
        <ele>373.39</ele>
        <time>2010-01-01T15:54:49Z</time>
      </trkpt>
      <trkpt lat="44.244120" lon="1.977260">
        <ele>374.159821</ele>
        <time>2010-01-01T15:54:57Z</time>
      </trkpt>
      <trkpt lat="44.245260" lon="1.977750">
        <ele>375.581268</ele>
        <time>2010-01-01T15:55:27Z</time>
      </trkpt>
      <trkpt lat="44.245460" lon="1.977740">
        <ele>377.435822</ele>
        <time>2010-01-01T15:56:05Z</time>
      </trkpt>
      <trkpt lat="44.246170" lon="1.977400">
        <ele>385.975006</ele>
        <time>2010-01-01T15:56:25Z</time>
      </trkpt>
      <trkpt lat="44.247130" lon="1.977380">
        <ele>388.409760</ele>
        <time>2010-01-01T15:56:31Z</time>
      </trkpt>
      <trkpt lat="44.247610" lon="1.977260">
        <ele>392.917328</ele>
        <time>2010-01-01T15:56:51Z</time>
      </trkpt>
      <trkpt lat="44.247770" lon="1.977280">
        <ele>393.759460</ele>
        <time>2010-01-01T15:57:05Z</time>
      </trkpt>
      <trkpt lat="44.248180" lon="1.977650">
        <ele>395.396362</ele>
        <time>2010-01-01T15:57:14Z</time>
      </trkpt>
      <trkpt lat="44.248430" lon="1.978010">
        <ele>399.15</ele>
        <time>2010-01-01T15:57:31Z</time>
      </trkpt>
      <trkpt lat="44.248490" lon="1.978300">
        <ele>399.15</ele>
        <time>2010-01-01T15:57:40Z</time>
      </trkpt>
      <trkpt lat="44.248460" lon="1.978910">
        <ele>399.15</ele>
        <time>2010-01-01T15:58:02Z</time>
      </trkpt>
      <trkpt lat="44.248530" lon="1.979190">
        <ele>399.15</ele>
        <time>2010-01-01T15:58:39Z</time>
      </trkpt>
      <trkpt lat="44.249020" lon="1.979590">
        <ele>403.27</ele>
        <time>2010-01-01T15:58:49Z</time>
      </trkpt>
      <trkpt lat="44.249410" lon="1.980750">
        <ele>403.810913</ele>
        <time>2010-01-01T15:59:08Z</time>
      </trkpt>
      <trkpt lat="44.249560" lon="1.981030">
        <ele>405.943665</ele>
        <time>2010-01-01T15:59:28Z</time>
      </trkpt>
      <trkpt lat="44.249910" lon="1.981490">
        <ele>411.09</ele>
        <time>2010-01-01T15:59:37Z</time>
      </trkpt>
      <trkpt lat="44.250090" lon="1.982140">
        <ele>413.36</ele>
        <time>2010-01-01T16:00:16Z</time>
      </trkpt>
      <trkpt lat="44.250200" lon="1.982380">
        <ele>414.68</ele>
        <time>2010-01-01T16:00:33Z</time>
      </trkpt>
      <trkpt lat="44.250890" lon="1.983350">
        <ele>426.49</ele>
        <time>2010-01-01T16:00:39Z</time>
      </trkpt>
      <trkpt lat="44.251150" lon="1.983850">
        <ele>426.070435</ele>
        <time>2010-01-01T16:00:43Z</time>
      </trkpt>
      <trkpt lat="44.251260" lon="1.983940">
        <ele>426.97</ele>
        <time>2010-01-01T16:00:49Z</time>
      </trkpt>
      <trkpt lat="44.251380" lon="1.983940">
        <ele>426.97</ele>
        <time>2010-01-01T16:01:12Z</time>
      </trkpt>
      <trkpt lat="44.251520" lon="1.983860">
        <ele>427.02</ele>
        <time>2010-01-01T16:01:32Z</time>
      </trkpt>
      <trkpt lat="44.251890" lon="1.983280">
        <ele>436.782806</ele>
        <time>2010-01-01T16:01:45Z</time>
      </trkpt>
      <trkpt lat="44.252350" lon="1.982980">
        <ele>442.39</ele>
        <time>2010-01-01T16:01:54Z</time>
      </trkpt>
      <trkpt lat="44.252660" lon="1.983060">
        <ele>443.87</ele>
        <time>2010-01-01T16:02:07Z</time>
      </trkpt>
      <trkpt lat="44.252850" lon="1.983260">
        <ele>440.80</ele>
        <time>2010-01-01T16:02:50Z</time>
      </trkpt>
      <trkpt lat="44.252970" lon="1.983690">
        <ele>433.339447</ele>
        <time>2010-01-01T16:03:17Z</time>
      </trkpt>
      <trkpt lat="44.253780" lon="1.984670">
        <ele>427.662811</ele>
        <time>2010-01-01T16:03:31Z</time>
      </trkpt>
      <trkpt lat="44.254200" lon="1.985410">
        <ele>422.131714</ele>
        <time>2010-01-01T16:03:35Z</time>
      </trkpt>
      <trkpt lat="44.254470" lon="1.985700">
        <ele>422.661987</ele>
        <time>2010-01-01T16:03:42Z</time>
      </trkpt>
      <trkpt lat="44.254500" lon="1.985840">
        <ele>422.507446</ele>
        <time>2010-01-01T16:03:54Z</time>
      </trkpt>
      <trkpt lat="44.254470" lon="1.986080">
        <ele>420.45</ele>
        <time>2010-01-01T16:04:04Z</time>
      </trkpt>
      <trkpt lat="44.254360" lon="1.986450">
        <ele>415.854218</ele>
        <time>2010-01-01T16:04:14Z</time>
      </trkpt>
      <trkpt lat="44.254350" lon="1.986820">
        <ele>414.805908</ele>
        <time>2010-01-01T16:04:25Z</time>
      </trkpt>
      <trkpt lat="44.254390" lon="1.987170">
        <ele>412.729065</ele>
        <time>2010-01-01T16:04:37Z</time>
      </trkpt>
      <trkpt lat="44.254510" lon="1.987510">
        <ele>412.414886</ele>
        <time>2010-01-01T16:04:42Z</time>
      </trkpt>
      <trkpt lat="44.254750" lon="1.987770">
        <ele>413.24</ele>
        <time>2010-01-01T16:05:38Z</time>
      </trkpt>
      <trkpt lat="44.254810" lon="1.987890">
        <ele>412.57</ele>
        <time>2010-01-01T16:05:48Z</time>
      </trkpt>
      <trkpt lat="44.254790" lon="1.989870">
        <ele>399.335999</ele>
        <time>2010-01-01T16:06:09Z</time>
      </trkpt>
      <trkpt lat="44.254850" lon="1.990210">
        <ele>396.594421</ele>
        <time>2010-01-01T16:06:15Z</time>
      </trkpt>
      <trkpt lat="44.254870" lon="1.990910">
        <ele>390.941559</ele>
        <time>2010-01-01T16:06:23Z</time>
      </trkpt>
      <trkpt lat="44.254960" lon="1.991110">
        <ele>390.783508</ele>
        <time>2010-01-01T16:06:52Z</time>
      </trkpt>
      <trkpt lat="44.255130" lon="1.991220">
        <ele>389.483093</ele>
        <time>2010-01-01T16:07:00Z</time>
      </trkpt>
      <trkpt lat="44.255860" lon="1.991260">
        <ele>382.276672</ele>
        <time>2010-01-01T16:07:29Z</time>
      </trkpt>
      <trkpt lat="44.256060" lon="1.991330">
        <ele>381.132202</ele>
        <time>2010-01-01T16:08:16Z</time>
      </trkpt>
      <trkpt lat="44.256640" lon="1.991890">
        <ele>373.704346</ele>
        <time>2010-01-01T16:08:25Z</time>
      </trkpt>
      <trkpt lat="44.257740" lon="1.992550">
        <ele>365.107513</ele>
        <time>2010-01-01T16:08:45Z</time>
      </trkpt>
      <trkpt lat="44.257920" lon="1.992710">
        <ele>362.845001</ele>
        <time>2010-01-01T16:09:08Z</time>
      </trkpt>
      <trkpt lat="44.258280" lon="1.993190">
        <ele>355.052277</ele>
        <time>2010-01-01T16:09:19Z</time>
      </trkpt>
      <trkpt lat="44.258780" lon="1.993570">
        <ele>352.919983</ele>
        <time>2010-01-01T16:09:34Z</time>
      </trkpt>
      <trkpt lat="44.258950" lon="1.993880">
        <ele>349.206573</ele>
        <time>2010-01-01T16:09:39Z</time>
      </trkpt>
      <trkpt lat="44.259090" lon="1.994380">
        <ele>343.920013</ele>
        <time>2010-01-01T16:09:44Z</time>
      </trkpt>
      <trkpt lat="44.259160" lon="1.994520">
        <ele>342.500000</ele>
        <time>2010-01-01T16:09:54Z</time>
      </trkpt>
      <trkpt lat="44.259260" lon="1.994610">
        <ele>343.71</ele>
        <time>2010-01-01T16:10:05Z</time>
      </trkpt>
      <trkpt lat="44.259510" lon="1.994590">
        <ele>342.294861</ele>
        <time>2010-01-01T16:10:16Z</time>
      </trkpt>
      <trkpt lat="44.259770" lon="1.994430">
        <ele>341.51</ele>
        <time>2010-01-01T16:10:49Z</time>
      </trkpt>
      <trkpt lat="44.260040" lon="1.994340">
        <ele>339.770813</ele>
        <time>2010-01-01T16:11:14Z</time>
      </trkpt>
      <trkpt lat="44.260850" lon="1.994290">
        <ele>332.510223</ele>
        <time>2010-01-01T16:11:22Z</time>
      </trkpt>
      <trkpt lat="44.261460" lon="1.994450">
        <ele>323.047302</ele>
        <time>2010-01-01T16:11:50Z</time>
      </trkpt>
      <trkpt lat="44.261660" lon="1.994430">
        <ele>321.174988</ele>
        <time>2010-01-01T16:12:02Z</time>
      </trkpt>
      <trkpt lat="44.262340" lon="1.994130">
        <ele>313.645935</ele>
        <time>2010-01-01T16:12:34Z</time>
      </trkpt>
      <trkpt lat="44.262550" lon="1.993850">
        <ele>312.157196</ele>
        <time>2010-01-01T16:12:45Z</time>
      </trkpt>
      <trkpt lat="44.262920" lon="1.992870">
        <ele>309.952026</ele>
        <time>2010-01-01T16:13:04Z</time>
      </trkpt>
      <trkpt lat="44.263120" lon="1.992590">
        <ele>306.819214</ele>
        <time>2010-01-01T16:13:31Z</time>
      </trkpt>
      <trkpt lat="44.263540" lon="1.992320">
        <ele>302.516632</ele>
        <time>2010-01-01T16:13:44Z</time>
      </trkpt>
      <trkpt lat="44.264200" lon="1.992120">
        <ele>294.412537</ele>
        <time>2010-01-01T16:14:09Z</time>
      </trkpt>
      <trkpt lat="44.264500" lon="1.991890">
        <ele>292.492401</ele>
        <time>2010-01-01T16:14:26Z</time>
      </trkpt>
      <trkpt lat="44.264930" lon="1.991270">
        <ele>290.050720</ele>
        <time>2010-01-01T16:14:39Z</time>
      </trkpt>
      <trkpt lat="44.265300" lon="1.990960">
        <ele>284.022491</ele>
        <time>2010-01-01T16:14:55Z</time>
      </trkpt>
      <trkpt lat="44.265530" lon="1.990660">
        <ele>282.139984</ele>
        <time>2010-01-01T16:15:13Z</time>
      </trkpt>
      <trkpt lat="44.265780" lon="1.990240">
        <ele>279.531372</ele>
        <time>2010-01-01T16:15:19Z</time>
      </trkpt>
      <trkpt lat="44.266040" lon="1.989690">
        <ele>274.032074</ele>
        <time>2010-01-01T16:15:24Z</time>
      </trkpt>
      <trkpt lat="44.266140" lon="1.989570">
        <ele>270.966888</ele>
        <time>2010-01-01T16:15:29Z</time>
      </trkpt>
      <trkpt lat="44.266260" lon="1.989570">
        <ele>268.431854</ele>
        <time>2010-01-01T16:15:33Z</time>
      </trkpt>
      <trkpt lat="44.266370" lon="1.989690">
        <ele>267.376007</ele>
        <time>2010-01-01T16:15:46Z</time>
      </trkpt>
      <trkpt lat="44.266390" lon="1.989830">
        <ele>267.962402</ele>
        <time>2010-01-01T16:16:03Z</time>
      </trkpt>
      <trkpt lat="44.266290" lon="1.990250">
        <ele>267.76</ele>
        <time>2010-01-01T16:16:27Z</time>
      </trkpt>
      <trkpt lat="44.266190" lon="1.990830">
        <ele>266.355011</ele>
        <time>2010-01-01T16:16:57Z</time>
      </trkpt>
      <trkpt lat="44.266160" lon="1.991660">
        <ele>259.623291</ele>
        <time>2010-01-01T16:17:25Z</time>
      </trkpt>
      <trkpt lat="44.266000" lon="1.992690">
        <ele>253.29</ele>
        <time>2010-01-01T16:17:31Z</time>
      </trkpt>
      <trkpt lat="44.265660" lon="1.993530">
        <ele>250.262161</ele>
        <time>2010-01-01T16:17:38Z</time>
      </trkpt>
      <trkpt lat="44.265620" lon="1.993740">
        <ele>249.401413</ele>
        <time>2010-01-01T16:18:09Z</time>
      </trkpt>
      <trkpt lat="44.265630" lon="1.993980">
        <ele>247.975250</ele>
        <time>2010-01-01T16:18:22Z</time>
      </trkpt>
      <trkpt lat="44.265940" lon="1.994990">
        <ele>240.553818</ele>
        <time>2010-01-01T16:18:40Z</time>
      </trkpt>
      <trkpt lat="44.265970" lon="1.995440">
        <ele>239.001160</ele>
        <time>2010-01-01T16:18:55Z</time>
      </trkpt>
      <trkpt lat="44.266350" lon="1.995740">
        <ele>237.764999</ele>
        <time>2010-01-01T16:19:08Z</time>
      </trkpt>
      <trkpt lat="44.266630" lon="1.996090">
        <ele>237.145004</ele>
        <time>2010-01-01T16:19:19Z</time>
      </trkpt>
      <trkpt lat="44.266820" lon="1.996450">
        <ele>237.41</ele>
        <time>2010-01-01T16:19:27Z</time>
      </trkpt>
      <trkpt lat="44.266930" lon="1.996800">
        <ele>237.97</ele>
        <time>2010-01-01T16:19:53Z</time>
      </trkpt>
      <trkpt lat="44.266970" lon="1.997070">
        <ele>238.00</ele>
        <time>2010-01-01T16:19:58Z</time>
      </trkpt>
      <trkpt lat="44.267060" lon="1.997970">
        <ele>238.000000</ele>
        <time>2010-01-01T16:20:06Z</time>
      </trkpt>
      <trkpt lat="44.267100" lon="1.998150">
        <ele>238.11</ele>
        <time>2010-01-01T16:20:30Z</time>
      </trkpt>
      <trkpt lat="44.267220" lon="1.998370">
        <ele>238.559067</ele>
        <time>2010-01-01T16:20:54Z</time>
      </trkpt>
      <trkpt lat="44.267770" lon="1.998720">
        <ele>239.000000</ele>
        <time>2010-01-01T16:21:53Z</time>
      </trkpt>
      <trkpt lat="44.268330" lon="1.998970">
        <ele>239.00</ele>
        <time>2010-01-01T16:23:21Z</time>
      </trkpt>
      <trkpt lat="44.269730" lon="1.999650">
        <ele>238.448746</ele>
        <time>2010-01-01T16:23:53Z</time>
      </trkpt>
      <trkpt lat="44.271850" lon="2.000470">
        <ele>238.13</ele>
        <time>2010-01-01T16:25:07Z</time>
      </trkpt>
      <trkpt lat="44.272650" lon="2.000580">
        <ele>238.13</ele>
        <time>2010-01-01T16:25:48Z</time>
      </trkpt>
      <trkpt lat="44.274500" lon="2.000650">
        <ele>239.02</ele>
        <time>2010-01-01T16:26:22Z</time>
      </trkpt>
      <trkpt lat="44.275490" lon="2.000330">
        <ele>239.35</ele>
        <time>2010-01-01T16:28:08Z</time>
      </trkpt>
      <trkpt lat="44.276280" lon="1.999890">
        <ele>239.35</ele>
        <time>2010-01-01T16:31:10Z</time>
      </trkpt>
      <trkpt lat="44.278610" lon="1.998130">
        <ele>239.35</ele>
        <time>2010-01-01T16:31:39Z</time>
      </trkpt>
      <trkpt lat="44.280979" lon="1.996659">
        <ele>240.963608</ele>
        <time>2010-01-01T16:32:40Z</time>
      </trkpt>
      <trkpt lat="44.281859" lon="1.996294">
        <ele>247.12</ele>
        <time>2010-01-01T16:33:24Z</time>
      </trkpt>
      <trkpt lat="44.282434" lon="1.996281">
        <ele>245.93</ele>
        <time>2010-01-01T16:33:47Z</time>
      </trkpt>
      <trkpt lat="44.282910" lon="1.996440">
        <ele>243.12</ele>
        <time>2010-01-01T16:34:21Z</time>
      </trkpt>
      <trkpt lat="44.283580" lon="1.996760">
        <ele>238.936874</ele>
        <time>2010-01-01T16:34:46Z</time>
      </trkpt>
      <trkpt lat="44.284990" lon="1.997580">
        <ele>237.78</ele>
        <time>2010-01-01T16:35:04Z</time>
      </trkpt>
      <trkpt lat="44.286020" lon="1.998100">
        <ele>237.78</ele>
        <time>2010-01-01T16:35:32Z</time>
      </trkpt>
      <trkpt lat="44.286540" lon="1.998440">
        <ele>235.94</ele>
        <time>2010-01-01T16:36:21Z</time>
      </trkpt>
      <trkpt lat="44.286687" lon="1.998665">
        <ele>235.67</ele>
        <time>2010-01-01T16:37:53Z</time>
      </trkpt>
      <trkpt lat="44.286780" lon="1.999500">
        <ele>232.29</ele>
        <time>2010-01-01T16:38:15Z</time>
      </trkpt>
      <trkpt lat="44.286921" lon="1.999694">
        <ele>232.919998</ele>
        <time>2010-01-01T16:38:47Z</time>
      </trkpt>
      <trkpt lat="44.286810" lon="2.000230">
        <ele>233.70</ele>
        <time>2010-01-01T16:38:56Z</time>
      </trkpt>
      <trkpt lat="44.286950" lon="2.000820">
        <ele>235.617035</ele>
        <time>2010-01-01T16:39:12Z</time>
      </trkpt>
      <trkpt lat="44.287250" lon="2.001700">
        <ele>237.00</ele>
        <time>2010-01-01T16:39:59Z</time>
      </trkpt>
      <trkpt lat="44.288110" lon="2.002910">
        <ele>237.65</ele>
        <time>2010-01-01T16:40:50Z</time>
      </trkpt>
      <trkpt lat="44.288700" lon="2.003576">
        <ele>237.779449</ele>
        <time>2010-01-01T16:41:13Z</time>
      </trkpt>
      <trkpt lat="44.289055" lon="2.004051">
        <ele>238.677505</ele>
        <time>2010-01-01T16:41:31Z</time>
      </trkpt>
      <trkpt lat="44.289451" lon="2.004735">
        <ele>239.55</ele>
        <time>2010-01-01T16:42:04Z</time>
      </trkpt>
      <trkpt lat="44.289740" lon="2.005160">
        <ele>239.55</ele>
        <time>2010-01-01T16:43:02Z</time>
      </trkpt>
      <trkpt lat="44.290090" lon="2.005750">
        <ele>239.98</ele>
        <time>2010-01-01T16:43:16Z</time>
      </trkpt>
      <trkpt lat="44.290550" lon="2.006660">
        <ele>239.985764</ele>
        <time>2010-01-01T16:44:09Z</time>
      </trkpt>
      <trkpt lat="44.290710" lon="2.006880">
        <ele>239.735001</ele>
        <time>2010-01-01T16:44:35Z</time>
      </trkpt>
      <trkpt lat="44.291060" lon="2.007170">
        <ele>239.577499</ele>
        <time>2010-01-01T16:44:45Z</time>
      </trkpt>
      <trkpt lat="44.291644" lon="2.007458">
        <ele>240.261078</ele>
        <time>2010-01-01T16:45:10Z</time>
      </trkpt>
      <trkpt lat="44.292180" lon="2.007640">
        <ele>240.41</ele>
        <time>2010-01-01T16:45:47Z</time>
      </trkpt>
      <trkpt lat="44.292478" lon="2.007692">
        <ele>240.60</ele>
        <time>2010-01-01T16:48:18Z</time>
      </trkpt>
      <trkpt lat="44.293460" lon="2.007590">
        <ele>242.096252</ele>
        <time>2010-01-01T16:49:21Z</time>
      </trkpt>
      <trkpt lat="44.293798" lon="2.007653">
        <ele>242.661591</ele>
        <time>2010-01-01T16:50:47Z</time>
      </trkpt>
      <trkpt lat="44.294010" lon="2.007760">
        <ele>242.826935</ele>
        <time>2010-01-01T16:51:04Z</time>
      </trkpt>
      <trkpt lat="44.294410" lon="2.008070">
        <ele>243.00</ele>
        <time>2010-01-01T16:51:18Z</time>
      </trkpt>
      <trkpt lat="44.295000" lon="2.008880">
        <ele>242.55</ele>
        <time>2010-01-01T16:54:02Z</time>
      </trkpt>
      <trkpt lat="44.296320" lon="2.009720">
        <ele>248.18</ele>
        <time>2010-01-01T16:54:17Z</time>
      </trkpt>
      <trkpt lat="44.296650" lon="2.009770">
        <ele>248.526703</ele>
        <time>2010-01-01T16:54:52Z</time>
      </trkpt>
      <trkpt lat="44.297709" lon="2.009783">
        <ele>250.59</ele>
        <time>2010-01-01T16:55:12Z</time>
      </trkpt>
      <trkpt lat="44.297990" lon="2.009720">
        <ele>254.47</ele>
        <time>2010-01-01T16:55:52Z</time>
      </trkpt>
      <trkpt lat="44.298610" lon="2.009500">
        <ele>254.47</ele>
        <time>2010-01-01T16:56:17Z</time>
      </trkpt>
      <trkpt lat="44.298870" lon="2.009460">
        <ele>254.47</ele>
        <time>2010-01-01T16:56:29Z</time>
      </trkpt>
      <trkpt lat="44.299490" lon="2.009600">
        <ele>253.22</ele>
        <time>2010-01-01T16:56:55Z</time>
      </trkpt>
      <trkpt lat="44.300400" lon="2.009690">
        <ele>252.60</ele>
        <time>2010-01-01T16:57:43Z</time>
      </trkpt>
      <trkpt lat="44.304170" lon="2.009620">
        <ele>256.89</ele>
        <time>2010-01-01T16:58:11Z</time>
      </trkpt>
      <trkpt lat="44.305740" lon="2.009700">
        <ele>256.89</ele>
        <time>2010-01-01T16:59:24Z</time>
      </trkpt>
      <trkpt lat="44.307880" lon="2.009570">
        <ele>256.89</ele>
        <time>2010-01-01T16:59:41Z</time>
      </trkpt>
      <trkpt lat="44.308320" lon="2.009640">
        <ele>256.89</ele>
        <time>2010-01-01T16:59:52Z</time>
      </trkpt>
      <trkpt lat="44.308660" lon="2.009780">
        <ele>256.49</ele>
        <time>2010-01-01T17:00:14Z</time>
      </trkpt>
      <trkpt lat="44.312520" lon="2.011700">
        <ele>249.70</ele>
        <time>2010-01-01T17:00:36Z</time>
      </trkpt>
      <trkpt lat="44.312880" lon="2.011740">
        <ele>249.53</ele>
        <time>2010-01-01T17:09:43Z</time>
      </trkpt>
      <trkpt lat="44.313760" lon="2.011590">
        <ele>252.83</ele>
        <time>2010-01-01T17:10:19Z</time>
      </trkpt>
      <trkpt lat="44.314250" lon="2.011600">
        <ele>252.799896</ele>
        <time>2010-01-01T17:10:30Z</time>
      </trkpt>
      <trkpt lat="44.315230" lon="2.011940">
        <ele>253.336273</ele>
        <time>2010-01-01T17:10:46Z</time>
      </trkpt>
      <trkpt lat="44.315830" lon="2.012010">
        <ele>253.148651</ele>
        <time>2010-01-01T17:11:11Z</time>
      </trkpt>
      <trkpt lat="44.316140" lon="2.011930">
        <ele>253.279526</ele>
        <time>2010-01-01T17:11:27Z</time>
      </trkpt>
      <trkpt lat="44.316750" lon="2.011620">
        <ele>255.315872</ele>
        <time>2010-01-01T17:13:54Z</time>
      </trkpt>
      <trkpt lat="44.317900" lon="2.011190">
        <ele>253.040665</ele>
        <time>2010-01-01T17:14:23Z</time>
      </trkpt>
      <trkpt lat="44.318540" lon="2.010770">
        <ele>253.138168</ele>
        <time>2010-01-01T17:14:32Z</time>
      </trkpt>
      <trkpt lat="44.320140" lon="2.009580">
        <ele>251.249756</ele>
        <time>2010-01-01T17:14:52Z</time>
      </trkpt>
      <trkpt lat="44.320540" lon="2.009370">
        <ele>250.318069</ele>
        <time>2010-01-01T17:16:11Z</time>
      </trkpt>
      <trkpt lat="44.320810" lon="2.009290">
        <ele>250.341568</ele>
        <time>2010-01-01T17:16:16Z</time>
      </trkpt>
      <trkpt lat="44.321360" lon="2.009300">
        <ele>251.17</ele>
        <time>2010-01-01T17:16:26Z</time>
      </trkpt>
      <trkpt lat="44.321910" lon="2.009220">
        <ele>251.28</ele>
        <time>2010-01-01T17:16:33Z</time>
      </trkpt>
      <trkpt lat="44.322743" lon="2.008937">
        <ele>251.28</ele>
        <time>2010-01-01T17:16:43Z</time>
      </trkpt>
      <trkpt lat="44.323702" lon="2.008396">
        <ele>251.28</ele>
        <time>2010-01-01T17:18:26Z</time>
      </trkpt>
      <trkpt lat="44.324348" lon="2.007901">
        <ele>260.548157</ele>
        <time>2010-01-01T17:18:37Z</time>
      </trkpt>
      <trkpt lat="44.324914" lon="2.007601">
        <ele>262.171143</ele>
        <time>2010-01-01T17:18:48Z</time>
      </trkpt>
      <trkpt lat="44.325116" lon="2.007504">
        <ele>263.21</ele>
        <time>2010-01-01T17:20:17Z</time>
      </trkpt>
      <trkpt lat="44.325637" lon="2.007354">
        <ele>261.975800</ele>
        <time>2010-01-01T17:21:57Z</time>
      </trkpt>
      <trkpt lat="44.326100" lon="2.007276">
        <ele>260.70</ele>
        <time>2010-01-01T17:22:08Z</time>
      </trkpt>
      <trkpt lat="44.326690" lon="2.007263">
        <ele>260.70</ele>
        <time>2010-01-01T17:22:29Z</time>
      </trkpt>
      <trkpt lat="44.327396" lon="2.007224">
        <ele>260.992981</ele>
        <time>2010-01-01T17:23:07Z</time>
      </trkpt>
      <trkpt lat="44.327135" lon="2.007191">
        <ele>260.86</ele>
        <time>2010-01-01T17:24:13Z</time>
      </trkpt>
      <trkpt lat="44.327755" lon="2.007360">
        <ele>258.545013</ele>
        <time>2010-01-01T17:24:26Z</time>
      </trkpt>
      <trkpt lat="44.328914" lon="2.007927">
        <ele>256.677948</ele>
        <time>2010-01-01T17:24:41Z</time>
      </trkpt>
      <trkpt lat="44.329233" lon="2.008155">
        <ele>256.616272</ele>
        <time>2010-01-01T17:24:50Z</time>
      </trkpt>
      <trkpt lat="44.329444" lon="2.008383">
        <ele>254.469452</ele>
        <time>2010-01-01T17:25:08Z</time>
      </trkpt>
      <trkpt lat="44.329633" lon="2.008709">
        <ele>252.875275</ele>
        <time>2010-01-01T17:25:23Z</time>
      </trkpt>
      <trkpt lat="44.330046" lon="2.009816">
        <ele>249.776321</ele>
        <time>2010-01-01T17:25:38Z</time>
      </trkpt>
      <trkpt lat="44.330771" lon="2.011607">
        <ele>248.318771</ele>
        <time>2010-01-01T17:25:42Z</time>
      </trkpt>
      <trkpt lat="44.331309" lon="2.013099">
        <ele>248.595001</ele>
        <time>2010-01-01T17:25:46Z</time>
      </trkpt>
      <trkpt lat="44.331490" lon="2.013783">
        <ele>248.998520</ele>
        <time>2010-01-01T17:26:06Z</time>
      </trkpt>
      <trkpt lat="44.331647" lon="2.015196">
        <ele>249.000000</ele>
        <time>2010-01-01T17:26:40Z</time>
      </trkpt>
      <trkpt lat="44.331720" lon="2.015630">
        <ele>249.000000</ele>
        <time>2010-01-01T17:26:50Z</time>
      </trkpt>
      <trkpt lat="44.331970" lon="2.016850">
        <ele>248.71</ele>
        <time>2010-01-01T17:27:29Z</time>
      </trkpt>
      <trkpt lat="44.332080" lon="2.017200">
        <ele>248.71</ele>
        <time>2010-01-01T17:27:55Z</time>
      </trkpt>
      <trkpt lat="44.332360" lon="2.017580">
        <ele>248.80</ele>
        <time>2010-01-01T17:28:00Z</time>
      </trkpt>
      <trkpt lat="44.332940" lon="2.017910">
        <ele>248.80</ele>
        <time>2010-01-01T17:28:12Z</time>
      </trkpt>
      <trkpt lat="44.333290" lon="2.018190">
        <ele>250.479996</ele>
        <time>2010-01-01T17:28:29Z</time>
      </trkpt>
      <trkpt lat="44.336330" lon="2.021060">
        <ele>261.787079</ele>
        <time>2010-01-01T17:28:33Z</time>
      </trkpt>
      <trkpt lat="44.336890" lon="2.021690">
        <ele>261.82</ele>
        <time>2010-01-01T17:28:37Z</time>
      </trkpt>
      <trkpt lat="44.337040" lon="2.021940">
        <ele>261.82</ele>
        <time>2010-01-01T17:28:50Z</time>
      </trkpt>
      <trkpt lat="44.337220" lon="2.022590">
        <ele>262.98</ele>
        <time>2010-01-01T17:30:30Z</time>
      </trkpt>
      <trkpt lat="44.337380" lon="2.025330">
        <ele>266.78</ele>
        <time>2010-01-01T17:31:17Z</time>
      </trkpt>
      <trkpt lat="44.337410" lon="2.025500">
        <ele>266.38</ele>
        <time>2010-01-01T17:33:15Z</time>
      </trkpt>
      <trkpt lat="44.337560" lon="2.025800">
        <ele>264.86</ele>
        <time>2010-01-01T17:35:04Z</time>
      </trkpt>
      <trkpt lat="44.337720" lon="2.025890">
        <ele>263.20</ele>
        <time>2010-01-01T17:35:12Z</time>
      </trkpt>
      <trkpt lat="44.337970" lon="2.025870">
        <ele>263.20</ele>
        <time>2010-01-01T17:35:48Z</time>
      </trkpt>
      <trkpt lat="44.340390" lon="2.024610">
        <ele>266.16</ele>
        <time>2010-01-01T17:36:15Z</time>
      </trkpt>
      <trkpt lat="44.340650" lon="2.024530">
        <ele>266.244995</ele>
        <time>2010-01-01T17:36:20Z</time>
      </trkpt>
      <trkpt lat="44.340920" lon="2.024520">
        <ele>265.285065</ele>
        <time>2010-01-01T17:36:45Z</time>
      </trkpt>
      <trkpt lat="44.343140" lon="2.024810">
        <ele>258.820313</ele>
        <time>2010-01-01T17:37:22Z</time>
      </trkpt>
      <trkpt lat="44.345490" lon="2.026000">
        <ele>249.08</ele>
        <time>2010-01-01T17:38:28Z</time>
      </trkpt>
      <trkpt lat="44.345720" lon="2.026210">
        <ele>249.08</ele>
        <time>2010-01-01T17:38:47Z</time>
      </trkpt>
      <trkpt lat="44.346100" lon="2.026720">
        <ele>251.375000</ele>
        <time>2010-01-01T17:39:16Z</time>
      </trkpt>
      <trkpt lat="44.346770" lon="2.027630">
        <ele>254.781326</ele>
        <time>2010-01-01T17:39:45Z</time>
      </trkpt>
      <trkpt lat="44.347720" lon="2.029530">
        <ele>256.989990</ele>
        <time>2010-01-01T17:40:01Z</time>
      </trkpt>
      <trkpt lat="44.347950" lon="2.029830">
        <ele>256.768127</ele>
        <time>2010-01-01T17:40:34Z</time>
      </trkpt>
      <trkpt lat="44.348270" lon="2.030130">
        <ele>256.78</ele>
        <time>2010-01-01T17:41:20Z</time>
      </trkpt>
      <trkpt lat="44.348360" lon="2.030400">
        <ele>256.78</ele>
        <time>2010-01-01T17:41:28Z</time>
      </trkpt>
      <trkpt lat="44.348480" lon="2.031010">
        <ele>256.435455</ele>
        <time>2010-01-01T17:41:42Z</time>
      </trkpt>
      <trkpt lat="44.348510" lon="2.031560">
        <ele>256.169037</ele>
        <time>2010-01-01T17:41:55Z</time>
      </trkpt>
      <trkpt lat="44.348595" lon="2.031655">
        <ele>256.352844</ele>
        <time>2010-01-01T17:42:58Z</time>
      </trkpt>
      <trkpt lat="44.348840" lon="2.031780">
        <ele>257.051239</ele>
        <time>2010-01-01T17:43:08Z</time>
      </trkpt>
      <trkpt lat="44.348910" lon="2.031700">
        <ele>257.082489</ele>
        <time>2010-01-01T17:43:15Z</time>
      </trkpt>
      <trkpt lat="44.348870" lon="2.031550">
        <ele>256.752502</ele>
        <time>2010-01-01T17:43:19Z</time>
      </trkpt>
      <trkpt lat="44.349000" lon="2.030900">
        <ele>256.97</ele>
        <time>2010-01-01T17:43:26Z</time>
      </trkpt>
      <trkpt lat="44.349870" lon="2.030920">
        <ele>258.765015</ele>
        <time>2010-01-01T17:43:33Z</time>
      </trkpt>
      <trkpt lat="44.350070" lon="2.031100">
        <ele>259.309174</ele>
        <time>2010-01-01T17:43:47Z</time>
      </trkpt>
      <trkpt lat="44.350176" lon="2.032222">
        <ele>259.437500</ele>
        <time>2010-01-01T17:43:53Z</time>
      </trkpt>
      <trkpt lat="44.350210" lon="2.032460">
        <ele>259.510010</ele>
        <time>2010-01-01T17:43:58Z</time>
      </trkpt>
      <trkpt lat="44.350460" lon="2.033300">
        <ele>260.037689</ele>
        <time>2010-01-01T17:44:50Z</time>
      </trkpt>
      <trkpt lat="44.350540" lon="2.033420">
        <ele>260.072601</ele>
        <time>2010-01-01T17:44:59Z</time>
      </trkpt>
      <trkpt lat="44.350840" lon="2.033410">
        <ele>260.885773</ele>
        <time>2010-01-01T17:45:08Z</time>
      </trkpt>
      <trkpt lat="44.351250" lon="2.033540">
        <ele>262.635010</ele>
        <time>2010-01-01T17:45:27Z</time>
      </trkpt>
      <trkpt lat="44.351340" lon="2.033610">
        <ele>263.035004</ele>
        <time>2010-01-01T17:46:02Z</time>
      </trkpt>
      <trkpt lat="44.351400" lon="2.033730">
        <ele>263.299988</ele>
        <time>2010-01-01T17:46:20Z</time>
      </trkpt>
      <trkpt lat="44.351400" lon="2.034170">
        <ele>263.233063</ele>
        <time>2010-01-01T17:46:49Z</time>
      </trkpt>
      <trkpt lat="44.351470" lon="2.034424">
        <ele>263.352112</ele>
        <time>2010-01-01T17:47:11Z</time>
      </trkpt>
      <trkpt lat="44.349620" lon="2.036180">
        <ele>257.350006</ele>
        <time>2010-01-01T17:47:58Z</time>
      </trkpt>
      <trkpt lat="44.349523" lon="2.036397">
        <ele>256.915009</ele>
        <time>2010-01-01T17:48:32Z</time>
      </trkpt>
      <trkpt lat="44.349573" lon="2.037127">
        <ele>256.82</ele>
        <time>2010-01-01T17:48:51Z</time>
      </trkpt>
      <trkpt lat="44.349680" lon="2.037780">
        <ele>256.82</ele>
        <time>2010-01-01T17:49:17Z</time>
      </trkpt>
      <trkpt lat="44.350330" lon="2.041191">
        <ele>256.82</ele>
        <time>2010-01-01T17:49:46Z</time>
      </trkpt>
      <trkpt lat="44.350460" lon="2.041770">
        <ele>259.86</ele>
        <time>2010-01-01T17:50:24Z</time>
      </trkpt>
      <trkpt lat="44.350491" lon="2.042696">
        <ele>260.78</ele>
        <time>2010-01-01T17:51:14Z</time>
      </trkpt>
      <trkpt lat="44.350554" lon="2.043152">
        <ele>260.78</ele>
        <time>2010-01-01T17:51:46Z</time>
      </trkpt>
      <trkpt lat="44.350801" lon="2.043992">
        <ele>260.388458</ele>
        <time>2010-01-01T17:52:26Z</time>
      </trkpt>
      <trkpt lat="44.350442" lon="2.044226">
        <ele>258.64</ele>
        <time>2010-01-01T17:53:18Z</time>
      </trkpt>
      <trkpt lat="44.350307" lon="2.044559">
        <ele>258.64</ele>
        <time>2010-01-01T17:53:32Z</time>
      </trkpt>
      <trkpt lat="44.349930" lon="2.044560">
        <ele>259.558746</ele>
        <time>2010-01-01T17:54:37Z</time>
      </trkpt>
      <trkpt lat="44.349750" lon="2.044700">
        <ele>260.21</ele>
        <time>2010-01-01T17:55:00Z</time>
      </trkpt>
      <trkpt lat="44.349545" lon="2.045047">
        <ele>261.44</ele>
        <time>2010-01-01T17:55:23Z</time>
      </trkpt>
      <trkpt lat="44.349210" lon="2.045710">
        <ele>263.91</ele>
        <time>2010-01-01T17:55:54Z</time>
      </trkpt>
      <trkpt lat="44.348740" lon="2.046350">
        <ele>269.01</ele>
        <time>2010-01-01T17:57:47Z</time>
      </trkpt>
      <trkpt lat="44.348620" lon="2.046440">
        <ele>267.881348</ele>
        <time>2010-01-01T17:58:04Z</time>
      </trkpt>
      <trkpt lat="44.348000" lon="2.046530">
        <ele>268.80</ele>
        <time>2010-01-01T17:58:41Z</time>
      </trkpt>
      <trkpt lat="44.347100" lon="2.046790">
        <ele>268.29</ele>
        <time>2010-01-01T17:58:50Z</time>
      </trkpt>
      <trkpt lat="44.345440" lon="2.046630">
        <ele>262.89</ele>
        <time>2010-01-01T17:59:01Z</time>
      </trkpt>
      <trkpt lat="44.345000" lon="2.046780">
        <ele>261.650299</ele>
        <time>2010-01-01T17:59:16Z</time>
      </trkpt>
      <trkpt lat="44.344290" lon="2.047110">
        <ele>262.91</ele>
        <time>2010-01-01T17:59:27Z</time>
      </trkpt>
      <trkpt lat="44.343910" lon="2.047970">
        <ele>262.903687</ele>
        <time>2010-01-01T17:59:38Z</time>
      </trkpt>
      <trkpt lat="44.343740" lon="2.048470">
        <ele>263.22</ele>
        <time>2010-01-01T17:59:46Z</time>
      </trkpt>
      <trkpt lat="44.343510" lon="2.049570">
        <ele>263.77</ele>
        <time>2010-01-01T18:00:03Z</time>
      </trkpt>
      <trkpt lat="44.343110" lon="2.051080">
        <ele>262.172638</ele>
        <time>2010-01-01T18:00:17Z</time>
      </trkpt>
      <trkpt lat="44.343100" lon="2.051370">
        <ele>261.94</ele>
        <time>2010-01-01T18:00:48Z</time>
      </trkpt>
      <trkpt lat="44.343210" lon="2.051830">
        <ele>262.521576</ele>
        <time>2010-01-01T18:01:07Z</time>
      </trkpt>
      <trkpt lat="44.343370" lon="2.052230">
        <ele>263.947876</ele>
        <time>2010-01-01T18:01:23Z</time>
      </trkpt>
      <trkpt lat="44.344420" lon="2.053870">
        <ele>267.921204</ele>
        <time>2010-01-01T18:01:41Z</time>
      </trkpt>
      <trkpt lat="44.344610" lon="2.054060">
        <ele>267.756165</ele>
        <time>2010-01-01T18:01:50Z</time>
      </trkpt>
      <trkpt lat="44.344780" lon="2.054130">
        <ele>265.73</ele>
        <time>2010-01-01T18:01:59Z</time>
      </trkpt>
      <trkpt lat="44.344870" lon="2.054150">
        <ele>265.73</ele>
        <time>2010-01-01T18:02:12Z</time>
      </trkpt>
      <trkpt lat="44.345050" lon="2.054090">
        <ele>265.448273</ele>
        <time>2010-01-01T18:02:35Z</time>
      </trkpt>
      <trkpt lat="44.345150" lon="2.053910">
        <ele>267.922455</ele>
        <time>2010-01-01T18:03:19Z</time>
      </trkpt>
      <trkpt lat="44.345290" lon="2.053460">
        <ele>274.334015</ele>
        <time>2010-01-01T18:03:56Z</time>
      </trkpt>
      <trkpt lat="44.345410" lon="2.053300">
        <ele>275.04</ele>
        <time>2010-01-01T18:04:16Z</time>
      </trkpt>
      <trkpt lat="44.345520" lon="2.053230">
        <ele>275.77</ele>
        <time>2010-01-01T18:04:42Z</time>
      </trkpt>
      <trkpt lat="44.346770" lon="2.052790">
        <ele>275.25</ele>
        <time>2010-01-01T18:04:54Z</time>
      </trkpt>
      <trkpt lat="44.347000" lon="2.052770">
        <ele>276.088745</ele>
        <time>2010-01-01T18:05:04Z</time>
      </trkpt>
      <trkpt lat="44.347210" lon="2.052880">
        <ele>276.73</ele>
        <time>2010-01-01T18:05:12Z</time>
      </trkpt>
      <trkpt lat="44.347580" lon="2.053330">
        <ele>276.24</ele>
        <time>2010-01-01T18:05:18Z</time>
      </trkpt>
      <trkpt lat="44.348130" lon="2.054280">
        <ele>276.20</ele>
        <time>2010-01-01T18:05:49Z</time>
      </trkpt>
      <trkpt lat="44.348380" lon="2.054800">
        <ele>276.007721</ele>
        <time>2010-01-01T18:05:57Z</time>
      </trkpt>
      <trkpt lat="44.348620" lon="2.055730">
        <ele>276.68</ele>
        <time>2010-01-01T18:06:08Z</time>
      </trkpt>
      <trkpt lat="44.348930" lon="2.056380">
        <ele>277.135864</ele>
        <time>2010-01-01T18:06:22Z</time>
      </trkpt>
      <trkpt lat="44.349760" lon="2.057540">
        <ele>279.157684</ele>
        <time>2010-01-01T18:06:31Z</time>
      </trkpt>
      <trkpt lat="44.350470" lon="2.058180">
        <ele>280.196838</ele>
        <time>2010-01-01T18:06:39Z</time>
      </trkpt>
      <trkpt lat="44.350810" lon="2.058650">
        <ele>280.012390</ele>
        <time>2010-01-01T18:06:52Z</time>
      </trkpt>
      <trkpt lat="44.351180" lon="2.059400">
        <ele>280.787201</ele>
        <time>2010-01-01T18:07:27Z</time>
      </trkpt>
      <trkpt lat="44.351490" lon="2.060310">
        <ele>281.552704</ele>
        <time>2010-01-01T18:07:47Z</time>
      </trkpt>
      <trkpt lat="44.351770" lon="2.061590">
        <ele>281.566406</ele>
        <time>2010-01-01T18:08:49Z</time>
      </trkpt>
      <trkpt lat="44.352070" lon="2.063290">
        <ele>280.568481</ele>
        <time>2010-01-01T18:09:11Z</time>
      </trkpt>
      <trkpt lat="44.351950" lon="2.064400">
        <ele>276.067017</ele>
        <time>2010-01-01T18:09:38Z</time>
      </trkpt>
      <trkpt lat="44.351720" lon="2.065740">
        <ele>275.542542</ele>
        <time>2010-01-01T18:10:19Z</time>
      </trkpt>
      <trkpt lat="44.351470" lon="2.067520">
        <ele>275.24</ele>
        <time>2010-01-01T18:10:52Z</time>
      </trkpt>
      <trkpt lat="44.351500" lon="2.068020">
        <ele>275.24</ele>
        <time>2010-01-01T18:11:02Z</time>
      </trkpt>
      <trkpt lat="44.352010" lon="2.070160">
        <ele>279.455414</ele>
        <time>2010-01-01T18:11:15Z</time>
      </trkpt>
      <trkpt lat="44.352380" lon="2.070800">
        <ele>279.113190</ele>
        <time>2010-01-01T18:11:31Z</time>
      </trkpt>
      <trkpt lat="44.352860" lon="2.071220">
        <ele>282.808655</ele>
        <time>2010-01-01T18:11:58Z</time>
      </trkpt>
      <trkpt lat="44.353600" lon="2.071520">
        <ele>283.43</ele>
        <time>2010-01-01T18:12:27Z</time>
      </trkpt>
      <trkpt lat="44.356230" lon="2.072990">
        <ele>283.087616</ele>
        <time>2010-01-01T18:13:00Z</time>
      </trkpt>
      <trkpt lat="44.356640" lon="2.073080">
        <ele>285.648865</ele>
        <time>2010-01-01T18:13:07Z</time>
      </trkpt>
      <trkpt lat="44.357580" lon="2.073050">
        <ele>289.97</ele>
        <time>2010-01-01T18:13:16Z</time>
      </trkpt>
      <trkpt lat="44.357770" lon="2.073140">
        <ele>289.97</ele>
        <time>2010-01-01T18:13:20Z</time>
      </trkpt>
      <trkpt lat="44.357990" lon="2.073380">
        <ele>289.16</ele>
        <time>2010-01-01T18:13:34Z</time>
      </trkpt>
      <trkpt lat="44.358240" lon="2.073790">
        <ele>288.79</ele>
        <time>2010-01-01T18:14:11Z</time>
      </trkpt>
      <trkpt lat="44.358360" lon="2.074130">
        <ele>287.62</ele>
        <time>2010-01-01T18:15:31Z</time>
      </trkpt>
      <trkpt lat="44.358390" lon="2.074510">
        <ele>290.600220</ele>
        <time>2010-01-01T18:16:29Z</time>
      </trkpt>
      <trkpt lat="44.358370" lon="2.074780">
        <ele>290.92</ele>
        <time>2010-01-01T18:16:45Z</time>
      </trkpt>
      <trkpt lat="44.358190" lon="2.075340">
        <ele>290.92</ele>
        <time>2010-01-01T18:16:53Z</time>
      </trkpt>
      <trkpt lat="44.357960" lon="2.075720">
        <ele>290.92</ele>
        <time>2010-01-01T18:17:07Z</time>
      </trkpt>
      <trkpt lat="44.357590" lon="2.076650">
        <ele>290.92</ele>
        <time>2010-01-01T18:17:20Z</time>
      </trkpt>
      <trkpt lat="44.357240" lon="2.077100">
        <ele>290.92</ele>
        <time>2010-01-01T18:17:37Z</time>
      </trkpt>
      <trkpt lat="44.357000" lon="2.077560">
        <ele>290.201782</ele>
        <time>2010-01-01T18:17:46Z</time>
      </trkpt>
      <trkpt lat="44.356900" lon="2.078180">
        <ele>288.14</ele>
        <time>2010-01-01T18:18:02Z</time>
      </trkpt>
      <trkpt lat="44.356910" lon="2.078480">
        <ele>288.307495</ele>
        <time>2010-01-01T18:18:39Z</time>
      </trkpt>
      <trkpt lat="44.356980" lon="2.078790">
        <ele>289.947479</ele>
        <time>2010-01-01T18:19:03Z</time>
      </trkpt>
      <trkpt lat="44.357120" lon="2.079170">
        <ele>289.15</ele>
        <time>2010-01-01T18:19:20Z</time>
      </trkpt>
      <trkpt lat="44.357490" lon="2.079820">
        <ele>289.15</ele>
        <time>2010-01-01T18:19:44Z</time>
      </trkpt>
      <trkpt lat="44.358380" lon="2.080680">
        <ele>289.61</ele>
        <time>2010-01-01T18:20:00Z</time>
      </trkpt>
      <trkpt lat="44.359040" lon="2.081590">
        <ele>289.61</ele>
        <time>2010-01-01T18:20:11Z</time>
      </trkpt>
      <trkpt lat="44.359430" lon="2.082030">
        <ele>290.63</ele>
        <time>2010-01-01T18:20:32Z</time>
      </trkpt>
      <trkpt lat="44.359890" lon="2.082700">
        <ele>293.52</ele>
        <time>2010-01-01T18:21:08Z</time>
      </trkpt>
      <trkpt lat="44.360140" lon="2.082870">
        <ele>294.21</ele>
        <time>2010-01-01T18:21:26Z</time>
      </trkpt>
      <trkpt lat="44.360400" lon="2.082960">
        <ele>295.00</ele>
        <time>2010-01-01T18:21:43Z</time>
      </trkpt>
      <trkpt lat="44.360590" lon="2.082870">
        <ele>295.41</ele>
        <time>2010-01-01T18:21:53Z</time>
      </trkpt>
      <trkpt lat="44.360690" lon="2.082740">
        <ele>294.45</ele>
        <time>2010-01-01T18:22:05Z</time>
      </trkpt>
      <trkpt lat="44.361230" lon="2.081960">
        <ele>302.79</ele>
        <time>2010-01-01T18:22:14Z</time>
      </trkpt>
      <trkpt lat="44.361410" lon="2.081830">
        <ele>304.517822</ele>
        <time>2010-01-01T18:22:28Z</time>
      </trkpt>
      <trkpt lat="44.361680" lon="2.081770">
        <ele>305.231445</ele>
        <time>2010-01-01T18:22:43Z</time>
      </trkpt>
      <trkpt lat="44.362030" lon="2.081850">
        <ele>305.65</ele>
        <time>2010-01-01T18:23:18Z</time>
      </trkpt>
      <trkpt lat="44.362230" lon="2.081980">
        <ele>304.23</ele>
        <time>2010-01-01T18:23:31Z</time>
      </trkpt>
      <trkpt lat="44.362390" lon="2.082160">
        <ele>302.18</ele>
        <time>2010-01-01T18:24:11Z</time>
      </trkpt>
      <trkpt lat="44.362560" lon="2.082560">
        <ele>302.18</ele>
        <time>2010-01-01T18:24:32Z</time>
      </trkpt>
      <trkpt lat="44.362790" lon="2.083730">
        <ele>302.18</ele>
        <time>2010-01-01T18:25:14Z</time>
      </trkpt>
      <trkpt lat="44.362880" lon="2.084410">
        <ele>302.18</ele>
        <time>2010-01-01T18:25:38Z</time>
      </trkpt>
      <trkpt lat="44.362800" lon="2.086560">
        <ele>302.18</ele>
        <time>2010-01-01T18:25:45Z</time>
      </trkpt>
      <trkpt lat="44.362820" lon="2.087350">
        <ele>302.18</ele>
        <time>2010-01-01T18:25:58Z</time>
      </trkpt>
      <trkpt lat="44.363030" lon="2.088240">
        <ele>302.18</ele>
        <time>2010-01-01T18:26:13Z</time>
      </trkpt>
      <trkpt lat="44.363490" lon="2.089510">
        <ele>302.18</ele>
        <time>2010-01-01T18:26:26Z</time>
      </trkpt>
      <trkpt lat="44.363760" lon="2.090590">
        <ele>302.18</ele>
        <time>2010-01-01T18:26:41Z</time>
      </trkpt>
      <trkpt lat="44.363800" lon="2.090960">
        <ele>302.527191</ele>
        <time>2010-01-01T18:26:54Z</time>
      </trkpt>
      <trkpt lat="44.363750" lon="2.091390">
        <ele>302.18</ele>
        <time>2010-01-01T18:27:17Z</time>
      </trkpt>
      <trkpt lat="44.363570" lon="2.091920">
        <ele>303.15</ele>
        <time>2010-01-01T18:27:26Z</time>
      </trkpt>
      <trkpt lat="44.363370" lon="2.092800">
        <ele>305.48</ele>
        <time>2010-01-01T18:27:32Z</time>
      </trkpt>
      <trkpt lat="44.363010" lon="2.093700">
        <ele>305.21</ele>
        <time>2010-01-01T18:27:38Z</time>
      </trkpt>
      <trkpt lat="44.362490" lon="2.094580">
        <ele>304.07</ele>
        <time>2010-01-01T18:27:59Z</time>
      </trkpt>
      <trkpt lat="44.362430" lon="2.094800">
        <ele>304.07</ele>
        <time>2010-01-01T18:29:12Z</time>
      </trkpt>
      <trkpt lat="44.362430" lon="2.095120">
        <ele>304.07</ele>
        <time>2010-01-01T18:29:28Z</time>
      </trkpt>
      <trkpt lat="44.362450" lon="2.095270">
        <ele>304.07</ele>
        <time>2010-01-01T18:30:02Z</time>
      </trkpt>
      <trkpt lat="44.362610" lon="2.095700">
        <ele>304.07</ele>
        <time>2010-01-01T18:30:34Z</time>
      </trkpt>
      <trkpt lat="44.363280" lon="2.096560">
        <ele>304.07</ele>
        <time>2010-01-01T18:30:47Z</time>
      </trkpt>
      <trkpt lat="44.364310" lon="2.098960">
        <ele>303.07</ele>
        <time>2010-01-01T18:31:14Z</time>
      </trkpt>
      <trkpt lat="44.364860" lon="2.100840">
        <ele>302.13</ele>
        <time>2010-01-01T18:31:27Z</time>
      </trkpt>
      <trkpt lat="44.364960" lon="2.101390">
        <ele>300.64</ele>
        <time>2010-01-01T18:32:08Z</time>
      </trkpt>
      <trkpt lat="44.364960" lon="2.101660">
        <ele>300.359375</ele>
        <time>2010-01-01T18:32:20Z</time>
      </trkpt>
      <trkpt lat="44.364870" lon="2.102150">
        <ele>302.20</ele>
        <time>2010-01-01T18:32:34Z</time>
      </trkpt>
      <trkpt lat="44.364710" lon="2.102530">
        <ele>304.68</ele>
        <time>2010-01-01T18:32:47Z</time>
      </trkpt>
      <trkpt lat="44.364400" lon="2.102950">
        <ele>304.68</ele>
        <time>2010-01-01T18:32:57Z</time>
      </trkpt>
      <trkpt lat="44.364200" lon="2.103040">
        <ele>304.68</ele>
        <time>2010-01-01T18:33:36Z</time>
      </trkpt>
      <trkpt lat="44.363780" lon="2.103040">
        <ele>304.68</ele>
        <time>2010-01-01T18:33:48Z</time>
      </trkpt>
      <trkpt lat="44.362890" lon="2.102750">
        <ele>304.68</ele>
        <time>2010-01-01T18:34:00Z</time>
      </trkpt>
      <trkpt lat="44.362300" lon="2.102660">
        <ele>305.89</ele>
        <time>2010-01-01T18:34:11Z</time>
      </trkpt>
      <trkpt lat="44.361860" lon="2.102700">
        <ele>306.47</ele>
        <time>2010-01-01T18:34:21Z</time>
      </trkpt>
      <trkpt lat="44.361270" lon="2.102610">
        <ele>306.39</ele>
        <time>2010-01-01T18:34:32Z</time>
      </trkpt>
      <trkpt lat="44.360870" lon="2.102660">
        <ele>306.92</ele>
        <time>2010-01-01T18:34:40Z</time>
      </trkpt>
      <trkpt lat="44.360600" lon="2.102760">
        <ele>306.91</ele>
        <time>2010-01-01T18:34:48Z</time>
      </trkpt>
      <trkpt lat="44.360180" lon="2.103160">
        <ele>307.87</ele>
        <time>2010-01-01T18:35:02Z</time>
      </trkpt>
      <trkpt lat="44.359730" lon="2.104260">
        <ele>308.58</ele>
        <time>2010-01-01T18:35:14Z</time>
      </trkpt>
      <trkpt lat="44.359370" lon="2.104650">
        <ele>309.35</ele>
        <time>2010-01-01T18:35:23Z</time>
      </trkpt>
      <trkpt lat="44.359120" lon="2.105130">
        <ele>309.18</ele>
        <time>2010-01-01T18:35:30Z</time>
      </trkpt>
      <trkpt lat="44.359060" lon="2.105460">
        <ele>309.18</ele>
        <time>2010-01-01T18:35:59Z</time>
      </trkpt>
      <trkpt lat="44.359060" lon="2.105870">
        <ele>309.18</ele>
        <time>2010-01-01T18:36:10Z</time>
      </trkpt>
      <trkpt lat="44.359120" lon="2.106190">
        <ele>309.18</ele>
        <time>2010-01-01T18:36:19Z</time>
      </trkpt>
      <trkpt lat="44.359300" lon="2.106610">
        <ele>309.18</ele>
        <time>2010-01-01T18:36:33Z</time>
      </trkpt>
      <trkpt lat="44.359590" lon="2.106930">
        <ele>310.37</ele>
        <time>2010-01-01T18:37:06Z</time>
      </trkpt>
      <trkpt lat="44.360360" lon="2.107470">
        <ele>311.71</ele>
        <time>2010-01-01T18:37:16Z</time>
      </trkpt>
      <trkpt lat="44.360620" lon="2.107770">
        <ele>312.77</ele>
        <time>2010-01-01T18:37:34Z</time>
      </trkpt>
      <trkpt lat="44.361570" lon="2.108190">
        <ele>313.49</ele>
        <time>2010-01-01T18:37:43Z</time>
      </trkpt>
      <trkpt lat="44.362000" lon="2.108640">
        <ele>314.49</ele>
        <time>2010-01-01T18:37:51Z</time>
      </trkpt>
      <trkpt lat="44.362700" lon="2.109720">
        <ele>314.49</ele>
        <time>2010-01-01T18:38:16Z</time>
      </trkpt>
      <trkpt lat="44.363060" lon="2.110390">
        <ele>314.49</ele>
        <time>2010-01-01T18:38:26Z</time>
      </trkpt>
      <trkpt lat="44.363140" lon="2.110600">
        <ele>314.49</ele>
        <time>2010-01-01T18:38:50Z</time>
      </trkpt>
      <trkpt lat="44.363230" lon="2.111050">
        <ele>314.49</ele>
        <time>2010-01-01T18:39:02Z</time>
      </trkpt>
      <trkpt lat="44.363260" lon="2.111560">
        <ele>314.49</ele>
        <time>2010-01-01T18:39:26Z</time>
      </trkpt>
      <trkpt lat="44.363130" lon="2.111990">
        <ele>314.49</ele>
        <time>2010-01-01T18:39:31Z</time>
      </trkpt>
      <trkpt lat="44.362920" lon="2.112400">
        <ele>314.49</ele>
        <time>2010-01-01T18:39:38Z</time>
      </trkpt>
      <trkpt lat="44.362650" lon="2.112690">
        <ele>314.49</ele>
        <time>2010-01-01T18:39:46Z</time>
      </trkpt>
      <trkpt lat="44.362120" lon="2.113000">
        <ele>314.49</ele>
        <time>2010-01-01T18:39:54Z</time>
      </trkpt>
      <trkpt lat="44.361940" lon="2.113180">
        <ele>312.08</ele>
        <time>2010-01-01T18:39:58Z</time>
      </trkpt>
      <trkpt lat="44.361900" lon="2.113390">
        <ele>312.08</ele>
        <time>2010-01-01T18:40:11Z</time>
      </trkpt>
      <trkpt lat="44.361910" lon="2.113600">
        <ele>312.08</ele>
        <time>2010-01-01T18:40:26Z</time>
      </trkpt>
      <trkpt lat="44.362210" lon="2.114180">
        <ele>313.73</ele>
        <time>2010-01-01T18:41:52Z</time>
      </trkpt>
      <trkpt lat="44.362208" lon="2.114409">
        <ele>314.61</ele>
        <time>2010-01-01T18:41:59Z</time>
      </trkpt>
      <trkpt lat="44.361220" lon="2.116230">
        <ele>320.89</ele>
        <time>2010-01-01T18:42:02Z</time>
      </trkpt>
      <trkpt lat="44.361000" lon="2.116680">
        <ele>321.25</ele>
        <time>2010-01-01T18:42:22Z</time>
      </trkpt>
      <trkpt lat="44.360570" lon="2.117730">
        <ele>324.20</ele>
        <time>2010-01-01T18:42:34Z</time>
      </trkpt>
      <trkpt lat="44.360370" lon="2.118800">
        <ele>332.14</ele>
        <time>2010-01-01T18:43:28Z</time>
      </trkpt>
      <trkpt lat="44.360140" lon="2.119130">
        <ele>338.65</ele>
        <time>2010-01-01T18:43:38Z</time>
      </trkpt>
      <trkpt lat="44.359530" lon="2.119490">
        <ele>340.22</ele>
        <time>2010-01-01T18:43:48Z</time>
      </trkpt>
      <trkpt lat="44.359250" lon="2.119710">
        <ele>341.66</ele>
        <time>2010-01-01T18:44:47Z</time>
      </trkpt>
      <trkpt lat="44.358540" lon="2.120760">
        <ele>342.13</ele>
        <time>2010-01-01T18:45:08Z</time>
      </trkpt>
      <trkpt lat="44.358450" lon="2.121140">
        <ele>343.00</ele>
        <time>2010-01-01T18:46:03Z</time>
      </trkpt>
      <trkpt lat="44.358420" lon="2.121650">
        <ele>345.69</ele>
        <time>2010-01-01T18:46:13Z</time>
      </trkpt>
      <trkpt lat="44.358350" lon="2.122080">
        <ele>347.50</ele>
        <time>2010-01-01T18:46:18Z</time>
      </trkpt>
      <trkpt lat="44.358230" lon="2.122390">
        <ele>350.73</ele>
        <time>2010-01-01T18:46:30Z</time>
      </trkpt>
      <trkpt lat="44.357570" lon="2.123390">
        <ele>355.73</ele>
        <time>2010-01-01T18:46:37Z</time>
      </trkpt>
      <trkpt lat="44.357330" lon="2.123610">
        <ele>360.78</ele>
        <time>2010-01-01T18:46:43Z</time>
      </trkpt>
      <trkpt lat="44.357020" lon="2.123550">
        <ele>365.51</ele>
        <time>2010-01-01T18:47:04Z</time>
      </trkpt>
      <trkpt lat="44.356790" lon="2.123360">
        <ele>367.41</ele>
        <time>2010-01-01T18:47:09Z</time>
      </trkpt>
      <trkpt lat="44.356650" lon="2.123060">
        <ele>368.56</ele>
        <time>2010-01-01T18:47:15Z</time>
      </trkpt>
      <trkpt lat="44.356540" lon="2.122700">
        <ele>372.05</ele>
        <time>2010-01-01T18:47:26Z</time>
      </trkpt>
      <trkpt lat="44.356380" lon="2.122520">
        <ele>374.52</ele>
        <time>2010-01-01T18:47:44Z</time>
      </trkpt>
      <trkpt lat="44.356180" lon="2.122510">
        <ele>375.124695</ele>
        <time>2010-01-01T18:47:51Z</time>
      </trkpt>
      <trkpt lat="44.355860" lon="2.122610">
        <ele>375.227570</ele>
        <time>2010-01-01T18:48:15Z</time>
      </trkpt>
      <trkpt lat="44.355580" lon="2.122790">
        <ele>377.712097</ele>
        <time>2010-01-01T18:48:36Z</time>
      </trkpt>
      <trkpt lat="44.355450" lon="2.123030">
        <ele>382.429138</ele>
        <time>2010-01-01T18:49:33Z</time>
      </trkpt>
      <trkpt lat="44.355390" lon="2.123290">
        <ele>384.624329</ele>
        <time>2010-01-01T18:49:52Z</time>
      </trkpt>
      <trkpt lat="44.355400" lon="2.124300">
        <ele>385.00</ele>
        <time>2010-01-01T18:50:15Z</time>
      </trkpt>
      <trkpt lat="44.355310" lon="2.124640">
        <ele>385.95</ele>
        <time>2010-01-01T18:50:52Z</time>
      </trkpt>
      <trkpt lat="44.355140" lon="2.124880">
        <ele>385.95</ele>
        <time>2010-01-01T18:52:01Z</time>
      </trkpt>
      <trkpt lat="44.354850" lon="2.125120">
        <ele>384.95</ele>
        <time>2010-01-01T18:53:10Z</time>
      </trkpt>
      <trkpt lat="44.354220" lon="2.125860">
        <ele>383.72</ele>
        <time>2010-01-01T18:53:18Z</time>
      </trkpt>
      <trkpt lat="44.353990" lon="2.126000">
        <ele>383.79</ele>
        <time>2010-01-01T18:53:52Z</time>
      </trkpt>
      <trkpt lat="44.353540" lon="2.126110">
        <ele>384.383606</ele>
        <time>2010-01-01T18:54:24Z</time>
      </trkpt>
      <trkpt lat="44.353330" lon="2.126250">
        <ele>386.289520</ele>
        <time>2010-01-01T18:54:39Z</time>
      </trkpt>
      <trkpt lat="44.353210" lon="2.126460">
        <ele>390.08</ele>
        <time>2010-01-01T18:55:43Z</time>
      </trkpt>
      <trkpt lat="44.352930" lon="2.127220">
        <ele>397.865753</ele>
        <time>2010-01-01T18:55:57Z</time>
      </trkpt>
      <trkpt lat="44.352826" lon="2.127273">
        <ele>398.892883</ele>
        <time>2010-01-01T18:56:03Z</time>
      </trkpt>
      <trkpt lat="44.352720" lon="2.127100">
        <ele>399.370178</ele>
        <time>2010-01-01T18:56:34Z</time>
      </trkpt>
      <trkpt lat="44.352520" lon="2.126330">
        <ele>401.35</ele>
        <time>2010-01-01T18:56:47Z</time>
      </trkpt>
      <trkpt lat="44.352570" lon="2.125900">
        <ele>400.18</ele>
        <time>2010-01-01T18:56:55Z</time>
      </trkpt>
      <trkpt lat="44.352840" lon="2.125150">
        <ele>400.18</ele>
        <time>2010-01-01T18:57:46Z</time>
      </trkpt>
      <trkpt lat="44.352870" lon="2.124970">
        <ele>400.18</ele>
        <time>2010-01-01T18:57:59Z</time>
      </trkpt>
      <trkpt lat="44.352830" lon="2.124750">
        <ele>400.18</ele>
        <time>2010-01-01T18:58:27Z</time>
      </trkpt>
      <trkpt lat="44.352670" lon="2.124580">
        <ele>400.18</ele>
        <time>2010-01-01T18:59:12Z</time>
      </trkpt>
      <trkpt lat="44.352470" lon="2.124640">
        <ele>399.20</ele>
        <time>2010-01-01T18:59:22Z</time>
      </trkpt>
      <trkpt lat="44.352380" lon="2.124730">
        <ele>399.75</ele>
        <time>2010-01-01T18:59:47Z</time>
      </trkpt>
      <trkpt lat="44.352220" lon="2.125120">
        <ele>401.97</ele>
        <time>2010-01-01T19:00:39Z</time>
      </trkpt>
      <trkpt lat="44.351970" lon="2.125510">
        <ele>406.08</ele>
        <time>2010-01-01T19:00:49Z</time>
      </trkpt>
      <trkpt lat="44.350230" lon="2.127270">
        <ele>417.09</ele>
        <time>2010-01-01T19:01:09Z</time>
      </trkpt>
      <trkpt lat="44.350060" lon="2.127320">
        <ele>418.826813</ele>
        <time>2010-01-01T19:01:15Z</time>
      </trkpt>
      <trkpt lat="44.349990" lon="2.127280">
        <ele>419.382629</ele>
        <time>2010-01-01T19:01:59Z</time>
      </trkpt>
      <trkpt lat="44.349610" lon="2.126830">
        <ele>420.710297</ele>
        <time>2010-01-01T19:02:09Z</time>
      </trkpt>
      <trkpt lat="44.349340" lon="2.126710">
        <ele>421.937317</ele>
        <time>2010-01-01T19:02:31Z</time>
      </trkpt>
      <trkpt lat="44.348080" lon="2.127460">
        <ele>422.351563</ele>
        <time>2010-01-01T19:02:40Z</time>
      </trkpt>
      <trkpt lat="44.347890" lon="2.127670">
        <ele>423.845001</ele>
        <time>2010-01-01T19:02:45Z</time>
      </trkpt>
      <trkpt lat="44.347740" lon="2.127940">
        <ele>425.64</ele>
        <time>2010-01-01T19:02:55Z</time>
      </trkpt>
      <trkpt lat="44.347010" lon="2.129740">
        <ele>429.715057</ele>
        <time>2010-01-01T19:03:56Z</time>
      </trkpt>
      <trkpt lat="44.346640" lon="2.130270">
        <ele>432.418427</ele>
        <time>2010-01-01T19:05:01Z</time>
      </trkpt>
      <trkpt lat="44.345610" lon="2.131500">
        <ele>435.74</ele>
        <time>2010-01-01T19:06:21Z</time>
      </trkpt>
      <trkpt lat="44.345360" lon="2.131590">
        <ele>436.985901</ele>
        <time>2010-01-01T19:06:34Z</time>
      </trkpt>
      <trkpt lat="44.345230" lon="2.131540">
        <ele>436.049744</ele>
        <time>2010-01-01T19:07:23Z</time>
      </trkpt>
      <trkpt lat="44.345040" lon="2.131250">
        <ele>437.000000</ele>
        <time>2010-01-01T19:07:35Z</time>
      </trkpt>
      <trkpt lat="44.345020" lon="2.130980">
        <ele>438.067169</ele>
        <time>2010-01-01T19:09:30Z</time>
      </trkpt>
      <trkpt lat="44.345050" lon="2.130800">
        <ele>438.800354</ele>
        <time>2010-01-01T19:09:53Z</time>
      </trkpt>
      <trkpt lat="44.345310" lon="2.130150">
        <ele>438.88</ele>
        <time>2010-01-01T19:10:45Z</time>
      </trkpt>
      <trkpt lat="44.345330" lon="2.129990">
        <ele>438.919983</ele>
        <time>2010-01-01T19:11:00Z</time>
      </trkpt>
      <trkpt lat="44.345280" lon="2.129760">
        <ele>442.008514</ele>
        <time>2010-01-01T19:13:46Z</time>
      </trkpt>
      <trkpt lat="44.345060" lon="2.129560">
        <ele>442.750641</ele>
        <time>2010-01-01T19:14:23Z</time>
      </trkpt>
      <trkpt lat="44.344620" lon="2.129360">
        <ele>442.860260</ele>
        <time>2010-01-01T19:15:51Z</time>
      </trkpt>
      <trkpt lat="44.344470" lon="2.129370">
        <ele>442.849243</ele>
        <time>2010-01-01T19:15:57Z</time>
      </trkpt>
      <trkpt lat="44.343920" lon="2.129740">
        <ele>447.926605</ele>
        <time>2010-01-01T19:16:12Z</time>
      </trkpt>
      <trkpt lat="44.343510" lon="2.130180">
        <ele>451.406738</ele>
        <time>2010-01-01T19:17:49Z</time>
      </trkpt>
      <trkpt lat="44.342610" lon="2.131740">
        <ele>457.580322</ele>
        <time>2010-01-01T19:17:55Z</time>
      </trkpt>
      <trkpt lat="44.342360" lon="2.132320">
        <ele>459.613678</ele>
        <time>2010-01-01T19:18:11Z</time>
      </trkpt>
      <trkpt lat="44.342226" lon="2.132894">
        <ele>462.159393</ele>
        <time>2010-01-01T19:19:01Z</time>
      </trkpt>
      <trkpt lat="44.342140" lon="2.132990">
        <ele>462.222046</ele>
        <time>2010-01-01T19:19:13Z</time>
      </trkpt>
      <trkpt lat="44.342160" lon="2.134280">
        <ele>465.164368</ele>
        <time>2010-01-01T19:19:38Z</time>
      </trkpt>
      <trkpt lat="44.341840" lon="2.136660">
        <ele>478.345001</ele>
        <time>2010-01-01T19:19:47Z</time>
      </trkpt>
      <trkpt lat="44.341740" lon="2.139070">
        <ele>494.095490</ele>
        <time>2010-01-01T19:20:21Z</time>
      </trkpt>
      <trkpt lat="44.341760" lon="2.139330">
        <ele>495.424988</ele>
        <time>2010-01-01T19:20:42Z</time>
      </trkpt>
      <trkpt lat="44.342070" lon="2.140440">
        <ele>504.31</ele>
        <time>2010-01-01T19:20:49Z</time>
      </trkpt>
      <trkpt lat="44.342140" lon="2.141560">
        <ele>513.471863</ele>
        <time>2010-01-01T19:21:00Z</time>
      </trkpt>
      <trkpt lat="44.342260" lon="2.142040">
        <ele>517.655579</ele>
        <time>2010-01-01T19:21:27Z</time>
      </trkpt>
      <trkpt lat="44.343120" lon="2.143920">
        <ele>530.602539</ele>
        <time>2010-01-01T19:21:38Z</time>
      </trkpt>
      <trkpt lat="44.343370" lon="2.144290">
        <ele>533.067383</ele>
        <time>2010-01-01T19:21:53Z</time>
      </trkpt>
      <trkpt lat="44.343490" lon="2.144390">
        <ele>533.368774</ele>
        <time>2010-01-01T19:22:04Z</time>
      </trkpt>
      <trkpt lat="44.344250" lon="2.144660">
        <ele>537.870239</ele>
        <time>2010-01-01T19:22:14Z</time>
      </trkpt>
      <trkpt lat="44.344480" lon="2.144990">
        <ele>539.806641</ele>
        <time>2010-01-01T19:22:22Z</time>
      </trkpt>
      <trkpt lat="44.344550" lon="2.145250">
        <ele>540.719543</ele>
        <time>2010-01-01T19:23:02Z</time>
      </trkpt>
      <trkpt lat="44.344770" lon="2.146980">
        <ele>543.160461</ele>
        <time>2010-01-01T19:23:41Z</time>
      </trkpt>
      <trkpt lat="44.344740" lon="2.147460">
        <ele>544.103149</ele>
        <time>2010-01-01T19:23:49Z</time>
      </trkpt>
      <trkpt lat="44.344610" lon="2.148400">
        <ele>547.017029</ele>
        <time>2010-01-01T19:25:50Z</time>
      </trkpt>
      <trkpt lat="44.344170" lon="2.149870">
        <ele>549.810852</ele>
        <time>2010-01-01T19:26:04Z</time>
      </trkpt>
      <trkpt lat="44.344000" lon="2.150130">
        <ele>551.92</ele>
        <time>2010-01-01T19:26:24Z</time>
      </trkpt>
      <trkpt lat="44.343510" lon="2.150640">
        <ele>552.56</ele>
        <time>2010-01-01T19:26:35Z</time>
      </trkpt>
      <trkpt lat="44.342330" lon="2.151370">
        <ele>556.26</ele>
        <time>2010-01-01T19:26:57Z</time>
      </trkpt>
      <trkpt lat="44.342070" lon="2.151470">
        <ele>557.517395</ele>
        <time>2010-01-01T19:27:09Z</time>
      </trkpt>
      <trkpt lat="44.341590" lon="2.151560">
        <ele>559.445435</ele>
        <time>2010-01-01T19:27:16Z</time>
      </trkpt>
      <trkpt lat="44.341450" lon="2.151680">
        <ele>559.259338</ele>
        <time>2010-01-01T19:27:37Z</time>
      </trkpt>
      <trkpt lat="44.340630" lon="2.152710">
        <ele>558.427673</ele>
        <time>2010-01-01T19:27:49Z</time>
      </trkpt>
      <trkpt lat="44.340440" lon="2.152890">
        <ele>557.666565</ele>
        <time>2010-01-01T19:28:20Z</time>
      </trkpt>
      <trkpt lat="44.339880" lon="2.152970">
        <ele>557.381226</ele>
        <time>2010-01-01T19:28:42Z</time>
      </trkpt>
      <trkpt lat="44.339680" lon="2.153120">
        <ele>557.640015</ele>
        <time>2010-01-01T19:29:02Z</time>
      </trkpt>
      <trkpt lat="44.339620" lon="2.153270">
        <ele>557.432495</ele>
        <time>2010-01-01T19:30:22Z</time>
      </trkpt>
      <trkpt lat="44.339570" lon="2.153610">
        <ele>556.57</ele>
        <time>2010-01-01T19:30:42Z</time>
      </trkpt>
      <trkpt lat="44.339430" lon="2.155730">
        <ele>555.97</ele>
        <time>2010-01-01T19:31:00Z</time>
      </trkpt>
      <trkpt lat="44.338780" lon="2.157790">
        <ele>555.97</ele>
        <time>2010-01-01T19:31:21Z</time>
      </trkpt>
      <trkpt lat="44.338480" lon="2.160570">
        <ele>556.159851</ele>
        <time>2010-01-01T19:31:34Z</time>
      </trkpt>
      <trkpt lat="44.338350" lon="2.160980">
        <ele>557.812012</ele>
        <time>2010-01-01T19:31:43Z</time>
      </trkpt>
      <trkpt lat="44.337650" lon="2.162370">
        <ele>563.881714</ele>
        <time>2010-01-01T19:31:57Z</time>
      </trkpt>
      <trkpt lat="44.337510" lon="2.162770">
        <ele>566.324585</ele>
        <time>2010-01-01T19:32:43Z</time>
      </trkpt>
      <trkpt lat="44.337070" lon="2.166730">
        <ele>582.261230</ele>
        <time>2010-01-01T19:32:56Z</time>
      </trkpt>
      <trkpt lat="44.336950" lon="2.167530">
        <ele>584.918152</ele>
        <time>2010-01-01T19:33:11Z</time>
      </trkpt>
      <trkpt lat="44.336450" lon="2.169190">
        <ele>590.233765</ele>
        <time>2010-01-01T19:33:29Z</time>
      </trkpt>
      <trkpt lat="44.336260" lon="2.169640">
        <ele>591.189026</ele>
        <time>2010-01-01T19:37:48Z</time>
      </trkpt>
      <trkpt lat="44.333580" lon="2.174080">
        <ele>610.080017</ele>
        <time>2010-01-01T19:40:00Z</time>
      </trkpt>
      <trkpt lat="44.332990" lon="2.175060">
        <ele>611.795044</ele>
        <time>2010-01-01T19:43:46Z</time>
      </trkpt>
      <trkpt lat="44.331760" lon="2.177620">
        <ele>614.830566</ele>
        <time>2010-01-01T19:44:11Z</time>
      </trkpt>
      <trkpt lat="44.331700" lon="2.177810">
        <ele>615.875977</ele>
        <time>2010-01-01T19:45:50Z</time>
      </trkpt>
      <trkpt lat="44.331620" lon="2.178300">
        <ele>618.733337</ele>
        <time>2010-01-01T19:46:21Z</time>
      </trkpt>
      <trkpt lat="44.331380" lon="2.181670">
        <ele>632.234985</ele>
        <time>2010-01-01T19:48:52Z</time>
      </trkpt>
      <trkpt lat="44.331340" lon="2.181880">
        <ele>633.387512</ele>
        <time>2010-01-01T19:49:27Z</time>
      </trkpt>
      <trkpt lat="44.331150" lon="2.182370">
        <ele>636.934998</ele>
        <time>2010-01-01T19:50:34Z</time>
      </trkpt>
      <trkpt lat="44.330490" lon="2.183850">
        <ele>647.220093</ele>
        <time>2010-01-01T19:50:46Z</time>
      </trkpt>
      <trkpt lat="44.330400" lon="2.184270">
        <ele>649.094177</ele>
        <time>2010-01-01T19:50:57Z</time>
      </trkpt>
      <trkpt lat="44.330340" lon="2.185120">
        <ele>651.790527</ele>
        <time>2010-01-01T19:51:20Z</time>
      </trkpt>
      <trkpt lat="44.330270" lon="2.185430">
        <ele>652.650879</ele>
        <time>2010-01-01T19:51:36Z</time>
      </trkpt>
      <trkpt lat="44.329640" lon="2.186240">
        <ele>662.591858</ele>
        <time>2010-01-01T19:51:49Z</time>
      </trkpt>
      <trkpt lat="44.329180" lon="2.186580">
        <ele>668.71</ele>
        <time>2010-01-01T19:53:01Z</time>
      </trkpt>
      <trkpt lat="44.329050" lon="2.186750">
        <ele>670.863892</ele>
        <time>2010-01-01T19:53:38Z</time>
      </trkpt>
      <trkpt lat="44.328910" lon="2.187090">
        <ele>673.929199</ele>
        <time>2010-01-01T19:54:04Z</time>
      </trkpt>
      <trkpt lat="44.328720" lon="2.187990">
        <ele>678.815002</ele>
        <time>2010-01-01T19:54:48Z</time>
      </trkpt>
      <trkpt lat="44.328560" lon="2.188300">
        <ele>681.643799</ele>
        <time>2010-01-01T19:55:39Z</time>
      </trkpt>
      <trkpt lat="44.328300" lon="2.188650">
        <ele>685.543640</ele>
        <time>2010-01-01T19:56:09Z</time>
      </trkpt>
      <trkpt lat="44.328160" lon="2.189010">
        <ele>687.862488</ele>
        <time>2010-01-01T19:57:19Z</time>
      </trkpt>
      <trkpt lat="44.328090" lon="2.189330">
        <ele>689.505005</ele>
        <time>2010-01-01T19:57:38Z</time>
      </trkpt>
      <trkpt lat="44.328110" lon="2.189600">
        <ele>690.431641</ele>
        <time>2010-01-01T19:59:30Z</time>
      </trkpt>
      <trkpt lat="44.328400" lon="2.190940">
        <ele>691.03</ele>
        <time>2010-01-01T20:01:43Z</time>
      </trkpt>
      <trkpt lat="44.328430" lon="2.192290">
        <ele>691.03</ele>
        <time>2010-01-01T20:01:56Z</time>
      </trkpt>
      <trkpt lat="44.328390" lon="2.192580">
        <ele>691.03</ele>
        <time>2010-01-01T20:02:15Z</time>
      </trkpt>
      <trkpt lat="44.330660" lon="2.195370">
        <ele>693.09</ele>
        <time>2010-01-01T20:03:32Z</time>
      </trkpt>
      <trkpt lat="44.330900" lon="2.195740">
        <ele>693.20</ele>
        <time>2010-01-01T20:03:47Z</time>
      </trkpt>
      <trkpt lat="44.331130" lon="2.196340">
        <ele>690.72</ele>
        <time>2010-01-01T20:04:51Z</time>
      </trkpt>
      <trkpt lat="44.331230" lon="2.196720">
        <ele>688.815125</ele>
        <time>2010-01-01T20:05:33Z</time>
      </trkpt>
      <trkpt lat="44.331280" lon="2.197460">
        <ele>685.813599</ele>
        <time>2010-01-01T20:05:49Z</time>
      </trkpt>
      <trkpt lat="44.331240" lon="2.197890">
        <ele>683.968140</ele>
        <time>2010-01-01T20:06:31Z</time>
      </trkpt>
      <trkpt lat="44.331180" lon="2.198100">
        <ele>682.971680</ele>
        <time>2010-01-01T20:07:30Z</time>
      </trkpt>
      <trkpt lat="44.330930" lon="2.198770">
        <ele>682.831970</ele>
        <time>2010-01-01T20:08:24Z</time>
      </trkpt>
      <trkpt lat="44.330740" lon="2.199080">
        <ele>682.31</ele>
        <time>2010-01-01T20:08:59Z</time>
      </trkpt>
      <trkpt lat="44.330190" lon="2.199830">
        <ele>683.602539</ele>
        <time>2010-01-01T20:10:17Z</time>
      </trkpt>
      <trkpt lat="44.329750" lon="2.200290">
        <ele>687.289673</ele>
        <time>2010-01-01T20:10:27Z</time>
      </trkpt>
      <trkpt lat="44.329310" lon="2.200630">
        <ele>692.061584</ele>
        <time>2010-01-01T20:10:36Z</time>
      </trkpt>
      <trkpt lat="44.327420" lon="2.201600">
        <ele>706.93</ele>
        <time>2010-01-01T20:12:17Z</time>
      </trkpt>
      <trkpt lat="44.327000" lon="2.201950">
        <ele>709.413757</ele>
        <time>2010-01-01T20:12:34Z</time>
      </trkpt>
      <trkpt lat="44.326700" lon="2.202410">
        <ele>713.739990</ele>
        <time>2010-01-01T20:13:11Z</time>
      </trkpt>
      <trkpt lat="44.326420" lon="2.203020">
        <ele>716.912476</ele>
        <time>2010-01-01T20:13:28Z</time>
      </trkpt>
      <trkpt lat="44.326320" lon="2.203480">
        <ele>717.916809</ele>
        <time>2010-01-01T20:13:38Z</time>
      </trkpt>
      <trkpt lat="44.326300" lon="2.203770">
        <ele>718.394470</ele>
        <time>2010-01-01T20:14:46Z</time>
      </trkpt>
      <trkpt lat="44.326330" lon="2.204280">
        <ele>718.518433</ele>
        <time>2010-01-01T20:17:20Z</time>
      </trkpt>
      <trkpt lat="44.326550" lon="2.205860">
        <ele>718.11</ele>
        <time>2010-01-01T20:17:32Z</time>
      </trkpt>
      <trkpt lat="44.326580" lon="2.206280">
        <ele>718.11</ele>
        <time>2010-01-01T20:17:44Z</time>
      </trkpt>
      <trkpt lat="44.326540" lon="2.206810">
        <ele>719.09</ele>
        <time>2010-01-01T20:17:56Z</time>
      </trkpt>
      <trkpt lat="44.326400" lon="2.207420">
        <ele>720.45</ele>
        <time>2010-01-01T20:18:23Z</time>
      </trkpt>
      <trkpt lat="44.325478" lon="2.210046">
        <ele>720.45</ele>
        <time>2010-01-01T20:19:55Z</time>
      </trkpt>
      <trkpt lat="44.325240" lon="2.210541">
        <ele>719.63</ele>
        <time>2010-01-01T20:20:13Z</time>
      </trkpt>
      <trkpt lat="44.324876" lon="2.211036">
        <ele>717.25</ele>
        <time>2010-01-01T20:20:18Z</time>
      </trkpt>
      <trkpt lat="44.324363" lon="2.211531">
        <ele>717.60</ele>
        <time>2010-01-01T20:20:57Z</time>
      </trkpt>
      <trkpt lat="44.322919" lon="2.212794">
        <ele>719.734985</ele>
        <time>2010-01-01T20:21:06Z</time>
      </trkpt>
      <trkpt lat="44.322523" lon="2.213303">
        <ele>720.52</ele>
        <time>2010-01-01T20:21:21Z</time>
      </trkpt>
      <trkpt lat="44.322170" lon="2.213910">
        <ele>720.52</ele>
        <time>2010-01-01T20:21:28Z</time>
      </trkpt>
      <trkpt lat="44.321778" lon="2.214703">
        <ele>720.52</ele>
        <time>2010-01-01T20:22:22Z</time>
      </trkpt>
      <trkpt lat="44.321517" lon="2.215686">
        <ele>721.68</ele>
        <time>2010-01-01T20:22:29Z</time>
      </trkpt>
      <trkpt lat="44.320920" lon="2.218150">
        <ele>717.777527</ele>
        <time>2010-01-01T20:22:51Z</time>
      </trkpt>
      <trkpt lat="44.320070" lon="2.219790">
        <ele>713.22</ele>
        <time>2010-01-01T20:23:00Z</time>
      </trkpt>
      <trkpt lat="44.318074" lon="2.223698">
        <ele>727.33</ele>
        <time>2010-01-01T20:23:41Z</time>
      </trkpt>
      <trkpt lat="44.317650" lon="2.224590">
        <ele>732.802673</ele>
        <time>2010-01-01T20:23:59Z</time>
      </trkpt>
      <trkpt lat="44.317200" lon="2.225230">
        <ele>740.18</ele>
        <time>2010-01-01T20:24:52Z</time>
      </trkpt>
      <trkpt lat="44.316809" lon="2.225567">
        <ele>745.535767</ele>
        <time>2010-01-01T20:25:43Z</time>
      </trkpt>
      <trkpt lat="44.315060" lon="2.226930">
        <ele>746.461853</ele>
        <time>2010-01-01T20:26:28Z</time>
      </trkpt>
      <trkpt lat="44.314400" lon="2.227490">
        <ele>749.635010</ele>
        <time>2010-01-01T20:28:56Z</time>
      </trkpt>
      <trkpt lat="44.313760" lon="2.228101">
        <ele>752.48</ele>
        <time>2010-01-01T20:29:24Z</time>
      </trkpt>
      <trkpt lat="44.313092" lon="2.228811">
        <ele>751.91</ele>
        <time>2010-01-01T20:30:11Z</time>
      </trkpt>
      <trkpt lat="44.312513" lon="2.229462">
        <ele>751.91</ele>
        <time>2010-01-01T20:30:42Z</time>
      </trkpt>
      <trkpt lat="44.312360" lon="2.229795">
        <ele>750.984985</ele>
        <time>2010-01-01T20:30:46Z</time>
      </trkpt>
      <trkpt lat="44.312279" lon="2.230224">
        <ele>750.735413</ele>
        <time>2010-01-01T20:31:07Z</time>
      </trkpt>
      <trkpt lat="44.312284" lon="2.230654">
        <ele>750.106384</ele>
        <time>2010-01-01T20:31:34Z</time>
      </trkpt>
      <trkpt lat="44.312490" lon="2.231330">
        <ele>751.453308</ele>
        <time>2010-01-01T20:32:25Z</time>
      </trkpt>
      <trkpt lat="44.313000" lon="2.232330">
        <ele>746.71</ele>
        <time>2010-01-01T20:34:06Z</time>
      </trkpt>
      <trkpt lat="44.313101" lon="2.232608">
        <ele>746.71</ele>
        <time>2010-01-01T20:34:51Z</time>
      </trkpt>
      <trkpt lat="44.313133" lon="2.232901">
        <ele>746.71</ele>
        <time>2010-01-01T20:35:27Z</time>
      </trkpt>
      <trkpt lat="44.312960" lon="2.234630">
        <ele>748.40</ele>
        <time>2010-01-01T20:36:10Z</time>
      </trkpt>
      <trkpt lat="44.312830" lon="2.235000">
        <ele>749.198364</ele>
        <time>2010-01-01T20:36:21Z</time>
      </trkpt>
      <trkpt lat="44.312630" lon="2.235250">
        <ele>749.553101</ele>
        <time>2010-01-01T20:36:32Z</time>
      </trkpt>
      <trkpt lat="44.312120" lon="2.235630">
        <ele>748.651001</ele>
        <time>2010-01-01T20:37:34Z</time>
      </trkpt>
      <trkpt lat="44.311810" lon="2.235980">
        <ele>747.897705</ele>
        <time>2010-01-01T20:37:51Z</time>
      </trkpt>
      <trkpt lat="44.311590" lon="2.236330">
        <ele>746.717651</ele>
        <time>2010-01-01T20:38:50Z</time>
      </trkpt>
      <trkpt lat="44.311319" lon="2.236849">
        <ele>744.051697</ele>
        <time>2010-01-01T20:38:59Z</time>
      </trkpt>
      <trkpt lat="44.311157" lon="2.237396">
        <ele>740.578918</ele>
        <time>2010-01-01T20:39:08Z</time>
      </trkpt>
      <trkpt lat="44.311144" lon="2.237800">
        <ele>739.719421</ele>
        <time>2010-01-01T20:39:51Z</time>
      </trkpt>
      <trkpt lat="44.311226" lon="2.238223">
        <ele>739.787598</ele>
        <time>2010-01-01T20:40:20Z</time>
      </trkpt>
      <trkpt lat="44.311320" lon="2.238650">
        <ele>739.59</ele>
        <time>2010-01-01T20:40:31Z</time>
      </trkpt>
      <trkpt lat="44.311307" lon="2.239070">
        <ele>737.043091</ele>
        <time>2010-01-01T20:40:44Z</time>
      </trkpt>
      <trkpt lat="44.311253" lon="2.239402">
        <ele>734.595886</ele>
        <time>2010-01-01T20:40:57Z</time>
      </trkpt>
      <trkpt lat="44.311150" lon="2.239643">
        <ele>732.522034</ele>
        <time>2010-01-01T20:41:28Z</time>
      </trkpt>
      <trkpt lat="44.311186" lon="2.239760">
        <ele>732.127441</ele>
        <time>2010-01-01T20:41:58Z</time>
      </trkpt>
      <trkpt lat="44.311340" lon="2.239820">
        <ele>732.42</ele>
        <time>2010-01-01T20:42:04Z</time>
      </trkpt>
      <trkpt lat="44.311691" lon="2.239884">
        <ele>732.42</ele>
        <time>2010-01-01T20:42:09Z</time>
      </trkpt>
      <trkpt lat="44.311970" lon="2.239980">
        <ele>732.385620</ele>
        <time>2010-01-01T20:42:14Z</time>
      </trkpt>
      <trkpt lat="44.313000" lon="2.240530">
        <ele>730.861267</ele>
        <time>2010-01-01T20:43:04Z</time>
      </trkpt>
      <trkpt lat="44.314170" lon="2.241180">
        <ele>727.422485</ele>
        <time>2010-01-01T20:43:13Z</time>
      </trkpt>
      <trkpt lat="44.314810" lon="2.241750">
        <ele>723.924377</ele>
        <time>2010-01-01T20:43:45Z</time>
      </trkpt>
      <trkpt lat="44.316360" lon="2.242880">
        <ele>721.169983</ele>
        <time>2010-01-01T20:43:55Z</time>
      </trkpt>
      <trkpt lat="44.316740" lon="2.243300">
        <ele>719.929993</ele>
        <time>2010-01-01T20:44:03Z</time>
      </trkpt>
      <trkpt lat="44.318830" lon="2.245910">
        <ele>712.979980</ele>
        <time>2010-01-01T20:44:10Z</time>
      </trkpt>
      <trkpt lat="44.321580" lon="2.248510">
        <ele>703.800842</ele>
        <time>2010-01-01T20:44:16Z</time>
      </trkpt>
      <trkpt lat="44.321870" lon="2.248700">
        <ele>703.312622</ele>
        <time>2010-01-01T20:44:34Z</time>
      </trkpt>
      <trkpt lat="44.322310" lon="2.248890">
        <ele>703.567505</ele>
        <time>2010-01-01T20:44:55Z</time>
      </trkpt>
      <trkpt lat="44.324180" lon="2.249520">
        <ele>700.270020</ele>
        <time>2010-01-01T20:45:22Z</time>
      </trkpt>
      <trkpt lat="44.324560" lon="2.249550">
        <ele>700.63</ele>
        <time>2010-01-01T20:45:46Z</time>
      </trkpt>
      <trkpt lat="44.326140" lon="2.249240">
        <ele>700.63</ele>
        <time>2010-01-01T20:45:57Z</time>
      </trkpt>
      <trkpt lat="44.327150" lon="2.248820">
        <ele>697.832520</ele>
        <time>2010-01-01T20:46:15Z</time>
      </trkpt>
      <trkpt lat="44.327550" lon="2.248840">
        <ele>694.42</ele>
        <time>2010-01-01T20:46:43Z</time>
      </trkpt>
      <trkpt lat="44.328600" lon="2.249040">
        <ele>688.61</ele>
        <time>2010-01-01T20:46:54Z</time>
      </trkpt>
      <trkpt lat="44.330030" lon="2.248630">
        <ele>684.82</ele>
        <time>2010-01-01T20:47:01Z</time>
      </trkpt>
      <trkpt lat="44.331380" lon="2.248650">
        <ele>682.57</ele>
        <time>2010-01-01T20:47:15Z</time>
      </trkpt>
      <trkpt lat="44.332210" lon="2.248270">
        <ele>683.601807</ele>
        <time>2010-01-01T20:47:18Z</time>
      </trkpt>
      <trkpt lat="44.334000" lon="2.247190">
        <ele>682.131836</ele>
        <time>2010-01-01T20:47:21Z</time>
      </trkpt>
      <trkpt lat="44.334250" lon="2.247090">
        <ele>682.000000</ele>
        <time>2010-01-01T20:47:25Z</time>
      </trkpt>
      <trkpt lat="44.334460" lon="2.247030">
        <ele>682.000000</ele>
        <time>2010-01-01T20:47:35Z</time>
      </trkpt>
      <trkpt lat="44.336970" lon="2.246750">
        <ele>681.78</ele>
        <time>2010-01-01T20:47:49Z</time>
      </trkpt>
      <trkpt lat="44.337400" lon="2.246840">
        <ele>681.78</ele>
        <time>2010-01-01T20:47:55Z</time>
      </trkpt>
      <trkpt lat="44.338230" lon="2.247390">
        <ele>682.000000</ele>
        <time>2010-01-01T20:48:27Z</time>
      </trkpt>
      <trkpt lat="44.338540" lon="2.247830">
        <ele>682.000000</ele>
        <time>2010-01-01T20:48:49Z</time>
      </trkpt>
      <trkpt lat="44.338650" lon="2.248130">
        <ele>682.00</ele>
        <time>2010-01-01T20:49:25Z</time>
      </trkpt>
      <trkpt lat="44.339220" lon="2.250370">
        <ele>684.72</ele>
        <time>2010-01-01T20:49:40Z</time>
      </trkpt>
      <trkpt lat="44.339481" lon="2.251269">
        <ele>683.92</ele>
        <time>2010-01-01T20:49:49Z</time>
      </trkpt>
      <trkpt lat="44.339706" lon="2.251712">
        <ele>683.753601</ele>
        <time>2010-01-01T20:49:59Z</time>
      </trkpt>
      <trkpt lat="44.341500" lon="2.254650">
        <ele>690.641968</ele>
        <time>2010-01-01T20:51:06Z</time>
      </trkpt>
      <trkpt lat="44.341760" lon="2.254890">
        <ele>692.349182</ele>
        <time>2010-01-01T20:53:39Z</time>
      </trkpt>
      <trkpt lat="44.342040" lon="2.255040">
        <ele>693.974976</ele>
        <time>2010-01-01T20:54:19Z</time>
      </trkpt>
      <trkpt lat="44.342340" lon="2.255060">
        <ele>694.772522</ele>
        <time>2010-01-01T20:54:45Z</time>
      </trkpt>
      <trkpt lat="44.343010" lon="2.254950">
        <ele>695.109192</ele>
        <time>2010-01-01T20:55:21Z</time>
      </trkpt>
      <trkpt lat="44.345270" lon="2.254530">
        <ele>694.272400</ele>
        <time>2010-01-01T20:56:10Z</time>
      </trkpt>
      <trkpt lat="44.345602" lon="2.254370">
        <ele>694.867432</ele>
        <time>2010-01-01T20:57:03Z</time>
      </trkpt>
      <trkpt lat="44.345690" lon="2.254430">
        <ele>694.553711</ele>
        <time>2010-01-01T20:57:17Z</time>
      </trkpt>
      <trkpt lat="44.345820" lon="2.254430">
        <ele>694.291321</ele>
        <time>2010-01-01T20:57:26Z</time>
      </trkpt>
      <trkpt lat="44.346800" lon="2.254340">
        <ele>694.927002</ele>
        <time>2010-01-01T20:57:34Z</time>
      </trkpt>
      <trkpt lat="44.347000" lon="2.254390">
        <ele>694.669006</ele>
        <time>2010-01-01T20:58:07Z</time>
      </trkpt>
      <trkpt lat="44.347350" lon="2.254640">
        <ele>692.47</ele>
        <time>2010-01-01T20:59:59Z</time>
      </trkpt>
      <trkpt lat="44.347520" lon="2.254670">
        <ele>691.844971</ele>
        <time>2010-01-01T21:00:09Z</time>
      </trkpt>
      <trkpt lat="44.348810" lon="2.254160">
        <ele>690.053772</ele>
        <time>2010-01-01T21:00:12Z</time>
      </trkpt>
      <trkpt lat="44.348980" lon="2.254240">
        <ele>688.775024</ele>
        <time>2010-01-01T21:00:24Z</time>
      </trkpt>
      <trkpt lat="44.349330" lon="2.254840">
        <ele>684.692017</ele>
        <time>2010-01-01T21:00:52Z</time>
      </trkpt>
      <trkpt lat="44.349340" lon="2.255140">
        <ele>682.692505</ele>
        <time>2010-01-01T21:01:39Z</time>
      </trkpt>
      <trkpt lat="44.349010" lon="2.256510">
        <ele>673.686584</ele>
        <time>2010-01-01T21:02:11Z</time>
      </trkpt>
      <trkpt lat="44.348950" lon="2.257140">
        <ele>668.585022</ele>
        <time>2010-01-01T21:02:13Z</time>
      </trkpt>
      <trkpt lat="44.348870" lon="2.258960">
        <ele>662.552490</ele>
        <time>2010-01-01T21:02:25Z</time>
      </trkpt>
      <trkpt lat="44.348610" lon="2.260730">
        <ele>661.825500</ele>
        <time>2010-01-01T21:02:38Z</time>
      </trkpt>
      <trkpt lat="44.348640" lon="2.262300">
        <ele>658.318604</ele>
        <time>2010-01-01T21:03:11Z</time>
      </trkpt>
      <trkpt lat="44.349470" lon="2.267340">
        <ele>657.473633</ele>
        <time>2010-01-01T21:03:30Z</time>
      </trkpt>
      <trkpt lat="44.349790" lon="2.268200">
        <ele>656.65</ele>
        <time>2010-01-01T21:03:42Z</time>
      </trkpt>
      <trkpt lat="44.350430" lon="2.269560">
        <ele>659.68</ele>
        <time>2010-01-01T21:03:46Z</time>
      </trkpt>
      <trkpt lat="44.350740" lon="2.270560">
        <ele>657.23</ele>
        <time>2010-01-01T21:03:50Z</time>
      </trkpt>
      <trkpt lat="44.350810" lon="2.270680">
        <ele>656.359985</ele>
        <time>2010-01-01T21:04:09Z</time>
      </trkpt>
      <trkpt lat="44.351230" lon="2.271120">
        <ele>651.146545</ele>
        <time>2010-01-01T21:04:42Z</time>
      </trkpt>
      <trkpt lat="44.351870" lon="2.271400">
        <ele>647.412476</ele>
        <time>2010-01-01T21:04:49Z</time>
      </trkpt>
      <trkpt lat="44.353150" lon="2.271520">
        <ele>644.255005</ele>
        <time>2010-01-01T21:05:00Z</time>
      </trkpt>
      <trkpt lat="44.355630" lon="2.271960">
        <ele>638.309998</ele>
        <time>2010-01-01T21:05:47Z</time>
      </trkpt>
      <trkpt lat="44.356770" lon="2.271920">
        <ele>633.172974</ele>
        <time>2010-01-01T21:05:56Z</time>
      </trkpt>
      <trkpt lat="44.357630" lon="2.272270">
        <ele>631.182495</ele>
        <time>2010-01-01T21:06:03Z</time>
      </trkpt>
      <trkpt lat="44.358680" lon="2.272530">
        <ele>627.026672</ele>
        <time>2010-01-01T21:06:31Z</time>
      </trkpt>
      <trkpt lat="44.358960" lon="2.272650">
        <ele>625.876221</ele>
        <time>2010-01-01T21:06:38Z</time>
      </trkpt>
      <trkpt lat="44.359160" lon="2.272880">
        <ele>625.35</ele>
        <time>2010-01-01T21:07:16Z</time>
      </trkpt>
      <trkpt lat="44.360250" lon="2.274450">
        <ele>624.062500</ele>
        <time>2010-01-01T21:07:43Z</time>
      </trkpt>
      <trkpt lat="44.360630" lon="2.274710">
        <ele>621.446594</ele>
        <time>2010-01-01T21:10:16Z</time>
      </trkpt>
      <trkpt lat="44.362020" lon="2.275390">
        <ele>612.86</ele>
        <time>2010-01-01T21:10:22Z</time>
      </trkpt>
      <trkpt lat="44.362190" lon="2.275580">
        <ele>611.20</ele>
        <time>2010-01-01T21:10:27Z</time>
      </trkpt>
      <trkpt lat="44.362240" lon="2.275890">
        <ele>610.895020</ele>
        <time>2010-01-01T21:11:13Z</time>
      </trkpt>
      <trkpt lat="44.362210" lon="2.277370">
        <ele>608.031250</ele>
        <time>2010-01-01T21:11:25Z</time>
      </trkpt>
      <trkpt lat="44.362250" lon="2.278400">
        <ele>605.542603</ele>
        <time>2010-01-01T21:11:32Z</time>
      </trkpt>
      <trkpt lat="44.362350" lon="2.278750">
        <ele>603.732544</ele>
        <time>2010-01-01T21:11:53Z</time>
      </trkpt>
      <trkpt lat="44.362550" lon="2.279120">
        <ele>601.246460</ele>
        <time>2010-01-01T21:12:30Z</time>
      </trkpt>
      <trkpt lat="44.362830" lon="2.279350">
        <ele>598.768188</ele>
        <time>2010-01-01T21:14:29Z</time>
      </trkpt>
      <trkpt lat="44.363590" lon="2.279490">
        <ele>596.406677</ele>
        <time>2010-01-01T21:14:51Z</time>
      </trkpt>
      <trkpt lat="44.364320" lon="2.279730">
        <ele>593.065552</ele>
        <time>2010-01-01T21:14:59Z</time>
      </trkpt>
      <trkpt lat="44.364460" lon="2.279830">
        <ele>591.067322</ele>
        <time>2010-01-01T21:15:04Z</time>
      </trkpt>
      <trkpt lat="44.364540" lon="2.279980">
        <ele>589.123291</ele>
        <time>2010-01-01T21:15:12Z</time>
      </trkpt>
      <trkpt lat="44.364570" lon="2.280140">
        <ele>587.502869</ele>
        <time>2010-01-01T21:15:18Z</time>
      </trkpt>
      <trkpt lat="44.364340" lon="2.281850">
        <ele>581.529785</ele>
        <time>2010-01-01T21:15:43Z</time>
      </trkpt>
      <trkpt lat="44.364230" lon="2.282130">
        <ele>579.699524</ele>
        <time>2010-01-01T21:15:51Z</time>
      </trkpt>
      <trkpt lat="44.363730" lon="2.283010">
        <ele>569.453613</ele>
        <time>2010-01-01T21:16:29Z</time>
      </trkpt>
      <trkpt lat="44.363700" lon="2.283330">
        <ele>566.796997</ele>
        <time>2010-01-01T21:17:56Z</time>
      </trkpt>
      <trkpt lat="44.363790" lon="2.283580">
        <ele>565.065979</ele>
        <time>2010-01-01T21:18:13Z</time>
      </trkpt>
      <trkpt lat="44.363960" lon="2.283690">
        <ele>563.380920</ele>
        <time>2010-01-01T21:18:25Z</time>
      </trkpt>
      <trkpt lat="44.364110" lon="2.283680">
        <ele>561.940613</ele>
        <time>2010-01-01T21:19:30Z</time>
      </trkpt>
      <trkpt lat="44.364540" lon="2.283510">
        <ele>560.227234</ele>
        <time>2010-01-01T21:20:09Z</time>
      </trkpt>
      <trkpt lat="44.365070" lon="2.283420">
        <ele>553.02</ele>
        <time>2010-01-01T21:21:25Z</time>
      </trkpt>
      <trkpt lat="44.365700" lon="2.283160">
        <ele>547.578247</ele>
        <time>2010-01-01T21:22:12Z</time>
      </trkpt>
      <trkpt lat="44.366230" lon="2.282720">
        <ele>541.771301</ele>
        <time>2010-01-01T21:23:02Z</time>
      </trkpt>
      <trkpt lat="44.366420" lon="2.282480">
        <ele>538.522705</ele>
        <time>2010-01-01T21:23:17Z</time>
      </trkpt>
      <trkpt lat="44.366700" lon="2.281980">
        <ele>532.867493</ele>
        <time>2010-01-01T21:23:47Z</time>
      </trkpt>
      <trkpt lat="44.367020" lon="2.281100">
        <ele>526.150024</ele>
        <time>2010-01-01T21:24:11Z</time>
      </trkpt>
      <trkpt lat="44.367110" lon="2.280720">
        <ele>522.677734</ele>
        <time>2010-01-01T21:25:13Z</time>
      </trkpt>
      <trkpt lat="44.367080" lon="2.280500">
        <ele>521.69</ele>
        <time>2010-01-01T21:25:56Z</time>
      </trkpt>
      <trkpt lat="44.366820" lon="2.280150">
        <ele>521.69</ele>
        <time>2010-01-01T21:26:04Z</time>
      </trkpt>
      <trkpt lat="44.366800" lon="2.280070">
        <ele>521.69</ele>
        <time>2010-01-01T21:26:34Z</time>
      </trkpt>
      <trkpt lat="44.366840" lon="2.279980">
        <ele>521.69</ele>
        <time>2010-01-01T21:26:52Z</time>
      </trkpt>
      <trkpt lat="44.366950" lon="2.279920">
        <ele>521.69</ele>
        <time>2010-01-01T21:27:13Z</time>
      </trkpt>
      <trkpt lat="44.367170" lon="2.280060">
        <ele>519.30</ele>
        <time>2010-01-01T21:27:32Z</time>
      </trkpt>
      <trkpt lat="44.367430" lon="2.280390">
        <ele>515.45</ele>
        <time>2010-01-01T21:27:42Z</time>
      </trkpt>
      <trkpt lat="44.367480" lon="2.280570">
        <ele>513.86</ele>
        <time>2010-01-01T21:28:02Z</time>
      </trkpt>
      <trkpt lat="44.367530" lon="2.281680">
        <ele>507.08</ele>
        <time>2010-01-01T21:28:23Z</time>
      </trkpt>
      <trkpt lat="44.367720" lon="2.282430">
        <ele>497.796082</ele>
        <time>2010-01-01T21:28:48Z</time>
      </trkpt>
      <trkpt lat="44.367880" lon="2.283650">
        <ele>490.821472</ele>
        <time>2010-01-01T21:29:49Z</time>
      </trkpt>
      <trkpt lat="44.368010" lon="2.284160">
        <ele>488.904114</ele>
        <time>2010-01-01T21:30:06Z</time>
      </trkpt>
      <trkpt lat="44.368130" lon="2.284400">
        <ele>487.284760</ele>
        <time>2010-01-01T21:30:18Z</time>
      </trkpt>
      <trkpt lat="44.368320" lon="2.284630">
        <ele>484.271240</ele>
        <time>2010-01-01T21:30:34Z</time>
      </trkpt>
      <trkpt lat="44.369760" lon="2.285850">
        <ele>464.179871</ele>
        <time>2010-01-01T21:30:42Z</time>
      </trkpt>
      <trkpt lat="44.370265" lon="2.287119">
        <ele>453.649902</ele>
        <time>2010-01-01T21:31:05Z</time>
      </trkpt>
      <trkpt lat="44.370408" lon="2.287250">
        <ele>451.536102</ele>
        <time>2010-01-01T21:31:26Z</time>
      </trkpt>
      <trkpt lat="44.370575" lon="2.287211">
        <ele>451.91</ele>
        <time>2010-01-01T21:31:48Z</time>
      </trkpt>
      <trkpt lat="44.370750" lon="2.287009">
        <ele>451.088013</ele>
        <time>2010-01-01T21:31:56Z</time>
      </trkpt>
      <trkpt lat="44.370916" lon="2.286592">
        <ele>449.273804</ele>
        <time>2010-01-01T21:32:07Z</time>
      </trkpt>
      <trkpt lat="44.371010" lon="2.286201">
        <ele>447.323608</ele>
        <time>2010-01-01T21:32:34Z</time>
      </trkpt>
      <trkpt lat="44.371019" lon="2.285895">
        <ele>445.735168</ele>
        <time>2010-01-01T21:33:00Z</time>
      </trkpt>
      <trkpt lat="44.370997" lon="2.285485">
        <ele>442.731323</ele>
        <time>2010-01-01T21:33:42Z</time>
      </trkpt>
      <trkpt lat="44.370660" lon="2.284170">
        <ele>436.937500</ele>
        <time>2010-01-01T21:34:27Z</time>
      </trkpt>
      <trkpt lat="44.370390" lon="2.282820">
        <ele>429.774994</ele>
        <time>2010-01-01T21:35:12Z</time>
      </trkpt>
      <trkpt lat="44.370380" lon="2.281910">
        <ele>424.772614</ele>
        <time>2010-01-01T21:35:54Z</time>
      </trkpt>
      <trkpt lat="44.370700" lon="2.280730">
        <ele>416.203735</ele>
        <time>2010-01-01T21:36:20Z</time>
      </trkpt>
      <trkpt lat="44.370694" lon="2.279570">
        <ele>412.632507</ele>
        <time>2010-01-01T21:36:46Z</time>
      </trkpt>
      <trkpt lat="44.370770" lon="2.279538">
        <ele>410.778748</ele>
        <time>2010-01-01T21:36:57Z</time>
      </trkpt>
      <trkpt lat="44.370850" lon="2.279750">
        <ele>410.019989</ele>
        <time>2010-01-01T21:37:05Z</time>
      </trkpt>
      <trkpt lat="44.371179" lon="2.280424">
        <ele>405.646057</ele>
        <time>2010-01-01T21:37:27Z</time>
      </trkpt>
      <trkpt lat="44.371840" lon="2.280910">
        <ele>397.589752</ele>
        <time>2010-01-01T21:37:48Z</time>
      </trkpt>
      <trkpt lat="44.372100" lon="2.281240">
        <ele>394.648041</ele>
        <time>2010-01-01T21:38:11Z</time>
      </trkpt>
      <trkpt lat="44.372220" lon="2.281470">
        <ele>393.448303</ele>
        <time>2010-01-01T21:38:19Z</time>
      </trkpt>
      <trkpt lat="44.372320" lon="2.281730">
        <ele>392.89</ele>
        <time>2010-01-01T21:38:35Z</time>
      </trkpt>
      <trkpt lat="44.372360" lon="2.282900">
        <ele>395.193970</ele>
        <time>2010-01-01T21:38:48Z</time>
      </trkpt>
      <trkpt lat="44.372590" lon="2.286800">
        <ele>398.687744</ele>
        <time>2010-01-01T21:39:04Z</time>
      </trkpt>
      <trkpt lat="44.372630" lon="2.287130">
        <ele>399.136108</ele>
        <time>2010-01-01T21:40:05Z</time>
      </trkpt>
      <trkpt lat="44.372670" lon="2.287200">
        <ele>399.672699</ele>
        <time>2010-01-01T21:40:31Z</time>
      </trkpt>
      <trkpt lat="44.372960" lon="2.287340">
        <ele>401.62</ele>
        <time>2010-01-01T21:40:52Z</time>
      </trkpt>
      <trkpt lat="44.373590" lon="2.287800">
        <ele>406.43</ele>
        <time>2010-01-01T21:41:11Z</time>
      </trkpt>
      <trkpt lat="44.374720" lon="2.288190">
        <ele>406.89</ele>
        <time>2010-01-01T21:41:21Z</time>
      </trkpt>
      <trkpt lat="44.375510" lon="2.288260">
        <ele>406.89</ele>
        <time>2010-01-01T21:41:40Z</time>
      </trkpt>
      <trkpt lat="44.375480" lon="2.288340">
        <ele>407.90</ele>
        <time>2010-01-01T21:42:01Z</time>
      </trkpt>
      <trkpt lat="44.375180" lon="2.288400">
        <ele>412.374878</ele>
        <time>2010-01-01T21:42:19Z</time>
      </trkpt>
      <trkpt lat="44.374870" lon="2.288550">
        <ele>418.968109</ele>
        <time>2010-01-01T21:42:49Z</time>
      </trkpt>
      <trkpt lat="44.374070" lon="2.288710">
        <ele>432.521088</ele>
        <time>2010-01-01T21:42:58Z</time>
      </trkpt>
      <trkpt lat="44.373600" lon="2.288750">
        <ele>437.135742</ele>
        <time>2010-01-01T21:43:40Z</time>
      </trkpt>
      <trkpt lat="44.373300" lon="2.288840">
        <ele>440.846497</ele>
        <time>2010-01-01T21:44:42Z</time>
      </trkpt>
      <trkpt lat="44.373220" lon="2.288920">
        <ele>441.860809</ele>
        <time>2010-01-01T21:45:06Z</time>
      </trkpt>
      <trkpt lat="44.373170" lon="2.289060">
        <ele>443.275482</ele>
        <time>2010-01-01T21:45:37Z</time>
      </trkpt>
      <trkpt lat="44.373060" lon="2.289690">
        <ele>449.932190</ele>
        <time>2010-01-01T21:45:51Z</time>
      </trkpt>
      <trkpt lat="44.373110" lon="2.290840">
        <ele>458.527710</ele>
        <time>2010-01-01T21:46:41Z</time>
      </trkpt>
      <trkpt lat="44.373210" lon="2.291060">
        <ele>461.974457</ele>
        <time>2010-01-01T21:47:29Z</time>
      </trkpt>
      <trkpt lat="44.373420" lon="2.291270">
        <ele>466.452820</ele>
        <time>2010-01-01T21:48:45Z</time>
      </trkpt>
      <trkpt lat="44.373640" lon="2.292910">
        <ele>475.697510</ele>
        <time>2010-01-01T21:49:24Z</time>
      </trkpt>
      <trkpt lat="44.373710" lon="2.293210">
        <ele>475.852509</ele>
        <time>2010-01-01T21:49:51Z</time>
      </trkpt>
      <trkpt lat="44.373840" lon="2.293370">
        <ele>476.372772</ele>
        <time>2010-01-01T21:50:56Z</time>
      </trkpt>
      <trkpt lat="44.374490" lon="2.293730">
        <ele>479.34</ele>
        <time>2010-01-01T21:51:53Z</time>
      </trkpt>
      <trkpt lat="44.374620" lon="2.293880">
        <ele>482.510712</ele>
        <time>2010-01-01T21:52:21Z</time>
      </trkpt>
      <trkpt lat="44.374810" lon="2.295180">
        <ele>490.783936</ele>
        <time>2010-01-01T21:52:51Z</time>
      </trkpt>
      <trkpt lat="44.374700" lon="2.296080">
        <ele>499.95</ele>
        <time>2010-01-01T21:53:03Z</time>
      </trkpt>
      <trkpt lat="44.374771" lon="2.296473">
        <ele>499.49</ele>
        <time>2010-01-01T21:53:46Z</time>
      </trkpt>
      <trkpt lat="44.374731" lon="2.296987">
        <ele>500.89</ele>
        <time>2010-01-01T21:53:58Z</time>
      </trkpt>
      <trkpt lat="44.374875" lon="2.297567">
        <ele>498.246002</ele>
        <time>2010-01-01T21:54:14Z</time>
      </trkpt>
      <trkpt lat="44.375000" lon="2.297795">
        <ele>496.117004</ele>
        <time>2010-01-01T21:54:40Z</time>
      </trkpt>
      <trkpt lat="44.375485" lon="2.298257">
        <ele>492.970062</ele>
        <time>2010-01-01T21:54:48Z</time>
      </trkpt>
      <trkpt lat="44.375620" lon="2.298270">
        <ele>491.638092</ele>
        <time>2010-01-01T21:54:55Z</time>
      </trkpt>
      <trkpt lat="44.376244" lon="2.298036">
        <ele>483.931885</ele>
        <time>2010-01-01T21:55:02Z</time>
      </trkpt>
      <trkpt lat="44.376657" lon="2.298003">
        <ele>480.336670</ele>
        <time>2010-01-01T21:55:22Z</time>
      </trkpt>
      <trkpt lat="44.377320" lon="2.298220">
        <ele>476.502686</ele>
        <time>2010-01-01T21:55:48Z</time>
      </trkpt>
      <trkpt lat="44.377450" lon="2.298330">
        <ele>475.526367</ele>
        <time>2010-01-01T21:56:11Z</time>
      </trkpt>
      <trkpt lat="44.377500" lon="2.298510">
        <ele>474.454742</ele>
        <time>2010-01-01T21:56:21Z</time>
      </trkpt>
      <trkpt lat="44.377370" lon="2.300110">
        <ele>471.566833</ele>
        <time>2010-01-01T21:56:46Z</time>
      </trkpt>
      <trkpt lat="44.377270" lon="2.300490">
        <ele>469.26</ele>
        <time>2010-01-01T21:56:54Z</time>
      </trkpt>
      <trkpt lat="44.377130" lon="2.300640">
        <ele>468.75</ele>
        <time>2010-01-01T21:57:02Z</time>
      </trkpt>
      <trkpt lat="44.376630" lon="2.300890">
        <ele>467.61</ele>
        <time>2010-01-01T21:58:03Z</time>
      </trkpt>
      <trkpt lat="44.375820" lon="2.301460">
        <ele>467.25</ele>
        <time>2010-01-01T21:58:11Z</time>
      </trkpt>
      <trkpt lat="44.375216" lon="2.302257">
        <ele>465.36</ele>
        <time>2010-01-01T21:58:19Z</time>
      </trkpt>
      <trkpt lat="44.375180" lon="2.302478">
        <ele>464.71</ele>
        <time>2010-01-01T21:58:30Z</time>
      </trkpt>
      <trkpt lat="44.375248" lon="2.302602">
        <ele>463.37</ele>
        <time>2010-01-01T21:58:39Z</time>
      </trkpt>
      <trkpt lat="44.375414" lon="2.302582">
        <ele>462.86</ele>
        <time>2010-01-01T21:58:52Z</time>
      </trkpt>
      <trkpt lat="44.375773" lon="2.302420">
        <ele>461.84</ele>
        <time>2010-01-01T22:00:15Z</time>
      </trkpt>
      <trkpt lat="44.376267" lon="2.302270">
        <ele>453.90</ele>
        <time>2010-01-01T22:01:00Z</time>
      </trkpt>
      <trkpt lat="44.376645" lon="2.302283">
        <ele>450.539856</ele>
        <time>2010-01-01T22:01:27Z</time>
      </trkpt>
      <trkpt lat="44.377080" lon="2.302410">
        <ele>450.084564</ele>
        <time>2010-01-01T22:02:14Z</time>
      </trkpt>
      <trkpt lat="44.377640" lon="2.302420">
        <ele>437.858582</ele>
        <time>2010-01-01T22:02:59Z</time>
      </trkpt>
      <trkpt lat="44.377820" lon="2.302540">
        <ele>436.03</ele>
        <time>2010-01-01T22:03:30Z</time>
      </trkpt>
      <trkpt lat="44.377880" lon="2.302680">
        <ele>436.03</ele>
        <time>2010-01-01T22:04:07Z</time>
      </trkpt>
      <trkpt lat="44.377890" lon="2.302960">
        <ele>436.03</ele>
        <time>2010-01-01T22:04:16Z</time>
      </trkpt>
      <trkpt lat="44.377850" lon="2.303190">
        <ele>436.83</ele>
        <time>2010-01-01T22:04:56Z</time>
      </trkpt>
      <trkpt lat="44.377620" lon="2.303980">
        <ele>435.39</ele>
        <time>2010-01-01T22:05:03Z</time>
      </trkpt>
      <trkpt lat="44.377640" lon="2.304270">
        <ele>434.68</ele>
        <time>2010-01-01T22:05:10Z</time>
      </trkpt>
      <trkpt lat="44.377570" lon="2.304530">
        <ele>435.59</ele>
        <time>2010-01-01T22:05:18Z</time>
      </trkpt>
      <trkpt lat="44.377240" lon="2.305470">
        <ele>432.02</ele>
        <time>2010-01-01T22:05:28Z</time>
      </trkpt>
      <trkpt lat="44.376360" lon="2.308240">
        <ele>417.76</ele>
        <time>2010-01-01T22:05:56Z</time>
      </trkpt>
      <trkpt lat="44.376290" lon="2.308820">
        <ele>412.918091</ele>
        <time>2010-01-01T22:06:14Z</time>
      </trkpt>
      <trkpt lat="44.376300" lon="2.309260">
        <ele>408.845215</ele>
        <time>2010-01-01T22:07:30Z</time>
      </trkpt>
      <trkpt lat="44.376374" lon="2.309532">
        <ele>405.61</ele>
        <time>2010-01-01T22:07:42Z</time>
      </trkpt>
      <trkpt lat="44.376523" lon="2.309741">
        <ele>405.61</ele>
        <time>2010-01-01T22:07:54Z</time>
      </trkpt>
      <trkpt lat="44.377039" lon="2.310210">
        <ele>408.95</ele>
        <time>2010-01-01T22:08:10Z</time>
      </trkpt>
      <trkpt lat="44.376970" lon="2.310960">
        <ele>410.632507</ele>
        <time>2010-01-01T22:08:25Z</time>
      </trkpt>
      <trkpt lat="44.377060" lon="2.312310">
        <ele>416.420013</ele>
        <time>2010-01-01T22:08:34Z</time>
      </trkpt>
      <trkpt lat="44.377630" lon="2.314850">
        <ele>418.87</ele>
        <time>2010-01-01T22:08:48Z</time>
      </trkpt>
      <trkpt lat="44.378110" lon="2.316360">
        <ele>418.87</ele>
        <time>2010-01-01T22:09:00Z</time>
      </trkpt>
      <trkpt lat="44.378530" lon="2.318000">
        <ele>418.87</ele>
        <time>2010-01-01T22:09:05Z</time>
      </trkpt>
      <trkpt lat="44.378690" lon="2.318460">
        <ele>418.87</ele>
        <time>2010-01-01T22:09:10Z</time>
      </trkpt>
      <trkpt lat="44.379170" lon="2.319280">
        <ele>418.440552</ele>
        <time>2010-01-01T22:09:16Z</time>
      </trkpt>
      <trkpt lat="44.379620" lon="2.319860">
        <ele>422.98</ele>
        <time>2010-01-01T22:10:01Z</time>
      </trkpt>
      <trkpt lat="44.380940" lon="2.320990">
        <ele>424.66</ele>
        <time>2010-01-01T22:10:13Z</time>
      </trkpt>
      <trkpt lat="44.381960" lon="2.321380">
        <ele>429.41</ele>
        <time>2010-01-01T22:10:24Z</time>
      </trkpt>
      <trkpt lat="44.382160" lon="2.321500">
        <ele>429.41</ele>
        <time>2010-01-01T22:11:06Z</time>
      </trkpt>
      <trkpt lat="44.382770" lon="2.322110">
        <ele>428.41</ele>
        <time>2010-01-01T22:11:22Z</time>
      </trkpt>
      <trkpt lat="44.383080" lon="2.322550">
        <ele>425.63</ele>
        <time>2010-01-01T22:11:40Z</time>
      </trkpt>
      <trkpt lat="44.383320" lon="2.323200">
        <ele>421.515686</ele>
        <time>2010-01-01T22:11:45Z</time>
      </trkpt>
      <trkpt lat="44.383380" lon="2.323860">
        <ele>419.013702</ele>
        <time>2010-01-01T22:11:50Z</time>
      </trkpt>
      <trkpt lat="44.383450" lon="2.324210">
        <ele>419.13</ele>
        <time>2010-01-01T22:11:54Z</time>
      </trkpt>
      <trkpt lat="44.383730" lon="2.324760">
        <ele>420.15</ele>
        <time>2010-01-01T22:12:05Z</time>
      </trkpt>
      <trkpt lat="44.383950" lon="2.325420">
        <ele>420.15</ele>
        <time>2010-01-01T22:12:19Z</time>
      </trkpt>
      <trkpt lat="44.384380" lon="2.326070">
        <ele>420.15</ele>
        <time>2010-01-01T22:14:10Z</time>
      </trkpt>
      <trkpt lat="44.385480" lon="2.327550">
        <ele>424.99</ele>
        <time>2010-01-01T22:14:18Z</time>
      </trkpt>
      <trkpt lat="44.385680" lon="2.328060">
        <ele>426.000519</ele>
        <time>2010-01-01T22:14:44Z</time>
      </trkpt>
      <trkpt lat="44.385750" lon="2.328500">
        <ele>423.031891</ele>
        <time>2010-01-01T22:15:07Z</time>
      </trkpt>
      <trkpt lat="44.385770" lon="2.329050">
        <ele>419.919006</ele>
        <time>2010-01-01T22:15:30Z</time>
      </trkpt>
      <trkpt lat="44.385750" lon="2.329320">
        <ele>418.07</ele>
        <time>2010-01-01T22:16:07Z</time>
      </trkpt>
      <trkpt lat="44.385600" lon="2.330100">
        <ele>416.335297</ele>
        <time>2010-01-01T22:16:27Z</time>
      </trkpt>
      <trkpt lat="44.385590" lon="2.330830">
        <ele>416.277771</ele>
        <time>2010-01-01T22:16:38Z</time>
      </trkpt>
      <trkpt lat="44.385620" lon="2.331610">
        <ele>416.59</ele>
        <time>2010-01-01T22:17:06Z</time>
      </trkpt>
      <trkpt lat="44.385700" lon="2.331870">
        <ele>416.484985</ele>
        <time>2010-01-01T22:17:29Z</time>
      </trkpt>
      <trkpt lat="44.385860" lon="2.332170">
        <ele>416.734650</ele>
        <time>2010-01-01T22:18:58Z</time>
      </trkpt>
      <trkpt lat="44.386330" lon="2.332820">
        <ele>416.852173</ele>
        <time>2010-01-01T22:21:33Z</time>
      </trkpt>
      <trkpt lat="44.386880" lon="2.333310">
        <ele>416.460938</ele>
        <time>2010-01-01T22:21:45Z</time>
      </trkpt>
      <trkpt lat="44.387340" lon="2.334630">
        <ele>416.70</ele>
        <time>2010-01-01T22:21:50Z</time>
      </trkpt>
      <trkpt lat="44.388120" lon="2.335760">
        <ele>416.23</ele>
        <time>2010-01-01T22:22:08Z</time>
      </trkpt>
      <trkpt lat="44.387340" lon="2.334630">
        <ele>416.70</ele>
        <time>2010-01-01T22:22:19Z</time>
      </trkpt>
      <trkpt lat="44.386880" lon="2.333310">
        <ele>416.70</ele>
        <time>2010-01-01T22:22:44Z</time>
      </trkpt>
      <trkpt lat="44.386330" lon="2.332820">
        <ele>416.70</ele>
        <time>2010-01-01T22:24:43Z</time>
      </trkpt>
      <trkpt lat="44.385860" lon="2.332170">
        <ele>416.734650</ele>
        <time>2010-01-01T22:29:58Z</time>
      </trkpt>
      <trkpt lat="44.385700" lon="2.331870">
        <ele>416.48</ele>
        <time>2010-01-01T22:30:08Z</time>
      </trkpt>
      <trkpt lat="44.385620" lon="2.331610">
        <ele>416.48</ele>
        <time>2010-01-01T22:30:44Z</time>
      </trkpt>
      <trkpt lat="44.385590" lon="2.330830">
        <ele>416.277771</ele>
        <time>2010-01-01T22:30:54Z</time>
      </trkpt>
      <trkpt lat="44.385600" lon="2.330100">
        <ele>416.335297</ele>
        <time>2010-01-01T22:30:59Z</time>
      </trkpt>
      <trkpt lat="44.385750" lon="2.329320">
        <ele>420.07</ele>
        <time>2010-01-01T22:31:14Z</time>
      </trkpt>
      <trkpt lat="44.385770" lon="2.329050">
        <ele>420.07</ele>
        <time>2010-01-01T22:32:03Z</time>
      </trkpt>
      <trkpt lat="44.385750" lon="2.328500">
        <ele>423.031891</ele>
        <time>2010-01-01T22:32:37Z</time>
      </trkpt>
      <trkpt lat="44.385680" lon="2.328060">
        <ele>424.99</ele>
        <time>2010-01-01T22:35:33Z</time>
      </trkpt>
      <trkpt lat="44.385480" lon="2.327550">
        <ele>424.99</ele>
        <time>2010-01-01T22:36:41Z</time>
      </trkpt>
      <trkpt lat="44.384380" lon="2.326070">
        <ele>420.15</ele>
        <time>2010-01-01T22:38:04Z</time>
      </trkpt>
      <trkpt lat="44.383950" lon="2.325420">
        <ele>420.15</ele>
        <time>2010-01-01T22:38:17Z</time>
      </trkpt>
      <trkpt lat="44.383730" lon="2.324760">
        <ele>420.15</ele>
        <time>2010-01-01T22:38:27Z</time>
      </trkpt>
      <trkpt lat="44.383450" lon="2.324210">
        <ele>419.130432</ele>
        <time>2010-01-01T22:38:56Z</time>
      </trkpt>
      <trkpt lat="44.383380" lon="2.323860">
        <ele>419.01</ele>
        <time>2010-01-01T22:42:15Z</time>
      </trkpt>
      <trkpt lat="44.383320" lon="2.323200">
        <ele>421.515686</ele>
        <time>2010-01-01T22:43:26Z</time>
      </trkpt>
      <trkpt lat="44.383080" lon="2.322550">
        <ele>422.64</ele>
        <time>2010-01-01T22:44:01Z</time>
      </trkpt>
      <trkpt lat="44.382770" lon="2.322110">
        <ele>422.64</ele>
        <time>2010-01-01T22:44:11Z</time>
      </trkpt>
      <trkpt lat="44.382160" lon="2.321500">
        <ele>429.41</ele>
        <time>2010-01-01T22:44:41Z</time>
      </trkpt>
      <trkpt lat="44.381960" lon="2.321380">
        <ele>429.41</ele>
        <time>2010-01-01T22:46:25Z</time>
      </trkpt>
      <trkpt lat="44.380940" lon="2.320990">
        <ele>431.66</ele>
        <time>2010-01-01T22:46:39Z</time>
      </trkpt>
      <trkpt lat="44.379620" lon="2.319860">
        <ele>422.980042</ele>
        <time>2010-01-01T22:49:27Z</time>
      </trkpt>
      <trkpt lat="44.379170" lon="2.319280">
        <ele>418.440552</ele>
        <time>2010-01-01T22:52:05Z</time>
      </trkpt>
      <trkpt lat="44.378690" lon="2.318460">
        <ele>418.66</ele>
        <time>2010-01-01T22:53:48Z</time>
      </trkpt>
      <trkpt lat="44.378530" lon="2.318000">
        <ele>418.66</ele>
        <time>2010-01-01T22:54:11Z</time>
      </trkpt>
      <trkpt lat="44.378110" lon="2.316360">
        <ele>418.66</ele>
        <time>2010-01-01T22:54:25Z</time>
      </trkpt>
      <trkpt lat="44.377630" lon="2.314850">
        <ele>418.865051</ele>
        <time>2010-01-01T22:54:42Z</time>
      </trkpt>
      <trkpt lat="44.377060" lon="2.312310">
        <ele>416.420013</ele>
        <time>2010-01-01T22:55:58Z</time>
      </trkpt>
      <trkpt lat="44.376970" lon="2.310960">
        <ele>410.632507</ele>
        <time>2010-01-01T22:56:14Z</time>
      </trkpt>
      <trkpt lat="44.377082" lon="2.310151">
        <ele>410.75</ele>
        <time>2010-01-01T22:56:26Z</time>
      </trkpt>
      <trkpt lat="44.377160" lon="2.310080">
        <ele>411.14</ele>
        <time>2010-01-01T22:56:45Z</time>
      </trkpt>
      <trkpt lat="44.377970" lon="2.308100">
        <ele>421.01</ele>
        <time>2010-01-01T22:56:53Z</time>
      </trkpt>
      <trkpt lat="44.378850" lon="2.306530">
        <ele>429.16</ele>
        <time>2010-01-01T22:58:20Z</time>
      </trkpt>
      <trkpt lat="44.379350" lon="2.305830">
        <ele>433.902496</ele>
        <time>2010-01-01T22:58:36Z</time>
      </trkpt>
      <trkpt lat="44.379990" lon="2.305280">
        <ele>441.897736</ele>
        <time>2010-01-01T22:58:50Z</time>
      </trkpt>
      <trkpt lat="44.380270" lon="2.305160">
        <ele>444.474579</ele>
        <time>2010-01-01T22:59:00Z</time>
      </trkpt>
      <trkpt lat="44.381320" lon="2.304940">
        <ele>453.045349</ele>
        <time>2010-01-01T22:59:13Z</time>
      </trkpt>
      <trkpt lat="44.381590" lon="2.304770">
        <ele>453.992706</ele>
        <time>2010-01-01T22:59:20Z</time>
      </trkpt>
      <trkpt lat="44.381760" lon="2.304608">
        <ele>454.132813</ele>
        <time>2010-01-01T22:59:32Z</time>
      </trkpt>
      <trkpt lat="44.381890" lon="2.304370">
        <ele>454.787506</ele>
        <time>2010-01-01T22:59:40Z</time>
      </trkpt>
      <trkpt lat="44.382190" lon="2.303560">
        <ele>456.841187</ele>
        <time>2010-01-01T22:59:48Z</time>
      </trkpt>
      <trkpt lat="44.382320" lon="2.303360">
        <ele>459.172699</ele>
        <time>2010-01-01T22:59:54Z</time>
      </trkpt>
      <trkpt lat="44.382480" lon="2.303270">
        <ele>459.221130</ele>
        <time>2010-01-01T23:00:08Z</time>
      </trkpt>
      <trkpt lat="44.382650" lon="2.303310">
        <ele>461.998260</ele>
        <time>2010-01-01T23:00:29Z</time>
      </trkpt>
      <trkpt lat="44.383080" lon="2.303670">
        <ele>469.36</ele>
        <time>2010-01-01T23:00:40Z</time>
      </trkpt>
      <trkpt lat="44.383670" lon="2.304030">
        <ele>476.672913</ele>
        <time>2010-01-01T23:01:07Z</time>
      </trkpt>
      <trkpt lat="44.384120" lon="2.304530">
        <ele>485.274658</ele>
        <time>2010-01-01T23:01:16Z</time>
      </trkpt>
      <trkpt lat="44.384350" lon="2.304710">
        <ele>487.39</ele>
        <time>2010-01-01T23:01:21Z</time>
      </trkpt>
      <trkpt lat="44.384960" lon="2.304860">
        <ele>488.11</ele>
        <time>2010-01-01T23:01:42Z</time>
      </trkpt>
      <trkpt lat="44.385150" lon="2.304960">
        <ele>488.42</ele>
        <time>2010-01-01T23:06:02Z</time>
      </trkpt>
      <trkpt lat="44.385260" lon="2.305190">
        <ele>488.66</ele>
        <time>2010-01-01T23:06:23Z</time>
      </trkpt>
      <trkpt lat="44.385296" lon="2.306380">
        <ele>495.79</ele>
        <time>2010-01-01T23:07:06Z</time>
      </trkpt>
      <trkpt lat="44.385435" lon="2.306836">
        <ele>497.145508</ele>
        <time>2010-01-01T23:11:28Z</time>
      </trkpt>
      <trkpt lat="44.385670" lon="2.307180">
        <ele>500.788269</ele>
        <time>2010-01-01T23:11:39Z</time>
      </trkpt>
      <trkpt lat="44.385870" lon="2.307260">
        <ele>501.891571</ele>
        <time>2010-01-01T23:15:49Z</time>
      </trkpt>
      <trkpt lat="44.386050" lon="2.307170">
        <ele>504.690826</ele>
        <time>2010-01-01T23:17:26Z</time>
      </trkpt>
      <trkpt lat="44.386270" lon="2.306940">
        <ele>506.596039</ele>
        <time>2010-01-01T23:20:02Z</time>
      </trkpt>
      <trkpt lat="44.386480" lon="2.306800">
        <ele>506.493408</ele>
        <time>2010-01-01T23:20:05Z</time>
      </trkpt>
      <trkpt lat="44.386810" lon="2.306810">
        <ele>508.286804</ele>
        <time>2010-01-01T23:21:29Z</time>
      </trkpt>
      <trkpt lat="44.387351" lon="2.307148">
        <ele>512.122498</ele>
        <time>2010-01-01T23:22:14Z</time>
      </trkpt>
      <trkpt lat="44.387670" lon="2.307415">
        <ele>513.972473</ele>
        <time>2010-01-01T23:22:18Z</time>
      </trkpt>
      <trkpt lat="44.388312" lon="2.308243">
        <ele>520.48</ele>
        <time>2010-01-01T23:23:47Z</time>
      </trkpt>
      <trkpt lat="44.388530" lon="2.308330">
        <ele>520.468323</ele>
        <time>2010-01-01T23:24:07Z</time>
      </trkpt>
      <trkpt lat="44.388703" lon="2.308275">
        <ele>520.674988</ele>
        <time>2010-01-01T23:25:03Z</time>
      </trkpt>
      <trkpt lat="44.388842" lon="2.308138">
        <ele>522.14</ele>
        <time>2010-01-01T23:25:10Z</time>
      </trkpt>
      <trkpt lat="44.388910" lon="2.307923">
        <ele>522.000000</ele>
        <time>2010-01-01T23:25:24Z</time>
      </trkpt>
      <trkpt lat="44.389022" lon="2.307565">
        <ele>521.57</ele>
        <time>2010-01-01T23:25:32Z</time>
      </trkpt>
      <trkpt lat="44.389143" lon="2.307409">
        <ele>521.804626</ele>
        <time>2010-01-01T23:25:59Z</time>
      </trkpt>
      <trkpt lat="44.389280" lon="2.307310">
        <ele>523.24</ele>
        <time>2010-01-01T23:26:36Z</time>
      </trkpt>
      <trkpt lat="44.389960" lon="2.307130">
        <ele>531.859070</ele>
        <time>2010-01-01T23:27:24Z</time>
      </trkpt>
      <trkpt lat="44.391120" lon="2.307220">
        <ele>540.864990</ele>
        <time>2010-01-01T23:27:37Z</time>
      </trkpt>
      <trkpt lat="44.392240" lon="2.307420">
        <ele>549.677246</ele>
        <time>2010-01-01T23:28:12Z</time>
      </trkpt>
      <trkpt lat="44.392990" lon="2.307260">
        <ele>556.332581</ele>
        <time>2010-01-01T23:29:25Z</time>
      </trkpt>
      <trkpt lat="44.393174" lon="2.307168">
        <ele>557.587158</ele>
        <time>2010-01-01T23:30:22Z</time>
      </trkpt>
      <trkpt lat="44.393268" lon="2.306985">
        <ele>557.658020</ele>
        <time>2010-01-01T23:31:34Z</time>
      </trkpt>
      <trkpt lat="44.393290" lon="2.306784">
        <ele>557.091980</ele>
        <time>2010-01-01T23:33:35Z</time>
      </trkpt>
      <trkpt lat="44.393170" lon="2.306250">
        <ele>557.10</ele>
        <time>2010-01-01T23:34:45Z</time>
      </trkpt>
      <trkpt lat="44.393170" lon="2.305940">
        <ele>557.334351</ele>
        <time>2010-01-01T23:35:02Z</time>
      </trkpt>
      <trkpt lat="44.393420" lon="2.304600">
        <ele>557.270020</ele>
        <time>2010-01-01T23:37:16Z</time>
      </trkpt>
      <trkpt lat="44.393490" lon="2.304360">
        <ele>557.240417</ele>
        <time>2010-01-01T23:37:52Z</time>
      </trkpt>
      <trkpt lat="44.393590" lon="2.304180">
        <ele>557.138428</ele>
        <time>2010-01-01T23:40:27Z</time>
      </trkpt>
      <trkpt lat="44.393760" lon="2.304000">
        <ele>556.948303</ele>
        <time>2010-01-01T23:42:02Z</time>
      </trkpt>
      <trkpt lat="44.393980" lon="2.303900">
        <ele>556.489990</ele>
        <time>2010-01-01T23:43:15Z</time>
      </trkpt>
      <trkpt lat="44.394690" lon="2.303820">
        <ele>555.34</ele>
        <time>2010-01-01T23:43:30Z</time>
      </trkpt>
      <trkpt lat="44.395090" lon="2.303520">
        <ele>555.092712</ele>
        <time>2010-01-01T23:43:57Z</time>
      </trkpt>
      <trkpt lat="44.396270" lon="2.301460">
        <ele>543.985596</ele>
        <time>2010-01-01T23:44:39Z</time>
      </trkpt>
      <trkpt lat="44.396490" lon="2.301180">
        <ele>540.891602</ele>
        <time>2010-01-01T23:45:34Z</time>
      </trkpt>
      <trkpt lat="44.396750" lon="2.300980">
        <ele>537.533386</ele>
        <time>2010-01-01T23:47:48Z</time>
      </trkpt>
      <trkpt lat="44.397140" lon="2.300860">
        <ele>534.399597</ele>
        <time>2010-01-01T23:49:24Z</time>
      </trkpt>
      <trkpt lat="44.397520" lon="2.300880">
        <ele>532.078735</ele>
        <time>2010-01-01T23:49:54Z</time>
      </trkpt>
      <trkpt lat="44.397740" lon="2.300930">
        <ele>531.268250</ele>
        <time>2010-01-01T23:50:48Z</time>
      </trkpt>
      <trkpt lat="44.398080" lon="2.301100">
        <ele>530.693481</ele>
        <time>2010-01-01T23:52:16Z</time>
      </trkpt>
      <trkpt lat="44.398310" lon="2.301360">
        <ele>530.86</ele>
        <time>2010-01-01T23:53:02Z</time>
      </trkpt>
      <trkpt lat="44.398440" lon="2.301350">
        <ele>529.992493</ele>
        <time>2010-01-01T23:54:36Z</time>
      </trkpt>
      <trkpt lat="44.398540" lon="2.301250">
        <ele>528.867493</ele>
        <time>2010-01-01T23:55:14Z</time>
      </trkpt>
      <trkpt lat="44.398680" lon="2.301200">
        <ele>527.690002</ele>
        <time>2010-01-01T23:55:54Z</time>
      </trkpt>
      <trkpt lat="44.399810" lon="2.301380">
        <ele>521.107117</ele>
        <time>2010-01-01T23:56:41Z</time>
      </trkpt>
      <trkpt lat="44.400100" lon="2.301310">
        <ele>520.039978</ele>
        <time>2010-01-01T23:57:03Z</time>
      </trkpt>
      <trkpt lat="44.400340" lon="2.301170">
        <ele>519.102539</ele>
        <time>2010-01-01T23:58:50Z</time>
      </trkpt>
      <trkpt lat="44.400965" lon="2.300485">
        <ele>515.950012</ele>
        <time>2010-01-01T23:59:07Z</time>
      </trkpt>
      <trkpt lat="44.401190" lon="2.300290">
        <ele>515.330017</ele>
        <time>2010-01-02T00:00:05Z</time>
      </trkpt>
      <trkpt lat="44.401570" lon="2.300110">
        <ele>514.755005</ele>
        <time>2010-01-02T00:00:18Z</time>
      </trkpt>
      <trkpt lat="44.402010" lon="2.300110">
        <ele>514.159058</ele>
        <time>2010-01-02T00:01:18Z</time>
      </trkpt>
      <trkpt lat="44.402120" lon="2.300230">
        <ele>514.135132</ele>
        <time>2010-01-02T00:01:35Z</time>
      </trkpt>
      <trkpt lat="44.402240" lon="2.300280">
        <ele>514.210022</ele>
        <time>2010-01-02T00:01:52Z</time>
      </trkpt>
      <trkpt lat="44.402340" lon="2.300240">
        <ele>514.082336</ele>
        <time>2010-01-02T00:02:09Z</time>
      </trkpt>
      <trkpt lat="44.402550" lon="2.300040">
        <ele>513.769836</ele>
        <time>2010-01-02T00:02:27Z</time>
      </trkpt>
      <trkpt lat="44.402890" lon="2.299930">
        <ele>512.706726</ele>
        <time>2010-01-02T00:03:21Z</time>
      </trkpt>
      <trkpt lat="44.403505" lon="2.299892">
        <ele>510.068726</ele>
        <time>2010-01-02T00:04:06Z</time>
      </trkpt>
      <trkpt lat="44.404484" lon="2.300016">
        <ele>504.067657</ele>
        <time>2010-01-02T00:05:11Z</time>
      </trkpt>
      <trkpt lat="44.404922" lon="2.299951">
        <ele>502.156281</ele>
        <time>2010-01-02T00:05:22Z</time>
      </trkpt>
      <trkpt lat="44.405620" lon="2.299650">
        <ele>501.263763</ele>
        <time>2010-01-02T00:05:55Z</time>
      </trkpt>
      <trkpt lat="44.405830" lon="2.299590">
        <ele>500.891571</ele>
        <time>2010-01-02T00:06:53Z</time>
      </trkpt>
      <trkpt lat="44.406460" lon="2.299640">
        <ele>499.847504</ele>
        <time>2010-01-02T00:07:08Z</time>
      </trkpt>
      <trkpt lat="44.407030" lon="2.299860">
        <ele>499.521820</ele>
        <time>2010-01-02T00:07:27Z</time>
      </trkpt>
      <trkpt lat="44.407600" lon="2.299880">
        <ele>497.589996</ele>
        <time>2010-01-02T00:08:19Z</time>
      </trkpt>
      <trkpt lat="44.408480" lon="2.300220">
        <ele>494.52</ele>
        <time>2010-01-02T00:08:33Z</time>
      </trkpt>
      <trkpt lat="44.408980" lon="2.300320">
        <ele>491.576202</ele>
        <time>2010-01-02T00:08:56Z</time>
      </trkpt>
      <trkpt lat="44.409220" lon="2.300490">
        <ele>490.435974</ele>
        <time>2010-01-02T00:09:04Z</time>
      </trkpt>
      <trkpt lat="44.409670" lon="2.299740">
        <ele>486.821259</ele>
        <time>2010-01-02T00:09:16Z</time>
      </trkpt>
      <trkpt lat="44.410040" lon="2.299100">
        <ele>482.349182</ele>
        <time>2010-01-02T00:09:27Z</time>
      </trkpt>
      <trkpt lat="44.410147" lon="2.298857">
        <ele>481.102631</ele>
        <time>2010-01-02T00:09:41Z</time>
      </trkpt>
      <trkpt lat="44.410197" lon="2.298466">
        <ele>480.266235</ele>
        <time>2010-01-02T00:09:54Z</time>
      </trkpt>
      <trkpt lat="44.410050" lon="2.296020">
        <ele>484.958740</ele>
        <time>2010-01-02T00:10:18Z</time>
      </trkpt>
      <trkpt lat="44.409908" lon="2.294323">
        <ele>487.835541</ele>
        <time>2010-01-02T00:10:43Z</time>
      </trkpt>
      <trkpt lat="44.409771" lon="2.292096">
        <ele>491.774994</ele>
        <time>2010-01-02T00:10:58Z</time>
      </trkpt>
      <trkpt lat="44.409708" lon="2.291308">
        <ele>494.509186</ele>
        <time>2010-01-02T00:11:07Z</time>
      </trkpt>
      <trkpt lat="44.409700" lon="2.290610">
        <ele>495.52</ele>
        <time>2010-01-02T00:11:14Z</time>
      </trkpt>
      <trkpt lat="44.409990" lon="2.290560">
        <ele>496.768921</ele>
        <time>2010-01-02T00:11:25Z</time>
      </trkpt>
      <trkpt lat="44.410090" lon="2.290440">
        <ele>496.93</ele>
        <time>2010-01-02T00:11:48Z</time>
      </trkpt>
      <trkpt lat="44.410300" lon="2.289910">
        <ele>498.710571</ele>
        <time>2010-01-02T00:12:18Z</time>
      </trkpt>
      <trkpt lat="44.410310" lon="2.289530">
        <ele>500.177795</ele>
        <time>2010-01-02T00:12:25Z</time>
      </trkpt>
      <trkpt lat="44.410270" lon="2.288660">
        <ele>502.552277</ele>
        <time>2010-01-02T00:12:36Z</time>
      </trkpt>
      <trkpt lat="44.410144" lon="2.288240">
        <ele>502.963745</ele>
        <time>2010-01-02T00:13:02Z</time>
      </trkpt>
      <trkpt lat="44.410472" lon="2.287100">
        <ele>500.435577</ele>
        <time>2010-01-02T00:13:12Z</time>
      </trkpt>
      <trkpt lat="44.410683" lon="2.286781">
        <ele>500.238739</ele>
        <time>2010-01-02T00:13:21Z</time>
      </trkpt>
      <trkpt lat="44.411920" lon="2.285770">
        <ele>492.76</ele>
        <time>2010-01-02T00:13:36Z</time>
      </trkpt>
      <trkpt lat="44.412146" lon="2.285524">
        <ele>489.747986</ele>
        <time>2010-01-02T00:14:30Z</time>
      </trkpt>
      <trkpt lat="44.412298" lon="2.285218">
        <ele>488.120605</ele>
        <time>2010-01-02T00:14:42Z</time>
      </trkpt>
      <trkpt lat="44.413116" lon="2.282319">
        <ele>469.781219</ele>
        <time>2010-01-02T00:15:01Z</time>
      </trkpt>
      <trkpt lat="44.413750" lon="2.280091">
        <ele>469.34</ele>
        <time>2010-01-02T00:15:16Z</time>
      </trkpt>
      <trkpt lat="44.414158" lon="2.278691">
        <ele>470.238556</ele>
        <time>2010-01-02T00:15:26Z</time>
      </trkpt>
      <trkpt lat="44.414287" lon="2.278359">
        <ele>470.38</ele>
        <time>2010-01-02T00:16:22Z</time>
      </trkpt>
      <trkpt lat="44.415570" lon="2.276160">
        <ele>470.38</ele>
        <time>2010-01-02T00:16:27Z</time>
      </trkpt>
      <trkpt lat="44.415700" lon="2.275860">
        <ele>470.692749</ele>
        <time>2010-01-02T00:16:31Z</time>
      </trkpt>
      <trkpt lat="44.415980" lon="2.274670">
        <ele>474.095001</ele>
        <time>2010-01-02T00:16:49Z</time>
      </trkpt>
      <trkpt lat="44.416140" lon="2.274360">
        <ele>474.761475</ele>
        <time>2010-01-02T00:17:09Z</time>
      </trkpt>
      <trkpt lat="44.416240" lon="2.274260">
        <ele>474.557190</ele>
        <time>2010-01-02T00:17:19Z</time>
      </trkpt>
      <trkpt lat="44.416410" lon="2.273820">
        <ele>473.84</ele>
        <time>2010-01-02T00:17:58Z</time>
      </trkpt>
      <trkpt lat="44.417420" lon="2.272830">
        <ele>470.483795</ele>
        <time>2010-01-02T00:18:23Z</time>
      </trkpt>
      <trkpt lat="44.418050" lon="2.272040">
        <ele>467.86</ele>
        <time>2010-01-02T00:19:05Z</time>
      </trkpt>
      <trkpt lat="44.420880" lon="2.267310">
        <ele>462.62</ele>
        <time>2010-01-02T00:19:11Z</time>
      </trkpt>
      <trkpt lat="44.421990" lon="2.265520">
        <ele>462.33</ele>
        <time>2010-01-02T00:19:31Z</time>
      </trkpt>
      <trkpt lat="44.422213" lon="2.265078">
        <ele>463.471558</ele>
        <time>2010-01-02T00:19:41Z</time>
      </trkpt>
      <trkpt lat="44.422433" lon="2.265032">
        <ele>464.252502</ele>
        <time>2010-01-02T00:19:52Z</time>
      </trkpt>
      <trkpt lat="44.423660" lon="2.265940">
        <ele>466.967590</ele>
        <time>2010-01-02T00:20:38Z</time>
      </trkpt>
      <trkpt lat="44.423980" lon="2.266080">
        <ele>467.690002</ele>
        <time>2010-01-02T00:21:03Z</time>
      </trkpt>
      <trkpt lat="44.424230" lon="2.266090">
        <ele>468.489990</ele>
        <time>2010-01-02T00:21:15Z</time>
      </trkpt>
      <trkpt lat="44.424930" lon="2.265910">
        <ele>471.119476</ele>
        <time>2010-01-02T00:21:19Z</time>
      </trkpt>
      <trkpt lat="44.429770" lon="2.264370">
        <ele>480.482483</ele>
        <time>2010-01-02T00:21:40Z</time>
      </trkpt>
      <trkpt lat="44.431540" lon="2.264050">
        <ele>480.56</ele>
        <time>2010-01-02T00:21:47Z</time>
      </trkpt>
      <trkpt lat="44.432410" lon="2.263840">
        <ele>481.733154</ele>
        <time>2010-01-02T00:22:02Z</time>
      </trkpt>
      <trkpt lat="44.432630" lon="2.263700">
        <ele>482.979034</ele>
        <time>2010-01-02T00:22:11Z</time>
      </trkpt>
      <trkpt lat="44.433260" lon="2.263160">
        <ele>483.244995</ele>
        <time>2010-01-02T00:22:25Z</time>
      </trkpt>
      <trkpt lat="44.435420" lon="2.261130">
        <ele>488.03</ele>
        <time>2010-01-02T00:22:32Z</time>
      </trkpt>
      <trkpt lat="44.435740" lon="2.260920">
        <ele>488.23</ele>
        <time>2010-01-02T00:23:16Z</time>
      </trkpt>
      <trkpt lat="44.439740" lon="2.259070">
        <ele>489.460632</ele>
        <time>2010-01-02T00:23:22Z</time>
      </trkpt>
      <trkpt lat="44.443440" lon="2.257240">
        <ele>501.20</ele>
        <time>2010-01-02T00:23:54Z</time>
      </trkpt>
      <trkpt lat="44.446010" lon="2.256740">
        <ele>502.179993</ele>
        <time>2010-01-02T00:24:51Z</time>
      </trkpt>
      <trkpt lat="44.446560" lon="2.256540">
        <ele>502.922974</ele>
        <time>2010-01-02T00:25:09Z</time>
      </trkpt>
      <trkpt lat="44.446870" lon="2.256310">
        <ele>502.804993</ele>
        <time>2010-01-02T00:26:26Z</time>
      </trkpt>
      <trkpt lat="44.447190" lon="2.255950">
        <ele>503.119995</ele>
        <time>2010-01-02T00:26:45Z</time>
      </trkpt>
      <trkpt lat="44.448420" lon="2.253910">
        <ele>503.957825</ele>
        <time>2010-01-02T00:26:56Z</time>
      </trkpt>
      <trkpt lat="44.448710" lon="2.253500">
        <ele>503.196716</ele>
        <time>2010-01-02T00:27:00Z</time>
      </trkpt>
      <trkpt lat="44.448950" lon="2.253250">
        <ele>502.757507</ele>
        <time>2010-01-02T00:27:20Z</time>
      </trkpt>
      <trkpt lat="44.449380" lon="2.252990">
        <ele>501.600006</ele>
        <time>2010-01-02T00:27:47Z</time>
      </trkpt>
      <trkpt lat="44.449580" lon="2.252930">
        <ele>500.709991</ele>
        <time>2010-01-02T00:27:53Z</time>
      </trkpt>
      <trkpt lat="44.451740" lon="2.252590">
        <ele>493.779999</ele>
        <time>2010-01-02T00:28:01Z</time>
      </trkpt>
      <trkpt lat="44.452120" lon="2.252580">
        <ele>492.983429</ele>
        <time>2010-01-02T00:29:52Z</time>
      </trkpt>
      <trkpt lat="44.452440" lon="2.252780">
        <ele>493.072510</ele>
        <time>2010-01-02T00:31:53Z</time>
      </trkpt>
      <trkpt lat="44.452630" lon="2.253020">
        <ele>494.262512</ele>
        <time>2010-01-02T00:32:07Z</time>
      </trkpt>
      <trkpt lat="44.452820" lon="2.253380">
        <ele>495.906189</ele>
        <time>2010-01-02T00:32:31Z</time>
      </trkpt>
      <trkpt lat="44.452960" lon="2.253530">
        <ele>496.343201</ele>
        <time>2010-01-02T00:32:42Z</time>
      </trkpt>
      <trkpt lat="44.453250" lon="2.253660">
        <ele>496.120300</ele>
        <time>2010-01-02T00:32:55Z</time>
      </trkpt>
      <trkpt lat="44.453460" lon="2.253650">
        <ele>495.901367</ele>
        <time>2010-01-02T00:33:18Z</time>
      </trkpt>
      <trkpt lat="44.453630" lon="2.253560">
        <ele>495.636993</ele>
        <time>2010-01-02T00:33:31Z</time>
      </trkpt>
      <trkpt lat="44.453730" lon="2.253380">
        <ele>495.049713</ele>
        <time>2010-01-02T00:33:40Z</time>
      </trkpt>
      <trkpt lat="44.453870" lon="2.252930">
        <ele>493.734863</ele>
        <time>2010-01-02T00:35:44Z</time>
      </trkpt>
      <trkpt lat="44.454260" lon="2.252460">
        <ele>492.01</ele>
        <time>2010-01-02T00:35:56Z</time>
      </trkpt>
      <trkpt lat="44.454500" lon="2.252220">
        <ele>491.06</ele>
        <time>2010-01-02T00:36:09Z</time>
      </trkpt>
      <trkpt lat="44.455120" lon="2.251890">
        <ele>490.12</ele>
        <time>2010-01-02T00:36:36Z</time>
      </trkpt>
      <trkpt lat="44.455290" lon="2.251710">
        <ele>489.84</ele>
        <time>2010-01-02T00:37:16Z</time>
      </trkpt>
      <trkpt lat="44.455390" lon="2.251560">
        <ele>489.60</ele>
        <time>2010-01-02T00:37:29Z</time>
      </trkpt>
      <trkpt lat="44.455560" lon="2.250890">
        <ele>488.06</ele>
        <time>2010-01-02T00:38:03Z</time>
      </trkpt>
      <trkpt lat="44.457630" lon="2.242250">
        <ele>483.91</ele>
        <time>2010-01-02T00:38:17Z</time>
      </trkpt>
      <trkpt lat="44.457770" lon="2.241550">
        <ele>483.46</ele>
        <time>2010-01-02T00:39:30Z</time>
      </trkpt>
      <trkpt lat="44.457900" lon="2.240060">
        <ele>481.87</ele>
        <time>2010-01-02T00:39:48Z</time>
      </trkpt>
      <trkpt lat="44.458407" lon="2.232094">
        <ele>485.39</ele>
        <time>2010-01-02T00:40:27Z</time>
      </trkpt>
      <trkpt lat="44.458500" lon="2.230920">
        <ele>487.48</ele>
        <time>2010-01-02T00:40:34Z</time>
      </trkpt>
      <trkpt lat="44.458580" lon="2.230550">
        <ele>487.91</ele>
        <time>2010-01-02T00:41:03Z</time>
      </trkpt>
      <trkpt lat="44.461030" lon="2.222500">
        <ele>476.21</ele>
        <time>2010-01-02T00:41:11Z</time>
      </trkpt>
      <trkpt lat="44.463390" lon="2.223250">
        <ele>472.67</ele>
        <time>2010-01-02T00:41:15Z</time>
      </trkpt>
      <trkpt lat="44.467180" lon="2.224510">
        <ele>473.45</ele>
        <time>2010-01-02T00:41:20Z</time>
      </trkpt>
      <trkpt lat="44.467250" lon="2.224580">
        <ele>473.34</ele>
        <time>2010-01-02T00:41:45Z</time>
      </trkpt>
      <trkpt lat="44.469280" lon="2.225270">
        <ele>475.01</ele>
        <time>2010-01-02T00:41:56Z</time>
      </trkpt>
      <trkpt lat="44.470390" lon="2.225610">
        <ele>479.34</ele>
        <time>2010-01-02T00:42:04Z</time>
      </trkpt>
      <trkpt lat="44.470490" lon="2.225600">
        <ele>479.76</ele>
        <time>2010-01-02T00:42:10Z</time>
      </trkpt>
      <trkpt lat="44.472640" lon="2.226320">
        <ele>482.64</ele>
        <time>2010-01-02T00:42:41Z</time>
      </trkpt>
      <trkpt lat="44.473100" lon="2.226560">
        <ele>482.34</ele>
        <time>2010-01-02T00:42:52Z</time>
      </trkpt>
      <trkpt lat="44.474360" lon="2.227440">
        <ele>478.68</ele>
        <time>2010-01-02T00:43:24Z</time>
      </trkpt>
      <trkpt lat="44.474540" lon="2.227510">
        <ele>477.21</ele>
        <time>2010-01-02T00:43:40Z</time>
      </trkpt>
      <trkpt lat="44.474880" lon="2.227490">
        <ele>474.51</ele>
        <time>2010-01-02T00:44:04Z</time>
      </trkpt>
      <trkpt lat="44.475070" lon="2.227540">
        <ele>472.98</ele>
        <time>2010-01-02T00:44:16Z</time>
      </trkpt>
      <trkpt lat="44.475670" lon="2.227960">
        <ele>468.74</ele>
        <time>2010-01-02T00:44:41Z</time>
      </trkpt>
      <trkpt lat="44.475990" lon="2.226750">
        <ele>468.74</ele>
        <time>2010-01-02T00:44:47Z</time>
      </trkpt>
      <trkpt lat="44.476550" lon="2.225260">
        <ele>473.97</ele>
        <time>2010-01-02T00:45:07Z</time>
      </trkpt>
      <trkpt lat="44.476620" lon="2.224820">
        <ele>475.440002</ele>
        <time>2010-01-02T00:45:13Z</time>
      </trkpt>
      <trkpt lat="44.476700" lon="2.223570">
        <ele>475.96</ele>
        <time>2010-01-02T00:45:55Z</time>
      </trkpt>
      <trkpt lat="44.477120" lon="2.221090">
        <ele>463.323761</ele>
        <time>2010-01-02T00:46:01Z</time>
      </trkpt>
      <trkpt lat="44.477265" lon="2.219575">
        <ele>457.996246</ele>
        <time>2010-01-02T00:46:05Z</time>
      </trkpt>
      <trkpt lat="44.477290" lon="2.219120">
        <ele>458.67</ele>
        <time>2010-01-02T00:46:08Z</time>
      </trkpt>
      <trkpt lat="44.477390" lon="2.216620">
        <ele>456.05</ele>
        <time>2010-01-02T00:46:41Z</time>
      </trkpt>
      <trkpt lat="44.477400" lon="2.212370">
        <ele>452.10</ele>
        <time>2010-01-02T00:46:48Z</time>
      </trkpt>
      <trkpt lat="44.477180" lon="2.209930">
        <ele>450.12</ele>
        <time>2010-01-02T00:46:56Z</time>
      </trkpt>
      <trkpt lat="44.477160" lon="2.209330">
        <ele>449.48</ele>
        <time>2010-01-02T00:47:14Z</time>
      </trkpt>
      <trkpt lat="44.477380" lon="2.204660">
        <ele>440.42</ele>
        <time>2010-01-02T00:47:35Z</time>
      </trkpt>
      <trkpt lat="44.477140" lon="2.203440">
        <ele>440.98</ele>
        <time>2010-01-02T00:47:43Z</time>
      </trkpt>
      <trkpt lat="44.477720" lon="2.198080">
        <ele>462.72</ele>
        <time>2010-01-02T00:48:11Z</time>
      </trkpt>
      <trkpt lat="44.477570" lon="2.194750">
        <ele>474.00</ele>
        <time>2010-01-02T00:48:37Z</time>
      </trkpt>
      <trkpt lat="44.477570" lon="2.192200">
        <ele>474.93</ele>
        <time>2010-01-02T00:48:50Z</time>
      </trkpt>
      <trkpt lat="44.477610" lon="2.191690">
        <ele>474.83</ele>
        <time>2010-01-02T00:49:24Z</time>
      </trkpt>
      <trkpt lat="44.477820" lon="2.190800">
        <ele>475.50</ele>
        <time>2010-01-02T00:49:29Z</time>
      </trkpt>
      <trkpt lat="44.478030" lon="2.189360">
        <ele>477.75</ele>
        <time>2010-01-02T00:49:38Z</time>
      </trkpt>
      <trkpt lat="44.477830" lon="2.187440">
        <ele>481.00</ele>
        <time>2010-01-02T00:49:45Z</time>
      </trkpt>
      <trkpt lat="44.477220" lon="2.182840">
        <ele>481.65</ele>
        <time>2010-01-02T00:49:49Z</time>
      </trkpt>
      <trkpt lat="44.477210" lon="2.179450">
        <ele>481.73</ele>
        <time>2010-01-02T00:50:26Z</time>
      </trkpt>
      <trkpt lat="44.477350" lon="2.178440">
        <ele>481.87</ele>
        <time>2010-01-02T00:50:58Z</time>
      </trkpt>
      <trkpt lat="44.477880" lon="2.176690">
        <ele>481.43</ele>
        <time>2010-01-02T00:51:31Z</time>
      </trkpt>
      <trkpt lat="44.479070" lon="2.174100">
        <ele>481.57</ele>
        <time>2010-01-02T00:51:36Z</time>
      </trkpt>
      <trkpt lat="44.479440" lon="2.172570">
        <ele>482.00</ele>
        <time>2010-01-02T00:51:43Z</time>
      </trkpt>
      <trkpt lat="44.479850" lon="2.169330">
        <ele>479.31</ele>
        <time>2010-01-02T00:51:57Z</time>
      </trkpt>
      <trkpt lat="44.479820" lon="2.168000">
        <ele>479.11</ele>
        <time>2010-01-02T00:52:03Z</time>
      </trkpt>
      <trkpt lat="44.479700" lon="2.166610">
        <ele>479.11</ele>
        <time>2010-01-02T00:52:08Z</time>
      </trkpt>
      <trkpt lat="44.479650" lon="2.164970">
        <ele>479.11</ele>
        <time>2010-01-02T00:53:20Z</time>
      </trkpt>
      <trkpt lat="44.479860" lon="2.164270">
        <ele>478.59</ele>
        <time>2010-01-02T00:53:32Z</time>
      </trkpt>
      <trkpt lat="44.481070" lon="2.160940">
        <ele>480.00</ele>
        <time>2010-01-02T00:53:52Z</time>
      </trkpt>
      <trkpt lat="44.481350" lon="2.160470">
        <ele>479.86</ele>
        <time>2010-01-02T00:54:25Z</time>
      </trkpt>
      <trkpt lat="44.482380" lon="2.159040">
        <ele>481.70</ele>
        <time>2010-01-02T00:54:42Z</time>
      </trkpt>
      <trkpt lat="44.482580" lon="2.158690">
        <ele>481.77</ele>
        <time>2010-01-02T00:54:58Z</time>
      </trkpt>
      <trkpt lat="44.483460" lon="2.156980">
        <ele>480.04</ele>
        <time>2010-01-02T00:55:08Z</time>
      </trkpt>
      <trkpt lat="44.483660" lon="2.156470">
        <ele>479.05</ele>
        <time>2010-01-02T00:55:49Z</time>
      </trkpt>
      <trkpt lat="44.483820" lon="2.155900">
        <ele>477.65</ele>
        <time>2010-01-02T00:55:52Z</time>
      </trkpt>
      <trkpt lat="44.483930" lon="2.155320">
        <ele>477.65</ele>
        <time>2010-01-02T00:56:25Z</time>
      </trkpt>
      <trkpt lat="44.483980" lon="2.154710">
        <ele>477.65</ele>
        <time>2010-01-02T00:56:44Z</time>
      </trkpt>
      <trkpt lat="44.483840" lon="2.152820">
        <ele>477.65</ele>
        <time>2010-01-02T00:56:48Z</time>
      </trkpt>
      <trkpt lat="44.483790" lon="2.151260">
        <ele>480.018738</ele>
        <time>2010-01-02T00:56:58Z</time>
      </trkpt>
      <trkpt lat="44.483780" lon="2.148970">
        <ele>483.347504</ele>
        <time>2010-01-02T00:57:08Z</time>
      </trkpt>
      <trkpt lat="44.483820" lon="2.148600">
        <ele>484.01</ele>
        <time>2010-01-02T00:57:13Z</time>
      </trkpt>
      <trkpt lat="44.484180" lon="2.147560">
        <ele>483.352661</ele>
        <time>2010-01-02T00:57:25Z</time>
      </trkpt>
      <trkpt lat="44.485000" lon="2.145870">
        <ele>479.892487</ele>
        <time>2010-01-02T00:57:42Z</time>
      </trkpt>
      <trkpt lat="44.485260" lon="2.145510">
        <ele>478.599213</ele>
        <time>2010-01-02T00:58:19Z</time>
      </trkpt>
      <trkpt lat="44.485690" lon="2.145250">
        <ele>478.800507</ele>
        <time>2010-01-02T00:58:33Z</time>
      </trkpt>
      <trkpt lat="44.486980" lon="2.145060">
        <ele>477.755005</ele>
        <time>2010-01-02T00:58:42Z</time>
      </trkpt>
      <trkpt lat="44.487330" lon="2.145240">
        <ele>477.666260</ele>
        <time>2010-01-02T00:59:14Z</time>
      </trkpt>
      <trkpt lat="44.487740" lon="2.145800">
        <ele>474.522064</ele>
        <time>2010-01-02T01:00:04Z</time>
      </trkpt>
      <trkpt lat="44.487900" lon="2.145950">
        <ele>473.744995</ele>
        <time>2010-01-02T01:00:10Z</time>
      </trkpt>
      <trkpt lat="44.488180" lon="2.146070">
        <ele>472.737488</ele>
        <time>2010-01-02T01:00:20Z</time>
      </trkpt>
      <trkpt lat="44.488470" lon="2.146040">
        <ele>471.186462</ele>
        <time>2010-01-02T01:00:30Z</time>
      </trkpt>
      <trkpt lat="44.488770" lon="2.145800">
        <ele>469.351990</ele>
        <time>2010-01-02T01:01:00Z</time>
      </trkpt>
      <trkpt lat="44.488950" lon="2.145430">
        <ele>467.988617</ele>
        <time>2010-01-02T01:01:14Z</time>
      </trkpt>
      <trkpt lat="44.489090" lon="2.144630">
        <ele>466.64</ele>
        <time>2010-01-02T01:03:20Z</time>
      </trkpt>
      <trkpt lat="44.489360" lon="2.143840">
        <ele>464.42</ele>
        <time>2010-01-02T01:03:25Z</time>
      </trkpt>
      <trkpt lat="44.489480" lon="2.143340">
        <ele>462.25</ele>
        <time>2010-01-02T01:03:35Z</time>
      </trkpt>
      <trkpt lat="44.489610" lon="2.143060">
        <ele>459.20</ele>
        <time>2010-01-02T01:03:40Z</time>
      </trkpt>
      <trkpt lat="44.489740" lon="2.142920">
        <ele>458.157928</ele>
        <time>2010-01-02T01:04:40Z</time>
      </trkpt>
      <trkpt lat="44.490010" lon="2.142790">
        <ele>457.542755</ele>
        <time>2010-01-02T01:05:08Z</time>
      </trkpt>
      <trkpt lat="44.490570" lon="2.142730">
        <ele>454.656830</ele>
        <time>2010-01-02T01:05:21Z</time>
      </trkpt>
      <trkpt lat="44.491280" lon="2.142390">
        <ele>452.092224</ele>
        <time>2010-01-02T01:05:29Z</time>
      </trkpt>
      <trkpt lat="44.491460" lon="2.142360">
        <ele>450.415009</ele>
        <time>2010-01-02T01:06:05Z</time>
      </trkpt>
      <trkpt lat="44.491730" lon="2.142420">
        <ele>448.839996</ele>
        <time>2010-01-02T01:06:14Z</time>
      </trkpt>
      <trkpt lat="44.492270" lon="2.142950">
        <ele>445.004639</ele>
        <time>2010-01-02T01:06:38Z</time>
      </trkpt>
      <trkpt lat="44.492500" lon="2.143100">
        <ele>443.469513</ele>
        <time>2010-01-02T01:08:12Z</time>
      </trkpt>
      <trkpt lat="44.492720" lon="2.143160">
        <ele>443.154602</ele>
        <time>2010-01-02T01:09:12Z</time>
      </trkpt>
      <trkpt lat="44.493090" lon="2.143100">
        <ele>442.316559</ele>
        <time>2010-01-02T01:11:15Z</time>
      </trkpt>
      <trkpt lat="44.494340" lon="2.142440">
        <ele>437.557526</ele>
        <time>2010-01-02T01:14:32Z</time>
      </trkpt>
      <trkpt lat="44.494600" lon="2.142250">
        <ele>437.86</ele>
        <time>2010-01-02T01:14:42Z</time>
      </trkpt>
      <trkpt lat="44.494990" lon="2.141840">
        <ele>438.807068</ele>
        <time>2010-01-02T01:16:23Z</time>
      </trkpt>
      <trkpt lat="44.495240" lon="2.141470">
        <ele>434.779022</ele>
        <time>2010-01-02T01:18:12Z</time>
      </trkpt>
      <trkpt lat="44.495360" lon="2.141150">
        <ele>432.577637</ele>
        <time>2010-01-02T01:18:42Z</time>
      </trkpt>
      <trkpt lat="44.495428" lon="2.140274">
        <ele>430.08</ele>
        <time>2010-01-02T01:19:07Z</time>
      </trkpt>
      <trkpt lat="44.494790" lon="2.139760">
        <ele>429.493408</ele>
        <time>2010-01-02T01:19:29Z</time>
      </trkpt>
      <trkpt lat="44.494730" lon="2.139630">
        <ele>429.33</ele>
        <time>2010-01-02T01:19:49Z</time>
      </trkpt>
      <trkpt lat="44.494750" lon="2.139470">
        <ele>427.218933</ele>
        <time>2010-01-02T01:20:18Z</time>
      </trkpt>
      <trkpt lat="44.494950" lon="2.138920">
        <ele>417.757538</ele>
        <time>2010-01-02T01:21:05Z</time>
      </trkpt>
      <trkpt lat="44.494990" lon="2.138220">
        <ele>414.597778</ele>
        <time>2010-01-02T01:21:09Z</time>
      </trkpt>
      <trkpt lat="44.495130" lon="2.137930">
        <ele>414.058716</ele>
        <time>2010-01-02T01:21:38Z</time>
      </trkpt>
      <trkpt lat="44.495970" lon="2.137230">
        <ele>403.331360</ele>
        <time>2010-01-02T01:21:47Z</time>
      </trkpt>
      <trkpt lat="44.496290" lon="2.136500">
        <ele>399.50</ele>
        <time>2010-01-02T01:21:56Z</time>
      </trkpt>
      <trkpt lat="44.496930" lon="2.135320">
        <ele>389.87</ele>
        <time>2010-01-02T01:22:10Z</time>
      </trkpt>
      <trkpt lat="44.496950" lon="2.135130">
        <ele>389.87</ele>
        <time>2010-01-02T01:22:47Z</time>
      </trkpt>
      <trkpt lat="44.496750" lon="2.134470">
        <ele>392.04</ele>
        <time>2010-01-02T01:23:00Z</time>
      </trkpt>
      <trkpt lat="44.496750" lon="2.134120">
        <ele>392.582672</ele>
        <time>2010-01-02T01:23:05Z</time>
      </trkpt>
      <trkpt lat="44.496870" lon="2.133790">
        <ele>391.527191</ele>
        <time>2010-01-02T01:23:20Z</time>
      </trkpt>
      <trkpt lat="44.496958" lon="2.133650">
        <ele>389.315796</ele>
        <time>2010-01-02T01:24:16Z</time>
      </trkpt>
      <trkpt lat="44.497205" lon="2.133519">
        <ele>379.52</ele>
        <time>2010-01-02T01:24:27Z</time>
      </trkpt>
      <trkpt lat="44.497313" lon="2.133396">
        <ele>379.52</ele>
        <time>2010-01-02T01:24:35Z</time>
      </trkpt>
      <trkpt lat="44.497371" lon="2.133194">
        <ele>379.52</ele>
        <time>2010-01-02T01:24:50Z</time>
      </trkpt>
      <trkpt lat="44.497362" lon="2.132842">
        <ele>381.32</ele>
        <time>2010-01-02T01:25:35Z</time>
      </trkpt>
      <trkpt lat="44.497440" lon="2.132580">
        <ele>382.304047</ele>
        <time>2010-01-02T01:25:58Z</time>
      </trkpt>
      <trkpt lat="44.497880" lon="2.132000">
        <ele>376.083740</ele>
        <time>2010-01-02T01:26:23Z</time>
      </trkpt>
      <trkpt lat="44.498200" lon="2.132000">
        <ele>367.324158</ele>
        <time>2010-01-02T01:26:27Z</time>
      </trkpt>
      <trkpt lat="44.498280" lon="2.131940">
        <ele>366.420715</ele>
        <time>2010-01-02T01:26:44Z</time>
      </trkpt>
      <trkpt lat="44.498610" lon="2.131390">
        <ele>364.836334</ele>
        <time>2010-01-02T01:27:02Z</time>
      </trkpt>
      <trkpt lat="44.498670" lon="2.131150">
        <ele>363.35</ele>
        <time>2010-01-02T01:27:16Z</time>
      </trkpt>
      <trkpt lat="44.498680" lon="2.130630">
        <ele>360.32</ele>
        <time>2010-01-02T01:27:31Z</time>
      </trkpt>
      <trkpt lat="44.498600" lon="2.130310">
        <ele>360.55</ele>
        <time>2010-01-02T01:27:58Z</time>
      </trkpt>
      <trkpt lat="44.498380" lon="2.129950">
        <ele>360.20</ele>
        <time>2010-01-02T01:28:14Z</time>
      </trkpt>
      <trkpt lat="44.498470" lon="2.129720">
        <ele>360.17</ele>
        <time>2010-01-02T01:28:17Z</time>
      </trkpt>
      <trkpt lat="44.498649" lon="2.129637">
        <ele>358.774078</ele>
        <time>2010-01-02T01:28:22Z</time>
      </trkpt>
      <trkpt lat="44.499550" lon="2.129860">
        <ele>342.510040</ele>
        <time>2010-01-02T01:28:26Z</time>
      </trkpt>
      <trkpt lat="44.499680" lon="2.129790">
        <ele>342.29</ele>
        <time>2010-01-02T01:28:31Z</time>
      </trkpt>
      <trkpt lat="44.500200" lon="2.128920">
        <ele>342.45</ele>
        <time>2010-01-02T01:29:09Z</time>
      </trkpt>
      <trkpt lat="44.501260" lon="2.127580">
        <ele>336.89</ele>
        <time>2010-01-02T01:29:30Z</time>
      </trkpt>
      <trkpt lat="44.501460" lon="2.127030">
        <ele>335.730011</ele>
        <time>2010-01-02T01:29:51Z</time>
      </trkpt>
      <trkpt lat="44.503150" lon="2.125770">
        <ele>311.393188</ele>
        <time>2010-01-02T01:30:03Z</time>
      </trkpt>
      <trkpt lat="44.503550" lon="2.125360">
        <ele>307.195007</ele>
        <time>2010-01-02T01:30:07Z</time>
      </trkpt>
      <trkpt lat="44.503670" lon="2.125030">
        <ele>307.84</ele>
        <time>2010-01-02T01:30:18Z</time>
      </trkpt>
      <trkpt lat="44.503680" lon="2.124890">
        <ele>307.24</ele>
        <time>2010-01-02T01:30:21Z</time>
      </trkpt>
      <trkpt lat="44.503620" lon="2.124200">
        <ele>306.837830</ele>
        <time>2010-01-02T01:30:26Z</time>
      </trkpt>
      <trkpt lat="44.503480" lon="2.123280">
        <ele>304.399292</ele>
        <time>2010-01-02T01:30:31Z</time>
      </trkpt>
      <trkpt lat="44.503500" lon="2.123050">
        <ele>303.549683</ele>
        <time>2010-01-02T01:31:04Z</time>
      </trkpt>
      <trkpt lat="44.503620" lon="2.122860">
        <ele>301.199615</ele>
        <time>2010-01-02T01:31:29Z</time>
      </trkpt>
      <trkpt lat="44.505920" lon="2.120650">
        <ele>275.242493</ele>
        <time>2010-01-02T01:31:55Z</time>
      </trkpt>
      <trkpt lat="44.506604" lon="2.120108">
        <ele>270.390015</ele>
        <time>2010-01-02T01:32:22Z</time>
      </trkpt>
      <trkpt lat="44.508590" lon="2.118660">
        <ele>265.197662</ele>
        <time>2010-01-02T01:32:53Z</time>
      </trkpt>
      <trkpt lat="44.508870" lon="2.118380">
        <ele>265.900452</ele>
        <time>2010-01-02T01:33:49Z</time>
      </trkpt>
      <trkpt lat="44.509250" lon="2.117750">
        <ele>266.054443</ele>
        <time>2010-01-02T01:33:57Z</time>
      </trkpt>
      <trkpt lat="44.509480" lon="2.117510">
        <ele>266.11</ele>
        <time>2010-01-02T01:34:20Z</time>
      </trkpt>
      <trkpt lat="44.509770" lon="2.117300">
        <ele>267.22</ele>
        <time>2010-01-02T01:34:37Z</time>
      </trkpt>
      <trkpt lat="44.510310" lon="2.117050">
        <ele>269.58</ele>
        <time>2010-01-02T01:34:50Z</time>
      </trkpt>
      <trkpt lat="44.510580" lon="2.116810">
        <ele>269.58</ele>
        <time>2010-01-02T01:34:58Z</time>
      </trkpt>
      <trkpt lat="44.510700" lon="2.116520">
        <ele>267.315826</ele>
        <time>2010-01-02T01:35:09Z</time>
      </trkpt>
      <trkpt lat="44.511320" lon="2.112260">
        <ele>254.117493</ele>
        <time>2010-01-02T01:35:58Z</time>
      </trkpt>
      <trkpt lat="44.511420" lon="2.111880">
        <ele>252.701538</ele>
        <time>2010-01-02T01:36:22Z</time>
      </trkpt>
      <trkpt lat="44.511550" lon="2.111693">
        <ele>252.239685</ele>
        <time>2010-01-02T01:36:31Z</time>
      </trkpt>
      <trkpt lat="44.511680" lon="2.111610">
        <ele>252.04</ele>
        <time>2010-01-02T01:36:52Z</time>
      </trkpt>
      <trkpt lat="44.512330" lon="2.111390">
        <ele>251.443344</ele>
        <time>2010-01-02T01:36:58Z</time>
      </trkpt>
      <trkpt lat="44.513240" lon="2.110770">
        <ele>249.688995</ele>
        <time>2010-01-02T01:37:12Z</time>
      </trkpt>
      <trkpt lat="44.513460" lon="2.110450">
        <ele>249.036606</ele>
        <time>2010-01-02T01:37:28Z</time>
      </trkpt>
      <trkpt lat="44.513830" lon="2.109390">
        <ele>247.578537</ele>
        <time>2010-01-02T01:37:46Z</time>
      </trkpt>
      <trkpt lat="44.513860" lon="2.108900">
        <ele>247.112503</ele>
        <time>2010-01-02T01:38:09Z</time>
      </trkpt>
      <trkpt lat="44.513629" lon="2.107218">
        <ele>244.653748</ele>
        <time>2010-01-02T01:38:35Z</time>
      </trkpt>
      <trkpt lat="44.513550" lon="2.106350">
        <ele>244.196121</ele>
        <time>2010-01-02T01:38:59Z</time>
      </trkpt>
      <trkpt lat="44.513630" lon="2.105730">
        <ele>244.118195</ele>
        <time>2010-01-02T01:39:52Z</time>
      </trkpt>
      <trkpt lat="44.513870" lon="2.104430">
        <ele>239.000000</ele>
        <time>2010-01-02T01:40:38Z</time>
      </trkpt>
      <trkpt lat="44.513850" lon="2.104170">
        <ele>239.43</ele>
        <time>2010-01-02T01:40:41Z</time>
      </trkpt>
      <trkpt lat="44.513640" lon="2.103190">
        <ele>239.43</ele>
        <time>2010-01-02T01:40:45Z</time>
      </trkpt>
      <trkpt lat="44.513640" lon="2.102940">
        <ele>239.43</ele>
        <time>2010-01-02T01:40:51Z</time>
      </trkpt>
      <trkpt lat="44.513680" lon="2.102780">
        <ele>238.69</ele>
        <time>2010-01-02T01:41:09Z</time>
      </trkpt>
      <trkpt lat="44.513770" lon="2.102670">
        <ele>235.512253</ele>
        <time>2010-01-02T01:41:17Z</time>
      </trkpt>
      <trkpt lat="44.514340" lon="2.102290">
        <ele>235.410614</ele>
        <time>2010-01-02T01:41:50Z</time>
      </trkpt>
      <trkpt lat="44.514610" lon="2.102250">
        <ele>239.72</ele>
        <time>2010-01-02T01:42:11Z</time>
      </trkpt>
      <trkpt lat="44.514790" lon="2.102320">
        <ele>242.331482</ele>
        <time>2010-01-02T01:42:38Z</time>
      </trkpt>
      <trkpt lat="44.514920" lon="2.102450">
        <ele>243.718948</ele>
        <time>2010-01-02T01:43:06Z</time>
      </trkpt>
      <trkpt lat="44.515450" lon="2.103220">
        <ele>243.344193</ele>
        <time>2010-01-02T01:43:29Z</time>
      </trkpt>
      <trkpt lat="44.515690" lon="2.103430">
        <ele>243.648224</ele>
        <time>2010-01-02T01:43:41Z</time>
      </trkpt>
      <trkpt lat="44.516380" lon="2.103960">
        <ele>247.357544</ele>
        <time>2010-01-02T01:43:49Z</time>
      </trkpt>
      <trkpt lat="44.516760" lon="2.104160">
        <ele>248.15</ele>
        <time>2010-01-02T01:43:58Z</time>
      </trkpt>
      <trkpt lat="44.517350" lon="2.104350">
        <ele>248.15</ele>
        <time>2010-01-02T01:44:04Z</time>
      </trkpt>
      <trkpt lat="44.517424" lon="2.104326">
        <ele>248.38</ele>
        <time>2010-01-02T01:44:10Z</time>
      </trkpt>
      <trkpt lat="44.517490" lon="2.104050">
        <ele>255.392975</ele>
        <time>2010-01-02T01:44:42Z</time>
      </trkpt>
      <trkpt lat="44.516910" lon="2.103690">
        <ele>255.175674</ele>
        <time>2010-01-02T01:45:11Z</time>
      </trkpt>
      <trkpt lat="44.516810" lon="2.103560">
        <ele>255.543564</ele>
        <time>2010-01-02T01:45:31Z</time>
      </trkpt>
      <trkpt lat="44.516520" lon="2.102970">
        <ele>258.829987</ele>
        <time>2010-01-02T01:45:56Z</time>
      </trkpt>
      <trkpt lat="44.516540" lon="2.102760">
        <ele>261.416077</ele>
        <time>2010-01-02T01:46:08Z</time>
      </trkpt>
      <trkpt lat="44.517220" lon="2.101640">
        <ele>276.05</ele>
        <time>2010-01-02T01:47:18Z</time>
      </trkpt>
      <trkpt lat="44.517340" lon="2.101540">
        <ele>276.57</ele>
        <time>2010-01-02T01:47:35Z</time>
      </trkpt>
      <trkpt lat="44.517430" lon="2.101600">
        <ele>276.57</ele>
        <time>2010-01-02T01:48:28Z</time>
      </trkpt>
      <trkpt lat="44.517470" lon="2.101700">
        <ele>276.371155</ele>
        <time>2010-01-02T01:49:26Z</time>
      </trkpt>
      <trkpt lat="44.517420" lon="2.102840">
        <ele>273.38</ele>
        <time>2010-01-02T01:49:44Z</time>
      </trkpt>
      <trkpt lat="44.517460" lon="2.103070">
        <ele>273.38</ele>
        <time>2010-01-02T01:50:01Z</time>
      </trkpt>
      <trkpt lat="44.517650" lon="2.103180">
        <ele>275.777405</ele>
        <time>2010-01-02T01:50:13Z</time>
      </trkpt>
      <trkpt lat="44.518110" lon="2.103210">
        <ele>286.61</ele>
        <time>2010-01-02T01:50:19Z</time>
      </trkpt>
      <trkpt lat="44.518560" lon="2.103600">
        <ele>285.36</ele>
        <time>2010-01-02T01:50:57Z</time>
      </trkpt>
      <trkpt lat="44.518740" lon="2.103580">
        <ele>285.36</ele>
        <time>2010-01-02T01:51:37Z</time>
      </trkpt>
      <trkpt lat="44.519410" lon="2.103210">
        <ele>294.849640</ele>
        <time>2010-01-02T01:52:01Z</time>
      </trkpt>
      <trkpt lat="44.519960" lon="2.102770">
        <ele>305.385010</ele>
        <time>2010-01-02T01:52:22Z</time>
      </trkpt>
      <trkpt lat="44.520300" lon="2.102800">
        <ele>305.804932</ele>
        <time>2010-01-02T01:52:40Z</time>
      </trkpt>
      <trkpt lat="44.521090" lon="2.103160">
        <ele>305.784393</ele>
        <time>2010-01-02T01:53:03Z</time>
      </trkpt>
      <trkpt lat="44.521220" lon="2.103130">
        <ele>306.017303</ele>
        <time>2010-01-02T01:53:15Z</time>
      </trkpt>
      <trkpt lat="44.521420" lon="2.102980">
        <ele>308.504486</ele>
        <time>2010-01-02T01:53:58Z</time>
      </trkpt>
      <trkpt lat="44.521510" lon="2.102790">
        <ele>311.332123</ele>
        <time>2010-01-02T01:54:21Z</time>
      </trkpt>
      <trkpt lat="44.521520" lon="2.102640">
        <ele>312.619263</ele>
        <time>2010-01-02T01:54:38Z</time>
      </trkpt>
      <trkpt lat="44.521380" lon="2.101360">
        <ele>320.15</ele>
        <time>2010-01-02T01:54:53Z</time>
      </trkpt>
      <trkpt lat="44.521020" lon="2.100340">
        <ele>329.223114</ele>
        <time>2010-01-02T01:55:07Z</time>
      </trkpt>
      <trkpt lat="44.520928" lon="2.100249">
        <ele>331.438141</ele>
        <time>2010-01-02T01:55:27Z</time>
      </trkpt>
      <trkpt lat="44.520829" lon="2.100275">
        <ele>333.01</ele>
        <time>2010-01-02T01:55:44Z</time>
      </trkpt>
      <trkpt lat="44.520490" lon="2.101000">
        <ele>332.61</ele>
        <time>2010-01-02T01:55:54Z</time>
      </trkpt>
      <trkpt lat="44.520380" lon="2.101060">
        <ele>332.80</ele>
        <time>2010-01-02T01:56:11Z</time>
      </trkpt>
      <trkpt lat="44.520210" lon="2.100990">
        <ele>334.33</ele>
        <time>2010-01-02T01:56:27Z</time>
      </trkpt>
      <trkpt lat="44.519910" lon="2.100730">
        <ele>335.26</ele>
        <time>2010-01-02T01:56:54Z</time>
      </trkpt>
      <trkpt lat="44.519810" lon="2.100580">
        <ele>334.92</ele>
        <time>2010-01-02T01:56:58Z</time>
      </trkpt>
      <trkpt lat="44.519780" lon="2.100400">
        <ele>335.14</ele>
        <time>2010-01-02T01:57:06Z</time>
      </trkpt>
      <trkpt lat="44.519790" lon="2.100099">
        <ele>335.84</ele>
        <time>2010-01-02T01:57:37Z</time>
      </trkpt>
      <trkpt lat="44.520090" lon="2.097910">
        <ele>342.87</ele>
        <time>2010-01-02T01:58:17Z</time>
      </trkpt>
      <trkpt lat="44.520210" lon="2.097540">
        <ele>344.48</ele>
        <time>2010-01-02T01:58:43Z</time>
      </trkpt>
      <trkpt lat="44.520500" lon="2.096980">
        <ele>348.29</ele>
        <time>2010-01-02T01:59:03Z</time>
      </trkpt>
      <trkpt lat="44.520790" lon="2.095890">
        <ele>348.516815</ele>
        <time>2010-01-02T01:59:32Z</time>
      </trkpt>
      <trkpt lat="44.520830" lon="2.095280">
        <ele>350.239990</ele>
        <time>2010-01-02T01:59:36Z</time>
      </trkpt>
      <trkpt lat="44.520800" lon="2.094740">
        <ele>351.42</ele>
        <time>2010-01-02T01:59:45Z</time>
      </trkpt>
      <trkpt lat="44.520720" lon="2.094400">
        <ele>351.42</ele>
        <time>2010-01-02T01:59:53Z</time>
      </trkpt>
      <trkpt lat="44.520770" lon="2.092970">
        <ele>351.358734</ele>
        <time>2010-01-02T02:00:04Z</time>
      </trkpt>
      <trkpt lat="44.520740" lon="2.092870">
        <ele>351.059418</ele>
        <time>2010-01-02T02:01:59Z</time>
      </trkpt>
      <trkpt lat="44.520190" lon="2.092010">
        <ele>354.563477</ele>
        <time>2010-01-02T02:02:06Z</time>
      </trkpt>
      <trkpt lat="44.519720" lon="2.091930">
        <ele>357.284943</ele>
        <time>2010-01-02T02:02:10Z</time>
      </trkpt>
      <trkpt lat="44.519700" lon="2.091780">
        <ele>360.016663</ele>
        <time>2010-01-02T02:02:19Z</time>
      </trkpt>
      <trkpt lat="44.519780" lon="2.091450">
        <ele>365.666748</ele>
        <time>2010-01-02T02:03:21Z</time>
      </trkpt>
      <trkpt lat="44.519690" lon="2.091120">
        <ele>366.42</ele>
        <time>2010-01-02T02:03:53Z</time>
      </trkpt>
      <trkpt lat="44.519620" lon="2.091000">
        <ele>366.721649</ele>
        <time>2010-01-02T02:04:00Z</time>
      </trkpt>
      <trkpt lat="44.519330" lon="2.090870">
        <ele>366.44</ele>
        <time>2010-01-02T02:04:42Z</time>
      </trkpt>
      <trkpt lat="44.518910" lon="2.090790">
        <ele>366.44</ele>
        <time>2010-01-02T02:05:36Z</time>
      </trkpt>
      <trkpt lat="44.518468" lon="2.090869">
        <ele>366.621674</ele>
        <time>2010-01-02T02:06:32Z</time>
      </trkpt>
      <trkpt lat="44.517990" lon="2.091030">
        <ele>366.703125</ele>
        <time>2010-01-02T02:06:55Z</time>
      </trkpt>
      <trkpt lat="44.517640" lon="2.091020">
        <ele>367.417755</ele>
        <time>2010-01-02T02:07:42Z</time>
      </trkpt>
      <trkpt lat="44.517440" lon="2.090880">
        <ele>369.334045</ele>
        <time>2010-01-02T02:09:00Z</time>
      </trkpt>
      <trkpt lat="44.517052" lon="2.090250">
        <ele>376.155579</ele>
        <time>2010-01-02T02:09:31Z</time>
      </trkpt>
      <trkpt lat="44.516890" lon="2.090070">
        <ele>377.267914</ele>
        <time>2010-01-02T02:09:46Z</time>
      </trkpt>
      <trkpt lat="44.515810" lon="2.089190">
        <ele>378.623566</ele>
        <time>2010-01-02T02:10:14Z</time>
      </trkpt>
      <trkpt lat="44.515700" lon="2.089040">
        <ele>378.763458</ele>
        <time>2010-01-02T02:14:35Z</time>
      </trkpt>
      <trkpt lat="44.515610" lon="2.088730">
        <ele>378.805115</ele>
        <time>2010-01-02T02:14:39Z</time>
      </trkpt>
      <trkpt lat="44.515580" lon="2.088380">
        <ele>378.273254</ele>
        <time>2010-01-02T02:14:47Z</time>
      </trkpt>
      <trkpt lat="44.515700" lon="2.087350">
        <ele>378.080994</ele>
        <time>2010-01-02T02:14:59Z</time>
      </trkpt>
      <trkpt lat="44.515850" lon="2.086880">
        <ele>376.79</ele>
        <time>2010-01-02T02:16:33Z</time>
      </trkpt>
      <trkpt lat="44.516343" lon="2.086062">
        <ele>376.79</ele>
        <time>2010-01-02T02:16:36Z</time>
      </trkpt>
      <trkpt lat="44.517860" lon="2.083520">
        <ele>377.107361</ele>
        <time>2010-01-02T02:16:40Z</time>
      </trkpt>
      <trkpt lat="44.517920" lon="2.083360">
        <ele>378.531097</ele>
        <time>2010-01-02T02:17:11Z</time>
      </trkpt>
      <trkpt lat="44.517960" lon="2.083000">
        <ele>380.486267</ele>
      </trkpt>
      <trkpt lat="44.517940" lon="2.082830">
        <ele>381.084015</ele>
      </trkpt>
      <trkpt lat="44.517373" lon="2.081529">
        <ele>384.207520</ele>
      </trkpt>
      <trkpt lat="44.517400" lon="2.080950">
        <ele>387.317566</ele>
      </trkpt>
      <trkpt lat="44.517780" lon="2.080140">
        <ele>389.000641</ele>
      </trkpt>
      <trkpt lat="44.517910" lon="2.079710">
        <ele>389.42</ele>
      </trkpt>
      <trkpt lat="44.517910" lon="2.079460">
        <ele>389.270996</ele>
      </trkpt>
      <trkpt lat="44.517660" lon="2.078220">
        <ele>386.487061</ele>
      </trkpt>
      <trkpt lat="44.517670" lon="2.077930">
        <ele>384.845825</ele>
      </trkpt>
      <trkpt lat="44.517900" lon="2.077140">
        <ele>382.539063</ele>
      </trkpt>
      <trkpt lat="44.518910" lon="2.074180">
        <ele>375.819458</ele>
      </trkpt>
      <trkpt lat="44.519520" lon="2.072240">
        <ele>368.412567</ele>
      </trkpt>
      <trkpt lat="44.520220" lon="2.069642">
        <ele>365.15</ele>
      </trkpt>
      <trkpt lat="44.520630" lon="2.068240">
        <ele>364.660004</ele>
      </trkpt>
      <trkpt lat="44.520848" lon="2.067584">
        <ele>364.647491</ele>
      </trkpt>
      <trkpt lat="44.521930" lon="2.064653">
        <ele>364.94</ele>
      </trkpt>
      <trkpt lat="44.522222" lon="2.064060">
        <ele>368.491699</ele>
      </trkpt>
      <trkpt lat="44.523410" lon="2.062640">
        <ele>368.721252</ele>
      </trkpt>
      <trkpt lat="44.523540" lon="2.062360">
        <ele>368.566254</ele>
      </trkpt>
      <trkpt lat="44.524240" lon="2.058960">
        <ele>361.137512</ele>
      </trkpt>
      <trkpt lat="44.525310" lon="2.055420">
        <ele>360.056946</ele>
      </trkpt>
      <trkpt lat="44.525417" lon="2.055293">
        <ele>359.949341</ele>
      </trkpt>
      <trkpt lat="44.525920" lon="2.054860">
        <ele>356.304047</ele>
      </trkpt>
      <trkpt lat="44.526260" lon="2.054120">
        <ele>350.376251</ele>
      </trkpt>
      <trkpt lat="44.526660" lon="2.053580">
        <ele>346.822510</ele>
      </trkpt>
      <trkpt lat="44.526850" lon="2.052950">
        <ele>342.569672</ele>
      </trkpt>
      <trkpt lat="44.526970" lon="2.051920">
        <ele>334.600647</ele>
      </trkpt>
      <trkpt lat="44.527343" lon="2.051346">
        <ele>331.491211</ele>
      </trkpt>
      <trkpt lat="44.527523" lon="2.051026">
        <ele>329.283173</ele>
      </trkpt>
      <trkpt lat="44.527780" lon="2.050760">
        <ele>326.23</ele>
      </trkpt>
      <trkpt lat="44.527890" lon="2.050710">
        <ele>325.661285</ele>
      </trkpt>
      <trkpt lat="44.528610" lon="2.050820">
        <ele>323.940521</ele>
      </trkpt>
      <trkpt lat="44.528820" lon="2.050730">
        <ele>323.025909</ele>
      </trkpt>
      <trkpt lat="44.529000" lon="2.050580">
        <ele>321.507080</ele>
      </trkpt>
      <trkpt lat="44.529260" lon="2.050210">
        <ele>321.080383</ele>
      </trkpt>
      <trkpt lat="44.529630" lon="2.049030">
        <ele>319.472992</ele>
      </trkpt>
      <trkpt lat="44.529710" lon="2.048610">
        <ele>318.350403</ele>
      </trkpt>
      <trkpt lat="44.529780" lon="2.048460">
        <ele>318.148132</ele>
      </trkpt>
      <trkpt lat="44.530070" lon="2.048100">
        <ele>317.316864</ele>
      </trkpt>
      <trkpt lat="44.531240" lon="2.047010">
        <ele>312.872040</ele>
      </trkpt>
      <trkpt lat="44.531400" lon="2.046720">
        <ele>312.204041</ele>
      </trkpt>
      <trkpt lat="44.531420" lon="2.046440">
        <ele>312.060303</ele>
      </trkpt>
      <trkpt lat="44.531350" lon="2.045930">
        <ele>311.013763</ele>
      </trkpt>
      <trkpt lat="44.531530" lon="2.044350">
        <ele>300.569794</ele>
      </trkpt>
      <trkpt lat="44.531700" lon="2.043610">
        <ele>297.507111</ele>
      </trkpt>
      <trkpt lat="44.531960" lon="2.042800">
        <ele>286.148132</ele>
      </trkpt>
      <trkpt lat="44.531940" lon="2.042660">
        <ele>285.178314</ele>
      </trkpt>
      <trkpt lat="44.531730" lon="2.042150">
        <ele>282.599121</ele>
      </trkpt>
      <trkpt lat="44.531440" lon="2.041670">
        <ele>276.545013</ele>
      </trkpt>
      <trkpt lat="44.531100" lon="2.041510">
        <ele>274.336304</ele>
      </trkpt>
      <trkpt lat="44.530720" lon="2.041440">
        <ele>271.678925</ele>
      </trkpt>
      <trkpt lat="44.530060" lon="2.041590">
        <ele>264.543762</ele>
      </trkpt>
      <trkpt lat="44.529900" lon="2.041738">
        <ele>262.590759</ele>
      </trkpt>
      <trkpt lat="44.529780" lon="2.041960">
        <ele>263.15</ele>
      </trkpt>
      <trkpt lat="44.529700" lon="2.042010">
        <ele>263.473541</ele>
      </trkpt>
      <trkpt lat="44.529580" lon="2.042000">
        <ele>263.586884</ele>
      </trkpt>
      <trkpt lat="44.529510" lon="2.041900">
        <ele>263.327667</ele>
      </trkpt>
      <trkpt lat="44.529520" lon="2.041720">
        <ele>262.822693</ele>
      </trkpt>
      <trkpt lat="44.529970" lon="2.040560">
        <ele>260.955048</ele>
      </trkpt>
      <trkpt lat="44.530160" lon="2.039860">
        <ele>259.658356</ele>
      </trkpt>
      <trkpt lat="44.530410" lon="2.039210">
        <ele>258.000000</ele>
      </trkpt>
      <trkpt lat="44.530320" lon="2.038820">
        <ele>258.000000</ele>
      </trkpt>
      <trkpt lat="44.530320" lon="2.038680">
        <ele>258.000000</ele>
      </trkpt>
      <trkpt lat="44.530520" lon="2.038420">
        <ele>258.428680</ele>
      </trkpt>
      <trkpt lat="44.530600" lon="2.038390">
        <ele>258.442200</ele>
      </trkpt>
      <trkpt lat="44.530730" lon="2.038430">
        <ele>258.278259</ele>
      </trkpt>
      <trkpt lat="44.530760" lon="2.038580">
        <ele>258.073212</ele>
      </trkpt>
      <trkpt lat="44.531440" lon="2.039250">
        <ele>257.520508</ele>
      </trkpt>
      <trkpt lat="44.531910" lon="2.039840">
        <ele>253.821503</ele>
      </trkpt>
      <trkpt lat="44.532500" lon="2.040220">
        <ele>247.422806</ele>
      </trkpt>
      <trkpt lat="44.533060" lon="2.040700">
        <ele>243.935516</ele>
      </trkpt>
      <trkpt lat="44.533830" lon="2.040900">
        <ele>243.621094</ele>
      </trkpt>
      <trkpt lat="44.535150" lon="2.041510">
        <ele>242.642548</ele>
      </trkpt>
      <trkpt lat="44.535320" lon="2.041650">
        <ele>242.673630</ele>
      </trkpt>
      <trkpt lat="44.535750" lon="2.042230">
        <ele>243.462662</ele>
      </trkpt>
      <trkpt lat="44.535950" lon="2.042720">
        <ele>242.629211</ele>
      </trkpt>
      <trkpt lat="44.536220" lon="2.042990">
        <ele>240.35</ele>
      </trkpt>
      <trkpt lat="44.536400" lon="2.043100">
        <ele>240.35</ele>
      </trkpt>
      <trkpt lat="44.536660" lon="2.043280">
        <ele>239.37</ele>
      </trkpt>
      <trkpt lat="44.537530" lon="2.044480">
        <ele>239.37</ele>
      </trkpt>
      <trkpt lat="44.538080" lon="2.044770">
        <ele>239.62</ele>
      </trkpt>
      <trkpt lat="44.538270" lon="2.044940">
        <ele>239.466797</ele>
      </trkpt>
      <trkpt lat="44.538620" lon="2.045510">
        <ele>230.840317</ele>
      </trkpt>
      <trkpt lat="44.538760" lon="2.045600">
        <ele>230.893814</ele>
      </trkpt>
      <trkpt lat="44.539100" lon="2.045610">
        <ele>229.177200</ele>
      </trkpt>
      <trkpt lat="44.539480" lon="2.045470">
        <ele>228.53</ele>
      </trkpt>
      <trkpt lat="44.539900" lon="2.045240">
        <ele>228.53</ele>
      </trkpt>
      <trkpt lat="44.540470" lon="2.045050">
        <ele>225.302094</ele>
      </trkpt>
      <trkpt lat="44.541080" lon="2.044710">
        <ele>221.313202</ele>
      </trkpt>
      <trkpt lat="44.541600" lon="2.044340">
        <ele>221.100067</ele>
      </trkpt>
      <trkpt lat="44.542720" lon="2.043320">
        <ele>218.54</ele>
      </trkpt>
      <trkpt lat="44.543580" lon="2.042260">
        <ele>216.099518</ele>
      </trkpt>
      <trkpt lat="44.543640" lon="2.042200">
        <ele>215.991501</ele>
      </trkpt>
      <trkpt lat="44.543740" lon="2.042190">
        <ele>214.453506</ele>
      </trkpt>
      <trkpt lat="44.543850" lon="2.042340">
        <ele>211.35</ele>
      </trkpt>
      <trkpt lat="44.544010" lon="2.042910">
        <ele>211.35</ele>
      </trkpt>
      <trkpt lat="44.544150" lon="2.043150">
        <ele>211.35</ele>
      </trkpt>
      <trkpt lat="44.544950" lon="2.043220">
        <ele>211.642456</ele>
      </trkpt>
      <trkpt lat="44.545460" lon="2.043410">
        <ele>212.27</ele>
      </trkpt>
      <trkpt lat="44.546130" lon="2.043500">
        <ele>209.41</ele>
      </trkpt>
      <trkpt lat="44.546780" lon="2.043890">
        <ele>209.41</ele>
      </trkpt>
      <trkpt lat="44.547040" lon="2.044620">
        <ele>211.32</ele>
      </trkpt>
      <trkpt lat="44.547330" lon="2.044560">
        <ele>211.32</ele>
      </trkpt>
      <trkpt lat="44.547470" lon="2.044340">
        <ele>211.32</ele>
      </trkpt>
      <trkpt lat="44.547550" lon="2.044050">
        <ele>211.32</ele>
      </trkpt>
      <trkpt lat="44.547670" lon="2.043960">
        <ele>211.405319</ele>
      </trkpt>
      <trkpt lat="44.547830" lon="2.043970">
        <ele>212.99</ele>
      </trkpt>
      <trkpt lat="44.548610" lon="2.044220">
        <ele>212.99</ele>
      </trkpt>
      <trkpt lat="44.549330" lon="2.044300">
        <ele>213.85</ele>
      </trkpt>
      <trkpt lat="44.549800" lon="2.044100">
        <ele>208.75</ele>
      </trkpt>
      <trkpt lat="44.550430" lon="2.044160">
        <ele>208.15</ele>
      </trkpt>
      <trkpt lat="44.550720" lon="2.044130">
        <ele>208.15</ele>
      </trkpt>
      <trkpt lat="44.552430" lon="2.043620">
        <ele>206.335800</ele>
      </trkpt>
      <trkpt lat="44.552850" lon="2.043540">
        <ele>202.212158</ele>
      </trkpt>
      <trkpt lat="44.554190" lon="2.043640">
        <ele>201.000854</ele>
      </trkpt>
      <trkpt lat="44.555610" lon="2.043930">
        <ele>196.582672</ele>
      </trkpt>
      <trkpt lat="44.556070" lon="2.043960">
        <ele>193.199524</ele>
      </trkpt>
      <trkpt lat="44.556470" lon="2.044100">
        <ele>192.310242</ele>
      </trkpt>
      <trkpt lat="44.556770" lon="2.043950">
        <ele>189.09</ele>
      </trkpt>
      <trkpt lat="44.556900" lon="2.043940">
        <ele>188.077469</ele>
      </trkpt>
      <trkpt lat="44.557750" lon="2.044530">
        <ele>185.969193</ele>
      </trkpt>
      <trkpt lat="44.558750" lon="2.044650">
        <ele>182.64</ele>
      </trkpt>
      <trkpt lat="44.559320" lon="2.044960">
        <ele>183.02</ele>
      </trkpt>
      <trkpt lat="44.559750" lon="2.045390">
        <ele>184.073929</ele>
      </trkpt>
      <trkpt lat="44.560130" lon="2.045690">
        <ele>185.86</ele>
      </trkpt>
      <trkpt lat="44.560680" lon="2.045980">
        <ele>185.907501</ele>
      </trkpt>
      <trkpt lat="44.560970" lon="2.046080">
        <ele>185.35</ele>
      </trkpt>
      <trkpt lat="44.562040" lon="2.046000">
        <ele>180.30</ele>
      </trkpt>
      <trkpt lat="44.562600" lon="2.045770">
        <ele>177.063751</ele>
      </trkpt>
      <trkpt lat="44.562950" lon="2.045490">
        <ele>174.54</ele>
      </trkpt>
      <trkpt lat="44.563250" lon="2.045140">
        <ele>174.54</ele>
      </trkpt>
      <trkpt lat="44.563560" lon="2.044960">
        <ele>174.54</ele>
      </trkpt>
      <trkpt lat="44.564060" lon="2.044760">
        <ele>174.54</ele>
      </trkpt>
      <trkpt lat="44.564380" lon="2.044410">
        <ele>174.94</ele>
      </trkpt>
      <trkpt lat="44.564640" lon="2.044410">
        <ele>174.94</ele>
      </trkpt>
      <trkpt lat="44.565030" lon="2.044180">
        <ele>175.253677</ele>
      </trkpt>
      <trkpt lat="44.565420" lon="2.044030">
        <ele>175.845703</ele>
      </trkpt>
      <trkpt lat="44.566080" lon="2.044050">
        <ele>177.843750</ele>
      </trkpt>
      <trkpt lat="44.566190" lon="2.044110">
        <ele>178.469620</ele>
      </trkpt>
      <trkpt lat="44.566330" lon="2.044290">
        <ele>180.194611</ele>
      </trkpt>
      <trkpt lat="44.566570" lon="2.045340">
        <ele>184.766220</ele>
      </trkpt>
      <trkpt lat="44.566440" lon="2.046730">
        <ele>191.236038</ele>
      </trkpt>
      <trkpt lat="44.566300" lon="2.047600">
        <ele>191.40</ele>
      </trkpt>
      <trkpt lat="44.566070" lon="2.048220">
        <ele>193.694885</ele>
      </trkpt>
      <trkpt lat="44.565680" lon="2.049090">
        <ele>195.210052</ele>
      </trkpt>
      <trkpt lat="44.565660" lon="2.049220">
        <ele>195.328888</ele>
      </trkpt>
      <trkpt lat="44.565710" lon="2.049520">
        <ele>195.206436</ele>
      </trkpt>
      <trkpt lat="44.565810" lon="2.049790">
        <ele>195.450836</ele>
      </trkpt>
      <trkpt lat="44.566000" lon="2.050030">
        <ele>197.384186</ele>
      </trkpt>
      <trkpt lat="44.568400" lon="2.052300">
        <ele>213.639999</ele>
      </trkpt>
      <trkpt lat="44.568520" lon="2.052470">
        <ele>213.907501</ele>
      </trkpt>
      <trkpt lat="44.568550" lon="2.052580">
        <ele>213.972504</ele>
      </trkpt>
      <trkpt lat="44.568540" lon="2.052920">
        <ele>214.04</ele>
      </trkpt>
      <trkpt lat="44.567730" lon="2.054760">
        <ele>216.86</ele>
      </trkpt>
      <trkpt lat="44.567270" lon="2.055690">
        <ele>218.53</ele>
      </trkpt>
      <trkpt lat="44.567120" lon="2.055790">
        <ele>218.82</ele>
      </trkpt>
      <trkpt lat="44.566110" lon="2.056150">
        <ele>220.07</ele>
      </trkpt>
      <trkpt lat="44.564910" lon="2.057020">
        <ele>216.37</ele>
      </trkpt>
      <trkpt lat="44.563720" lon="2.058070">
        <ele>214.06</ele>
      </trkpt>
      <trkpt lat="44.563260" lon="2.058530">
        <ele>213.80</ele>
      </trkpt>
      <trkpt lat="44.562370" lon="2.059600">
        <ele>211.63</ele>
      </trkpt>
      <trkpt lat="44.561180" lon="2.061770">
        <ele>202.52</ele>
      </trkpt>
      <trkpt lat="44.560800" lon="2.062740">
        <ele>191.34</ele>
      </trkpt>
      <trkpt lat="44.560550" lon="2.063110">
        <ele>190.29</ele>
      </trkpt>
      <trkpt lat="44.559990" lon="2.063740">
        <ele>191.18</ele>
      </trkpt>
      <trkpt lat="44.559750" lon="2.064425">
        <ele>191.18</ele>
      </trkpt>
      <trkpt lat="44.559332" lon="2.065219">
        <ele>189.72</ele>
      </trkpt>
      <trkpt lat="44.559188" lon="2.065656">
        <ele>188.440796</ele>
      </trkpt>
      <trkpt lat="44.558886" lon="2.067317">
        <ele>187.945999</ele>
      </trkpt>
      <trkpt lat="44.558746" lon="2.067825">
        <ele>185.782104</ele>
      </trkpt>
      <trkpt lat="44.558437" lon="2.068482">
        <ele>188.418228</ele>
      </trkpt>
      <trkpt lat="44.558282" lon="2.069036">
        <ele>186.417404</ele>
      </trkpt>
      <trkpt lat="44.558179" lon="2.069701">
        <ele>183.689682</ele>
      </trkpt>
      <trkpt lat="44.558026" lon="2.070156">
        <ele>183.488907</ele>
      </trkpt>
      <trkpt lat="44.557663" lon="2.070808">
        <ele>182.152374</ele>
      </trkpt>
      <trkpt lat="44.557090" lon="2.071730">
        <ele>180.579376</ele>
      </trkpt>
      <trkpt lat="44.557010" lon="2.071830">
        <ele>180.429565</ele>
      </trkpt>
      <trkpt lat="44.557010" lon="2.072100">
        <ele>179.313721</ele>
      </trkpt>
      <trkpt lat="44.557100" lon="2.072500">
        <ele>177.792007</ele>
      </trkpt>
      <trkpt lat="44.558640" lon="2.074990">
        <ele>172.829239</ele>
      </trkpt>
      <trkpt lat="44.558650" lon="2.075120">
        <ele>172.884003</ele>
      </trkpt>
      <trkpt lat="44.558600" lon="2.075220">
        <ele>172.850555</ele>
      </trkpt>
      <trkpt lat="44.557830" lon="2.075090">
        <ele>172.253754</ele>
      </trkpt>
      <trkpt lat="44.557740" lon="2.075060">
        <ele>172.206253</ele>
        <time>2010-01-01T14:31:38Z</time>
      </trkpt>
      <trkpt lat="44.558690" lon="2.075240">
        <ele>172.96</ele>
        <time>2010-01-01T14:32:17Z</time>
      </trkpt>
      <trkpt lat="44.558830" lon="2.075320">
        <ele>173.00</ele>
        <time>2010-01-01T14:32:23Z</time>
      </trkpt>
      <trkpt lat="44.559840" lon="2.076970">
        <ele>173.00</ele>
        <time>2010-01-01T14:33:25Z</time>
      </trkpt>
      <trkpt lat="44.560100" lon="2.077320">
        <ele>173.00</ele>
        <time>2010-01-01T14:33:39Z</time>
      </trkpt>
      <trkpt lat="44.560200" lon="2.077380">
        <ele>173.00</ele>
        <time>2010-01-01T14:33:44Z</time>
      </trkpt>
      <trkpt lat="44.560380" lon="2.077400">
        <ele>173.00</ele>
        <time>2010-01-01T14:33:51Z</time>
      </trkpt>
      <trkpt lat="44.560510" lon="2.077350">
        <ele>173.28</ele>
        <time>2010-01-01T14:33:56Z</time>
      </trkpt>
      <trkpt lat="44.560840" lon="2.076890">
        <ele>172.23</ele>
        <time>2010-01-01T14:34:15Z</time>
      </trkpt>
      <trkpt lat="44.561600" lon="2.075710">
        <ele>172.23</ele>
        <time>2010-01-01T14:35:00Z</time>
      </trkpt>
      <trkpt lat="44.561920" lon="2.075390">
        <ele>170.37</ele>
        <time>2010-01-01T14:35:16Z</time>
      </trkpt>
      <trkpt lat="44.561870" lon="2.075280">
        <ele>170.16</ele>
        <time>2010-01-01T14:35:20Z</time>
      </trkpt>
      <trkpt lat="44.561860" lon="2.075120">
        <ele>169.64</ele>
        <time>2010-01-01T14:35:24Z</time>
      </trkpt>
      <trkpt lat="44.561940" lon="2.074940">
        <ele>169.08</ele>
        <time>2010-01-01T14:35:30Z</time>
      </trkpt>
      <trkpt lat="44.562160" lon="2.074980">
        <ele>169.08</ele>
        <time>2010-01-01T14:35:39Z</time>
      </trkpt>
      <trkpt lat="44.562620" lon="2.074950">
        <ele>168.38</ele>
        <time>2010-01-01T14:35:58Z</time>
      </trkpt>
      <trkpt lat="44.563460" lon="2.074640">
        <ele>168.42</ele>
        <time>2010-01-01T14:36:32Z</time>
      </trkpt>
      <trkpt lat="44.564732" lon="2.074038">
        <ele>168.63</ele>
        <time>2010-01-01T14:40:14Z</time>
      </trkpt>
      <trkpt lat="44.565550" lon="2.073804">
        <ele>168.00</ele>
        <time>2010-01-01T14:41:19Z</time>
      </trkpt>
      <trkpt lat="44.568890" lon="2.073250">
        <ele>168.00</ele>
        <time>2010-01-01T14:41:49Z</time>
      </trkpt>
      <trkpt lat="44.570490" lon="2.072900">
        <ele>167.00</ele>
        <time>2010-01-01T14:41:56Z</time>
      </trkpt>
      <trkpt lat="44.571240" lon="2.072790">
        <ele>167.00</ele>
        <time>2010-01-01T14:42:02Z</time>
      </trkpt>
      <trkpt lat="44.571410" lon="2.072840">
        <ele>166.95</ele>
        <time>2010-01-01T14:42:05Z</time>
      </trkpt>
      <trkpt lat="44.571500" lon="2.073000">
        <ele>167.00</ele>
        <time>2010-01-01T14:42:15Z</time>
      </trkpt>
      <trkpt lat="44.571570" lon="2.073020">
        <ele>167.00</ele>
        <time>2010-01-01T14:42:26Z</time>
      </trkpt>
      <trkpt lat="44.571820" lon="2.072890">
        <ele>167.00</ele>
        <time>2010-01-01T14:42:41Z</time>
      </trkpt>
      <trkpt lat="44.572100" lon="2.072880">
        <ele>167.00</ele>
        <time>2010-01-01T14:44:03Z</time>
      </trkpt>
      <trkpt lat="44.572460" lon="2.073010">
        <ele>167.000000</ele>
        <time>2010-01-01T14:45:15Z</time>
      </trkpt>
      <trkpt lat="44.574490" lon="2.073180">
        <ele>167.00</ele>
        <time>2010-01-01T14:46:06Z</time>
      </trkpt>
      <trkpt lat="44.575414" lon="2.073296">
        <ele>167.00</ele>
        <time>2010-01-01T14:47:06Z</time>
      </trkpt>
      <trkpt lat="44.576290" lon="2.073500">
        <ele>167.000000</ele>
        <time>2010-01-01T14:47:10Z</time>
      </trkpt>
      <trkpt lat="44.577132" lon="2.073700">
        <ele>168.89</ele>
        <time>2010-01-01T14:47:59Z</time>
      </trkpt>
      <trkpt lat="44.577520" lon="2.073940">
        <ele>170.261932</ele>
        <time>2010-01-01T14:48:11Z</time>
      </trkpt>
      <trkpt lat="44.577930" lon="2.071920">
        <ele>177.821121</ele>
        <time>2010-01-01T14:48:31Z</time>
      </trkpt>
      <trkpt lat="44.577990" lon="2.071840">
        <ele>179.69</ele>
        <time>2010-01-01T14:50:45Z</time>
      </trkpt>
      <trkpt lat="44.579210" lon="2.072150">
        <ele>181.71</ele>
        <time>2010-01-01T14:51:40Z</time>
      </trkpt>
      <trkpt lat="44.579500" lon="2.072260">
        <ele>181.71</ele>
        <time>2010-01-01T14:53:12Z</time>
      </trkpt>
      <trkpt lat="44.579950" lon="2.072540">
        <ele>180.29</ele>
        <time>2010-01-01T14:56:31Z</time>
      </trkpt>
      <trkpt lat="44.582470" lon="2.075650">
        <ele>170.67</ele>
        <time>2010-01-01T14:56:56Z</time>
      </trkpt>
      <trkpt lat="44.583600" lon="2.076750">
        <ele>172.71</ele>
        <time>2010-01-01T14:57:40Z</time>
      </trkpt>
      <trkpt lat="44.585630" lon="2.078260">
        <ele>177.736298</ele>
        <time>2010-01-01T14:58:40Z</time>
      </trkpt>
      <trkpt lat="44.586040" lon="2.078663">
        <ele>179.938339</ele>
        <time>2010-01-01T14:59:04Z</time>
      </trkpt>
      <trkpt lat="44.586576" lon="2.079458">
        <ele>182.89</ele>
        <time>2010-01-01T15:00:17Z</time>
      </trkpt>
      <trkpt lat="44.587142" lon="2.080370">
        <ele>182.31</ele>
        <time>2010-01-01T15:00:33Z</time>
      </trkpt>
      <trkpt lat="44.587520" lon="2.081294">
        <ele>182.42</ele>
        <time>2010-01-01T15:01:05Z</time>
      </trkpt>
      <trkpt lat="44.587726" lon="2.081959">
        <ele>182.53</ele>
        <time>2010-01-01T15:01:20Z</time>
      </trkpt>
      <trkpt lat="44.587870" lon="2.082688">
        <ele>182.71</ele>
        <time>2010-01-01T15:01:53Z</time>
      </trkpt>
      <trkpt lat="44.587879" lon="2.083366">
        <ele>176.64</ele>
        <time>2010-01-01T15:02:08Z</time>
      </trkpt>
      <trkpt lat="44.587820" lon="2.084140">
        <ele>172.51</ele>
        <time>2010-01-01T15:02:58Z</time>
      </trkpt>
      <trkpt lat="44.587590" lon="2.084940">
        <ele>176.00</ele>
        <time>2010-01-01T15:04:38Z</time>
      </trkpt>
      <trkpt lat="44.587060" lon="2.086310">
        <ele>180.980301</ele>
        <time>2010-01-01T15:05:12Z</time>
      </trkpt>
      <trkpt lat="44.586210" lon="2.088020">
        <ele>186.24</ele>
        <time>2010-01-01T15:05:47Z</time>
      </trkpt>
      <trkpt lat="44.585810" lon="2.088670">
        <ele>186.24</ele>
        <time>2010-01-01T15:06:25Z</time>
      </trkpt>
      <trkpt lat="44.584490" lon="2.090440">
        <ele>179.92</ele>
        <time>2010-01-01T15:06:39Z</time>
      </trkpt>
      <trkpt lat="44.584190" lon="2.090780">
        <ele>177.855499</ele>
        <time>2010-01-01T15:07:11Z</time>
      </trkpt>
      <trkpt lat="44.583510" lon="2.091360">
        <ele>170.85</ele>
        <time>2010-01-01T15:07:31Z</time>
      </trkpt>
      <trkpt lat="44.583740" lon="2.091770">
        <ele>172.73</ele>
        <time>2010-01-01T15:08:08Z</time>
      </trkpt>
      <trkpt lat="44.584140" lon="2.092790">
        <ele>176.886673</ele>
        <time>2010-01-01T15:08:16Z</time>
      </trkpt>
      <trkpt lat="44.584380" lon="2.093210">
        <ele>177.565994</ele>
        <time>2010-01-01T15:08:21Z</time>
      </trkpt>
      <trkpt lat="44.585330" lon="2.094350">
        <ele>178.374222</ele>
        <time>2010-01-01T15:08:51Z</time>
      </trkpt>
      <trkpt lat="44.587410" lon="2.096310">
        <ele>180.166733</ele>
        <time>2010-01-01T15:09:27Z</time>
      </trkpt>
      <trkpt lat="44.588140" lon="2.096870">
        <ele>182.55</ele>
        <time>2010-01-01T15:09:40Z</time>
      </trkpt>
      <trkpt lat="44.588880" lon="2.097570">
        <ele>183.05</ele>
        <time>2010-01-01T15:09:48Z</time>
      </trkpt>
      <trkpt lat="44.589720" lon="2.098140">
        <ele>187.76</ele>
        <time>2010-01-01T15:09:54Z</time>
      </trkpt>
      <trkpt lat="44.590020" lon="2.098390">
        <ele>187.76</ele>
        <time>2010-01-01T15:10:42Z</time>
      </trkpt>
      <trkpt lat="44.590570" lon="2.099220">
        <ele>187.76</ele>
        <time>2010-01-01T15:10:52Z</time>
      </trkpt>
      <trkpt lat="44.590790" lon="2.099850">
        <ele>188.332581</ele>
        <time>2010-01-01T15:10:59Z</time>
      </trkpt>
      <trkpt lat="44.591090" lon="2.101060">
        <ele>185.50</ele>
        <time>2010-01-01T15:11:12Z</time>
      </trkpt>
      <trkpt lat="44.591200" lon="2.101300">
        <ele>185.50</ele>
        <time>2010-01-01T15:11:19Z</time>
      </trkpt>
      <trkpt lat="44.591310" lon="2.101420">
        <ele>185.50</ele>
        <time>2010-01-01T15:11:41Z</time>
      </trkpt>
      <trkpt lat="44.591990" lon="2.101860">
        <ele>186.26</ele>
        <time>2010-01-01T15:12:31Z</time>
      </trkpt>
      <trkpt lat="44.592830" lon="2.102320">
        <ele>184.30</ele>
        <time>2010-01-01T15:12:58Z</time>
      </trkpt>
      <trkpt lat="44.593080" lon="2.102580">
        <ele>184.30</ele>
        <time>2010-01-01T15:13:18Z</time>
      </trkpt>
      <trkpt lat="44.593190" lon="2.102810">
        <ele>185.868439</ele>
        <time>2010-01-01T15:13:54Z</time>
      </trkpt>
      <trkpt lat="44.593240" lon="2.103030">
        <ele>186.935715</ele>
        <time>2010-01-01T15:14:42Z</time>
      </trkpt>
      <trkpt lat="44.593290" lon="2.104690">
        <ele>186.785736</ele>
        <time>2010-01-01T15:14:58Z</time>
      </trkpt>
      <trkpt lat="44.593390" lon="2.105030">
        <ele>187.049149</ele>
        <time>2010-01-01T15:15:09Z</time>
      </trkpt>
      <trkpt lat="44.593510" lon="2.105180">
        <ele>188.016693</ele>
        <time>2010-01-01T15:15:17Z</time>
      </trkpt>
      <trkpt lat="44.593810" lon="2.105380">
        <ele>189.172668</ele>
        <time>2010-01-01T15:16:35Z</time>
      </trkpt>
      <trkpt lat="44.593940" lon="2.105540">
        <ele>189.709198</ele>
        <time>2010-01-01T15:17:00Z</time>
      </trkpt>
      <trkpt lat="44.594170" lon="2.106230">
        <ele>189.333313</ele>
        <time>2010-01-01T15:17:32Z</time>
      </trkpt>
      <trkpt lat="44.595000" lon="2.107570">
        <ele>191.39</ele>
        <time>2010-01-01T15:18:14Z</time>
      </trkpt>
      <trkpt lat="44.595370" lon="2.108360">
        <ele>192.05</ele>
        <time>2010-01-01T15:19:05Z</time>
      </trkpt>
      <trkpt lat="44.595690" lon="2.108870">
        <ele>192.05</ele>
        <time>2010-01-01T15:19:15Z</time>
      </trkpt>
      <trkpt lat="44.596400" lon="2.109670">
        <ele>192.05</ele>
        <time>2010-01-01T15:20:56Z</time>
      </trkpt>
      <trkpt lat="44.597380" lon="2.110630">
        <ele>192.05</ele>
        <time>2010-01-01T15:21:52Z</time>
      </trkpt>
      <trkpt lat="44.597560" lon="2.111130">
        <ele>192.05</ele>
        <time>2010-01-01T15:22:06Z</time>
      </trkpt>
      <trkpt lat="44.597590" lon="2.111520">
        <ele>192.05</ele>
        <time>2010-01-01T15:22:18Z</time>
      </trkpt>
      <trkpt lat="44.597660" lon="2.111780">
        <ele>192.34</ele>
        <time>2010-01-01T15:22:46Z</time>
      </trkpt>
      <trkpt lat="44.598830" lon="2.113960">
        <ele>199.02</ele>
        <time>2010-01-01T15:23:01Z</time>
      </trkpt>
      <trkpt lat="44.599260" lon="2.114600">
        <ele>199.73</ele>
        <time>2010-01-01T15:23:21Z</time>
      </trkpt>
      <trkpt lat="44.599870" lon="2.115330">
        <ele>200.86</ele>
        <time>2010-01-01T15:23:41Z</time>
      </trkpt>
      <trkpt lat="44.600410" lon="2.116590">
        <ele>202.76</ele>
        <time>2010-01-01T15:24:10Z</time>
      </trkpt>
      <trkpt lat="44.601177" lon="2.117509">
        <ele>208.97</ele>
        <time>2010-01-01T15:24:21Z</time>
      </trkpt>
      <trkpt lat="44.601340" lon="2.117810">
        <ele>210.80</ele>
        <time>2010-01-01T15:24:57Z</time>
      </trkpt>
      <trkpt lat="44.601410" lon="2.118150">
        <ele>211.57</ele>
        <time>2010-01-01T15:25:02Z</time>
      </trkpt>
      <trkpt lat="44.601491" lon="2.119059">
        <ele>214.62</ele>
        <time>2010-01-01T15:25:21Z</time>
      </trkpt>
      <trkpt lat="44.601779" lon="2.120128">
        <ele>218.71</ele>
        <time>2010-01-01T15:25:26Z</time>
      </trkpt>
      <trkpt lat="44.601869" lon="2.120974">
        <ele>220.26</ele>
        <time>2010-01-01T15:25:33Z</time>
      </trkpt>
      <trkpt lat="44.602020" lon="2.121560">
        <ele>220.62</ele>
        <time>2010-01-01T15:25:47Z</time>
      </trkpt>
      <trkpt lat="44.602264" lon="2.121860">
        <ele>220.56</ele>
        <time>2010-01-01T15:25:58Z</time>
      </trkpt>
      <trkpt lat="44.602632" lon="2.122108">
        <ele>219.59</ele>
        <time>2010-01-01T15:26:16Z</time>
      </trkpt>
      <trkpt lat="44.603000" lon="2.122960">
        <ele>222.61</ele>
        <time>2010-01-01T15:26:33Z</time>
      </trkpt>
      <trkpt lat="44.603250" lon="2.123260">
        <ele>226.08</ele>
        <time>2010-01-01T15:27:08Z</time>
      </trkpt>
      <trkpt lat="44.603550" lon="2.123390">
        <ele>227.66</ele>
        <time>2010-01-01T15:27:32Z</time>
      </trkpt>
      <trkpt lat="44.604240" lon="2.123400">
        <ele>228.13</ele>
        <time>2010-01-01T15:27:49Z</time>
      </trkpt>
      <trkpt lat="44.604610" lon="2.123510">
        <ele>230.08</ele>
        <time>2010-01-01T15:28:21Z</time>
      </trkpt>
      <trkpt lat="44.605090" lon="2.123700">
        <ele>232.43</ele>
        <time>2010-01-01T15:29:03Z</time>
      </trkpt>
      <trkpt lat="44.605550" lon="2.123980">
        <ele>234.95</ele>
        <time>2010-01-01T15:29:34Z</time>
      </trkpt>
      <trkpt lat="44.606250" lon="2.124250">
        <ele>238.63</ele>
        <time>2010-01-01T15:29:39Z</time>
      </trkpt>
      <trkpt lat="44.606470" lon="2.124490">
        <ele>239.55</ele>
        <time>2010-01-01T15:29:45Z</time>
      </trkpt>
      <trkpt lat="44.607100" lon="2.125330">
        <ele>241.05</ele>
        <time>2010-01-01T15:29:49Z</time>
      </trkpt>
      <trkpt lat="44.607150" lon="2.125490">
        <ele>241.61</ele>
        <time>2010-01-01T15:29:53Z</time>
      </trkpt>
      <trkpt lat="44.607150" lon="2.126160">
        <ele>247.28</ele>
        <time>2010-01-01T15:29:57Z</time>
      </trkpt>
      <trkpt lat="44.607180" lon="2.126330">
        <ele>248.58</ele>
        <time>2010-01-01T15:30:09Z</time>
      </trkpt>
      <trkpt lat="44.607310" lon="2.126500">
        <ele>249.11</ele>
        <time>2010-01-01T15:30:39Z</time>
      </trkpt>
      <trkpt lat="44.607640" lon="2.126530">
        <ele>247.13</ele>
        <time>2010-01-01T15:31:24Z</time>
      </trkpt>
      <trkpt lat="44.607880" lon="2.126710">
        <ele>247.71</ele>
        <time>2010-01-01T15:32:04Z</time>
      </trkpt>
      <trkpt lat="44.608150" lon="2.127220">
        <ele>251.72</ele>
        <time>2010-01-01T15:32:35Z</time>
      </trkpt>
      <trkpt lat="44.608350" lon="2.127780">
        <ele>258.37</ele>
        <time>2010-01-01T15:32:41Z</time>
      </trkpt>
      <trkpt lat="44.608960" lon="2.128620">
        <ele>262.02</ele>
        <time>2010-01-01T15:32:50Z</time>
      </trkpt>
      <trkpt lat="44.609270" lon="2.129370">
        <ele>265.79</ele>
        <time>2010-01-01T15:33:17Z</time>
      </trkpt>
      <trkpt lat="44.609380" lon="2.129940">
        <ele>267.41</ele>
        <time>2010-01-01T15:33:32Z</time>
      </trkpt>
      <trkpt lat="44.609310" lon="2.131050">
        <ele>272.59</ele>
        <time>2010-01-01T15:34:23Z</time>
      </trkpt>
      <trkpt lat="44.609440" lon="2.132520">
        <ele>276.38</ele>
        <time>2010-01-01T15:39:03Z</time>
      </trkpt>
      <trkpt lat="44.609550" lon="2.133590">
        <ele>276.18</ele>
        <time>2010-01-01T15:39:13Z</time>
      </trkpt>
      <trkpt lat="44.609580" lon="2.133760">
        <ele>276.23</ele>
        <time>2010-01-01T15:39:24Z</time>
      </trkpt>
      <trkpt lat="44.609670" lon="2.133940">
        <ele>276.11</ele>
        <time>2010-01-01T15:40:13Z</time>
      </trkpt>
      <trkpt lat="44.609630" lon="2.134070">
        <ele>276.45</ele>
        <time>2010-01-01T15:40:18Z</time>
      </trkpt>
      <trkpt lat="44.609700" lon="2.134160">
        <ele>276.43</ele>
        <time>2010-01-01T15:40:28Z</time>
      </trkpt>
      <trkpt lat="44.609780" lon="2.134110">
        <ele>276.24</ele>
        <time>2010-01-01T15:40:38Z</time>
      </trkpt>
      <trkpt lat="44.610020" lon="2.134400">
        <ele>276.74</ele>
        <time>2010-01-01T15:40:50Z</time>
      </trkpt>
      <trkpt lat="44.610760" lon="2.134550">
        <ele>277.93</ele>
        <time>2010-01-01T15:40:57Z</time>
      </trkpt>
      <trkpt lat="44.611830" lon="2.135000">
        <ele>282.78</ele>
        <time>2010-01-01T15:41:50Z</time>
      </trkpt>
      <trkpt lat="44.612840" lon="2.135030">
        <ele>284.29</ele>
        <time>2010-01-01T15:42:03Z</time>
      </trkpt>
      <trkpt lat="44.613560" lon="2.135410">
        <ele>284.82</ele>
        <time>2010-01-01T15:42:23Z</time>
      </trkpt>
      <trkpt lat="44.613680" lon="2.135520">
        <ele>284.73</ele>
        <time>2010-01-01T15:42:40Z</time>
      </trkpt>
      <trkpt lat="44.613790" lon="2.135800">
        <ele>284.93</ele>
        <time>2010-01-01T15:43:07Z</time>
      </trkpt>
      <trkpt lat="44.613920" lon="2.136740">
        <ele>285.60</ele>
        <time>2010-01-01T15:43:44Z</time>
      </trkpt>
      <trkpt lat="44.614050" lon="2.137230">
        <ele>284.49</ele>
        <time>2010-01-01T15:43:54Z</time>
      </trkpt>
      <trkpt lat="44.614750" lon="2.138710">
        <ele>276.42</ele>
        <time>2010-01-01T15:44:34Z</time>
      </trkpt>
      <trkpt lat="44.614720" lon="2.148530">
        <ele>263.63</ele>
        <time>2010-01-01T15:44:45Z</time>
      </trkpt>
      <trkpt lat="44.614760" lon="2.148880">
        <ele>263.45</ele>
        <time>2010-01-01T15:46:20Z</time>
      </trkpt>
      <trkpt lat="44.614860" lon="2.149240">
        <ele>263.23</ele>
        <time>2010-01-01T15:46:37Z</time>
      </trkpt>
      <trkpt lat="44.615460" lon="2.150760">
        <ele>264.05</ele>
        <time>2010-01-01T15:47:00Z</time>
      </trkpt>
      <trkpt lat="44.615480" lon="2.150930">
        <ele>264.13</ele>
        <time>2010-01-01T15:47:14Z</time>
      </trkpt>
      <trkpt lat="44.615380" lon="2.151260">
        <ele>264.36</ele>
        <time>2010-01-01T15:47:29Z</time>
      </trkpt>
      <trkpt lat="44.615210" lon="2.151510">
        <ele>264.77</ele>
        <time>2010-01-01T15:47:38Z</time>
      </trkpt>
      <trkpt lat="44.614960" lon="2.151750">
        <ele>266.00</ele>
        <time>2010-01-01T15:47:54Z</time>
      </trkpt>
      <trkpt lat="44.614860" lon="2.151930">
        <ele>266.91</ele>
        <time>2010-01-01T15:48:36Z</time>
      </trkpt>
      <trkpt lat="44.614570" lon="2.153750">
        <ele>270.453888</ele>
        <time>2010-01-01T15:48:56Z</time>
      </trkpt>
      <trkpt lat="44.614460" lon="2.154160">
        <ele>268.787201</ele>
        <time>2010-01-01T15:49:18Z</time>
      </trkpt>
      <trkpt lat="44.614200" lon="2.154760">
        <ele>267.009155</ele>
        <time>2010-01-01T15:49:44Z</time>
      </trkpt>
      <trkpt lat="44.614130" lon="2.155350">
        <ele>267.965942</ele>
        <time>2010-01-01T15:50:03Z</time>
      </trkpt>
      <trkpt lat="44.613830" lon="2.156210">
        <ele>272.261566</ele>
        <time>2010-01-01T15:50:23Z</time>
      </trkpt>
      <trkpt lat="44.613320" lon="2.157300">
        <ele>273.065308</ele>
        <time>2010-01-01T15:50:37Z</time>
      </trkpt>
      <trkpt lat="44.613340" lon="2.157650">
        <ele>274.900024</ele>
        <time>2010-01-01T15:51:05Z</time>
      </trkpt>
      <trkpt lat="44.613780" lon="2.158900">
        <ele>277.575958</ele>
        <time>2010-01-01T15:52:00Z</time>
      </trkpt>
      <trkpt lat="44.613870" lon="2.159280">
        <ele>277.744995</ele>
        <time>2010-01-01T15:52:10Z</time>
      </trkpt>
      <trkpt lat="44.614020" lon="2.162600">
        <ele>277.160004</ele>
        <time>2010-01-01T15:52:30Z</time>
      </trkpt>
      <trkpt lat="44.613910" lon="2.163190">
        <ele>277.479492</ele>
        <time>2010-01-01T15:52:43Z</time>
      </trkpt>
      <trkpt lat="44.613600" lon="2.163860">
        <ele>277.865784</ele>
        <time>2010-01-01T15:53:00Z</time>
      </trkpt>
      <trkpt lat="44.613490" lon="2.164330">
        <ele>278.541809</ele>
        <time>2010-01-01T15:53:10Z</time>
      </trkpt>
      <trkpt lat="44.613310" lon="2.164790">
        <ele>278.000000</ele>
        <time>2010-01-01T15:53:39Z</time>
      </trkpt>
      <trkpt lat="44.613160" lon="2.165010">
        <ele>278.000000</ele>
        <time>2010-01-01T15:53:46Z</time>
      </trkpt>
      <trkpt lat="44.612820" lon="2.165340">
        <ele>278.402893</ele>
        <time>2010-01-01T15:54:41Z</time>
      </trkpt>
      <trkpt lat="44.611910" lon="2.166040">
        <ele>287.101868</ele>
        <time>2010-01-01T15:55:10Z</time>
      </trkpt>
      <trkpt lat="44.611530" lon="2.166500">
        <ele>290.165405</ele>
        <time>2010-01-01T15:55:22Z</time>
      </trkpt>
      <trkpt lat="44.611230" lon="2.167140">
        <ele>293.186401</ele>
        <time>2010-01-01T15:55:58Z</time>
      </trkpt>
      <trkpt lat="44.611180" lon="2.168060">
        <ele>298.124786</ele>
        <time>2010-01-01T15:56:08Z</time>
      </trkpt>
      <trkpt lat="44.611090" lon="2.168700">
        <ele>300.889893</ele>
        <time>2010-01-01T15:56:21Z</time>
      </trkpt>
      <trkpt lat="44.610800" lon="2.169280">
        <ele>304.129822</ele>
        <time>2010-01-01T15:56:57Z</time>
      </trkpt>
      <trkpt lat="44.610530" lon="2.169600">
        <ele>305.963684</ele>
        <time>2010-01-01T15:57:13Z</time>
      </trkpt>
      <trkpt lat="44.609990" lon="2.170200">
        <ele>309.614807</ele>
        <time>2010-01-01T15:57:40Z</time>
      </trkpt>
      <trkpt lat="44.609000" lon="2.171550">
        <ele>317.489990</ele>
        <time>2010-01-01T15:58:06Z</time>
      </trkpt>
      <trkpt lat="44.608870" lon="2.171840">
        <ele>318.756104</ele>
        <time>2010-01-01T15:59:15Z</time>
      </trkpt>
      <trkpt lat="44.608690" lon="2.172490">
        <ele>320.835693</ele>
        <time>2010-01-01T15:59:54Z</time>
      </trkpt>
      <trkpt lat="44.608680" lon="2.172970">
        <ele>324.517548</ele>
        <time>2010-01-01T16:00:05Z</time>
      </trkpt>
      <trkpt lat="44.608820" lon="2.173500">
        <ele>328.865814</ele>
        <time>2010-01-01T16:00:14Z</time>
      </trkpt>
      <trkpt lat="44.608980" lon="2.173790">
        <ele>331.717560</ele>
        <time>2010-01-01T16:00:27Z</time>
      </trkpt>
      <trkpt lat="44.609510" lon="2.174480">
        <ele>337.332245</ele>
        <time>2010-01-01T16:01:58Z</time>
      </trkpt>
      <trkpt lat="44.609600" lon="2.174710">
        <ele>338.698090</ele>
        <time>2010-01-01T16:02:24Z</time>
      </trkpt>
      <trkpt lat="44.609380" lon="2.176610">
        <ele>343.68</ele>
        <time>2010-01-01T16:03:23Z</time>
      </trkpt>
      <trkpt lat="44.609410" lon="2.177630">
        <ele>343.68</ele>
        <time>2010-01-01T16:03:42Z</time>
      </trkpt>
      <trkpt lat="44.609560" lon="2.177970">
        <ele>343.68</ele>
        <time>2010-01-01T16:03:53Z</time>
      </trkpt>
      <trkpt lat="44.610330" lon="2.178630">
        <ele>340.65</ele>
        <time>2010-01-01T16:04:31Z</time>
      </trkpt>
      <trkpt lat="44.610510" lon="2.178860">
        <ele>340.32</ele>
        <time>2010-01-01T16:04:40Z</time>
      </trkpt>
      <trkpt lat="44.610670" lon="2.179270">
        <ele>339.63</ele>
        <time>2010-01-01T16:04:50Z</time>
      </trkpt>
      <trkpt lat="44.611000" lon="2.180430">
        <ele>336.77</ele>
        <time>2010-01-01T16:04:56Z</time>
      </trkpt>
      <trkpt lat="44.611210" lon="2.180940">
        <ele>335.44</ele>
        <time>2010-01-01T16:05:36Z</time>
      </trkpt>
      <trkpt lat="44.611620" lon="2.181690">
        <ele>335.44</ele>
        <time>2010-01-01T16:05:44Z</time>
      </trkpt>
      <trkpt lat="44.612170" lon="2.182120">
        <ele>336.41</ele>
        <time>2010-01-01T16:05:50Z</time>
      </trkpt>
      <trkpt lat="44.612980" lon="2.181979">
        <ele>337.99</ele>
        <time>2010-01-01T16:06:18Z</time>
      </trkpt>
      <trkpt lat="44.613880" lon="2.182300">
        <ele>338.99</ele>
        <time>2010-01-01T16:06:52Z</time>
      </trkpt>
      <trkpt lat="44.614850" lon="2.182250">
        <ele>341.03</ele>
        <time>2010-01-01T16:07:11Z</time>
      </trkpt>
      <trkpt lat="44.615090" lon="2.182470">
        <ele>343.10</ele>
        <time>2010-01-01T16:07:42Z</time>
      </trkpt>
      <trkpt lat="44.615210" lon="2.182730">
        <ele>344.85</ele>
        <time>2010-01-01T16:08:00Z</time>
      </trkpt>
      <trkpt lat="44.615300" lon="2.183160">
        <ele>347.50</ele>
        <time>2010-01-01T16:08:05Z</time>
      </trkpt>
      <trkpt lat="44.615170" lon="2.186350">
        <ele>357.44</ele>
        <time>2010-01-01T16:08:26Z</time>
      </trkpt>
      <trkpt lat="44.615310" lon="2.187260">
        <ele>364.14</ele>
        <time>2010-01-01T16:08:47Z</time>
      </trkpt>
      <trkpt lat="44.615810" lon="2.189190">
        <ele>370.95</ele>
        <time>2010-01-01T16:08:53Z</time>
      </trkpt>
      <trkpt lat="44.615880" lon="2.189860">
        <ele>374.28</ele>
        <time>2010-01-01T16:09:02Z</time>
      </trkpt>
      <trkpt lat="44.615850" lon="2.190230">
        <ele>375.60</ele>
        <time>2010-01-01T16:09:18Z</time>
      </trkpt>
      <trkpt lat="44.615540" lon="2.191500">
        <ele>381.41</ele>
        <time>2010-01-01T16:09:22Z</time>
      </trkpt>
      <trkpt lat="44.615530" lon="2.191820">
        <ele>382.55</ele>
        <time>2010-01-01T16:09:40Z</time>
      </trkpt>
      <trkpt lat="44.615660" lon="2.192090">
        <ele>386.13</ele>
        <time>2010-01-01T16:09:50Z</time>
      </trkpt>
      <trkpt lat="44.615800" lon="2.192210">
        <ele>388.95</ele>
        <time>2010-01-01T16:09:56Z</time>
      </trkpt>
      <trkpt lat="44.616800" lon="2.192380">
        <ele>394.95</ele>
        <time>2010-01-01T16:10:21Z</time>
      </trkpt>
      <trkpt lat="44.616950" lon="2.192520">
        <ele>395.64</ele>
        <time>2010-01-01T16:10:58Z</time>
      </trkpt>
      <trkpt lat="44.617050" lon="2.192710">
        <ele>396.09</ele>
        <time>2010-01-01T16:11:23Z</time>
      </trkpt>
      <trkpt lat="44.616980" lon="2.193660">
        <ele>396.09</ele>
        <time>2010-01-01T16:11:36Z</time>
      </trkpt>
      <trkpt lat="44.617340" lon="2.194760">
        <ele>390.64</ele>
        <time>2010-01-01T16:11:44Z</time>
      </trkpt>
      <trkpt lat="44.617420" lon="2.195420">
        <ele>388.44</ele>
        <time>2010-01-01T16:11:57Z</time>
      </trkpt>
      <trkpt lat="44.617408" lon="2.195801">
        <ele>387.610840</ele>
        <time>2010-01-01T16:12:27Z</time>
      </trkpt>
      <trkpt lat="44.617220" lon="2.196430">
        <ele>386.87</ele>
        <time>2010-01-01T16:12:36Z</time>
      </trkpt>
      <trkpt lat="44.616970" lon="2.196960">
        <ele>384.44</ele>
        <time>2010-01-01T16:13:34Z</time>
      </trkpt>
      <trkpt lat="44.616940" lon="2.197130">
        <ele>383.78</ele>
        <time>2010-01-01T16:13:42Z</time>
      </trkpt>
      <trkpt lat="44.616960" lon="2.197870">
        <ele>375.93</ele>
        <time>2010-01-01T16:14:12Z</time>
      </trkpt>
      <trkpt lat="44.616660" lon="2.198470">
        <ele>376.66</ele>
        <time>2010-01-01T16:14:29Z</time>
      </trkpt>
      <trkpt lat="44.616640" lon="2.198690">
        <ele>375.96</ele>
        <time>2010-01-01T16:15:00Z</time>
      </trkpt>
      <trkpt lat="44.616740" lon="2.198950">
        <ele>375.96</ele>
        <time>2010-01-01T16:15:10Z</time>
      </trkpt>
      <trkpt lat="44.617140" lon="2.199000">
        <ele>367.96</ele>
        <time>2010-01-01T16:15:19Z</time>
      </trkpt>
      <trkpt lat="44.617250" lon="2.199010">
        <ele>365.376678</ele>
        <time>2010-01-01T16:15:44Z</time>
      </trkpt>
      <trkpt lat="44.617462" lon="2.199188">
        <ele>365.74</ele>
        <time>2010-01-01T16:16:13Z</time>
      </trkpt>
      <trkpt lat="44.617520" lon="2.199500">
        <ele>365.74</ele>
        <time>2010-01-01T16:16:24Z</time>
      </trkpt>
      <trkpt lat="44.617540" lon="2.199830">
        <ele>365.74</ele>
        <time>2010-01-01T16:16:42Z</time>
      </trkpt>
      <trkpt lat="44.617620" lon="2.200020">
        <ele>366.59</ele>
        <time>2010-01-01T16:16:48Z</time>
      </trkpt>
      <trkpt lat="44.618120" lon="2.200560">
        <ele>360.24</ele>
        <time>2010-01-01T16:17:10Z</time>
      </trkpt>
      <trkpt lat="44.618420" lon="2.201770">
        <ele>355.35</ele>
        <time>2010-01-01T16:17:38Z</time>
      </trkpt>
      <trkpt lat="44.618870" lon="2.202400">
        <ele>348.58</ele>
        <time>2010-01-01T16:17:59Z</time>
      </trkpt>
      <trkpt lat="44.618980" lon="2.202810">
        <ele>345.80</ele>
        <time>2010-01-01T16:18:24Z</time>
      </trkpt>
      <trkpt lat="44.618960" lon="2.203090">
        <ele>345.56</ele>
        <time>2010-01-01T16:18:34Z</time>
      </trkpt>
      <trkpt lat="44.618830" lon="2.203530">
        <ele>345.56</ele>
        <time>2010-01-01T16:19:01Z</time>
      </trkpt>
      <trkpt lat="44.618220" lon="2.204140">
        <ele>349.86</ele>
        <time>2010-01-01T16:19:09Z</time>
      </trkpt>
      <trkpt lat="44.618100" lon="2.204410">
        <ele>349.86</ele>
        <time>2010-01-01T16:19:32Z</time>
      </trkpt>
      <trkpt lat="44.617950" lon="2.206430">
        <ele>344.92</ele>
        <time>2010-01-01T16:19:39Z</time>
      </trkpt>
      <trkpt lat="44.617890" lon="2.206700">
        <ele>343.967499</ele>
        <time>2010-01-01T16:19:49Z</time>
      </trkpt>
      <trkpt lat="44.617510" lon="2.207580">
        <ele>343.340149</ele>
        <time>2010-01-01T16:20:11Z</time>
      </trkpt>
      <trkpt lat="44.617420" lon="2.208160">
        <ele>342.857635</ele>
        <time>2010-01-01T16:20:19Z</time>
      </trkpt>
      <trkpt lat="44.617330" lon="2.209240">
        <ele>341.94</ele>
        <time>2010-01-01T16:21:19Z</time>
      </trkpt>
      <trkpt lat="44.617260" lon="2.209600">
        <ele>341.122681</ele>
        <time>2010-01-01T16:21:45Z</time>
      </trkpt>
      <trkpt lat="44.617110" lon="2.209820">
        <ele>341.338928</ele>
        <time>2010-01-01T16:22:06Z</time>
      </trkpt>
      <trkpt lat="44.616580" lon="2.210270">
        <ele>342.54</ele>
        <time>2010-01-01T16:22:17Z</time>
      </trkpt>
      <trkpt lat="44.616150" lon="2.211090">
        <ele>337.69</ele>
        <time>2010-01-01T16:22:30Z</time>
      </trkpt>
      <trkpt lat="44.615880" lon="2.211220">
        <ele>337.69</ele>
        <time>2010-01-01T16:22:37Z</time>
      </trkpt>
      <trkpt lat="44.615440" lon="2.211230">
        <ele>337.69</ele>
        <time>2010-01-01T16:23:23Z</time>
      </trkpt>
      <trkpt lat="44.615310" lon="2.211340">
        <ele>337.69</ele>
        <time>2010-01-01T16:23:43Z</time>
      </trkpt>
      <trkpt lat="44.615010" lon="2.212010">
        <ele>337.95</ele>
        <time>2010-01-01T16:23:50Z</time>
      </trkpt>
      <trkpt lat="44.614530" lon="2.212720">
        <ele>336.44</ele>
        <time>2010-01-01T16:24:01Z</time>
      </trkpt>
      <trkpt lat="44.614320" lon="2.213380">
        <ele>332.35</ele>
        <time>2010-01-01T16:24:12Z</time>
      </trkpt>
      <trkpt lat="44.613950" lon="2.214100">
        <ele>331.59</ele>
        <time>2010-01-01T16:24:21Z</time>
      </trkpt>
      <trkpt lat="44.613880" lon="2.214450">
        <ele>330.38</ele>
        <time>2010-01-01T16:24:33Z</time>
      </trkpt>
      <trkpt lat="44.613850" lon="2.215370">
        <ele>326.95</ele>
        <time>2010-01-01T16:24:39Z</time>
      </trkpt>
      <trkpt lat="44.613760" lon="2.215650">
        <ele>325.56</ele>
        <time>2010-01-01T16:24:59Z</time>
      </trkpt>
      <trkpt lat="44.613300" lon="2.216130">
        <ele>325.04</ele>
        <time>2010-01-01T16:25:41Z</time>
      </trkpt>
      <trkpt lat="44.613210" lon="2.216340">
        <ele>324.91</ele>
        <time>2010-01-01T16:25:57Z</time>
      </trkpt>
      <trkpt lat="44.613240" lon="2.216680">
        <ele>324.58</ele>
        <time>2010-01-01T16:26:04Z</time>
      </trkpt>
      <trkpt lat="44.613560" lon="2.217290">
        <ele>320.78</ele>
        <time>2010-01-01T16:26:09Z</time>
      </trkpt>
      <trkpt lat="44.613640" lon="2.217560">
        <ele>319.97</ele>
        <time>2010-01-01T16:26:18Z</time>
      </trkpt>
      <trkpt lat="44.613770" lon="2.219660">
        <ele>314.53</ele>
        <time>2010-01-01T16:26:30Z</time>
      </trkpt>
      <trkpt lat="44.613658" lon="2.220044">
        <ele>313.66</ele>
        <time>2010-01-01T16:26:42Z</time>
      </trkpt>
      <trkpt lat="44.613480" lon="2.220470">
        <ele>313.61</ele>
        <time>2010-01-01T16:27:04Z</time>
      </trkpt>
      <trkpt lat="44.613070" lon="2.220890">
        <ele>313.26</ele>
        <time>2010-01-01T16:27:16Z</time>
      </trkpt>
      <trkpt lat="44.612790" lon="2.220940">
        <ele>313.82</ele>
        <time>2010-01-01T16:27:30Z</time>
      </trkpt>
      <trkpt lat="44.612470" lon="2.220890">
        <ele>312.76</ele>
        <time>2010-01-01T16:27:48Z</time>
      </trkpt>
      <trkpt lat="44.612300" lon="2.220960">
        <ele>311.77</ele>
        <time>2010-01-01T16:28:00Z</time>
      </trkpt>
      <trkpt lat="44.611360" lon="2.221910">
        <ele>307.31</ele>
        <time>2010-01-01T16:28:11Z</time>
      </trkpt>
      <trkpt lat="44.611010" lon="2.222400">
        <ele>306.62</ele>
        <time>2010-01-01T16:28:22Z</time>
      </trkpt>
      <trkpt lat="44.610940" lon="2.222630">
        <ele>305.591644</ele>
        <time>2010-01-01T16:28:36Z</time>
      </trkpt>
      <trkpt lat="44.610940" lon="2.222990">
        <ele>303.052460</ele>
        <time>2010-01-01T16:29:15Z</time>
      </trkpt>
      <trkpt lat="44.611010" lon="2.223390">
        <ele>297.892548</ele>
        <time>2010-01-01T16:29:35Z</time>
      </trkpt>
      <trkpt lat="44.610990" lon="2.223700">
        <ele>295.851868</ele>
        <time>2010-01-01T16:30:03Z</time>
      </trkpt>
      <trkpt lat="44.610800" lon="2.224030">
        <ele>295.311707</ele>
        <time>2010-01-01T16:30:52Z</time>
      </trkpt>
      <trkpt lat="44.610670" lon="2.224140">
        <ele>295.15</ele>
        <time>2010-01-01T16:31:01Z</time>
      </trkpt>
      <trkpt lat="44.610200" lon="2.224290">
        <ele>295.30</ele>
        <time>2010-01-01T16:31:27Z</time>
      </trkpt>
      <trkpt lat="44.610052" lon="2.224421">
        <ele>295.30</ele>
        <time>2010-01-01T16:32:19Z</time>
      </trkpt>
      <trkpt lat="44.610016" lon="2.224668">
        <ele>295.30</ele>
        <time>2010-01-01T16:32:41Z</time>
      </trkpt>
      <trkpt lat="44.610079" lon="2.224942">
        <ele>295.30</ele>
        <time>2010-01-01T16:34:17Z</time>
      </trkpt>
      <trkpt lat="44.610380" lon="2.225500">
        <ele>287.92</ele>
        <time>2010-01-01T16:34:35Z</time>
      </trkpt>
      <trkpt lat="44.610590" lon="2.225970">
        <ele>284.000366</ele>
        <time>2010-01-01T16:34:58Z</time>
      </trkpt>
      <trkpt lat="44.610600" lon="2.226200">
        <ele>284.46</ele>
        <time>2010-01-01T16:35:05Z</time>
      </trkpt>
      <trkpt lat="44.610540" lon="2.226370">
        <ele>284.46</ele>
        <time>2010-01-01T16:35:17Z</time>
      </trkpt>
      <trkpt lat="44.610350" lon="2.226520">
        <ele>283.992249</ele>
        <time>2010-01-01T16:35:27Z</time>
      </trkpt>
      <trkpt lat="44.610060" lon="2.226620">
        <ele>283.19</ele>
        <time>2010-01-01T16:35:40Z</time>
      </trkpt>
      <trkpt lat="44.609760" lon="2.226610">
        <ele>283.19</ele>
        <time>2010-01-01T16:35:50Z</time>
      </trkpt>
      <trkpt lat="44.609210" lon="2.226440">
        <ele>288.96</ele>
        <time>2010-01-01T16:36:30Z</time>
      </trkpt>
      <trkpt lat="44.608910" lon="2.226510">
        <ele>288.96</ele>
        <time>2010-01-01T16:37:51Z</time>
      </trkpt>
      <trkpt lat="44.608700" lon="2.226870">
        <ele>283.797821</ele>
        <time>2010-01-01T16:38:21Z</time>
      </trkpt>
      <trkpt lat="44.608650" lon="2.227510">
        <ele>276.606140</ele>
        <time>2010-01-01T16:39:27Z</time>
      </trkpt>
      <trkpt lat="44.608550" lon="2.227910">
        <ele>275.86</ele>
        <time>2010-01-01T16:39:44Z</time>
      </trkpt>
      <trkpt lat="44.608400" lon="2.228220">
        <ele>275.690674</ele>
        <time>2010-01-01T16:40:39Z</time>
      </trkpt>
      <trkpt lat="44.608170" lon="2.228430">
        <ele>275.701904</ele>
        <time>2010-01-01T16:40:48Z</time>
      </trkpt>
      <trkpt lat="44.607820" lon="2.228530">
        <ele>275.253693</ele>
        <time>2010-01-01T16:41:15Z</time>
      </trkpt>
      <trkpt lat="44.606860" lon="2.228370">
        <ele>266.187225</ele>
        <time>2010-01-01T16:41:20Z</time>
      </trkpt>
      <trkpt lat="44.606360" lon="2.228350">
        <ele>266.769226</ele>
        <time>2010-01-01T16:41:33Z</time>
      </trkpt>
      <trkpt lat="44.605670" lon="2.228470">
        <ele>265.023407</ele>
        <time>2010-01-01T16:41:47Z</time>
      </trkpt>
      <trkpt lat="44.604570" lon="2.229200">
        <ele>257.056091</ele>
        <time>2010-01-01T16:41:54Z</time>
      </trkpt>
      <trkpt lat="44.604390" lon="2.229390">
        <ele>255.742188</ele>
        <time>2010-01-01T16:41:58Z</time>
      </trkpt>
      <trkpt lat="44.603950" lon="2.230080">
        <ele>247.681656</ele>
        <time>2010-01-01T16:42:26Z</time>
      </trkpt>
      <trkpt lat="44.602800" lon="2.230910">
        <ele>238.235870</ele>
        <time>2010-01-01T16:42:43Z</time>
      </trkpt>
      <trkpt lat="44.602260" lon="2.231100">
        <ele>231.753021</ele>
        <time>2010-01-01T16:43:03Z</time>
      </trkpt>
      <trkpt lat="44.602020" lon="2.230987">
        <ele>231.16</ele>
        <time>2010-01-01T16:43:33Z</time>
      </trkpt>
      <trkpt lat="44.601957" lon="2.230817">
        <ele>231.16</ele>
        <time>2010-01-01T16:44:14Z</time>
      </trkpt>
      <trkpt lat="44.602002" lon="2.230602">
        <ele>231.16</ele>
        <time>2010-01-01T16:44:42Z</time>
      </trkpt>
      <trkpt lat="44.602042" lon="2.230394">
        <ele>231.16</ele>
        <time>2010-01-01T16:45:06Z</time>
      </trkpt>
      <trkpt lat="44.601948" lon="2.230244">
        <ele>231.16</ele>
        <time>2010-01-01T16:45:20Z</time>
      </trkpt>
      <trkpt lat="44.601795" lon="2.230257">
        <ele>230.16</ele>
        <time>2010-01-01T16:45:53Z</time>
      </trkpt>
      <trkpt lat="44.601103" lon="2.231104">
        <ele>223.13</ele>
        <time>2010-01-01T16:46:28Z</time>
      </trkpt>
      <trkpt lat="44.600730" lon="2.231450">
        <ele>216.845612</ele>
        <time>2010-01-01T16:46:51Z</time>
      </trkpt>
      <trkpt lat="44.600310" lon="2.231720">
        <ele>214.324265</ele>
        <time>2010-01-01T16:47:01Z</time>
      </trkpt>
      <trkpt lat="44.599770" lon="2.231910">
        <ele>214.023163</ele>
        <time>2010-01-01T16:47:19Z</time>
      </trkpt>
      <trkpt lat="44.599840" lon="2.232140">
        <ele>214.02</ele>
        <time>2010-01-01T16:47:45Z</time>
      </trkpt>
      <trkpt lat="44.600150" lon="2.232050">
        <ele>213.050995</ele>
        <time>2010-01-01T16:48:43Z</time>
      </trkpt>
      <trkpt lat="44.600400" lon="2.232060">
        <ele>211.77</ele>
        <time>2010-01-01T16:48:50Z</time>
      </trkpt>
      <trkpt lat="44.600720" lon="2.232150">
        <ele>211.77</ele>
        <time>2010-01-01T16:49:20Z</time>
      </trkpt>
      <trkpt lat="44.600960" lon="2.232130">
        <ele>211.77</ele>
        <time>2010-01-01T16:51:02Z</time>
      </trkpt>
      <trkpt lat="44.601900" lon="2.231680">
        <ele>214.83</ele>
        <time>2010-01-01T16:51:06Z</time>
      </trkpt>
      <trkpt lat="44.603870" lon="2.231060">
        <ele>216.23</ele>
        <time>2010-01-01T16:51:22Z</time>
      </trkpt>
      <trkpt lat="44.604640" lon="2.231040">
        <ele>218.15</ele>
        <time>2010-01-01T16:51:29Z</time>
      </trkpt>
      <trkpt lat="44.606270" lon="2.230890">
        <ele>220.12</ele>
        <time>2010-01-01T16:52:56Z</time>
      </trkpt>
      <trkpt lat="44.606680" lon="2.231010">
        <ele>218.17</ele>
        <time>2010-01-01T16:53:12Z</time>
      </trkpt>
      <trkpt lat="44.607990" lon="2.231590">
        <ele>215.04</ele>
        <time>2010-01-01T16:53:36Z</time>
      </trkpt>
      <trkpt lat="44.608220" lon="2.231620">
        <ele>213.83</ele>
        <time>2010-01-01T16:53:45Z</time>
      </trkpt>
      <trkpt lat="44.608880" lon="2.231460">
        <ele>208.972794</ele>
        <time>2010-01-01T16:54:29Z</time>
      </trkpt>
      <trkpt lat="44.608990" lon="2.231550">
        <ele>205.630493</ele>
        <time>2010-01-01T16:56:12Z</time>
      </trkpt>
      <trkpt lat="44.609160" lon="2.231930">
        <ele>204.34</ele>
        <time>2010-01-01T16:56:25Z</time>
      </trkpt>
      <trkpt lat="44.609130" lon="2.232440">
        <ele>204.34</ele>
        <time>2010-01-01T16:57:04Z</time>
      </trkpt>
      <trkpt lat="44.609210" lon="2.232650">
        <ele>204.34</ele>
        <time>2010-01-01T16:57:20Z</time>
      </trkpt>
      <trkpt lat="44.609290" lon="2.232740">
        <ele>205.39</ele>
        <time>2010-01-01T16:57:50Z</time>
      </trkpt>
      <trkpt lat="44.609950" lon="2.233090">
        <ele>204.34</ele>
        <time>2010-01-01T16:58:04Z</time>
      </trkpt>
      <trkpt lat="44.610290" lon="2.233430">
        <ele>204.34</ele>
        <time>2010-01-01T16:58:22Z</time>
      </trkpt>
      <trkpt lat="44.610750" lon="2.233740">
        <ele>204.34</ele>
        <time>2010-01-01T16:59:15Z</time>
      </trkpt>
      <trkpt lat="44.611260" lon="2.234480">
        <ele>202.47</ele>
        <time>2010-01-01T16:59:26Z</time>
      </trkpt>
      <trkpt lat="44.612030" lon="2.235440">
        <ele>202.16</ele>
        <time>2010-01-01T16:59:50Z</time>
      </trkpt>
      <trkpt lat="44.612500" lon="2.236160">
        <ele>196.817993</ele>
        <time>2010-01-01T17:00:51Z</time>
      </trkpt>
      <trkpt lat="44.612980" lon="2.236680">
        <ele>196.806641</ele>
        <time>2010-01-01T17:01:57Z</time>
      </trkpt>
      <trkpt lat="44.613210" lon="2.237070">
        <ele>196.984283</ele>
        <time>2010-01-01T17:02:56Z</time>
      </trkpt>
      <trkpt lat="44.613620" lon="2.238050">
        <ele>192.382233</ele>
        <time>2010-01-01T17:03:59Z</time>
      </trkpt>
      <trkpt lat="44.614330" lon="2.238790">
        <ele>192.00</ele>
        <time>2010-01-01T17:04:38Z</time>
      </trkpt>
      <trkpt lat="44.614710" lon="2.239390">
        <ele>192.00</ele>
        <time>2010-01-01T17:05:18Z</time>
      </trkpt>
      <trkpt lat="44.614840" lon="2.239670">
        <ele>192.424927</ele>
        <time>2010-01-01T17:05:34Z</time>
      </trkpt>
      <trkpt lat="44.615000" lon="2.240270">
        <ele>193.488449</ele>
        <time>2010-01-01T17:06:05Z</time>
      </trkpt>
      <trkpt lat="44.615150" lon="2.241170">
        <ele>196.831253</ele>
        <time>2010-01-01T17:08:14Z</time>
      </trkpt>
      <trkpt lat="44.615150" lon="2.243180">
        <ele>197.434372</ele>
        <time>2010-01-01T17:09:03Z</time>
      </trkpt>
      <trkpt lat="44.615120" lon="2.243430">
        <ele>197.85</ele>
        <time>2010-01-01T17:11:39Z</time>
      </trkpt>
      <trkpt lat="44.614840" lon="2.244420">
        <ele>195.21</ele>
        <time>2010-01-01T17:12:44Z</time>
      </trkpt>
      <trkpt lat="44.614206" lon="2.245420">
        <ele>194.23</ele>
        <time>2010-01-01T17:13:53Z</time>
      </trkpt>
      <trkpt lat="44.614089" lon="2.245811">
        <ele>194.49</ele>
        <time>2010-01-01T17:14:22Z</time>
      </trkpt>
      <trkpt lat="44.614320" lon="2.247620">
        <ele>199.55</ele>
        <time>2010-01-01T17:14:44Z</time>
      </trkpt>
      <trkpt lat="44.614300" lon="2.247760">
        <ele>199.843842</ele>
        <time>2010-01-01T17:15:36Z</time>
      </trkpt>
      <trkpt lat="44.614090" lon="2.248250">
        <ele>200.107941</ele>
        <time>2010-01-01T17:16:04Z</time>
      </trkpt>
      <trkpt lat="44.614040" lon="2.248460">
        <ele>200.184998</ele>
        <time>2010-01-01T17:16:35Z</time>
      </trkpt>
      <trkpt lat="44.614140" lon="2.251530">
        <ele>202.384995</ele>
        <time>2010-01-01T17:17:23Z</time>
      </trkpt>
      <trkpt lat="44.614200" lon="2.252080">
        <ele>204.60</ele>
        <time>2010-01-01T17:17:49Z</time>
      </trkpt>
      <trkpt lat="44.614550" lon="2.252750">
        <ele>204.60</ele>
        <time>2010-01-01T17:18:17Z</time>
      </trkpt>
      <trkpt lat="44.614440" lon="2.253050">
        <ele>204.60</ele>
        <time>2010-01-01T17:18:29Z</time>
      </trkpt>
      <trkpt lat="44.614090" lon="2.254510">
        <ele>198.318146</ele>
        <time>2010-01-01T17:18:47Z</time>
      </trkpt>
      <trkpt lat="44.616410" lon="2.256090">
        <ele>198.979996</ele>
        <time>2010-01-01T17:18:57Z</time>
      </trkpt>
      <trkpt lat="44.616640" lon="2.256370">
        <ele>197.64</ele>
        <time>2010-01-01T17:19:14Z</time>
      </trkpt>
      <trkpt lat="44.617300" lon="2.257400">
        <ele>196.05</ele>
        <time>2010-01-01T17:19:22Z</time>
      </trkpt>
      <trkpt lat="44.617480" lon="2.257890">
        <ele>196.05</ele>
        <time>2010-01-01T17:19:41Z</time>
      </trkpt>
      <trkpt lat="44.617680" lon="2.258910">
        <ele>198.137497</ele>
        <time>2010-01-01T17:19:46Z</time>
      </trkpt>
      <trkpt lat="44.617820" lon="2.259360">
        <ele>198.486694</ele>
        <time>2010-01-01T17:20:03Z</time>
      </trkpt>
      <trkpt lat="44.618080" lon="2.259860">
        <ele>198.531006</ele>
        <time>2010-01-01T17:20:13Z</time>
      </trkpt>
      <trkpt lat="44.619020" lon="2.261180">
        <ele>198.77</ele>
        <time>2010-01-01T17:21:07Z</time>
      </trkpt>
      <trkpt lat="44.619190" lon="2.261510">
        <ele>198.77</ele>
        <time>2010-01-01T17:21:21Z</time>
      </trkpt>
      <trkpt lat="44.619490" lon="2.262210">
        <ele>198.77</ele>
        <time>2010-01-01T17:21:29Z</time>
      </trkpt>
      <trkpt lat="44.620150" lon="2.264170">
        <ele>198.922745</ele>
        <time>2010-01-01T17:21:39Z</time>
      </trkpt>
      <trkpt lat="44.621060" lon="2.266080">
        <ele>199.854401</ele>
        <time>2010-01-01T17:21:49Z</time>
      </trkpt>
      <trkpt lat="44.621700" lon="2.267930">
        <ele>201.600006</ele>
        <time>2010-01-01T17:22:37Z</time>
      </trkpt>
      <trkpt lat="44.622230" lon="2.270020">
        <ele>201.250000</ele>
        <time>2010-01-01T17:23:00Z</time>
      </trkpt>
      <trkpt lat="44.622680" lon="2.271240">
        <ele>204.70</ele>
        <time>2010-01-01T17:23:11Z</time>
      </trkpt>
      <trkpt lat="44.623040" lon="2.272550">
        <ele>204.70</ele>
        <time>2010-01-01T17:24:42Z</time>
      </trkpt>
      <trkpt lat="44.623150" lon="2.273110">
        <ele>203.76</ele>
        <time>2010-01-01T17:25:34Z</time>
      </trkpt>
      <trkpt lat="44.623270" lon="2.274170">
        <ele>197.53</ele>
        <time>2010-01-01T17:26:41Z</time>
      </trkpt>
      <trkpt lat="44.622570" lon="2.278590">
        <ele>197.53</ele>
        <time>2010-01-01T17:27:08Z</time>
      </trkpt>
      <trkpt lat="44.622370" lon="2.280290">
        <ele>197.53</ele>
        <time>2010-01-01T17:27:32Z</time>
      </trkpt>
      <trkpt lat="44.622160" lon="2.285770">
        <ele>197.40</ele>
        <time>2010-01-01T17:27:37Z</time>
      </trkpt>
      <trkpt lat="44.622010" lon="2.288040">
        <ele>196.04</ele>
        <time>2010-01-01T17:27:46Z</time>
      </trkpt>
      <trkpt lat="44.621990" lon="2.290440">
        <ele>196.04</ele>
        <time>2010-01-01T17:28:18Z</time>
      </trkpt>
      <trkpt lat="44.622160" lon="2.291440">
        <ele>196.04</ele>
        <time>2010-01-01T17:28:33Z</time>
      </trkpt>
      <trkpt lat="44.622380" lon="2.292130">
        <ele>197.965210</ele>
        <time>2010-01-01T17:29:00Z</time>
      </trkpt>
      <trkpt lat="44.623150" lon="2.293620">
        <ele>202.271317</ele>
        <time>2010-01-01T17:29:45Z</time>
      </trkpt>
      <trkpt lat="44.623680" lon="2.294280">
        <ele>203.29</ele>
        <time>2010-01-01T17:30:12Z</time>
      </trkpt>
      <trkpt lat="44.624190" lon="2.295080">
        <ele>204.22</ele>
        <time>2010-01-01T17:30:22Z</time>
      </trkpt>
      <trkpt lat="44.625050" lon="2.296250">
        <ele>205.640701</ele>
        <time>2010-01-01T17:30:31Z</time>
      </trkpt>
      <trkpt lat="44.625570" lon="2.296800">
        <ele>209.79</ele>
        <time>2010-01-01T17:30:44Z</time>
      </trkpt>
      <trkpt lat="44.626030" lon="2.297530">
        <ele>209.79</ele>
        <time>2010-01-01T17:30:58Z</time>
      </trkpt>
      <trkpt lat="44.626300" lon="2.297740">
        <ele>209.65</ele>
        <time>2010-01-01T17:31:41Z</time>
      </trkpt>
      <trkpt lat="44.626740" lon="2.297910">
        <ele>209.65</ele>
        <time>2010-01-01T17:32:19Z</time>
      </trkpt>
      <trkpt lat="44.626970" lon="2.297880">
        <ele>209.38</ele>
        <time>2010-01-01T17:32:37Z</time>
      </trkpt>
      <trkpt lat="44.627400" lon="2.297720">
        <ele>210.91</ele>
        <time>2010-01-01T17:32:54Z</time>
      </trkpt>
      <trkpt lat="44.627580" lon="2.297750">
        <ele>212.16</ele>
        <time>2010-01-01T17:33:10Z</time>
      </trkpt>
      <trkpt lat="44.628020" lon="2.297970">
        <ele>216.440948</ele>
        <time>2010-01-01T17:33:21Z</time>
      </trkpt>
      <trkpt lat="44.628160" lon="2.297950">
        <ele>216.65</ele>
        <time>2010-01-01T17:33:44Z</time>
      </trkpt>
      <trkpt lat="44.628550" lon="2.297750">
        <ele>216.65</ele>
        <time>2010-01-01T17:34:01Z</time>
      </trkpt>
      <trkpt lat="44.628810" lon="2.297810">
        <ele>216.65</ele>
        <time>2010-01-01T17:34:27Z</time>
      </trkpt>
      <trkpt lat="44.630030" lon="2.298560">
        <ele>199.84</ele>
        <time>2010-01-01T17:34:43Z</time>
      </trkpt>
      <trkpt lat="44.630320" lon="2.298840">
        <ele>196.47</ele>
        <time>2010-01-01T17:35:13Z</time>
      </trkpt>
      <trkpt lat="44.630460" lon="2.299040">
        <ele>196.47</ele>
        <time>2010-01-01T17:35:25Z</time>
      </trkpt>
      <trkpt lat="44.630560" lon="2.299360">
        <ele>196.47</ele>
        <time>2010-01-01T17:35:36Z</time>
      </trkpt>
      <trkpt lat="44.630590" lon="2.299710">
        <ele>196.43</ele>
        <time>2010-01-01T17:35:49Z</time>
      </trkpt>
      <trkpt lat="44.630460" lon="2.301390">
        <ele>194.87</ele>
        <time>2010-01-01T17:36:30Z</time>
      </trkpt>
      <trkpt lat="44.630310" lon="2.302190">
        <ele>193.03</ele>
        <time>2010-01-01T17:37:08Z</time>
      </trkpt>
      <trkpt lat="44.630200" lon="2.302510">
        <ele>193.03</ele>
        <time>2010-01-01T17:37:29Z</time>
      </trkpt>
      <trkpt lat="44.628990" lon="2.305220">
        <ele>193.03</ele>
        <time>2010-01-01T17:37:43Z</time>
      </trkpt>
      <trkpt lat="44.628390" lon="2.306840">
        <ele>196.57</ele>
        <time>2010-01-01T17:37:49Z</time>
      </trkpt>
      <trkpt lat="44.627520" lon="2.308840">
        <ele>196.40</ele>
        <time>2010-01-01T17:38:28Z</time>
      </trkpt>
      <trkpt lat="44.627330" lon="2.309780">
        <ele>197.47</ele>
        <time>2010-01-01T17:38:55Z</time>
      </trkpt>
      <trkpt lat="44.627270" lon="2.310590">
        <ele>203.66</ele>
        <time>2010-01-01T17:39:47Z</time>
      </trkpt>
      <trkpt lat="44.627180" lon="2.310750">
        <ele>204.36</ele>
        <time>2010-01-01T17:40:07Z</time>
      </trkpt>
      <trkpt lat="44.627100" lon="2.311020">
        <ele>206.38</ele>
        <time>2010-01-01T17:40:41Z</time>
      </trkpt>
      <trkpt lat="44.626860" lon="2.312100">
        <ele>208.90</ele>
        <time>2010-01-01T17:41:09Z</time>
      </trkpt>
      <trkpt lat="44.626780" lon="2.312620">
        <ele>210.87</ele>
        <time>2010-01-01T17:41:31Z</time>
      </trkpt>
      <trkpt lat="44.626520" lon="2.313500">
        <ele>210.21</ele>
        <time>2010-01-01T17:42:16Z</time>
      </trkpt>
      <trkpt lat="44.626170" lon="2.314980">
        <ele>210.216248</ele>
        <time>2010-01-01T17:42:50Z</time>
      </trkpt>
      <trkpt lat="44.626040" lon="2.315910">
        <ele>210.233459</ele>
        <time>2010-01-01T17:42:58Z</time>
      </trkpt>
      <trkpt lat="44.626080" lon="2.316250">
        <ele>211.054230</ele>
        <time>2010-01-01T17:43:22Z</time>
      </trkpt>
      <trkpt lat="44.626190" lon="2.316530">
        <ele>211.830002</ele>
        <time>2010-01-01T17:43:41Z</time>
      </trkpt>
      <trkpt lat="44.626410" lon="2.316900">
        <ele>212.71</ele>
        <time>2010-01-01T17:43:57Z</time>
      </trkpt>
      <trkpt lat="44.626690" lon="2.317200">
        <ele>212.71</ele>
        <time>2010-01-01T17:44:11Z</time>
      </trkpt>
      <trkpt lat="44.626780" lon="2.318680">
        <ele>210.052505</ele>
        <time>2010-01-01T17:44:49Z</time>
      </trkpt>
      <trkpt lat="44.626930" lon="2.320020">
        <ele>206.012009</ele>
        <time>2010-01-01T17:44:59Z</time>
      </trkpt>
      <trkpt lat="44.627160" lon="2.320530">
        <ele>205.390472</ele>
        <time>2010-01-01T17:45:24Z</time>
      </trkpt>
      <trkpt lat="44.627510" lon="2.320870">
        <ele>203.993774</ele>
        <time>2010-01-01T17:46:25Z</time>
      </trkpt>
      <trkpt lat="44.627880" lon="2.321080">
        <ele>200.347504</ele>
        <time>2010-01-01T17:46:42Z</time>
      </trkpt>
      <trkpt lat="44.628160" lon="2.321120">
        <ele>196.919998</ele>
        <time>2010-01-01T17:46:59Z</time>
      </trkpt>
      <trkpt lat="44.628680" lon="2.320780">
        <ele>199.23</ele>
        <time>2010-01-01T17:47:44Z</time>
      </trkpt>
      <trkpt lat="44.629040" lon="2.320440">
        <ele>200.46</ele>
        <time>2010-01-01T17:48:24Z</time>
      </trkpt>
      <trkpt lat="44.629370" lon="2.319660">
        <ele>200.46</ele>
        <time>2010-01-01T17:50:02Z</time>
      </trkpt>
      <trkpt lat="44.629610" lon="2.319220">
        <ele>200.46</ele>
        <time>2010-01-01T17:53:20Z</time>
      </trkpt>
      <trkpt lat="44.629890" lon="2.318230">
        <ele>200.46</ele>
        <time>2010-01-01T17:53:55Z</time>
      </trkpt>
      <trkpt lat="44.630060" lon="2.317890">
        <ele>205.70</ele>
        <time>2010-01-01T17:54:26Z</time>
      </trkpt>
      <trkpt lat="44.630260" lon="2.317610">
        <ele>205.70</ele>
        <time>2010-01-01T17:55:25Z</time>
      </trkpt>
      <trkpt lat="44.630540" lon="2.317390">
        <ele>205.70</ele>
        <time>2010-01-01T17:55:46Z</time>
      </trkpt>
      <trkpt lat="44.631500" lon="2.316930">
        <ele>205.70</ele>
        <time>2010-01-01T17:56:41Z</time>
      </trkpt>
      <trkpt lat="44.632310" lon="2.316230">
        <ele>205.70</ele>
        <time>2010-01-01T17:57:17Z</time>
      </trkpt>
      <trkpt lat="44.632690" lon="2.315710">
        <ele>205.012695</ele>
        <time>2010-01-01T17:57:24Z</time>
      </trkpt>
      <trkpt lat="44.633010" lon="2.315520">
        <ele>201.844254</ele>
        <time>2010-01-01T17:57:49Z</time>
      </trkpt>
      <trkpt lat="44.633120" lon="2.315380">
        <ele>201.47</ele>
        <time>2010-01-01T17:57:56Z</time>
      </trkpt>
      <trkpt lat="44.633610" lon="2.314200">
        <ele>205.08</ele>
        <time>2010-01-01T17:58:20Z</time>
      </trkpt>
      <trkpt lat="44.634040" lon="2.313480">
        <ele>205.08</ele>
        <time>2010-01-01T17:59:23Z</time>
      </trkpt>
      <trkpt lat="44.635170" lon="2.312580">
        <ele>205.08</ele>
        <time>2010-01-01T18:00:01Z</time>
      </trkpt>
      <trkpt lat="44.635630" lon="2.312290">
        <ele>205.08</ele>
        <time>2010-01-01T18:00:31Z</time>
      </trkpt>
      <trkpt lat="44.636470" lon="2.312100">
        <ele>205.08</ele>
        <time>2010-01-01T18:00:45Z</time>
      </trkpt>
      <trkpt lat="44.637170" lon="2.312180">
        <ele>205.08</ele>
        <time>2010-01-01T18:01:09Z</time>
      </trkpt>
      <trkpt lat="44.637700" lon="2.312330">
        <ele>205.08</ele>
        <time>2010-01-01T18:01:24Z</time>
      </trkpt>
      <trkpt lat="44.638830" lon="2.312490">
        <ele>208.155121</ele>
        <time>2010-01-01T18:02:16Z</time>
      </trkpt>
      <trkpt lat="44.639640" lon="2.312840">
        <ele>211.22</ele>
        <time>2010-01-01T18:02:28Z</time>
      </trkpt>
      <trkpt lat="44.639820" lon="2.312970">
        <ele>211.22</ele>
        <time>2010-01-01T18:06:50Z</time>
      </trkpt>
      <trkpt lat="44.640320" lon="2.313440">
        <ele>211.22</ele>
        <time>2010-01-01T18:07:11Z</time>
      </trkpt>
      <trkpt lat="44.640680" lon="2.313880">
        <ele>209.071472</ele>
        <time>2010-01-01T18:07:34Z</time>
      </trkpt>
      <trkpt lat="44.640910" lon="2.314340">
        <ele>206.080811</ele>
        <time>2010-01-01T18:07:43Z</time>
      </trkpt>
      <trkpt lat="44.641070" lon="2.314770">
        <ele>204.794342</ele>
        <time>2010-01-01T18:07:54Z</time>
      </trkpt>
      <trkpt lat="44.641310" lon="2.316060">
        <ele>203.81</ele>
        <time>2010-01-01T18:08:01Z</time>
      </trkpt>
      <trkpt lat="44.641320" lon="2.316420">
        <ele>203.81</ele>
        <time>2010-01-01T18:09:01Z</time>
      </trkpt>
      <trkpt lat="44.641200" lon="2.317270">
        <ele>203.79</ele>
        <time>2010-01-01T18:09:32Z</time>
      </trkpt>
      <trkpt lat="44.640990" lon="2.319380">
        <ele>203.79</ele>
        <time>2010-01-01T18:10:03Z</time>
      </trkpt>
      <trkpt lat="44.640850" lon="2.319950">
        <ele>203.79</ele>
        <time>2010-01-01T18:12:25Z</time>
      </trkpt>
      <trkpt lat="44.640650" lon="2.320460">
        <ele>206.479309</ele>
        <time>2010-01-01T18:12:39Z</time>
      </trkpt>
      <trkpt lat="44.639940" lon="2.321720">
        <ele>208.87</ele>
        <time>2010-01-01T18:13:15Z</time>
      </trkpt>
      <trkpt lat="44.639190" lon="2.322610">
        <ele>208.87</ele>
        <time>2010-01-01T18:14:28Z</time>
      </trkpt>
      <trkpt lat="44.638863" lon="2.322709">
        <ele>206.60</ele>
        <time>2010-01-01T18:14:41Z</time>
      </trkpt>
      <trkpt lat="44.636770" lon="2.323220">
        <ele>206.60</ele>
        <time>2010-01-01T18:14:57Z</time>
      </trkpt>
      <trkpt lat="44.636099" lon="2.323035">
        <ele>206.37</ele>
        <time>2010-01-01T18:15:11Z</time>
      </trkpt>
      <trkpt lat="44.635129" lon="2.322787">
        <ele>208.644150</ele>
        <time>2010-01-01T18:15:35Z</time>
      </trkpt>
      <trkpt lat="44.634815" lon="2.322878">
        <ele>208.96</ele>
        <time>2010-01-01T18:16:15Z</time>
      </trkpt>
      <trkpt lat="44.634248" lon="2.323334">
        <ele>207.796539</ele>
        <time>2010-01-01T18:16:24Z</time>
      </trkpt>
      <trkpt lat="44.634042" lon="2.323790">
        <ele>206.545502</ele>
        <time>2010-01-01T18:16:55Z</time>
      </trkpt>
      <trkpt lat="44.633970" lon="2.324272">
        <ele>204.971909</ele>
        <time>2010-01-01T18:17:05Z</time>
      </trkpt>
      <trkpt lat="44.634150" lon="2.325197">
        <ele>203.33</ele>
        <time>2010-01-01T18:17:23Z</time>
      </trkpt>
      <trkpt lat="44.634520" lon="2.326400">
        <ele>203.33</ele>
        <time>2010-01-01T18:17:33Z</time>
      </trkpt>
      <trkpt lat="44.634990" lon="2.327450">
        <ele>203.33</ele>
        <time>2010-01-01T18:17:53Z</time>
      </trkpt>
      <trkpt lat="44.635460" lon="2.328330">
        <ele>203.33</ele>
        <time>2010-01-01T18:18:28Z</time>
      </trkpt>
      <trkpt lat="44.636560" lon="2.329690">
        <ele>203.33</ele>
        <time>2010-01-01T18:18:36Z</time>
      </trkpt>
      <trkpt lat="44.636890" lon="2.330280">
        <ele>206.19</ele>
        <time>2010-01-01T18:18:43Z</time>
      </trkpt>
      <trkpt lat="44.637420" lon="2.332030">
        <ele>212.97</ele>
        <time>2010-01-01T18:19:02Z</time>
      </trkpt>
      <trkpt lat="44.637730" lon="2.333250">
        <ele>212.97</ele>
        <time>2010-01-01T18:19:30Z</time>
      </trkpt>
      <trkpt lat="44.637780" lon="2.333470">
        <ele>212.97</ele>
        <time>2010-01-01T18:20:13Z</time>
      </trkpt>
      <trkpt lat="44.637860" lon="2.334330">
        <ele>211.16</ele>
        <time>2010-01-01T18:21:26Z</time>
      </trkpt>
      <trkpt lat="44.637920" lon="2.334580">
        <ele>211.16</ele>
        <time>2010-01-01T18:24:36Z</time>
      </trkpt>
      <trkpt lat="44.638210" lon="2.335310">
        <ele>211.682678</ele>
        <time>2010-01-01T18:25:36Z</time>
      </trkpt>
      <trkpt lat="44.638180" lon="2.337530">
        <ele>208.539993</ele>
        <time>2010-01-01T18:25:54Z</time>
      </trkpt>
      <trkpt lat="44.638090" lon="2.338850">
        <ele>207.40</ele>
        <time>2010-01-01T18:26:05Z</time>
      </trkpt>
      <trkpt lat="44.638250" lon="2.339860">
        <ele>207.403000</ele>
        <time>2010-01-01T18:26:20Z</time>
      </trkpt>
      <trkpt lat="44.638270" lon="2.340360">
        <ele>208.01</ele>
        <time>2010-01-01T18:27:07Z</time>
      </trkpt>
      <trkpt lat="44.638160" lon="2.341200">
        <ele>208.01</ele>
        <time>2010-01-01T18:27:42Z</time>
      </trkpt>
      <trkpt lat="44.638050" lon="2.341690">
        <ele>210.324753</ele>
        <time>2010-01-01T18:28:47Z</time>
      </trkpt>
      <trkpt lat="44.637480" lon="2.343330">
        <ele>213.35</ele>
        <time>2010-01-01T18:29:43Z</time>
      </trkpt>
      <trkpt lat="44.637310" lon="2.343700">
        <ele>213.35</ele>
        <time>2010-01-01T18:29:56Z</time>
      </trkpt>
      <trkpt lat="44.636367" lon="2.345050">
        <ele>213.35</ele>
        <time>2010-01-01T18:30:53Z</time>
      </trkpt>
      <trkpt lat="44.635532" lon="2.345988">
        <ele>213.04</ele>
        <time>2010-01-01T18:32:07Z</time>
      </trkpt>
      <trkpt lat="44.635020" lon="2.346796">
        <ele>213.04</ele>
        <time>2010-01-01T18:32:19Z</time>
      </trkpt>
      <trkpt lat="44.634876" lon="2.347356">
        <ele>213.04</ele>
        <time>2010-01-01T18:32:29Z</time>
      </trkpt>
      <trkpt lat="44.634831" lon="2.348229">
        <ele>213.04</ele>
        <time>2010-01-01T18:33:03Z</time>
      </trkpt>
      <trkpt lat="44.635022" lon="2.349336">
        <ele>213.346817</ele>
        <time>2010-01-01T18:34:27Z</time>
      </trkpt>
      <trkpt lat="44.635417" lon="2.350600">
        <ele>210.07</ele>
        <time>2010-01-01T18:34:37Z</time>
      </trkpt>
      <trkpt lat="44.635840" lon="2.351170">
        <ele>210.07</ele>
        <time>2010-01-01T18:37:22Z</time>
      </trkpt>
      <trkpt lat="44.636290" lon="2.351560">
        <ele>210.738480</ele>
        <time>2010-01-01T18:37:43Z</time>
      </trkpt>
      <trkpt lat="44.636820" lon="2.351810">
        <ele>211.019043</ele>
        <time>2010-01-01T18:38:34Z</time>
      </trkpt>
      <trkpt lat="44.636990" lon="2.352050">
        <ele>205.363876</ele>
        <time>2010-01-01T18:39:00Z</time>
      </trkpt>
      <trkpt lat="44.636820" lon="2.352320">
        <ele>196.86</ele>
        <time>2010-01-01T18:40:04Z</time>
      </trkpt>
      <trkpt lat="44.636780" lon="2.352580">
        <ele>196.86</ele>
        <time>2010-01-01T18:40:54Z</time>
      </trkpt>
      <trkpt lat="44.636870" lon="2.354680">
        <ele>196.86</ele>
        <time>2010-01-01T18:43:22Z</time>
      </trkpt>
      <trkpt lat="44.636460" lon="2.355600">
        <ele>209.478699</ele>
        <time>2010-01-01T18:43:40Z</time>
      </trkpt>
      <trkpt lat="44.636380" lon="2.356660">
        <ele>218.235001</ele>
        <time>2010-01-01T18:44:05Z</time>
      </trkpt>
      <trkpt lat="44.636183" lon="2.357061">
        <ele>218.28</ele>
        <time>2010-01-01T18:44:55Z</time>
      </trkpt>
      <trkpt lat="44.635896" lon="2.357478">
        <ele>218.28</ele>
        <time>2010-01-01T18:45:25Z</time>
      </trkpt>
      <trkpt lat="44.635276" lon="2.357790">
        <ele>218.17</ele>
        <time>2010-01-01T18:45:47Z</time>
      </trkpt>
      <trkpt lat="44.634278" lon="2.357855">
        <ele>216.994247</ele>
        <time>2010-01-01T18:46:11Z</time>
      </trkpt>
      <trkpt lat="44.633160" lon="2.357850">
        <ele>216.89</ele>
        <time>2010-01-01T18:46:21Z</time>
      </trkpt>
      <trkpt lat="44.632830" lon="2.357690">
        <ele>216.124481</ele>
        <time>2010-01-01T18:46:33Z</time>
      </trkpt>
      <trkpt lat="44.632040" lon="2.357100">
        <ele>210.88</ele>
        <time>2010-01-01T18:46:41Z</time>
      </trkpt>
      <trkpt lat="44.631746" lon="2.357022">
        <ele>210.88</ele>
        <time>2010-01-01T18:46:53Z</time>
      </trkpt>
      <trkpt lat="44.630220" lon="2.357290">
        <ele>210.88</ele>
        <time>2010-01-01T18:47:06Z</time>
      </trkpt>
      <trkpt lat="44.629920" lon="2.357420">
        <ele>210.595627</ele>
        <time>2010-01-01T18:47:28Z</time>
      </trkpt>
      <trkpt lat="44.629570" lon="2.357690">
        <ele>211.25</ele>
        <time>2010-01-01T18:47:37Z</time>
      </trkpt>
      <trkpt lat="44.629300" lon="2.358030">
        <ele>213.48</ele>
        <time>2010-01-01T18:47:50Z</time>
      </trkpt>
      <trkpt lat="44.629040" lon="2.358770">
        <ele>213.48</ele>
        <time>2010-01-01T18:47:54Z</time>
      </trkpt>
      <trkpt lat="44.628350" lon="2.359780">
        <ele>213.48</ele>
        <time>2010-01-01T18:48:12Z</time>
      </trkpt>
      <trkpt lat="44.628160" lon="2.359980">
        <ele>213.48</ele>
        <time>2010-01-01T18:48:34Z</time>
      </trkpt>
      <trkpt lat="44.627480" lon="2.360470">
        <ele>213.48</ele>
        <time>2010-01-01T18:49:13Z</time>
      </trkpt>
      <trkpt lat="44.627270" lon="2.360700">
        <ele>213.48</ele>
        <time>2010-01-01T18:49:21Z</time>
      </trkpt>
      <trkpt lat="44.626980" lon="2.361140">
        <ele>213.832977</ele>
        <time>2010-01-01T18:49:33Z</time>
      </trkpt>
      <trkpt lat="44.626830" lon="2.361440">
        <ele>213.211212</ele>
        <time>2010-01-01T18:49:44Z</time>
      </trkpt>
      <trkpt lat="44.626610" lon="2.362060">
        <ele>211.70</ele>
        <time>2010-01-01T18:49:53Z</time>
      </trkpt>
      <trkpt lat="44.626260" lon="2.363210">
        <ele>213.33</ele>
        <time>2010-01-01T18:50:31Z</time>
      </trkpt>
      <trkpt lat="44.626140" lon="2.363410">
        <ele>213.33</ele>
        <time>2010-01-01T18:50:53Z</time>
      </trkpt>
      <trkpt lat="44.625980" lon="2.363550">
        <ele>213.33</ele>
        <time>2010-01-01T18:51:12Z</time>
      </trkpt>
      <trkpt lat="44.625530" lon="2.363710">
        <ele>213.33</ele>
        <time>2010-01-01T18:51:15Z</time>
      </trkpt>
      <trkpt lat="44.624880" lon="2.364080">
        <ele>220.40</ele>
        <time>2010-01-01T18:51:21Z</time>
      </trkpt>
      <trkpt lat="44.624644" lon="2.364082">
        <ele>220.40</ele>
        <time>2010-01-01T18:51:35Z</time>
      </trkpt>
      <trkpt lat="44.624339" lon="2.363900">
        <ele>220.40</ele>
        <time>2010-01-01T18:51:55Z</time>
      </trkpt>
      <trkpt lat="44.624000" lon="2.363370">
        <ele>220.40</ele>
        <time>2010-01-01T18:52:03Z</time>
      </trkpt>
      <trkpt lat="44.622860" lon="2.361370">
        <ele>211.29</ele>
        <time>2010-01-01T18:52:15Z</time>
      </trkpt>
      <trkpt lat="44.622645" lon="2.361203">
        <ele>211.29</ele>
        <time>2010-01-01T18:52:37Z</time>
      </trkpt>
      <trkpt lat="44.622133" lon="2.361373">
        <ele>211.29</ele>
        <time>2010-01-01T18:52:56Z</time>
      </trkpt>
      <trkpt lat="44.621684" lon="2.361985">
        <ele>222.983353</ele>
        <time>2010-01-01T18:53:04Z</time>
      </trkpt>
      <trkpt lat="44.621019" lon="2.363314">
        <ele>225.408646</ele>
        <time>2010-01-01T18:53:26Z</time>
      </trkpt>
      <trkpt lat="44.620369" lon="2.364929">
        <ele>226.430008</ele>
        <time>2010-01-01T18:53:39Z</time>
      </trkpt>
      <trkpt lat="44.620279" lon="2.365515">
        <ele>229.562500</ele>
        <time>2010-01-01T18:54:31Z</time>
      </trkpt>
      <trkpt lat="44.620410" lon="2.366240">
        <ele>231.64</ele>
        <time>2010-01-01T18:54:51Z</time>
      </trkpt>
      <trkpt lat="44.621230" lon="2.368020">
        <ele>231.64</ele>
        <time>2010-01-01T18:55:08Z</time>
      </trkpt>
      <trkpt lat="44.621350" lon="2.368610">
        <ele>231.752182</ele>
        <time>2010-01-01T18:56:01Z</time>
      </trkpt>
      <trkpt lat="44.621350" lon="2.368990">
        <ele>231.624893</ele>
        <time>2010-01-01T18:56:23Z</time>
      </trkpt>
      <trkpt lat="44.621260" lon="2.369510">
        <ele>231.96</ele>
        <time>2010-01-01T18:56:40Z</time>
      </trkpt>
      <trkpt lat="44.620740" lon="2.371000">
        <ele>231.96</ele>
        <time>2010-01-01T18:57:30Z</time>
      </trkpt>
      <trkpt lat="44.620400" lon="2.372120">
        <ele>234.30</ele>
        <time>2010-01-01T18:57:57Z</time>
      </trkpt>
      <trkpt lat="44.620199" lon="2.372315">
        <ele>234.30</ele>
        <time>2010-01-01T18:58:06Z</time>
      </trkpt>
      <trkpt lat="44.618920" lon="2.373010">
        <ele>234.30</ele>
        <time>2010-01-01T18:58:27Z</time>
      </trkpt>
      <trkpt lat="44.617680" lon="2.373910">
        <ele>234.963150</ele>
        <time>2010-01-01T18:58:47Z</time>
      </trkpt>
      <trkpt lat="44.617440" lon="2.374200">
        <ele>233.98</ele>
        <time>2010-01-01T18:58:59Z</time>
      </trkpt>
      <trkpt lat="44.616770" lon="2.375960">
        <ele>231.90</ele>
        <time>2010-01-01T19:00:04Z</time>
      </trkpt>
      <trkpt lat="44.616412" lon="2.376536">
        <ele>235.290741</ele>
        <time>2010-01-01T19:00:20Z</time>
      </trkpt>
      <trkpt lat="44.616008" lon="2.376836">
        <ele>233.502945</ele>
        <time>2010-01-01T19:00:29Z</time>
      </trkpt>
      <trkpt lat="44.615220" lon="2.377160">
        <ele>232.652496</ele>
        <time>2010-01-01T19:00:40Z</time>
      </trkpt>
      <trkpt lat="44.614920" lon="2.377280">
        <ele>231.610001</ele>
        <time>2010-01-01T19:00:48Z</time>
      </trkpt>
      <trkpt lat="44.614700" lon="2.377440">
        <ele>231.710999</ele>
        <time>2010-01-01T19:01:00Z</time>
      </trkpt>
      <trkpt lat="44.614329" lon="2.377800">
        <ele>230.823593</ele>
        <time>2010-01-01T19:01:46Z</time>
      </trkpt>
      <trkpt lat="44.614090" lon="2.378240">
        <ele>230.34</ele>
        <time>2010-01-01T19:01:55Z</time>
      </trkpt>
      <trkpt lat="44.613601" lon="2.379115">
        <ele>236.366669</ele>
        <time>2010-01-01T19:02:05Z</time>
      </trkpt>
      <trkpt lat="44.613323" lon="2.379467">
        <ele>236.734375</ele>
        <time>2010-01-01T19:02:28Z</time>
      </trkpt>
      <trkpt lat="44.612649" lon="2.379988">
        <ele>233.26</ele>
        <time>2010-01-01T19:04:54Z</time>
      </trkpt>
      <trkpt lat="44.612540" lon="2.380180">
        <ele>233.26</ele>
        <time>2010-01-01T19:05:11Z</time>
      </trkpt>
      <trkpt lat="44.612480" lon="2.380500">
        <ele>233.26</ele>
        <time>2010-01-01T19:06:06Z</time>
      </trkpt>
      <trkpt lat="44.612677" lon="2.380874">
        <ele>233.637756</ele>
        <time>2010-01-01T19:06:47Z</time>
      </trkpt>
      <trkpt lat="44.613368" lon="2.381773">
        <ele>235.340378</ele>
        <time>2010-01-01T19:07:06Z</time>
      </trkpt>
      <trkpt lat="44.613692" lon="2.382411">
        <ele>235.310944</ele>
        <time>2010-01-01T19:07:15Z</time>
      </trkpt>
      <trkpt lat="44.613737" lon="2.382802">
        <ele>234.209030</ele>
        <time>2010-01-01T19:07:48Z</time>
      </trkpt>
      <trkpt lat="44.613629" lon="2.383180">
        <ele>232.494537</ele>
        <time>2010-01-01T19:08:01Z</time>
      </trkpt>
      <trkpt lat="44.613386" lon="2.383584">
        <ele>231.58</ele>
        <time>2010-01-01T19:08:12Z</time>
      </trkpt>
      <trkpt lat="44.612937" lon="2.383909">
        <ele>231.58</ele>
        <time>2010-01-01T19:08:23Z</time>
      </trkpt>
      <trkpt lat="44.612170" lon="2.384300">
        <ele>231.58</ele>
        <time>2010-01-01T19:08:39Z</time>
      </trkpt>
      <trkpt lat="44.611650" lon="2.384370">
        <ele>230.056442</ele>
        <time>2010-01-01T19:10:22Z</time>
      </trkpt>
      <trkpt lat="44.610390" lon="2.384230">
        <ele>236.40</ele>
        <time>2010-01-01T19:10:59Z</time>
      </trkpt>
      <trkpt lat="44.609750" lon="2.384320">
        <ele>238.398743</ele>
        <time>2010-01-01T19:11:29Z</time>
      </trkpt>
      <trkpt lat="44.608150" lon="2.384560">
        <ele>240.31</ele>
        <time>2010-01-01T19:11:52Z</time>
      </trkpt>
      <trkpt lat="44.606920" lon="2.384370">
        <ele>240.31</ele>
        <time>2010-01-01T19:12:16Z</time>
      </trkpt>
      <trkpt lat="44.605891" lon="2.383857">
        <ele>233.407318</ele>
        <time>2010-01-01T19:12:46Z</time>
      </trkpt>
      <trkpt lat="44.605451" lon="2.383883">
        <ele>233.38</ele>
        <time>2010-01-01T19:12:59Z</time>
      </trkpt>
      <trkpt lat="44.605164" lon="2.384131">
        <ele>233.38</ele>
        <time>2010-01-01T19:13:12Z</time>
      </trkpt>
      <trkpt lat="44.605119" lon="2.384548">
        <ele>236.86</ele>
        <time>2010-01-01T19:13:40Z</time>
      </trkpt>
      <trkpt lat="44.605155" lon="2.385629">
        <ele>236.86</ele>
        <time>2010-01-01T19:14:22Z</time>
      </trkpt>
      <trkpt lat="44.605065" lon="2.386241">
        <ele>237.738388</ele>
        <time>2010-01-01T19:14:41Z</time>
      </trkpt>
      <trkpt lat="44.604910" lon="2.386790">
        <ele>237.354996</ele>
        <time>2010-01-01T19:15:02Z</time>
      </trkpt>
      <trkpt lat="44.604720" lon="2.387340">
        <ele>238.83</ele>
        <time>2010-01-01T19:15:15Z</time>
      </trkpt>
      <trkpt lat="44.604340" lon="2.388030">
        <ele>238.83</ele>
        <time>2010-01-01T19:15:35Z</time>
      </trkpt>
      <trkpt lat="44.603470" lon="2.389320">
        <ele>239.16</ele>
        <time>2010-01-01T19:16:06Z</time>
      </trkpt>
      <trkpt lat="44.602910" lon="2.390010">
        <ele>234.737289</ele>
        <time>2010-01-01T19:16:23Z</time>
      </trkpt>
      <trkpt lat="44.602490" lon="2.390430">
        <ele>241.34</ele>
        <time>2010-01-01T19:17:10Z</time>
      </trkpt>
      <trkpt lat="44.601900" lon="2.390550">
        <ele>241.34</ele>
        <time>2010-01-01T19:18:11Z</time>
      </trkpt>
      <trkpt lat="44.601640" lon="2.390570">
        <ele>241.34</ele>
        <time>2010-01-01T19:18:45Z</time>
      </trkpt>
      <trkpt lat="44.601370" lon="2.390400">
        <ele>242.002792</ele>
        <time>2010-01-01T19:18:58Z</time>
      </trkpt>
      <trkpt lat="44.601180" lon="2.390390">
        <ele>241.061935</ele>
        <time>2010-01-01T19:19:20Z</time>
      </trkpt>
      <trkpt lat="44.600900" lon="2.390570">
        <ele>245.70</ele>
        <time>2010-01-01T19:19:41Z</time>
      </trkpt>
      <trkpt lat="44.600660" lon="2.390860">
        <ele>247.579132</ele>
        <time>2010-01-01T19:20:07Z</time>
      </trkpt>
      <trkpt lat="44.600440" lon="2.391590">
        <ele>251.73</ele>
        <time>2010-01-01T19:20:22Z</time>
      </trkpt>
      <trkpt lat="44.600390" lon="2.391890">
        <ele>255.42</ele>
        <time>2010-01-01T19:20:39Z</time>
      </trkpt>
      <trkpt lat="44.600400" lon="2.392350">
        <ele>263.26</ele>
        <time>2010-01-01T19:20:52Z</time>
      </trkpt>
      <trkpt lat="44.600420" lon="2.392480">
        <ele>266.56</ele>
        <time>2010-01-01T19:21:13Z</time>
      </trkpt>
      <trkpt lat="44.600250" lon="2.393070">
        <ele>267.58</ele>
        <time>2010-01-01T19:21:32Z</time>
      </trkpt>
      <trkpt lat="44.599830" lon="2.393580">
        <ele>274.61</ele>
        <time>2010-01-01T19:21:49Z</time>
      </trkpt>
      <trkpt lat="44.599211" lon="2.393810">
        <ele>274.61</ele>
        <time>2010-01-01T19:22:37Z</time>
      </trkpt>
      <trkpt lat="44.598900" lon="2.393850">
        <ele>274.61</ele>
        <time>2010-01-01T19:22:53Z</time>
      </trkpt>
      <trkpt lat="44.598720" lon="2.394020">
        <ele>274.61</ele>
        <time>2010-01-01T19:23:06Z</time>
      </trkpt>
      <trkpt lat="44.598590" lon="2.394370">
        <ele>276.61</ele>
        <time>2010-01-01T19:23:34Z</time>
      </trkpt>
      <trkpt lat="44.598720" lon="2.394020">
        <ele>277.85</ele>
        <time>2010-01-01T19:24:13Z</time>
      </trkpt>
      <trkpt lat="44.598900" lon="2.393850">
        <ele>276.29</ele>
        <time>2010-01-01T19:24:20Z</time>
      </trkpt>
      <trkpt lat="44.599202" lon="2.393797">
        <ele>277.55</ele>
        <time>2010-01-01T19:25:02Z</time>
      </trkpt>
      <trkpt lat="44.599830" lon="2.393580">
        <ele>274.61</ele>
        <time>2010-01-01T19:25:17Z</time>
      </trkpt>
      <trkpt lat="44.600250" lon="2.393070">
        <ele>267.58</ele>
        <time>2010-01-01T19:25:40Z</time>
      </trkpt>
      <trkpt lat="44.600420" lon="2.392480">
        <ele>266.56</ele>
        <time>2010-01-01T19:25:55Z</time>
      </trkpt>
      <trkpt lat="44.600400" lon="2.392350">
        <ele>263.26</ele>
        <time>2010-01-01T19:26:13Z</time>
      </trkpt>
      <trkpt lat="44.600280" lon="2.392450">
        <ele>256.66</ele>
        <time>2010-01-01T19:26:30Z</time>
      </trkpt>
      <trkpt lat="44.600160" lon="2.392900">
        <ele>258.72</ele>
        <time>2010-01-01T19:27:29Z</time>
      </trkpt>
      <trkpt lat="44.599740" lon="2.393240">
        <ele>255.20</ele>
        <time>2010-01-01T19:27:39Z</time>
      </trkpt>
      <trkpt lat="44.599530" lon="2.393290">
        <ele>254.10</ele>
        <time>2010-01-01T19:27:53Z</time>
      </trkpt>
      <trkpt lat="44.599230" lon="2.393280">
        <ele>251.64</ele>
        <time>2010-01-01T19:28:04Z</time>
      </trkpt>
      <trkpt lat="44.598690" lon="2.393110">
        <ele>243.07</ele>
        <time>2010-01-01T19:28:29Z</time>
      </trkpt>
      <trkpt lat="44.598230" lon="2.393120">
        <ele>240.28</ele>
        <time>2010-01-01T19:29:01Z</time>
      </trkpt>
      <trkpt lat="44.598080" lon="2.392960">
        <ele>239.22</ele>
        <time>2010-01-01T19:30:01Z</time>
      </trkpt>
      <trkpt lat="44.597560" lon="2.392750">
        <ele>238.96</ele>
        <time>2010-01-01T19:30:24Z</time>
      </trkpt>
      <trkpt lat="44.597230" lon="2.392790">
        <ele>236.596878</ele>
        <time>2010-01-01T19:30:38Z</time>
      </trkpt>
      <trkpt lat="44.596120" lon="2.393710">
        <ele>237.637695</ele>
        <time>2010-01-01T19:31:00Z</time>
      </trkpt>
      <trkpt lat="44.595610" lon="2.393800">
        <ele>237.796295</ele>
        <time>2010-01-01T19:32:13Z</time>
      </trkpt>
      <trkpt lat="44.595210" lon="2.393960">
        <ele>238.819214</ele>
        <time>2010-01-01T19:32:35Z</time>
      </trkpt>
      <trkpt lat="44.594050" lon="2.394850">
        <ele>239.102463</ele>
        <time>2010-01-01T19:32:46Z</time>
      </trkpt>
      <trkpt lat="44.593580" lon="2.395250">
        <ele>237.94</ele>
        <time>2010-01-01T19:33:48Z</time>
      </trkpt>
      <trkpt lat="44.593260" lon="2.395630">
        <ele>237.94</ele>
        <time>2010-01-01T19:33:54Z</time>
      </trkpt>
      <trkpt lat="44.592440" lon="2.396960">
        <ele>238.043564</ele>
        <time>2010-01-01T19:34:51Z</time>
      </trkpt>
      <trkpt lat="44.592060" lon="2.397750">
        <ele>237.94</ele>
        <time>2010-01-01T19:35:05Z</time>
      </trkpt>
      <trkpt lat="44.591870" lon="2.397920">
        <ele>237.94</ele>
        <time>2010-01-01T19:35:17Z</time>
      </trkpt>
      <trkpt lat="44.591360" lon="2.398090">
        <ele>237.94</ele>
        <time>2010-01-01T19:36:38Z</time>
      </trkpt>
      <trkpt lat="44.590850" lon="2.398130">
        <ele>237.94</ele>
        <time>2010-01-01T19:37:19Z</time>
      </trkpt>
      <trkpt lat="44.590580" lon="2.397990">
        <ele>237.94</ele>
        <time>2010-01-01T19:37:41Z</time>
      </trkpt>
      <trkpt lat="44.589230" lon="2.396720">
        <ele>237.94</ele>
        <time>2010-01-01T19:39:40Z</time>
      </trkpt>
      <trkpt lat="44.588920" lon="2.396370">
        <ele>238.14</ele>
        <time>2010-01-01T19:40:07Z</time>
      </trkpt>
      <trkpt lat="44.588680" lon="2.396350">
        <ele>238.125549</ele>
        <time>2010-01-01T19:40:37Z</time>
      </trkpt>
      <trkpt lat="44.588450" lon="2.396490">
        <ele>238.607132</ele>
        <time>2010-01-01T19:41:00Z</time>
      </trkpt>
      <trkpt lat="44.588310" lon="2.396710">
        <ele>237.94</ele>
        <time>2010-01-01T19:41:13Z</time>
      </trkpt>
      <trkpt lat="44.588250" lon="2.397130">
        <ele>237.94</ele>
        <time>2010-01-01T19:41:39Z</time>
      </trkpt>
      <trkpt lat="44.588550" lon="2.398690">
        <ele>238.69</ele>
        <time>2010-01-01T19:42:12Z</time>
      </trkpt>
      <trkpt lat="44.588550" lon="2.399010">
        <ele>238.69</ele>
        <time>2010-01-01T19:43:10Z</time>
      </trkpt>
      <trkpt lat="44.588490" lon="2.399340">
        <ele>238.69</ele>
        <time>2010-01-01T19:43:46Z</time>
      </trkpt>
      <trkpt lat="44.588210" lon="2.400040">
        <ele>238.69</ele>
        <time>2010-01-01T19:43:52Z</time>
      </trkpt>
      <trkpt lat="44.587122" lon="2.401704">
        <ele>238.69</ele>
        <time>2010-01-01T19:44:02Z</time>
      </trkpt>
      <trkpt lat="44.586736" lon="2.401991">
        <ele>238.216797</ele>
        <time>2010-01-01T19:44:38Z</time>
      </trkpt>
      <trkpt lat="44.585999" lon="2.402251">
        <ele>236.66</ele>
        <time>2010-01-01T19:44:48Z</time>
      </trkpt>
      <trkpt lat="44.585210" lon="2.402280">
        <ele>236.66</ele>
        <time>2010-01-01T19:44:56Z</time>
      </trkpt>
      <trkpt lat="44.584770" lon="2.402280">
        <ele>237.760620</ele>
        <time>2010-01-01T19:45:30Z</time>
      </trkpt>
      <trkpt lat="44.583430" lon="2.402540">
        <ele>237.611206</ele>
        <time>2010-01-01T19:46:23Z</time>
      </trkpt>
      <trkpt lat="44.582480" lon="2.403140">
        <ele>239.762558</ele>
        <time>2010-01-01T19:47:48Z</time>
      </trkpt>
      <trkpt lat="44.582120" lon="2.403550">
        <ele>238.86</ele>
        <time>2010-01-01T19:47:57Z</time>
      </trkpt>
      <trkpt lat="44.582030" lon="2.403830">
        <ele>238.86</ele>
        <time>2010-01-01T19:48:11Z</time>
      </trkpt>
      <trkpt lat="44.581930" lon="2.404980">
        <ele>240.02</ele>
        <time>2010-01-01T19:48:24Z</time>
      </trkpt>
      <trkpt lat="44.581840" lon="2.405420">
        <ele>239.04</ele>
        <time>2010-01-01T19:48:32Z</time>
      </trkpt>
      <trkpt lat="44.581690" lon="2.405750">
        <ele>236.01</ele>
        <time>2010-01-01T19:48:40Z</time>
      </trkpt>
      <trkpt lat="44.581460" lon="2.405990">
        <ele>236.01</ele>
        <time>2010-01-01T19:49:44Z</time>
      </trkpt>
      <trkpt lat="44.581110" lon="2.406250">
        <ele>236.01</ele>
        <time>2010-01-01T19:49:53Z</time>
      </trkpt>
      <trkpt lat="44.578770" lon="2.407700">
        <ele>236.72</ele>
        <time>2010-01-01T19:50:06Z</time>
      </trkpt>
      <trkpt lat="44.577880" lon="2.408080">
        <ele>238.18</ele>
        <time>2010-01-01T19:50:12Z</time>
      </trkpt>
      <trkpt lat="44.577120" lon="2.408150">
        <ele>238.18</ele>
        <time>2010-01-01T19:50:31Z</time>
      </trkpt>
      <trkpt lat="44.576560" lon="2.408090">
        <ele>238.18</ele>
        <time>2010-01-01T19:51:03Z</time>
      </trkpt>
      <trkpt lat="44.576020" lon="2.407720">
        <ele>238.68</ele>
        <time>2010-01-01T19:51:25Z</time>
      </trkpt>
      <trkpt lat="44.575420" lon="2.407090">
        <ele>239.85</ele>
        <time>2010-01-01T19:52:27Z</time>
      </trkpt>
      <trkpt lat="44.575100" lon="2.406970">
        <ele>239.85</ele>
        <time>2010-01-01T19:52:39Z</time>
      </trkpt>
      <trkpt lat="44.574790" lon="2.407080">
        <ele>240.59</ele>
        <time>2010-01-01T19:53:00Z</time>
      </trkpt>
      <trkpt lat="44.574200" lon="2.407610">
        <ele>241.69</ele>
        <time>2010-01-01T19:53:35Z</time>
      </trkpt>
      <trkpt lat="44.573270" lon="2.408310">
        <ele>241.69</ele>
        <time>2010-01-01T19:54:22Z</time>
      </trkpt>
      <trkpt lat="44.572810" lon="2.408500">
        <ele>241.69</ele>
        <time>2010-01-01T19:55:22Z</time>
      </trkpt>
      <trkpt lat="44.572300" lon="2.408460">
        <ele>241.69</ele>
        <time>2010-01-01T19:55:40Z</time>
      </trkpt>
      <trkpt lat="44.571990" lon="2.408320">
        <ele>241.69</ele>
        <time>2010-01-01T19:56:07Z</time>
      </trkpt>
      <trkpt lat="44.571550" lon="2.408020">
        <ele>241.69</ele>
        <time>2010-01-01T19:56:14Z</time>
      </trkpt>
      <trkpt lat="44.570870" lon="2.407440">
        <ele>241.69</ele>
        <time>2010-01-01T19:56:46Z</time>
      </trkpt>
      <trkpt lat="44.570560" lon="2.407060">
        <ele>241.69</ele>
        <time>2010-01-01T19:57:19Z</time>
      </trkpt>
      <trkpt lat="44.569800" lon="2.405820">
        <ele>239.69</ele>
        <time>2010-01-01T19:57:37Z</time>
      </trkpt>
      <trkpt lat="44.569495" lon="2.405417">
        <ele>239.41</ele>
        <time>2010-01-01T19:58:03Z</time>
      </trkpt>
      <trkpt lat="44.569216" lon="2.405430">
        <ele>235.27</ele>
        <time>2010-01-01T20:02:01Z</time>
      </trkpt>
      <trkpt lat="44.569010" lon="2.405768">
        <ele>236.36</ele>
        <time>2010-01-01T20:03:12Z</time>
      </trkpt>
      <trkpt lat="44.568776" lon="2.406055">
        <ele>237.54</ele>
        <time>2010-01-01T20:05:25Z</time>
      </trkpt>
      <trkpt lat="44.568510" lon="2.406050">
        <ele>238.09</ele>
        <time>2010-01-01T20:05:42Z</time>
      </trkpt>
      <trkpt lat="44.567740" lon="2.406550">
        <ele>238.27</ele>
        <time>2010-01-01T20:06:00Z</time>
      </trkpt>
      <trkpt lat="44.567400" lon="2.406560">
        <ele>239.10</ele>
        <time>2010-01-01T20:07:04Z</time>
      </trkpt>
      <trkpt lat="44.566940" lon="2.406210">
        <ele>239.65</ele>
        <time>2010-01-01T20:07:36Z</time>
      </trkpt>
      <trkpt lat="44.566746" lon="2.406211">
        <ele>239.31</ele>
        <time>2010-01-01T20:08:34Z</time>
      </trkpt>
      <trkpt lat="44.566560" lon="2.406640">
        <ele>240.38</ele>
        <time>2010-01-01T20:08:52Z</time>
      </trkpt>
      <trkpt lat="44.566350" lon="2.407500">
        <ele>240.38</ele>
        <time>2010-01-01T20:09:11Z</time>
      </trkpt>
      <trkpt lat="44.566180" lon="2.407970">
        <ele>240.38</ele>
        <time>2010-01-01T20:09:22Z</time>
      </trkpt>
      <trkpt lat="44.565890" lon="2.408440">
        <ele>240.38</ele>
        <time>2010-01-01T20:09:45Z</time>
      </trkpt>
      <trkpt lat="44.565650" lon="2.408720">
        <ele>240.38</ele>
        <time>2010-01-01T20:09:56Z</time>
      </trkpt>
      <trkpt lat="44.565180" lon="2.409020">
        <ele>240.38</ele>
        <time>2010-01-01T20:10:11Z</time>
      </trkpt>
      <trkpt lat="44.564700" lon="2.409140">
        <ele>240.38</ele>
        <time>2010-01-01T20:11:09Z</time>
      </trkpt>
      <trkpt lat="44.564270" lon="2.409100">
        <ele>240.38</ele>
        <time>2010-01-01T20:11:18Z</time>
      </trkpt>
      <trkpt lat="44.563100" lon="2.408710">
        <ele>240.38</ele>
        <time>2010-01-01T20:11:44Z</time>
      </trkpt>
      <trkpt lat="44.562720" lon="2.408640">
        <ele>241.88</ele>
        <time>2010-01-01T20:12:10Z</time>
      </trkpt>
      <trkpt lat="44.562390" lon="2.408690">
        <ele>241.88</ele>
        <time>2010-01-01T20:12:19Z</time>
      </trkpt>
      <trkpt lat="44.561710" lon="2.408930">
        <ele>241.88</ele>
        <time>2010-01-01T20:13:00Z</time>
      </trkpt>
      <trkpt lat="44.561576" lon="2.408087">
        <ele>241.88</ele>
        <time>2010-01-01T20:13:20Z</time>
      </trkpt>
      <trkpt lat="44.561220" lon="2.408230">
        <ele>241.11</ele>
        <time>2010-01-01T20:13:58Z</time>
      </trkpt>
      <trkpt lat="44.561030" lon="2.408180">
        <ele>242.05</ele>
        <time>2010-01-01T20:14:39Z</time>
      </trkpt>
      <trkpt lat="44.560741" lon="2.407866">
        <ele>242.05</ele>
        <time>2010-01-01T20:14:45Z</time>
      </trkpt>
      <trkpt lat="44.560450" lon="2.406990">
        <ele>242.05</ele>
        <time>2010-01-01T20:15:11Z</time>
      </trkpt>
      <trkpt lat="44.560250" lon="2.406550">
        <ele>243.82</ele>
        <time>2010-01-01T20:15:16Z</time>
      </trkpt>
      <trkpt lat="44.559850" lon="2.405980">
        <ele>243.82</ele>
        <time>2010-01-01T20:15:50Z</time>
      </trkpt>
      <trkpt lat="44.559610" lon="2.405580">
        <ele>243.82</ele>
        <time>2010-01-01T20:16:10Z</time>
      </trkpt>
      <trkpt lat="44.559380" lon="2.405040">
        <ele>243.82</ele>
        <time>2010-01-01T20:16:38Z</time>
      </trkpt>
      <trkpt lat="44.559060" lon="2.404660">
        <ele>244.73</ele>
        <time>2010-01-01T20:17:00Z</time>
      </trkpt>
      <trkpt lat="44.557740" lon="2.403750">
        <ele>244.73</ele>
        <time>2010-01-01T20:17:40Z</time>
      </trkpt>
      <trkpt lat="44.557540" lon="2.403530">
        <ele>245.24</ele>
        <time>2010-01-01T20:18:16Z</time>
      </trkpt>
      <trkpt lat="44.557310" lon="2.403150">
        <ele>246.29</ele>
        <time>2010-01-01T20:18:53Z</time>
      </trkpt>
      <trkpt lat="44.557100" lon="2.402900">
        <ele>246.91</ele>
        <time>2010-01-01T20:19:00Z</time>
      </trkpt>
      <trkpt lat="44.556530" lon="2.402620">
        <ele>247.35</ele>
        <time>2010-01-01T20:20:55Z</time>
      </trkpt>
      <trkpt lat="44.555750" lon="2.402950">
        <ele>249.32</ele>
        <time>2010-01-01T20:22:11Z</time>
      </trkpt>
      <trkpt lat="44.554290" lon="2.403280">
        <ele>249.82</ele>
        <time>2010-01-01T20:22:53Z</time>
      </trkpt>
      <trkpt lat="44.553720" lon="2.403500">
        <ele>248.55</ele>
        <time>2010-01-01T20:23:04Z</time>
      </trkpt>
      <trkpt lat="44.553380" lon="2.403470">
        <ele>248.60</ele>
        <time>2010-01-01T20:23:50Z</time>
      </trkpt>
      <trkpt lat="44.552850" lon="2.403300">
        <ele>247.40</ele>
        <time>2010-01-01T20:24:04Z</time>
      </trkpt>
      <trkpt lat="44.551010" lon="2.403270">
        <ele>246.75</ele>
        <time>2010-01-01T20:24:10Z</time>
      </trkpt>
      <trkpt lat="44.550480" lon="2.403320">
        <ele>246.51</ele>
        <time>2010-01-01T20:25:37Z</time>
      </trkpt>
      <trkpt lat="44.550230" lon="2.403170">
        <ele>245.68</ele>
        <time>2010-01-01T20:25:48Z</time>
      </trkpt>
      <trkpt lat="44.549621" lon="2.403710">
        <ele>245.94</ele>
        <time>2010-01-01T20:26:02Z</time>
      </trkpt>
      <trkpt lat="44.549310" lon="2.404860">
        <ele>245.94</ele>
        <time>2010-01-01T20:26:35Z</time>
      </trkpt>
      <trkpt lat="44.549170" lon="2.404920">
        <ele>245.94</ele>
        <time>2010-01-01T20:27:08Z</time>
      </trkpt>
      <trkpt lat="44.547800" lon="2.404380">
        <ele>246.05</ele>
        <time>2010-01-01T20:27:24Z</time>
      </trkpt>
      <trkpt lat="44.547450" lon="2.404310">
        <ele>247.00</ele>
        <time>2010-01-01T20:28:14Z</time>
      </trkpt>
      <trkpt lat="44.547200" lon="2.404210">
        <ele>247.00</ele>
        <time>2010-01-01T20:28:45Z</time>
      </trkpt>
      <trkpt lat="44.545240" lon="2.403500">
        <ele>247.00</ele>
        <time>2010-01-01T20:29:15Z</time>
      </trkpt>
      <trkpt lat="44.544230" lon="2.403300">
        <ele>247.00</ele>
        <time>2010-01-01T20:29:31Z</time>
      </trkpt>
      <trkpt lat="44.543690" lon="2.403120">
        <ele>247.00</ele>
        <time>2010-01-01T20:30:34Z</time>
      </trkpt>
      <trkpt lat="44.540720" lon="2.403420">
        <ele>247.00</ele>
        <time>2010-01-01T20:30:54Z</time>
      </trkpt>
      <trkpt lat="44.540050" lon="2.403390">
        <ele>247.00</ele>
        <time>2010-01-01T20:31:06Z</time>
      </trkpt>
      <trkpt lat="44.539300" lon="2.403600">
        <ele>249.67</ele>
        <time>2010-01-01T20:31:15Z</time>
      </trkpt>
      <trkpt lat="44.538740" lon="2.403550">
        <ele>250.66</ele>
        <time>2010-01-01T20:31:30Z</time>
      </trkpt>
      <trkpt lat="44.538420" lon="2.403600">
        <ele>250.66</ele>
        <time>2010-01-01T20:31:55Z</time>
      </trkpt>
      <trkpt lat="44.537800" lon="2.403870">
        <ele>250.66</ele>
        <time>2010-01-01T20:32:25Z</time>
      </trkpt>
      <trkpt lat="44.537030" lon="2.404340">
        <ele>250.66</ele>
        <time>2010-01-01T20:32:37Z</time>
      </trkpt>
      <trkpt lat="44.535940" lon="2.405660">
        <ele>250.66</ele>
        <time>2010-01-01T20:32:50Z</time>
      </trkpt>
      <trkpt lat="44.535170" lon="2.406300">
        <ele>249.64</ele>
        <time>2010-01-01T20:33:05Z</time>
      </trkpt>
      <trkpt lat="44.535010" lon="2.406350">
        <ele>248.11</ele>
        <time>2010-01-01T20:33:14Z</time>
      </trkpt>
      <trkpt lat="44.534770" lon="2.406320">
        <ele>248.016647</ele>
        <time>2010-01-01T20:33:34Z</time>
      </trkpt>
      <trkpt lat="44.533970" lon="2.405720">
        <ele>247.85</ele>
        <time>2010-01-01T20:33:46Z</time>
      </trkpt>
      <trkpt lat="44.533750" lon="2.405630">
        <ele>246.62</ele>
        <time>2010-01-01T20:34:09Z</time>
      </trkpt>
      <trkpt lat="44.533530" lon="2.405610">
        <ele>246.62</ele>
        <time>2010-01-01T20:35:55Z</time>
      </trkpt>
      <trkpt lat="44.532690" lon="2.405740">
        <ele>246.62</ele>
        <time>2010-01-01T20:36:13Z</time>
      </trkpt>
      <trkpt lat="44.532091" lon="2.406094">
        <ele>245.49</ele>
        <time>2010-01-01T20:37:01Z</time>
      </trkpt>
      <trkpt lat="44.531520" lon="2.405720">
        <ele>247.953690</ele>
        <time>2010-01-01T20:37:10Z</time>
      </trkpt>
      <trkpt lat="44.529550" lon="2.404660">
        <ele>248.71</ele>
        <time>2010-01-01T20:37:18Z</time>
      </trkpt>
      <trkpt lat="44.529560" lon="2.405000">
        <ele>248.71</ele>
        <time>2010-01-01T20:37:42Z</time>
      </trkpt>
      <trkpt lat="44.529670" lon="2.405460">
        <ele>249.07</ele>
        <time>2010-01-01T20:40:45Z</time>
      </trkpt>
      <trkpt lat="44.529820" lon="2.405840">
        <ele>249.07</ele>
        <time>2010-01-01T20:40:55Z</time>
      </trkpt>
      <trkpt lat="44.529850" lon="2.406110">
        <ele>249.07</ele>
        <time>2010-01-01T20:41:03Z</time>
      </trkpt>
      <trkpt lat="44.529810" lon="2.406390">
        <ele>249.07</ele>
        <time>2010-01-01T20:41:34Z</time>
      </trkpt>
      <trkpt lat="44.529150" lon="2.408450">
        <ele>250.70</ele>
        <time>2010-01-01T20:42:24Z</time>
      </trkpt>
      <trkpt lat="44.528960" lon="2.408580">
        <ele>250.70</ele>
        <time>2010-01-01T20:42:34Z</time>
      </trkpt>
      <trkpt lat="44.528630" lon="2.408460">
        <ele>250.70</ele>
        <time>2010-01-01T20:43:01Z</time>
      </trkpt>
      <trkpt lat="44.528480" lon="2.408460">
        <ele>250.70</ele>
        <time>2010-01-01T20:43:15Z</time>
      </trkpt>
      <trkpt lat="44.528050" lon="2.408680">
        <ele>251.70</ele>
        <time>2010-01-01T20:43:27Z</time>
      </trkpt>
      <trkpt lat="44.527370" lon="2.409310">
        <ele>252.70</ele>
        <time>2010-01-01T20:43:54Z</time>
      </trkpt>
      <trkpt lat="44.526880" lon="2.409630">
        <ele>252.70</ele>
        <time>2010-01-01T20:44:11Z</time>
      </trkpt>
      <trkpt lat="44.525530" lon="2.410690">
        <ele>251.25</ele>
        <time>2010-01-01T20:44:42Z</time>
      </trkpt>
      <trkpt lat="44.525300" lon="2.410960">
        <ele>251.25</ele>
        <time>2010-01-01T20:45:37Z</time>
      </trkpt>
      <trkpt lat="44.524950" lon="2.411510">
        <ele>251.212204</ele>
        <time>2010-01-01T20:48:53Z</time>
      </trkpt>
      <trkpt lat="44.524280" lon="2.412320">
        <ele>252.32</ele>
        <time>2010-01-01T20:49:10Z</time>
      </trkpt>
      <trkpt lat="44.523240" lon="2.413090">
        <ele>252.32</ele>
        <time>2010-01-01T20:50:03Z</time>
      </trkpt>
      <trkpt lat="44.521850" lon="2.413840">
        <ele>252.32</ele>
        <time>2010-01-01T20:50:31Z</time>
      </trkpt>
      <trkpt lat="44.521530" lon="2.414310">
        <ele>253.335266</ele>
        <time>2010-01-01T20:50:53Z</time>
      </trkpt>
      <trkpt lat="44.521270" lon="2.415160">
        <ele>253.545380</ele>
        <time>2010-01-01T20:51:14Z</time>
      </trkpt>
      <trkpt lat="44.521220" lon="2.415410">
        <ele>253.601395</ele>
        <time>2010-01-01T20:51:51Z</time>
      </trkpt>
      <trkpt lat="44.521160" lon="2.416530">
        <ele>254.660736</ele>
        <time>2010-01-01T20:52:03Z</time>
      </trkpt>
      <trkpt lat="44.520980" lon="2.417630">
        <ele>255.488113</ele>
        <time>2010-01-01T20:52:14Z</time>
      </trkpt>
      <trkpt lat="44.520870" lon="2.418250">
        <ele>256.53</ele>
        <time>2010-01-01T20:52:56Z</time>
      </trkpt>
      <trkpt lat="44.520780" lon="2.419170">
        <ele>256.53</ele>
        <time>2010-01-01T20:53:18Z</time>
      </trkpt>
      <trkpt lat="44.521080" lon="2.427480">
        <ele>258.657501</ele>
        <time>2010-01-01T20:53:27Z</time>
      </trkpt>
      <trkpt lat="44.521108" lon="2.428513">
        <ele>263.158173</ele>
        <time>2010-01-01T20:54:12Z</time>
      </trkpt>
      <trkpt lat="44.520857" lon="2.428683">
        <ele>263.565186</ele>
        <time>2010-01-01T20:55:06Z</time>
      </trkpt>
      <trkpt lat="44.520220" lon="2.428710">
        <ele>264.095001</ele>
        <time>2010-01-01T20:55:20Z</time>
      </trkpt>
      <trkpt lat="44.516920" lon="2.428680">
        <ele>264.24</ele>
        <time>2010-01-01T20:55:44Z</time>
      </trkpt>
      <trkpt lat="44.516500" lon="2.428850">
        <ele>262.820007</ele>
        <time>2010-01-01T20:56:00Z</time>
      </trkpt>
      <trkpt lat="44.516120" lon="2.429170">
        <ele>261.049591</ele>
        <time>2010-01-01T20:56:36Z</time>
      </trkpt>
      <trkpt lat="44.516150" lon="2.431420">
        <ele>260.824493</ele>
        <time>2010-01-01T20:56:55Z</time>
      </trkpt>
      <trkpt lat="44.516120" lon="2.432540">
        <ele>259.225647</ele>
        <time>2010-01-01T20:57:14Z</time>
      </trkpt>
      <trkpt lat="44.516440" lon="2.434500">
        <ele>257.64</ele>
        <time>2010-01-01T20:57:29Z</time>
      </trkpt>
      <trkpt lat="44.516620" lon="2.435090">
        <ele>257.64</ele>
        <time>2010-01-01T20:57:48Z</time>
      </trkpt>
      <trkpt lat="44.516880" lon="2.435650">
        <ele>257.64</ele>
        <time>2010-01-01T20:58:05Z</time>
      </trkpt>
      <trkpt lat="44.517090" lon="2.435900">
        <ele>257.59</ele>
        <time>2010-01-01T20:58:47Z</time>
      </trkpt>
      <trkpt lat="44.517600" lon="2.436250">
        <ele>262.90</ele>
        <time>2010-01-01T20:59:04Z</time>
      </trkpt>
      <trkpt lat="44.517820" lon="2.436490">
        <ele>261.037048</ele>
        <time>2010-01-01T20:59:22Z</time>
      </trkpt>
      <trkpt lat="44.517990" lon="2.436950">
        <ele>259.981232</ele>
        <time>2010-01-01T20:59:37Z</time>
      </trkpt>
      <trkpt lat="44.518530" lon="2.438820">
        <ele>258.52</ele>
        <time>2010-01-01T21:00:07Z</time>
      </trkpt>
      <trkpt lat="44.518590" lon="2.439130">
        <ele>258.52</ele>
        <time>2010-01-01T21:00:20Z</time>
      </trkpt>
      <trkpt lat="44.518520" lon="2.440060">
        <ele>259.16</ele>
        <time>2010-01-01T21:00:54Z</time>
      </trkpt>
      <trkpt lat="44.518600" lon="2.440940">
        <ele>259.16</ele>
        <time>2010-01-01T21:01:00Z</time>
      </trkpt>
      <trkpt lat="44.518660" lon="2.441260">
        <ele>259.16</ele>
        <time>2010-01-01T21:01:16Z</time>
      </trkpt>
      <trkpt lat="44.519100" lon="2.442540">
        <ele>259.16</ele>
        <time>2010-01-01T21:01:36Z</time>
      </trkpt>
      <trkpt lat="44.519220" lon="2.443230">
        <ele>259.118439</ele>
        <time>2010-01-01T21:01:47Z</time>
      </trkpt>
      <trkpt lat="44.519330" lon="2.444570">
        <ele>261.244995</ele>
        <time>2010-01-01T21:02:22Z</time>
      </trkpt>
      <trkpt lat="44.519310" lon="2.445990">
        <ele>262.010986</ele>
        <time>2010-01-01T21:02:48Z</time>
      </trkpt>
      <trkpt lat="44.519360" lon="2.446180">
        <ele>262.357361</ele>
        <time>2010-01-01T21:02:59Z</time>
      </trkpt>
      <trkpt lat="44.519750" lon="2.446900">
        <ele>265.47</ele>
        <time>2010-01-01T21:03:56Z</time>
      </trkpt>
      <trkpt lat="44.519810" lon="2.447080">
        <ele>265.02</ele>
        <time>2010-01-01T21:04:09Z</time>
      </trkpt>
      <trkpt lat="44.519990" lon="2.448240">
        <ele>265.02</ele>
        <time>2010-01-01T21:04:37Z</time>
      </trkpt>
      <trkpt lat="44.520220" lon="2.448840">
        <ele>265.073486</ele>
        <time>2010-01-01T21:05:12Z</time>
      </trkpt>
      <trkpt lat="44.520490" lon="2.449750">
        <ele>267.456696</ele>
        <time>2010-01-01T21:05:30Z</time>
      </trkpt>
      <trkpt lat="44.520630" lon="2.450520">
        <ele>269.35</ele>
        <time>2010-01-01T21:05:40Z</time>
      </trkpt>
      <trkpt lat="44.520810" lon="2.451890">
        <ele>269.35</ele>
        <time>2010-01-01T21:05:59Z</time>
      </trkpt>
      <trkpt lat="44.521130" lon="2.453070">
        <ele>269.35</ele>
        <time>2010-01-01T21:06:10Z</time>
      </trkpt>
      <trkpt lat="44.521540" lon="2.454210">
        <ele>269.35</ele>
        <time>2010-01-01T21:06:45Z</time>
      </trkpt>
      <trkpt lat="44.521590" lon="2.454470">
        <ele>268.38</ele>
        <time>2010-01-01T21:07:14Z</time>
      </trkpt>
      <trkpt lat="44.521570" lon="2.458490">
        <ele>265.48</ele>
        <time>2010-01-01T21:07:37Z</time>
      </trkpt>
      <trkpt lat="44.521550" lon="2.461160">
        <ele>274.87</ele>
        <time>2010-01-01T21:07:51Z</time>
      </trkpt>
      <trkpt lat="44.521890" lon="2.462540">
        <ele>274.87</ele>
        <time>2010-01-01T21:08:08Z</time>
      </trkpt>
      <trkpt lat="44.521880" lon="2.462920">
        <ele>274.87</ele>
        <time>2010-01-01T21:11:11Z</time>
      </trkpt>
      <trkpt lat="44.521610" lon="2.464490">
        <ele>274.87</ele>
        <time>2010-01-01T21:11:43Z</time>
      </trkpt>
      <trkpt lat="44.521420" lon="2.464890">
        <ele>274.87</ele>
        <time>2010-01-01T21:12:13Z</time>
      </trkpt>
      <trkpt lat="44.521300" lon="2.465040">
        <ele>274.87</ele>
        <time>2010-01-01T21:12:29Z</time>
      </trkpt>
      <trkpt lat="44.519470" lon="2.466660">
        <ele>274.87</ele>
        <time>2010-01-01T21:12:41Z</time>
      </trkpt>
      <trkpt lat="44.519270" lon="2.466920">
        <ele>274.87</ele>
        <time>2010-01-01T21:12:51Z</time>
      </trkpt>
      <trkpt lat="44.519100" lon="2.467380">
        <ele>274.87</ele>
        <time>2010-01-01T21:13:26Z</time>
      </trkpt>
      <trkpt lat="44.518840" lon="2.468470">
        <ele>274.87</ele>
        <time>2010-01-01T21:13:36Z</time>
      </trkpt>
      <trkpt lat="44.518770" lon="2.469630">
        <ele>275.54</ele>
        <time>2010-01-01T21:13:48Z</time>
      </trkpt>
      <trkpt lat="44.518680" lon="2.470160">
        <ele>276.42</ele>
        <time>2010-01-01T21:14:02Z</time>
      </trkpt>
      <trkpt lat="44.518120" lon="2.471740">
        <ele>276.99</ele>
        <time>2010-01-01T21:15:04Z</time>
      </trkpt>
      <trkpt lat="44.517640" lon="2.472580">
        <ele>276.783295</ele>
        <time>2010-01-01T21:15:19Z</time>
      </trkpt>
      <trkpt lat="44.517310" lon="2.473540">
        <ele>277.883698</ele>
        <time>2010-01-01T21:15:36Z</time>
      </trkpt>
      <trkpt lat="44.517080" lon="2.473970">
        <ele>277.739105</ele>
        <time>2010-01-01T21:15:43Z</time>
      </trkpt>
      <trkpt lat="44.515960" lon="2.475520">
        <ele>278.945038</ele>
        <time>2010-01-01T21:15:53Z</time>
      </trkpt>
      <trkpt lat="44.515530" lon="2.475920">
        <ele>278.74</ele>
        <time>2010-01-01T21:16:00Z</time>
      </trkpt>
      <trkpt lat="44.515320" lon="2.476210">
        <ele>278.74</ele>
        <time>2010-01-01T21:16:33Z</time>
      </trkpt>
      <trkpt lat="44.515220" lon="2.476480">
        <ele>278.74</ele>
        <time>2010-01-01T21:16:44Z</time>
      </trkpt>
      <trkpt lat="44.515220" lon="2.477000">
        <ele>278.74</ele>
        <time>2010-01-01T21:16:49Z</time>
      </trkpt>
      <trkpt lat="44.515420" lon="2.477840">
        <ele>277.17</ele>
        <time>2010-01-01T21:17:40Z</time>
      </trkpt>
      <trkpt lat="44.515850" lon="2.478680">
        <ele>277.17</ele>
        <time>2010-01-01T21:17:50Z</time>
      </trkpt>
      <trkpt lat="44.515890" lon="2.479100">
        <ele>277.17</ele>
        <time>2010-01-01T21:18:14Z</time>
      </trkpt>
      <trkpt lat="44.515760" lon="2.479520">
        <ele>277.17</ele>
        <time>2010-01-01T21:18:28Z</time>
      </trkpt>
      <trkpt lat="44.515540" lon="2.479960">
        <ele>277.17</ele>
        <time>2010-01-01T21:18:36Z</time>
      </trkpt>
      <trkpt lat="44.515360" lon="2.480140">
        <ele>277.532501</ele>
        <time>2010-01-01T21:19:08Z</time>
      </trkpt>
      <trkpt lat="44.514910" lon="2.480440">
        <ele>277.931396</ele>
        <time>2010-01-01T21:19:13Z</time>
      </trkpt>
      <trkpt lat="44.514700" lon="2.480740">
        <ele>277.802124</ele>
        <time>2010-01-01T21:19:19Z</time>
      </trkpt>
      <trkpt lat="44.514430" lon="2.481450">
        <ele>275.890015</ele>
        <time>2010-01-01T21:19:35Z</time>
      </trkpt>
      <trkpt lat="44.514346" lon="2.481885">
        <ele>275.11</ele>
        <time>2010-01-01T21:20:00Z</time>
      </trkpt>
      <trkpt lat="44.514440" lon="2.485130">
        <ele>276.925201</ele>
        <time>2010-01-01T21:20:24Z</time>
      </trkpt>
      <trkpt lat="44.514370" lon="2.485780">
        <ele>276.171051</ele>
        <time>2010-01-01T21:20:35Z</time>
      </trkpt>
      <trkpt lat="44.514090" lon="2.487400">
        <ele>277.343262</ele>
        <time>2010-01-01T21:21:49Z</time>
      </trkpt>
      <trkpt lat="44.514100" lon="2.487700">
        <ele>277.315521</ele>
        <time>2010-01-01T21:22:02Z</time>
      </trkpt>
      <trkpt lat="44.514160" lon="2.487970">
        <ele>277.73</ele>
        <time>2010-01-01T21:22:09Z</time>
      </trkpt>
      <trkpt lat="44.514430" lon="2.488720">
        <ele>278.32</ele>
        <time>2010-01-01T21:22:20Z</time>
      </trkpt>
      <trkpt lat="44.514647" lon="2.489987">
        <ele>278.32</ele>
        <time>2010-01-01T21:22:40Z</time>
      </trkpt>
      <trkpt lat="44.514782" lon="2.490430">
        <ele>279.174438</ele>
        <time>2010-01-01T21:23:05Z</time>
      </trkpt>
      <trkpt lat="44.515213" lon="2.490964">
        <ele>279.806396</ele>
        <time>2010-01-01T21:23:39Z</time>
      </trkpt>
      <trkpt lat="44.515733" lon="2.491316">
        <ele>279.91</ele>
        <time>2010-01-01T21:24:06Z</time>
      </trkpt>
      <trkpt lat="44.516972" lon="2.492723">
        <ele>279.91</ele>
        <time>2010-01-01T21:25:06Z</time>
      </trkpt>
      <trkpt lat="44.517223" lon="2.492801">
        <ele>279.91</ele>
        <time>2010-01-01T21:25:42Z</time>
      </trkpt>
      <trkpt lat="44.517500" lon="2.492880">
        <ele>279.91</ele>
        <time>2010-01-01T21:25:54Z</time>
      </trkpt>
      <trkpt lat="44.517710" lon="2.493070">
        <ele>279.320709</ele>
        <time>2010-01-01T21:25:59Z</time>
      </trkpt>
      <trkpt lat="44.517820" lon="2.493300">
        <ele>280.45</ele>
        <time>2010-01-01T21:26:08Z</time>
      </trkpt>
      <trkpt lat="44.518140" lon="2.494260">
        <ele>280.45</ele>
        <time>2010-01-01T21:26:43Z</time>
      </trkpt>
      <trkpt lat="44.519030" lon="2.495490">
        <ele>279.45</ele>
        <time>2010-01-01T21:27:31Z</time>
      </trkpt>
      <trkpt lat="44.519250" lon="2.495670">
        <ele>278.00</ele>
        <time>2010-01-01T21:27:40Z</time>
      </trkpt>
      <trkpt lat="44.519900" lon="2.495890">
        <ele>277.00</ele>
        <time>2010-01-01T21:27:59Z</time>
      </trkpt>
      <trkpt lat="44.520240" lon="2.496090">
        <ele>277.00</ele>
        <time>2010-01-01T21:28:22Z</time>
      </trkpt>
      <trkpt lat="44.520410" lon="2.496420">
        <ele>277.00</ele>
        <time>2010-01-01T21:28:52Z</time>
      </trkpt>
      <trkpt lat="44.520630" lon="2.497320">
        <ele>278.50</ele>
        <time>2010-01-01T21:29:13Z</time>
      </trkpt>
      <trkpt lat="44.520650" lon="2.497930">
        <ele>278.725281</ele>
        <time>2010-01-01T21:29:30Z</time>
      </trkpt>
      <trkpt lat="44.520350" lon="2.498900">
        <ele>278.63</ele>
        <time>2010-01-01T21:29:38Z</time>
      </trkpt>
      <trkpt lat="44.520090" lon="2.500810">
        <ele>280.376221</ele>
        <time>2010-01-01T21:29:47Z</time>
      </trkpt>
      <trkpt lat="44.518790" lon="2.507410">
        <ele>283.587341</ele>
        <time>2010-01-01T21:30:10Z</time>
      </trkpt>
      <trkpt lat="44.518740" lon="2.508030">
        <ele>283.07</ele>
        <time>2010-01-01T21:30:20Z</time>
      </trkpt>
      <trkpt lat="44.518780" lon="2.509860">
        <ele>280.944763</ele>
        <time>2010-01-01T21:30:30Z</time>
      </trkpt>
      <trkpt lat="44.519180" lon="2.510660">
        <ele>280.936676</ele>
        <time>2010-01-01T21:30:49Z</time>
      </trkpt>
      <trkpt lat="44.519620" lon="2.511150">
        <ele>279.475433</ele>
        <time>2010-01-01T21:31:01Z</time>
      </trkpt>
      <trkpt lat="44.520100" lon="2.511410">
        <ele>279.166595</ele>
        <time>2010-01-01T21:31:11Z</time>
      </trkpt>
      <trkpt lat="44.521030" lon="2.511550">
        <ele>279.445190</ele>
        <time>2010-01-01T21:31:30Z</time>
      </trkpt>
      <trkpt lat="44.521330" lon="2.511640">
        <ele>279.224823</ele>
        <time>2010-01-01T21:31:53Z</time>
      </trkpt>
      <trkpt lat="44.521570" lon="2.511830">
        <ele>277.23</ele>
        <time>2010-01-01T21:32:18Z</time>
      </trkpt>
      <trkpt lat="44.522370" lon="2.512750">
        <ele>277.23</ele>
        <time>2010-01-01T21:32:33Z</time>
      </trkpt>
      <trkpt lat="44.522740" lon="2.513310">
        <ele>277.23</ele>
        <time>2010-01-01T21:33:03Z</time>
      </trkpt>
      <trkpt lat="44.522860" lon="2.513610">
        <ele>276.23</ele>
        <time>2010-01-01T21:33:12Z</time>
      </trkpt>
      <trkpt lat="44.523270" lon="2.515070">
        <ele>281.49</ele>
        <time>2010-01-01T21:33:19Z</time>
      </trkpt>
      <trkpt lat="44.523930" lon="2.516700">
        <ele>282.899689</ele>
        <time>2010-01-01T21:33:36Z</time>
      </trkpt>
      <trkpt lat="44.524200" lon="2.517040">
        <ele>282.577942</ele>
        <time>2010-01-01T21:33:43Z</time>
      </trkpt>
      <trkpt lat="44.524770" lon="2.517300">
        <ele>282.864838</ele>
        <time>2010-01-01T21:34:22Z</time>
      </trkpt>
      <trkpt lat="44.525170" lon="2.517380">
        <ele>280.28</ele>
        <time>2010-01-01T21:34:35Z</time>
      </trkpt>
      <trkpt lat="44.526050" lon="2.517200">
        <ele>280.28</ele>
        <time>2010-01-01T21:34:40Z</time>
      </trkpt>
      <trkpt lat="44.526520" lon="2.517190">
        <ele>280.28</ele>
        <time>2010-01-01T21:34:53Z</time>
      </trkpt>
      <trkpt lat="44.526990" lon="2.517280">
        <ele>280.28</ele>
        <time>2010-01-01T21:35:16Z</time>
      </trkpt>
      <trkpt lat="44.527350" lon="2.517490">
        <ele>280.28</ele>
        <time>2010-01-01T21:35:49Z</time>
      </trkpt>
      <trkpt lat="44.527690" lon="2.517930">
        <ele>280.28</ele>
        <time>2010-01-01T21:35:55Z</time>
      </trkpt>
      <trkpt lat="44.527890" lon="2.518450">
        <ele>280.28</ele>
        <time>2010-01-01T21:36:16Z</time>
      </trkpt>
      <trkpt lat="44.528190" lon="2.519880">
        <ele>280.28</ele>
        <time>2010-01-01T21:36:23Z</time>
      </trkpt>
      <trkpt lat="44.528200" lon="2.520450">
        <ele>280.28</ele>
        <time>2010-01-01T21:36:37Z</time>
      </trkpt>
      <trkpt lat="44.528060" lon="2.521060">
        <ele>280.28</ele>
        <time>2010-01-01T21:36:45Z</time>
      </trkpt>
      <trkpt lat="44.527850" lon="2.521500">
        <ele>281.01</ele>
        <time>2010-01-01T21:37:32Z</time>
      </trkpt>
      <trkpt lat="44.527280" lon="2.522160">
        <ele>281.02</ele>
        <time>2010-01-01T21:37:42Z</time>
      </trkpt>
      <trkpt lat="44.527060" lon="2.522520">
        <ele>281.81</ele>
        <time>2010-01-01T21:37:59Z</time>
      </trkpt>
      <trkpt lat="44.526730" lon="2.523620">
        <ele>281.90</ele>
        <time>2010-01-01T21:38:16Z</time>
      </trkpt>
      <trkpt lat="44.526700" lon="2.523820">
        <ele>282.55</ele>
        <time>2010-01-01T21:38:35Z</time>
      </trkpt>
      <trkpt lat="44.526720" lon="2.524360">
        <ele>282.55</ele>
        <time>2010-01-01T21:38:46Z</time>
      </trkpt>
      <trkpt lat="44.526840" lon="2.525050">
        <ele>283.41</ele>
        <time>2010-01-01T21:38:56Z</time>
      </trkpt>
      <trkpt lat="44.526970" lon="2.525380">
        <ele>283.82</ele>
        <time>2010-01-01T21:39:02Z</time>
      </trkpt>
      <trkpt lat="44.527660" lon="2.526170">
        <ele>284.46</ele>
        <time>2010-01-01T21:39:15Z</time>
      </trkpt>
      <trkpt lat="44.528190" lon="2.526700">
        <ele>284.46</ele>
        <time>2010-01-01T21:39:25Z</time>
      </trkpt>
      <trkpt lat="44.528370" lon="2.526980">
        <ele>285.26</ele>
        <time>2010-01-01T21:39:37Z</time>
      </trkpt>
      <trkpt lat="44.529180" lon="2.528610">
        <ele>285.26</ele>
        <time>2010-01-01T21:39:53Z</time>
      </trkpt>
      <trkpt lat="44.529280" lon="2.529050">
        <ele>285.26</ele>
        <time>2010-01-01T21:40:14Z</time>
      </trkpt>
      <trkpt lat="44.529200" lon="2.530030">
        <ele>285.26</ele>
        <time>2010-01-01T21:40:51Z</time>
      </trkpt>
      <trkpt lat="44.529050" lon="2.531220">
        <ele>285.26</ele>
        <time>2010-01-01T21:41:21Z</time>
      </trkpt>
      <trkpt lat="44.529090" lon="2.531850">
        <ele>285.26</ele>
        <time>2010-01-01T21:41:45Z</time>
      </trkpt>
      <trkpt lat="44.529180" lon="2.532190">
        <ele>285.26</ele>
        <time>2010-01-01T21:42:15Z</time>
      </trkpt>
      <trkpt lat="44.529440" lon="2.532740">
        <ele>285.26</ele>
        <time>2010-01-01T21:42:34Z</time>
      </trkpt>
      <trkpt lat="44.529650" lon="2.532990">
        <ele>285.26</ele>
        <time>2010-01-01T21:42:53Z</time>
      </trkpt>
      <trkpt lat="44.530410" lon="2.533610">
        <ele>285.26</ele>
        <time>2010-01-01T21:42:59Z</time>
      </trkpt>
      <trkpt lat="44.531000" lon="2.534200">
        <ele>285.26</ele>
        <time>2010-01-01T21:43:14Z</time>
      </trkpt>
      <trkpt lat="44.531410" lon="2.534740">
        <ele>285.26</ele>
        <time>2010-01-01T21:43:33Z</time>
      </trkpt>
      <trkpt lat="44.531620" lon="2.535160">
        <ele>285.26</ele>
        <time>2010-01-01T21:44:03Z</time>
      </trkpt>
      <trkpt lat="44.531760" lon="2.535710">
        <ele>285.26</ele>
        <time>2010-01-01T21:44:34Z</time>
      </trkpt>
      <trkpt lat="44.532840" lon="2.541930">
        <ele>285.26</ele>
        <time>2010-01-01T21:44:47Z</time>
      </trkpt>
      <trkpt lat="44.533080" lon="2.543020">
        <ele>285.26</ele>
        <time>2010-01-01T21:44:56Z</time>
      </trkpt>
      <trkpt lat="44.533420" lon="2.543940">
        <ele>286.26</ele>
        <time>2010-01-01T21:45:17Z</time>
      </trkpt>
      <trkpt lat="44.533750" lon="2.544260">
        <ele>286.26</ele>
        <time>2010-01-01T21:45:41Z</time>
      </trkpt>
      <trkpt lat="44.533960" lon="2.544570">
        <ele>286.26</ele>
        <time>2010-01-01T21:45:52Z</time>
      </trkpt>
      <trkpt lat="44.534090" lon="2.544870">
        <ele>287.26</ele>
        <time>2010-01-01T21:46:25Z</time>
      </trkpt>
      <trkpt lat="44.534440" lon="2.545990">
        <ele>287.49</ele>
        <time>2010-01-01T21:46:34Z</time>
      </trkpt>
      <trkpt lat="44.534580" lon="2.546270">
        <ele>288.23</ele>
        <time>2010-01-01T21:46:44Z</time>
      </trkpt>
      <trkpt lat="44.534830" lon="2.546540">
        <ele>289.08</ele>
        <time>2010-01-01T21:46:57Z</time>
      </trkpt>
      <trkpt lat="44.535170" lon="2.546610">
        <ele>289.63</ele>
        <time>2010-01-01T21:47:25Z</time>
      </trkpt>
      <trkpt lat="44.536690" lon="2.546200">
        <ele>290.77</ele>
        <time>2010-01-01T21:50:38Z</time>
      </trkpt>
      <trkpt lat="44.537020" lon="2.545950">
        <ele>290.77</ele>
        <time>2010-01-01T21:51:18Z</time>
      </trkpt>
      <trkpt lat="44.537230" lon="2.545450">
        <ele>291.12</ele>
        <time>2010-01-01T21:51:35Z</time>
      </trkpt>
      <trkpt lat="44.537360" lon="2.545280">
        <ele>291.42</ele>
        <time>2010-01-01T21:51:39Z</time>
      </trkpt>
      <trkpt lat="44.537600" lon="2.545160">
        <ele>292.46</ele>
        <time>2010-01-01T21:51:47Z</time>
      </trkpt>
      <trkpt lat="44.537780" lon="2.545190">
        <ele>293.44</ele>
        <time>2010-01-01T21:52:10Z</time>
      </trkpt>
      <trkpt lat="44.538500" lon="2.545700">
        <ele>294.92</ele>
        <time>2010-01-01T21:56:05Z</time>
      </trkpt>
      <trkpt lat="44.538730" lon="2.545950">
        <ele>295.00</ele>
        <time>2010-01-01T21:56:41Z</time>
      </trkpt>
      <trkpt lat="44.538790" lon="2.546100">
        <ele>295.00</ele>
        <time>2010-01-01T21:56:56Z</time>
      </trkpt>
      <trkpt lat="44.539090" lon="2.547840">
        <ele>296.00</ele>
        <time>2010-01-01T21:57:10Z</time>
      </trkpt>
      <trkpt lat="44.539080" lon="2.548190">
        <ele>297.00</ele>
        <time>2010-01-01T21:57:45Z</time>
      </trkpt>
      <trkpt lat="44.538960" lon="2.549010">
        <ele>299.16</ele>
        <time>2010-01-01T21:57:55Z</time>
      </trkpt>
      <trkpt lat="44.538940" lon="2.549510">
        <ele>300.09</ele>
        <time>2010-01-01T21:58:05Z</time>
      </trkpt>
      <trkpt lat="44.538830" lon="2.549740">
        <ele>301.18</ele>
        <time>2010-01-01T21:58:26Z</time>
      </trkpt>
      <trkpt lat="44.538100" lon="2.550160">
        <ele>302.52</ele>
        <time>2010-01-01T21:59:01Z</time>
      </trkpt>
      <trkpt lat="44.538010" lon="2.550270">
        <ele>302.22</ele>
        <time>2010-01-01T21:59:09Z</time>
      </trkpt>
      <trkpt lat="44.537930" lon="2.550480">
        <ele>302.22</ele>
        <time>2010-01-01T21:59:51Z</time>
      </trkpt>
      <trkpt lat="44.537920" lon="2.551010">
        <ele>302.35</ele>
        <time>2010-01-01T22:00:07Z</time>
      </trkpt>
      <trkpt lat="44.538150" lon="2.551850">
        <ele>302.35</ele>
        <time>2010-01-01T22:00:24Z</time>
      </trkpt>
      <trkpt lat="44.538070" lon="2.552670">
        <ele>302.35</ele>
        <time>2010-01-01T22:00:32Z</time>
      </trkpt>
      <trkpt lat="44.537960" lon="2.553030">
        <ele>302.35</ele>
        <time>2010-01-01T22:01:07Z</time>
      </trkpt>
      <trkpt lat="44.537070" lon="2.555310">
        <ele>302.35</ele>
        <time>2010-01-01T22:01:14Z</time>
      </trkpt>
      <trkpt lat="44.536960" lon="2.555750">
        <ele>302.35</ele>
        <time>2010-01-01T22:02:16Z</time>
      </trkpt>
      <trkpt lat="44.536950" lon="2.555970">
        <ele>302.35</ele>
        <time>2010-01-01T22:03:29Z</time>
      </trkpt>
      <trkpt lat="44.536990" lon="2.556350">
        <ele>302.35</ele>
        <time>2010-01-01T22:04:17Z</time>
      </trkpt>
      <trkpt lat="44.537150" lon="2.557010">
        <ele>302.35</ele>
        <time>2010-01-01T22:04:34Z</time>
      </trkpt>
      <trkpt lat="44.537490" lon="2.557750">
        <ele>302.35</ele>
        <time>2010-01-01T22:05:36Z</time>
      </trkpt>
      <trkpt lat="44.537890" lon="2.558810">
        <ele>302.35</ele>
        <time>2010-01-01T22:05:59Z</time>
      </trkpt>
      <trkpt lat="44.538290" lon="2.559590">
        <ele>302.35</ele>
        <time>2010-01-01T22:07:02Z</time>
      </trkpt>
      <trkpt lat="44.539260" lon="2.561170">
        <ele>301.32</ele>
        <time>2010-01-01T22:07:19Z</time>
      </trkpt>
      <trkpt lat="44.539610" lon="2.562330">
        <ele>301.20</ele>
        <time>2010-01-01T22:07:39Z</time>
      </trkpt>
      <trkpt lat="44.539630" lon="2.562730">
        <ele>300.01</ele>
        <time>2010-01-01T22:08:15Z</time>
      </trkpt>
      <trkpt lat="44.539580" lon="2.562890">
        <ele>300.01</ele>
        <time>2010-01-01T22:09:07Z</time>
      </trkpt>
      <trkpt lat="44.539430" lon="2.563160">
        <ele>300.06</ele>
        <time>2010-01-01T22:09:27Z</time>
      </trkpt>
      <trkpt lat="44.538780" lon="2.563960">
        <ele>301.81</ele>
        <time>2010-01-01T22:09:55Z</time>
      </trkpt>
      <trkpt lat="44.537930" lon="2.565150">
        <ele>302.28</ele>
        <time>2010-01-01T22:10:07Z</time>
      </trkpt>
      <trkpt lat="44.537750" lon="2.565310">
        <ele>302.87</ele>
        <time>2010-01-01T22:10:13Z</time>
      </trkpt>
      <trkpt lat="44.537300" lon="2.565570">
        <ele>303.64</ele>
        <time>2010-01-01T22:10:49Z</time>
      </trkpt>
      <trkpt lat="44.537170" lon="2.566350">
        <ele>304.01</ele>
        <time>2010-01-01T22:10:57Z</time>
      </trkpt>
      <trkpt lat="44.537210" lon="2.567390">
        <ele>312.078461</ele>
        <time>2010-01-01T22:11:03Z</time>
      </trkpt>
      <trkpt lat="44.537390" lon="2.568090">
        <ele>321.465271</ele>
        <time>2010-01-01T22:11:15Z</time>
      </trkpt>
      <trkpt lat="44.537400" lon="2.568690">
        <ele>324.047455</ele>
        <time>2010-01-01T22:11:52Z</time>
      </trkpt>
      <trkpt lat="44.537490" lon="2.568940">
        <ele>325.239899</ele>
        <time>2010-01-01T22:12:13Z</time>
      </trkpt>
      <trkpt lat="44.537680" lon="2.569120">
        <ele>322.946289</ele>
        <time>2010-01-01T22:12:41Z</time>
      </trkpt>
      <trkpt lat="44.538190" lon="2.569440">
        <ele>334.26</ele>
        <time>2010-01-01T22:12:47Z</time>
      </trkpt>
      <trkpt lat="44.538420" lon="2.569620">
        <ele>338.33</ele>
        <time>2010-01-01T22:13:24Z</time>
      </trkpt>
      <trkpt lat="44.538520" lon="2.569920">
        <ele>338.07</ele>
        <time>2010-01-01T22:13:48Z</time>
      </trkpt>
      <trkpt lat="44.538560" lon="2.570610">
        <ele>336.17</ele>
        <time>2010-01-01T22:13:59Z</time>
      </trkpt>
      <trkpt lat="44.538450" lon="2.570980">
        <ele>336.80</ele>
        <time>2010-01-01T22:14:38Z</time>
      </trkpt>
      <trkpt lat="44.538440" lon="2.571350">
        <ele>337.91</ele>
        <time>2010-01-01T22:14:52Z</time>
      </trkpt>
      <trkpt lat="44.538540" lon="2.571980">
        <ele>335.92</ele>
        <time>2010-01-01T22:15:05Z</time>
      </trkpt>
      <trkpt lat="44.538840" lon="2.572680">
        <ele>341.67</ele>
        <time>2010-01-01T22:15:12Z</time>
      </trkpt>
      <trkpt lat="44.539080" lon="2.573500">
        <ele>346.13</ele>
        <time>2010-01-01T22:16:04Z</time>
      </trkpt>
      <trkpt lat="44.539110" lon="2.574000">
        <ele>347.08</ele>
        <time>2010-01-01T22:16:12Z</time>
      </trkpt>
      <trkpt lat="44.539060" lon="2.575080">
        <ele>345.64</ele>
        <time>2010-01-01T22:16:33Z</time>
      </trkpt>
      <trkpt lat="44.539090" lon="2.575380">
        <ele>345.63</ele>
        <time>2010-01-01T22:17:07Z</time>
      </trkpt>
      <trkpt lat="44.539160" lon="2.575600">
        <ele>346.77</ele>
        <time>2010-01-01T22:17:12Z</time>
      </trkpt>
      <trkpt lat="44.539480" lon="2.576000">
        <ele>351.28</ele>
        <time>2010-01-01T22:17:19Z</time>
      </trkpt>
      <trkpt lat="44.539560" lon="2.576200">
        <ele>353.48</ele>
        <time>2010-01-01T22:17:37Z</time>
      </trkpt>
      <trkpt lat="44.539750" lon="2.577560">
        <ele>359.67</ele>
        <time>2010-01-01T22:17:46Z</time>
      </trkpt>
      <trkpt lat="44.539980" lon="2.577870">
        <ele>363.15</ele>
        <time>2010-01-01T22:18:18Z</time>
      </trkpt>
      <trkpt lat="44.540030" lon="2.578020">
        <ele>364.04</ele>
        <time>2010-01-01T22:18:24Z</time>
      </trkpt>
      <trkpt lat="44.540040" lon="2.578470">
        <ele>364.42</ele>
        <time>2010-01-01T22:18:58Z</time>
      </trkpt>
      <trkpt lat="44.539980" lon="2.579280">
        <ele>363.37</ele>
        <time>2010-01-01T22:19:14Z</time>
      </trkpt>
      <trkpt lat="44.540150" lon="2.580410">
        <ele>364.96</ele>
        <time>2010-01-01T22:20:51Z</time>
      </trkpt>
      <trkpt lat="44.540260" lon="2.580560">
        <ele>366.85</ele>
        <time>2010-01-01T22:21:10Z</time>
      </trkpt>
      <trkpt lat="44.540760" lon="2.580780">
        <ele>377.64</ele>
        <time>2010-01-01T22:21:35Z</time>
      </trkpt>
      <trkpt lat="44.540880" lon="2.580950">
        <ele>380.27</ele>
        <time>2010-01-01T22:21:49Z</time>
      </trkpt>
      <trkpt lat="44.540930" lon="2.581460">
        <ele>382.21</ele>
        <time>2010-01-01T22:21:57Z</time>
      </trkpt>
      <trkpt lat="44.541000" lon="2.581720">
        <ele>384.30</ele>
        <time>2010-01-01T22:22:05Z</time>
      </trkpt>
      <trkpt lat="44.541680" lon="2.583060">
        <ele>393.05</ele>
        <time>2010-01-01T22:22:16Z</time>
      </trkpt>
      <trkpt lat="44.541740" lon="2.583380">
        <ele>394.21</ele>
        <time>2010-01-01T22:22:21Z</time>
      </trkpt>
      <trkpt lat="44.541720" lon="2.583990">
        <ele>394.61</ele>
        <time>2010-01-01T22:22:33Z</time>
      </trkpt>
      <trkpt lat="44.541930" lon="2.584490">
        <ele>398.84</ele>
        <time>2010-01-01T22:22:49Z</time>
      </trkpt>
      <trkpt lat="44.542020" lon="2.585150">
        <ele>398.84</ele>
        <time>2010-01-01T22:22:54Z</time>
      </trkpt>
      <trkpt lat="44.542170" lon="2.585480">
        <ele>398.01</ele>
        <time>2010-01-01T22:23:15Z</time>
      </trkpt>
      <trkpt lat="44.542370" lon="2.585670">
        <ele>400.01</ele>
        <time>2010-01-01T22:23:21Z</time>
      </trkpt>
      <trkpt lat="44.542540" lon="2.585660">
        <ele>402.10</ele>
        <time>2010-01-01T22:23:30Z</time>
      </trkpt>
      <trkpt lat="44.542840" lon="2.585530">
        <ele>407.45</ele>
        <time>2010-01-01T22:23:35Z</time>
      </trkpt>
      <trkpt lat="44.543080" lon="2.585610">
        <ele>409.755859</ele>
        <time>2010-01-01T22:23:42Z</time>
      </trkpt>
      <trkpt lat="44.543350" lon="2.585780">
        <ele>409.394836</ele>
        <time>2010-01-01T22:24:53Z</time>
      </trkpt>
      <trkpt lat="44.543750" lon="2.585800">
        <ele>412.96</ele>
        <time>2010-01-01T22:25:11Z</time>
      </trkpt>
      <trkpt lat="44.544240" lon="2.585510">
        <ele>415.40</ele>
        <time>2010-01-01T22:25:17Z</time>
      </trkpt>
      <trkpt lat="44.545010" lon="2.584810">
        <ele>416.57</ele>
        <time>2010-01-01T22:25:24Z</time>
      </trkpt>
      <trkpt lat="44.545262" lon="2.584745">
        <ele>417.01</ele>
        <time>2010-01-01T22:25:39Z</time>
      </trkpt>
      <trkpt lat="44.545710" lon="2.585010">
        <ele>420.06</ele>
        <time>2010-01-01T22:26:31Z</time>
      </trkpt>
      <trkpt lat="44.546330" lon="2.585050">
        <ele>424.81</ele>
        <time>2010-01-01T22:26:40Z</time>
      </trkpt>
      <trkpt lat="44.547010" lon="2.585420">
        <ele>426.44</ele>
        <time>2010-01-01T22:26:48Z</time>
      </trkpt>
      <trkpt lat="44.547490" lon="2.585370">
        <ele>433.45</ele>
        <time>2010-01-01T22:27:03Z</time>
      </trkpt>
      <trkpt lat="44.547940" lon="2.585130">
        <ele>439.729095</ele>
        <time>2010-01-01T22:27:12Z</time>
      </trkpt>
      <trkpt lat="44.548090" lon="2.585120">
        <ele>440.29</ele>
        <time>2010-01-01T22:27:20Z</time>
      </trkpt>
      <trkpt lat="44.548420" lon="2.585320">
        <ele>440.23</ele>
        <time>2010-01-01T22:27:25Z</time>
      </trkpt>
      <trkpt lat="44.548900" lon="2.585440">
        <ele>440.23</ele>
        <time>2010-01-01T22:27:38Z</time>
      </trkpt>
      <trkpt lat="44.549082" lon="2.585605">
        <ele>440.23</ele>
        <time>2010-01-01T22:27:43Z</time>
      </trkpt>
      <trkpt lat="44.549109" lon="2.585956">
        <ele>444.42</ele>
        <time>2010-01-01T22:27:53Z</time>
      </trkpt>
      <trkpt lat="44.548800" lon="2.586260">
        <ele>445.13</ele>
        <time>2010-01-01T22:28:19Z</time>
      </trkpt>
      <trkpt lat="44.548498" lon="2.586217">
        <ele>446.12</ele>
        <time>2010-01-01T22:28:23Z</time>
      </trkpt>
      <trkpt lat="44.548090" lon="2.586050">
        <ele>449.08</ele>
        <time>2010-01-01T22:28:36Z</time>
      </trkpt>
      <trkpt lat="44.547750" lon="2.586050">
        <ele>449.380005</ele>
        <time>2010-01-01T22:28:47Z</time>
      </trkpt>
      <trkpt lat="44.547540" lon="2.586140">
        <ele>452.08</ele>
        <time>2010-01-01T22:29:18Z</time>
      </trkpt>
      <trkpt lat="44.547090" lon="2.586490">
        <ele>459.60</ele>
        <time>2010-01-01T22:29:26Z</time>
      </trkpt>
      <trkpt lat="44.546520" lon="2.586800">
        <ele>459.331512</ele>
        <time>2010-01-01T22:29:36Z</time>
      </trkpt>
      <trkpt lat="44.546280" lon="2.586990">
        <ele>461.639984</ele>
        <time>2010-01-01T22:29:41Z</time>
      </trkpt>
      <trkpt lat="44.545470" lon="2.587060">
        <ele>463.024261</ele>
        <time>2010-01-01T22:29:48Z</time>
      </trkpt>
      <trkpt lat="44.545250" lon="2.587190">
        <ele>463.07</ele>
        <time>2010-01-01T22:29:56Z</time>
      </trkpt>
      <trkpt lat="44.545080" lon="2.587430">
        <ele>463.376953</ele>
        <time>2010-01-01T22:30:17Z</time>
      </trkpt>
      <trkpt lat="44.544950" lon="2.587860">
        <ele>463.743591</ele>
        <time>2010-01-01T22:30:35Z</time>
      </trkpt>
      <trkpt lat="44.544790" lon="2.588810">
        <ele>470.150391</ele>
        <time>2010-01-01T22:30:49Z</time>
      </trkpt>
      <trkpt lat="44.544609" lon="2.589383">
        <ele>470.734497</ele>
        <time>2010-01-01T22:30:56Z</time>
      </trkpt>
      <trkpt lat="44.544501" lon="2.590190">
        <ele>474.808319</ele>
        <time>2010-01-01T22:31:24Z</time>
      </trkpt>
      <trkpt lat="44.544492" lon="2.590802">
        <ele>481.155029</ele>
        <time>2010-01-01T22:32:01Z</time>
      </trkpt>
      <trkpt lat="44.544363" lon="2.591389">
        <ele>481.193756</ele>
        <time>2010-01-01T22:32:10Z</time>
      </trkpt>
      <trkpt lat="44.544417" lon="2.591819">
        <ele>485.691254</ele>
        <time>2010-01-01T22:32:16Z</time>
      </trkpt>
      <trkpt lat="44.544615" lon="2.592483">
        <ele>493.537781</ele>
        <time>2010-01-01T22:32:26Z</time>
      </trkpt>
      <trkpt lat="44.544759" lon="2.593447">
        <ele>500.721344</ele>
        <time>2010-01-01T22:32:38Z</time>
      </trkpt>
      <trkpt lat="44.544759" lon="2.593760">
        <ele>501.82</ele>
        <time>2010-01-01T22:32:58Z</time>
      </trkpt>
      <trkpt lat="44.544642" lon="2.594111">
        <ele>501.82</ele>
        <time>2010-01-01T22:33:06Z</time>
      </trkpt>
      <trkpt lat="44.544660" lon="2.594463">
        <ele>501.82</ele>
        <time>2010-01-01T22:33:13Z</time>
      </trkpt>
      <trkpt lat="44.544860" lon="2.595270">
        <ele>503.46</ele>
        <time>2010-01-01T22:33:35Z</time>
      </trkpt>
      <trkpt lat="44.545080" lon="2.596640">
        <ele>510.887238</ele>
        <time>2010-01-01T22:33:43Z</time>
      </trkpt>
      <trkpt lat="44.545310" lon="2.597130">
        <ele>514.858887</ele>
        <time>2010-01-01T22:33:45Z</time>
      </trkpt>
      <trkpt lat="44.545340" lon="2.597270">
        <ele>515.52</ele>
        <time>2010-01-01T22:34:02Z</time>
      </trkpt>
      <trkpt lat="44.545280" lon="2.597540">
        <ele>515.99</ele>
        <time>2010-01-01T22:34:08Z</time>
      </trkpt>
      <trkpt lat="44.544840" lon="2.598070">
        <ele>518.892639</ele>
        <time>2010-01-01T22:34:36Z</time>
      </trkpt>
      <trkpt lat="44.544651" lon="2.599231">
        <ele>524.48</ele>
        <time>2010-01-01T22:34:43Z</time>
      </trkpt>
      <trkpt lat="44.544543" lon="2.599374">
        <ele>524.846497</ele>
        <time>2010-01-01T22:35:06Z</time>
      </trkpt>
      <trkpt lat="44.544409" lon="2.599257">
        <ele>523.67</ele>
        <time>2010-01-01T22:35:18Z</time>
      </trkpt>
      <trkpt lat="44.544364" lon="2.599035">
        <ele>523.67</ele>
        <time>2010-01-01T22:35:26Z</time>
      </trkpt>
      <trkpt lat="44.544355" lon="2.598606">
        <ele>523.67</ele>
        <time>2010-01-01T22:35:48Z</time>
      </trkpt>
      <trkpt lat="44.544166" lon="2.597889">
        <ele>523.67</ele>
        <time>2010-01-01T22:36:08Z</time>
      </trkpt>
      <trkpt lat="44.544247" lon="2.597629">
        <ele>523.57</ele>
        <time>2010-01-01T22:36:30Z</time>
      </trkpt>
      <trkpt lat="44.544220" lon="2.597251">
        <ele>523.141724</ele>
        <time>2010-01-01T22:36:42Z</time>
      </trkpt>
      <trkpt lat="44.544094" lon="2.596977">
        <ele>525.127502</ele>
        <time>2010-01-01T22:36:50Z</time>
      </trkpt>
      <trkpt lat="44.543771" lon="2.596821">
        <ele>533.170044</ele>
        <time>2010-01-01T22:36:55Z</time>
      </trkpt>
      <trkpt lat="44.543448" lon="2.596599">
        <ele>534.32</ele>
        <time>2010-01-01T22:37:12Z</time>
      </trkpt>
      <trkpt lat="44.543403" lon="2.596391">
        <ele>535.98</ele>
        <time>2010-01-01T22:37:20Z</time>
      </trkpt>
      <trkpt lat="44.543510" lon="2.595948">
        <ele>535.98</ele>
        <time>2010-01-01T22:37:33Z</time>
      </trkpt>
      <trkpt lat="44.543501" lon="2.595662">
        <ele>535.98</ele>
        <time>2010-01-01T22:37:51Z</time>
      </trkpt>
      <trkpt lat="44.543331" lon="2.595492">
        <ele>535.98</ele>
        <time>2010-01-01T22:38:34Z</time>
      </trkpt>
      <trkpt lat="44.543034" lon="2.595466">
        <ele>537.98</ele>
        <time>2010-01-01T22:39:41Z</time>
      </trkpt>
      <trkpt lat="44.542846" lon="2.595740">
        <ele>539.06</ele>
        <time>2010-01-01T22:41:04Z</time>
      </trkpt>
      <trkpt lat="44.542711" lon="2.596560">
        <ele>542.24</ele>
        <time>2010-01-01T22:42:07Z</time>
      </trkpt>
      <trkpt lat="44.542610" lon="2.596770">
        <ele>544.92</ele>
        <time>2010-01-01T22:43:05Z</time>
      </trkpt>
      <trkpt lat="44.541790" lon="2.597330">
        <ele>546.78</ele>
        <time>2010-01-01T22:43:14Z</time>
      </trkpt>
      <trkpt lat="44.541490" lon="2.597660">
        <ele>548.22</ele>
        <time>2010-01-01T22:43:34Z</time>
      </trkpt>
      <trkpt lat="44.541400" lon="2.598120">
        <ele>548.39</ele>
        <time>2010-01-01T22:43:50Z</time>
      </trkpt>
      <trkpt lat="44.541420" lon="2.599350">
        <ele>548.515015</ele>
        <time>2010-01-01T22:44:05Z</time>
      </trkpt>
      <trkpt lat="44.541390" lon="2.599710">
        <ele>548.986267</ele>
        <time>2010-01-01T22:44:17Z</time>
      </trkpt>
      <trkpt lat="44.541310" lon="2.600040">
        <ele>549.678101</ele>
        <time>2010-01-01T22:44:27Z</time>
      </trkpt>
      <trkpt lat="44.541050" lon="2.600680">
        <ele>556.170227</ele>
        <time>2010-01-01T22:44:41Z</time>
      </trkpt>
      <trkpt lat="44.540510" lon="2.601630">
        <ele>560.794495</ele>
        <time>2010-01-01T22:44:47Z</time>
      </trkpt>
      <trkpt lat="44.540500" lon="2.601910">
        <ele>561.983948</ele>
        <time>2010-01-01T22:44:53Z</time>
      </trkpt>
      <trkpt lat="44.540572" lon="2.602292">
        <ele>561.015259</ele>
        <time>2010-01-01T22:45:12Z</time>
      </trkpt>
      <trkpt lat="44.540040" lon="2.602890">
        <ele>561.625427</ele>
        <time>2010-01-01T22:45:17Z</time>
      </trkpt>
      <trkpt lat="44.539840" lon="2.603360">
        <ele>563.231567</ele>
        <time>2010-01-01T22:45:44Z</time>
      </trkpt>
      <trkpt lat="44.539770" lon="2.603940">
        <ele>561.54</ele>
        <time>2010-01-01T22:45:50Z</time>
      </trkpt>
      <trkpt lat="44.539770" lon="2.604240">
        <ele>561.35</ele>
        <time>2010-01-01T22:46:13Z</time>
      </trkpt>
      <trkpt lat="44.539930" lon="2.605440">
        <ele>561.35</ele>
        <time>2010-01-01T22:46:27Z</time>
      </trkpt>
      <trkpt lat="44.539930" lon="2.605690">
        <ele>561.35</ele>
        <time>2010-01-01T22:46:46Z</time>
      </trkpt>
      <trkpt lat="44.539640" lon="2.607810">
        <ele>561.406494</ele>
        <time>2010-01-01T22:47:36Z</time>
      </trkpt>
      <trkpt lat="44.539480" lon="2.608350">
        <ele>563.91</ele>
        <time>2010-01-01T22:47:56Z</time>
      </trkpt>
      <trkpt lat="44.539228" lon="2.608662">
        <ele>563.91</ele>
        <time>2010-01-01T22:48:08Z</time>
      </trkpt>
      <trkpt lat="44.538250" lon="2.609220">
        <ele>565.74</ele>
        <time>2010-01-01T22:48:41Z</time>
      </trkpt>
      <trkpt lat="44.537170" lon="2.609940">
        <ele>566.52</ele>
        <time>2010-01-01T22:48:49Z</time>
      </trkpt>
      <trkpt lat="44.536800" lon="2.610260">
        <ele>567.91</ele>
        <time>2010-01-01T22:48:59Z</time>
      </trkpt>
      <trkpt lat="44.535650" lon="2.611720">
        <ele>567.17</ele>
        <time>2010-01-01T22:49:15Z</time>
      </trkpt>
      <trkpt lat="44.535150" lon="2.612120">
        <ele>567.17</ele>
        <time>2010-01-01T22:49:30Z</time>
      </trkpt>
      <trkpt lat="44.535900" lon="2.614030">
        <ele>568.04</ele>
        <time>2010-01-01T22:50:20Z</time>
      </trkpt>
      <trkpt lat="44.536080" lon="2.614580">
        <ele>568.39</ele>
        <time>2010-01-01T22:50:25Z</time>
      </trkpt>
      <trkpt lat="44.536170" lon="2.615280">
        <ele>568.44</ele>
        <time>2010-01-01T22:50:39Z</time>
      </trkpt>
      <trkpt lat="44.536250" lon="2.616520">
        <ele>569.59</ele>
        <time>2010-01-01T22:51:40Z</time>
      </trkpt>
      <trkpt lat="44.536210" lon="2.618350">
        <ele>569.59</ele>
        <time>2010-01-01T22:51:57Z</time>
      </trkpt>
      <trkpt lat="44.536480" lon="2.618940">
        <ele>569.59</ele>
        <time>2010-01-01T22:52:41Z</time>
      </trkpt>
      <trkpt lat="44.536670" lon="2.619900">
        <ele>569.59</ele>
        <time>2010-01-01T22:54:02Z</time>
      </trkpt>
      <trkpt lat="44.536800" lon="2.620270">
        <ele>569.59</ele>
        <time>2010-01-01T22:54:49Z</time>
      </trkpt>
      <trkpt lat="44.536780" lon="2.620490">
        <ele>569.59</ele>
        <time>2010-01-01T22:55:02Z</time>
      </trkpt>
      <trkpt lat="44.536480" lon="2.621680">
        <ele>569.59</ele>
        <time>2010-01-01T22:55:12Z</time>
      </trkpt>
      <trkpt lat="44.536460" lon="2.621950">
        <ele>569.59</ele>
        <time>2010-01-01T22:55:45Z</time>
      </trkpt>
      <trkpt lat="44.536490" lon="2.622140">
        <ele>562.00</ele>
        <time>2010-01-01T22:55:54Z</time>
      </trkpt>
      <trkpt lat="44.536690" lon="2.622470">
        <ele>562.566711</ele>
        <time>2010-01-01T22:57:44Z</time>
      </trkpt>
      <trkpt lat="44.537480" lon="2.623130">
        <ele>559.833923</ele>
        <time>2010-01-01T22:58:18Z</time>
      </trkpt>
      <trkpt lat="44.537564" lon="2.623383">
        <ele>559.749146</ele>
        <time>2010-01-01T22:58:36Z</time>
      </trkpt>
      <trkpt lat="44.537550" lon="2.623830">
        <ele>558.603149</ele>
        <time>2010-01-01T22:58:42Z</time>
      </trkpt>
      <trkpt lat="44.537250" lon="2.624730">
        <ele>553.886230</ele>
        <time>2010-01-01T22:58:56Z</time>
      </trkpt>
      <trkpt lat="44.537220" lon="2.624930">
        <ele>552.68</ele>
        <time>2010-01-01T22:59:04Z</time>
      </trkpt>
      <trkpt lat="44.537350" lon="2.626230">
        <ele>547.481262</ele>
        <time>2010-01-01T22:59:39Z</time>
      </trkpt>
      <trkpt lat="44.537210" lon="2.627020">
        <ele>546.369995</ele>
        <time>2010-01-01T22:59:45Z</time>
      </trkpt>
      <trkpt lat="44.537180" lon="2.627410">
        <ele>545.260010</ele>
        <time>2010-01-01T23:00:07Z</time>
      </trkpt>
      <trkpt lat="44.537240" lon="2.628790">
        <ele>544.75</ele>
        <time>2010-01-01T23:00:31Z</time>
      </trkpt>
      <trkpt lat="44.537210" lon="2.629250">
        <ele>544.75</ele>
        <time>2010-01-01T23:02:26Z</time>
      </trkpt>
      <trkpt lat="44.537060" lon="2.629680">
        <ele>544.967590</ele>
        <time>2010-01-01T23:02:44Z</time>
      </trkpt>
      <trkpt lat="44.537020" lon="2.629920">
        <ele>544.646912</ele>
        <time>2010-01-01T23:03:01Z</time>
      </trkpt>
      <trkpt lat="44.537080" lon="2.631720">
        <ele>541.64</ele>
        <time>2010-01-01T23:03:26Z</time>
      </trkpt>
      <trkpt lat="44.537180" lon="2.631970">
        <ele>541.64</ele>
        <time>2010-01-01T23:03:43Z</time>
      </trkpt>
      <trkpt lat="44.537570" lon="2.632490">
        <ele>541.336304</ele>
        <time>2010-01-01T23:04:05Z</time>
      </trkpt>
      <trkpt lat="44.537649" lon="2.632671">
        <ele>541.009888</ele>
        <time>2010-01-01T23:05:22Z</time>
      </trkpt>
      <trkpt lat="44.537577" lon="2.632931">
        <ele>540.06</ele>
        <time>2010-01-01T23:05:49Z</time>
      </trkpt>
      <trkpt lat="44.537397" lon="2.633062">
        <ele>538.455872</ele>
        <time>2010-01-01T23:06:38Z</time>
      </trkpt>
      <trkpt lat="44.537160" lon="2.633260">
        <ele>533.969727</ele>
        <time>2010-01-01T23:07:55Z</time>
      </trkpt>
      <trkpt lat="44.537160" lon="2.633440">
        <ele>531.03</ele>
        <time>2010-01-01T23:08:30Z</time>
      </trkpt>
      <trkpt lat="44.537290" lon="2.633590">
        <ele>529.70</ele>
        <time>2010-01-01T23:09:06Z</time>
      </trkpt>
      <trkpt lat="44.537740" lon="2.633680">
        <ele>529.70</ele>
        <time>2010-01-01T23:09:40Z</time>
      </trkpt>
      <trkpt lat="44.537940" lon="2.633590">
        <ele>529.42</ele>
        <time>2010-01-01T23:10:52Z</time>
      </trkpt>
      <trkpt lat="44.538640" lon="2.633030">
        <ele>529.42</ele>
        <time>2010-01-01T23:12:11Z</time>
      </trkpt>
      <trkpt lat="44.538790" lon="2.633000">
        <ele>529.42</ele>
        <time>2010-01-01T23:13:47Z</time>
      </trkpt>
      <trkpt lat="44.539149" lon="2.633114">
        <ele>529.42</ele>
        <time>2010-01-01T23:13:56Z</time>
      </trkpt>
      <trkpt lat="44.539520" lon="2.632750">
        <ele>529.335022</ele>
        <time>2010-01-01T23:14:07Z</time>
      </trkpt>
      <trkpt lat="44.539930" lon="2.632780">
        <ele>521.65</ele>
        <time>2010-01-01T23:16:33Z</time>
      </trkpt>
      <trkpt lat="44.540518" lon="2.632189">
        <ele>518.196106</ele>
        <time>2010-01-01T23:16:49Z</time>
      </trkpt>
      <trkpt lat="44.541030" lon="2.631368">
        <ele>517.756226</ele>
        <time>2010-01-01T23:17:00Z</time>
      </trkpt>
      <trkpt lat="44.541300" lon="2.631199">
        <ele>516.02</ele>
        <time>2010-01-01T23:17:14Z</time>
      </trkpt>
      <trkpt lat="44.541659" lon="2.631121">
        <ele>516.85</ele>
        <time>2010-01-01T23:18:28Z</time>
      </trkpt>
      <trkpt lat="44.541930" lon="2.631300">
        <ele>516.52</ele>
        <time>2010-01-01T23:19:01Z</time>
      </trkpt>
      <trkpt lat="44.542120" lon="2.631910">
        <ele>516.93</ele>
        <time>2010-01-01T23:19:51Z</time>
      </trkpt>
      <trkpt lat="44.542510" lon="2.632570">
        <ele>516.70</ele>
        <time>2010-01-01T23:20:30Z</time>
      </trkpt>
      <trkpt lat="44.542660" lon="2.633040">
        <ele>515.69</ele>
        <time>2010-01-01T23:20:43Z</time>
      </trkpt>
      <trkpt lat="44.542810" lon="2.633180">
        <ele>515.907410</ele>
        <time>2010-01-01T23:21:54Z</time>
      </trkpt>
      <trkpt lat="44.543010" lon="2.633140">
        <ele>516.759949</ele>
        <time>2010-01-01T23:22:33Z</time>
      </trkpt>
      <trkpt lat="44.543240" lon="2.632910">
        <ele>519.607605</ele>
        <time>2010-01-01T23:22:51Z</time>
      </trkpt>
      <trkpt lat="44.543350" lon="2.632860">
        <ele>520.33</ele>
        <time>2010-01-01T23:23:40Z</time>
      </trkpt>
      <trkpt lat="44.543660" lon="2.632970">
        <ele>521.71</ele>
        <time>2010-01-01T23:24:05Z</time>
      </trkpt>
      <trkpt lat="44.544060" lon="2.632950">
        <ele>521.77</ele>
        <time>2010-01-01T23:24:17Z</time>
      </trkpt>
      <trkpt lat="44.544150" lon="2.633070">
        <ele>522.65</ele>
        <time>2010-01-01T23:24:25Z</time>
      </trkpt>
      <trkpt lat="44.544250" lon="2.633770">
        <ele>523.24</ele>
        <time>2010-01-01T23:24:47Z</time>
      </trkpt>
      <trkpt lat="44.544340" lon="2.633950">
        <ele>523.69</ele>
        <time>2010-01-01T23:26:13Z</time>
      </trkpt>
      <trkpt lat="44.544530" lon="2.634090">
        <ele>524.42</ele>
        <time>2010-01-01T23:27:14Z</time>
      </trkpt>
      <trkpt lat="44.544580" lon="2.634270">
        <ele>525.14</ele>
        <time>2010-01-01T23:28:11Z</time>
      </trkpt>
      <trkpt lat="44.544500" lon="2.634480">
        <ele>526.45</ele>
        <time>2010-01-01T23:28:37Z</time>
      </trkpt>
      <trkpt lat="44.543601" lon="2.635042">
        <ele>526.45</ele>
        <time>2010-01-01T23:29:33Z</time>
      </trkpt>
      <trkpt lat="44.543404" lon="2.635394">
        <ele>526.45</ele>
        <time>2010-01-01T23:29:50Z</time>
      </trkpt>
      <trkpt lat="44.543386" lon="2.635745">
        <ele>526.45</ele>
        <time>2010-01-01T23:30:09Z</time>
      </trkpt>
      <trkpt lat="44.543570" lon="2.636050">
        <ele>526.45</ele>
        <time>2010-01-01T23:30:33Z</time>
      </trkpt>
      <trkpt lat="44.543990" lon="2.636300">
        <ele>525.55</ele>
        <time>2010-01-01T23:30:46Z</time>
      </trkpt>
      <trkpt lat="44.544040" lon="2.636490">
        <ele>524.760010</ele>
        <time>2010-01-01T23:31:19Z</time>
      </trkpt>
      <trkpt lat="44.544000" lon="2.636730">
        <ele>524.297485</ele>
        <time>2010-01-01T23:31:33Z</time>
      </trkpt>
      <trkpt lat="44.543790" lon="2.637150">
        <ele>519.89</ele>
        <time>2010-01-01T23:31:42Z</time>
      </trkpt>
      <trkpt lat="44.543184" lon="2.637751">
        <ele>519.34</ele>
        <time>2010-01-01T23:31:57Z</time>
      </trkpt>
      <trkpt lat="44.543200" lon="2.638630">
        <ele>520.85</ele>
        <time>2010-01-01T23:32:18Z</time>
      </trkpt>
      <trkpt lat="44.543070" lon="2.638890">
        <ele>519.82</ele>
        <time>2010-01-01T23:32:51Z</time>
      </trkpt>
      <trkpt lat="44.542900" lon="2.639040">
        <ele>517.719727</ele>
        <time>2010-01-01T23:33:55Z</time>
      </trkpt>
      <trkpt lat="44.542550" lon="2.639200">
        <ele>514.789551</ele>
        <time>2010-01-01T23:34:44Z</time>
      </trkpt>
      <trkpt lat="44.542380" lon="2.639400">
        <ele>514.277588</ele>
        <time>2010-01-01T23:35:05Z</time>
      </trkpt>
      <trkpt lat="44.542300" lon="2.639660">
        <ele>513.63</ele>
        <time>2010-01-01T23:35:21Z</time>
      </trkpt>
      <trkpt lat="44.542290" lon="2.639840">
        <ele>513.63</ele>
        <time>2010-01-01T23:35:34Z</time>
      </trkpt>
      <trkpt lat="44.542410" lon="2.640280">
        <ele>513.63</ele>
        <time>2010-01-01T23:35:50Z</time>
      </trkpt>
      <trkpt lat="44.542390" lon="2.640450">
        <ele>513.63</ele>
        <time>2010-01-01T23:36:48Z</time>
      </trkpt>
      <trkpt lat="44.542220" lon="2.640710">
        <ele>513.63</ele>
        <time>2010-01-01T23:37:55Z</time>
      </trkpt>
      <trkpt lat="44.541750" lon="2.641320">
        <ele>513.63</ele>
        <time>2010-01-01T23:39:23Z</time>
      </trkpt>
      <trkpt lat="44.541760" lon="2.641460">
        <ele>513.63</ele>
        <time>2010-01-01T23:40:02Z</time>
      </trkpt>
      <trkpt lat="44.541960" lon="2.641810">
        <ele>513.63</ele>
        <time>2010-01-01T23:40:22Z</time>
      </trkpt>
      <trkpt lat="44.541960" lon="2.642190">
        <ele>513.63</ele>
        <time>2010-01-01T23:41:17Z</time>
      </trkpt>
      <trkpt lat="44.541600" lon="2.643170">
        <ele>513.63</ele>
        <time>2010-01-01T23:41:52Z</time>
      </trkpt>
      <trkpt lat="44.541460" lon="2.643350">
        <ele>513.63</ele>
        <time>2010-01-01T23:42:11Z</time>
      </trkpt>
      <trkpt lat="44.541220" lon="2.643500">
        <ele>513.63</ele>
        <time>2010-01-01T23:42:33Z</time>
      </trkpt>
      <trkpt lat="44.541130" lon="2.643620">
        <ele>514.24</ele>
        <time>2010-01-01T23:42:53Z</time>
      </trkpt>
      <trkpt lat="44.541120" lon="2.643850">
        <ele>515.791077</ele>
        <time>2010-01-01T23:43:35Z</time>
      </trkpt>
      <trkpt lat="44.541260" lon="2.644070">
        <ele>514.328674</ele>
        <time>2010-01-01T23:43:50Z</time>
      </trkpt>
      <trkpt lat="44.541720" lon="2.644360">
        <ele>512.87</ele>
        <time>2010-01-01T23:44:07Z</time>
      </trkpt>
      <trkpt lat="44.542190" lon="2.644360">
        <ele>512.87</ele>
        <time>2010-01-01T23:44:29Z</time>
      </trkpt>
      <trkpt lat="44.542450" lon="2.644660">
        <ele>512.87</ele>
        <time>2010-01-01T23:44:36Z</time>
      </trkpt>
      <trkpt lat="44.542530" lon="2.644880">
        <ele>512.87</ele>
        <time>2010-01-01T23:45:05Z</time>
      </trkpt>
      <trkpt lat="44.542500" lon="2.645860">
        <ele>512.87</ele>
        <time>2010-01-01T23:45:35Z</time>
      </trkpt>
      <trkpt lat="44.542271" lon="2.646063">
        <ele>512.87</ele>
        <time>2010-01-01T23:45:50Z</time>
      </trkpt>
      <trkpt lat="44.542029" lon="2.646076">
        <ele>512.87</ele>
        <time>2010-01-01T23:46:12Z</time>
      </trkpt>
      <trkpt lat="44.541660" lon="2.645880">
        <ele>512.87</ele>
        <time>2010-01-01T23:46:25Z</time>
      </trkpt>
      <trkpt lat="44.541450" lon="2.645970">
        <ele>512.87</ele>
        <time>2010-01-01T23:46:44Z</time>
      </trkpt>
      <trkpt lat="44.541380" lon="2.646150">
        <ele>512.87</ele>
        <time>2010-01-01T23:47:26Z</time>
      </trkpt>
      <trkpt lat="44.541370" lon="2.646510">
        <ele>511.39</ele>
        <time>2010-01-01T23:48:11Z</time>
      </trkpt>
      <trkpt lat="44.541430" lon="2.646890">
        <ele>510.20</ele>
        <time>2010-01-01T23:48:38Z</time>
      </trkpt>
      <trkpt lat="44.541650" lon="2.647520">
        <ele>510.20</ele>
        <time>2010-01-01T23:48:50Z</time>
      </trkpt>
      <trkpt lat="44.541600" lon="2.647790">
        <ele>510.20</ele>
        <time>2010-01-01T23:50:57Z</time>
      </trkpt>
      <trkpt lat="44.541430" lon="2.647770">
        <ele>510.20</ele>
        <time>2010-01-01T23:51:17Z</time>
      </trkpt>
      <trkpt lat="44.541110" lon="2.647130">
        <ele>511.91</ele>
        <time>2010-01-01T23:51:25Z</time>
      </trkpt>
      <trkpt lat="44.540940" lon="2.647030">
        <ele>510.20</ele>
        <time>2010-01-01T23:51:58Z</time>
      </trkpt>
      <trkpt lat="44.540880" lon="2.647040">
        <ele>510.20</ele>
        <time>2010-01-01T23:52:34Z</time>
      </trkpt>
      <trkpt lat="44.540570" lon="2.647450">
        <ele>510.20</ele>
        <time>2010-01-01T23:52:45Z</time>
      </trkpt>
      <trkpt lat="44.540440" lon="2.647510">
        <ele>510.20</ele>
        <time>2010-01-01T23:53:04Z</time>
      </trkpt>
      <trkpt lat="44.540044" lon="2.647483">
        <ele>510.20</ele>
        <time>2010-01-01T23:53:15Z</time>
      </trkpt>
      <trkpt lat="44.539840" lon="2.647840">
        <ele>510.20</ele>
        <time>2010-01-01T23:53:25Z</time>
      </trkpt>
      <trkpt lat="44.539830" lon="2.648090">
        <ele>508.20</ele>
        <time>2010-01-01T23:53:35Z</time>
      </trkpt>
      <trkpt lat="44.539980" lon="2.648880">
        <ele>507.08</ele>
        <time>2010-01-01T23:54:14Z</time>
      </trkpt>
      <trkpt lat="44.540110" lon="2.649270">
        <ele>506.75</ele>
        <time>2010-01-01T23:54:33Z</time>
      </trkpt>
      <trkpt lat="44.540240" lon="2.649450">
        <ele>505.67</ele>
        <time>2010-01-01T23:55:04Z</time>
      </trkpt>
      <trkpt lat="44.540730" lon="2.649840">
        <ele>504.67</ele>
        <time>2010-01-01T23:55:23Z</time>
      </trkpt>
      <trkpt lat="44.541020" lon="2.650390">
        <ele>503.67</ele>
        <time>2010-01-01T23:56:03Z</time>
      </trkpt>
      <trkpt lat="44.541510" lon="2.650770">
        <ele>502.67</ele>
        <time>2010-01-01T23:56:33Z</time>
      </trkpt>
      <trkpt lat="44.541700" lon="2.651090">
        <ele>501.67</ele>
        <time>2010-01-01T23:56:53Z</time>
      </trkpt>
      <trkpt lat="44.541720" lon="2.651380">
        <ele>500.76</ele>
        <time>2010-01-01T23:57:22Z</time>
      </trkpt>
      <trkpt lat="44.541690" lon="2.651540">
        <ele>501.14</ele>
        <time>2010-01-01T23:57:41Z</time>
      </trkpt>
      <trkpt lat="44.541460" lon="2.652020">
        <ele>500.66</ele>
        <time>2010-01-01T23:57:55Z</time>
      </trkpt>
      <trkpt lat="44.541400" lon="2.652290">
        <ele>500.62</ele>
        <time>2010-01-01T23:58:05Z</time>
      </trkpt>
      <trkpt lat="44.541390" lon="2.652770">
        <ele>488.90</ele>
        <time>2010-01-01T23:58:40Z</time>
      </trkpt>
      <trkpt lat="44.541600" lon="2.653300">
        <ele>484.297760</ele>
        <time>2010-01-01T23:58:55Z</time>
      </trkpt>
      <trkpt lat="44.542250" lon="2.654520">
        <ele>470.258392</ele>
        <time>2010-01-01T23:59:16Z</time>
      </trkpt>
      <trkpt lat="44.542356" lon="2.654940">
        <ele>466.792511</ele>
        <time>2010-01-01T23:59:55Z</time>
      </trkpt>
      <trkpt lat="44.542446" lon="2.655637">
        <ele>463.531036</ele>
        <time>2010-01-02T00:00:05Z</time>
      </trkpt>
      <trkpt lat="44.542625" lon="2.656028">
        <ele>459.976624</ele>
        <time>2010-01-02T00:00:20Z</time>
      </trkpt>
      <trkpt lat="44.542980" lon="2.656560">
        <ele>455.280304</ele>
        <time>2010-01-02T00:00:47Z</time>
      </trkpt>
      <trkpt lat="44.543079" lon="2.657129">
        <ele>452.217896</ele>
        <time>2010-01-02T00:01:57Z</time>
      </trkpt>
      <trkpt lat="44.543059" lon="2.657572">
        <ele>448.560486</ele>
        <time>2010-01-02T00:02:14Z</time>
      </trkpt>
      <trkpt lat="44.542799" lon="2.658497">
        <ele>438.347076</ele>
        <time>2010-01-02T00:02:36Z</time>
      </trkpt>
      <trkpt lat="44.542794" lon="2.659037">
        <ele>435.75</ele>
        <time>2010-01-02T00:03:18Z</time>
      </trkpt>
      <trkpt lat="44.542910" lon="2.659370">
        <ele>435.739685</ele>
        <time>2010-01-02T00:03:48Z</time>
      </trkpt>
      <trkpt lat="44.543750" lon="2.661240">
        <ele>428.524719</ele>
        <time>2010-01-02T00:04:30Z</time>
      </trkpt>
      <trkpt lat="44.544720" lon="2.662750">
        <ele>413.855408</ele>
        <time>2010-01-02T00:05:00Z</time>
      </trkpt>
      <trkpt lat="44.544840" lon="2.663020">
        <ele>412.394379</ele>
        <time>2010-01-02T00:06:43Z</time>
      </trkpt>
      <trkpt lat="44.545030" lon="2.663650">
        <ele>409.20</ele>
        <time>2010-01-02T00:06:57Z</time>
      </trkpt>
      <trkpt lat="44.545050" lon="2.664210">
        <ele>409.002930</ele>
        <time>2010-01-02T00:07:46Z</time>
      </trkpt>
      <trkpt lat="44.545140" lon="2.664730">
        <ele>405.72</ele>
        <time>2010-01-02T00:08:04Z</time>
      </trkpt>
      <trkpt lat="44.545150" lon="2.665150">
        <ele>403.81</ele>
        <time>2010-01-02T00:08:18Z</time>
      </trkpt>
      <trkpt lat="44.545100" lon="2.665480">
        <ele>401.54</ele>
        <time>2010-01-02T00:08:38Z</time>
      </trkpt>
      <trkpt lat="44.544910" lon="2.665880">
        <ele>400.751312</ele>
        <time>2010-01-02T00:09:05Z</time>
      </trkpt>
      <trkpt lat="44.544910" lon="2.666110">
        <ele>399.550934</ele>
        <time>2010-01-02T00:09:26Z</time>
      </trkpt>
      <trkpt lat="44.545010" lon="2.666240">
        <ele>396.60</ele>
        <time>2010-01-02T00:10:00Z</time>
      </trkpt>
      <trkpt lat="44.545430" lon="2.666560">
        <ele>395.70</ele>
        <time>2010-01-02T00:10:11Z</time>
      </trkpt>
      <trkpt lat="44.545520" lon="2.666720">
        <ele>394.52</ele>
        <time>2010-01-02T00:10:30Z</time>
      </trkpt>
      <trkpt lat="44.545660" lon="2.667640">
        <ele>394.79</ele>
        <time>2010-01-02T00:11:27Z</time>
      </trkpt>
      <trkpt lat="44.545730" lon="2.667830">
        <ele>393.742004</ele>
        <time>2010-01-02T00:12:07Z</time>
      </trkpt>
      <trkpt lat="44.546090" lon="2.668430">
        <ele>384.70</ele>
        <time>2010-01-02T00:12:21Z</time>
      </trkpt>
      <trkpt lat="44.546290" lon="2.668850">
        <ele>382.34</ele>
        <time>2010-01-02T00:13:00Z</time>
      </trkpt>
      <trkpt lat="44.546330" lon="2.669500">
        <ele>381.714813</ele>
        <time>2010-01-02T00:14:12Z</time>
      </trkpt>
      <trkpt lat="44.546459" lon="2.669986">
        <ele>376.768738</ele>
        <time>2010-01-02T00:14:44Z</time>
      </trkpt>
      <trkpt lat="44.546580" lon="2.671200">
        <ele>373.642609</ele>
        <time>2010-01-02T00:15:25Z</time>
      </trkpt>
      <trkpt lat="44.546810" lon="2.671800">
        <ele>364.91</ele>
        <time>2010-01-02T00:15:43Z</time>
      </trkpt>
      <trkpt lat="44.547020" lon="2.672120">
        <ele>363.37</ele>
        <time>2010-01-02T00:16:34Z</time>
      </trkpt>
      <trkpt lat="44.547780" lon="2.672550">
        <ele>360.62</ele>
        <time>2010-01-02T00:16:55Z</time>
      </trkpt>
      <trkpt lat="44.547980" lon="2.672590">
        <ele>360.48</ele>
        <time>2010-01-02T00:17:22Z</time>
      </trkpt>
      <trkpt lat="44.548220" lon="2.672480">
        <ele>352.34</ele>
        <time>2010-01-02T00:17:58Z</time>
      </trkpt>
      <trkpt lat="44.548610" lon="2.672430">
        <ele>351.27</ele>
        <time>2010-01-02T00:18:21Z</time>
      </trkpt>
      <trkpt lat="44.548970" lon="2.672300">
        <ele>353.10</ele>
        <time>2010-01-02T00:19:03Z</time>
      </trkpt>
      <trkpt lat="44.550070" lon="2.671440">
        <ele>333.46</ele>
        <time>2010-01-02T00:20:08Z</time>
      </trkpt>
      <trkpt lat="44.550180" lon="2.671490">
        <ele>333.84</ele>
        <time>2010-01-02T00:20:19Z</time>
      </trkpt>
      <trkpt lat="44.550460" lon="2.671820">
        <ele>340.96</ele>
        <time>2010-01-02T00:20:32Z</time>
      </trkpt>
      <trkpt lat="44.551970" lon="2.672100">
        <ele>324.67</ele>
        <time>2010-01-02T00:20:59Z</time>
      </trkpt>
      <trkpt lat="44.552390" lon="2.672100">
        <ele>318.36</ele>
        <time>2010-01-02T00:21:20Z</time>
      </trkpt>
      <trkpt lat="44.553470" lon="2.671850">
        <ele>316.61</ele>
        <time>2010-01-02T00:21:29Z</time>
      </trkpt>
      <trkpt lat="44.553512" lon="2.671322">
        <ele>316.61</ele>
        <time>2010-01-02T00:22:02Z</time>
      </trkpt>
      <trkpt lat="44.553440" lon="2.670957">
        <ele>316.61</ele>
        <time>2010-01-02T00:22:30Z</time>
      </trkpt>
      <trkpt lat="44.553296" lon="2.670508">
        <ele>316.42</ele>
        <time>2010-01-02T00:23:05Z</time>
      </trkpt>
      <trkpt lat="44.553089" lon="2.670169">
        <ele>322.49</ele>
        <time>2010-01-02T00:23:33Z</time>
      </trkpt>
      <trkpt lat="44.552833" lon="2.669941">
        <ele>322.49</ele>
        <time>2010-01-02T00:23:50Z</time>
      </trkpt>
      <trkpt lat="44.552430" lon="2.669810">
        <ele>322.49</ele>
        <time>2010-01-02T00:23:59Z</time>
      </trkpt>
      <trkpt lat="44.551459" lon="2.669791">
        <ele>320.89</ele>
        <time>2010-01-02T00:24:22Z</time>
      </trkpt>
      <trkpt lat="44.551260" lon="2.669890">
        <ele>320.89</ele>
        <time>2010-01-02T00:24:37Z</time>
      </trkpt>
      <trkpt lat="44.550980" lon="2.670130">
        <ele>320.89</ele>
        <time>2010-01-02T00:24:53Z</time>
      </trkpt>
      <trkpt lat="44.550810" lon="2.670360">
        <ele>320.89</ele>
        <time>2010-01-02T00:25:18Z</time>
      </trkpt>
      <trkpt lat="44.550538" lon="2.670481">
        <ele>320.89</ele>
        <time>2010-01-02T00:25:32Z</time>
      </trkpt>
      <trkpt lat="44.550291" lon="2.670449">
        <ele>320.66</ele>
        <time>2010-01-02T00:26:50Z</time>
      </trkpt>
      <trkpt lat="44.550010" lon="2.670360">
        <ele>319.79</ele>
        <time>2010-01-02T00:27:27Z</time>
      </trkpt>
      <trkpt lat="44.549790" lon="2.670360">
        <ele>319.79</ele>
        <time>2010-01-02T00:27:58Z</time>
      </trkpt>
      <trkpt lat="44.549146" lon="2.670455">
        <ele>319.79</ele>
        <time>2010-01-02T00:28:06Z</time>
      </trkpt>
      <trkpt lat="44.548795" lon="2.670709">
        <ele>319.89</ele>
        <time>2010-01-02T00:28:15Z</time>
      </trkpt>
      <trkpt lat="44.548443" lon="2.670788">
        <ele>319.89</ele>
        <time>2010-01-02T00:28:24Z</time>
      </trkpt>
      <trkpt lat="44.548192" lon="2.670729">
        <ele>319.89</ele>
        <time>2010-01-02T00:28:36Z</time>
      </trkpt>
      <trkpt lat="44.547994" lon="2.670592">
        <ele>320.392883</ele>
        <time>2010-01-02T00:28:43Z</time>
      </trkpt>
      <trkpt lat="44.547873" lon="2.670247">
        <ele>319.89</ele>
        <time>2010-01-02T00:29:23Z</time>
      </trkpt>
      <trkpt lat="44.547860" lon="2.669460">
        <ele>319.89</ele>
        <time>2010-01-02T00:29:37Z</time>
      </trkpt>
      <trkpt lat="44.547690" lon="2.668320">
        <ele>317.25</ele>
        <time>2010-01-02T00:29:47Z</time>
      </trkpt>
      <trkpt lat="44.547690" lon="2.667660">
        <ele>318.77</ele>
        <time>2010-01-02T00:30:15Z</time>
      </trkpt>
      <trkpt lat="44.547760" lon="2.667490">
        <ele>318.77</ele>
        <time>2010-01-02T00:30:40Z</time>
      </trkpt>
      <trkpt lat="44.548050" lon="2.667230">
        <ele>319.247772</ele>
        <time>2010-01-02T00:30:48Z</time>
      </trkpt>
      <trkpt lat="44.548250" lon="2.667170">
        <ele>319.143402</ele>
        <time>2010-01-02T00:31:51Z</time>
      </trkpt>
      <trkpt lat="44.549110" lon="2.667230">
        <ele>322.305206</ele>
        <time>2010-01-02T00:33:19Z</time>
      </trkpt>
      <trkpt lat="44.549280" lon="2.667180">
        <ele>322.342834</ele>
        <time>2010-01-02T00:33:37Z</time>
      </trkpt>
      <trkpt lat="44.549740" lon="2.666800">
        <ele>320.382904</ele>
        <time>2010-01-02T00:34:11Z</time>
      </trkpt>
      <trkpt lat="44.550300" lon="2.666500">
        <ele>316.222717</ele>
        <time>2010-01-02T00:34:21Z</time>
      </trkpt>
      <trkpt lat="44.553050" lon="2.665340">
        <ele>317.667358</ele>
        <time>2010-01-02T00:35:23Z</time>
      </trkpt>
      <trkpt lat="44.553480" lon="2.665180">
        <ele>319.209808</ele>
        <time>2010-01-02T00:35:31Z</time>
      </trkpt>
      <trkpt lat="44.553880" lon="2.664950">
        <ele>319.149506</ele>
      </trkpt>
      <trkpt lat="44.554510" lon="2.664800">
        <ele>318.86</ele>
      </trkpt>
      <trkpt lat="44.554910" lon="2.664620">
        <ele>318.86</ele>
      </trkpt>
      <trkpt lat="44.555370" lon="2.664240">
        <ele>318.86</ele>
      </trkpt>
      <trkpt lat="44.556282" lon="2.663239">
        <ele>318.86</ele>
      </trkpt>
      <trkpt lat="44.556990" lon="2.662790">
        <ele>317.95</ele>
      </trkpt>
      <trkpt lat="44.557640" lon="2.662560">
        <ele>317.95</ele>
      </trkpt>
      <trkpt lat="44.558870" lon="2.662340">
        <ele>317.95</ele>
      </trkpt>
      <trkpt lat="44.560740" lon="2.661820">
        <ele>317.95</ele>
      </trkpt>
      <trkpt lat="44.561630" lon="2.661800">
        <ele>317.41</ele>
      </trkpt>
      <trkpt lat="44.562530" lon="2.661900">
        <ele>317.41</ele>
      </trkpt>
      <trkpt lat="44.563350" lon="2.661680">
        <ele>316.86</ele>
      </trkpt>
      <trkpt lat="44.563544" lon="2.661708">
        <ele>316.86</ele>
      </trkpt>
      <trkpt lat="44.564990" lon="2.662670">
        <ele>316.19</ele>
      </trkpt>
      <trkpt lat="44.565984" lon="2.662893">
        <ele>315.42</ele>
      </trkpt>
      <trkpt lat="44.566442" lon="2.662913">
        <ele>315.42</ele>
      </trkpt>
      <trkpt lat="44.566940" lon="2.662820">
        <ele>315.33</ele>
      </trkpt>
      <trkpt lat="44.567447" lon="2.662620">
        <ele>315.29</ele>
      </trkpt>
      <trkpt lat="44.567667" lon="2.662470">
        <ele>314.93</ele>
      </trkpt>
      <trkpt lat="44.567892" lon="2.662196">
        <ele>314.38</ele>
      </trkpt>
      <trkpt lat="44.568040" lon="2.661864">
        <ele>314.30</ele>
      </trkpt>
      <trkpt lat="44.568085" lon="2.661421">
        <ele>314.30</ele>
      </trkpt>
      <trkpt lat="44.567990" lon="2.660420">
        <ele>314.30</ele>
      </trkpt>
      <trkpt lat="44.567910" lon="2.660100">
        <ele>314.30</ele>
      </trkpt>
      <trkpt lat="44.567740" lon="2.659810">
        <ele>314.30</ele>
      </trkpt>
      <trkpt lat="44.566802" lon="2.658894">
        <ele>314.30</ele>
      </trkpt>
      <trkpt lat="44.566542" lon="2.658484">
        <ele>314.20</ele>
      </trkpt>
      <trkpt lat="44.566196" lon="2.657585">
        <ele>314.20</ele>
      </trkpt>
      <trkpt lat="44.566088" lon="2.657057">
        <ele>314.10</ele>
      </trkpt>
      <trkpt lat="44.566084" lon="2.656425">
        <ele>314.10</ele>
      </trkpt>
      <trkpt lat="44.566210" lon="2.655720">
        <ele>314.00</ele>
      </trkpt>
      <trkpt lat="44.566420" lon="2.655240">
        <ele>314.48</ele>
      </trkpt>
      <trkpt lat="44.566610" lon="2.654960">
        <ele>314.48</ele>
      </trkpt>
      <trkpt lat="44.566880" lon="2.654690">
        <ele>314.48</ele>
      </trkpt>
      <trkpt lat="44.568510" lon="2.653430">
        <ele>314.48</ele>
      </trkpt>
      <trkpt lat="44.569310" lon="2.653110">
        <ele>313.78</ele>
      </trkpt>
      <trkpt lat="44.570290" lon="2.652020">
        <ele>313.78</ele>
      </trkpt>
      <trkpt lat="44.570890" lon="2.650980">
        <ele>313.78</ele>
      </trkpt>
      <trkpt lat="44.571170" lon="2.650710">
        <ele>313.57</ele>
      </trkpt>
      <trkpt lat="44.572890" lon="2.650150">
        <ele>313.57</ele>
      </trkpt>
      <trkpt lat="44.573870" lon="2.650310">
        <ele>313.57</ele>
      </trkpt>
      <trkpt lat="44.574310" lon="2.650200">
        <ele>313.57</ele>
      </trkpt>
      <trkpt lat="44.575520" lon="2.649950">
        <ele>313.57</ele>
      </trkpt>
      <trkpt lat="44.576120" lon="2.649770">
        <ele>313.48</ele>
      </trkpt>
      <trkpt lat="44.576400" lon="2.649590">
        <ele>313.48</ele>
      </trkpt>
      <trkpt lat="44.576520" lon="2.649370">
        <ele>313.48</ele>
      </trkpt>
      <trkpt lat="44.576790" lon="2.648680">
        <ele>313.48</ele>
      </trkpt>
      <trkpt lat="44.577620" lon="2.645900">
        <ele>312.89</ele>
      </trkpt>
      <trkpt lat="44.577850" lon="2.643780">
        <ele>312.89</ele>
      </trkpt>
      <trkpt lat="44.577740" lon="2.641810">
        <ele>312.89</ele>
      </trkpt>
      <trkpt lat="44.577890" lon="2.640920">
        <ele>312.80</ele>
      </trkpt>
      <trkpt lat="44.578570" lon="2.639200">
        <ele>312.39</ele>
      </trkpt>
      <trkpt lat="44.578870" lon="2.638780">
        <ele>312.23</ele>
      </trkpt>
      <trkpt lat="44.579080" lon="2.638180">
        <ele>311.42</ele>
      </trkpt>
      <trkpt lat="44.579490" lon="2.637550">
        <ele>310.87</ele>
      </trkpt>
      <trkpt lat="44.579760" lon="2.637340">
        <ele>310.87</ele>
      </trkpt>
      <trkpt lat="44.580590" lon="2.637170">
        <ele>310.87</ele>
      </trkpt>
      <trkpt lat="44.580920" lon="2.637000">
        <ele>310.87</ele>
      </trkpt>
      <trkpt lat="44.581090" lon="2.636820">
        <ele>309.48</ele>
      </trkpt>
      <trkpt lat="44.581340" lon="2.636440">
        <ele>308.39</ele>
      </trkpt>
      <trkpt lat="44.581770" lon="2.636010">
        <ele>308.08</ele>
      </trkpt>
      <trkpt lat="44.582320" lon="2.635150">
        <ele>307.35</ele>
      </trkpt>
      <trkpt lat="44.583140" lon="2.633190">
        <ele>304.08</ele>
      </trkpt>
      <trkpt lat="44.583390" lon="2.631530">
        <ele>300.50</ele>
      </trkpt>
      <trkpt lat="44.583400" lon="2.630780">
        <ele>298.17</ele>
      </trkpt>
      <trkpt lat="44.583500" lon="2.630240">
        <ele>296.61</ele>
      </trkpt>
      <trkpt lat="44.583650" lon="2.629860">
        <ele>295.36</ele>
      </trkpt>
      <trkpt lat="44.583990" lon="2.629540">
        <ele>295.36</ele>
      </trkpt>
      <trkpt lat="44.585320" lon="2.628730">
        <ele>295.78</ele>
      </trkpt>
      <trkpt lat="44.586830" lon="2.627680">
        <ele>292.884827</ele>
      </trkpt>
      <trkpt lat="44.588870" lon="2.626610">
        <ele>288.477722</ele>
      </trkpt>
      <trkpt lat="44.589750" lon="2.626030">
        <ele>288.34</ele>
      </trkpt>
      <trkpt lat="44.590150" lon="2.625590">
        <ele>288.34</ele>
      </trkpt>
      <trkpt lat="44.591150" lon="2.624270">
        <ele>288.347198</ele>
      </trkpt>
      <trkpt lat="44.591820" lon="2.623460">
        <ele>288.34</ele>
      </trkpt>
      <trkpt lat="44.592210" lon="2.623100">
        <ele>288.34</ele>
      </trkpt>
      <trkpt lat="44.592720" lon="2.622830">
        <ele>288.55</ele>
      </trkpt>
      <trkpt lat="44.593140" lon="2.622460">
        <ele>288.55</ele>
      </trkpt>
      <trkpt lat="44.593990" lon="2.621540">
        <ele>287.28</ele>
      </trkpt>
      <trkpt lat="44.594200" lon="2.621110">
        <ele>286.18</ele>
      </trkpt>
      <trkpt lat="44.594300" lon="2.620540">
        <ele>281.553711</ele>
      </trkpt>
      <trkpt lat="44.594490" lon="2.619820">
        <ele>281.300354</ele>
      </trkpt>
      <trkpt lat="44.594590" lon="2.619610">
        <ele>280.64</ele>
      </trkpt>
      <trkpt lat="44.595060" lon="2.618830">
        <ele>280.64</ele>
      </trkpt>
      <trkpt lat="44.595480" lon="2.617980">
        <ele>279.12</ele>
      </trkpt>
      <trkpt lat="44.595730" lon="2.617590">
        <ele>279.12</ele>
      </trkpt>
      <trkpt lat="44.596000" lon="2.616900">
        <ele>275.66</ele>
      </trkpt>
      <trkpt lat="44.596190" lon="2.616540">
        <ele>275.66</ele>
      </trkpt>
      <trkpt lat="44.596550" lon="2.616080">
        <ele>277.51</ele>
      </trkpt>
      <trkpt lat="44.597240" lon="2.615010">
        <ele>279.32</ele>
      </trkpt>
      <trkpt lat="44.598070" lon="2.613910">
        <ele>279.32</ele>
      </trkpt>
      <trkpt lat="44.598480" lon="2.613160">
        <ele>279.32</ele>
      </trkpt>
      <trkpt lat="44.598710" lon="2.612910">
        <ele>278.37</ele>
      </trkpt>
      <trkpt lat="44.599036" lon="2.612675">
        <ele>278.37</ele>
      </trkpt>
      <trkpt lat="44.599292" lon="2.612427">
        <ele>277.53</ele>
      </trkpt>
      <trkpt lat="44.599471" lon="2.612349">
        <ele>276.92</ele>
      </trkpt>
      <trkpt lat="44.600212" lon="2.612479">
        <ele>277.29</ele>
      </trkpt>
      <trkpt lat="44.600450" lon="2.612473">
        <ele>277.29</ele>
      </trkpt>
      <trkpt lat="44.600903" lon="2.612336">
        <ele>277.29</ele>
      </trkpt>
      <trkpt lat="44.601186" lon="2.612329">
        <ele>277.29</ele>
      </trkpt>
      <trkpt lat="44.601770" lon="2.612480">
        <ele>277.62</ele>
      </trkpt>
      <trkpt lat="44.602230" lon="2.612750">
        <ele>281.34</ele>
      </trkpt>
      <trkpt lat="44.602420" lon="2.612810">
        <ele>281.34</ele>
      </trkpt>
      <trkpt lat="44.603260" lon="2.612740">
        <ele>279.083008</ele>
      </trkpt>
      <trkpt lat="44.604140" lon="2.612940">
        <ele>278.154083</ele>
      </trkpt>
      <trkpt lat="44.604410" lon="2.612890">
        <ele>275.064789</ele>
      </trkpt>
      <trkpt lat="44.604830" lon="2.612580">
        <ele>274.69</ele>
      </trkpt>
      <trkpt lat="44.605010" lon="2.612270">
        <ele>274.69</ele>
      </trkpt>
      <trkpt lat="44.605120" lon="2.611950">
        <ele>274.69</ele>
      </trkpt>
      <trkpt lat="44.605150" lon="2.611600">
        <ele>274.709076</ele>
      </trkpt>
      <trkpt lat="44.605090" lon="2.610240">
        <ele>273.18</ele>
      </trkpt>
      <trkpt lat="44.605130" lon="2.609600">
        <ele>273.18</ele>
      </trkpt>
      <trkpt lat="44.605300" lon="2.608520">
        <ele>273.18</ele>
      </trkpt>
      <trkpt lat="44.605470" lon="2.607890">
        <ele>272.17</ele>
      </trkpt>
      <trkpt lat="44.606060" lon="2.606750">
        <ele>271.534210</ele>
      </trkpt>
      <trkpt lat="44.606360" lon="2.605800">
        <ele>269.99</ele>
      </trkpt>
      <trkpt lat="44.606480" lon="2.605130">
        <ele>268.22</ele>
      </trkpt>
      <trkpt lat="44.606480" lon="2.604110">
        <ele>268.19</ele>
      </trkpt>
      <trkpt lat="44.606610" lon="2.603480">
        <ele>267.21</ele>
      </trkpt>
      <trkpt lat="44.606780" lon="2.603050">
        <ele>263.49</ele>
      </trkpt>
      <trkpt lat="44.606950" lon="2.602770">
        <ele>261.42</ele>
      </trkpt>
      <trkpt lat="44.607620" lon="2.601970">
        <ele>258.37</ele>
      </trkpt>
      <trkpt lat="44.607870" lon="2.601610">
        <ele>258.95</ele>
      </trkpt>
      <trkpt lat="44.608140" lon="2.600970">
        <ele>256.331238</ele>
      </trkpt>
      <trkpt lat="44.608550" lon="2.599720">
        <ele>251.447983</ele>
      </trkpt>
      <trkpt lat="44.608710" lon="2.599440">
        <ele>250.15</ele>
      </trkpt>
      <trkpt lat="44.608990" lon="2.599080">
        <ele>250.15</ele>
      </trkpt>
      <trkpt lat="44.609540" lon="2.598590">
        <ele>253.527496</ele>
      </trkpt>
      <trkpt lat="44.611220" lon="2.597850">
        <ele>260.36</ele>
      </trkpt>
      <trkpt lat="44.611590" lon="2.597590">
        <ele>260.36</ele>
      </trkpt>
      <trkpt lat="44.612030" lon="2.597080">
        <ele>258.182587</ele>
      </trkpt>
      <trkpt lat="44.612680" lon="2.595960">
        <ele>254.84</ele>
      </trkpt>
      <trkpt lat="44.613260" lon="2.595280">
        <ele>254.84</ele>
      </trkpt>
      <trkpt lat="44.614110" lon="2.594410">
        <ele>254.84</ele>
      </trkpt>
      <trkpt lat="44.614780" lon="2.593960">
        <ele>256.10</ele>
      </trkpt>
      <trkpt lat="44.617240" lon="2.592910">
        <ele>255.65</ele>
      </trkpt>
      <trkpt lat="44.617570" lon="2.592730">
        <ele>255.65</ele>
      </trkpt>
      <trkpt lat="44.618630" lon="2.591880">
        <ele>257.22</ele>
      </trkpt>
      <trkpt lat="44.618950" lon="2.591420">
        <ele>253.41</ele>
      </trkpt>
      <trkpt lat="44.619120" lon="2.590980">
        <ele>253.41</ele>
      </trkpt>
      <trkpt lat="44.619220" lon="2.590290">
        <ele>253.41</ele>
      </trkpt>
      <trkpt lat="44.619240" lon="2.589340">
        <ele>253.41</ele>
      </trkpt>
      <trkpt lat="44.619120" lon="2.588620">
        <ele>253.41</ele>
      </trkpt>
      <trkpt lat="44.618780" lon="2.587560">
        <ele>253.238571</ele>
      </trkpt>
      <trkpt lat="44.618730" lon="2.587180">
        <ele>251.56</ele>
      </trkpt>
      <trkpt lat="44.618740" lon="2.586490">
        <ele>251.56</ele>
      </trkpt>
      <trkpt lat="44.618900" lon="2.584500">
        <ele>250.286987</ele>
      </trkpt>
      <trkpt lat="44.619080" lon="2.583140">
        <ele>250.357529</ele>
      </trkpt>
      <trkpt lat="44.619220" lon="2.582660">
        <ele>250.520248</ele>
      </trkpt>
      <trkpt lat="44.619384" lon="2.582322">
        <ele>249.999847</ele>
      </trkpt>
      <trkpt lat="44.619672" lon="2.582127">
        <ele>251.137039</ele>
      </trkpt>
      <trkpt lat="44.620060" lon="2.582090">
        <ele>255.64</ele>
      </trkpt>
      <trkpt lat="44.621840" lon="2.582210">
        <ele>255.64</ele>
      </trkpt>
      <trkpt lat="44.622640" lon="2.582190">
        <ele>256.313416</ele>
      </trkpt>
      <trkpt lat="44.623670" lon="2.582290">
        <ele>254.701996</ele>
      </trkpt>
      <trkpt lat="44.624090" lon="2.582130">
        <ele>251.337509</ele>
      </trkpt>
      <trkpt lat="44.625270" lon="2.581450">
        <ele>247.268280</ele>
      </trkpt>
      <trkpt lat="44.625720" lon="2.581030">
        <ele>247.454010</ele>
      </trkpt>
      <trkpt lat="44.626190" lon="2.580350">
        <ele>253.00</ele>
      </trkpt>
      <trkpt lat="44.626700" lon="2.579330">
        <ele>250.31</ele>
      </trkpt>
      <trkpt lat="44.627090" lon="2.578720">
        <ele>250.31</ele>
      </trkpt>
      <trkpt lat="44.627960" lon="2.577900">
        <ele>250.31</ele>
      </trkpt>
      <trkpt lat="44.628950" lon="2.576090">
        <ele>250.59</ele>
      </trkpt>
      <trkpt lat="44.629140" lon="2.575820">
        <ele>250.348679</ele>
      </trkpt>
      <trkpt lat="44.629420" lon="2.575610">
        <ele>250.31</ele>
      </trkpt>
      <trkpt lat="44.630110" lon="2.575500">
        <ele>249.177216</ele>
      </trkpt>
      <trkpt lat="44.630600" lon="2.575690">
        <ele>247.694595</ele>
      </trkpt>
      <trkpt lat="44.630800" lon="2.575860">
        <ele>245.887497</ele>
      </trkpt>
      <trkpt lat="44.631420" lon="2.576600">
        <ele>244.620850</ele>
      </trkpt>
      <trkpt lat="44.632040" lon="2.577100">
        <ele>244.82</ele>
      </trkpt>
      <trkpt lat="44.632850" lon="2.577570">
        <ele>244.82</ele>
      </trkpt>
      <trkpt lat="44.633520" lon="2.577730">
        <ele>247.586258</ele>
      </trkpt>
      <trkpt lat="44.633950" lon="2.577690">
        <ele>248.76</ele>
      </trkpt>
      <trkpt lat="44.634160" lon="2.577600">
        <ele>248.76</ele>
      </trkpt>
      <trkpt lat="44.634670" lon="2.577240">
        <ele>248.76</ele>
      </trkpt>
      <trkpt lat="44.635000" lon="2.576940">
        <ele>248.76</ele>
      </trkpt>
      <trkpt lat="44.635270" lon="2.576540">
        <ele>243.99</ele>
      </trkpt>
      <trkpt lat="44.635640" lon="2.575850">
        <ele>243.99</ele>
      </trkpt>
      <trkpt lat="44.635810" lon="2.575420">
        <ele>242.83</ele>
      </trkpt>
      <trkpt lat="44.636590" lon="2.572900">
        <ele>238.970840</ele>
      </trkpt>
      <trkpt lat="44.636880" lon="2.571660">
        <ele>238.751633</ele>
      </trkpt>
      <trkpt lat="44.636980" lon="2.570570">
        <ele>236.985901</ele>
      </trkpt>
      <trkpt lat="44.637060" lon="2.570320">
        <ele>236.942505</ele>
      </trkpt>
      <trkpt lat="44.637210" lon="2.570110">
        <ele>236.571777</ele>
      </trkpt>
      <trkpt lat="44.637440" lon="2.570010">
        <ele>236.367004</ele>
      </trkpt>
      <trkpt lat="44.637740" lon="2.570090">
        <ele>236.208755</ele>
      </trkpt>
      <trkpt lat="44.637870" lon="2.570200">
        <ele>236.04</ele>
      </trkpt>
      <trkpt lat="44.638590" lon="2.571180">
        <ele>236.04</ele>
      </trkpt>
      <trkpt lat="44.638920" lon="2.571350">
        <ele>236.04</ele>
      </trkpt>
      <trkpt lat="44.639170" lon="2.571320">
        <ele>236.04</ele>
      </trkpt>
      <trkpt lat="44.639820" lon="2.570910">
        <ele>239.60</ele>
      </trkpt>
      <trkpt lat="44.640420" lon="2.570770">
        <ele>239.60</ele>
      </trkpt>
      <trkpt lat="44.640600" lon="2.570660">
        <ele>239.60</ele>
      </trkpt>
      <trkpt lat="44.641870" lon="2.569310">
        <ele>239.60</ele>
      </trkpt>
      <trkpt lat="44.643360" lon="2.567040">
        <ele>237.10</ele>
      </trkpt>
      <trkpt lat="44.643620" lon="2.566550">
        <ele>237.710648</ele>
      </trkpt>
      <trkpt lat="44.644070" lon="2.565530">
        <ele>238.490005</ele>
      </trkpt>
      <trkpt lat="44.644280" lon="2.565730">
        <ele>238.157684</ele>
      </trkpt>
      <trkpt lat="44.645820" lon="2.565490">
        <ele>238.000000</ele>
      </trkpt>
      <trkpt lat="44.646010" lon="2.565540">
        <ele>238.000000</ele>
      </trkpt>
    </trkseg>
  </trk>
</gpx>
